<?xml version='1.0' encoding='UTF-8'?><gpx version="1.1" creator="JPX - https://github.com/jenetics/jpx" xmlns="http://www.topografix.com/GPX/1/1"><trk><trkseg><trkpt lat="36.822401539146014" lon="14.959096954629219"><ele>121.0</ele><time>2026-03-28T13:49:15Z</time></trkpt><trkpt lat="36.8223292319889" lon="14.959087876212811"><ele>121.0</ele><time>2026-03-28T13:52:13.001Z</time></trkpt><trkpt lat="36.82227313270531" lon="14.959147476398307"><ele>121.0</ele><time>2026-03-28T13:52:16.001Z</time></trkpt><trkpt lat="36.82229772493867" lon="14.959301360625396"><ele>121.0</ele><time>2026-03-28T13:52:18.001Z</time></trkpt><trkpt lat="36.82237264271431" lon="14.959424661800453"><ele>121.0</ele><time>2026-03-28T13:52:19.001Z</time></trkpt><trkpt lat="36.822435532706265" lon="14.959508173889867"><ele>119.6</ele><time>2026-03-28T13:52:20.001Z</time></trkpt><trkpt lat="36.822491562957254" lon="14.959605290696118"><ele>118.19999999999999</ele><time>2026-03-28T13:52:21.001Z</time></trkpt><trkpt lat="36.82253316915618" lon="14.959729978236654"><ele>116.80000000000001</ele><time>2026-03-28T13:52:22.001Z</time></trkpt><trkpt lat="36.82255299542085" lon="14.959865712052247"><ele>115.4</ele><time>2026-03-28T13:52:23.001Z</time></trkpt><trkpt lat="36.82255959446624" lon="14.960010916002584"><ele>114.0</ele><time>2026-03-28T13:52:24.001Z</time></trkpt><trkpt lat="36.822555776957195" lon="14.960154148824065"><ele>113.66666666666667</ele><time>2026-03-28T13:52:25.001Z</time></trkpt><trkpt lat="36.822549043242795" lon="14.96028205265008"><ele>113.33333333333334</ele><time>2026-03-28T13:52:26.001Z</time></trkpt><trkpt lat="36.82255556859477" lon="14.960387664611567"><ele>113.0</ele><time>2026-03-28T13:52:27.001Z</time></trkpt><trkpt lat="36.82258264096562" lon="14.96047380581602"><ele>112.66666666666667</ele><time>2026-03-28T13:52:28.001Z</time></trkpt><trkpt lat="36.8226321847625" lon="14.960538874387563"><ele>112.33333333333334</ele><time>2026-03-28T13:52:29.001Z</time></trkpt><trkpt lat="36.8227013628648" lon="14.960583366385222"><ele>112.0</ele><time>2026-03-28T13:52:30.001Z</time></trkpt><trkpt lat="36.82281236411798" lon="14.960621963617927"><ele>112.0</ele><time>2026-03-28T13:52:31.001Z</time></trkpt><trkpt lat="36.82292776303897" lon="14.960646903331302"><ele>112.0</ele><time>2026-03-28T13:52:32.001Z</time></trkpt><trkpt lat="36.82305678715839" lon="14.960682090097075"><ele>112.0</ele><time>2026-03-28T13:52:33.001Z</time></trkpt><trkpt lat="36.82315275600778" lon="14.960745779086842"><ele>112.0</ele><time>2026-03-28T13:52:34.001Z</time></trkpt><trkpt lat="36.82323706653362" lon="14.960828592666893"><ele>111.0</ele><time>2026-03-28T13:52:35.001Z</time></trkpt><trkpt lat="36.82330601877052" lon="14.960937730967522"><ele>110.0</ele><time>2026-03-28T13:52:36.001Z</time></trkpt><trkpt lat="36.82336843145483" lon="14.961061591493328"><ele>109.0</ele><time>2026-03-28T13:52:37.001Z</time></trkpt><trkpt lat="36.82342439498804" lon="14.961192171098713"><ele>108.0</ele><time>2026-03-28T13:52:38.001Z</time></trkpt><trkpt lat="36.82348381661754" lon="14.961318130487994"><ele>107.75</ele><time>2026-03-28T13:52:39.001Z</time></trkpt><trkpt lat="36.82354899899231" lon="14.961447122151691"><ele>107.5</ele><time>2026-03-28T13:52:40.001Z</time></trkpt><trkpt lat="36.82362100758342" lon="14.96157994660173"><ele>107.25</ele><time>2026-03-28T13:52:41.001Z</time></trkpt><trkpt lat="36.82367880669045" lon="14.961700719645135"><ele>107.0</ele><time>2026-03-28T13:52:42.001Z</time></trkpt><trkpt lat="36.8237360887574" lon="14.961813161848188"><ele>106.8</ele><time>2026-03-28T13:52:43.001Z</time></trkpt><trkpt lat="36.8237955967709" lon="14.961925717563753"><ele>106.6</ele><time>2026-03-28T13:52:44.001Z</time></trkpt><trkpt lat="36.82386317404106" lon="14.962034662163337"><ele>106.39999999999999</ele><time>2026-03-28T13:52:45.001Z</time></trkpt><trkpt lat="36.8239331606899" lon="14.962144844056164"><ele>106.19999999999999</ele><time>2026-03-28T13:52:46.001Z</time></trkpt><trkpt lat="36.823990939221744" lon="14.96226139486131"><ele>106.0</ele><time>2026-03-28T13:52:47.001Z</time></trkpt><trkpt lat="36.82404202522722" lon="14.962383617695455"><ele>106.0</ele><time>2026-03-28T13:52:48.001Z</time></trkpt><trkpt lat="36.824096043672604" lon="14.96251363135617"><ele>106.0</ele><time>2026-03-28T13:52:49.001Z</time></trkpt><trkpt lat="36.82416558635854" lon="14.962662711742322"><ele>106.0</ele><time>2026-03-28T13:52:50.001Z</time></trkpt><trkpt lat="36.824257610039695" lon="14.962837640220545"><ele>106.0</ele><time>2026-03-28T13:52:51.001Z</time></trkpt><trkpt lat="36.82435618315505" lon="14.963027788462453"><ele>106.66666666666667</ele><time>2026-03-28T13:52:52.001Z</time></trkpt><trkpt lat="36.82446424086429" lon="14.96324796281685"><ele>107.33333333333334</ele><time>2026-03-28T13:52:53.001Z</time></trkpt><trkpt lat="36.824579404208045" lon="14.963480036766216"><ele>108.0</ele><time>2026-03-28T13:52:54.001Z</time></trkpt><trkpt lat="36.824686645473264" lon="14.963695962857429"><ele>106.66666666666666</ele><time>2026-03-28T13:52:55.001Z</time></trkpt><trkpt lat="36.824786993470454" lon="14.963883888775385"><ele>105.33333333333333</ele><time>2026-03-28T13:52:56.001Z</time></trkpt><trkpt lat="36.82488272457971" lon="14.96406093960578"><ele>104.0</ele><time>2026-03-28T13:52:57.001Z</time></trkpt><trkpt lat="36.82498014932075" lon="14.964240616703915"><ele>103.66666666666666</ele><time>2026-03-28T13:52:58.001Z</time></trkpt><trkpt lat="36.82507594861587" lon="14.964400469465259"><ele>103.33333333333334</ele><time>2026-03-28T13:52:59.001Z</time></trkpt><trkpt lat="36.8251479368699" lon="14.964556732561523"><ele>103.0</ele><time>2026-03-28T13:53:00.001Z</time></trkpt><trkpt lat="36.82523165104071" lon="14.964716368514155"><ele>103.0</ele><time>2026-03-28T13:53:01.001Z</time></trkpt><trkpt lat="36.82531365577447" lon="14.964870033992765"><ele>103.0</ele><time>2026-03-28T13:53:02.001Z</time></trkpt><trkpt lat="36.82538741192711" lon="14.965009094815445"><ele>103.0</ele><time>2026-03-28T13:53:03.001Z</time></trkpt><trkpt lat="36.825455174655204" lon="14.965138591383369"><ele>103.0</ele><time>2026-03-28T13:53:04.001Z</time></trkpt><trkpt lat="36.82551673547466" lon="14.965262878937082"><ele>102.80000000000001</ele><time>2026-03-28T13:53:05.001Z</time></trkpt><trkpt lat="36.82557232860744" lon="14.96537531768114"><ele>102.6</ele><time>2026-03-28T13:53:06.001Z</time></trkpt><trkpt lat="36.82561902756353" lon="14.965476639406278"><ele>102.4</ele><time>2026-03-28T13:53:07.001Z</time></trkpt><trkpt lat="36.825658630268045" lon="14.965579067787022"><ele>102.19999999999999</ele><time>2026-03-28T13:53:08.001Z</time></trkpt><trkpt lat="36.82567979921164" lon="14.965691976840757"><ele>102.0</ele><time>2026-03-28T13:53:09.001Z</time></trkpt><trkpt lat="36.82568050413951" lon="14.965790280011955"><ele>101.8</ele><time>2026-03-28T13:53:10.001Z</time></trkpt><trkpt lat="36.82575366976915" lon="14.965877379127006"><ele>101.6</ele><time>2026-03-28T13:53:12.001Z</time></trkpt><trkpt lat="36.82578658841293" lon="14.965954715684774"><ele>101.39999999999999</ele><time>2026-03-28T13:53:13.001Z</time></trkpt><trkpt lat="36.82589492485529" lon="14.966026359829344"><ele>101.19999999999999</ele><time>2026-03-28T13:53:14.001Z</time></trkpt><trkpt lat="36.825990068101525" lon="14.966132278481634"><ele>101.0</ele><time>2026-03-28T13:53:15.001Z</time></trkpt><trkpt lat="36.826075809085694" lon="14.966289379708094"><ele>101.0</ele><time>2026-03-28T13:53:16.001Z</time></trkpt><trkpt lat="36.82616342998051" lon="14.96648089832625"><ele>101.0</ele><time>2026-03-28T13:53:17.001Z</time></trkpt><trkpt lat="36.826276165388414" lon="14.966716292822804"><ele>101.0</ele><time>2026-03-28T13:53:18.001Z</time></trkpt><trkpt lat="36.82639993134461" lon="14.966954745414313"><ele>100.5</ele><time>2026-03-28T13:53:19.001Z</time></trkpt><trkpt lat="36.82653139279469" lon="14.967208907219405"><ele>100.0</ele><time>2026-03-28T13:53:20.001Z</time></trkpt><trkpt lat="36.82666996456474" lon="14.967470781211256"><ele>98.0</ele><time>2026-03-28T13:53:21.001Z</time></trkpt><trkpt lat="36.826813050434424" lon="14.967736144529498"><ele>96.0</ele><time>2026-03-28T13:53:22.001Z</time></trkpt><trkpt lat="36.826956121854" lon="14.968006791826067"><ele>96.0</ele><time>2026-03-28T13:53:23.001Z</time></trkpt><trkpt lat="36.827096951208354" lon="14.968280231902424"><ele>96.0</ele><time>2026-03-28T13:53:24.001Z</time></trkpt><trkpt lat="36.82722909892445" lon="14.968534413888944"><ele>93.5</ele><time>2026-03-28T13:53:25.001Z</time></trkpt><trkpt lat="36.82735717074645" lon="14.968769838055866"><ele>91.0</ele><time>2026-03-28T13:53:26.001Z</time></trkpt><trkpt lat="36.82748272627631" lon="14.969000626126329"><ele>91.0</ele><time>2026-03-28T13:53:27.001Z</time></trkpt><trkpt lat="36.827599785489774" lon="14.969218323433516"><ele>91.0</ele><time>2026-03-28T13:53:28.001Z</time></trkpt><trkpt lat="36.82770591606148" lon="14.969426091471371"><ele>91.0</ele><time>2026-03-28T13:53:29.001Z</time></trkpt><trkpt lat="36.82780989977685" lon="14.9696363542881"><ele>91.0</ele><time>2026-03-28T13:53:30.001Z</time></trkpt><trkpt lat="36.82791162552788" lon="14.969837656710828"><ele>91.0</ele><time>2026-03-28T13:53:31.001Z</time></trkpt><trkpt lat="36.828012621625234" lon="14.970036520951053"><ele>91.0</ele><time>2026-03-28T13:53:32.001Z</time></trkpt><trkpt lat="36.82811811924206" lon="14.97023881351819"><ele>90.0</ele><time>2026-03-28T13:53:33.001Z</time></trkpt><trkpt lat="36.8282225052562" lon="14.970429004974354"><ele>89.0</ele><time>2026-03-28T13:53:34.001Z</time></trkpt><trkpt lat="36.82832048130138" lon="14.970614741780023"><ele>88.0</ele><time>2026-03-28T13:53:35.001Z</time></trkpt><trkpt lat="36.82842788419111" lon="14.97081546389102"><ele>87.0</ele><time>2026-03-28T13:53:36.001Z</time></trkpt><trkpt lat="36.828539390972615" lon="14.971030341671655"><ele>86.0</ele><time>2026-03-28T13:53:37.001Z</time></trkpt><trkpt lat="36.82865079261553" lon="14.971252915971233"><ele>85.0</ele><time>2026-03-28T13:53:38.001Z</time></trkpt><trkpt lat="36.828765084316395" lon="14.97147812738995"><ele>83.33333333333333</ele><time>2026-03-28T13:53:39.001Z</time></trkpt><trkpt lat="36.82888128604623" lon="14.971705833005666"><ele>81.66666666666667</ele><time>2026-03-28T13:53:40.001Z</time></trkpt><trkpt lat="36.829001058788315" lon="14.971944576892065"><ele>80.0</ele><time>2026-03-28T13:53:41.001Z</time></trkpt><trkpt lat="36.8291274594635" lon="14.97218644182723"><ele>80.0</ele><time>2026-03-28T13:53:42.001Z</time></trkpt><trkpt lat="36.82925635399232" lon="14.972414265332779"><ele>80.0</ele><time>2026-03-28T13:53:43.001Z</time></trkpt><trkpt lat="36.82938943083161" lon="14.972640398133073"><ele>80.0</ele><time>2026-03-28T13:53:44.001Z</time></trkpt><trkpt lat="36.82953148098561" lon="14.972864515322568"><ele>78.0</ele><time>2026-03-28T13:53:45.001Z</time></trkpt><trkpt lat="36.82968707130433" lon="14.973088566040083"><ele>76.0</ele><time>2026-03-28T13:53:46.001Z</time></trkpt><trkpt lat="36.82985552918163" lon="14.973303458367733"><ele>74.5</ele><time>2026-03-28T13:53:47.001Z</time></trkpt><trkpt lat="36.830026847966295" lon="14.973510224018803"><ele>73.0</ele><time>2026-03-28T13:53:48.001Z</time></trkpt><trkpt lat="36.83020294984851" lon="14.973721033761597"><ele>72.5</ele><time>2026-03-28T13:53:49.001Z</time></trkpt><trkpt lat="36.83038074826809" lon="14.973940877848122"><ele>72.0</ele><time>2026-03-28T13:53:50.001Z</time></trkpt><trkpt lat="36.83056120126051" lon="14.974158753999085"><ele>71.0</ele><time>2026-03-28T13:53:51.001Z</time></trkpt><trkpt lat="36.83074380136842" lon="14.974377854555584"><ele>70.0</ele><time>2026-03-28T13:53:52.001Z</time></trkpt><trkpt lat="36.830925105874734" lon="14.974599879200666"><ele>70.5</ele><time>2026-03-28T13:53:53.001Z</time></trkpt><trkpt lat="36.83110272368946" lon="14.974821040763466"><ele>71.0</ele><time>2026-03-28T13:53:54.001Z</time></trkpt><trkpt lat="36.83127703951977" lon="14.975036835928396"><ele>69.5</ele><time>2026-03-28T13:53:55.001Z</time></trkpt><trkpt lat="36.83144538006081" lon="14.9752471818102"><ele>68.0</ele><time>2026-03-28T13:53:56.001Z</time></trkpt><trkpt lat="36.831612326413264" lon="14.975456403725744"><ele>68.0</ele><time>2026-03-28T13:53:57.001Z</time></trkpt><trkpt lat="36.83177757983766" lon="14.975665007152902"><ele>68.0</ele><time>2026-03-28T13:53:58.001Z</time></trkpt><trkpt lat="36.83194476140071" lon="14.97587670339312"><ele>67.5</ele><time>2026-03-28T13:53:59.001Z</time></trkpt><trkpt lat="36.832122082231635" lon="14.976098108544571"><ele>67.0</ele><time>2026-03-28T13:54:00.001Z</time></trkpt><trkpt lat="36.832297449194904" lon="14.97631735616737"><ele>67.0</ele><time>2026-03-28T13:54:01.001Z</time></trkpt><trkpt lat="36.832467854828046" lon="14.976526615695434"><ele>67.0</ele><time>2026-03-28T13:54:02.001Z</time></trkpt><trkpt lat="36.83263595097743" lon="14.97673324886806"><ele>66.66666666666666</ele><time>2026-03-28T13:54:03.001Z</time></trkpt><trkpt lat="36.83279548931942" lon="14.976931891722675"><ele>66.33333333333333</ele><time>2026-03-28T13:54:04.001Z</time></trkpt><trkpt lat="36.832942067049174" lon="14.977114318488553"><ele>66.0</ele><time>2026-03-28T13:54:05.001Z</time></trkpt><trkpt lat="36.83307858269893" lon="14.977283673593794"><ele>66.0</ele><time>2026-03-28T13:54:06.001Z</time></trkpt><trkpt lat="36.83321864987544" lon="14.977443075403201"><ele>66.0</ele><time>2026-03-28T13:54:07.001Z</time></trkpt><trkpt lat="36.833371740996746" lon="14.9775864899024"><ele>66.0</ele><time>2026-03-28T13:54:08.001Z</time></trkpt><trkpt lat="36.83355782963661" lon="14.977719986839523"><ele>65.0</ele><time>2026-03-28T13:54:09.001Z</time></trkpt><trkpt lat="36.833755828311546" lon="14.977843215864702"><ele>64.0</ele><time>2026-03-28T13:54:10.001Z</time></trkpt><trkpt lat="36.83393309905194" lon="14.977947980057646"><ele>63.0</ele><time>2026-03-28T13:54:11.001Z</time></trkpt><trkpt lat="36.834101699130244" lon="14.978045677260255"><ele>63.0</ele><time>2026-03-28T13:54:12.001Z</time></trkpt><trkpt lat="36.83428206522997" lon="14.978145701672641"><ele>63.0</ele><time>2026-03-28T13:54:13.001Z</time></trkpt><trkpt lat="36.834467705168755" lon="14.978255256791327"><ele>63.0</ele><time>2026-03-28T13:54:14.001Z</time></trkpt><trkpt lat="36.834659373104444" lon="14.978366106425856"><ele>62.33333333333333</ele><time>2026-03-28T13:54:15.001Z</time></trkpt><trkpt lat="36.83483865487021" lon="14.978473019222317"><ele>61.666666666666664</ele><time>2026-03-28T13:54:16.001Z</time></trkpt><trkpt lat="36.83502629939709" lon="14.978586404194441"><ele>61.0</ele><time>2026-03-28T13:54:17.001Z</time></trkpt><trkpt lat="36.83521708631727" lon="14.97871150613836"><ele>61.0</ele><time>2026-03-28T13:54:18.001Z</time></trkpt><trkpt lat="36.83540309482684" lon="14.97884830675527"><ele>61.0</ele><time>2026-03-28T13:54:19.001Z</time></trkpt><trkpt lat="36.835585606807065" lon="14.978995949067274"><ele>61.0</ele><time>2026-03-28T13:54:20.001Z</time></trkpt><trkpt lat="36.83576579808788" lon="14.979145801153571"><ele>60.666666666666664</ele><time>2026-03-28T13:54:21.001Z</time></trkpt><trkpt lat="36.83595154565186" lon="14.979296354336173"><ele>60.33333333333333</ele><time>2026-03-28T13:54:22.001Z</time></trkpt><trkpt lat="36.83614333679789" lon="14.979445940960003"><ele>60.0</ele><time>2026-03-28T13:54:23.001Z</time></trkpt><trkpt lat="36.836341263403895" lon="14.979595031301326"><ele>60.0</ele><time>2026-03-28T13:54:24.001Z</time></trkpt><trkpt lat="36.836540525495586" lon="14.979741727928317"><ele>60.0</ele><time>2026-03-28T13:54:25.001Z</time></trkpt><trkpt lat="36.83674535019239" lon="14.979890448534713"><ele>58.5</ele><time>2026-03-28T13:54:26.001Z</time></trkpt><trkpt lat="36.83694812162073" lon="14.980050707160878"><ele>57.0</ele><time>2026-03-28T13:54:27.001Z</time></trkpt><trkpt lat="36.83715248450041" lon="14.9802185915534"><ele>57.0</ele><time>2026-03-28T13:54:28.001Z</time></trkpt><trkpt lat="36.83735681587669" lon="14.980385624743283"><ele>57.0</ele><time>2026-03-28T13:54:29.001Z</time></trkpt><trkpt lat="36.837575527245804" lon="14.980561774387372"><ele>56.0</ele><time>2026-03-28T13:54:30.001Z</time></trkpt><trkpt lat="36.83780570743874" lon="14.980743015259346"><ele>55.0</ele><time>2026-03-28T13:54:31.001Z</time></trkpt><trkpt lat="36.83802745635227" lon="14.980917368754566"><ele>55.0</ele><time>2026-03-28T13:54:32.001Z</time></trkpt><trkpt lat="36.8382407264059" lon="14.981080806777069"><ele>55.0</ele><time>2026-03-28T13:54:33.001Z</time></trkpt><trkpt lat="36.83843963553713" lon="14.9812380867304"><ele>56.0</ele><time>2026-03-28T13:54:34.001Z</time></trkpt><trkpt lat="36.83864562762632" lon="14.981393464218936"><ele>57.0</ele><time>2026-03-28T13:54:35.001Z</time></trkpt><trkpt lat="36.83885329057603" lon="14.981550227478394"><ele>56.5</ele><time>2026-03-28T13:54:36.001Z</time></trkpt><trkpt lat="36.839061282732786" lon="14.981708352111752"><ele>56.0</ele><time>2026-03-28T13:54:37.001Z</time></trkpt><trkpt lat="36.83926884073002" lon="14.981866927193462"><ele>56.0</ele><time>2026-03-28T13:54:38.001Z</time></trkpt><trkpt lat="36.839471374047775" lon="14.982022079938597"><ele>56.0</ele><time>2026-03-28T13:54:39.001Z</time></trkpt><trkpt lat="36.83965833504513" lon="14.98216611309283"><ele>56.0</ele><time>2026-03-28T13:54:40.001Z</time></trkpt><trkpt lat="36.83983821711738" lon="14.982308761274163"><ele>56.0</ele><time>2026-03-28T13:54:41.001Z</time></trkpt><trkpt lat="36.84001247012642" lon="14.982458071283077"><ele>56.0</ele><time>2026-03-28T13:54:42.002Z</time></trkpt><trkpt lat="36.84016743677797" lon="14.982617070038792"><ele>56.0</ele><time>2026-03-28T13:54:43.002Z</time></trkpt><trkpt lat="36.84030259246243" lon="14.982787175253668"><ele>56.0</ele><time>2026-03-28T13:54:44.002Z</time></trkpt><trkpt lat="36.8404137116947" lon="14.982978460845397"><ele>56.0</ele><time>2026-03-28T13:54:45.002Z</time></trkpt><trkpt lat="36.84050526673843" lon="14.983191563207324"><ele>55.66666666666667</ele><time>2026-03-28T13:54:46.002Z</time></trkpt><trkpt lat="36.840577642021465" lon="14.983423811572775"><ele>55.33333333333333</ele><time>2026-03-28T13:54:47.002Z</time></trkpt><trkpt lat="36.84063307911757" lon="14.983679826920294"><ele>55.0</ele><time>2026-03-28T13:54:48.002Z</time></trkpt><trkpt lat="36.84067893809811" lon="14.98395284287812"><ele>56.5</ele><time>2026-03-28T13:54:49.001Z</time></trkpt><trkpt lat="36.840732582465954" lon="14.984244678706677"><ele>58.0</ele><time>2026-03-28T13:54:50.001Z</time></trkpt><trkpt lat="36.84079098608979" lon="14.984500323900388"><ele>58.0</ele><time>2026-03-28T13:54:51.001Z</time></trkpt><trkpt lat="36.84085345189064" lon="14.984708551382257"><ele>58.0</ele><time>2026-03-28T13:54:52.001Z</time></trkpt><trkpt lat="36.84092843313727" lon="14.984888530352512"><ele>58.0</ele><time>2026-03-28T13:54:53.001Z</time></trkpt><trkpt lat="36.84103447035883" lon="14.985063150472778"><ele>60.0</ele><time>2026-03-28T13:54:54.001Z</time></trkpt><trkpt lat="36.84116375900922" lon="14.985222379533617"><ele>62.0</ele><time>2026-03-28T13:54:55.001Z</time></trkpt><trkpt lat="36.841313326042254" lon="14.98536996073887"><ele>64.0</ele><time>2026-03-28T13:54:56.001Z</time></trkpt><trkpt lat="36.841484552905634" lon="14.985497340893879"><ele>64.0</ele><time>2026-03-28T13:54:57.001Z</time></trkpt><trkpt lat="36.841669716401306" lon="14.985612341785515"><ele>64.0</ele><time>2026-03-28T13:54:58.001Z</time></trkpt><trkpt lat="36.84186707001858" lon="14.985736712908002"><ele>64.0</ele><time>2026-03-28T13:54:59.001Z</time></trkpt><trkpt lat="36.842069757326854" lon="14.985870551956769"><ele>67.0</ele><time>2026-03-28T13:55:00.001Z</time></trkpt><trkpt lat="36.84226772971617" lon="14.98600545886734"><ele>70.0</ele><time>2026-03-28T13:55:01.001Z</time></trkpt><trkpt lat="36.84246806786779" lon="14.986141272122163"><ele>70.5</ele><time>2026-03-28T13:55:02.001Z</time></trkpt><trkpt lat="36.84267297708595" lon="14.986276295921277"><ele>71.0</ele><time>2026-03-28T13:55:03.001Z</time></trkpt><trkpt lat="36.84288141233048" lon="14.986415979043807"><ele>71.0</ele><time>2026-03-28T13:55:04.001Z</time></trkpt><trkpt lat="36.84308979654832" lon="14.986559240152998"><ele>71.0</ele><time>2026-03-28T13:55:05.001Z</time></trkpt><trkpt lat="36.84329182384474" lon="14.986705752179407"><ele>72.0</ele><time>2026-03-28T13:55:06.001Z</time></trkpt><trkpt lat="36.843470665858284" lon="14.986846796762464"><ele>73.0</ele><time>2026-03-28T13:55:07.001Z</time></trkpt><trkpt lat="36.84363593883751" lon="14.987003599521959"><ele>74.0</ele><time>2026-03-28T13:55:08.001Z</time></trkpt><trkpt lat="36.84378943479697" lon="14.987181675325552"><ele>74.0</ele><time>2026-03-28T13:55:09.001Z</time></trkpt><trkpt lat="36.8439310676144" lon="14.987386086951926"><ele>74.0</ele><time>2026-03-28T13:55:10.001Z</time></trkpt><trkpt lat="36.84406241342333" lon="14.987605052978552"><ele>74.0</ele><time>2026-03-28T13:55:11.001Z</time></trkpt><trkpt lat="36.84419073900975" lon="14.98783770144301"><ele>74.5</ele><time>2026-03-28T13:55:12.001Z</time></trkpt><trkpt lat="36.844318605236374" lon="14.988083300207142"><ele>75.0</ele><time>2026-03-28T13:55:13.001Z</time></trkpt><trkpt lat="36.844453977852126" lon="14.988328309815078"><ele>74.5</ele><time>2026-03-28T13:55:14.001Z</time></trkpt><trkpt lat="36.84458982481767" lon="14.988576689818506"><ele>74.0</ele><time>2026-03-28T13:55:15.001Z</time></trkpt><trkpt lat="36.84472862516006" lon="14.988830486440252"><ele>74.0</ele><time>2026-03-28T13:55:16.001Z</time></trkpt><trkpt lat="36.84487213896281" lon="14.989086735407096"><ele>74.0</ele><time>2026-03-28T13:55:17.001Z</time></trkpt><trkpt lat="36.84501855088954" lon="14.989345791903192"><ele>74.5</ele><time>2026-03-28T13:55:18.001Z</time></trkpt><trkpt lat="36.84516343327873" lon="14.989597976424092"><ele>75.0</ele><time>2026-03-28T13:55:19.001Z</time></trkpt><trkpt lat="36.84529115785525" lon="14.989828539923085"><ele>75.33333333333333</ele><time>2026-03-28T13:55:20.001Z</time></trkpt><trkpt lat="36.845410695340505" lon="14.990055522231355"><ele>75.66666666666666</ele><time>2026-03-28T13:55:21.001Z</time></trkpt><trkpt lat="36.8455336386468" lon="14.990281061373345"><ele>76.0</ele><time>2026-03-28T13:55:22.001Z</time></trkpt><trkpt lat="36.84565880939242" lon="14.990511631094423"><ele>76.0</ele><time>2026-03-28T13:55:23.001Z</time></trkpt><trkpt lat="36.845789056254766" lon="14.99074937204606"><ele>76.0</ele><time>2026-03-28T13:55:24.001Z</time></trkpt><trkpt lat="36.84591749690266" lon="14.990978829048897"><ele>75.66666666666666</ele><time>2026-03-28T13:55:25.001Z</time></trkpt><trkpt lat="36.84603949926663" lon="14.991182231868827"><ele>75.33333333333333</ele><time>2026-03-28T13:55:26.001Z</time></trkpt><trkpt lat="36.84617025090532" lon="14.991365204757406"><ele>75.0</ele><time>2026-03-28T13:55:27.001Z</time></trkpt><trkpt lat="36.84632402853241" lon="14.99153598472465"><ele>74.5</ele><time>2026-03-28T13:55:28.001Z</time></trkpt><trkpt lat="36.846505402308615" lon="14.991693658294782"><ele>74.0</ele><time>2026-03-28T13:55:29.001Z</time></trkpt><trkpt lat="36.84670694279753" lon="14.991845311280592"><ele>72.5</ele><time>2026-03-28T13:55:30.001Z</time></trkpt><trkpt lat="36.84690634083064" lon="14.992003125146436"><ele>71.0</ele><time>2026-03-28T13:55:31.001Z</time></trkpt><trkpt lat="36.84709246699322" lon="14.992151487297063"><ele>71.0</ele><time>2026-03-28T13:55:32.001Z</time></trkpt><trkpt lat="36.84727385349064" lon="14.992297022242559"><ele>71.0</ele><time>2026-03-28T13:55:33.001Z</time></trkpt><trkpt lat="36.847450237718185" lon="14.992440740789991"><ele>71.0</ele><time>2026-03-28T13:55:34.001Z</time></trkpt><trkpt lat="36.847628814467576" lon="14.992593334578697"><ele>70.33333333333334</ele><time>2026-03-28T13:55:35.001Z</time></trkpt><trkpt lat="36.84780386047072" lon="14.9927516865814"><ele>69.66666666666667</ele><time>2026-03-28T13:55:36.001Z</time></trkpt><trkpt lat="36.84797313874513" lon="14.992926561976441"><ele>69.0</ele><time>2026-03-28T13:55:37.001Z</time></trkpt><trkpt lat="36.84813402457244" lon="14.99312746612084"><ele>68.33333333333333</ele><time>2026-03-28T13:55:38.001Z</time></trkpt><trkpt lat="36.84828571683723" lon="14.993350878637846"><ele>67.66666666666666</ele><time>2026-03-28T13:55:39.001Z</time></trkpt><trkpt lat="36.84841484715187" lon="14.993558033424474"><ele>67.0</ele><time>2026-03-28T13:55:40.001Z</time></trkpt><trkpt lat="36.848538204864475" lon="14.993748185259802"><ele>67.66666666666666</ele><time>2026-03-28T13:55:41.001Z</time></trkpt><trkpt lat="36.848662560465506" lon="14.993923574927786"><ele>68.33333333333333</ele><time>2026-03-28T13:55:42.001Z</time></trkpt><trkpt lat="36.84879544001284" lon="14.994101633101108"><ele>69.0</ele><time>2026-03-28T13:55:43.001Z</time></trkpt><trkpt lat="36.84893365857439" lon="14.99426533092452"><ele>69.0</ele><time>2026-03-28T13:55:44.001Z</time></trkpt><trkpt lat="36.84908127764946" lon="14.994416687302902"><ele>69.0</ele><time>2026-03-28T13:55:45.001Z</time></trkpt><trkpt lat="36.849232419956124" lon="14.994558027743018"><ele>69.0</ele><time>2026-03-28T13:55:46.001Z</time></trkpt><trkpt lat="36.84938016225336" lon="14.99470403007756"><ele>69.33333333333333</ele><time>2026-03-28T13:55:47.001Z</time></trkpt><trkpt lat="36.849530706972764" lon="14.99485582525077"><ele>69.66666666666666</ele><time>2026-03-28T13:55:48.001Z</time></trkpt><trkpt lat="36.84967938179104" lon="14.995001948437135"><ele>70.0</ele><time>2026-03-28T13:55:49.001Z</time></trkpt><trkpt lat="36.84983427425564" lon="14.995147342886217"><ele>69.33333333333333</ele><time>2026-03-28T13:55:50.001Z</time></trkpt><trkpt lat="36.85000713589827" lon="14.99528461620192"><ele>68.66666666666667</ele><time>2026-03-28T13:55:51.001Z</time></trkpt><trkpt lat="36.850204234918714" lon="14.995401228847415"><ele>68.0</ele><time>2026-03-28T13:55:52.001Z</time></trkpt><trkpt lat="36.85039513011531" lon="14.995487170568165"><ele>68.0</ele><time>2026-03-28T13:55:53.001Z</time></trkpt><trkpt lat="36.850555062389155" lon="14.99555606733199"><ele>68.0</ele><time>2026-03-28T13:55:54.001Z</time></trkpt><trkpt lat="36.85069259690766" lon="14.995631292967552"><ele>68.0</ele><time>2026-03-28T13:55:55.001Z</time></trkpt><trkpt lat="36.85082220031896" lon="14.995711932665955"><ele>66.33333333333334</ele><time>2026-03-28T13:55:56.001Z</time></trkpt><trkpt lat="36.850959748740294" lon="14.995806508773688"><ele>64.66666666666667</ele><time>2026-03-28T13:55:57.001Z</time></trkpt><trkpt lat="36.85109976634993" lon="14.995929124697913"><ele>63.0</ele><time>2026-03-28T13:55:58.001Z</time></trkpt><trkpt lat="36.851228132420516" lon="14.99609211307559"><ele>63.0</ele><time>2026-03-28T13:55:59.001Z</time></trkpt><trkpt lat="36.851339900341245" lon="14.996275510656218"><ele>63.0</ele><time>2026-03-28T13:56:00.001Z</time></trkpt><trkpt lat="36.85143602627823" lon="14.99645181074738"><ele>63.0</ele><time>2026-03-28T13:56:01.001Z</time></trkpt><trkpt lat="36.85152651109184" lon="14.996611077891872"><ele>63.25</ele><time>2026-03-28T13:56:02.001Z</time></trkpt><trkpt lat="36.85162128584351" lon="14.996755116239003"><ele>63.5</ele><time>2026-03-28T13:56:03.001Z</time></trkpt><trkpt lat="36.85171878197921" lon="14.99688937166486"><ele>63.75</ele><time>2026-03-28T13:56:04.001Z</time></trkpt><trkpt lat="36.85182754524103" lon="14.997014680133624"><ele>64.0</ele><time>2026-03-28T13:56:05.001Z</time></trkpt><trkpt lat="36.85194564854418" lon="14.997123598146661"><ele>63.5</ele><time>2026-03-28T13:56:06.001Z</time></trkpt><trkpt lat="36.85206268141402" lon="14.997223964569306"><ele>63.0</ele><time>2026-03-28T13:56:07.001Z</time></trkpt><trkpt lat="36.85217068673551" lon="14.997323696103932"><ele>62.5</ele><time>2026-03-28T13:56:08.001Z</time></trkpt><trkpt lat="36.852276332808266" lon="14.997426173005126"><ele>62.0</ele><time>2026-03-28T13:56:09.001Z</time></trkpt><trkpt lat="36.85237789192731" lon="14.997529862694046"><ele>62.0</ele><time>2026-03-28T13:56:10.001Z</time></trkpt><trkpt lat="36.85247242286631" lon="14.9976290997014"><ele>62.0</ele><time>2026-03-28T13:56:11.001Z</time></trkpt><trkpt lat="36.85255947505312" lon="14.997726462225142"><ele>62.0</ele><time>2026-03-28T13:56:12.001Z</time></trkpt><trkpt lat="36.85264040895421" lon="14.997828382489782"><ele>62.0</ele><time>2026-03-28T13:56:13.001Z</time></trkpt><trkpt lat="36.85271246326212" lon="14.997949848163918"><ele>60.5</ele><time>2026-03-28T13:56:14.001Z</time></trkpt><trkpt lat="36.852775355027404" lon="14.998096337838918"><ele>59.0</ele><time>2026-03-28T13:56:15.001Z</time></trkpt><trkpt lat="36.85282478239452" lon="14.998253852797603"><ele>57.5</ele><time>2026-03-28T13:56:16.001Z</time></trkpt><trkpt lat="36.85289471196235" lon="14.99837219185638"><ele>56.0</ele><time>2026-03-28T13:56:17.001Z</time></trkpt><trkpt lat="36.85285463346336" lon="14.998565482765965"><ele>55.0</ele><time>2026-03-28T13:56:18.001Z</time></trkpt><trkpt lat="36.85284428515883" lon="14.998715096332758"><ele>54.0</ele><time>2026-03-28T13:56:19.001Z</time></trkpt><trkpt lat="36.852835064086655" lon="14.998860033755097"><ele>53.0</ele><time>2026-03-28T13:56:20.001Z</time></trkpt><trkpt lat="36.8528333539077" lon="14.999004081440058"><ele>52.0</ele><time>2026-03-28T13:56:21.001Z</time></trkpt><trkpt lat="36.85283720718211" lon="14.999144883376173"><ele>51.400000000000006</ele><time>2026-03-28T13:56:22.001Z</time></trkpt><trkpt lat="36.852845183494345" lon="14.999284299982152"><ele>50.800000000000004</ele><time>2026-03-28T13:56:23.001Z</time></trkpt><trkpt lat="36.85285704486489" lon="14.999421204972007"><ele>50.2</ele><time>2026-03-28T13:56:24.001Z</time></trkpt><trkpt lat="36.85287630071544" lon="14.999556057892487"><ele>49.6</ele><time>2026-03-28T13:56:25.001Z</time></trkpt><trkpt lat="36.85290832034514" lon="14.999668053639796"><ele>49.0</ele><time>2026-03-28T13:56:26.001Z</time></trkpt><trkpt lat="36.85294866173858" lon="14.999738651489764"><ele>49.0</ele><time>2026-03-28T13:56:27.001Z</time></trkpt><trkpt lat="36.85305403870667" lon="14.999787921651183"><ele>49.0</ele><time>2026-03-28T13:56:29.001Z</time></trkpt><trkpt lat="36.85312778945075" lon="14.999814532205317"><ele>49.0</ele><time>2026-03-28T13:56:33.001Z</time></trkpt><trkpt lat="36.85321540631198" lon="14.99986780084701"><ele>49.0</ele><time>2026-03-28T13:56:34.001Z</time></trkpt><trkpt lat="36.853336321186006" lon="14.999943766327135"><ele>49.0</ele><time>2026-03-28T13:56:35.001Z</time></trkpt><trkpt lat="36.853442838946535" lon="15.000005672603812"><ele>48.0</ele><time>2026-03-28T13:56:36.001Z</time></trkpt><trkpt lat="36.85353390511362" lon="15.000053774756138"><ele>47.0</ele><time>2026-03-28T13:56:37.001Z</time></trkpt><trkpt lat="36.853624068862175" lon="15.000105063690967"><ele>46.0</ele><time>2026-03-28T13:56:38.001Z</time></trkpt><trkpt lat="36.85372105089088" lon="15.000164223928385"><ele>45.0</ele><time>2026-03-28T13:56:39.001Z</time></trkpt><trkpt lat="36.85380463660211" lon="15.000216484819155"><ele>44.0</ele><time>2026-03-28T13:56:40.001Z</time></trkpt><trkpt lat="36.85387940024616" lon="15.000257024030347"><ele>44.0</ele><time>2026-03-28T13:56:41.001Z</time></trkpt><trkpt lat="36.85395286500923" lon="15.000288837766142"><ele>44.0</ele><time>2026-03-28T13:56:42.001Z</time></trkpt><trkpt lat="36.85402722610414" lon="15.00032512850382"><ele>44.0</ele><time>2026-03-28T13:56:43.001Z</time></trkpt><trkpt lat="36.85410959979724" lon="15.000378380716949"><ele>44.0</ele><time>2026-03-28T13:56:44.001Z</time></trkpt><trkpt lat="36.85421090340775" lon="15.000436360430554"><ele>44.0</ele><time>2026-03-28T13:56:45.001Z</time></trkpt><trkpt lat="36.854304039997274" lon="15.000486627151803"><ele>45.0</ele><time>2026-03-28T13:56:46.001Z</time></trkpt><trkpt lat="36.85438938121071" lon="15.000538668840388"><ele>46.0</ele><time>2026-03-28T13:56:47.001Z</time></trkpt><trkpt lat="36.854464874488016" lon="15.000582026837076"><ele>47.0</ele><time>2026-03-28T13:56:48.001Z</time></trkpt><trkpt lat="36.854534186029895" lon="15.000636378097656"><ele>48.0</ele><time>2026-03-28T13:56:49.001Z</time></trkpt><trkpt lat="36.85459489085459" lon="15.000704309106"><ele>49.00000000000001</ele><time>2026-03-28T13:56:50.001Z</time></trkpt><trkpt lat="36.85464312088474" lon="15.00077020600237"><ele>50.0</ele><time>2026-03-28T13:56:51.001Z</time></trkpt><trkpt lat="36.85466182794544" lon="15.000846037095341"><ele>50.0</ele><time>2026-03-28T13:56:52.001Z</time></trkpt><trkpt lat="36.8546544078202" lon="15.000981047434298"><ele>50.0</ele><time>2026-03-28T13:56:54.001Z</time></trkpt><trkpt lat="36.85464398128671" lon="15.001059928878352"><ele>50.0</ele><time>2026-03-28T13:56:56.001Z</time></trkpt><trkpt lat="36.854650536634196" lon="15.001213186493533"><ele>50.0</ele><time>2026-03-28T13:56:58.001Z</time></trkpt><trkpt lat="36.854648737460074" lon="15.00131012501427"><ele>50.0</ele><time>2026-03-28T13:56:59.001Z</time></trkpt><trkpt lat="36.85463730869225" lon="15.00143558289073"><ele>50.00000000000001</ele><time>2026-03-28T13:57:01.001Z</time></trkpt><trkpt lat="36.8546281768596" lon="15.001516278041851"><ele>50.0</ele><time>2026-03-28T13:57:03.001Z</time></trkpt><trkpt lat="36.85469025361207" lon="15.001471577783517"><ele>50.0</ele><time>2026-03-28T13:57:12.001Z</time></trkpt><trkpt lat="36.85469802694809" lon="15.00136185227144"><ele>50.0</ele><time>2026-03-28T13:57:14.001Z</time></trkpt><trkpt lat="36.85470458210171" lon="15.001251586742077"><ele>50.00000000000001</ele><time>2026-03-28T13:57:15.001Z</time></trkpt><trkpt lat="36.8547090870347" lon="15.001146179037937"><ele>50.0</ele><time>2026-03-28T13:57:16.001Z</time></trkpt><trkpt lat="36.85471954719621" lon="15.001051679578172"><ele>50.0</ele><time>2026-03-28T13:57:17.001Z</time></trkpt><trkpt lat="36.85472078975506" lon="15.000930588781035"><ele>50.0</ele><time>2026-03-28T13:57:18.001Z</time></trkpt><trkpt lat="36.85471868521828" lon="15.00077765235841"><ele>50.0</ele><time>2026-03-28T13:57:19.001Z</time></trkpt><trkpt lat="36.85470411751819" lon="15.000620511802332"><ele>50.0</ele><time>2026-03-28T13:57:20.001Z</time></trkpt><trkpt lat="36.85468803814201" lon="15.000463737087655"><ele>50.0</ele><time>2026-03-28T13:57:21.001Z</time></trkpt><trkpt lat="36.85468765309087" lon="15.000278146531008"><ele>50.0</ele><time>2026-03-28T13:57:22.001Z</time></trkpt><trkpt lat="36.85469338297175" lon="15.000061843993992"><ele>50.0</ele><time>2026-03-28T13:57:23.001Z</time></trkpt><trkpt lat="36.854698905028904" lon="14.999915629229237"><ele>50.0</ele><time>2026-03-28T13:57:24.001Z</time></trkpt><trkpt lat="36.854699556893564" lon="14.99982526604229"><ele>50.0</ele><time>2026-03-28T13:57:25.001Z</time></trkpt><trkpt lat="36.85470827128461" lon="14.999686366768408"><ele>50.0</ele><time>2026-03-28T13:57:27.001Z</time></trkpt><trkpt lat="36.85474142580412" lon="14.999608803428465"><ele>50.0</ele><time>2026-03-28T13:57:29.001Z</time></trkpt><trkpt lat="36.85483940345993" lon="14.999611830158111"><ele>50.0</ele><time>2026-03-28T13:57:31.001Z</time></trkpt><trkpt lat="36.85491332430781" lon="14.999656128758168"><ele>50.0</ele><time>2026-03-28T13:57:32.001Z</time></trkpt><trkpt lat="36.85500885320854" lon="14.999710259294256"><ele>50.0</ele><time>2026-03-28T13:57:33.001Z</time></trkpt><trkpt lat="36.855083045910035" lon="14.999754133401378"><ele>50.0</ele><time>2026-03-28T13:57:34.001Z</time></trkpt><trkpt lat="36.85516658994615" lon="14.999803738142653"><ele>50.0</ele><time>2026-03-28T13:57:36.001Z</time></trkpt><trkpt lat="36.85528085813737" lon="14.999881299776396"><ele>50.0</ele><time>2026-03-28T13:57:38.001Z</time></trkpt><trkpt lat="36.855360396556506" lon="14.999944973561526"><ele>50.0</ele><time>2026-03-28T13:57:39.001Z</time></trkpt><trkpt lat="36.85543734967303" lon="15.00000277433984"><ele>50.75</ele><time>2026-03-28T13:57:40.001Z</time></trkpt><trkpt lat="36.85553078499833" lon="15.000125491094087"><ele>51.5</ele><time>2026-03-28T13:57:42.001Z</time></trkpt><trkpt lat="36.855596943497545" lon="15.000224733159854"><ele>52.25</ele><time>2026-03-28T13:57:43.001Z</time></trkpt><trkpt lat="36.85568604712684" lon="15.000353726750836"><ele>53.0</ele><time>2026-03-28T13:57:44.001Z</time></trkpt><trkpt lat="36.85576849681485" lon="15.00047586215174"><ele>53.0</ele><time>2026-03-28T13:57:45.001Z</time></trkpt><trkpt lat="36.85586001397434" lon="15.000618885284743"><ele>53.0</ele><time>2026-03-28T13:57:46.001Z</time></trkpt><trkpt lat="36.8559730307919" lon="15.000781504142584"><ele>53.0</ele><time>2026-03-28T13:57:47.001Z</time></trkpt><trkpt lat="36.85609198257409" lon="15.000940272088261"><ele>53.0</ele><time>2026-03-28T13:57:48.001Z</time></trkpt><trkpt lat="36.85619782565363" lon="15.001072420449251"><ele>53.0</ele><time>2026-03-28T13:57:49.001Z</time></trkpt><trkpt lat="36.85629042377548" lon="15.001185545860444"><ele>53.0</ele><time>2026-03-28T13:57:50.001Z</time></trkpt><trkpt lat="36.85637183590692" lon="15.001284920890747"><ele>53.0</ele><time>2026-03-28T13:57:51.001Z</time></trkpt><trkpt lat="36.85645125074918" lon="15.001379752299494"><ele>53.0</ele><time>2026-03-28T13:57:52.001Z</time></trkpt><trkpt lat="36.85654344205268" lon="15.001483026483355"><ele>53.0</ele><time>2026-03-28T13:57:53.001Z</time></trkpt><trkpt lat="36.856640887337164" lon="15.00156812408368"><ele>53.0</ele><time>2026-03-28T13:57:54.001Z</time></trkpt><trkpt lat="36.85675163730365" lon="15.001642643242112"><ele>53.0</ele><time>2026-03-28T13:57:55.001Z</time></trkpt><trkpt lat="36.85684966143451" lon="15.001683959361497"><ele>54.0</ele><time>2026-03-28T13:57:56.001Z</time></trkpt><trkpt lat="36.85694360564418" lon="15.001728609523013"><ele>55.0</ele><time>2026-03-28T13:57:57.001Z</time></trkpt><trkpt lat="36.85703564841291" lon="15.00178306642609"><ele>56.0</ele><time>2026-03-28T13:57:58.001Z</time></trkpt><trkpt lat="36.85712404363784" lon="15.001846439250468"><ele>57.0</ele><time>2026-03-28T13:57:59.001Z</time></trkpt><trkpt lat="36.85720803473417" lon="15.001889540830083"><ele>58.0</ele><time>2026-03-28T13:58:00.001Z</time></trkpt><trkpt lat="36.85729248511107" lon="15.001918782687612"><ele>58.0</ele><time>2026-03-28T13:58:01.001Z</time></trkpt><trkpt lat="36.857388848521204" lon="15.00195332552079"><ele>58.0</ele><time>2026-03-28T13:58:02.001Z</time></trkpt><trkpt lat="36.857507191613" lon="15.002018003845034"><ele>58.0</ele><time>2026-03-28T13:58:03.001Z</time></trkpt><trkpt lat="36.85765097778952" lon="15.002103454066924"><ele>58.0</ele><time>2026-03-28T13:58:04.001Z</time></trkpt><trkpt lat="36.85779461424647" lon="15.00219589256389"><ele>57.666666666666664</ele><time>2026-03-28T13:58:05.001Z</time></trkpt><trkpt lat="36.85795285186123" lon="15.002299663010858"><ele>57.33333333333333</ele><time>2026-03-28T13:58:06.001Z</time></trkpt><trkpt lat="36.8581023860709" lon="15.002404441732333"><ele>57.0</ele><time>2026-03-28T13:58:07.001Z</time></trkpt><trkpt lat="36.85822422817785" lon="15.002482958292436"><ele>58.0</ele><time>2026-03-28T13:58:08.001Z</time></trkpt><trkpt lat="36.85831693746575" lon="15.002542613062968"><ele>59.0</ele><time>2026-03-28T13:58:09.001Z</time></trkpt><trkpt lat="36.858401781580326" lon="15.002617427278311"><ele>60.0</ele><time>2026-03-28T13:58:10.001Z</time></trkpt><trkpt lat="36.85849990994514" lon="15.002717711837139"><ele>61.0</ele><time>2026-03-28T13:58:11.001Z</time></trkpt><trkpt lat="36.85859995311241" lon="15.002831647821226"><ele>61.25</ele><time>2026-03-28T13:58:12.001Z</time></trkpt><trkpt lat="36.85867145845302" lon="15.002973828531625"><ele>61.5</ele><time>2026-03-28T13:58:13.001Z</time></trkpt><trkpt lat="36.85875027485999" lon="15.003096737919936"><ele>61.75</ele><time>2026-03-28T13:58:14.001Z</time></trkpt><trkpt lat="36.85881068595621" lon="15.003222298248444"><ele>62.0</ele><time>2026-03-28T13:58:15.001Z</time></trkpt><trkpt lat="36.858886058743224" lon="15.003350792947453"><ele>62.0</ele><time>2026-03-28T13:58:16.001Z</time></trkpt><trkpt lat="36.85893980716195" lon="15.003495377802135"><ele>62.0</ele><time>2026-03-28T13:58:17.001Z</time></trkpt><trkpt lat="36.85897141779504" lon="15.00362136982317"><ele>62.0</ele><time>2026-03-28T13:58:18.001Z</time></trkpt><trkpt lat="36.85901001130875" lon="15.003724615946593"><ele>62.0</ele><time>2026-03-28T13:58:19.001Z</time></trkpt><trkpt lat="36.859052825940516" lon="15.00379468135393"><ele>62.0</ele><time>2026-03-28T13:58:20.001Z</time></trkpt><trkpt lat="36.859076217274776" lon="15.003875266556808"><ele>62.00000000000001</ele><time>2026-03-28T13:58:22.001Z</time></trkpt><trkpt lat="36.859144533183326" lon="15.004007198729225"><ele>62.0</ele><time>2026-03-28T13:58:25.001Z</time></trkpt><trkpt lat="36.85919060670398" lon="15.004075219885593"><ele>62.0</ele><time>2026-03-28T13:58:26.001Z</time></trkpt><trkpt lat="36.859235137284315" lon="15.00415106206673"><ele>62.0</ele><time>2026-03-28T13:58:27.001Z</time></trkpt><trkpt lat="36.859275635550325" lon="15.00422821704248"><ele>62.00000000000001</ele><time>2026-03-28T13:58:28.001Z</time></trkpt><trkpt lat="36.85931555270826" lon="15.004300185803903"><ele>62.0</ele><time>2026-03-28T13:58:29.001Z</time></trkpt><trkpt lat="36.85935308160152" lon="15.00436383546779"><ele>63.66666666666667</ele><time>2026-03-28T13:58:30.001Z</time></trkpt><trkpt lat="36.859394660197374" lon="15.004431609196724"><ele>65.33333333333334</ele><time>2026-03-28T13:58:31.001Z</time></trkpt><trkpt lat="36.859439155560196" lon="15.004513070504812"><ele>67.0</ele><time>2026-03-28T13:58:32.001Z</time></trkpt><trkpt lat="36.85948363895446" lon="15.004606371673528"><ele>68.66666666666667</ele><time>2026-03-28T13:58:33.001Z</time></trkpt><trkpt lat="36.859523308816364" lon="15.004700535492777"><ele>70.33333333333333</ele><time>2026-03-28T13:58:34.001Z</time></trkpt><trkpt lat="36.85956887288556" lon="15.004802385498982"><ele>72.0</ele><time>2026-03-28T13:58:35.001Z</time></trkpt><trkpt lat="36.85962258646608" lon="15.004902355086461"><ele>71.2</ele><time>2026-03-28T13:58:36.001Z</time></trkpt><trkpt lat="36.85967626287177" lon="15.00500315475562"><ele>70.4</ele><time>2026-03-28T13:58:37.001Z</time></trkpt><trkpt lat="36.85972754463197" lon="15.005104837699383"><ele>69.6</ele><time>2026-03-28T13:58:38.001Z</time></trkpt><trkpt lat="36.85979094909009" lon="15.005229491117111"><ele>68.8</ele><time>2026-03-28T13:58:39.001Z</time></trkpt><trkpt lat="36.85986844090392" lon="15.005365855302868"><ele>68.0</ele><time>2026-03-28T13:58:40.001Z</time></trkpt><trkpt lat="36.859953193272695" lon="15.005532061215325"><ele>68.0</ele><time>2026-03-28T13:58:41.001Z</time></trkpt><trkpt lat="36.86004165111259" lon="15.005735740979413"><ele>68.0</ele><time>2026-03-28T13:58:42.001Z</time></trkpt><trkpt lat="36.86013114516715" lon="15.005955851348393"><ele>68.0</ele><time>2026-03-28T13:58:43.001Z</time></trkpt><trkpt lat="36.8602057983546" lon="15.006180391122914"><ele>67.33333333333334</ele><time>2026-03-28T13:58:44.001Z</time></trkpt><trkpt lat="36.860299645434694" lon="15.006342792696111"><ele>66.66666666666667</ele><time>2026-03-28T13:58:45.001Z</time></trkpt><trkpt lat="36.860365301038" lon="15.006525672013982"><ele>66.0</ele><time>2026-03-28T13:58:46.001Z</time></trkpt><trkpt lat="36.86045318070681" lon="15.006756698796684"><ele>66.0</ele><time>2026-03-28T13:58:47.001Z</time></trkpt><trkpt lat="36.860580096787515" lon="15.006990940569693"><ele>66.0</ele><time>2026-03-28T13:58:48.001Z</time></trkpt><trkpt lat="36.86066454842179" lon="15.007199464856127"><ele>66.0</ele><time>2026-03-28T13:58:49.001Z</time></trkpt><trkpt lat="36.86076038961382" lon="15.007376968518228"><ele>65.5</ele><time>2026-03-28T13:58:50.001Z</time></trkpt><trkpt lat="36.86086880195726" lon="15.00750258503737"><ele>65.0</ele><time>2026-03-28T13:58:51.001Z</time></trkpt><trkpt lat="36.86096759298844" lon="15.007619326290861"><ele>64.5</ele><time>2026-03-28T13:58:52.001Z</time></trkpt><trkpt lat="36.86103675620144" lon="15.007735175102978"><ele>64.0</ele><time>2026-03-28T13:58:53.001Z</time></trkpt><trkpt lat="36.861121165662226" lon="15.007853233694506"><ele>64.75</ele><time>2026-03-28T13:58:54.001Z</time></trkpt><trkpt lat="36.8612041923975" lon="15.00802153575049"><ele>65.5</ele><time>2026-03-28T13:58:55.001Z</time></trkpt><trkpt lat="36.86126730641685" lon="15.008152680981254"><ele>66.25</ele><time>2026-03-28T13:58:56.001Z</time></trkpt><trkpt lat="36.86133620694969" lon="15.008295654894185"><ele>67.0</ele><time>2026-03-28T13:58:57.001Z</time></trkpt><trkpt lat="36.86141980438393" lon="15.008473298321595"><ele>67.0</ele><time>2026-03-28T13:58:58.001Z</time></trkpt><trkpt lat="36.86148142578414" lon="15.008621856635372"><ele>67.0</ele><time>2026-03-28T13:58:59.001Z</time></trkpt><trkpt lat="36.86154332184589" lon="15.008772441906276"><ele>67.0</ele><time>2026-03-28T13:59:00.001Z</time></trkpt><trkpt lat="36.86160954550333" lon="15.008940340311952"><ele>67.0</ele><time>2026-03-28T13:59:01.001Z</time></trkpt><trkpt lat="36.86168090846684" lon="15.009111840598909"><ele>66.5</ele><time>2026-03-28T13:59:02.001Z</time></trkpt><trkpt lat="36.8617485249705" lon="15.009273325958974"><ele>66.0</ele><time>2026-03-28T13:59:03.001Z</time></trkpt><trkpt lat="36.86180828645677" lon="15.009424388037205"><ele>65.5</ele><time>2026-03-28T13:59:04.001Z</time></trkpt><trkpt lat="36.86186290717586" lon="15.009568901419652"><ele>65.0</ele><time>2026-03-28T13:59:05.001Z</time></trkpt><trkpt lat="36.86191785038925" lon="15.00971068907468"><ele>65.75</ele><time>2026-03-28T13:59:06.001Z</time></trkpt><trkpt lat="36.86197805787005" lon="15.009861566213631"><ele>66.5</ele><time>2026-03-28T13:59:07.001Z</time></trkpt><trkpt lat="36.862031882476906" lon="15.010004112661981"><ele>67.25</ele><time>2026-03-28T13:59:08.001Z</time></trkpt><trkpt lat="36.8620841670002" lon="15.010154241774146"><ele>68.0</ele><time>2026-03-28T13:59:09.001Z</time></trkpt><trkpt lat="36.86213322541655" lon="15.01029722638585"><ele>68.0</ele><time>2026-03-28T13:59:10.001Z</time></trkpt><trkpt lat="36.86218853241493" lon="15.010439691077426"><ele>68.0</ele><time>2026-03-28T13:59:11.001Z</time></trkpt><trkpt lat="36.862234465762256" lon="15.010571144065231"><ele>68.0</ele><time>2026-03-28T13:59:12.001Z</time></trkpt><trkpt lat="36.86225132747308" lon="15.010702549674045"><ele>68.0</ele><time>2026-03-28T13:59:13.001Z</time></trkpt><trkpt lat="36.862299202033284" lon="15.010806999786908"><ele>68.0</ele><time>2026-03-28T13:59:14.001Z</time></trkpt><trkpt lat="36.86233486888011" lon="15.010912516549023"><ele>67.4</ele><time>2026-03-28T13:59:15.001Z</time></trkpt><trkpt lat="36.8623663530962" lon="15.011023002569777"><ele>66.8</ele><time>2026-03-28T13:59:16.001Z</time></trkpt><trkpt lat="36.86238911412878" lon="15.011115355561147"><ele>66.2</ele><time>2026-03-28T13:59:17.001Z</time></trkpt><trkpt lat="36.86241747504266" lon="15.011211825458473"><ele>65.6</ele><time>2026-03-28T13:59:18.001Z</time></trkpt><trkpt lat="36.862442848404584" lon="15.011345116889155"><ele>65.0</ele><time>2026-03-28T13:59:19.001Z</time></trkpt><trkpt lat="36.86245589339216" lon="15.011466676750766"><ele>65.0</ele><time>2026-03-28T13:59:20.001Z</time></trkpt><trkpt lat="36.8624762794566" lon="15.011581722636583"><ele>65.0</ele><time>2026-03-28T13:59:21.001Z</time></trkpt><trkpt lat="36.862497624720405" lon="15.011709488970398"><ele>65.0</ele><time>2026-03-28T13:59:22.001Z</time></trkpt><trkpt lat="36.86251756943661" lon="15.011829817417302"><ele>65.0</ele><time>2026-03-28T13:59:23.001Z</time></trkpt><trkpt lat="36.86253693037868" lon="15.01195431147528"><ele>65.0</ele><time>2026-03-28T13:59:24.001Z</time></trkpt><trkpt lat="36.862552408106" lon="15.01209695765214"><ele>65.0</ele><time>2026-03-28T13:59:25.001Z</time></trkpt><trkpt lat="36.86255445480572" lon="15.012224795038051"><ele>65.0</ele><time>2026-03-28T13:59:26.001Z</time></trkpt><trkpt lat="36.86256206542145" lon="15.012350557182701"><ele>65.0</ele><time>2026-03-28T13:59:27.001Z</time></trkpt><trkpt lat="36.86257181044929" lon="15.012480811606201"><ele>65.0</ele><time>2026-03-28T13:59:28.001Z</time></trkpt><trkpt lat="36.86257999719713" lon="15.012629982127907"><ele>65.0</ele><time>2026-03-28T13:59:29Z</time></trkpt><trkpt lat="36.862599018609124" lon="15.012774191034277"><ele>65.5</ele><time>2026-03-28T13:59:30Z</time></trkpt><trkpt lat="36.86260602381577" lon="15.012884459032419"><ele>66.0</ele><time>2026-03-28T13:59:31Z</time></trkpt><trkpt lat="36.86261508625932" lon="15.012980557931003"><ele>66.5</ele><time>2026-03-28T13:59:32Z</time></trkpt><trkpt lat="36.86261691588631" lon="15.013064040340051"><ele>67.0</ele><time>2026-03-28T13:59:33Z</time></trkpt><trkpt lat="36.862700167298016" lon="15.013132336467503"><ele>67.5</ele><time>2026-03-28T13:59:35Z</time></trkpt><trkpt lat="36.86274987707118" lon="15.013248832764459"><ele>68.0</ele><time>2026-03-28T13:59:37Z</time></trkpt><trkpt lat="36.86278469360456" lon="15.013345433796331"><ele>70.2</ele><time>2026-03-28T13:59:38Z</time></trkpt><trkpt lat="36.862832751053595" lon="15.01342621915487"><ele>72.4</ele><time>2026-03-28T13:59:39Z</time></trkpt><trkpt lat="36.8628627089399" lon="15.013534047385592"><ele>74.60000000000001</ele><time>2026-03-28T13:59:40Z</time></trkpt><trkpt lat="36.862902425068" lon="15.013658139625232"><ele>76.8</ele><time>2026-03-28T13:59:41Z</time></trkpt><trkpt lat="36.862950327373184" lon="15.013807129654076"><ele>79.0</ele><time>2026-03-28T13:59:42Z</time></trkpt><trkpt lat="36.86300413952233" lon="15.013929910648624"><ele>79.0</ele><time>2026-03-28T13:59:43Z</time></trkpt><trkpt lat="36.86304606718675" lon="15.014035850806996"><ele>79.0</ele><time>2026-03-28T13:59:44Z</time></trkpt><trkpt lat="36.86309457171625" lon="15.01414284942174"><ele>79.0</ele><time>2026-03-28T13:59:45Z</time></trkpt><trkpt lat="36.86315649661781" lon="15.01427509476356"><ele>79.0</ele><time>2026-03-28T13:59:46Z</time></trkpt><trkpt lat="36.86321789135685" lon="15.014381566339026"><ele>79.0</ele><time>2026-03-28T13:59:47Z</time></trkpt><trkpt lat="36.86328501830422" lon="15.014449098473078"><ele>80.0</ele><time>2026-03-28T13:59:48Z</time></trkpt><trkpt lat="36.86334149242675" lon="15.0145289920158"><ele>81.0</ele><time>2026-03-28T13:59:49Z</time></trkpt><trkpt lat="36.86340230224734" lon="15.014644484210173"><ele>82.0</ele><time>2026-03-28T13:59:50Z</time></trkpt><trkpt lat="36.8634881781077" lon="15.014766097165975"><ele>83.0</ele><time>2026-03-28T13:59:51Z</time></trkpt><trkpt lat="36.863561680712685" lon="15.014872631461918"><ele>84.0</ele><time>2026-03-28T13:59:52Z</time></trkpt><trkpt lat="36.86362396270116" lon="15.014964855732895"><ele>86.66666666666667</ele><time>2026-03-28T13:59:53Z</time></trkpt><trkpt lat="36.863686189254615" lon="15.015050888491645"><ele>89.33333333333334</ele><time>2026-03-28T13:59:54Z</time></trkpt><trkpt lat="36.86376381312807" lon="15.01512318101486"><ele>92.0</ele><time>2026-03-28T13:59:55Z</time></trkpt><trkpt lat="36.86382462195442" lon="15.015188641985969"><ele>94.66666666666667</ele><time>2026-03-28T13:59:56Z</time></trkpt><trkpt lat="36.863888557281804" lon="15.015242123726154"><ele>97.33333333333334</ele><time>2026-03-28T13:59:57Z</time></trkpt><trkpt lat="36.86397104711337" lon="15.015301363376357"><ele>100.0</ele><time>2026-03-28T13:59:58Z</time></trkpt><trkpt lat="36.864068808868936" lon="15.015358356485507"><ele>100.0</ele><time>2026-03-28T13:59:59Z</time></trkpt><trkpt lat="36.864170282797254" lon="15.015409913436498"><ele>100.0</ele><time>2026-03-28T14:00:00Z</time></trkpt><trkpt lat="36.864254059695675" lon="15.01546256096298"><ele>100.0</ele><time>2026-03-28T14:00:01Z</time></trkpt><trkpt lat="36.86430941076559" lon="15.015558164462117"><ele>100.0</ele><time>2026-03-28T14:00:02Z</time></trkpt><trkpt lat="36.86438163821821" lon="15.015647066379515"><ele>100.0</ele><time>2026-03-28T14:00:03Z</time></trkpt><trkpt lat="36.86445034536217" lon="15.015694921281519"><ele>102.16666666666667</ele><time>2026-03-28T14:00:04Z</time></trkpt><trkpt lat="36.86449109913216" lon="15.01575515364398"><ele>104.33333333333334</ele><time>2026-03-28T14:00:05Z</time></trkpt><trkpt lat="36.864485248549876" lon="15.015876301146617"><ele>106.5</ele><time>2026-03-28T14:00:07Z</time></trkpt><trkpt lat="36.86454179888419" lon="15.015967705489192"><ele>108.66666666666666</ele><time>2026-03-28T14:00:09Z</time></trkpt><trkpt lat="36.8645970700023" lon="15.016098471944195"><ele>110.83333333333333</ele><time>2026-03-28T14:00:11Z</time></trkpt><trkpt lat="36.86463202573021" lon="15.01617306591711"><ele>113.0</ele><time>2026-03-28T14:00:12Z</time></trkpt><trkpt lat="36.864647636616965" lon="15.016260525546878"><ele>112.99999999999999</ele><time>2026-03-28T14:00:13Z</time></trkpt><trkpt lat="36.86466915614409" lon="15.01636020308525"><ele>113.0</ele><time>2026-03-28T14:00:14Z</time></trkpt><trkpt lat="36.864685076436004" lon="15.016436349079646"><ele>113.0</ele><time>2026-03-28T14:00:15Z</time></trkpt><trkpt lat="36.86470791667876" lon="15.016551249687398"><ele>113.0</ele><time>2026-03-28T14:00:17.001Z</time></trkpt><trkpt lat="36.864732454909394" lon="15.016624325308602"><ele>112.99999999999999</ele><time>2026-03-28T14:00:18.001Z</time></trkpt><trkpt lat="36.86478561259824" lon="15.01674089791008"><ele>113.0</ele><time>2026-03-28T14:00:20.001Z</time></trkpt><trkpt lat="36.8648569401011" lon="15.016843029886822"><ele>111.0</ele><time>2026-03-28T14:00:22.001Z</time></trkpt><trkpt lat="36.86496293987595" lon="15.016895345299062"><ele>109.00000000000001</ele><time>2026-03-28T14:00:24.001Z</time></trkpt><trkpt lat="36.865025149540024" lon="15.017019408746275"><ele>107.0</ele><time>2026-03-28T14:00:26.001Z</time></trkpt><trkpt lat="36.865046738382105" lon="15.017137836594431"><ele>105.0</ele><time>2026-03-28T14:00:28.001Z</time></trkpt><trkpt lat="36.86502725416564" lon="15.01727429635932"><ele>103.0</ele><time>2026-03-28T14:00:30.001Z</time></trkpt><trkpt lat="36.86500151505075" lon="15.01742987806536"><ele>102.4</ele><time>2026-03-28T14:00:32.001Z</time></trkpt><trkpt lat="36.86497617648225" lon="15.017572407389286"><ele>101.80000000000001</ele><time>2026-03-28T14:00:34.001Z</time></trkpt><trkpt lat="36.86496955817726" lon="15.017699284268957"><ele>101.2</ele><time>2026-03-28T14:00:36.001Z</time></trkpt><trkpt lat="36.864942462472285" lon="15.017802579081653"><ele>100.6</ele><time>2026-03-28T14:00:38.001Z</time></trkpt><trkpt lat="36.86490087930131" lon="15.017876722025475"><ele>100.0</ele><time>2026-03-28T14:00:41.001Z</time></trkpt><trkpt lat="36.864954686616564" lon="15.017940888518643"><ele>100.00000000000001</ele><time>2026-03-28T14:01:57Z</time></trkpt><trkpt lat="36.86500794339874" lon="15.01802803106714"><ele>100.0</ele><time>2026-03-28T14:01:59Z</time></trkpt><trkpt lat="36.86509254806294" lon="15.01811086226976"><ele>100.0</ele><time>2026-03-28T14:02:01Z</time></trkpt><trkpt lat="36.865154070641395" lon="15.018139188249789"><ele>100.0</ele><time>2026-03-28T14:02:03Z</time></trkpt><trkpt lat="36.865238899075145" lon="15.01819418449176"><ele>100.00000000000001</ele><time>2026-03-28T14:02:08Z</time></trkpt><trkpt lat="36.86530196447659" lon="15.018248525443019"><ele>100.0</ele><time>2026-03-28T14:02:11Z</time></trkpt><trkpt lat="36.8653835820424" lon="15.018288706847677"><ele>101.66666666666667</ele><time>2026-03-28T14:02:14Z</time></trkpt><trkpt lat="36.86545059253545" lon="15.018338598219959"><ele>103.33333333333334</ele><time>2026-03-28T14:02:17Z</time></trkpt><trkpt lat="36.865519539901044" lon="15.018392345504692"><ele>105.0</ele><time>2026-03-28T14:02:21Z</time></trkpt><trkpt lat="36.86557869731888" lon="15.018444893621806"><ele>106.66666666666666</ele><time>2026-03-28T14:02:29Z</time></trkpt><trkpt lat="36.86564759594374" lon="15.018508589251628"><ele>108.33333333333333</ele><time>2026-03-28T14:02:34Z</time></trkpt><trkpt lat="36.865711298643845" lon="15.018551672798377"><ele>110.0</ele><time>2026-03-28T14:02:37Z</time></trkpt><trkpt lat="36.86577102663594" lon="15.01858891765869"><ele>109.99999999999999</ele><time>2026-03-28T14:02:43Z</time></trkpt><trkpt lat="36.8658542219732" lon="15.018632995032412"><ele>110.0</ele><time>2026-03-28T14:03:16Z</time></trkpt><trkpt lat="36.86594430218304" lon="15.018666534173162"><ele>110.0</ele><time>2026-03-28T14:03:19Z</time></trkpt><trkpt lat="36.86596965470035" lon="15.01876996800163"><ele>110.0</ele><time>2026-03-28T14:03:26Z</time></trkpt><trkpt lat="36.865991779418444" lon="15.018876750635522"><ele>109.99999999999999</ele><time>2026-03-28T14:03:28Z</time></trkpt><trkpt lat="36.86603132573237" lon="15.018969378243195"><ele>110.0</ele><time>2026-03-28T14:03:30Z</time></trkpt><trkpt lat="36.86606473887874" lon="15.01907857159853"><ele>112.66666666666666</ele><time>2026-03-28T14:03:32Z</time></trkpt><trkpt lat="36.86609676067109" lon="15.019151524460709"><ele>115.33333333333333</ele><time>2026-03-28T14:03:33Z</time></trkpt><trkpt lat="36.86612326251593" lon="15.019249276350953"><ele>118.0</ele><time>2026-03-28T14:03:35Z</time></trkpt><trkpt lat="36.86616010931146" lon="15.019342100445098"><ele>120.66666666666666</ele><time>2026-03-28T14:03:37Z</time></trkpt><trkpt lat="36.86622923396602" lon="15.019404145677306"><ele>123.33333333333333</ele><time>2026-03-28T14:03:40Z</time></trkpt><trkpt lat="36.8663140042183" lon="15.01942448609121"><ele>126.0</ele><time>2026-03-28T14:03:43Z</time></trkpt><trkpt lat="36.8663750946573" lon="15.019401944913781"><ele>126.0</ele><time>2026-03-28T14:03:44Z</time></trkpt><trkpt lat="36.86646529758436" lon="15.019380445853395"><ele>126.0</ele><time>2026-03-28T14:03:46Z</time></trkpt><trkpt lat="36.866596769800786" lon="15.019397881611289"><ele>126.0</ele><time>2026-03-28T14:03:47Z</time></trkpt><trkpt lat="36.86668921293793" lon="15.019394703002895"><ele>126.0</ele><time>2026-03-28T14:03:50Z</time></trkpt><trkpt lat="36.86677852319148" lon="15.019417037954788"><ele>126.0</ele><time>2026-03-28T14:03:52Z</time></trkpt><trkpt lat="36.86685302650494" lon="15.019469084377556"><ele>126.0</ele><time>2026-03-28T14:03:54Z</time></trkpt><trkpt lat="36.866831310574426" lon="15.01958847342393"><ele>126.0</ele><time>2026-03-28T14:03:57Z</time></trkpt><trkpt lat="36.86674430164707" lon="15.0195954019464"><ele>126.0</ele><time>2026-03-28T14:03:59Z</time></trkpt><trkpt lat="36.8666797229654" lon="15.019655752347848"><ele>126.0</ele><time>2026-03-28T14:04:01Z</time></trkpt><trkpt lat="36.86662017639668" lon="15.019746669610203"><ele>126.0</ele><time>2026-03-28T14:04:03Z</time></trkpt><trkpt lat="36.86659333347858" lon="15.019822337193085"><ele>126.0</ele><time>2026-03-28T14:04:05Z</time></trkpt><trkpt lat="36.86656909016513" lon="15.019904114454674"><ele>128.4</ele><time>2026-03-28T14:04:07Z</time></trkpt><trkpt lat="36.866554707972064" lon="15.019983589639947"><ele>130.8</ele><time>2026-03-28T14:04:10Z</time></trkpt><trkpt lat="36.86660797059227" lon="15.020074191091485"><ele>133.20000000000002</ele><time>2026-03-28T14:04:12Z</time></trkpt><trkpt lat="36.86664581538881" lon="15.020166764758125"><ele>135.6</ele><time>2026-03-28T14:04:15Z</time></trkpt><trkpt lat="36.866697080647874" lon="15.020289115458096"><ele>138.0</ele><time>2026-03-28T14:04:17Z</time></trkpt><trkpt lat="36.86680729885779" lon="15.020481720128625"><ele>141.8</ele><time>2026-03-28T14:04:19Z</time></trkpt><trkpt lat="36.866837230380284" lon="15.020618318773346"><ele>145.60000000000002</ele><time>2026-03-28T14:04:21Z</time></trkpt><trkpt lat="36.866860263038674" lon="15.020705677135224"><ele>149.39999999999998</ele><time>2026-03-28T14:04:22Z</time></trkpt><trkpt lat="36.86692135920363" lon="15.020829594664352"><ele>153.2</ele><time>2026-03-28T14:04:24Z</time></trkpt><trkpt lat="36.86698591507236" lon="15.02098414169469"><ele>157.0</ele><time>2026-03-28T14:04:26Z</time></trkpt><trkpt lat="36.867034717049336" lon="15.021109549076966"><ele>158.2</ele><time>2026-03-28T14:04:28Z</time></trkpt><trkpt lat="36.867092987114894" lon="15.021275619675619"><ele>159.39999999999998</ele><time>2026-03-28T14:04:30Z</time></trkpt><trkpt lat="36.86713182280367" lon="15.021371263724046"><ele>160.60000000000002</ele><time>2026-03-28T14:04:31Z</time></trkpt><trkpt lat="36.867162553028486" lon="15.021448774984593"><ele>161.8</ele><time>2026-03-28T14:04:32Z</time></trkpt><trkpt lat="36.86718047186823" lon="15.02154957051211"><ele>163.0</ele><time>2026-03-28T14:04:34Z</time></trkpt><trkpt lat="36.86723267775138" lon="15.021632346539876"><ele>163.0</ele><time>2026-03-28T14:04:36Z</time></trkpt><trkpt lat="36.86726725061475" lon="15.021719958564352"><ele>163.0</ele><time>2026-03-28T14:04:38Z</time></trkpt><trkpt lat="36.86734390896307" lon="15.021743560157436"><ele>163.0</ele><time>2026-03-28T14:04:42Z</time></trkpt><trkpt lat="36.867429857604215" lon="15.021592215047885"><ele>163.0</ele><time>2026-03-28T14:04:44Z</time></trkpt><trkpt lat="36.86749187866379" lon="15.021495472833145"><ele>163.0</ele><time>2026-03-28T14:04:45Z</time></trkpt><trkpt lat="36.86755692432816" lon="15.021413596446273"><ele>163.8</ele><time>2026-03-28T14:04:46Z</time></trkpt><trkpt lat="36.86762955591037" lon="15.021331179015736"><ele>164.60000000000002</ele><time>2026-03-28T14:04:47Z</time></trkpt><trkpt lat="36.86770062536715" lon="15.02123700261198"><ele>165.39999999999998</ele><time>2026-03-28T14:04:48Z</time></trkpt><trkpt lat="36.86778018093928" lon="15.0211382554719"><ele>166.2</ele><time>2026-03-28T14:04:49Z</time></trkpt><trkpt lat="36.86786417846382" lon="15.021049443920568"><ele>167.0</ele><time>2026-03-28T14:04:50Z</time></trkpt><trkpt lat="36.86794772039662" lon="15.020962535906156"><ele>167.0</ele><time>2026-03-28T14:04:51Z</time></trkpt><trkpt lat="36.86802569947537" lon="15.02088402030054"><ele>167.0</ele><time>2026-03-28T14:04:52Z</time></trkpt><trkpt lat="36.86809896800865" lon="15.020808711363598"><ele>167.0</ele><time>2026-03-28T14:04:53Z</time></trkpt><trkpt lat="36.86817653748887" lon="15.02073379665"><ele>167.0</ele><time>2026-03-28T14:04:54Z</time></trkpt><trkpt lat="36.8682718271089" lon="15.020641716939412"><ele>167.0</ele><time>2026-03-28T14:04:55Z</time></trkpt><trkpt lat="36.8683632620187" lon="15.020543032036962"><ele>168.25</ele><time>2026-03-28T14:04:56Z</time></trkpt><trkpt lat="36.868458755531414" lon="15.020441171878455"><ele>169.5</ele><time>2026-03-28T14:04:57Z</time></trkpt><trkpt lat="36.86856202779122" lon="15.020331398074582"><ele>170.75</ele><time>2026-03-28T14:04:58Z</time></trkpt><trkpt lat="36.868670434917426" lon="15.020221985458216"><ele>172.0</ele><time>2026-03-28T14:04:59Z</time></trkpt><trkpt lat="36.86878030840657" lon="15.020113652762745"><ele>172.0</ele><time>2026-03-28T14:05:00Z</time></trkpt><trkpt lat="36.868889723025" lon="15.020000526518453"><ele>172.0</ele><time>2026-03-28T14:05:01Z</time></trkpt><trkpt lat="36.868999595070306" lon="15.019889164264296"><ele>172.0</ele><time>2026-03-28T14:05:02Z</time></trkpt><trkpt lat="36.86910822772477" lon="15.01978051284038"><ele>172.0</ele><time>2026-03-28T14:05:03Z</time></trkpt><trkpt lat="36.869206040083974" lon="15.019674813479359"><ele>173.75</ele><time>2026-03-28T14:05:04Z</time></trkpt><trkpt lat="36.86929430813201" lon="15.019558914951052"><ele>175.5</ele><time>2026-03-28T14:05:05Z</time></trkpt><trkpt lat="36.86937908104581" lon="15.019448047055327"><ele>177.25</ele><time>2026-03-28T14:05:06Z</time></trkpt><trkpt lat="36.86945958787929" lon="15.019348823007352"><ele>179.0</ele><time>2026-03-28T14:05:07Z</time></trkpt><trkpt lat="36.86954848010021" lon="15.019241721284969"><ele>179.5</ele><time>2026-03-28T14:05:08Z</time></trkpt><trkpt lat="36.869639869242434" lon="15.019136672930024"><ele>180.0</ele><time>2026-03-28T14:05:09Z</time></trkpt><trkpt lat="36.86972367298902" lon="15.01902986768636"><ele>180.5</ele><time>2026-03-28T14:05:10Z</time></trkpt><trkpt lat="36.869814604740064" lon="15.018921315077982"><ele>181.0</ele><time>2026-03-28T14:05:11Z</time></trkpt><trkpt lat="36.869911660014374" lon="15.018806132711822"><ele>181.0</ele><time>2026-03-28T14:05:12Z</time></trkpt><trkpt lat="36.87001577272156" lon="15.018688232542114"><ele>181.0</ele><time>2026-03-28T14:05:13Z</time></trkpt><trkpt lat="36.87012054816774" lon="15.018563155483184"><ele>181.0</ele><time>2026-03-28T14:05:14Z</time></trkpt><trkpt lat="36.87022328234631" lon="15.01842611964724"><ele>181.0</ele><time>2026-03-28T14:05:15Z</time></trkpt><trkpt lat="36.870324545137755" lon="15.01827895355259"><ele>183.0</ele><time>2026-03-28T14:05:16Z</time></trkpt><trkpt lat="36.87041734329138" lon="15.01813268356869"><ele>185.0</ele><time>2026-03-28T14:05:17Z</time></trkpt><trkpt lat="36.870513002554766" lon="15.017969846356308"><ele>187.0</ele><time>2026-03-28T14:05:18Z</time></trkpt><trkpt lat="36.87058591224805" lon="15.01782601046924"><ele>189.0</ele><time>2026-03-28T14:05:19Z</time></trkpt><trkpt lat="36.87065402360458" lon="15.017701355347262"><ele>189.0</ele><time>2026-03-28T14:05:20Z</time></trkpt><trkpt lat="36.87073903241575" lon="15.017575558861616"><ele>189.0</ele><time>2026-03-28T14:05:21Z</time></trkpt><trkpt lat="36.8708416099097" lon="15.017458094953097"><ele>189.0</ele><time>2026-03-28T14:05:22Z</time></trkpt><trkpt lat="36.870956581093495" lon="15.017337279182076"><ele>189.0</ele><time>2026-03-28T14:05:23Z</time></trkpt><trkpt lat="36.871076541560186" lon="15.017205471049467"><ele>191.33333333333331</ele><time>2026-03-28T14:05:24Z</time></trkpt><trkpt lat="36.871193313925474" lon="15.017057931836467"><ele>193.66666666666666</ele><time>2026-03-28T14:05:25Z</time></trkpt><trkpt lat="36.87130310476852" lon="15.016916331959385"><ele>196.0</ele><time>2026-03-28T14:05:26Z</time></trkpt><trkpt lat="36.87142029615794" lon="15.016807423400877"><ele>196.0</ele><time>2026-03-28T14:05:27Z</time></trkpt><trkpt lat="36.871528142557594" lon="15.016691433514945"><ele>196.0</ele><time>2026-03-28T14:05:28Z</time></trkpt><trkpt lat="36.87164104850597" lon="15.016573978624809"><ele>196.0</ele><time>2026-03-28T14:05:29Z</time></trkpt><trkpt lat="36.871755906634114" lon="15.016449594793096"><ele>196.0</ele><time>2026-03-28T14:05:30Z</time></trkpt><trkpt lat="36.87186203872189" lon="15.016312297697167"><ele>195.75</ele><time>2026-03-28T14:05:31Z</time></trkpt><trkpt lat="36.87196656929386" lon="15.016208732927282"><ele>195.5</ele><time>2026-03-28T14:05:32Z</time></trkpt><trkpt lat="36.872055027233976" lon="15.016114192872669"><ele>195.25</ele><time>2026-03-28T14:05:33Z</time></trkpt><trkpt lat="36.872135212635854" lon="15.016019243324939"><ele>195.0</ele><time>2026-03-28T14:05:34Z</time></trkpt><trkpt lat="36.872227137851894" lon="15.015940997163115"><ele>195.0</ele><time>2026-03-28T14:05:35Z</time></trkpt><trkpt lat="36.87230812082368" lon="15.015838973727591"><ele>195.0</ele><time>2026-03-28T14:05:36Z</time></trkpt><trkpt lat="36.872407675938014" lon="15.015755294681849"><ele>195.0</ele><time>2026-03-28T14:05:37Z</time></trkpt><trkpt lat="36.8725281857883" lon="15.015698195119692"><ele>195.0</ele><time>2026-03-28T14:05:38Z</time></trkpt><trkpt lat="36.872663607669985" lon="15.01562099867034"><ele>195.33333333333331</ele><time>2026-03-28T14:05:39Z</time></trkpt><trkpt lat="36.872820842144094" lon="15.015535731947004"><ele>195.66666666666666</ele><time>2026-03-28T14:05:40Z</time></trkpt><trkpt lat="36.87296856580069" lon="15.015407228461541"><ele>196.0</ele><time>2026-03-28T14:05:41Z</time></trkpt><trkpt lat="36.8731134513373" lon="15.015262757448292"><ele>196.0</ele><time>2026-03-28T14:05:42Z</time></trkpt><trkpt lat="36.873253991248994" lon="15.015088685008536"><ele>196.0</ele><time>2026-03-28T14:05:43Z</time></trkpt><trkpt lat="36.87339636457501" lon="15.014907417179463"><ele>196.0</ele><time>2026-03-28T14:05:44Z</time></trkpt><trkpt lat="36.87353212805461" lon="15.014771754008605"><ele>197.66666666666666</ele><time>2026-03-28T14:05:45Z</time></trkpt><trkpt lat="36.873648718168745" lon="15.014637491743768"><ele>199.33333333333331</ele><time>2026-03-28T14:05:46Z</time></trkpt><trkpt lat="36.87377270846677" lon="15.014483066449918"><ele>201.0</ele><time>2026-03-28T14:05:47Z</time></trkpt><trkpt lat="36.873892892832195" lon="15.014302237026447"><ele>201.0</ele><time>2026-03-28T14:05:48Z</time></trkpt><trkpt lat="36.87402077522869" lon="15.014159032929122"><ele>201.0</ele><time>2026-03-28T14:05:49Z</time></trkpt><trkpt lat="36.874114322576055" lon="15.01401610154553"><ele>201.0</ele><time>2026-03-28T14:05:50Z</time></trkpt><trkpt lat="36.874187514615286" lon="15.013872406298308"><ele>200.33333333333331</ele><time>2026-03-28T14:05:51Z</time></trkpt><trkpt lat="36.874277360939985" lon="15.01373791807021"><ele>199.66666666666666</ele><time>2026-03-28T14:05:52Z</time></trkpt><trkpt lat="36.874377938806575" lon="15.01358321937165"><ele>199.0</ele><time>2026-03-28T14:05:53Z</time></trkpt><trkpt lat="36.874495680997626" lon="15.013452522189548"><ele>199.0</ele><time>2026-03-28T14:05:54Z</time></trkpt><trkpt lat="36.87459758721349" lon="15.01332667192211"><ele>199.0</ele><time>2026-03-28T14:05:55Z</time></trkpt><trkpt lat="36.87470990518232" lon="15.013215787296303"><ele>199.0</ele><time>2026-03-28T14:05:56Z</time></trkpt><trkpt lat="36.874838430908575" lon="15.01311588254267"><ele>199.0</ele><time>2026-03-28T14:05:57Z</time></trkpt><trkpt lat="36.87495563772043" lon="15.013031038451642"><ele>199.25</ele><time>2026-03-28T14:05:58Z</time></trkpt><trkpt lat="36.87506739072251" lon="15.012955055816759"><ele>199.5</ele><time>2026-03-28T14:05:59Z</time></trkpt><trkpt lat="36.87517470208043" lon="15.012886124848485"><ele>199.75</ele><time>2026-03-28T14:06:00Z</time></trkpt><trkpt lat="36.87528036978689" lon="15.012831183732532"><ele>200.0</ele><time>2026-03-28T14:06:01Z</time></trkpt><trkpt lat="36.87538650629201" lon="15.012798675868419"><ele>198.5</ele><time>2026-03-28T14:06:02Z</time></trkpt><trkpt lat="36.87550233442829" lon="15.012789045427246"><ele>197.0</ele><time>2026-03-28T14:06:03Z</time></trkpt><trkpt lat="36.87564607274337" lon="15.012793853067295"><ele>195.5</ele><time>2026-03-28T14:06:04Z</time></trkpt><trkpt lat="36.875786286595925" lon="15.012813221519291"><ele>194.0</ele><time>2026-03-28T14:06:05Z</time></trkpt><trkpt lat="36.87592100221759" lon="15.012843346328362"><ele>191.5</ele><time>2026-03-28T14:06:06Z</time></trkpt><trkpt lat="36.87605416273699" lon="15.012856290668443"><ele>189.0</ele><time>2026-03-28T14:06:07Z</time></trkpt><trkpt lat="36.876177113996874" lon="15.012894274690701"><ele>186.5</ele><time>2026-03-28T14:06:08Z</time></trkpt><trkpt lat="36.87629500638831" lon="15.012924809175097"><ele>184.0</ele><time>2026-03-28T14:06:09Z</time></trkpt><trkpt lat="36.876404495756034" lon="15.01295168208284"><ele>184.0</ele><time>2026-03-28T14:06:10Z</time></trkpt><trkpt lat="36.87651430873835" lon="15.01299216496039"><ele>184.0</ele><time>2026-03-28T14:06:11Z</time></trkpt><trkpt lat="36.87663209460968" lon="15.013061157516347"><ele>184.0</ele><time>2026-03-28T14:06:12Z</time></trkpt><trkpt lat="36.87674337944465" lon="15.013152103392313"><ele>184.0</ele><time>2026-03-28T14:06:13Z</time></trkpt><trkpt lat="36.87685313082663" lon="15.013234849816323"><ele>184.33333333333334</ele><time>2026-03-28T14:06:14Z</time></trkpt><trkpt lat="36.876987004888385" lon="15.013302027862157"><ele>184.66666666666666</ele><time>2026-03-28T14:06:15Z</time></trkpt><trkpt lat="36.87713810738548" lon="15.01335982582347"><ele>185.0</ele><time>2026-03-28T14:06:16Z</time></trkpt><trkpt lat="36.8772877034799" lon="15.013413882641819"><ele>182.75</ele><time>2026-03-28T14:06:17Z</time></trkpt><trkpt lat="36.877418945210906" lon="15.01348011026858"><ele>180.5</ele><time>2026-03-28T14:06:18Z</time></trkpt><trkpt lat="36.87755672619682" lon="15.013510309709394"><ele>178.25</ele><time>2026-03-28T14:06:19Z</time></trkpt><trkpt lat="36.87769661857308" lon="15.013567715081695"><ele>176.0</ele><time>2026-03-28T14:06:20Z</time></trkpt><trkpt lat="36.87785468858825" lon="15.013624766747295"><ele>175.0</ele><time>2026-03-28T14:06:21Z</time></trkpt><trkpt lat="36.87802449262946" lon="15.01367780888925"><ele>174.0</ele><time>2026-03-28T14:06:22Z</time></trkpt><trkpt lat="36.87820339091032" lon="15.013723337537087"><ele>173.0</ele><time>2026-03-28T14:06:23Z</time></trkpt><trkpt lat="36.878377022575876" lon="15.01376639793607"><ele>171.33333333333331</ele><time>2026-03-28T14:06:24Z</time></trkpt><trkpt lat="36.87853957406832" lon="15.013803793943817"><ele>169.66666666666666</ele><time>2026-03-28T14:06:25Z</time></trkpt><trkpt lat="36.878690263078916" lon="15.013864354581855"><ele>168.0</ele><time>2026-03-28T14:06:26Z</time></trkpt><trkpt lat="36.87883662820345" lon="15.013904629558468"><ele>168.0</ele><time>2026-03-28T14:06:27Z</time></trkpt><trkpt lat="36.87898159321245" lon="15.013945075525399"><ele>168.0</ele><time>2026-03-28T14:06:28Z</time></trkpt><trkpt lat="36.87912684489762" lon="15.013975134387767"><ele>168.0</ele><time>2026-03-28T14:06:29Z</time></trkpt><trkpt lat="36.87928106111249" lon="15.014028561891713"><ele>167.0</ele><time>2026-03-28T14:06:30Z</time></trkpt><trkpt lat="36.879444124859994" lon="15.014077396670523"><ele>166.0</ele><time>2026-03-28T14:06:31Z</time></trkpt><trkpt lat="36.879619422952736" lon="15.014110882858041"><ele>165.0</ele><time>2026-03-28T14:06:32Z</time></trkpt><trkpt lat="36.87980086535541" lon="15.014131308384963"><ele>165.0</ele><time>2026-03-28T14:06:33Z</time></trkpt><trkpt lat="36.87996989402711" lon="15.014150506614804"><ele>165.0</ele><time>2026-03-28T14:06:34Z</time></trkpt><trkpt lat="36.880120938572965" lon="15.014172426163066"><ele>165.0</ele><time>2026-03-28T14:06:35Z</time></trkpt><trkpt lat="36.88026657409735" lon="15.014193308592667"><ele>163.0</ele><time>2026-03-28T14:06:36Z</time></trkpt><trkpt lat="36.88040527861446" lon="15.014219559089296"><ele>161.0</ele><time>2026-03-28T14:06:37Z</time></trkpt><trkpt lat="36.880546996091326" lon="15.014248378361163"><ele>159.0</ele><time>2026-03-28T14:06:38Z</time></trkpt><trkpt lat="36.88069849476114" lon="15.014278031280977"><ele>157.0</ele><time>2026-03-28T14:06:39Z</time></trkpt><trkpt lat="36.880848621198425" lon="15.014307260497008"><ele>157.0</ele><time>2026-03-28T14:06:40Z</time></trkpt><trkpt lat="36.88100500785181" lon="15.014339749226622"><ele>157.0</ele><time>2026-03-28T14:06:41Z</time></trkpt><trkpt lat="36.881166117093684" lon="15.014375892780953"><ele>157.0</ele><time>2026-03-28T14:06:42Z</time></trkpt><trkpt lat="36.881320142391004" lon="15.014442272814655"><ele>157.0</ele><time>2026-03-28T14:06:43Z</time></trkpt><trkpt lat="36.88146311328631" lon="15.014491789973912"><ele>157.0</ele><time>2026-03-28T14:06:44Z</time></trkpt><trkpt lat="36.88159966921013" lon="15.014524573260154"><ele>157.0</ele><time>2026-03-28T14:06:45Z</time></trkpt><trkpt lat="36.88172095597351" lon="15.014595856176989"><ele>157.0</ele><time>2026-03-28T14:06:46Z</time></trkpt><trkpt lat="36.881850200813766" lon="15.0146550281466"><ele>157.5</ele><time>2026-03-28T14:06:47Z</time></trkpt><trkpt lat="36.881988142062156" lon="15.014693054449985"><ele>158.0</ele><time>2026-03-28T14:06:48Z</time></trkpt><trkpt lat="36.88212523150442" lon="15.01475412950375"><ele>158.5</ele><time>2026-03-28T14:06:49Z</time></trkpt><trkpt lat="36.88227220431598" lon="15.014806807162557"><ele>159.0</ele><time>2026-03-28T14:06:50Z</time></trkpt><trkpt lat="36.88242564622342" lon="15.014850690327542"><ele>159.0</ele><time>2026-03-28T14:06:51Z</time></trkpt><trkpt lat="36.8825690028199" lon="15.014891420824357"><ele>159.0</ele><time>2026-03-28T14:06:52Z</time></trkpt><trkpt lat="36.88269749943986" lon="15.014927949319107"><ele>159.0</ele><time>2026-03-28T14:06:53Z</time></trkpt><trkpt lat="36.8828153668871" lon="15.01497927381265"><ele>159.0</ele><time>2026-03-28T14:06:54Z</time></trkpt><trkpt lat="36.882908890393" lon="15.01508935394906"><ele>157.5</ele><time>2026-03-28T14:06:55Z</time></trkpt><trkpt lat="36.88302433364413" lon="15.015185239425191"><ele>156.0</ele><time>2026-03-28T14:06:56Z</time></trkpt><trkpt lat="36.88315337951564" lon="15.015253388059234"><ele>154.5</ele><time>2026-03-28T14:06:57Z</time></trkpt><trkpt lat="36.88328088798615" lon="15.015310204653233"><ele>153.0</ele><time>2026-03-28T14:06:58Z</time></trkpt><trkpt lat="36.883424151027675" lon="15.01537025808017"><ele>154.33333333333334</ele><time>2026-03-28T14:06:59Z</time></trkpt><trkpt lat="36.88357053796194" lon="15.015457120882704"><ele>155.66666666666669</ele><time>2026-03-28T14:07:00Z</time></trkpt><trkpt lat="36.88371583717544" lon="15.01552597737471"><ele>157.0</ele><time>2026-03-28T14:07:01Z</time></trkpt><trkpt lat="36.883869285383454" lon="15.015575234664913"><ele>157.0</ele><time>2026-03-28T14:07:02Z</time></trkpt><trkpt lat="36.88403404049987" lon="15.015649296107613"><ele>157.0</ele><time>2026-03-28T14:07:03Z</time></trkpt><trkpt lat="36.884211199286625" lon="15.015718864544592"><ele>157.0</ele><time>2026-03-28T14:07:04Z</time></trkpt><trkpt lat="36.884363722154994" lon="15.015798564224001"><ele>157.66666666666669</ele><time>2026-03-28T14:07:05Z</time></trkpt><trkpt lat="36.884511983972246" lon="15.01582980565178"><ele>158.33333333333334</ele><time>2026-03-28T14:07:06Z</time></trkpt><trkpt lat="36.88465914051654" lon="15.015879790657031"><ele>159.0</ele><time>2026-03-28T14:07:07Z</time></trkpt><trkpt lat="36.88481100745489" lon="15.01592972784197"><ele>159.0</ele><time>2026-03-28T14:07:08Z</time></trkpt><trkpt lat="36.88496377087655" lon="15.015984947481387"><ele>159.0</ele><time>2026-03-28T14:07:09Z</time></trkpt><trkpt lat="36.88511670187499" lon="15.016039529729795"><ele>159.0</ele><time>2026-03-28T14:07:10Z</time></trkpt><trkpt lat="36.8852714863421" lon="15.016090663208535"><ele>161.33333333333334</ele><time>2026-03-28T14:07:11Z</time></trkpt><trkpt lat="36.88542797119001" lon="15.016136140801455"><ele>163.66666666666669</ele><time>2026-03-28T14:07:12Z</time></trkpt><trkpt lat="36.885584074410325" lon="15.01617867414577"><ele>166.0</ele><time>2026-03-28T14:07:13Z</time></trkpt><trkpt lat="36.885743600534944" lon="15.016210757780746"><ele>166.0</ele><time>2026-03-28T14:07:14Z</time></trkpt><trkpt lat="36.88589921198979" lon="15.01623614219468"><ele>166.0</ele><time>2026-03-28T14:07:15Z</time></trkpt><trkpt lat="36.88603604290669" lon="15.016256292990922"><ele>166.0</ele><time>2026-03-28T14:07:16Z</time></trkpt><trkpt lat="36.886155455620816" lon="15.016265072020836"><ele>166.0</ele><time>2026-03-28T14:07:17Z</time></trkpt><trkpt lat="36.88626001140329" lon="15.016271881437502"><ele>167.0</ele><time>2026-03-28T14:07:18Z</time></trkpt><trkpt lat="36.88635239444692" lon="15.01627128795682"><ele>168.0</ele><time>2026-03-28T14:07:19Z</time></trkpt><trkpt lat="36.88644210557222" lon="15.01630897746856"><ele>169.0</ele><time>2026-03-28T14:07:20Z</time></trkpt><trkpt lat="36.886531838969894" lon="15.0163435084088"><ele>170.0</ele><time>2026-03-28T14:07:21Z</time></trkpt><trkpt lat="36.88660586545394" lon="15.01641735972744"><ele>171.0</ele><time>2026-03-28T14:07:22Z</time></trkpt><trkpt lat="36.88669222079816" lon="15.016484120569256"><ele>169.8</ele><time>2026-03-28T14:07:23Z</time></trkpt><trkpt lat="36.88677696030096" lon="15.016557096116461"><ele>168.60000000000002</ele><time>2026-03-28T14:07:24Z</time></trkpt><trkpt lat="36.88687280814424" lon="15.016603204414269"><ele>167.4</ele><time>2026-03-28T14:07:25Z</time></trkpt><trkpt lat="36.8869668523459" lon="15.016634816731582"><ele>166.2</ele><time>2026-03-28T14:07:26Z</time></trkpt><trkpt lat="36.88705401804854" lon="15.01666117087945"><ele>165.0</ele><time>2026-03-28T14:07:27Z</time></trkpt><trkpt lat="36.88714242481448" lon="15.016647707099617"><ele>165.0</ele><time>2026-03-28T14:07:28Z</time></trkpt><trkpt lat="36.8872227892965" lon="15.016599318279104"><ele>165.0</ele><time>2026-03-28T14:07:29Z</time></trkpt><trkpt lat="36.88730213054229" lon="15.01656479157091"><ele>165.0</ele><time>2026-03-28T14:07:30Z</time></trkpt><trkpt lat="36.88737419961867" lon="15.016534325394597"><ele>165.0</ele><time>2026-03-28T14:07:31Z</time></trkpt><trkpt lat="36.887441347646146" lon="15.016509567735458"><ele>165.0</ele><time>2026-03-28T14:07:32Z</time></trkpt><trkpt lat="36.887549876898476" lon="15.016509729769686"><ele>165.0</ele><time>2026-03-28T14:07:34Z</time></trkpt><trkpt lat="36.88758293137611" lon="15.01672892016817"><ele>164.16666666666666</ele><time>2026-03-28T14:07:37Z</time></trkpt><trkpt lat="36.88760078058967" lon="15.016834768710375"><ele>163.33333333333334</ele><time>2026-03-28T14:07:38Z</time></trkpt><trkpt lat="36.88759427133694" lon="15.01693678835455"><ele>162.5</ele><time>2026-03-28T14:07:39Z</time></trkpt><trkpt lat="36.887616384405376" lon="15.01702443457714"><ele>161.66666666666669</ele><time>2026-03-28T14:07:40Z</time></trkpt><trkpt lat="36.88759736139759" lon="15.017105746351751"><ele>160.83333333333334</ele><time>2026-03-28T14:07:41Z</time></trkpt><trkpt lat="36.88752974791885" lon="15.017151599784604"><ele>160.0</ele><time>2026-03-28T14:07:42Z</time></trkpt><trkpt lat="36.8874503095086" lon="15.017244143639399"><ele>159.75</ele><time>2026-03-28T14:07:43Z</time></trkpt><trkpt lat="36.88735969547725" lon="15.017364031292365"><ele>159.5</ele><time>2026-03-28T14:07:44Z</time></trkpt><trkpt lat="36.887253683235585" lon="15.017479620361733"><ele>159.25</ele><time>2026-03-28T14:07:45Z</time></trkpt><trkpt lat="36.88715606011097" lon="15.017589403411625"><ele>159.0</ele><time>2026-03-28T14:07:46Z</time></trkpt><trkpt lat="36.88706357249402" lon="15.01768898446112"><ele>159.0</ele><time>2026-03-28T14:07:47Z</time></trkpt><trkpt lat="36.88697668106546" lon="15.017799433999732"><ele>159.0</ele><time>2026-03-28T14:07:48Z</time></trkpt><trkpt lat="36.88687342044822" lon="15.0179494818427"><ele>159.0</ele><time>2026-03-28T14:07:49Z</time></trkpt><trkpt lat="36.886770341840986" lon="15.01812421190777"><ele>159.0</ele><time>2026-03-28T14:07:50Z</time></trkpt><trkpt lat="36.88667787856961" lon="15.018265540665697"><ele>159.0</ele><time>2026-03-28T14:07:51Z</time></trkpt><trkpt lat="36.88659861317297" lon="15.018397566398633"><ele>159.0</ele><time>2026-03-28T14:07:52Z</time></trkpt><trkpt lat="36.886525694860836" lon="15.018545763983106"><ele>159.0</ele><time>2026-03-28T14:07:53Z</time></trkpt><trkpt lat="36.88645716295281" lon="15.018731980075609"><ele>159.0</ele><time>2026-03-28T14:07:54Z</time></trkpt><trkpt lat="36.88640064472699" lon="15.018888262392759"><ele>159.0</ele><time>2026-03-28T14:07:55Z</time></trkpt><trkpt lat="36.88634371947825" lon="15.019036754880608"><ele>159.0</ele><time>2026-03-28T14:07:56Z</time></trkpt><trkpt lat="36.88629076197656" lon="15.01917211179824"><ele>159.0</ele><time>2026-03-28T14:07:57Z</time></trkpt><trkpt lat="36.886243617199206" lon="15.019291068565055"><ele>160.6</ele><time>2026-03-28T14:07:58Z</time></trkpt><trkpt lat="36.886208946542396" lon="15.019387619113063"><ele>162.2</ele><time>2026-03-28T14:07:59Z</time></trkpt><trkpt lat="36.88617903373117" lon="15.019522913733727"><ele>163.79999999999998</ele><time>2026-03-28T14:08:01Z</time></trkpt><trkpt lat="36.886236163161875" lon="15.019590115086386"><ele>165.4</ele><time>2026-03-28T14:08:02Z</time></trkpt><trkpt lat="36.886302275982096" lon="15.019681686670474"><ele>167.0</ele><time>2026-03-28T14:08:03Z</time></trkpt><trkpt lat="36.88638682060955" lon="15.019796106010046"><ele>167.0</ele><time>2026-03-28T14:08:04Z</time></trkpt><trkpt lat="36.88646015469025" lon="15.01991656451161"><ele>167.0</ele><time>2026-03-28T14:08:05Z</time></trkpt><trkpt lat="36.886505202291296" lon="15.020015027367187"><ele>167.0</ele><time>2026-03-28T14:08:06Z</time></trkpt><trkpt lat="36.88653371120293" lon="15.02010707094027"><ele>167.0</ele><time>2026-03-28T14:08:07Z</time></trkpt><trkpt lat="36.88653167392146" lon="15.020186873284008"><ele>167.0</ele><time>2026-03-28T14:08:08Z</time></trkpt><trkpt lat="36.886462749768704" lon="15.020312367439448"><ele>167.8</ele><time>2026-03-28T14:08:10Z</time></trkpt><trkpt lat="36.88638381788656" lon="15.02032795374679"><ele>168.6</ele><time>2026-03-28T14:08:11Z</time></trkpt><trkpt lat="36.886279962995" lon="15.0203419717155"><ele>169.4</ele><time>2026-03-28T14:08:12Z</time></trkpt><trkpt lat="36.886180037893794" lon="15.020396769001485"><ele>170.20000000000002</ele><time>2026-03-28T14:08:13Z</time></trkpt><trkpt lat="36.886100536961564" lon="15.020451324774978"><ele>171.0</ele><time>2026-03-28T14:08:14Z</time></trkpt><trkpt lat="36.88604546570801" lon="15.02052061216379"><ele>171.0</ele><time>2026-03-28T14:08:15Z</time></trkpt><trkpt lat="36.886004012917745" lon="15.020583458445747"><ele>171.0</ele><time>2026-03-28T14:08:16Z</time></trkpt><trkpt lat="36.88598781260085" lon="15.020685031646678"><ele>171.0</ele><time>2026-03-28T14:08:17Z</time></trkpt><trkpt lat="36.88596208032015" lon="15.020804809775235"><ele>171.0</ele><time>2026-03-28T14:08:18Z</time></trkpt><trkpt lat="36.885932142711276" lon="15.02094910418905"><ele>171.0</ele><time>2026-03-28T14:08:19Z</time></trkpt><trkpt lat="36.885889444336975" lon="15.02107955687464"><ele>171.0</ele><time>2026-03-28T14:08:20Z</time></trkpt><trkpt lat="36.88580758162452" lon="15.021174878998517"><ele>171.0</ele><time>2026-03-28T14:08:21Z</time></trkpt><trkpt lat="36.8857423691089" lon="15.021315755899135"><ele>171.0</ele><time>2026-03-28T14:08:22Z</time></trkpt><trkpt lat="36.885668086407804" lon="15.021490134746836"><ele>171.0</ele><time>2026-03-28T14:08:23Z</time></trkpt><trkpt lat="36.88560952873458" lon="15.021689326146026"><ele>174.33333333333334</ele><time>2026-03-28T14:08:24Z</time></trkpt><trkpt lat="36.88553471228873" lon="15.021866771726328"><ele>177.66666666666669</ele><time>2026-03-28T14:08:25Z</time></trkpt><trkpt lat="36.885449739184246" lon="15.022060635865948"><ele>181.0</ele><time>2026-03-28T14:08:26Z</time></trkpt><trkpt lat="36.88536049881427" lon="15.022250880609537"><ele>181.0</ele><time>2026-03-28T14:08:27Z</time></trkpt><trkpt lat="36.88526807424355" lon="15.022409054000502"><ele>181.0</ele><time>2026-03-28T14:08:28Z</time></trkpt><trkpt lat="36.8851895787769" lon="15.022565505851528"><ele>181.0</ele><time>2026-03-28T14:08:29Z</time></trkpt><trkpt lat="36.88513984832794" lon="15.022721444409234"><ele>181.0</ele><time>2026-03-28T14:08:30Z</time></trkpt><trkpt lat="36.885086475506576" lon="15.022856503373278"><ele>180.8</ele><time>2026-03-28T14:08:31Z</time></trkpt><trkpt lat="36.88505421865763" lon="15.022968603342397"><ele>180.60000000000002</ele><time>2026-03-28T14:08:32Z</time></trkpt><trkpt lat="36.88502412134218" lon="15.023086881739337"><ele>180.4</ele><time>2026-03-28T14:08:33Z</time></trkpt><trkpt lat="36.88501673044701" lon="15.023199997667586"><ele>180.2</ele><time>2026-03-28T14:08:34Z</time></trkpt><trkpt lat="36.88503243800663" lon="15.02331519085881"><ele>180.0</ele><time>2026-03-28T14:08:35Z</time></trkpt><trkpt lat="36.88505616056043" lon="15.023434375602841"><ele>180.0</ele><time>2026-03-28T14:08:36Z</time></trkpt><trkpt lat="36.88507335146618" lon="15.023551546410362"><ele>180.0</ele><time>2026-03-28T14:08:37Z</time></trkpt><trkpt lat="36.885057130133994" lon="15.02365634387699"><ele>180.0</ele><time>2026-03-28T14:08:38Z</time></trkpt><trkpt lat="36.88503011470246" lon="15.02373606637775"><ele>180.0</ele><time>2026-03-28T14:08:39Z</time></trkpt><trkpt lat="36.884928869842696" lon="15.023836788479604"><ele>180.0</ele><time>2026-03-28T14:08:41Z</time></trkpt><trkpt lat="36.88489456778444" lon="15.023917350761764"><ele>180.0</ele><time>2026-03-28T14:08:42Z</time></trkpt><trkpt lat="36.88485949279521" lon="15.023994306070469"><ele>180.0</ele><time>2026-03-28T14:08:43Z</time></trkpt><trkpt lat="36.884843722048565" lon="15.024112767299528"><ele>180.0</ele><time>2026-03-28T14:08:44Z</time></trkpt><trkpt lat="36.884821431585955" lon="15.024243106995838"><ele>180.0</ele><time>2026-03-28T14:08:45Z</time></trkpt><trkpt lat="36.88480826871865" lon="15.024409527169611"><ele>180.0</ele><time>2026-03-28T14:08:46Z</time></trkpt><trkpt lat="36.88479312560898" lon="15.024590835876616"><ele>180.0</ele><time>2026-03-28T14:08:47Z</time></trkpt><trkpt lat="36.8847792758255" lon="15.024815795501697"><ele>180.0</ele><time>2026-03-28T14:08:48Z</time></trkpt><trkpt lat="36.88476624472315" lon="15.02500091141574"><ele>180.0</ele><time>2026-03-28T14:08:49Z</time></trkpt><trkpt lat="36.884764874637206" lon="15.025169858098177"><ele>179.25</ele><time>2026-03-28T14:08:50Z</time></trkpt><trkpt lat="36.88476879812643" lon="15.025329043855763"><ele>178.5</ele><time>2026-03-28T14:08:51Z</time></trkpt><trkpt lat="36.88476713133047" lon="15.025473256624286"><ele>177.75</ele><time>2026-03-28T14:08:52Z</time></trkpt><trkpt lat="36.884797155528844" lon="15.025605430102253"><ele>177.0</ele><time>2026-03-28T14:08:53Z</time></trkpt><trkpt lat="36.88482530118557" lon="15.025741340719646"><ele>176.5</ele><time>2026-03-28T14:08:54Z</time></trkpt><trkpt lat="36.88488557603634" lon="15.025899108301312"><ele>176.0</ele><time>2026-03-28T14:08:55Z</time></trkpt><trkpt lat="36.88496235440386" lon="15.026047620824242"><ele>175.5</ele><time>2026-03-28T14:08:56Z</time></trkpt><trkpt lat="36.88503502348115" lon="15.02619246411975"><ele>175.0</ele><time>2026-03-28T14:08:57Z</time></trkpt><trkpt lat="36.88509547594876" lon="15.0263215805067"><ele>175.8</ele><time>2026-03-28T14:08:58Z</time></trkpt><trkpt lat="36.885141613481466" lon="15.026438037757314"><ele>176.6</ele><time>2026-03-28T14:08:59Z</time></trkpt><trkpt lat="36.8851673462335" lon="15.02654681718362"><ele>177.39999999999998</ele><time>2026-03-28T14:09:00Z</time></trkpt><trkpt lat="36.88516051670967" lon="15.02666288341227"><ele>178.2</ele><time>2026-03-28T14:09:01Z</time></trkpt><trkpt lat="36.885133840640016" lon="15.026794918176938"><ele>179.0</ele><time>2026-03-28T14:09:02Z</time></trkpt><trkpt lat="36.88511920515997" lon="15.026915869729283"><ele>179.0</ele><time>2026-03-28T14:09:03Z</time></trkpt><trkpt lat="36.885118924385935" lon="15.027034772571168"><ele>179.0</ele><time>2026-03-28T14:09:04Z</time></trkpt><trkpt lat="36.88514068318545" lon="15.02714191388932"><ele>179.0</ele><time>2026-03-28T14:09:05Z</time></trkpt><trkpt lat="36.88518106591471" lon="15.027239817015154"><ele>179.0</ele><time>2026-03-28T14:09:06Z</time></trkpt><trkpt lat="36.885217217242996" lon="15.02733806518637"><ele>179.0</ele><time>2026-03-28T14:09:07Z</time></trkpt><trkpt lat="36.88523288175528" lon="15.02743051858907"><ele>179.0</ele><time>2026-03-28T14:09:08Z</time></trkpt><trkpt lat="36.885213415450394" lon="15.027507690262834"><ele>179.0</ele><time>2026-03-28T14:09:09Z</time></trkpt><trkpt lat="36.88514125544106" lon="15.027572845358097"><ele>179.0</ele><time>2026-03-28T14:09:10Z</time></trkpt><trkpt lat="36.8850632137238" lon="15.027663887620653"><ele>179.0</ele><time>2026-03-28T14:09:11Z</time></trkpt><trkpt lat="36.884964059704565" lon="15.027769771439733"><ele>179.0</ele><time>2026-03-28T14:09:12Z</time></trkpt><trkpt lat="36.88482427233011" lon="15.027910210786924"><ele>177.66666666666666</ele><time>2026-03-28T14:09:13Z</time></trkpt><trkpt lat="36.88465714943084" lon="15.028072212097644"><ele>176.33333333333334</ele><time>2026-03-28T14:09:14Z</time></trkpt><trkpt lat="36.88450002703978" lon="15.02821848394985"><ele>175.0</ele><time>2026-03-28T14:09:15Z</time></trkpt><trkpt lat="36.884361413482424" lon="15.028347525175073"><ele>174.25</ele><time>2026-03-28T14:09:16Z</time></trkpt><trkpt lat="36.88425056616509" lon="15.028472464254396"><ele>173.5</ele><time>2026-03-28T14:09:17Z</time></trkpt><trkpt lat="36.884147223002" lon="15.02857321369068"><ele>172.75</ele><time>2026-03-28T14:09:18Z</time></trkpt><trkpt lat="36.884050927022166" lon="15.028684096271482"><ele>172.0</ele><time>2026-03-28T14:09:19Z</time></trkpt><trkpt lat="36.883955834466924" lon="15.028800274786647"><ele>172.0</ele><time>2026-03-28T14:09:20Z</time></trkpt><trkpt lat="36.883854649856545" lon="15.028885709519578"><ele>172.0</ele><time>2026-03-28T14:09:21Z</time></trkpt><trkpt lat="36.88374761466821" lon="15.02893520650985"><ele>172.0</ele><time>2026-03-28T14:09:22Z</time></trkpt><trkpt lat="36.883659601354694" lon="15.029007738630511"><ele>172.0</ele><time>2026-03-28T14:09:23Z</time></trkpt><trkpt lat="36.88358694193407" lon="15.029034550602665"><ele>172.0</ele><time>2026-03-28T14:09:24Z</time></trkpt><trkpt lat="36.88353894146616" lon="15.02908578368882"><ele>172.5</ele><time>2026-03-28T14:09:25Z</time></trkpt><trkpt lat="36.8834961643504" lon="15.029148675029044"><ele>173.0</ele><time>2026-03-28T14:09:26Z</time></trkpt><trkpt lat="36.88351101278437" lon="15.029288830466617"><ele>173.5</ele><time>2026-03-28T14:09:27Z</time></trkpt><trkpt lat="36.883532847281266" lon="15.029456376335125"><ele>174.0</ele><time>2026-03-28T14:09:28Z</time></trkpt><trkpt lat="36.883532526893156" lon="15.029654087869769"><ele>174.0</ele><time>2026-03-28T14:09:29Z</time></trkpt><trkpt lat="36.88352548943202" lon="15.029886584856994"><ele>174.0</ele><time>2026-03-28T14:09:30Z</time></trkpt><trkpt lat="36.88351203465836" lon="15.030099345334715"><ele>174.0</ele><time>2026-03-28T14:09:31Z</time></trkpt><trkpt lat="36.883501947525595" lon="15.030276760059184"><ele>173.5</ele><time>2026-03-28T14:09:32Z</time></trkpt><trkpt lat="36.88350575415503" lon="15.03044728773949"><ele>173.0</ele><time>2026-03-28T14:09:33Z</time></trkpt><trkpt lat="36.88349798766456" lon="15.030601646695187"><ele>172.5</ele><time>2026-03-28T14:09:34Z</time></trkpt><trkpt lat="36.88349022550079" lon="15.030749753439405"><ele>172.0</ele><time>2026-03-28T14:09:35Z</time></trkpt><trkpt lat="36.88348618740338" lon="15.030900505139002"><ele>171.25</ele><time>2026-03-28T14:09:36Z</time></trkpt><trkpt lat="36.88349892947913" lon="15.031052541205426"><ele>170.5</ele><time>2026-03-28T14:09:37Z</time></trkpt><trkpt lat="36.88352966731225" lon="15.031199712023158"><ele>169.75</ele><time>2026-03-28T14:09:38Z</time></trkpt><trkpt lat="36.883571090852534" lon="15.031349229215317"><ele>169.0</ele><time>2026-03-28T14:09:39Z</time></trkpt><trkpt lat="36.88361350014408" lon="15.031491636070093"><ele>169.0</ele><time>2026-03-28T14:09:40Z</time></trkpt><trkpt lat="36.88364868844708" lon="15.031623886848482"><ele>169.0</ele><time>2026-03-28T14:09:41Z</time></trkpt><trkpt lat="36.88367374236558" lon="15.03175304120956"><ele>169.0</ele><time>2026-03-28T14:09:42Z</time></trkpt><trkpt lat="36.88368401141206" lon="15.031881972985172"><ele>169.0</ele><time>2026-03-28T14:09:43Z</time></trkpt><trkpt lat="36.8836500652956" lon="15.032007044060737"><ele>169.0</ele><time>2026-03-28T14:09:44Z</time></trkpt><trkpt lat="36.88360728460095" lon="15.032137587495141"><ele>168.25</ele><time>2026-03-28T14:09:45Z</time></trkpt><trkpt lat="36.88356029320611" lon="15.032284835956883"><ele>167.5</ele><time>2026-03-28T14:09:46Z</time></trkpt><trkpt lat="36.88352943293556" lon="15.032431318747065"><ele>166.75</ele><time>2026-03-28T14:09:47Z</time></trkpt><trkpt lat="36.88349029419136" lon="15.032567692288325"><ele>166.0</ele><time>2026-03-28T14:09:48Z</time></trkpt><trkpt lat="36.883454651495235" lon="15.032694883421852"><ele>165.8</ele><time>2026-03-28T14:09:49Z</time></trkpt><trkpt lat="36.88342042205524" lon="15.032819806093565"><ele>165.60000000000002</ele><time>2026-03-28T14:09:50Z</time></trkpt><trkpt lat="36.88338677938151" lon="15.032947758233098"><ele>165.4</ele><time>2026-03-28T14:09:51Z</time></trkpt><trkpt lat="36.883355416485244" lon="15.033084973340042"><ele>165.2</ele><time>2026-03-28T14:09:52Z</time></trkpt><trkpt lat="36.883323095284744" lon="15.03322502135935"><ele>165.0</ele><time>2026-03-28T14:09:53Z</time></trkpt><trkpt lat="36.88327176805066" lon="15.03336158041624"><ele>164.66666666666666</ele><time>2026-03-28T14:09:54Z</time></trkpt><trkpt lat="36.883248620035836" lon="15.033498835190336"><ele>164.33333333333334</ele><time>2026-03-28T14:09:55Z</time></trkpt><trkpt lat="36.8832147659447" lon="15.033600891291675"><ele>164.0</ele><time>2026-03-28T14:09:56Z</time></trkpt><trkpt lat="36.88318871032171" lon="15.03370268161225"><ele>163.66666666666669</ele><time>2026-03-28T14:09:57Z</time></trkpt><trkpt lat="36.88317437705823" lon="15.033780922564556"><ele>163.33333333333334</ele><time>2026-03-28T14:09:58Z</time></trkpt><trkpt lat="36.88314535503529" lon="15.033867058655147"><ele>163.0</ele><time>2026-03-28T14:10:00Z</time></trkpt><trkpt lat="36.88334887662709" lon="15.033927720295283"><ele>163.25</ele><time>2026-03-28T14:10:02Z</time></trkpt><trkpt lat="36.883462932623" lon="15.033916335461178"><ele>163.5</ele><time>2026-03-28T14:10:03Z</time></trkpt><trkpt lat="36.88358227241345" lon="15.03387724942712"><ele>163.75</ele><time>2026-03-28T14:10:04Z</time></trkpt><trkpt lat="36.88374264900338" lon="15.033844603757386"><ele>164.0</ele><time>2026-03-28T14:10:05Z</time></trkpt><trkpt lat="36.88391335229463" lon="15.033812378233973"><ele>164.0</ele><time>2026-03-28T14:10:06Z</time></trkpt><trkpt lat="36.88406038989609" lon="15.033782223593827"><ele>164.0</ele><time>2026-03-28T14:10:07Z</time></trkpt><trkpt lat="36.88420464731216" lon="15.03374576872145"><ele>164.0</ele><time>2026-03-28T14:10:08Z</time></trkpt><trkpt lat="36.88434905312722" lon="15.033737886665739"><ele>164.0</ele><time>2026-03-28T14:10:09Z</time></trkpt><trkpt lat="36.884492031861534" lon="15.033715107948005"><ele>164.66666666666666</ele><time>2026-03-28T14:10:10Z</time></trkpt><trkpt lat="36.884677129209685" lon="15.033684990082593"><ele>165.33333333333334</ele><time>2026-03-28T14:10:11Z</time></trkpt><trkpt lat="36.884868245639275" lon="15.033654274323414"><ele>166.0</ele><time>2026-03-28T14:10:12Z</time></trkpt><trkpt lat="36.885022753616425" lon="15.033610642614155"><ele>166.66666666666669</ele><time>2026-03-28T14:10:13Z</time></trkpt><trkpt lat="36.885173059169" lon="15.033592852390386"><ele>167.33333333333334</ele><time>2026-03-28T14:10:14Z</time></trkpt><trkpt lat="36.885348280307305" lon="15.033572103312656"><ele>168.0</ele><time>2026-03-28T14:10:15Z</time></trkpt><trkpt lat="36.88554551472922" lon="15.033549225725906"><ele>168.0</ele><time>2026-03-28T14:10:16Z</time></trkpt><trkpt lat="36.8857362155301" lon="15.033525863917033"><ele>168.0</ele><time>2026-03-28T14:10:17Z</time></trkpt><trkpt lat="36.88589427738614" lon="15.033494868700751"><ele>168.0</ele><time>2026-03-28T14:10:18Z</time></trkpt><trkpt lat="36.88603308840141" lon="15.033464808586194"><ele>167.5</ele><time>2026-03-28T14:10:19Z</time></trkpt><trkpt lat="36.88614768110296" lon="15.03343780899961"><ele>167.0</ele><time>2026-03-28T14:10:20Z</time></trkpt><trkpt lat="36.88625847184492" lon="15.033413613037807"><ele>166.5</ele><time>2026-03-28T14:10:21Z</time></trkpt><trkpt lat="36.88637562015785" lon="15.03338977634163"><ele>166.0</ele><time>2026-03-28T14:10:22Z</time></trkpt><trkpt lat="36.8865060551625" lon="15.033391538696986"><ele>166.0</ele><time>2026-03-28T14:10:23Z</time></trkpt><trkpt lat="36.8866342121488" lon="15.03337526380926"><ele>166.0</ele><time>2026-03-28T14:10:24Z</time></trkpt><trkpt lat="36.88674723851626" lon="15.033340397289473"><ele>166.0</ele><time>2026-03-28T14:10:25Z</time></trkpt><trkpt lat="36.88685237149001" lon="15.033326671554383"><ele>166.0</ele><time>2026-03-28T14:10:26Z</time></trkpt><trkpt lat="36.886951748104764" lon="15.033305039623565"><ele>165.8</ele><time>2026-03-28T14:10:27Z</time></trkpt><trkpt lat="36.88705324548618" lon="15.03328631214193"><ele>165.60000000000002</ele><time>2026-03-28T14:10:28Z</time></trkpt><trkpt lat="36.88716227683851" lon="15.033264835086255"><ele>165.4</ele><time>2026-03-28T14:10:29Z</time></trkpt><trkpt lat="36.887269490439415" lon="15.033275830077534"><ele>165.2</ele><time>2026-03-28T14:10:30Z</time></trkpt><trkpt lat="36.88735629780374" lon="15.033278826311856"><ele>165.0</ele><time>2026-03-28T14:10:31Z</time></trkpt><trkpt lat="36.887437200337985" lon="15.033286872527484"><ele>165.00000000000003</ele><time>2026-03-28T14:10:32Z</time></trkpt><trkpt lat="36.88751935453824" lon="15.033302913327757"><ele>165.0</ele><time>2026-03-28T14:10:33Z</time></trkpt><trkpt lat="36.88759353667815" lon="15.033325944404787"><ele>165.0</ele><time>2026-03-28T14:10:34Z</time></trkpt><trkpt lat="36.88765358102507" lon="15.033362351745332"><ele>165.0</ele><time>2026-03-28T14:10:35Z</time></trkpt><trkpt lat="36.88770641015819" lon="15.033409897784596"><ele>165.0</ele><time>2026-03-28T14:10:36Z</time></trkpt><trkpt lat="36.887759390897024" lon="15.033465970412184"><ele>165.00000000000003</ele><time>2026-03-28T14:10:37Z</time></trkpt><trkpt lat="36.8878042150387" lon="15.033522191413672"><ele>165.0</ele><time>2026-03-28T14:10:38Z</time></trkpt><trkpt lat="36.8878748305648" lon="15.033631134311436"><ele>164.0</ele><time>2026-03-28T14:10:40Z</time></trkpt><trkpt lat="36.88791174182887" lon="15.033744600283178"><ele>163.0</ele><time>2026-03-28T14:10:42Z</time></trkpt><trkpt lat="36.88794530895274" lon="15.033816224585332"><ele>162.0</ele><time>2026-03-28T14:10:44Z</time></trkpt><trkpt lat="36.888006239572235" lon="15.033898737978463"><ele>161.0</ele><time>2026-03-28T14:10:47Z</time></trkpt><trkpt lat="36.88806288710568" lon="15.033954586240114"><ele>160.0</ele><time>2026-03-28T14:10:50Z</time></trkpt><trkpt lat="36.888118856846816" lon="15.034008677746597"><ele>159.0</ele><time>2026-03-28T14:10:52Z</time></trkpt><trkpt lat="36.888201999320394" lon="15.0340282111766"><ele>159.0</ele><time>2026-03-28T14:10:55Z</time></trkpt><trkpt lat="36.88829009187162" lon="15.03402403286497"><ele>159.0</ele><time>2026-03-28T14:10:58Z</time></trkpt><trkpt lat="36.88835342380513" lon="15.03403472649967"><ele>159.0</ele><time>2026-03-28T14:10:59Z</time></trkpt><trkpt lat="36.88845014500525" lon="15.034067914850127"><ele>159.0</ele><time>2026-03-28T14:11:00Z</time></trkpt><trkpt lat="36.88854435964975" lon="15.03408796367008"><ele>159.0</ele><time>2026-03-28T14:11:02Z</time></trkpt><trkpt lat="36.888611129070966" lon="15.034130660224905"><ele>159.0</ele><time>2026-03-28T14:11:04Z</time></trkpt><trkpt lat="36.888677281330295" lon="15.03415141341353"><ele>157.6</ele><time>2026-03-28T14:11:07Z</time></trkpt><trkpt lat="36.88866095371395" lon="15.034253165245453"><ele>156.2</ele><time>2026-03-28T14:11:14Z</time></trkpt><trkpt lat="36.888552045894365" lon="15.034271660558908"><ele>154.79999999999998</ele><time>2026-03-28T14:11:20Z</time></trkpt><trkpt lat="36.88845179149268" lon="15.034294044824614"><ele>153.4</ele><time>2026-03-28T14:11:22Z</time></trkpt><trkpt lat="36.88839132344903" lon="15.03432957288918"><ele>152.0</ele><time>2026-03-28T14:11:23Z</time></trkpt><trkpt lat="36.88828504342786" lon="15.034321254348535"><ele>152.0</ele><time>2026-03-28T14:11:25Z</time></trkpt><trkpt lat="36.888315574159186" lon="15.034448596963104"><ele>152.0</ele><time>2026-03-28T14:11:28Z</time></trkpt><trkpt lat="36.88841474234667" lon="15.034482680946073"><ele>152.0</ele><time>2026-03-28T14:11:30Z</time></trkpt><trkpt lat="36.888530796511226" lon="15.034497955832423"><ele>152.0</ele><time>2026-03-28T14:11:32Z</time></trkpt><trkpt lat="36.888616013672575" lon="15.034517618313448"><ele>152.0</ele><time>2026-03-28T14:11:34Z</time></trkpt><trkpt lat="36.88869443025694" lon="15.034545556000879"><ele>152.0</ele><time>2026-03-28T14:11:37Z</time></trkpt><trkpt lat="36.888759924197004" lon="15.034560622439926"><ele>152.0</ele><time>2026-03-28T14:11:39Z</time></trkpt><trkpt lat="36.888865748470195" lon="15.034579420484352"><ele>152.0</ele><time>2026-03-28T14:11:41Z</time></trkpt><trkpt lat="36.88892931989306" lon="15.034607229421358"><ele>152.0</ele><time>2026-03-28T14:11:42Z</time></trkpt><trkpt lat="36.889020361199435" lon="15.034642317665044"><ele>152.0</ele><time>2026-03-28T14:11:44Z</time></trkpt><trkpt lat="36.88912160470667" lon="15.034675003017137"><ele>152.0</ele><time>2026-03-28T14:11:46Z</time></trkpt><trkpt lat="36.88922853186854" lon="15.034643016647733"><ele>154.0</ele><time>2026-03-28T14:12:49Z</time></trkpt><trkpt lat="36.88931479667127" lon="15.03463526144296"><ele>156.0</ele><time>2026-03-28T14:12:50Z</time></trkpt><trkpt lat="36.88940886487503" lon="15.034653258381661"><ele>158.0</ele><time>2026-03-28T14:12:51Z</time></trkpt><trkpt lat="36.88949540332869" lon="15.034682345003818"><ele>160.0</ele><time>2026-03-28T14:12:52Z</time></trkpt><trkpt lat="36.889584974055275" lon="15.034708951944284"><ele>162.0</ele><time>2026-03-28T14:12:53Z</time></trkpt><trkpt lat="36.88969963612974" lon="15.034738551310381"><ele>162.0</ele><time>2026-03-28T14:12:54Z</time></trkpt><trkpt lat="36.88984625100029" lon="15.034774966580395"><ele>162.0</ele><time>2026-03-28T14:12:55Z</time></trkpt><trkpt lat="36.89001913071299" lon="15.034819499470185"><ele>162.0</ele><time>2026-03-28T14:12:56Z</time></trkpt><trkpt lat="36.890187292432444" lon="15.034866191722884"><ele>165.0</ele><time>2026-03-28T14:12:57Z</time></trkpt><trkpt lat="36.890328990040906" lon="15.034898588923035"><ele>168.0</ele><time>2026-03-28T14:12:58Z</time></trkpt><trkpt lat="36.890453875478656" lon="15.034917273511745"><ele>171.0</ele><time>2026-03-28T14:12:59Z</time></trkpt><trkpt lat="36.89056500936143" lon="15.03492931940299"><ele>174.0</ele><time>2026-03-28T14:13:00Z</time></trkpt><trkpt lat="36.89066683090471" lon="15.034940291839586"><ele>174.0</ele><time>2026-03-28T14:13:01Z</time></trkpt><trkpt lat="36.89077015496682" lon="15.03493739098737"><ele>174.0</ele><time>2026-03-28T14:13:02Z</time></trkpt><trkpt lat="36.890873825024116" lon="15.034904967946309"><ele>174.0</ele><time>2026-03-28T14:13:03Z</time></trkpt><trkpt lat="36.89097548335005" lon="15.034849830201507"><ele>174.0</ele><time>2026-03-28T14:13:04Z</time></trkpt><trkpt lat="36.891078005484694" lon="15.034774860205895"><ele>174.0</ele><time>2026-03-28T14:13:05Z</time></trkpt><trkpt lat="36.89117767534273" lon="15.03468488523902"><ele>173.2</ele><time>2026-03-28T14:13:06Z</time></trkpt><trkpt lat="36.89126625906309" lon="15.034590927796573"><ele>172.39999999999998</ele><time>2026-03-28T14:13:07Z</time></trkpt><trkpt lat="36.891344722850164" lon="15.034509417243926"><ele>171.6</ele><time>2026-03-28T14:13:08Z</time></trkpt><trkpt lat="36.89143811246625" lon="15.034466221148936"><ele>170.8</ele><time>2026-03-28T14:13:09Z</time></trkpt><trkpt lat="36.891530380951885" lon="15.034386487138013"><ele>170.0</ele><time>2026-03-28T14:13:10Z</time></trkpt><trkpt lat="36.89164687148913" lon="15.034319388795623"><ele>171.5</ele><time>2026-03-28T14:13:11Z</time></trkpt><trkpt lat="36.89177223947752" lon="15.034218274514705"><ele>173.0</ele><time>2026-03-28T14:13:12Z</time></trkpt><trkpt lat="36.891887721778424" lon="15.034095257149529"><ele>174.5</ele><time>2026-03-28T14:13:13Z</time></trkpt><trkpt lat="36.89197989683891" lon="15.033990280079404"><ele>176.0</ele><time>2026-03-28T14:13:14Z</time></trkpt><trkpt lat="36.89206537714445" lon="15.03389142594994"><ele>176.75</ele><time>2026-03-28T14:13:15Z</time></trkpt><trkpt lat="36.89212357612792" lon="15.033769925031663"><ele>177.5</ele><time>2026-03-28T14:13:16Z</time></trkpt><trkpt lat="36.89216979275675" lon="15.033612019095266"><ele>178.25</ele><time>2026-03-28T14:13:17Z</time></trkpt><trkpt lat="36.89223095430509" lon="15.033427414271927"><ele>179.0</ele><time>2026-03-28T14:13:18Z</time></trkpt><trkpt lat="36.8922973953108" lon="15.03326818068081"><ele>179.39999999999998</ele><time>2026-03-28T14:13:19Z</time></trkpt><trkpt lat="36.89236470695961" lon="15.033139610354805"><ele>179.8</ele><time>2026-03-28T14:13:20Z</time></trkpt><trkpt lat="36.89243797655996" lon="15.033025671194496"><ele>180.2</ele><time>2026-03-28T14:13:21Z</time></trkpt><trkpt lat="36.89252508949146" lon="15.032962794527057"><ele>180.60000000000002</ele><time>2026-03-28T14:13:22Z</time></trkpt><trkpt lat="36.89262229521537" lon="15.032909837305159"><ele>181.0</ele><time>2026-03-28T14:13:23Z</time></trkpt><trkpt lat="36.89275085018997" lon="15.032831888844097"><ele>183.0</ele><time>2026-03-28T14:13:24Z</time></trkpt><trkpt lat="36.89288705348783" lon="15.032739283541725"><ele>185.0</ele><time>2026-03-28T14:13:25Z</time></trkpt><trkpt lat="36.89302225408999" lon="15.032651734075337"><ele>187.0</ele><time>2026-03-28T14:13:26Z</time></trkpt><trkpt lat="36.89314627955327" lon="15.032576768645546"><ele>189.0</ele><time>2026-03-28T14:13:27Z</time></trkpt><trkpt lat="36.893269427066244" lon="15.032551291574814"><ele>189.33333333333334</ele><time>2026-03-28T14:13:28Z</time></trkpt><trkpt lat="36.89339178075617" lon="15.032418378846431"><ele>189.66666666666669</ele><time>2026-03-28T14:13:29Z</time></trkpt><trkpt lat="36.89352104181385" lon="15.032300906081757"><ele>190.0</ele><time>2026-03-28T14:13:30Z</time></trkpt><trkpt lat="36.89365368346345" lon="15.032170527565865"><ele>191.25</ele><time>2026-03-28T14:13:31Z</time></trkpt><trkpt lat="36.89376898318785" lon="15.03204748245058"><ele>192.5</ele><time>2026-03-28T14:13:32Z</time></trkpt><trkpt lat="36.893872568751405" lon="15.0319406996593"><ele>193.75</ele><time>2026-03-28T14:13:33Z</time></trkpt><trkpt lat="36.89396752488912" lon="15.031846070693454"><ele>195.0</ele><time>2026-03-28T14:13:34Z</time></trkpt><trkpt lat="36.894058311915664" lon="15.031764840679593"><ele>195.0</ele><time>2026-03-28T14:13:35Z</time></trkpt><trkpt lat="36.89415499164653" lon="15.031703232510026"><ele>195.0</ele><time>2026-03-28T14:13:36Z</time></trkpt><trkpt lat="36.89428177636096" lon="15.031673267408292"><ele>195.0</ele><time>2026-03-28T14:13:37Z</time></trkpt><trkpt lat="36.8944221678035" lon="15.03158430183987"><ele>195.0</ele><time>2026-03-28T14:13:38Z</time></trkpt><trkpt lat="36.89458000600034" lon="15.031505628385624"><ele>196.0</ele><time>2026-03-28T14:13:39Z</time></trkpt><trkpt lat="36.89474528130333" lon="15.031416642235909"><ele>197.0</ele><time>2026-03-28T14:13:40Z</time></trkpt><trkpt lat="36.8949047813254" lon="15.03133167554774"><ele>198.0</ele><time>2026-03-28T14:13:41Z</time></trkpt><trkpt lat="36.895072825692104" lon="15.031257777795442"><ele>199.66666666666669</ele><time>2026-03-28T14:13:42Z</time></trkpt><trkpt lat="36.89525239631048" lon="15.031193337686368"><ele>201.33333333333334</ele><time>2026-03-28T14:13:43Z</time></trkpt><trkpt lat="36.89540535905984" lon="15.031083678831767"><ele>203.0</ele><time>2026-03-28T14:13:44Z</time></trkpt><trkpt lat="36.89556333895306" lon="15.031002291355087"><ele>203.0</ele><time>2026-03-28T14:13:45Z</time></trkpt><trkpt lat="36.89571554002997" lon="15.030946311634922"><ele>203.0</ele><time>2026-03-28T14:13:46Z</time></trkpt><trkpt lat="36.89583055854503" lon="15.030857913224827"><ele>203.0</ele><time>2026-03-28T14:13:47Z</time></trkpt><trkpt lat="36.895937328649694" lon="15.030792927026495"><ele>203.0</ele><time>2026-03-28T14:13:48Z</time></trkpt><trkpt lat="36.89603756482509" lon="15.030705888583487"><ele>204.25</ele><time>2026-03-28T14:13:49Z</time></trkpt><trkpt lat="36.89612744012586" lon="15.030596213662012"><ele>205.5</ele><time>2026-03-28T14:13:50Z</time></trkpt><trkpt lat="36.89621157676019" lon="15.030468542530112"><ele>206.75</ele><time>2026-03-28T14:13:51Z</time></trkpt><trkpt lat="36.89629613842948" lon="15.030323771295231"><ele>208.0</ele><time>2026-03-28T14:13:52Z</time></trkpt><trkpt lat="36.896376203831636" lon="15.03015932112204"><ele>207.66666666666666</ele><time>2026-03-28T14:13:53Z</time></trkpt><trkpt lat="36.89645285500487" lon="15.029966601481126"><ele>207.33333333333331</ele><time>2026-03-28T14:13:54Z</time></trkpt><trkpt lat="36.89654372453738" lon="15.02976491311778"><ele>207.0</ele><time>2026-03-28T14:13:55Z</time></trkpt><trkpt lat="36.89663462590943" lon="15.029590585968974"><ele>207.0</ele><time>2026-03-28T14:13:56Z</time></trkpt><trkpt lat="36.896684644527184" lon="15.029417236262868"><ele>207.0</ele><time>2026-03-28T14:13:57Z</time></trkpt><trkpt lat="36.89674543607035" lon="15.029272433120994"><ele>207.0</ele><time>2026-03-28T14:13:58Z</time></trkpt><trkpt lat="36.89680038649795" lon="15.029156630115269"><ele>207.0</ele><time>2026-03-28T14:13:59Z</time></trkpt><trkpt lat="36.89685494981272" lon="15.029079076395869"><ele>207.5</ele><time>2026-03-28T14:14:00Z</time></trkpt><trkpt lat="36.89694211916995" lon="15.029067992686667"><ele>208.0</ele><time>2026-03-28T14:14:01Z</time></trkpt><trkpt lat="36.89703796810128" lon="15.029045497171548"><ele>208.5</ele><time>2026-03-28T14:14:02Z</time></trkpt><trkpt lat="36.89716144347863" lon="15.029001472485565"><ele>209.0</ele><time>2026-03-28T14:14:03Z</time></trkpt><trkpt lat="36.897313971467966" lon="15.028963199061163"><ele>209.0</ele><time>2026-03-28T14:14:04Z</time></trkpt><trkpt lat="36.89748310755932" lon="15.02892941959972"><ele>209.0</ele><time>2026-03-28T14:14:05Z</time></trkpt><trkpt lat="36.89765594217404" lon="15.028871200885693"><ele>209.0</ele><time>2026-03-28T14:14:06Z</time></trkpt><trkpt lat="36.897849014977055" lon="15.028819057803497"><ele>212.33333333333334</ele><time>2026-03-28T14:14:07Z</time></trkpt><trkpt lat="36.8980467791227" lon="15.028754917967465"><ele>215.66666666666669</ele><time>2026-03-28T14:14:08Z</time></trkpt><trkpt lat="36.89821866233691" lon="15.028723900541307"><ele>219.0</ele><time>2026-03-28T14:14:09Z</time></trkpt><trkpt lat="36.898378391193006" lon="15.028702240980804"><ele>220.2</ele><time>2026-03-28T14:14:10Z</time></trkpt><trkpt lat="36.89851672920967" lon="15.028679494466298"><ele>221.39999999999998</ele><time>2026-03-28T14:14:11Z</time></trkpt><trkpt lat="36.89862454842123" lon="15.028652674886917"><ele>222.6</ele><time>2026-03-28T14:14:12Z</time></trkpt><trkpt lat="36.89868935287499" lon="15.028595820368356"><ele>223.8</ele><time>2026-03-28T14:14:13Z</time></trkpt><trkpt lat="36.89873600817998" lon="15.028503866464668"><ele>225.0</ele><time>2026-03-28T14:14:14Z</time></trkpt><trkpt lat="36.89878300803049" lon="15.028355098438011"><ele>225.8</ele><time>2026-03-28T14:14:15Z</time></trkpt><trkpt lat="36.898850218750006" lon="15.028261916335913"><ele>226.6</ele><time>2026-03-28T14:14:16Z</time></trkpt><trkpt lat="36.89894971465186" lon="15.028223156831453"><ele>227.39999999999998</ele><time>2026-03-28T14:14:17Z</time></trkpt><trkpt lat="36.89906102067587" lon="15.028122391435753"><ele>228.2</ele><time>2026-03-28T14:14:18Z</time></trkpt><trkpt lat="36.89913337096652" lon="15.028029741816788"><ele>229.0</ele><time>2026-03-28T14:14:19Z</time></trkpt><trkpt lat="36.899159177705165" lon="15.027953674697802"><ele>229.0</ele><time>2026-03-28T14:14:20Z</time></trkpt><trkpt lat="36.899146904234584" lon="15.027847578109471"><ele>229.0</ele><time>2026-03-28T14:14:21Z</time></trkpt><trkpt lat="36.899109485229104" lon="15.027693477439765"><ele>229.0</ele><time>2026-03-28T14:14:22Z</time></trkpt><trkpt lat="36.89908357498838" lon="15.027521552479177"><ele>229.0</ele><time>2026-03-28T14:14:23Z</time></trkpt><trkpt lat="36.89907090874452" lon="15.027344601440562"><ele>228.79999999999998</ele><time>2026-03-28T14:14:24Z</time></trkpt><trkpt lat="36.89906853440235" lon="15.027201237672806"><ele>228.59999999999997</ele><time>2026-03-28T14:14:25Z</time></trkpt><trkpt lat="36.899079191743624" lon="15.02707568636683"><ele>228.4</ele><time>2026-03-28T14:14:26Z</time></trkpt><trkpt lat="36.89910746676259" lon="15.026960222670134"><ele>228.2</ele><time>2026-03-28T14:14:27Z</time></trkpt><trkpt lat="36.89917373872908" lon="15.02683101529142"><ele>228.0</ele><time>2026-03-28T14:14:28Z</time></trkpt><trkpt lat="36.89923408145555" lon="15.02665963510569"><ele>229.4</ele><time>2026-03-28T14:14:29Z</time></trkpt><trkpt lat="36.8992761321139" lon="15.026479576712637"><ele>230.8</ele><time>2026-03-28T14:14:30Z</time></trkpt><trkpt lat="36.89931156814675" lon="15.026338815914313"><ele>232.2</ele><time>2026-03-28T14:14:31Z</time></trkpt><trkpt lat="36.89933323203811" lon="15.026221704733599"><ele>233.6</ele><time>2026-03-28T14:14:32Z</time></trkpt><trkpt lat="36.899327554384456" lon="15.026116336841374"><ele>235.0</ele><time>2026-03-28T14:14:33Z</time></trkpt><trkpt lat="36.89929314093236" lon="15.025994114715337"><ele>235.0</ele><time>2026-03-28T14:14:34Z</time></trkpt><trkpt lat="36.899273868664956" lon="15.025840275975304"><ele>235.0</ele><time>2026-03-28T14:14:35Z</time></trkpt><trkpt lat="36.89916556439481" lon="15.0256879155837"><ele>235.0</ele><time>2026-03-28T14:14:36Z</time></trkpt><trkpt lat="36.89910503677976" lon="15.025546312432247"><ele>235.0</ele><time>2026-03-28T14:14:37Z</time></trkpt><trkpt lat="36.899048371746595" lon="15.025412935524463"><ele>234.5</ele><time>2026-03-28T14:14:38Z</time></trkpt><trkpt lat="36.8990010616049" lon="15.025260968826482"><ele>234.0</ele><time>2026-03-28T14:14:39Z</time></trkpt><trkpt lat="36.89893550850254" lon="15.025106231059516"><ele>233.5</ele><time>2026-03-28T14:14:40Z</time></trkpt><trkpt lat="36.89888246884701" lon="15.02497557008316"><ele>233.0</ele><time>2026-03-28T14:14:41Z</time></trkpt><trkpt lat="36.89883540089529" lon="15.02487948392885"><ele>233.00000000000003</ele><time>2026-03-28T14:14:42Z</time></trkpt><trkpt lat="36.8988119822294" lon="15.024764538433582"><ele>233.0</ele><time>2026-03-28T14:14:43Z</time></trkpt><trkpt lat="36.89879135515228" lon="15.024639676851756"><ele>233.0</ele><time>2026-03-28T14:14:44Z</time></trkpt><trkpt lat="36.89879680513349" lon="15.024522720044029"><ele>233.0</ele><time>2026-03-28T14:14:45Z</time></trkpt><trkpt lat="36.89879756969817" lon="15.024427318788664"><ele>233.00000000000003</ele><time>2026-03-28T14:14:46Z</time></trkpt><trkpt lat="36.8987975696993" lon="15.024337865746427"><ele>233.0</ele><time>2026-03-28T14:14:47Z</time></trkpt><trkpt lat="36.89881154911134" lon="15.02425396381423"><ele>233.0</ele><time>2026-03-28T14:14:48Z</time></trkpt><trkpt lat="36.89881979344954" lon="15.024154983562706"><ele>233.0</ele><time>2026-03-28T14:14:49Z</time></trkpt><trkpt lat="36.898827237111014" lon="15.024065615401847"><ele>233.0</ele><time>2026-03-28T14:14:50Z</time></trkpt><trkpt lat="36.898834265666" lon="15.023981230965962"><ele>233.0</ele><time>2026-03-28T14:14:51Z</time></trkpt><trkpt lat="36.89884467898056" lon="15.02385620926647"><ele>233.0</ele><time>2026-03-28T14:14:53Z</time></trkpt><trkpt lat="36.898695694307946" lon="15.02378539284418"><ele>232.83333333333334</ele><time>2026-03-28T14:14:54Z</time></trkpt><trkpt lat="36.89869227109442" lon="15.023669129896692"><ele>232.66666666666669</ele><time>2026-03-28T14:14:56Z</time></trkpt><trkpt lat="36.89868610116423" lon="15.023549199758296"><ele>232.5</ele><time>2026-03-28T14:14:58Z</time></trkpt><trkpt lat="36.898649528243254" lon="15.023453302954087"><ele>232.33333333333331</ele><time>2026-03-28T14:15:01Z</time></trkpt><trkpt lat="36.89862743852108" lon="15.023377774022975"><ele>232.16666666666666</ele><time>2026-03-28T14:15:05Z</time></trkpt><trkpt lat="36.89866243102501" lon="15.023310789380025"><ele>232.0</ele><time>2026-03-28T14:15:09Z</time></trkpt><trkpt lat="36.89868443907574" lon="15.023232723909825"><ele>229.33333333333331</ele><time>2026-03-28T14:15:11Z</time></trkpt><trkpt lat="36.89865665024293" lon="15.023124252917714"><ele>226.66666666666666</ele><time>2026-03-28T14:15:13Z</time></trkpt><trkpt lat="36.89861891436915" lon="15.023010848264052"><ele>224.0</ele><time>2026-03-28T14:15:15Z</time></trkpt><trkpt lat="36.898596174009725" lon="15.022902583864715"><ele>221.33333333333331</ele><time>2026-03-28T14:15:17Z</time></trkpt><trkpt lat="36.898624076212144" lon="15.022783666948726"><ele>218.66666666666666</ele><time>2026-03-28T14:15:19Z</time></trkpt><trkpt lat="36.89865715695" lon="15.022709197082024"><ele>216.0</ele><time>2026-03-28T14:15:20Z</time></trkpt><trkpt lat="36.898692837165875" lon="15.022632286885843"><ele>216.0</ele><time>2026-03-28T14:15:21Z</time></trkpt><trkpt lat="36.8987318255803" lon="15.022562082005184"><ele>216.00000000000003</ele><time>2026-03-28T14:15:22Z</time></trkpt><trkpt lat="36.898801338200656" lon="15.022471743968072"><ele>216.00000000000003</ele><time>2026-03-28T14:15:24Z</time></trkpt><trkpt lat="36.89890016724777" lon="15.022378819521263"><ele>216.0</ele><time>2026-03-28T14:15:26Z</time></trkpt><trkpt lat="36.89897740030919" lon="15.02229128805309"><ele>216.0</ele><time>2026-03-28T14:15:28Z</time></trkpt><trkpt lat="36.899031111996955" lon="15.022220278941576"><ele>216.16666666666666</ele><time>2026-03-28T14:15:30Z</time></trkpt><trkpt lat="36.899086947922775" lon="15.022137212593062"><ele>216.33333333333331</ele><time>2026-03-28T14:15:32Z</time></trkpt><trkpt lat="36.89913418092689" lon="15.022026225435525"><ele>216.5</ele><time>2026-03-28T14:15:34Z</time></trkpt><trkpt lat="36.89917713958928" lon="15.021922259029436"><ele>216.66666666666666</ele><time>2026-03-28T14:15:36Z</time></trkpt><trkpt lat="36.89922308034687" lon="15.021841429732255"><ele>216.83333333333331</ele><time>2026-03-28T14:15:38Z</time></trkpt><trkpt lat="36.89927779591358" lon="15.021763317384604"><ele>217.0</ele><time>2026-03-28T14:15:40Z</time></trkpt><trkpt lat="36.89933691415129" lon="15.02167226574416"><ele>214.6</ele><time>2026-03-28T14:15:42Z</time></trkpt><trkpt lat="36.899396388750695" lon="15.021577333319497"><ele>212.2</ele><time>2026-03-28T14:15:44Z</time></trkpt><trkpt lat="36.89946668565418" lon="15.02149748084206"><ele>209.8</ele><time>2026-03-28T14:15:46Z</time></trkpt><trkpt lat="36.8995451755427" lon="15.0214015277286"><ele>207.4</ele><time>2026-03-28T14:15:48Z</time></trkpt><trkpt lat="36.89962162882913" lon="15.021333095071345"><ele>205.0</ele><time>2026-03-28T14:15:50Z</time></trkpt><trkpt lat="36.899724561145376" lon="15.02125828541192"><ele>204.99999999999997</ele><time>2026-03-28T14:15:52Z</time></trkpt><trkpt lat="36.89978437370508" lon="15.021208946961943"><ele>205.0</ele><time>2026-03-28T14:15:53Z</time></trkpt><trkpt lat="36.89983691337844" lon="15.02115752811305"><ele>205.0</ele><time>2026-03-28T14:15:54Z</time></trkpt><trkpt lat="36.899893162182906" lon="15.021111224829191"><ele>205.0</ele><time>2026-03-28T14:15:55Z</time></trkpt><trkpt lat="36.89994652813015" lon="15.0210639254228"><ele>204.99999999999997</ele><time>2026-03-28T14:15:56Z</time></trkpt><trkpt lat="36.90000757203349" lon="15.020948994804376"><ele>205.0</ele><time>2026-03-28T14:15:58Z</time></trkpt><trkpt lat="36.90003850956591" lon="15.020853060945964"><ele>205.33333333333331</ele><time>2026-03-28T14:15:59Z</time></trkpt><trkpt lat="36.900078827498284" lon="15.020739728840148"><ele>205.66666666666666</ele><time>2026-03-28T14:16:00Z</time></trkpt><trkpt lat="36.90011845769049" lon="15.020636254817962"><ele>206.0</ele><time>2026-03-28T14:16:01Z</time></trkpt><trkpt lat="36.90015042126828" lon="15.020552309612173"><ele>206.33333333333331</ele><time>2026-03-28T14:16:02Z</time></trkpt><trkpt lat="36.90017924601831" lon="15.020477690259547"><ele>206.66666666666666</ele><time>2026-03-28T14:16:03Z</time></trkpt><trkpt lat="36.90021770427531" lon="15.020404581792693"><ele>207.0</ele><time>2026-03-28T14:16:04Z</time></trkpt><trkpt lat="36.90026894472641" lon="15.020320355337654"><ele>207.0</ele><time>2026-03-28T14:16:05Z</time></trkpt><trkpt lat="36.90032510328401" lon="15.020244455558867"><ele>207.0</ele><time>2026-03-28T14:16:06Z</time></trkpt><trkpt lat="36.900380605028865" lon="15.020170068277574"><ele>207.0</ele><time>2026-03-28T14:16:07Z</time></trkpt><trkpt lat="36.90043089781056" lon="15.020088996168491"><ele>207.0</ele><time>2026-03-28T14:16:08Z</time></trkpt><trkpt lat="36.90048569782897" lon="15.020016579779567"><ele>207.0</ele><time>2026-03-28T14:16:09Z</time></trkpt><trkpt lat="36.90055125148838" lon="15.019954495496947"><ele>207.0</ele><time>2026-03-28T14:16:10Z</time></trkpt><trkpt lat="36.90062345941034" lon="15.019876828325504"><ele>206.66666666666666</ele><time>2026-03-28T14:16:11Z</time></trkpt><trkpt lat="36.90069577869269" lon="15.019804942062741"><ele>206.33333333333331</ele><time>2026-03-28T14:16:12Z</time></trkpt><trkpt lat="36.90076114086352" lon="15.019751740174053"><ele>206.0</ele><time>2026-03-28T14:16:13Z</time></trkpt><trkpt lat="36.90083211074814" lon="15.019711914242272"><ele>205.66666666666666</ele><time>2026-03-28T14:16:14Z</time></trkpt><trkpt lat="36.90090994773783" lon="15.019677905139432"><ele>205.33333333333331</ele><time>2026-03-28T14:16:15Z</time></trkpt><trkpt lat="36.90098959948852" lon="15.019645348944"><ele>205.0</ele><time>2026-03-28T14:16:16Z</time></trkpt><trkpt lat="36.901075200537065" lon="15.019613766457542"><ele>204.99999999999997</ele><time>2026-03-28T14:16:17Z</time></trkpt><trkpt lat="36.90116357915966" lon="15.01959374489592"><ele>205.0</ele><time>2026-03-28T14:16:18Z</time></trkpt><trkpt lat="36.901246347781886" lon="15.019583551894463"><ele>205.0</ele><time>2026-03-28T14:16:19Z</time></trkpt><trkpt lat="36.90132444295191" lon="15.019574517423207"><ele>205.0</ele><time>2026-03-28T14:16:20Z</time></trkpt><trkpt lat="36.90139577200743" lon="15.019555629317363"><ele>204.99999999999997</ele><time>2026-03-28T14:16:21Z</time></trkpt><trkpt lat="36.90145894972109" lon="15.019529522589192"><ele>205.0</ele><time>2026-03-28T14:16:22Z</time></trkpt><trkpt lat="36.90151891902613" lon="15.019497846297037"><ele>205.0</ele><time>2026-03-28T14:16:23Z</time></trkpt><trkpt lat="36.90158668594199" lon="15.019491954748572"><ele>205.0</ele><time>2026-03-28T14:16:24Z</time></trkpt><trkpt lat="36.90165482615267" lon="15.019506000195184"><ele>205.0</ele><time>2026-03-28T14:16:25Z</time></trkpt><trkpt lat="36.90172927200074" lon="15.019509460923716"><ele>205.0</ele><time>2026-03-28T14:16:26Z</time></trkpt><trkpt lat="36.90180179087236" lon="15.019497224703901"><ele>205.0</ele><time>2026-03-28T14:16:27Z</time></trkpt><trkpt lat="36.90187029687019" lon="15.019478126569688"><ele>205.0</ele><time>2026-03-28T14:16:28Z</time></trkpt><trkpt lat="36.9019342739512" lon="15.019451880243773"><ele>205.0</ele><time>2026-03-28T14:16:29Z</time></trkpt><trkpt lat="36.90201347193621" lon="15.019415925174377"><ele>206.16666666666666</ele><time>2026-03-28T14:16:30Z</time></trkpt><trkpt lat="36.90209080188916" lon="15.019384461267876"><ele>207.33333333333331</ele><time>2026-03-28T14:16:31Z</time></trkpt><trkpt lat="36.90216687408362" lon="15.0193580675626"><ele>208.5</ele><time>2026-03-28T14:16:32Z</time></trkpt><trkpt lat="36.90223951927346" lon="15.019325416364229"><ele>209.66666666666669</ele><time>2026-03-28T14:16:33Z</time></trkpt><trkpt lat="36.90230541857642" lon="15.019294717832887"><ele>210.83333333333334</ele><time>2026-03-28T14:16:34Z</time></trkpt><trkpt lat="36.90239565500141" lon="15.019242168177547"><ele>212.0</ele><time>2026-03-28T14:16:36Z</time></trkpt><trkpt lat="36.902452044609056" lon="15.019170811870126"><ele>211.83333333333334</ele><time>2026-03-28T14:16:37Z</time></trkpt><trkpt lat="36.90252017327766" lon="15.019104507150832"><ele>211.66666666666669</ele><time>2026-03-28T14:16:38Z</time></trkpt><trkpt lat="36.90259288563949" lon="15.019037620151733"><ele>211.5</ele><time>2026-03-28T14:16:39Z</time></trkpt><trkpt lat="36.90265700490295" lon="15.018979844160532"><ele>211.33333333333331</ele><time>2026-03-28T14:16:40Z</time></trkpt><trkpt lat="36.90272799039185" lon="15.018920883041549"><ele>211.16666666666666</ele><time>2026-03-28T14:16:41Z</time></trkpt><trkpt lat="36.90280108035932" lon="15.018858965158431"><ele>211.0</ele><time>2026-03-28T14:16:42Z</time></trkpt><trkpt lat="36.902848084764656" lon="15.018802802534694"><ele>212.0</ele><time>2026-03-28T14:16:43Z</time></trkpt><trkpt lat="36.90291497274134" lon="15.018664116131546"><ele>213.0</ele><time>2026-03-28T14:16:45Z</time></trkpt><trkpt lat="36.90294976114095" lon="15.018552477371596"><ele>214.00000000000003</ele><time>2026-03-28T14:16:46Z</time></trkpt><trkpt lat="36.90297859051395" lon="15.01845862141089"><ele>215.0</ele><time>2026-03-28T14:16:47Z</time></trkpt><trkpt lat="36.903002478808574" lon="15.018375274968069"><ele>216.0</ele><time>2026-03-28T14:16:48Z</time></trkpt><trkpt lat="36.90303564926392" lon="15.018276149534255"><ele>216.0</ele><time>2026-03-28T14:16:49Z</time></trkpt><trkpt lat="36.903058909016586" lon="15.01818606567572"><ele>216.0</ele><time>2026-03-28T14:16:50Z</time></trkpt><trkpt lat="36.90307778386693" lon="15.018109056371436"><ele>216.0</ele><time>2026-03-28T14:16:51Z</time></trkpt><trkpt lat="36.9031383106972" lon="15.017974946139809"><ele>216.0</ele><time>2026-03-28T14:16:53Z</time></trkpt><trkpt lat="36.903184642009904" lon="15.017903645993872"><ele>216.0</ele><time>2026-03-28T14:16:54Z</time></trkpt><trkpt lat="36.90323200866457" lon="15.017839458190725"><ele>216.0</ele><time>2026-03-28T14:16:55Z</time></trkpt><trkpt lat="36.90333712301901" lon="15.017781577913238"><ele>216.0</ele><time>2026-03-28T14:16:57Z</time></trkpt><trkpt lat="36.90340677536299" lon="15.017800541397987"><ele>216.0</ele><time>2026-03-28T14:16:58Z</time></trkpt><trkpt lat="36.903496261870956" lon="15.017828357366392"><ele>216.0</ele><time>2026-03-28T14:16:59Z</time></trkpt><trkpt lat="36.903585974472385" lon="15.017856362106208"><ele>216.0</ele><time>2026-03-28T14:17:00Z</time></trkpt><trkpt lat="36.90365195604521" lon="15.017871813001959"><ele>216.0</ele><time>2026-03-28T14:17:01Z</time></trkpt><trkpt lat="36.903757467567445" lon="15.017858528472093"><ele>216.0</ele><time>2026-03-28T14:17:03Z</time></trkpt><trkpt lat="36.903831425806224" lon="15.017924761121131"><ele>217.60000000000002</ele><time>2026-03-28T14:17:05Z</time></trkpt><trkpt lat="36.903886924943734" lon="15.01805919837328"><ele>219.20000000000002</ele><time>2026-03-28T14:17:07Z</time></trkpt><trkpt lat="36.90398205234097" lon="15.01813167927322"><ele>220.79999999999998</ele><time>2026-03-28T14:17:09Z</time></trkpt><trkpt lat="36.90404176276587" lon="15.018164804858474"><ele>222.39999999999998</ele><time>2026-03-28T14:17:10Z</time></trkpt><trkpt lat="36.90412081520371" lon="15.0182129182513"><ele>224.0</ele><time>2026-03-28T14:17:12Z</time></trkpt><trkpt lat="36.90417592445729" lon="15.018168150584588"><ele>225.0</ele><time>2026-03-28T14:17:18Z</time></trkpt><trkpt lat="36.904267101566205" lon="15.01817173272355"><ele>225.99999999999997</ele><time>2026-03-28T14:17:22Z</time></trkpt><trkpt lat="36.90432417179056" lon="15.018274252003389"><ele>226.99999999999997</ele><time>2026-03-28T14:17:23Z</time></trkpt><trkpt lat="36.90437783929493" lon="15.018400855842563"><ele>228.0</ele><time>2026-03-28T14:17:24Z</time></trkpt><trkpt lat="36.904420834981" lon="15.018536405374865"><ele>229.0</ele><time>2026-03-28T14:17:25Z</time></trkpt><trkpt lat="36.9044451367817" lon="15.018641955727098"><ele>230.49999999999997</ele><time>2026-03-28T14:17:26Z</time></trkpt><trkpt lat="36.90446323303398" lon="15.018732159826692"><ele>232.0</ele><time>2026-03-28T14:17:27Z</time></trkpt><trkpt lat="36.904466311877805" lon="15.018820763309273"><ele>233.5</ele><time>2026-03-28T14:17:28Z</time></trkpt><trkpt lat="36.904412466728346" lon="15.018900860891513"><ele>235.0</ele><time>2026-03-28T14:17:29Z</time></trkpt><trkpt lat="36.904395769222575" lon="15.019002536940391"><ele>236.49999999999997</ele><time>2026-03-28T14:17:30Z</time></trkpt><trkpt lat="36.904394240832815" lon="15.019090763664643"><ele>238.0</ele><time>2026-03-28T14:17:31Z</time></trkpt><trkpt lat="36.90440476652138" lon="15.019177781652356"><ele>240.60000000000002</ele><time>2026-03-28T14:17:32Z</time></trkpt><trkpt lat="36.90441576978942" lon="15.019262742685019"><ele>243.20000000000002</ele><time>2026-03-28T14:17:33Z</time></trkpt><trkpt lat="36.904421310373394" lon="15.019366988330336"><ele>245.8</ele><time>2026-03-28T14:17:34Z</time></trkpt><trkpt lat="36.90441275402311" lon="15.019504353058919"><ele>248.4</ele><time>2026-03-28T14:17:35Z</time></trkpt><trkpt lat="36.904399283561325" lon="15.019670190686028"><ele>251.0</ele><time>2026-03-28T14:17:36Z</time></trkpt><trkpt lat="36.90439216802788" lon="15.019833554608942"><ele>251.0</ele><time>2026-03-28T14:17:37Z</time></trkpt><trkpt lat="36.90435270546403" lon="15.019973505344266"><ele>251.00000000000003</ele><time>2026-03-28T14:17:38Z</time></trkpt><trkpt lat="36.90432901477526" lon="15.020070535628"><ele>251.00000000000003</ele><time>2026-03-28T14:17:39Z</time></trkpt><trkpt lat="36.904282711249884" lon="15.02014964274661"><ele>251.0</ele><time>2026-03-28T14:17:40Z</time></trkpt><trkpt lat="36.90420692429011" lon="15.020237551557187"><ele>251.0</ele><time>2026-03-28T14:17:41Z</time></trkpt><trkpt lat="36.90411424838803" lon="15.020349099766069"><ele>251.4</ele><time>2026-03-28T14:17:42Z</time></trkpt><trkpt lat="36.9040362322432" lon="15.020466226543132"><ele>251.8</ele><time>2026-03-28T14:17:43Z</time></trkpt><trkpt lat="36.90397499143323" lon="15.020544025579527"><ele>252.20000000000002</ele><time>2026-03-28T14:17:44Z</time></trkpt><trkpt lat="36.90393172388193" lon="15.020653052013621"><ele>252.60000000000002</ele><time>2026-03-28T14:17:46Z</time></trkpt><trkpt lat="36.90388686981804" lon="15.020715119772364"><ele>253.0</ele><time>2026-03-28T14:17:47Z</time></trkpt><trkpt lat="36.903820315717056" lon="15.020812641205517"><ele>257.5</ele><time>2026-03-28T14:17:48Z</time></trkpt><trkpt lat="36.90375351010017" lon="15.020943322917429"><ele>262.0</ele><time>2026-03-28T14:17:49Z</time></trkpt><trkpt lat="36.90368905393833" lon="15.021088815319194"><ele>266.5</ele><time>2026-03-28T14:17:50Z</time></trkpt><trkpt lat="36.90364008989655" lon="15.021247427852979"><ele>271.0</ele><time>2026-03-28T14:17:51Z</time></trkpt><trkpt lat="36.90361491473077" lon="15.021394412230682"><ele>271.0</ele><time>2026-03-28T14:17:52Z</time></trkpt><trkpt lat="36.90361072702769" lon="15.021549696895038"><ele>271.0</ele><time>2026-03-28T14:17:53Z</time></trkpt><trkpt lat="36.90361919044842" lon="15.021721325036728"><ele>271.0</ele><time>2026-03-28T14:17:54Z</time></trkpt><trkpt lat="36.9036342315408" lon="15.021901659165723"><ele>271.0</ele><time>2026-03-28T14:17:55Z</time></trkpt><trkpt lat="36.90364376504163" lon="15.0220796708208"><ele>274.0</ele><time>2026-03-28T14:17:56Z</time></trkpt><trkpt lat="36.90366170050719" lon="15.022233316460078"><ele>277.0</ele><time>2026-03-28T14:17:57Z</time></trkpt><trkpt lat="36.903695488182905" lon="15.022379865454552"><ele>280.0</ele><time>2026-03-28T14:17:58Z</time></trkpt><trkpt lat="36.90374684261082" lon="15.022527168199929"><ele>283.0</ele><time>2026-03-28T14:17:59Z</time></trkpt><trkpt lat="36.90380802986167" lon="15.022647999606074"><ele>283.2</ele><time>2026-03-28T14:18:00Z</time></trkpt><trkpt lat="36.90386767457563" lon="15.022733657061629"><ele>283.4</ele><time>2026-03-28T14:18:01Z</time></trkpt><trkpt lat="36.90394819944964" lon="15.02279934858927"><ele>283.59999999999997</ele><time>2026-03-28T14:18:02Z</time></trkpt><trkpt lat="36.904042562309684" lon="15.022877111256683"><ele>283.8</ele><time>2026-03-28T14:18:03Z</time></trkpt><trkpt lat="36.90414940165341" lon="15.022974663790688"><ele>284.0</ele><time>2026-03-28T14:18:04Z</time></trkpt><trkpt lat="36.904259479005006" lon="15.023096552699759"><ele>285.0</ele><time>2026-03-28T14:18:05Z</time></trkpt><trkpt lat="36.90436297480911" lon="15.02320606401818"><ele>286.0</ele><time>2026-03-28T14:18:06Z</time></trkpt><trkpt lat="36.90445508710919" lon="15.023289629527795"><ele>287.0</ele><time>2026-03-28T14:18:07Z</time></trkpt><trkpt lat="36.90453392109942" lon="15.023355037729452"><ele>288.0</ele><time>2026-03-28T14:18:08Z</time></trkpt><trkpt lat="36.90458843563021" lon="15.023424915123098"><ele>289.0</ele><time>2026-03-28T14:18:09Z</time></trkpt><trkpt lat="36.904613737928166" lon="15.023510983910448"><ele>289.0</ele><time>2026-03-28T14:18:10Z</time></trkpt><trkpt lat="36.904617986158925" lon="15.023621848949523"><ele>289.0</ele><time>2026-03-28T14:18:11Z</time></trkpt><trkpt lat="36.904606184692426" lon="15.023781045827107"><ele>289.0</ele><time>2026-03-28T14:18:12Z</time></trkpt><trkpt lat="36.904600872148556" lon="15.023941266060694"><ele>289.0</ele><time>2026-03-28T14:18:13Z</time></trkpt><trkpt lat="36.9046125041218" lon="15.024061519150516"><ele>289.0</ele><time>2026-03-28T14:18:14Z</time></trkpt><trkpt lat="36.90463769970302" lon="15.024160626432801"><ele>288.59999999999997</ele><time>2026-03-28T14:18:15Z</time></trkpt><trkpt lat="36.904684367361796" lon="15.024262831087693"><ele>288.2</ele><time>2026-03-28T14:18:16Z</time></trkpt><trkpt lat="36.90474720649271" lon="15.024370758435161"><ele>287.79999999999995</ele><time>2026-03-28T14:18:17Z</time></trkpt><trkpt lat="36.90483918348832" lon="15.024449984916657"><ele>287.4</ele><time>2026-03-28T14:18:18Z</time></trkpt><trkpt lat="36.90495146048709" lon="15.02451223245008"><ele>287.0</ele><time>2026-03-28T14:18:19Z</time></trkpt><trkpt lat="36.9050697024504" lon="15.024571962090281"><ele>288.4</ele><time>2026-03-28T14:18:20Z</time></trkpt><trkpt lat="36.90516495052177" lon="15.024636079323983"><ele>289.79999999999995</ele><time>2026-03-28T14:18:21Z</time></trkpt><trkpt lat="36.905245437712786" lon="15.024710466712271"><ele>291.2</ele><time>2026-03-28T14:18:22Z</time></trkpt><trkpt lat="36.90532442797117" lon="15.024793247240579"><ele>292.59999999999997</ele><time>2026-03-28T14:18:23Z</time></trkpt><trkpt lat="36.90540028418422" lon="15.024899024692651"><ele>294.0</ele><time>2026-03-28T14:18:24Z</time></trkpt><trkpt lat="36.905463783308946" lon="15.02502768014082"><ele>294.0</ele><time>2026-03-28T14:18:25Z</time></trkpt><trkpt lat="36.90551911484612" lon="15.025149899329495"><ele>294.0</ele><time>2026-03-28T14:18:26Z</time></trkpt><trkpt lat="36.90557928823328" lon="15.025251397386235"><ele>294.0</ele><time>2026-03-28T14:18:27Z</time></trkpt><trkpt lat="36.9056660323418" lon="15.025350315391268"><ele>294.0</ele><time>2026-03-28T14:18:28Z</time></trkpt><trkpt lat="36.905768505288385" lon="15.025442170216097"><ele>294.0</ele><time>2026-03-28T14:18:29Z</time></trkpt><trkpt lat="36.905880466980506" lon="15.025509593811226"><ele>294.0</ele><time>2026-03-28T14:18:30Z</time></trkpt><trkpt lat="36.905996070744266" lon="15.02555433112006"><ele>294.0</ele><time>2026-03-28T14:18:31Z</time></trkpt><trkpt lat="36.9061147879962" lon="15.025586647606847"><ele>294.0</ele><time>2026-03-28T14:18:32Z</time></trkpt><trkpt lat="36.9062198141145" lon="15.025606420896565"><ele>293.1666666666667</ele><time>2026-03-28T14:18:33Z</time></trkpt><trkpt lat="36.906313513378464" lon="15.02560368920278"><ele>292.3333333333333</ele><time>2026-03-28T14:18:34Z</time></trkpt><trkpt lat="36.906402282840496" lon="15.025603289844561"><ele>291.5</ele><time>2026-03-28T14:18:35Z</time></trkpt><trkpt lat="36.9064785240426" lon="15.0256195190384"><ele>290.66666666666663</ele><time>2026-03-28T14:18:36Z</time></trkpt><trkpt lat="36.90654905018309" lon="15.025661603061433"><ele>289.8333333333333</ele><time>2026-03-28T14:18:37Z</time></trkpt><trkpt lat="36.90660721022001" lon="15.025737285980645"><ele>289.0</ele><time>2026-03-28T14:18:38Z</time></trkpt><trkpt lat="36.90665578262391" lon="15.025845290548821"><ele>289.0</ele><time>2026-03-28T14:18:39Z</time></trkpt><trkpt lat="36.906690723113535" lon="15.02597723173319"><ele>289.0</ele><time>2026-03-28T14:18:40Z</time></trkpt><trkpt lat="36.90672709608554" lon="15.026081853199505"><ele>289.0</ele><time>2026-03-28T14:18:41Z</time></trkpt><trkpt lat="36.906792182318284" lon="15.026155748749376"><ele>289.0</ele><time>2026-03-28T14:18:42Z</time></trkpt><trkpt lat="36.90688345747509" lon="15.026208930257033"><ele>289.0</ele><time>2026-03-28T14:18:43Z</time></trkpt><trkpt lat="36.90699426636383" lon="15.026248240312272"><ele>291.25</ele><time>2026-03-28T14:18:44Z</time></trkpt><trkpt lat="36.90711889717707" lon="15.026268779965752"><ele>293.5</ele><time>2026-03-28T14:18:45Z</time></trkpt><trkpt lat="36.907268421667084" lon="15.026281840730624"><ele>295.75</ele><time>2026-03-28T14:18:46Z</time></trkpt><trkpt lat="36.90740832175004" lon="15.026303222589783"><ele>298.0</ele><time>2026-03-28T14:18:47Z</time></trkpt><trkpt lat="36.90752665281567" lon="15.026322787670711"><ele>299.5</ele><time>2026-03-28T14:18:48Z</time></trkpt><trkpt lat="36.90763175338731" lon="15.026334354828233"><ele>301.0</ele><time>2026-03-28T14:18:49Z</time></trkpt><trkpt lat="36.90772414985678" lon="15.026317396725336"><ele>302.5</ele><time>2026-03-28T14:18:50Z</time></trkpt><trkpt lat="36.90779897207725" lon="15.026311835139694"><ele>304.0</ele><time>2026-03-28T14:18:51Z</time></trkpt><trkpt lat="36.90788284250045" lon="15.026328329092768"><ele>305.5</ele><time>2026-03-28T14:18:53Z</time></trkpt><trkpt lat="36.90789679220646" lon="15.026406006847042"><ele>307.0</ele><time>2026-03-28T14:18:54Z</time></trkpt><trkpt lat="36.907897406775355" lon="15.026501884096511"><ele>306.99999999999994</ele><time>2026-03-28T14:18:55Z</time></trkpt><trkpt lat="36.90789380970972" lon="15.026589129065957"><ele>307.0</ele><time>2026-03-28T14:18:56Z</time></trkpt><trkpt lat="36.90786894817657" lon="15.02666349043069"><ele>307.0</ele><time>2026-03-28T14:18:57Z</time></trkpt><trkpt lat="36.90785256313651" lon="15.026759225627188"><ele>307.0</ele><time>2026-03-28T14:18:58Z</time></trkpt><trkpt lat="36.907828441907384" lon="15.026851988322624"><ele>307.0</ele><time>2026-03-28T14:18:59Z</time></trkpt><trkpt lat="36.90777896184701" lon="15.026948061013487"><ele>306.99999999999994</ele><time>2026-03-28T14:19:00Z</time></trkpt><trkpt lat="36.90774850889063" lon="15.027020218911137"><ele>307.0</ele><time>2026-03-28T14:19:01Z</time></trkpt><trkpt lat="36.90752738383798" lon="15.027026328711774"><ele>302.8333333333333</ele><time>2026-03-28T14:19:03Z</time></trkpt><trkpt lat="36.907479775029614" lon="15.027124562043143"><ele>298.66666666666663</ele><time>2026-03-28T14:19:04Z</time></trkpt><trkpt lat="36.90744070792609" lon="15.027271040463864"><ele>294.5</ele><time>2026-03-28T14:19:05Z</time></trkpt><trkpt lat="36.90743056389001" lon="15.027369181711714"><ele>290.3333333333333</ele><time>2026-03-28T14:19:06Z</time></trkpt><trkpt lat="36.90742709517871" lon="15.027466227144755"><ele>286.1666666666667</ele><time>2026-03-28T14:19:07Z</time></trkpt><trkpt lat="36.90742392592493" lon="15.027557305990793"><ele>282.0</ele><time>2026-03-28T14:19:08Z</time></trkpt><trkpt lat="36.907412148621276" lon="15.027670634559955"><ele>281.2</ele><time>2026-03-28T14:19:09Z</time></trkpt><trkpt lat="36.90736289490597" lon="15.027774023484161"><ele>280.4</ele><time>2026-03-28T14:19:11Z</time></trkpt><trkpt lat="36.90731532762938" lon="15.027864067382316"><ele>279.6</ele><time>2026-03-28T14:19:12Z</time></trkpt><trkpt lat="36.9072661370115" lon="15.027986538416211"><ele>278.8</ele><time>2026-03-28T14:19:13Z</time></trkpt><trkpt lat="36.9072251198489" lon="15.028106566098463"><ele>278.0</ele><time>2026-03-28T14:19:14Z</time></trkpt><trkpt lat="36.907194883925165" lon="15.028201572116865"><ele>278.0</ele><time>2026-03-28T14:19:15Z</time></trkpt><trkpt lat="36.90716478544378" lon="15.028295321747539"><ele>278.0</ele><time>2026-03-28T14:19:16Z</time></trkpt><trkpt lat="36.90714131150937" lon="15.028372866182435"><ele>278.0</ele><time>2026-03-28T14:19:17Z</time></trkpt><trkpt lat="36.90754038740685" lon="15.028645011728905"><ele>278.8</ele><time>2026-03-28T14:19:19Z</time></trkpt><trkpt lat="36.90758414039206" lon="15.028743190091548"><ele>279.6</ele><time>2026-03-28T14:19:20Z</time></trkpt><trkpt lat="36.90764012871097" lon="15.028840729519718"><ele>280.4</ele><time>2026-03-28T14:19:22Z</time></trkpt><trkpt lat="36.907700884885294" lon="15.02893878253048"><ele>281.2</ele><time>2026-03-28T14:19:25Z</time></trkpt><trkpt lat="36.907777200281934" lon="15.028922518339968"><ele>282.0</ele><time>2026-03-28T14:19:28Z</time></trkpt><trkpt lat="36.90785725910686" lon="15.028877559604558"><ele>282.0</ele><time>2026-03-28T14:19:30Z</time></trkpt><trkpt lat="36.90794681200335" lon="15.028838497608048"><ele>282.0</ele><time>2026-03-28T14:19:31Z</time></trkpt><trkpt lat="36.908082587782765" lon="15.028830067020417"><ele>282.0</ele><time>2026-03-28T14:19:33Z</time></trkpt><trkpt lat="36.90820524852326" lon="15.028839013305038"><ele>282.0</ele><time>2026-03-28T14:19:35Z</time></trkpt><trkpt lat="36.90835164823826" lon="15.028783492408868"><ele>281.2</ele><time>2026-03-28T14:19:37Z</time></trkpt><trkpt lat="36.9084332366714" lon="15.02871238048761"><ele>280.4</ele><time>2026-03-28T14:19:38Z</time></trkpt><trkpt lat="36.90852860205498" lon="15.028686906632965"><ele>279.6</ele><time>2026-03-28T14:19:39Z</time></trkpt><trkpt lat="36.908613889294514" lon="15.028634014201657"><ele>278.8</ele><time>2026-03-28T14:19:40Z</time></trkpt><trkpt lat="36.90868672051194" lon="15.028580584496137"><ele>278.0</ele><time>2026-03-28T14:19:41Z</time></trkpt><trkpt lat="36.90875188133819" lon="15.028487324440404"><ele>278.0</ele><time>2026-03-28T14:19:42Z</time></trkpt><trkpt lat="36.90882739560186" lon="15.028406820941923"><ele>278.0</ele><time>2026-03-28T14:19:43Z</time></trkpt><trkpt lat="36.90891959342635" lon="15.028340024787672"><ele>278.0</ele><time>2026-03-28T14:19:44Z</time></trkpt><trkpt lat="36.90900950740326" lon="15.028246515279886"><ele>278.0</ele><time>2026-03-28T14:19:45Z</time></trkpt><trkpt lat="36.90908356556571" lon="15.028140533155932"><ele>278.0</ele><time>2026-03-28T14:19:46Z</time></trkpt><trkpt lat="36.909151383639745" lon="15.02804636272704"><ele>280.8</ele><time>2026-03-28T14:19:47Z</time></trkpt><trkpt lat="36.90922052150958" lon="15.027969761447638"><ele>283.6</ele><time>2026-03-28T14:19:48Z</time></trkpt><trkpt lat="36.9092836761917" lon="15.027897204264962"><ele>286.4</ele><time>2026-03-28T14:19:49Z</time></trkpt><trkpt lat="36.90935822967427" lon="15.027829976863154"><ele>289.2</ele><time>2026-03-28T14:19:50Z</time></trkpt><trkpt lat="36.90945816475329" lon="15.027743637909976"><ele>292.0</ele><time>2026-03-28T14:19:51Z</time></trkpt><trkpt lat="36.90954108118097" lon="15.027683917332478"><ele>292.0</ele><time>2026-03-28T14:19:52Z</time></trkpt><trkpt lat="36.90961486949833" lon="15.027651672783565"><ele>292.0</ele><time>2026-03-28T14:19:53Z</time></trkpt><trkpt lat="36.90968807125457" lon="15.027629767535224"><ele>292.0</ele><time>2026-03-28T14:19:54Z</time></trkpt><trkpt lat="36.90976135635149" lon="15.027636745427642"><ele>292.0</ele><time>2026-03-28T14:19:55Z</time></trkpt><trkpt lat="36.90986302218251" lon="15.027637322315893"><ele>292.0</ele><time>2026-03-28T14:19:56Z</time></trkpt><trkpt lat="36.91000558234447" lon="15.027633246331398"><ele>291.0</ele><time>2026-03-28T14:19:57Z</time></trkpt><trkpt lat="36.91015193663412" lon="15.027627901613524"><ele>290.0</ele><time>2026-03-28T14:19:58Z</time></trkpt><trkpt lat="36.91026246414123" lon="15.027623107317424"><ele>289.0</ele><time>2026-03-28T14:19:59Z</time></trkpt><trkpt lat="36.910353088746575" lon="15.02759813635028"><ele>288.0</ele><time>2026-03-28T14:20:00Z</time></trkpt><trkpt lat="36.91044272109638" lon="15.027592789546642"><ele>287.0</ele><time>2026-03-28T14:20:01Z</time></trkpt><trkpt lat="36.910526794841125" lon="15.027522294292007"><ele>288.6</ele><time>2026-03-28T14:20:02Z</time></trkpt><trkpt lat="36.91061521170143" lon="15.027452309584275"><ele>290.2</ele><time>2026-03-28T14:20:03Z</time></trkpt><trkpt lat="36.91071270879989" lon="15.027412586489524"><ele>291.8</ele><time>2026-03-28T14:20:04Z</time></trkpt><trkpt lat="36.910794690911615" lon="15.02735922475228"><ele>293.4</ele><time>2026-03-28T14:20:05Z</time></trkpt><trkpt lat="36.910859160953336" lon="15.027274758856947"><ele>295.0</ele><time>2026-03-28T14:20:06Z</time></trkpt><trkpt lat="36.91091284448162" lon="15.027193744879309"><ele>295.0</ele><time>2026-03-28T14:20:07Z</time></trkpt><trkpt lat="36.91097708070867" lon="15.027125554964835"><ele>295.0</ele><time>2026-03-28T14:20:08Z</time></trkpt><trkpt lat="36.91103846585136" lon="15.027056452981201"><ele>295.0</ele><time>2026-03-28T14:20:09Z</time></trkpt><trkpt lat="36.91111337676285" lon="15.026993497847652"><ele>295.0</ele><time>2026-03-28T14:20:10Z</time></trkpt><trkpt lat="36.911186255929884" lon="15.026937305991563"><ele>295.0</ele><time>2026-03-28T14:20:11Z</time></trkpt><trkpt lat="36.91126492265537" lon="15.026883541549758"><ele>295.0</ele><time>2026-03-28T14:20:12Z</time></trkpt><trkpt lat="36.91137988737729" lon="15.026841973761993"><ele>295.0</ele><time>2026-03-28T14:20:13Z</time></trkpt><trkpt lat="36.91149304942225" lon="15.026787403088594"><ele>295.0</ele><time>2026-03-28T14:20:14Z</time></trkpt><trkpt lat="36.91159685683408" lon="15.026763280621273"><ele>295.0</ele><time>2026-03-28T14:20:15Z</time></trkpt><trkpt lat="36.91171119347223" lon="15.026751961180441"><ele>295.0</ele><time>2026-03-28T14:20:16Z</time></trkpt><trkpt lat="36.91183434561408" lon="15.026749727481919"><ele>294.75</ele><time>2026-03-28T14:20:17Z</time></trkpt><trkpt lat="36.911975643491594" lon="15.026742044346099"><ele>294.5</ele><time>2026-03-28T14:20:18Z</time></trkpt><trkpt lat="36.91213751454534" lon="15.026695820107804"><ele>294.25</ele><time>2026-03-28T14:20:19Z</time></trkpt><trkpt lat="36.912265304633955" lon="15.02667224513023"><ele>294.0</ele><time>2026-03-28T14:20:20Z</time></trkpt><trkpt lat="36.91238280647705" lon="15.026671815538606"><ele>298.5</ele><time>2026-03-28T14:20:21Z</time></trkpt><trkpt lat="36.91250470495056" lon="15.026637623747748"><ele>303.0</ele><time>2026-03-28T14:20:22Z</time></trkpt><trkpt lat="36.912646332423755" lon="15.026578415550645"><ele>307.5</ele><time>2026-03-28T14:20:23Z</time></trkpt><trkpt lat="36.912785808913824" lon="15.026505693993974"><ele>312.0</ele><time>2026-03-28T14:20:24Z</time></trkpt><trkpt lat="36.91292470475706" lon="15.026435726863841"><ele>312.0</ele><time>2026-03-28T14:20:25Z</time></trkpt><trkpt lat="36.9130557874316" lon="15.026378722379942"><ele>312.0</ele><time>2026-03-28T14:20:26Z</time></trkpt><trkpt lat="36.91320463878188" lon="15.026313226472997"><ele>312.0</ele><time>2026-03-28T14:20:27Z</time></trkpt><trkpt lat="36.9133548681358" lon="15.02625102181698"><ele>310.8</ele><time>2026-03-28T14:20:28Z</time></trkpt><trkpt lat="36.913473349635844" lon="15.026182330241546"><ele>309.6</ele><time>2026-03-28T14:20:29Z</time></trkpt><trkpt lat="36.91357459845851" lon="15.02612734639811"><ele>308.40000000000003</ele><time>2026-03-28T14:20:30Z</time></trkpt><trkpt lat="36.91366845161113" lon="15.026095017303044"><ele>307.2</ele><time>2026-03-28T14:20:31Z</time></trkpt><trkpt lat="36.913772527515896" lon="15.026059694633489"><ele>306.0</ele><time>2026-03-28T14:20:32Z</time></trkpt><trkpt lat="36.91387527740763" lon="15.026027937467472"><ele>306.0</ele><time>2026-03-28T14:20:33Z</time></trkpt><trkpt lat="36.91396739790703" lon="15.026004565437262"><ele>306.0</ele><time>2026-03-28T14:20:34Z</time></trkpt><trkpt lat="36.914065689994835" lon="15.025987255900693"><ele>306.0</ele><time>2026-03-28T14:20:35Z</time></trkpt><trkpt lat="36.91418326797206" lon="15.025969249940937"><ele>306.0</ele><time>2026-03-28T14:20:36Z</time></trkpt><trkpt lat="36.91430849830309" lon="15.025961905087694"><ele>306.0</ele><time>2026-03-28T14:20:37Z</time></trkpt><trkpt lat="36.91441716537651" lon="15.025951751639449"><ele>305.0</ele><time>2026-03-28T14:20:38Z</time></trkpt><trkpt lat="36.91451273677555" lon="15.025941184693998"><ele>304.0</ele><time>2026-03-28T14:20:39Z</time></trkpt><trkpt lat="36.9146141933748" lon="15.025925693956376"><ele>303.0</ele><time>2026-03-28T14:20:40Z</time></trkpt><trkpt lat="36.91472658712671" lon="15.025882142096775"><ele>302.0</ele><time>2026-03-28T14:20:41Z</time></trkpt><trkpt lat="36.91483925597937" lon="15.025852963473707"><ele>301.0</ele><time>2026-03-28T14:20:42Z</time></trkpt><trkpt lat="36.91497404120324" lon="15.025832436621346"><ele>305.5</ele><time>2026-03-28T14:20:43Z</time></trkpt><trkpt lat="36.9151167134486" lon="15.025794736899812"><ele>310.0</ele><time>2026-03-28T14:20:44Z</time></trkpt><trkpt lat="36.915251683771274" lon="15.025768878662097"><ele>314.5</ele><time>2026-03-28T14:20:45Z</time></trkpt><trkpt lat="36.91537499043387" lon="15.025752268451308"><ele>319.0</ele><time>2026-03-28T14:20:46Z</time></trkpt><trkpt lat="36.91551019884478" lon="15.025737469785227"><ele>319.0</ele><time>2026-03-28T14:20:47Z</time></trkpt><trkpt lat="36.91563640669247" lon="15.025714330371333"><ele>319.0</ele><time>2026-03-28T14:20:48Z</time></trkpt><trkpt lat="36.915756460872764" lon="15.025697574894927"><ele>319.0</ele><time>2026-03-28T14:20:49Z</time></trkpt><trkpt lat="36.9158594565052" lon="15.025694647532275"><ele>319.0</ele><time>2026-03-28T14:20:50Z</time></trkpt><trkpt lat="36.91595252391763" lon="15.025693779615075"><ele>319.0</ele><time>2026-03-28T14:20:51Z</time></trkpt><trkpt lat="36.916036288684495" lon="15.025695653747727"><ele>319.3333333333333</ele><time>2026-03-28T14:20:52Z</time></trkpt><trkpt lat="36.91611397352507" lon="15.025718494826283"><ele>319.66666666666663</ele><time>2026-03-28T14:20:53Z</time></trkpt><trkpt lat="36.91619435090881" lon="15.025744871035759"><ele>320.0</ele><time>2026-03-28T14:20:54Z</time></trkpt><trkpt lat="36.91626838173787" lon="15.025753561290879"><ele>320.3333333333333</ele><time>2026-03-28T14:20:55Z</time></trkpt><trkpt lat="36.916346623808735" lon="15.02578807715818"><ele>320.6666666666667</ele><time>2026-03-28T14:20:56Z</time></trkpt><trkpt lat="36.916459622785055" lon="15.025806934888376"><ele>321.0</ele><time>2026-03-28T14:20:57Z</time></trkpt><trkpt lat="36.916563356876395" lon="15.025816390919916"><ele>318.4285714285714</ele><time>2026-03-28T14:20:58Z</time></trkpt><trkpt lat="36.91663720618992" lon="15.025828524142561"><ele>315.85714285714283</ele><time>2026-03-28T14:20:59Z</time></trkpt><trkpt lat="36.91670737367185" lon="15.025847191682491"><ele>313.2857142857143</ele><time>2026-03-28T14:21:00Z</time></trkpt><trkpt lat="36.916771333511484" lon="15.025870962844639"><ele>310.71428571428567</ele><time>2026-03-28T14:21:01Z</time></trkpt><trkpt lat="36.916837366726426" lon="15.0258863856888"><ele>308.1428571428571</ele><time>2026-03-28T14:21:02Z</time></trkpt><trkpt lat="36.91690694784481" lon="15.02589611089352"><ele>305.57142857142856</ele><time>2026-03-28T14:21:03Z</time></trkpt><trkpt lat="36.91697670622226" lon="15.025903492893988"><ele>303.0</ele><time>2026-03-28T14:21:04Z</time></trkpt><trkpt lat="36.91704571257639" lon="15.025887495954827"><ele>303.0</ele><time>2026-03-28T14:21:05Z</time></trkpt><trkpt lat="36.91711019091615" lon="15.025885694904455"><ele>303.0</ele><time>2026-03-28T14:21:06Z</time></trkpt><trkpt lat="36.91721682363259" lon="15.025908061027048"><ele>303.0</ele><time>2026-03-28T14:21:08Z</time></trkpt><trkpt lat="36.91732001277516" lon="15.025918713736942"><ele>303.0</ele><time>2026-03-28T14:21:10Z</time></trkpt><trkpt lat="36.9173901929363" lon="15.025961459201945"><ele>303.0</ele><time>2026-03-28T14:21:12Z</time></trkpt><trkpt lat="36.91747393486543" lon="15.02598980202896"><ele>303.0</ele><time>2026-03-28T14:21:14Z</time></trkpt><trkpt lat="36.91755504328647" lon="15.026029285211187"><ele>302.6</ele><time>2026-03-28T14:21:16Z</time></trkpt><trkpt lat="36.91763336785003" lon="15.026039805239312"><ele>302.20000000000005</ele><time>2026-03-28T14:21:18Z</time></trkpt><trkpt lat="36.917742379852896" lon="15.02605790287495"><ele>301.8</ele><time>2026-03-28T14:21:20Z</time></trkpt><trkpt lat="36.91784422295546" lon="15.026054749689267"><ele>301.40000000000003</ele><time>2026-03-28T14:21:22Z</time></trkpt><trkpt lat="36.917934238587826" lon="15.026112626357325"><ele>301.0</ele><time>2026-03-28T14:21:24Z</time></trkpt><trkpt lat="36.91802858031778" lon="15.026154601337256"><ele>301.0</ele><time>2026-03-28T14:21:26Z</time></trkpt><trkpt lat="36.91812530669355" lon="15.026173998767076"><ele>301.0</ele><time>2026-03-28T14:21:28Z</time></trkpt><trkpt lat="36.918233216170826" lon="15.026201944964237"><ele>301.0</ele><time>2026-03-28T14:21:30Z</time></trkpt><trkpt lat="36.918351932995236" lon="15.026221058068778"><ele>301.0</ele><time>2026-03-28T14:21:32Z</time></trkpt><trkpt lat="36.91848470119688" lon="15.026215500891546"><ele>300.5</ele><time>2026-03-28T14:21:34Z</time></trkpt><trkpt lat="36.91857735117619" lon="15.026228404508425"><ele>300.0</ele><time>2026-03-28T14:21:35Z</time></trkpt><trkpt lat="36.91866106079525" lon="15.02622069404288"><ele>299.5</ele><time>2026-03-28T14:21:36Z</time></trkpt><trkpt lat="36.918736285359984" lon="15.026221705967886"><ele>299.0</ele><time>2026-03-28T14:21:37Z</time></trkpt><trkpt lat="36.91882338022071" lon="15.026226086479403"><ele>298.5</ele><time>2026-03-28T14:21:38Z</time></trkpt><trkpt lat="36.91890573416814" lon="15.026214847254735"><ele>298.0</ele><time>2026-03-28T14:21:39Z</time></trkpt><trkpt lat="36.91902514264589" lon="15.026220714272629"><ele>298.0</ele><time>2026-03-28T14:21:41Z</time></trkpt><trkpt lat="36.9191443007858" lon="15.026182609268856"><ele>298.0</ele><time>2026-03-28T14:21:43Z</time></trkpt><trkpt lat="36.91923602694465" lon="15.02615871698651"><ele>298.0</ele><time>2026-03-28T14:21:44Z</time></trkpt><trkpt lat="36.91932935830518" lon="15.026133807603285"><ele>298.0</ele><time>2026-03-28T14:21:45Z</time></trkpt><trkpt lat="36.91941369432203" lon="15.026112795517495"><ele>298.0</ele><time>2026-03-28T14:21:46Z</time></trkpt><trkpt lat="36.91948885113654" lon="15.026096468625601"><ele>297.6</ele><time>2026-03-28T14:21:47Z</time></trkpt><trkpt lat="36.91957483652718" lon="15.026078226623541"><ele>297.20000000000005</ele><time>2026-03-28T14:21:48Z</time></trkpt><trkpt lat="36.91966223746458" lon="15.026066723015816"><ele>296.8</ele><time>2026-03-28T14:21:49Z</time></trkpt><trkpt lat="36.919748828526835" lon="15.026059854927245"><ele>296.40000000000003</ele><time>2026-03-28T14:21:50Z</time></trkpt><trkpt lat="36.9198439944914" lon="15.026060579948123"><ele>296.0</ele><time>2026-03-28T14:21:51Z</time></trkpt><trkpt lat="36.91995554958722" lon="15.02607053993136"><ele>294.6</ele><time>2026-03-28T14:21:52Z</time></trkpt><trkpt lat="36.920068168070934" lon="15.026080152096704"><ele>293.20000000000005</ele><time>2026-03-28T14:21:53Z</time></trkpt><trkpt lat="36.92015073847902" lon="15.026077306931471"><ele>291.79999999999995</ele><time>2026-03-28T14:21:54Z</time></trkpt><trkpt lat="36.920246420545226" lon="15.026082149849154"><ele>290.4</ele><time>2026-03-28T14:21:56Z</time></trkpt><trkpt lat="36.920350880184664" lon="15.02607409586101"><ele>289.0</ele><time>2026-03-28T14:22:30Z</time></trkpt><trkpt lat="36.920417347981484" lon="15.026046056512508"><ele>289.0</ele><time>2026-03-28T14:22:31Z</time></trkpt><trkpt lat="36.92048288023902" lon="15.026016132538498"><ele>289.0</ele><time>2026-03-28T14:22:32Z</time></trkpt><trkpt lat="36.92058342803044" lon="15.025989068428844"><ele>289.0</ele><time>2026-03-28T14:22:34Z</time></trkpt><trkpt lat="36.92064861786792" lon="15.025982796915569"><ele>289.0</ele><time>2026-03-28T14:22:35Z</time></trkpt><trkpt lat="36.92071916618916" lon="15.025970173372968"><ele>289.0</ele><time>2026-03-28T14:22:36Z</time></trkpt><trkpt lat="36.920832238598635" lon="15.025955901498529"><ele>289.0</ele><time>2026-03-28T14:22:38Z</time></trkpt><trkpt lat="36.92093595215897" lon="15.025914454084615"><ele>289.0</ele><time>2026-03-28T14:22:40Z</time></trkpt><trkpt lat="36.921016159262585" lon="15.025881662070612"><ele>289.0</ele><time>2026-03-28T14:22:42Z</time></trkpt><trkpt lat="36.92110362683873" lon="15.025838451001817"><ele>289.0</ele><time>2026-03-28T14:22:44Z</time></trkpt><trkpt lat="36.921185391934316" lon="15.025786740866561"><ele>289.0</ele><time>2026-03-28T14:22:46Z</time></trkpt><trkpt lat="36.921256055562" lon="15.025714855006235"><ele>289.0</ele><time>2026-03-28T14:22:48Z</time></trkpt><trkpt lat="36.921319526707514" lon="15.025628265129626"><ele>289.0</ele><time>2026-03-28T14:22:50Z</time></trkpt><trkpt lat="36.92140194406701" lon="15.025575703818715"><ele>289.0</ele><time>2026-03-28T14:22:52Z</time></trkpt><trkpt lat="36.921484988262634" lon="15.025513894633784"><ele>289.0</ele><time>2026-03-28T14:22:54Z</time></trkpt><trkpt lat="36.9215660488534" lon="15.025431349660485"><ele>289.0</ele><time>2026-03-28T14:22:56Z</time></trkpt><trkpt lat="36.921647724299554" lon="15.025356483251334"><ele>289.0</ele><time>2026-03-28T14:22:58Z</time></trkpt><trkpt lat="36.921730989691355" lon="15.025267059775183"><ele>290.0</ele><time>2026-03-28T14:23:00Z</time></trkpt><trkpt lat="36.92180792159056" lon="15.02517103071812"><ele>291.0</ele><time>2026-03-28T14:23:02Z</time></trkpt><trkpt lat="36.92187524769419" lon="15.02506966906999"><ele>292.0</ele><time>2026-03-28T14:23:04Z</time></trkpt><trkpt lat="36.921952415113694" lon="15.024987594825244"><ele>293.0</ele><time>2026-03-28T14:23:06Z</time></trkpt><trkpt lat="36.92203568162248" lon="15.024940172835755"><ele>294.0</ele><time>2026-03-28T14:23:08Z</time></trkpt><trkpt lat="36.92216695968712" lon="15.024895886422424"><ele>294.0</ele><time>2026-03-28T14:23:10Z</time></trkpt><trkpt lat="36.92224211121657" lon="15.02485951575299"><ele>294.0</ele><time>2026-03-28T14:23:11Z</time></trkpt><trkpt lat="36.9223040468486" lon="15.024840807627488"><ele>294.0</ele><time>2026-03-28T14:23:12Z</time></trkpt><trkpt lat="36.92243149546584" lon="15.024794240242308"><ele>294.0</ele><time>2026-03-28T14:23:14Z</time></trkpt><trkpt lat="36.922530446566604" lon="15.024748401100936"><ele>294.0</ele><time>2026-03-28T14:23:15Z</time></trkpt><trkpt lat="36.9226085934582" lon="15.024725792667398"><ele>291.1666666666667</ele><time>2026-03-28T14:23:16Z</time></trkpt><trkpt lat="36.92271617994388" lon="15.024734946423381"><ele>288.3333333333333</ele><time>2026-03-28T14:23:18Z</time></trkpt><trkpt lat="36.92279763213888" lon="15.02475081410424"><ele>285.5</ele><time>2026-03-28T14:23:20Z</time></trkpt><trkpt lat="36.9228722024006" lon="15.024738602942046"><ele>282.66666666666663</ele><time>2026-03-28T14:23:22Z</time></trkpt><trkpt lat="36.922943324597476" lon="15.024739857214191"><ele>279.8333333333333</ele><time>2026-03-28T14:23:25Z</time></trkpt><trkpt lat="36.92301027346826" lon="15.024754925264537"><ele>277.0</ele><time>2026-03-28T14:23:29Z</time></trkpt><trkpt lat="36.92307843818381" lon="15.024776064265044"><ele>277.0</ele><time>2026-03-28T14:23:32Z</time></trkpt><trkpt lat="36.92315133339261" lon="15.024744735136807"><ele>277.0</ele><time>2026-03-28T14:23:35Z</time></trkpt><trkpt lat="36.923193777332436" lon="15.024658508350253"><ele>277.0</ele><time>2026-03-28T14:23:37Z</time></trkpt><trkpt lat="36.923263573760764" lon="15.024542290736914"><ele>277.0</ele><time>2026-03-28T14:23:39Z</time></trkpt><trkpt lat="36.92332629554498" lon="15.024521062401547"><ele>277.0</ele><time>2026-03-28T14:23:41Z</time></trkpt><trkpt lat="36.923394436728366" lon="15.024506178447421"><ele>277.0</ele><time>2026-03-28T14:23:42Z</time></trkpt><trkpt lat="36.92348577757172" lon="15.024536219661769"><ele>273.2</ele><time>2026-03-28T14:23:44Z</time></trkpt><trkpt lat="36.92358731792742" lon="15.024503732246764"><ele>269.4</ele><time>2026-03-28T14:23:46Z</time></trkpt><trkpt lat="36.923720346725396" lon="15.024441952371408"><ele>265.6</ele><time>2026-03-28T14:23:48Z</time></trkpt><trkpt lat="36.92379729822754" lon="15.024412189462854"><ele>261.8</ele><time>2026-03-28T14:23:49Z</time></trkpt><trkpt lat="36.923857852664284" lon="15.02438393235148"><ele>258.0</ele><time>2026-03-28T14:23:50Z</time></trkpt><trkpt lat="36.92396945959808" lon="15.024313231515574"><ele>258.0</ele><time>2026-03-28T14:23:52Z</time></trkpt><trkpt lat="36.924062730584424" lon="15.024271352002634"><ele>258.0</ele><time>2026-03-28T14:23:54Z</time></trkpt><trkpt lat="36.924169802408386" lon="15.02428000844075"><ele>258.0</ele><time>2026-03-28T14:23:56Z</time></trkpt><trkpt lat="36.924268445966625" lon="15.024302576975158"><ele>258.0</ele><time>2026-03-28T14:23:58Z</time></trkpt><trkpt lat="36.924362301895506" lon="15.024288760841808"><ele>258.0</ele><time>2026-03-28T14:24:00Z</time></trkpt><trkpt lat="36.92447235575572" lon="15.024304874630674"><ele>255.2</ele><time>2026-03-28T14:24:02Z</time></trkpt><trkpt lat="36.92458531950364" lon="15.02431957999673"><ele>252.4</ele><time>2026-03-28T14:24:04Z</time></trkpt><trkpt lat="36.92469365686529" lon="15.024342494673839"><ele>249.59999999999997</ele><time>2026-03-28T14:24:06Z</time></trkpt><trkpt lat="36.92478988248411" lon="15.024355702438607"><ele>246.79999999999998</ele><time>2026-03-28T14:24:08Z</time></trkpt><trkpt lat="36.92488122449444" lon="15.024353899764343"><ele>244.0</ele><time>2026-03-28T14:24:10Z</time></trkpt><trkpt lat="36.92497405739406" lon="15.024349348386588"><ele>241.99999999999997</ele><time>2026-03-28T14:24:12Z</time></trkpt><trkpt lat="36.9250641785824" lon="15.024351635784997"><ele>240.0</ele><time>2026-03-28T14:24:14Z</time></trkpt><trkpt lat="36.925165223270156" lon="15.02436109584502"><ele>238.0</ele><time>2026-03-28T14:24:16Z</time></trkpt><trkpt lat="36.92525617860709" lon="15.024377451984"><ele>236.0</ele><time>2026-03-28T14:24:18Z</time></trkpt><trkpt lat="36.92532414656781" lon="15.024395939261668"><ele>233.99999999999997</ele><time>2026-03-28T14:24:20Z</time></trkpt><trkpt lat="36.92541249504705" lon="15.024411937279412"><ele>232.0</ele><time>2026-03-28T14:24:23Z</time></trkpt><trkpt lat="36.92552120730803" lon="15.02440189323493"><ele>232.0</ele><time>2026-03-28T14:24:25Z</time></trkpt><trkpt lat="36.92561934104315" lon="15.02436025392258"><ele>232.0</ele><time>2026-03-28T14:24:27Z</time></trkpt><trkpt lat="36.92574454395787" lon="15.024341258610415"><ele>232.0</ele><time>2026-03-28T14:24:29Z</time></trkpt><trkpt lat="36.92583935326411" lon="15.02435588168583"><ele>232.0</ele><time>2026-03-28T14:24:31Z</time></trkpt><trkpt lat="36.92600053651462" lon="15.024379127905348"><ele>231.99999999999997</ele><time>2026-03-28T14:24:33Z</time></trkpt><trkpt lat="36.92605867691798" lon="15.02434275540261"><ele>232.0</ele><time>2026-03-28T14:24:34Z</time></trkpt><trkpt lat="36.92598610734974" lon="15.024376288173297"><ele>232.0</ele><time>2026-03-28T14:24:54Z</time></trkpt><trkpt lat="36.92591370474133" lon="15.024429845244986"><ele>232.0</ele><time>2026-03-28T14:24:55Z</time></trkpt><trkpt lat="36.92584497173716" lon="15.024492520451956"><ele>231.99999999999997</ele><time>2026-03-28T14:24:56Z</time></trkpt><trkpt lat="36.9257756655913" lon="15.024574835555615"><ele>232.0</ele><time>2026-03-28T14:24:57Z</time></trkpt><trkpt lat="36.92569233737854" lon="15.024637885342498"><ele>232.0</ele><time>2026-03-28T14:24:58Z</time></trkpt><trkpt lat="36.925607528850186" lon="15.024707290035993"><ele>232.0</ele><time>2026-03-28T14:24:59Z</time></trkpt><trkpt lat="36.925511364670676" lon="15.02478342122515"><ele>232.0</ele><time>2026-03-28T14:25:00Z</time></trkpt><trkpt lat="36.92540788193886" lon="15.02486426528539"><ele>232.0</ele><time>2026-03-28T14:25:01Z</time></trkpt><trkpt lat="36.92530114294349" lon="15.024968613884557"><ele>230.39999999999998</ele><time>2026-03-28T14:25:02Z</time></trkpt><trkpt lat="36.92517953943504" lon="15.025044175952038"><ele>228.79999999999998</ele><time>2026-03-28T14:25:03Z</time></trkpt><trkpt lat="36.92507664567018" lon="15.025115046611488"><ele>227.2</ele><time>2026-03-28T14:25:04Z</time></trkpt><trkpt lat="36.92498819378102" lon="15.025177908418652"><ele>225.6</ele><time>2026-03-28T14:25:05Z</time></trkpt><trkpt lat="36.924899438463335" lon="15.025199970996088"><ele>224.0</ele><time>2026-03-28T14:25:06Z</time></trkpt><trkpt lat="36.92482051903309" lon="15.025220403792597"><ele>224.0</ele><time>2026-03-28T14:25:07Z</time></trkpt><trkpt lat="36.924722822693944" lon="15.025240862969678"><ele>223.99999999999997</ele><time>2026-03-28T14:25:08Z</time></trkpt><trkpt lat="36.924624352130756" lon="15.025252533588821"><ele>223.99999999999997</ele><time>2026-03-28T14:25:09Z</time></trkpt><trkpt lat="36.92452042416574" lon="15.025294585735692"><ele>224.0</ele><time>2026-03-28T14:25:10Z</time></trkpt><trkpt lat="36.92442183745596" lon="15.025337895739263"><ele>224.0</ele><time>2026-03-28T14:25:11Z</time></trkpt><trkpt lat="36.92432216325885" lon="15.025369066605993"><ele>225.2</ele><time>2026-03-28T14:25:12Z</time></trkpt><trkpt lat="36.9242247578489" lon="15.025390774531274"><ele>226.39999999999998</ele><time>2026-03-28T14:25:13Z</time></trkpt><trkpt lat="36.92413847704354" lon="15.025411885347927"><ele>227.6</ele><time>2026-03-28T14:25:14Z</time></trkpt><trkpt lat="36.924032685476256" lon="15.025411684068937"><ele>228.8</ele><time>2026-03-28T14:25:15Z</time></trkpt><trkpt lat="36.92391953158931" lon="15.025399447741206"><ele>230.0</ele><time>2026-03-28T14:25:16Z</time></trkpt><trkpt lat="36.92382408664694" lon="15.025360769759603"><ele>230.0</ele><time>2026-03-28T14:25:17Z</time></trkpt><trkpt lat="36.92373720698582" lon="15.025339583917342"><ele>230.0</ele><time>2026-03-28T14:25:18Z</time></trkpt><trkpt lat="36.923645246249244" lon="15.02534987716737"><ele>230.0</ele><time>2026-03-28T14:25:19Z</time></trkpt><trkpt lat="36.923561315851536" lon="15.025394699195534"><ele>230.0</ele><time>2026-03-28T14:25:20Z</time></trkpt><trkpt lat="36.923471721765885" lon="15.025484161934747"><ele>230.0</ele><time>2026-03-28T14:25:21Z</time></trkpt><trkpt lat="36.92337051116835" lon="15.025605255973726"><ele>229.2</ele><time>2026-03-28T14:25:22Z</time></trkpt><trkpt lat="36.92328116869872" lon="15.025694144923888"><ele>228.4</ele><time>2026-03-28T14:25:23Z</time></trkpt><trkpt lat="36.92319134539261" lon="15.02572637650084"><ele>227.60000000000002</ele><time>2026-03-28T14:25:24Z</time></trkpt><trkpt lat="36.923101636789305" lon="15.025757018297355"><ele>226.8</ele><time>2026-03-28T14:25:25Z</time></trkpt><trkpt lat="36.9229882608328" lon="15.025800342239053"><ele>226.0</ele><time>2026-03-28T14:25:26Z</time></trkpt><trkpt lat="36.92286729692095" lon="15.025868811871483"><ele>226.0</ele><time>2026-03-28T14:25:27Z</time></trkpt><trkpt lat="36.92277184627435" lon="15.025912175992556"><ele>226.0</ele><time>2026-03-28T14:25:28Z</time></trkpt><trkpt lat="36.92268077407754" lon="15.025979055093824"><ele>226.0</ele><time>2026-03-28T14:25:29Z</time></trkpt><trkpt lat="36.922590327998726" lon="15.026079521216088"><ele>226.0</ele><time>2026-03-28T14:25:30Z</time></trkpt><trkpt lat="36.92249051303514" lon="15.026199019654666"><ele>229.25</ele><time>2026-03-28T14:25:31Z</time></trkpt><trkpt lat="36.922388898804" lon="15.026330265323626"><ele>232.5</ele><time>2026-03-28T14:25:32Z</time></trkpt><trkpt lat="36.92230087699028" lon="15.026458439437539"><ele>235.75</ele><time>2026-03-28T14:25:33Z</time></trkpt><trkpt lat="36.92220505038644" lon="15.026588800564966"><ele>239.0</ele><time>2026-03-28T14:25:34Z</time></trkpt><trkpt lat="36.92208539938631" lon="15.026702435437217"><ele>239.0</ele><time>2026-03-28T14:25:35Z</time></trkpt><trkpt lat="36.92198072168257" lon="15.02682761583336"><ele>239.0</ele><time>2026-03-28T14:25:36Z</time></trkpt><trkpt lat="36.92190496011705" lon="15.026977150610552"><ele>239.0</ele><time>2026-03-28T14:25:37Z</time></trkpt><trkpt lat="36.92182117925962" lon="15.027098291070779"><ele>239.0</ele><time>2026-03-28T14:25:38Z</time></trkpt><trkpt lat="36.9217196633618" lon="15.027179872376179"><ele>237.75</ele><time>2026-03-28T14:25:39Z</time></trkpt><trkpt lat="36.92160827013471" lon="15.027263780323027"><ele>236.5</ele><time>2026-03-28T14:25:40Z</time></trkpt><trkpt lat="36.921488194642684" lon="15.027378191898368"><ele>235.25</ele><time>2026-03-28T14:25:41Z</time></trkpt><trkpt lat="36.92134911765669" lon="15.02747969192991"><ele>234.0</ele><time>2026-03-28T14:25:42Z</time></trkpt><trkpt lat="36.92122081245882" lon="15.027578594604408"><ele>232.25</ele><time>2026-03-28T14:25:43Z</time></trkpt><trkpt lat="36.921085103492736" lon="15.027638753881046"><ele>230.5</ele><time>2026-03-28T14:25:44Z</time></trkpt><trkpt lat="36.92096087004271" lon="15.02770258429591"><ele>228.75</ele><time>2026-03-28T14:25:45Z</time></trkpt><trkpt lat="36.920836147277214" lon="15.027783114312172"><ele>227.0</ele><time>2026-03-28T14:25:46Z</time></trkpt><trkpt lat="36.920715475070814" lon="15.027848433672885"><ele>226.25</ele><time>2026-03-28T14:25:47Z</time></trkpt><trkpt lat="36.92060571840439" lon="15.027909670287926"><ele>225.5</ele><time>2026-03-28T14:25:48Z</time></trkpt><trkpt lat="36.9204898550787" lon="15.027936293068038"><ele>224.75</ele><time>2026-03-28T14:25:49Z</time></trkpt><trkpt lat="36.92037825028355" lon="15.027969310265147"><ele>224.0</ele><time>2026-03-28T14:25:50Z</time></trkpt><trkpt lat="36.92025984815592" lon="15.027979137721804"><ele>224.0</ele><time>2026-03-28T14:25:51Z</time></trkpt><trkpt lat="36.92014089352035" lon="15.027964483079916"><ele>224.0</ele><time>2026-03-28T14:25:52Z</time></trkpt><trkpt lat="36.920010462706074" lon="15.027938160799021"><ele>224.0</ele><time>2026-03-28T14:25:53Z</time></trkpt><trkpt lat="36.91987347334182" lon="15.027898681183922"><ele>224.0</ele><time>2026-03-28T14:25:54Z</time></trkpt><trkpt lat="36.919740057566074" lon="15.027842190098232"><ele>224.25</ele><time>2026-03-28T14:25:55Z</time></trkpt><trkpt lat="36.919624387599114" lon="15.027788625812873"><ele>224.5</ele><time>2026-03-28T14:25:56Z</time></trkpt><trkpt lat="36.91950578159845" lon="15.027753850315861"><ele>224.75</ele><time>2026-03-28T14:25:57Z</time></trkpt><trkpt lat="36.91939139585892" lon="15.027777118611638"><ele>225.0</ele><time>2026-03-28T14:25:58Z</time></trkpt><trkpt lat="36.91925916128789" lon="15.02781633746184"><ele>225.33333333333331</ele><time>2026-03-28T14:25:59Z</time></trkpt><trkpt lat="36.91909308104818" lon="15.027860577215145"><ele>225.66666666666666</ele><time>2026-03-28T14:26:00Z</time></trkpt><trkpt lat="36.918898208861165" lon="15.027923751749903"><ele>226.0</ele><time>2026-03-28T14:26:01Z</time></trkpt><trkpt lat="36.91869189697719" lon="15.028000624126834"><ele>226.0</ele><time>2026-03-28T14:26:02Z</time></trkpt><trkpt lat="36.918518758258266" lon="15.028070050983768"><ele>226.0</ele><time>2026-03-28T14:26:03Z</time></trkpt><trkpt lat="36.918378542042255" lon="15.028154305819143"><ele>226.0</ele><time>2026-03-28T14:26:04Z</time></trkpt><trkpt lat="36.9182545206062" lon="15.028174845846243"><ele>225.0</ele><time>2026-03-28T14:26:05Z</time></trkpt><trkpt lat="36.918135990104176" lon="15.028196019900737"><ele>224.0</ele><time>2026-03-28T14:26:06Z</time></trkpt><trkpt lat="36.918006377091324" lon="15.028192119122254"><ele>223.0</ele><time>2026-03-28T14:26:07Z</time></trkpt><trkpt lat="36.91788226013804" lon="15.028207809552134"><ele>222.0</ele><time>2026-03-28T14:26:08Z</time></trkpt><trkpt lat="36.91778746268492" lon="15.028269068700892"><ele>214.33333333333331</ele><time>2026-03-28T14:26:09Z</time></trkpt><trkpt lat="36.91769197895104" lon="15.028372074986494"><ele>206.66666666666666</ele><time>2026-03-28T14:26:10Z</time></trkpt><trkpt lat="36.91757604252196" lon="15.028516995220782"><ele>199.0</ele><time>2026-03-28T14:26:11Z</time></trkpt><trkpt lat="36.91744459438377" lon="15.02863032300361"><ele>199.0</ele><time>2026-03-28T14:26:12Z</time></trkpt><trkpt lat="36.91732829428032" lon="15.028733246144666"><ele>199.0</ele><time>2026-03-28T14:26:13Z</time></trkpt><trkpt lat="36.91721048829949" lon="15.028811186333355"><ele>199.0</ele><time>2026-03-28T14:26:14Z</time></trkpt><trkpt lat="36.917079470216926" lon="15.028889900739468"><ele>199.0</ele><time>2026-03-28T14:26:15Z</time></trkpt><trkpt lat="36.916944744948374" lon="15.028992051106787"><ele>199.0</ele><time>2026-03-28T14:26:16Z</time></trkpt><trkpt lat="36.91682388274113" lon="15.02906952652874"><ele>199.0</ele><time>2026-03-28T14:26:17Z</time></trkpt><trkpt lat="36.916711545054554" lon="15.029119785997048"><ele>199.0</ele><time>2026-03-28T14:26:18Z</time></trkpt><trkpt lat="36.91660580144288" lon="15.029173929244164"><ele>199.0</ele><time>2026-03-28T14:26:19Z</time></trkpt><trkpt lat="36.91649328063971" lon="15.029219696022372"><ele>196.2</ele><time>2026-03-28T14:26:20Z</time></trkpt><trkpt lat="36.916381572101734" lon="15.02925667983803"><ele>193.39999999999998</ele><time>2026-03-28T14:26:21Z</time></trkpt><trkpt lat="36.916277362918386" lon="15.029289396606835"><ele>190.6</ele><time>2026-03-28T14:26:22Z</time></trkpt><trkpt lat="36.916179242552325" lon="15.029321522838236"><ele>187.8</ele><time>2026-03-28T14:26:23Z</time></trkpt><trkpt lat="36.91607758124986" lon="15.029369576807445"><ele>185.0</ele><time>2026-03-28T14:26:24Z</time></trkpt><trkpt lat="36.91598679617184" lon="15.029426795021363"><ele>185.0</ele><time>2026-03-28T14:26:25Z</time></trkpt><trkpt lat="36.91590783625505" lon="15.029487841081949"><ele>185.0</ele><time>2026-03-28T14:26:26Z</time></trkpt><trkpt lat="36.915822393603534" lon="15.029557891271702"><ele>185.0</ele><time>2026-03-28T14:26:27Z</time></trkpt><trkpt lat="36.91574017871327" lon="15.02964107472043"><ele>185.0</ele><time>2026-03-28T14:26:28Z</time></trkpt><trkpt lat="36.91566369177517" lon="15.029730953837685"><ele>185.0</ele><time>2026-03-28T14:26:29Z</time></trkpt><trkpt lat="36.91559267953276" lon="15.029817193347496"><ele>185.0</ele><time>2026-03-28T14:26:30Z</time></trkpt><trkpt lat="36.915524060261134" lon="15.029901206239508"><ele>185.0</ele><time>2026-03-28T14:26:31Z</time></trkpt><trkpt lat="36.91546012184269" lon="15.029981036205887"><ele>185.0</ele><time>2026-03-28T14:26:32Z</time></trkpt><trkpt lat="36.915402330542186" lon="15.030061289266447"><ele>185.0</ele><time>2026-03-28T14:26:33Z</time></trkpt><trkpt lat="36.915341008829934" lon="15.030151416286277"><ele>185.0</ele><time>2026-03-28T14:26:34Z</time></trkpt><trkpt lat="36.915268229796325" lon="15.030265797753529"><ele>182.5</ele><time>2026-03-28T14:26:35Z</time></trkpt><trkpt lat="36.91519046650047" lon="15.030394062717301"><ele>180.0</ele><time>2026-03-28T14:26:36Z</time></trkpt><trkpt lat="36.91511847629142" lon="15.030513246497488"><ele>177.5</ele><time>2026-03-28T14:26:37Z</time></trkpt><trkpt lat="36.91504728155275" lon="15.030626246584923"><ele>175.0</ele><time>2026-03-28T14:26:38Z</time></trkpt><trkpt lat="36.914985792770636" lon="15.030750742002452"><ele>172.0</ele><time>2026-03-28T14:26:39Z</time></trkpt><trkpt lat="36.91491002383997" lon="15.030854766344484"><ele>169.0</ele><time>2026-03-28T14:26:40Z</time></trkpt><trkpt lat="36.914812041481156" lon="15.030928128591135"><ele>166.0</ele><time>2026-03-28T14:26:41Z</time></trkpt><trkpt lat="36.91471132547574" lon="15.031010083396895"><ele>163.0</ele><time>2026-03-28T14:26:42Z</time></trkpt><trkpt lat="36.91461732540996" lon="15.031088455430254"><ele>163.0</ele><time>2026-03-28T14:26:43Z</time></trkpt><trkpt lat="36.9145318807958" lon="15.03116163965782"><ele>163.0</ele><time>2026-03-28T14:26:44Z</time></trkpt><trkpt lat="36.91446084717887" lon="15.031233711115577"><ele>163.0</ele><time>2026-03-28T14:26:45Z</time></trkpt><trkpt lat="36.91443023895927" lon="15.031318068383165"><ele>163.0</ele><time>2026-03-28T14:26:46Z</time></trkpt><trkpt lat="36.91437470933355" lon="15.031454606299892"><ele>163.0</ele><time>2026-03-28T14:26:48Z</time></trkpt><trkpt lat="36.91437806048893" lon="15.031539164737607"><ele>163.0</ele><time>2026-03-28T14:26:49Z</time></trkpt><trkpt lat="36.91440260307078" lon="15.031676668079552"><ele>163.0</ele><time>2026-03-28T14:26:51Z</time></trkpt><trkpt lat="36.91442220776204" lon="15.031807235318684"><ele>163.0</ele><time>2026-03-28T14:26:53Z</time></trkpt><trkpt lat="36.91445446716432" lon="15.031927008367322"><ele>163.0</ele><time>2026-03-28T14:26:54Z</time></trkpt><trkpt lat="36.91446920507672" lon="15.032060327198158"><ele>163.0</ele><time>2026-03-28T14:26:55Z</time></trkpt><trkpt lat="36.91448416193959" lon="15.03218608626648"><ele>163.0</ele><time>2026-03-28T14:26:56Z</time></trkpt><trkpt lat="36.914490903066984" lon="15.032291240516242"><ele>163.0</ele><time>2026-03-28T14:26:57Z</time></trkpt><trkpt lat="36.91447430177365" lon="15.032377781908504"><ele>163.0</ele><time>2026-03-28T14:26:58Z</time></trkpt><trkpt lat="36.914430838731334" lon="15.03245632769983"><ele>163.0</ele><time>2026-03-28T14:26:59Z</time></trkpt><trkpt lat="36.91433949401165" lon="15.03249756083032"><ele>163.0</ele><time>2026-03-28T14:27:00Z</time></trkpt><trkpt lat="36.91428027907759" lon="15.032562035454179"><ele>163.0</ele><time>2026-03-28T14:27:01Z</time></trkpt><trkpt lat="36.91423809586915" lon="15.032621857311295"><ele>162.60000000000002</ele><time>2026-03-28T14:27:02Z</time></trkpt><trkpt lat="36.91416804757812" lon="15.032713117925006"><ele>162.20000000000002</ele><time>2026-03-28T14:27:04Z</time></trkpt><trkpt lat="36.914077457711684" lon="15.032813875801791"><ele>161.8</ele><time>2026-03-28T14:27:06Z</time></trkpt><trkpt lat="36.91400358946761" lon="15.032887277743816"><ele>161.4</ele><time>2026-03-28T14:27:08Z</time></trkpt><trkpt lat="36.91392637231199" lon="15.032954444269219"><ele>161.0</ele><time>2026-03-28T14:27:10Z</time></trkpt><trkpt lat="36.913851191090465" lon="15.033020776463724"><ele>161.0</ele><time>2026-03-28T14:27:12Z</time></trkpt><trkpt lat="36.913756221346304" lon="15.033115542639797"><ele>161.0</ele><time>2026-03-28T14:27:14Z</time></trkpt><trkpt lat="36.91369364071624" lon="15.033189760240989"><ele>161.0</ele><time>2026-03-28T14:27:16Z</time></trkpt><trkpt lat="36.91361886010079" lon="15.033318359834862"><ele>161.0</ele><time>2026-03-28T14:27:18Z</time></trkpt><trkpt lat="36.913564865406485" lon="15.03339463583482"><ele>161.0</ele><time>2026-03-28T14:27:19Z</time></trkpt><trkpt lat="36.913488554534744" lon="15.033473361519718"><ele>162.5</ele><time>2026-03-28T14:27:20Z</time></trkpt><trkpt lat="36.913405354497236" lon="15.033582988372503"><ele>164.0</ele><time>2026-03-28T14:27:21Z</time></trkpt><trkpt lat="36.91330504014821" lon="15.033694432991863"><ele>165.5</ele><time>2026-03-28T14:27:22Z</time></trkpt><trkpt lat="36.91318250028747" lon="15.033820125074072"><ele>167.0</ele><time>2026-03-28T14:27:23Z</time></trkpt><trkpt lat="36.91304470975599" lon="15.033967299123873"><ele>167.0</ele><time>2026-03-28T14:27:24Z</time></trkpt><trkpt lat="36.9129099430144" lon="15.03412326223754"><ele>167.0</ele><time>2026-03-28T14:27:25Z</time></trkpt><trkpt lat="36.91279024744828" lon="15.034286389077037"><ele>167.0</ele><time>2026-03-28T14:27:26Z</time></trkpt><trkpt lat="36.91266726703728" lon="15.034461576586526"><ele>166.66666666666666</ele><time>2026-03-28T14:27:27Z</time></trkpt><trkpt lat="36.91255598781672" lon="15.034659833628595"><ele>166.33333333333334</ele><time>2026-03-28T14:27:28Z</time></trkpt><trkpt lat="36.91242833201949" lon="15.034803966631767"><ele>166.0</ele><time>2026-03-28T14:27:29Z</time></trkpt><trkpt lat="36.912324408366594" lon="15.034901928824862"><ele>171.0</ele><time>2026-03-28T14:27:30Z</time></trkpt><trkpt lat="36.91221618190674" lon="15.035004654697152"><ele>176.0</ele><time>2026-03-28T14:27:31Z</time></trkpt><trkpt lat="36.91210634562732" lon="15.035134741147694"><ele>181.0</ele><time>2026-03-28T14:27:32Z</time></trkpt><trkpt lat="36.911953797706204" lon="15.035264210280182"><ele>181.0</ele><time>2026-03-28T14:27:33Z</time></trkpt><trkpt lat="36.91179714149051" lon="15.03541995639712"><ele>181.0</ele><time>2026-03-28T14:27:34Z</time></trkpt><trkpt lat="36.91165884593357" lon="15.035565684464919"><ele>181.0</ele><time>2026-03-28T14:27:35Z</time></trkpt><trkpt lat="36.91154401958575" lon="15.035731651111385"><ele>180.0</ele><time>2026-03-28T14:27:36Z</time></trkpt><trkpt lat="36.91141617744105" lon="15.035880437959197"><ele>179.0</ele><time>2026-03-28T14:27:37Z</time></trkpt><trkpt lat="36.91127969710808" lon="15.036007928294415"><ele>178.0</ele><time>2026-03-28T14:27:38Z</time></trkpt><trkpt lat="36.91115434221087" lon="15.036140442518224"><ele>178.0</ele><time>2026-03-28T14:27:39Z</time></trkpt><trkpt lat="36.91104374521988" lon="15.036253943367859"><ele>178.0</ele><time>2026-03-28T14:27:40Z</time></trkpt><trkpt lat="36.91094731519837" lon="15.036355425525956"><ele>178.0</ele><time>2026-03-28T14:27:41Z</time></trkpt><trkpt lat="36.91086483219346" lon="15.036473319455663"><ele>178.0</ele><time>2026-03-28T14:27:42Z</time></trkpt><trkpt lat="36.91077145504242" lon="15.036578062646583"><ele>176.5</ele><time>2026-03-28T14:27:43Z</time></trkpt><trkpt lat="36.91068247708236" lon="15.036700443003534"><ele>175.0</ele><time>2026-03-28T14:27:44Z</time></trkpt><trkpt lat="36.91061325514099" lon="15.036840029216643"><ele>173.5</ele><time>2026-03-28T14:27:45Z</time></trkpt><trkpt lat="36.910565209432136" lon="15.03698472844424"><ele>172.0</ele><time>2026-03-28T14:27:46Z</time></trkpt><trkpt lat="36.910523143517565" lon="15.037134316289084"><ele>172.0</ele><time>2026-03-28T14:27:47Z</time></trkpt><trkpt lat="36.91046793936577" lon="15.03726467029273"><ele>172.0</ele><time>2026-03-28T14:27:48Z</time></trkpt><trkpt lat="36.91042789438094" lon="15.037396925219412"><ele>172.0</ele><time>2026-03-28T14:27:49Z</time></trkpt><trkpt lat="36.910391520589044" lon="15.037517055411529"><ele>172.0</ele><time>2026-03-28T14:27:50Z</time></trkpt><trkpt lat="36.91035681296484" lon="15.037631682835912"><ele>172.0</ele><time>2026-03-28T14:27:51Z</time></trkpt><trkpt lat="36.91032156963992" lon="15.037748079494655"><ele>172.5</ele><time>2026-03-28T14:27:52Z</time></trkpt><trkpt lat="36.91028595387403" lon="15.037865706190127"><ele>173.0</ele><time>2026-03-28T14:27:53Z</time></trkpt><trkpt lat="36.91025445501087" lon="15.03796973617239"><ele>173.5</ele><time>2026-03-28T14:27:54Z</time></trkpt><trkpt lat="36.91022925674884" lon="15.038054405183859"><ele>174.0</ele><time>2026-03-28T14:27:55Z</time></trkpt><trkpt lat="36.910205793800785" lon="15.038134723348163"><ele>174.5</ele><time>2026-03-28T14:27:56Z</time></trkpt><trkpt lat="36.91018370371424" lon="15.038210341928982"><ele>175.0</ele><time>2026-03-28T14:27:57Z</time></trkpt><trkpt lat="36.91015048107196" lon="15.038324069405908"><ele>173.2</ele><time>2026-03-28T14:27:59Z</time></trkpt><trkpt lat="36.910122734280776" lon="15.038419052003517"><ele>171.4</ele><time>2026-03-28T14:28:01Z</time></trkpt><trkpt lat="36.91010054332104" lon="15.038495015899594"><ele>169.60000000000002</ele><time>2026-03-28T14:28:03Z</time></trkpt><trkpt lat="36.910074959340115" lon="15.038582594777246"><ele>167.8</ele><time>2026-03-28T14:28:07Z</time></trkpt><trkpt lat="36.91024631465291" lon="15.038654310377575"><ele>166.0</ele><time>2026-03-28T14:28:11Z</time></trkpt><trkpt lat="36.91032941998325" lon="15.03866592481902"><ele>166.0</ele><time>2026-03-28T14:28:13Z</time></trkpt><trkpt lat="36.91037218585864" lon="15.038605450482756"><ele>166.0</ele><time>2026-03-28T14:28:39Z</time></trkpt><trkpt lat="36.9103648458355" lon="15.038440792811343"><ele>166.0</ele><time>2026-03-28T14:28:41Z</time></trkpt><trkpt lat="36.910367227786764" lon="15.038325697465435"><ele>166.0</ele><time>2026-03-28T14:28:42Z</time></trkpt><trkpt lat="36.91038008208368" lon="15.038225165801432"><ele>166.0</ele><time>2026-03-28T14:28:43Z</time></trkpt><trkpt lat="36.910413222305685" lon="15.038133753417563"><ele>168.25</ele><time>2026-03-28T14:28:44Z</time></trkpt><trkpt lat="36.91044115762418" lon="15.038000154646639"><ele>170.5</ele><time>2026-03-28T14:28:45Z</time></trkpt><trkpt lat="36.910471010757995" lon="15.037854269109337"><ele>172.75</ele><time>2026-03-28T14:28:46Z</time></trkpt><trkpt lat="36.91050106684512" lon="15.037682457308685"><ele>175.0</ele><time>2026-03-28T14:28:47Z</time></trkpt><trkpt lat="36.91054914836707" lon="15.037532087458414"><ele>174.25</ele><time>2026-03-28T14:28:48Z</time></trkpt><trkpt lat="36.910612802547035" lon="15.037387793091797"><ele>173.5</ele><time>2026-03-28T14:28:49Z</time></trkpt><trkpt lat="36.910691161900075" lon="15.037218069608386"><ele>172.75</ele><time>2026-03-28T14:28:50Z</time></trkpt><trkpt lat="36.910759518679995" lon="15.037072907237679"><ele>172.0</ele><time>2026-03-28T14:28:51Z</time></trkpt><trkpt lat="36.910815563791296" lon="15.036960741996278"><ele>172.0</ele><time>2026-03-28T14:28:52Z</time></trkpt><trkpt lat="36.910875338510145" lon="15.03685036749186"><ele>172.0</ele><time>2026-03-28T14:28:53Z</time></trkpt><trkpt lat="36.910944013341535" lon="15.03673746607012"><ele>172.0</ele><time>2026-03-28T14:28:54Z</time></trkpt><trkpt lat="36.911006628501326" lon="15.036646424089081"><ele>172.0</ele><time>2026-03-28T14:28:55Z</time></trkpt><trkpt lat="36.911053820706364" lon="15.036574972416458"><ele>172.0</ele><time>2026-03-28T14:28:56Z</time></trkpt><trkpt lat="36.911100287390816" lon="15.036514223846224"><ele>173.2</ele><time>2026-03-28T14:28:57Z</time></trkpt><trkpt lat="36.9111686106073" lon="15.036455477188701"><ele>174.39999999999998</ele><time>2026-03-28T14:28:58Z</time></trkpt><trkpt lat="36.911259741758236" lon="15.036396404030716"><ele>175.60000000000002</ele><time>2026-03-28T14:28:59Z</time></trkpt><trkpt lat="36.911370377537224" lon="15.036338372440172"><ele>176.8</ele><time>2026-03-28T14:29:00Z</time></trkpt><trkpt lat="36.91148186754164" lon="15.036272874487942"><ele>178.0</ele><time>2026-03-28T14:29:01Z</time></trkpt><trkpt lat="36.91159387402821" lon="15.036196462693495"><ele>178.0</ele><time>2026-03-28T14:29:02Z</time></trkpt><trkpt lat="36.911704834538" lon="15.03610661605511"><ele>178.0</ele><time>2026-03-28T14:29:03Z</time></trkpt><trkpt lat="36.91181583496019" lon="15.036005337408422"><ele>178.0</ele><time>2026-03-28T14:29:04Z</time></trkpt><trkpt lat="36.91193054848851" lon="15.035899943226303"><ele>178.0</ele><time>2026-03-28T14:29:05Z</time></trkpt><trkpt lat="36.91204172619135" lon="15.035804835862029"><ele>178.60000000000002</ele><time>2026-03-28T14:29:06Z</time></trkpt><trkpt lat="36.91213433933005" lon="15.035743775937524"><ele>179.20000000000002</ele><time>2026-03-28T14:29:07Z</time></trkpt><trkpt lat="36.9122136931888" lon="15.035703790371546"><ele>179.8</ele><time>2026-03-28T14:29:08Z</time></trkpt><trkpt lat="36.91229881546203" lon="15.035678186497734"><ele>180.4</ele><time>2026-03-28T14:29:10Z</time></trkpt><trkpt lat="36.912304682929125" lon="15.035795208241844"><ele>181.0</ele><time>2026-03-28T14:29:13Z</time></trkpt><trkpt lat="36.91219381161905" lon="15.035904879751522"><ele>187.5</ele><time>2026-03-28T14:29:15Z</time></trkpt><trkpt lat="36.91212558656225" lon="15.035975249852891"><ele>194.0</ele><time>2026-03-28T14:29:16Z</time></trkpt><trkpt lat="36.9120433495235" lon="15.036067391057784"><ele>200.5</ele><time>2026-03-28T14:29:17Z</time></trkpt><trkpt lat="36.911963963062334" lon="15.036187816553424"><ele>207.0</ele><time>2026-03-28T14:29:18Z</time></trkpt><trkpt lat="36.91188070358166" lon="15.036338279332885"><ele>207.0</ele><time>2026-03-28T14:29:19Z</time></trkpt><trkpt lat="36.911796444561304" lon="15.036507992318397"><ele>207.0</ele><time>2026-03-28T14:29:20Z</time></trkpt><trkpt lat="36.91172220489327" lon="15.036653600863959"><ele>207.0</ele><time>2026-03-28T14:29:21Z</time></trkpt><trkpt lat="36.911670127363514" lon="15.036782121044146"><ele>207.0</ele><time>2026-03-28T14:29:22Z</time></trkpt><trkpt lat="36.911641098987346" lon="15.036914933784237"><ele>207.2</ele><time>2026-03-28T14:29:23Z</time></trkpt><trkpt lat="36.911634127189494" lon="15.037047236826693"><ele>207.39999999999998</ele><time>2026-03-28T14:29:24Z</time></trkpt><trkpt lat="36.91163702457722" lon="15.037175300717625"><ele>207.60000000000002</ele><time>2026-03-28T14:29:25Z</time></trkpt><trkpt lat="36.9116449579228" lon="15.037286049515934"><ele>207.8</ele><time>2026-03-28T14:29:26Z</time></trkpt><trkpt lat="36.911662504409406" lon="15.037384774454107"><ele>208.0</ele><time>2026-03-28T14:29:27Z</time></trkpt><trkpt lat="36.91170489349622" lon="15.037486502635891"><ele>214.0</ele><time>2026-03-28T14:29:28Z</time></trkpt><trkpt lat="36.91175869903114" lon="15.037566543367117"><ele>220.0</ele><time>2026-03-28T14:29:29Z</time></trkpt><trkpt lat="36.911831101266614" lon="15.037626981130977"><ele>226.0</ele><time>2026-03-28T14:29:30Z</time></trkpt><trkpt lat="36.91192160979427" lon="15.03767820289814"><ele>232.0</ele><time>2026-03-28T14:29:31Z</time></trkpt><trkpt lat="36.912028202598634" lon="15.037717240436084"><ele>238.0</ele><time>2026-03-28T14:29:32Z</time></trkpt><trkpt lat="36.912152198772155" lon="15.037759344197609"><ele>238.0</ele><time>2026-03-28T14:29:33Z</time></trkpt><trkpt lat="36.91229255427026" lon="15.037809147113064"><ele>238.0</ele><time>2026-03-28T14:29:34Z</time></trkpt><trkpt lat="36.91245981849065" lon="15.037877829406217"><ele>238.0</ele><time>2026-03-28T14:29:35Z</time></trkpt><trkpt lat="36.91264469520091" lon="15.037944368436554"><ele>244.0</ele><time>2026-03-28T14:29:36Z</time></trkpt><trkpt lat="36.91282422348191" lon="15.038000878599366"><ele>250.0</ele><time>2026-03-28T14:29:37Z</time></trkpt><trkpt lat="36.91297659537953" lon="15.038047076086036"><ele>256.0</ele><time>2026-03-28T14:29:38Z</time></trkpt><trkpt lat="36.913086284605555" lon="15.03812401233254"><ele>256.0</ele><time>2026-03-28T14:29:39Z</time></trkpt><trkpt lat="36.913190491343514" lon="15.038177137879462"><ele>256.0</ele><time>2026-03-28T14:29:40Z</time></trkpt><trkpt lat="36.913274088165316" lon="15.038248911398252"><ele>256.0</ele><time>2026-03-28T14:29:41Z</time></trkpt><trkpt lat="36.91335883542862" lon="15.038305945923732"><ele>256.0</ele><time>2026-03-28T14:29:42Z</time></trkpt><trkpt lat="36.913453902643745" lon="15.03835713191282"><ele>256.0</ele><time>2026-03-28T14:29:43Z</time></trkpt><trkpt lat="36.91355746194757" lon="15.038396883028387"><ele>256.5</ele><time>2026-03-28T14:29:44Z</time></trkpt><trkpt lat="36.91366975238217" lon="15.038431376879288"><ele>257.0</ele><time>2026-03-28T14:29:45Z</time></trkpt><trkpt lat="36.91379082252157" lon="15.038465382977064"><ele>257.5</ele><time>2026-03-28T14:29:46Z</time></trkpt><trkpt lat="36.9139208027427" lon="15.0384956966166"><ele>258.0</ele><time>2026-03-28T14:29:47Z</time></trkpt><trkpt lat="36.914068553519954" lon="15.03851305817273"><ele>258.0</ele><time>2026-03-28T14:29:48Z</time></trkpt><trkpt lat="36.91421866941495" lon="15.038516303746697"><ele>258.0</ele><time>2026-03-28T14:29:49Z</time></trkpt><trkpt lat="36.91435143605698" lon="15.038519661540622"><ele>258.0</ele><time>2026-03-28T14:29:50Z</time></trkpt><trkpt lat="36.91448576936266" lon="15.038554222451486"><ele>258.0</ele><time>2026-03-28T14:29:51Z</time></trkpt><trkpt lat="36.914622171055875" lon="15.038571862857879"><ele>261.0</ele><time>2026-03-28T14:29:52Z</time></trkpt><trkpt lat="36.914754595098216" lon="15.03857378058947"><ele>264.0</ele><time>2026-03-28T14:29:53Z</time></trkpt><trkpt lat="36.914872325300315" lon="15.038606008874014"><ele>267.0</ele><time>2026-03-28T14:29:54Z</time></trkpt><trkpt lat="36.91497507456668" lon="15.038628485077203"><ele>270.0</ele><time>2026-03-28T14:29:55Z</time></trkpt><trkpt lat="36.9150640367787" lon="15.038636243770897"><ele>273.0</ele><time>2026-03-28T14:29:56Z</time></trkpt><trkpt lat="36.91514106581267" lon="15.038630655834796"><ele>273.0</ele><time>2026-03-28T14:29:57Z</time></trkpt><trkpt lat="36.91523134057248" lon="15.038604487338144"><ele>273.0</ele><time>2026-03-28T14:29:59Z</time></trkpt><trkpt lat="36.91535491086824" lon="15.038594433270935"><ele>273.0</ele><time>2026-03-28T14:30:01Z</time></trkpt><trkpt lat="36.915444765952415" lon="15.03845871783351"><ele>273.0</ele><time>2026-03-28T14:30:02Z</time></trkpt><trkpt lat="36.91556280520809" lon="15.038388178093912"><ele>273.0</ele><time>2026-03-28T14:30:03Z</time></trkpt><trkpt lat="36.91568757109958" lon="15.0383274391189"><ele>273.0</ele><time>2026-03-28T14:30:04Z</time></trkpt><trkpt lat="36.91580072865869" lon="15.038271411766035"><ele>273.0</ele><time>2026-03-28T14:30:05Z</time></trkpt><trkpt lat="36.915913303461984" lon="15.038231915374755"><ele>273.0</ele><time>2026-03-28T14:30:06Z</time></trkpt><trkpt lat="36.916036255904864" lon="15.038208891356767"><ele>284.6666666666667</ele><time>2026-03-28T14:30:07Z</time></trkpt><trkpt lat="36.91618005728863" lon="15.038187512694718"><ele>296.33333333333337</ele><time>2026-03-28T14:30:08Z</time></trkpt><trkpt lat="36.91633764419977" lon="15.038150771017875"><ele>308.0</ele><time>2026-03-28T14:30:09Z</time></trkpt><trkpt lat="36.916478863019066" lon="15.038111746640467"><ele>308.0</ele><time>2026-03-28T14:30:10Z</time></trkpt><trkpt lat="36.91660471395181" lon="15.038075515449867"><ele>308.0</ele><time>2026-03-28T14:30:11Z</time></trkpt><trkpt lat="36.916758679232785" lon="15.03805472052622"><ele>308.0</ele><time>2026-03-28T14:30:12Z</time></trkpt><trkpt lat="36.91689960437044" lon="15.038051232362744"><ele>308.0</ele><time>2026-03-28T14:30:13Z</time></trkpt><trkpt lat="36.917001253976494" lon="15.03806285454282"><ele>305.8</ele><time>2026-03-28T14:30:14Z</time></trkpt><trkpt lat="36.91706814620555" lon="15.038094994252305"><ele>303.6</ele><time>2026-03-28T14:30:15Z</time></trkpt><trkpt lat="36.9171293491452" lon="15.038156049940607"><ele>301.4</ele><time>2026-03-28T14:30:16Z</time></trkpt><trkpt lat="36.91720633377184" lon="15.038255107385247"><ele>299.2</ele><time>2026-03-28T14:30:17Z</time></trkpt><trkpt lat="36.917320293383305" lon="15.038378752984386"><ele>297.0</ele><time>2026-03-28T14:30:18Z</time></trkpt><trkpt lat="36.91744323166686" lon="15.038497715497494"><ele>297.0</ele><time>2026-03-28T14:30:19Z</time></trkpt><trkpt lat="36.91755703328653" lon="15.03861573205175"><ele>297.0</ele><time>2026-03-28T14:30:20Z</time></trkpt><trkpt lat="36.91766075710502" lon="15.038724891924774"><ele>297.0</ele><time>2026-03-28T14:30:21Z</time></trkpt><trkpt lat="36.9177484691685" lon="15.038825998410529"><ele>297.0</ele><time>2026-03-28T14:30:22Z</time></trkpt><trkpt lat="36.917827763554676" lon="15.038902731474025"><ele>305.0</ele><time>2026-03-28T14:30:23Z</time></trkpt><trkpt lat="36.91790344260499" lon="15.038946036688788"><ele>313.0</ele><time>2026-03-28T14:30:24Z</time></trkpt><trkpt lat="36.91797896296263" lon="15.038980588940543"><ele>321.0</ele><time>2026-03-28T14:30:25Z</time></trkpt><trkpt lat="36.918069861496015" lon="15.039013934532477"><ele>329.0</ele><time>2026-03-28T14:30:26Z</time></trkpt><trkpt lat="36.91817178255326" lon="15.039047991387108"><ele>337.0</ele><time>2026-03-28T14:30:27Z</time></trkpt><trkpt lat="36.91828260415575" lon="15.039069326920599"><ele>342.25</ele><time>2026-03-28T14:30:28Z</time></trkpt><trkpt lat="36.918407280021285" lon="15.039087091450062"><ele>347.5</ele><time>2026-03-28T14:30:29Z</time></trkpt><trkpt lat="36.91854157065772" lon="15.039108048269172"><ele>352.75</ele><time>2026-03-28T14:30:30Z</time></trkpt><trkpt lat="36.918683992566926" lon="15.039124656852433"><ele>358.0</ele><time>2026-03-28T14:30:31Z</time></trkpt><trkpt lat="36.918830783017654" lon="15.039146150761356"><ele>352.0</ele><time>2026-03-28T14:30:32Z</time></trkpt><trkpt lat="36.918990400485086" lon="15.039183970771276"><ele>346.0</ele><time>2026-03-28T14:30:33Z</time></trkpt><trkpt lat="36.91915425711505" lon="15.039218604525486"><ele>340.0</ele><time>2026-03-28T14:30:34Z</time></trkpt><trkpt lat="36.91929385940951" lon="15.03924814197965"><ele>340.0</ele><time>2026-03-28T14:30:35Z</time></trkpt><trkpt lat="36.91940612856464" lon="15.039284538150671"><ele>340.0</ele><time>2026-03-28T14:30:36Z</time></trkpt><trkpt lat="36.91950231612056" lon="15.03934138959194"><ele>340.0</ele><time>2026-03-28T14:30:37Z</time></trkpt><trkpt lat="36.91962745754079" lon="15.039433049273645"><ele>340.0</ele><time>2026-03-28T14:30:38Z</time></trkpt><trkpt lat="36.919755627168634" lon="15.039526286986685"><ele>340.0</ele><time>2026-03-28T14:30:39Z</time></trkpt><trkpt lat="36.91986391120366" lon="15.039614263723996"><ele>340.0</ele><time>2026-03-28T14:30:40Z</time></trkpt><trkpt lat="36.919951349240705" lon="15.039698797135614"><ele>340.0</ele><time>2026-03-28T14:30:41Z</time></trkpt><trkpt lat="36.920015722555476" lon="15.03976472713237"><ele>340.0</ele><time>2026-03-28T14:30:42Z</time></trkpt><trkpt lat="36.9200862387168" lon="15.03986317099925"><ele>340.0</ele><time>2026-03-28T14:30:44Z</time></trkpt><trkpt lat="36.9201906036834" lon="15.039882025009794"><ele>340.3333333333333</ele><time>2026-03-28T14:30:49Z</time></trkpt><trkpt lat="36.92025262541803" lon="15.039858419912205"><ele>340.66666666666663</ele><time>2026-03-28T14:30:50Z</time></trkpt><trkpt lat="36.92031582284592" lon="15.039837006715668"><ele>341.0</ele><time>2026-03-28T14:30:51Z</time></trkpt><trkpt lat="36.92041187145987" lon="15.039740933323706"><ele>341.3333333333333</ele><time>2026-03-28T14:30:53Z</time></trkpt><trkpt lat="36.92045806613793" lon="15.03966149714437"><ele>341.6666666666667</ele><time>2026-03-28T14:30:54Z</time></trkpt><trkpt lat="36.920504602106845" lon="15.039566633419364"><ele>342.0</ele><time>2026-03-28T14:30:55Z</time></trkpt><trkpt lat="36.92054685324852" lon="15.039472169997328"><ele>342.0</ele><time>2026-03-28T14:30:56Z</time></trkpt><trkpt lat="36.92058312516058" lon="15.039390495203753"><ele>342.0</ele><time>2026-03-28T14:30:57Z</time></trkpt><trkpt lat="36.92062693576952" lon="15.039310083349173"><ele>342.0</ele><time>2026-03-28T14:30:58Z</time></trkpt><trkpt lat="36.92068309024643" lon="15.03922177094256"><ele>342.0</ele><time>2026-03-28T14:30:59Z</time></trkpt><trkpt lat="36.9207220251242" lon="15.03914437720853"><ele>342.0</ele><time>2026-03-28T14:31:00Z</time></trkpt><trkpt lat="36.920746990018564" lon="15.039057583039385"><ele>342.0</ele><time>2026-03-28T14:31:01Z</time></trkpt><trkpt lat="36.920762071868" lon="15.038968612931026"><ele>343.6666666666667</ele><time>2026-03-28T14:31:02Z</time></trkpt><trkpt lat="36.920767722716406" lon="15.038883110745477"><ele>345.3333333333333</ele><time>2026-03-28T14:31:03Z</time></trkpt><trkpt lat="36.92078086797356" lon="15.038784270228147"><ele>347.0</ele><time>2026-03-28T14:31:04Z</time></trkpt><trkpt lat="36.920805547344415" lon="15.038674094727162"><ele>348.66666666666663</ele><time>2026-03-28T14:31:05Z</time></trkpt><trkpt lat="36.92083709501169" lon="15.038567787743583"><ele>350.3333333333333</ele><time>2026-03-28T14:31:06Z</time></trkpt><trkpt lat="36.920878240396405" lon="15.038459421386245"><ele>352.0</ele><time>2026-03-28T14:31:07Z</time></trkpt><trkpt lat="36.92092490961405" lon="15.038347407989356"><ele>352.0</ele><time>2026-03-28T14:31:08Z</time></trkpt><trkpt lat="36.9209780150884" lon="15.038225266365561"><ele>352.0</ele><time>2026-03-28T14:31:09Z</time></trkpt><trkpt lat="36.92103000964028" lon="15.038104657635353"><ele>352.0</ele><time>2026-03-28T14:31:10Z</time></trkpt><trkpt lat="36.92107327293548" lon="15.038011807510138"><ele>352.0</ele><time>2026-03-28T14:31:11Z</time></trkpt><trkpt lat="36.92116752579287" lon="15.03791255708553"><ele>352.0</ele><time>2026-03-28T14:31:13Z</time></trkpt><trkpt lat="36.921234040100636" lon="15.037869460594496"><ele>352.0</ele><time>2026-03-28T14:31:14Z</time></trkpt><trkpt lat="36.92131838460995" lon="15.03780249496773"><ele>352.0</ele><time>2026-03-28T14:31:15Z</time></trkpt><trkpt lat="36.92139241033073" lon="15.03772831112229"><ele>352.0</ele><time>2026-03-28T14:31:16Z</time></trkpt><trkpt lat="36.921441485652046" lon="15.037676199290305"><ele>352.0</ele><time>2026-03-28T14:31:17Z</time></trkpt><trkpt lat="36.92150977774248" lon="15.03762265978887"><ele>352.0</ele><time>2026-03-28T14:31:19Z</time></trkpt><trkpt lat="36.921598465604944" lon="15.037587704609166"><ele>352.0</ele><time>2026-03-28T14:31:21Z</time></trkpt><trkpt lat="36.92166427259539" lon="15.037574157851237"><ele>353.75</ele><time>2026-03-28T14:31:23Z</time></trkpt><trkpt lat="36.92174005017082" lon="15.037563631435127"><ele>355.5</ele><time>2026-03-28T14:31:25Z</time></trkpt><trkpt lat="36.921929454565756" lon="15.037552294397445"><ele>357.25</ele><time>2026-03-28T14:31:27Z</time></trkpt><trkpt lat="36.92206845319559" lon="15.037530994388279"><ele>359.0</ele><time>2026-03-28T14:31:29Z</time></trkpt><trkpt lat="36.92215236301287" lon="15.037523322937007"><ele>359.0</ele><time>2026-03-28T14:31:30Z</time></trkpt><trkpt lat="36.92223363955322" lon="15.037515004868585"><ele>359.0</ele><time>2026-03-28T14:31:31Z</time></trkpt><trkpt lat="36.92233022584159" lon="15.037501649708073"><ele>359.0</ele><time>2026-03-28T14:31:32Z</time></trkpt><trkpt lat="36.92242210793502" lon="15.03750353001356"><ele>359.0</ele><time>2026-03-28T14:31:33Z</time></trkpt><trkpt lat="36.92251401564249" lon="15.037520315321192"><ele>359.0</ele><time>2026-03-28T14:31:34Z</time></trkpt><trkpt lat="36.9226247053128" lon="15.037525048966984"><ele>359.79999999999995</ele><time>2026-03-28T14:31:35Z</time></trkpt><trkpt lat="36.92273192798783" lon="15.037525933459985"><ele>360.59999999999997</ele><time>2026-03-28T14:31:36Z</time></trkpt><trkpt lat="36.92284993439373" lon="15.037522102679345"><ele>361.4</ele><time>2026-03-28T14:31:37Z</time></trkpt><trkpt lat="36.92295470010466" lon="15.037505488261733"><ele>362.2</ele><time>2026-03-28T14:31:38Z</time></trkpt><trkpt lat="36.92305843662359" lon="15.037480769355755"><ele>363.0</ele><time>2026-03-28T14:31:39Z</time></trkpt><trkpt lat="36.92316830321419" lon="15.037471192023196"><ele>362.79999999999995</ele><time>2026-03-28T14:31:40Z</time></trkpt><trkpt lat="36.923274921978155" lon="15.03745572181447"><ele>362.6</ele><time>2026-03-28T14:31:41Z</time></trkpt><trkpt lat="36.9233802531259" lon="15.037446245775914"><ele>362.4</ele><time>2026-03-28T14:31:42Z</time></trkpt><trkpt lat="36.92347412705411" lon="15.037438166404334"><ele>362.20000000000005</ele><time>2026-03-28T14:31:43Z</time></trkpt><trkpt lat="36.92355662488194" lon="15.037435317253712"><ele>362.0</ele><time>2026-03-28T14:31:44Z</time></trkpt><trkpt lat="36.92364876812803" lon="15.037433669403573"><ele>360.75</ele><time>2026-03-28T14:31:45Z</time></trkpt><trkpt lat="36.92382288249962" lon="15.037426735571696"><ele>359.5</ele><time>2026-03-28T14:31:47Z</time></trkpt><trkpt lat="36.92392100767618" lon="15.037439350962066"><ele>358.25</ele><time>2026-03-28T14:31:48Z</time></trkpt><trkpt lat="36.92402011043345" lon="15.037448375782782"><ele>357.0</ele><time>2026-03-28T14:31:49Z</time></trkpt><trkpt lat="36.924117759067165" lon="15.037454897549884"><ele>357.0</ele><time>2026-03-28T14:31:50Z</time></trkpt><trkpt lat="36.92421407058704" lon="15.037459760632967"><ele>357.0</ele><time>2026-03-28T14:31:51Z</time></trkpt><trkpt lat="36.924310486304286" lon="15.037458159248448"><ele>357.0</ele><time>2026-03-28T14:31:52Z</time></trkpt><trkpt lat="36.92440962573793" lon="15.03745079970817"><ele>357.0</ele><time>2026-03-28T14:31:53Z</time></trkpt><trkpt lat="36.924521734416494" lon="15.037439943452917"><ele>357.0</ele><time>2026-03-28T14:31:54Z</time></trkpt><trkpt lat="36.92463751462986" lon="15.037431664387057"><ele>357.6</ele><time>2026-03-28T14:31:55Z</time></trkpt><trkpt lat="36.924750080922735" lon="15.037425249176678"><ele>358.20000000000005</ele><time>2026-03-28T14:31:56Z</time></trkpt><trkpt lat="36.924859405006444" lon="15.037408267956122"><ele>358.8</ele><time>2026-03-28T14:31:57Z</time></trkpt><trkpt lat="36.92496733296352" lon="15.037371063998133"><ele>359.4</ele><time>2026-03-28T14:31:58Z</time></trkpt><trkpt lat="36.92507788957822" lon="15.03734083899081"><ele>360.0</ele><time>2026-03-28T14:31:59Z</time></trkpt><trkpt lat="36.92517866330685" lon="15.037308972388669"><ele>360.0</ele><time>2026-03-28T14:32:00Z</time></trkpt><trkpt lat="36.92528250869322" lon="15.037267208877402"><ele>360.0</ele><time>2026-03-28T14:32:01Z</time></trkpt><trkpt lat="36.92539408422181" lon="15.03720571842863"><ele>360.0</ele><time>2026-03-28T14:32:02Z</time></trkpt><trkpt lat="36.925499961247716" lon="15.037146889883635"><ele>360.0</ele><time>2026-03-28T14:32:03Z</time></trkpt><trkpt lat="36.925601994115745" lon="15.03708055172656"><ele>360.0</ele><time>2026-03-28T14:32:04Z</time></trkpt><trkpt lat="36.92569711761848" lon="15.037016346690846"><ele>360.0</ele><time>2026-03-28T14:32:05Z</time></trkpt><trkpt lat="36.925784599539654" lon="15.036946821759106"><ele>360.0</ele><time>2026-03-28T14:32:06Z</time></trkpt><trkpt lat="36.92586349455359" lon="15.036883318126709"><ele>360.0</ele><time>2026-03-28T14:32:07Z</time></trkpt><trkpt lat="36.9259318887441" lon="15.0368242804088"><ele>360.0</ele><time>2026-03-28T14:32:08Z</time></trkpt><trkpt lat="36.926013546031896" lon="15.036759193094019"><ele>360.3333333333333</ele><time>2026-03-28T14:32:09Z</time></trkpt><trkpt lat="36.92609165479382" lon="15.036688025812731"><ele>360.6666666666667</ele><time>2026-03-28T14:32:10Z</time></trkpt><trkpt lat="36.9261624429338" lon="15.036633423941554"><ele>361.0</ele><time>2026-03-28T14:32:11Z</time></trkpt><trkpt lat="36.926232526042" lon="15.036586872524984"><ele>361.33333333333337</ele><time>2026-03-28T14:32:12Z</time></trkpt><trkpt lat="36.92630984044414" lon="15.036531668205397"><ele>361.6666666666667</ele><time>2026-03-28T14:32:13Z</time></trkpt><trkpt lat="36.92640187717299" lon="15.03648217972988"><ele>362.0</ele><time>2026-03-28T14:32:14Z</time></trkpt><trkpt lat="36.9265047144979" lon="15.036430851122555"><ele>362.0</ele><time>2026-03-28T14:32:15Z</time></trkpt><trkpt lat="36.92662056750966" lon="15.036355293775134"><ele>362.0</ele><time>2026-03-28T14:32:16Z</time></trkpt><trkpt lat="36.926723062738944" lon="15.036279704719245"><ele>362.0</ele><time>2026-03-28T14:32:17Z</time></trkpt><trkpt lat="36.926820874644775" lon="15.03621828694688"><ele>362.0</ele><time>2026-03-28T14:32:18Z</time></trkpt><trkpt lat="36.926923249034765" lon="15.036169330117973"><ele>362.0</ele><time>2026-03-28T14:32:19Z</time></trkpt><trkpt lat="36.92702968170386" lon="15.03612900349809"><ele>362.0</ele><time>2026-03-28T14:32:20Z</time></trkpt><trkpt lat="36.92714471885388" lon="15.036077373224558"><ele>362.0</ele><time>2026-03-28T14:32:21Z</time></trkpt><trkpt lat="36.92727324275582" lon="15.036010752823826"><ele>362.0</ele><time>2026-03-28T14:32:22Z</time></trkpt><trkpt lat="36.92739907086167" lon="15.035942297780151"><ele>362.0</ele><time>2026-03-28T14:32:23Z</time></trkpt><trkpt lat="36.92751038482716" lon="15.035876174859391"><ele>362.0</ele><time>2026-03-28T14:32:24Z</time></trkpt><trkpt lat="36.92762816826859" lon="15.035807485665519"><ele>362.0</ele><time>2026-03-28T14:32:25Z</time></trkpt><trkpt lat="36.92774740926014" lon="15.035742746783882"><ele>362.0</ele><time>2026-03-28T14:32:26Z</time></trkpt><trkpt lat="36.92785587908158" lon="15.035684037779768"><ele>362.0</ele><time>2026-03-28T14:32:27Z</time></trkpt><trkpt lat="36.927953954062566" lon="15.035629583503363"><ele>362.0</ele><time>2026-03-28T14:32:28Z</time></trkpt><trkpt lat="36.92805405684977" lon="15.035568830552156"><ele>362.0</ele><time>2026-03-28T14:32:29Z</time></trkpt><trkpt lat="36.928156386966755" lon="15.035508865293938"><ele>362.0</ele><time>2026-03-28T14:32:30Z</time></trkpt><trkpt lat="36.92826259173792" lon="15.035453255016792"><ele>362.0</ele><time>2026-03-28T14:32:31Z</time></trkpt><trkpt lat="36.928365991261586" lon="15.03538755244979"><ele>362.5</ele><time>2026-03-28T14:32:32Z</time></trkpt><trkpt lat="36.928475285789574" lon="15.035329488387378"><ele>363.0</ele><time>2026-03-28T14:32:33Z</time></trkpt><trkpt lat="36.92857960193644" lon="15.035272044656706"><ele>363.5</ele><time>2026-03-28T14:32:34Z</time></trkpt><trkpt lat="36.92868278957903" lon="15.035214861307661"><ele>364.0</ele><time>2026-03-28T14:32:35Z</time></trkpt><trkpt lat="36.928780065233376" lon="15.035157847824784"><ele>364.0</ele><time>2026-03-28T14:32:36Z</time></trkpt><trkpt lat="36.92888398118373" lon="15.035095033402001"><ele>364.0</ele><time>2026-03-28T14:32:37Z</time></trkpt><trkpt lat="36.92899033790264" lon="15.035042764909894"><ele>364.0</ele><time>2026-03-28T14:32:38Z</time></trkpt><trkpt lat="36.92908261256217" lon="15.034983795191403"><ele>364.0</ele><time>2026-03-28T14:32:39Z</time></trkpt><trkpt lat="36.929178008313784" lon="15.034952628632922"><ele>364.0</ele><time>2026-03-28T14:32:40Z</time></trkpt><trkpt lat="36.92925622744018" lon="15.034904988376958"><ele>363.6</ele><time>2026-03-28T14:32:41Z</time></trkpt><trkpt lat="36.9293124931093" lon="15.03484653138712"><ele>363.2</ele><time>2026-03-28T14:32:42Z</time></trkpt><trkpt lat="36.92941707407174" lon="15.034730161755862"><ele>362.8</ele><time>2026-03-28T14:32:44Z</time></trkpt><trkpt lat="36.92950714788801" lon="15.034655052043266"><ele>362.40000000000003</ele><time>2026-03-28T14:32:45Z</time></trkpt><trkpt lat="36.92959289505609" lon="15.034569402416333"><ele>362.0</ele><time>2026-03-28T14:32:46Z</time></trkpt><trkpt lat="36.92966584842414" lon="15.034472043333551"><ele>362.0</ele><time>2026-03-28T14:32:47Z</time></trkpt><trkpt lat="36.929744937254966" lon="15.034392386991883"><ele>362.0</ele><time>2026-03-28T14:32:48Z</time></trkpt><trkpt lat="36.92981538584985" lon="15.034306640059192"><ele>362.0</ele><time>2026-03-28T14:32:49Z</time></trkpt><trkpt lat="36.929891502988944" lon="15.034217898157465"><ele>362.0</ele><time>2026-03-28T14:32:50Z</time></trkpt><trkpt lat="36.92996346044171" lon="15.034125537621282"><ele>362.0</ele><time>2026-03-28T14:32:51Z</time></trkpt><trkpt lat="36.9300364533624" lon="15.03404360795777"><ele>361.20000000000005</ele><time>2026-03-28T14:32:52Z</time></trkpt><trkpt lat="36.93010128527568" lon="15.03396748320154"><ele>360.4</ele><time>2026-03-28T14:32:53Z</time></trkpt><trkpt lat="36.93016541372589" lon="15.033883545337973"><ele>359.6</ele><time>2026-03-28T14:32:54Z</time></trkpt><trkpt lat="36.93025212329136" lon="15.03381365506451"><ele>358.79999999999995</ele><time>2026-03-28T14:32:55Z</time></trkpt><trkpt lat="36.93033654910562" lon="15.033719542152667"><ele>358.0</ele><time>2026-03-28T14:32:56Z</time></trkpt><trkpt lat="36.93042388678669" lon="15.03362525030346"><ele>358.0</ele><time>2026-03-28T14:32:57Z</time></trkpt><trkpt lat="36.93051035337648" lon="15.033536102007183"><ele>358.0</ele><time>2026-03-28T14:32:58Z</time></trkpt><trkpt lat="36.9305963191929" lon="15.033451559239051"><ele>358.0</ele><time>2026-03-28T14:32:59Z</time></trkpt><trkpt lat="36.93068532476276" lon="15.033373572395647"><ele>358.0</ele><time>2026-03-28T14:33:00Z</time></trkpt><trkpt lat="36.93077069854538" lon="15.033301007792526"><ele>358.0</ele><time>2026-03-28T14:33:01Z</time></trkpt><trkpt lat="36.93083478850836" lon="15.033218757188163"><ele>357.59999999999997</ele><time>2026-03-28T14:33:02Z</time></trkpt><trkpt lat="36.93091789308313" lon="15.033149087627029"><ele>357.2</ele><time>2026-03-28T14:33:03Z</time></trkpt><trkpt lat="36.93100736707447" lon="15.033034673472638"><ele>356.8</ele><time>2026-03-28T14:33:04Z</time></trkpt><trkpt lat="36.93107903574924" lon="15.032923820110494"><ele>356.4</ele><time>2026-03-28T14:33:05Z</time></trkpt><trkpt lat="36.93115517772305" lon="15.03285790667938"><ele>356.0</ele><time>2026-03-28T14:33:06Z</time></trkpt><trkpt lat="36.93122384320672" lon="15.032799223777427"><ele>356.0</ele><time>2026-03-28T14:33:07Z</time></trkpt><trkpt lat="36.931296463119395" lon="15.032755842367894"><ele>356.0</ele><time>2026-03-28T14:33:08Z</time></trkpt><trkpt lat="36.931377161936275" lon="15.032717902257954"><ele>356.0</ele><time>2026-03-28T14:33:09Z</time></trkpt><trkpt lat="36.93143819041913" lon="15.032646433848255"><ele>356.0</ele><time>2026-03-28T14:33:10Z</time></trkpt><trkpt lat="36.93151795148571" lon="15.032593564712194"><ele>356.0</ele><time>2026-03-28T14:33:11Z</time></trkpt><trkpt lat="36.93160015381761" lon="15.032561501924025"><ele>356.0</ele><time>2026-03-28T14:33:12Z</time></trkpt><trkpt lat="36.93167231875354" lon="15.032532663825373"><ele>356.5</ele><time>2026-03-28T14:33:13Z</time></trkpt><trkpt lat="36.931759262330665" lon="15.03249065622949"><ele>357.0</ele><time>2026-03-28T14:33:14Z</time></trkpt><trkpt lat="36.93184699553272" lon="15.032461582871054"><ele>357.5</ele><time>2026-03-28T14:33:15Z</time></trkpt><trkpt lat="36.93193308271032" lon="15.032449288105289"><ele>358.0</ele><time>2026-03-28T14:33:16Z</time></trkpt><trkpt lat="36.93201964002347" lon="15.032429011279328"><ele>358.5</ele><time>2026-03-28T14:33:17Z</time></trkpt><trkpt lat="36.93210955231874" lon="15.032416152009338"><ele>359.0</ele><time>2026-03-28T14:33:18Z</time></trkpt><trkpt lat="36.932189936551474" lon="15.032406590138855"><ele>359.83333333333337</ele><time>2026-03-28T14:33:19Z</time></trkpt><trkpt lat="36.932248632716686" lon="15.032377242969828"><ele>360.6666666666667</ele><time>2026-03-28T14:33:20Z</time></trkpt><trkpt lat="36.932353885999774" lon="15.032326765737078"><ele>361.5</ele><time>2026-03-28T14:33:22Z</time></trkpt><trkpt lat="36.93241933801527" lon="15.032282855547178"><ele>362.3333333333333</ele><time>2026-03-28T14:33:23Z</time></trkpt><trkpt lat="36.932486348103836" lon="15.032245217973637"><ele>363.16666666666663</ele><time>2026-03-28T14:33:24Z</time></trkpt><trkpt lat="36.932560285418376" lon="15.03222314420804"><ele>364.0</ele><time>2026-03-28T14:33:25Z</time></trkpt><trkpt lat="36.93263555024296" lon="15.032182552935058"><ele>364.8333333333333</ele><time>2026-03-28T14:33:26Z</time></trkpt><trkpt lat="36.93269647215155" lon="15.032136672816998"><ele>365.66666666666663</ele><time>2026-03-28T14:33:27Z</time></trkpt><trkpt lat="36.93276295971093" lon="15.032157682180445"><ele>366.5</ele><time>2026-03-28T14:33:28Z</time></trkpt><trkpt lat="36.93288245533162" lon="15.032151019270609"><ele>367.3333333333333</ele><time>2026-03-28T14:33:30Z</time></trkpt><trkpt lat="36.932951512884266" lon="15.032156847158836"><ele>368.1666666666667</ele><time>2026-03-28T14:33:31Z</time></trkpt><trkpt lat="36.933016283241294" lon="15.032105726233235"><ele>369.0</ele><time>2026-03-28T14:33:32Z</time></trkpt><trkpt lat="36.93308253625877" lon="15.032069644517012"><ele>369.0</ele><time>2026-03-28T14:33:33Z</time></trkpt><trkpt lat="36.93314488534668" lon="15.03202436285494"><ele>369.0</ele><time>2026-03-28T14:33:34Z</time></trkpt><trkpt lat="36.93321808497254" lon="15.031983122674696"><ele>369.0</ele><time>2026-03-28T14:33:35Z</time></trkpt><trkpt lat="36.933305032537504" lon="15.031899531435304"><ele>369.0</ele><time>2026-03-28T14:33:36Z</time></trkpt><trkpt lat="36.933390473314624" lon="15.03181703314997"><ele>369.0</ele><time>2026-03-28T14:33:37Z</time></trkpt><trkpt lat="36.93348470131821" lon="15.031727336909569"><ele>368.0</ele><time>2026-03-28T14:33:38Z</time></trkpt><trkpt lat="36.93356998367955" lon="15.031619270861157"><ele>367.0</ele><time>2026-03-28T14:33:39Z</time></trkpt><trkpt lat="36.93365410385813" lon="15.031538368418945"><ele>366.0</ele><time>2026-03-28T14:33:40Z</time></trkpt><trkpt lat="36.93373978511153" lon="15.031448087694496"><ele>365.0</ele><time>2026-03-28T14:33:41Z</time></trkpt><trkpt lat="36.93384358053424" lon="15.031342517098246"><ele>365.0</ele><time>2026-03-28T14:33:42Z</time></trkpt><trkpt lat="36.93394313854985" lon="15.031245267539665"><ele>365.0</ele><time>2026-03-28T14:33:43Z</time></trkpt><trkpt lat="36.93403171203843" lon="15.031161979879203"><ele>365.0</ele><time>2026-03-28T14:33:44Z</time></trkpt><trkpt lat="36.9341063013117" lon="15.03108994383268"><ele>365.0</ele><time>2026-03-28T14:33:45Z</time></trkpt><trkpt lat="36.93418503697995" lon="15.031017888010098"><ele>365.0</ele><time>2026-03-28T14:33:46Z</time></trkpt><trkpt lat="36.93425436732779" lon="15.030954503537215"><ele>365.33333333333337</ele><time>2026-03-28T14:33:47Z</time></trkpt><trkpt lat="36.934320658782504" lon="15.030900087609163"><ele>365.6666666666667</ele><time>2026-03-28T14:33:48Z</time></trkpt><trkpt lat="36.93438726866365" lon="15.030862226367521"><ele>366.0</ele><time>2026-03-28T14:33:49Z</time></trkpt><trkpt lat="36.934457143883" lon="15.030842785871993"><ele>366.3333333333333</ele><time>2026-03-28T14:33:50Z</time></trkpt><trkpt lat="36.93454436543942" lon="15.030831176861861"><ele>366.66666666666663</ele><time>2026-03-28T14:33:51Z</time></trkpt><trkpt lat="36.934645962851434" lon="15.03082457821859"><ele>367.0</ele><time>2026-03-28T14:33:52Z</time></trkpt><trkpt lat="36.934754089904075" lon="15.030815926805671"><ele>367.0</ele><time>2026-03-28T14:33:53Z</time></trkpt><trkpt lat="36.934871111055855" lon="15.030808395515697"><ele>367.0</ele><time>2026-03-28T14:33:54Z</time></trkpt><trkpt lat="36.93497284709257" lon="15.030799570477008"><ele>367.0</ele><time>2026-03-28T14:33:55Z</time></trkpt><trkpt lat="36.93505832029956" lon="15.03080419716369"><ele>367.0</ele><time>2026-03-28T14:33:56Z</time></trkpt><trkpt lat="36.93514464667973" lon="15.030824713453507"><ele>367.0</ele><time>2026-03-28T14:33:57Z</time></trkpt><trkpt lat="36.93524752444529" lon="15.030858749004127"><ele>366.5</ele><time>2026-03-28T14:33:58Z</time></trkpt><trkpt lat="36.935359824174924" lon="15.030905023951247"><ele>366.0</ele><time>2026-03-28T14:33:59Z</time></trkpt><trkpt lat="36.93547533130608" lon="15.03096499303634"><ele>365.5</ele><time>2026-03-28T14:34:00Z</time></trkpt><trkpt lat="36.93560063378344" lon="15.031024857380517"><ele>365.0</ele><time>2026-03-28T14:34:01Z</time></trkpt><trkpt lat="36.935758745677944" lon="15.031093607679525"><ele>366.0</ele><time>2026-03-28T14:34:02Z</time></trkpt><trkpt lat="36.93589964021821" lon="15.031148295144765"><ele>367.0</ele><time>2026-03-28T14:34:03Z</time></trkpt><trkpt lat="36.93601841284944" lon="15.031190981846947"><ele>368.0</ele><time>2026-03-28T14:34:04Z</time></trkpt><trkpt lat="36.93612354783425" lon="15.031224867689236"><ele>369.0</ele><time>2026-03-28T14:34:05Z</time></trkpt><trkpt lat="36.93621882961501" lon="15.031243317361351"><ele>369.0</ele><time>2026-03-28T14:34:06Z</time></trkpt><trkpt lat="36.936302029459476" lon="15.031258115894305"><ele>369.0</ele><time>2026-03-28T14:34:07Z</time></trkpt><trkpt lat="36.93638038239676" lon="15.031273173909586"><ele>369.0</ele><time>2026-03-28T14:34:08Z</time></trkpt><trkpt lat="36.936444358848924" lon="15.031267871010561"><ele>369.0</ele><time>2026-03-28T14:34:09Z</time></trkpt><trkpt lat="36.936545568174374" lon="15.03121184337895"><ele>369.0</ele><time>2026-03-28T14:34:11Z</time></trkpt><trkpt lat="36.93659385532372" lon="15.03114526336544"><ele>369.0</ele><time>2026-03-28T14:34:12Z</time></trkpt><trkpt lat="36.936657370794435" lon="15.031054366751126"><ele>369.79999999999995</ele><time>2026-03-28T14:34:13Z</time></trkpt><trkpt lat="36.93673933704927" lon="15.030952074984235"><ele>370.59999999999997</ele><time>2026-03-28T14:34:14Z</time></trkpt><trkpt lat="36.93681737196089" lon="15.030882741427908"><ele>371.4</ele><time>2026-03-28T14:34:15Z</time></trkpt><trkpt lat="36.936887036198804" lon="15.030830222695123"><ele>372.2</ele><time>2026-03-28T14:34:16Z</time></trkpt><trkpt lat="36.93695797476514" lon="15.030795291746662"><ele>373.0</ele><time>2026-03-28T14:34:17Z</time></trkpt><trkpt lat="36.93704669122114" lon="15.030772935271065"><ele>373.0</ele><time>2026-03-28T14:34:18Z</time></trkpt><trkpt lat="36.9371377248643" lon="15.030751129928571"><ele>373.0</ele><time>2026-03-28T14:34:19Z</time></trkpt><trkpt lat="36.9372210876295" lon="15.030723909211467"><ele>373.0</ele><time>2026-03-28T14:34:20Z</time></trkpt><trkpt lat="36.93731882577877" lon="15.030711538283015"><ele>373.0</ele><time>2026-03-28T14:34:21Z</time></trkpt><trkpt lat="36.93741117830879" lon="15.030681374410907"><ele>373.0</ele><time>2026-03-28T14:34:22Z</time></trkpt><trkpt lat="36.93749219780192" lon="15.03064326334563"><ele>375.2</ele><time>2026-03-28T14:34:23Z</time></trkpt><trkpt lat="36.937600260301046" lon="15.030613973183705"><ele>377.4</ele><time>2026-03-28T14:34:24Z</time></trkpt><trkpt lat="36.93770346258996" lon="15.0305900111559"><ele>379.59999999999997</ele><time>2026-03-28T14:34:25Z</time></trkpt><trkpt lat="36.93780360904063" lon="15.03056295438582"><ele>381.79999999999995</ele><time>2026-03-28T14:34:26Z</time></trkpt><trkpt lat="36.93790395910303" lon="15.030530896509974"><ele>384.0</ele><time>2026-03-28T14:34:27Z</time></trkpt><trkpt lat="36.93800644608692" lon="15.03052176939818"><ele>384.0</ele><time>2026-03-28T14:34:28Z</time></trkpt><trkpt lat="36.93808107144763" lon="15.030479678496839"><ele>384.0</ele><time>2026-03-28T14:34:29Z</time></trkpt><trkpt lat="36.93818103260034" lon="15.030433026954226"><ele>384.0</ele><time>2026-03-28T14:34:31Z</time></trkpt><trkpt lat="36.93829930221" lon="15.030347750346854"><ele>384.0</ele><time>2026-03-28T14:34:33Z</time></trkpt><trkpt lat="36.93836571205791" lon="15.030327273166698"><ele>384.0</ele><time>2026-03-28T14:34:34Z</time></trkpt><trkpt lat="36.93843495829846" lon="15.030331097815136"><ele>384.6</ele><time>2026-03-28T14:34:35Z</time></trkpt><trkpt lat="36.9385090190792" lon="15.030374855218945"><ele>385.2</ele><time>2026-03-28T14:34:36Z</time></trkpt><trkpt lat="36.93860763253801" lon="15.030350977694905"><ele>385.8</ele><time>2026-03-28T14:34:37Z</time></trkpt><trkpt lat="36.93871338464646" lon="15.030332126777013"><ele>386.40000000000003</ele><time>2026-03-28T14:34:38Z</time></trkpt><trkpt lat="36.93885202067375" lon="15.030318748985382"><ele>387.0</ele><time>2026-03-28T14:34:39Z</time></trkpt><trkpt lat="36.93898779206703" lon="15.030295620581715"><ele>387.0</ele><time>2026-03-28T14:34:40Z</time></trkpt><trkpt lat="36.93909713964982" lon="15.03025704064709"><ele>387.0</ele><time>2026-03-28T14:34:41Z</time></trkpt><trkpt lat="36.93917979281662" lon="15.030242498628146"><ele>387.0</ele><time>2026-03-28T14:34:42Z</time></trkpt><trkpt lat="36.939251070348114" lon="15.030229807666885"><ele>387.0</ele><time>2026-03-28T14:34:43Z</time></trkpt><trkpt lat="36.939332272336124" lon="15.030298321741187"><ele>387.0</ele><time>2026-03-28T14:34:45Z</time></trkpt><trkpt lat="36.93939687779082" lon="15.030339808009467"><ele>387.0</ele><time>2026-03-28T14:34:46Z</time></trkpt><trkpt lat="36.93950155001202" lon="15.03034556229412"><ele>389.0</ele><time>2026-03-28T14:34:48Z</time></trkpt><trkpt lat="36.93964878200158" lon="15.030260922423086"><ele>391.0</ele><time>2026-03-28T14:34:50Z</time></trkpt><trkpt lat="36.9397679216693" lon="15.030186440306606"><ele>393.0</ele><time>2026-03-28T14:34:51Z</time></trkpt><trkpt lat="36.939883646604464" lon="15.030128463284713"><ele>395.0</ele><time>2026-03-28T14:34:52Z</time></trkpt><trkpt lat="36.94000584116738" lon="15.030065100795206"><ele>395.25</ele><time>2026-03-28T14:34:53Z</time></trkpt><trkpt lat="36.94012538986574" lon="15.029998339905509"><ele>395.5</ele><time>2026-03-28T14:34:54Z</time></trkpt><trkpt lat="36.94023494010389" lon="15.029936263009123"><ele>395.75</ele><time>2026-03-28T14:34:55Z</time></trkpt><trkpt lat="36.94034052367461" lon="15.029876380446323"><ele>396.0</ele><time>2026-03-28T14:34:56Z</time></trkpt><trkpt lat="36.940443199589794" lon="15.029820719374504"><ele>396.0</ele><time>2026-03-28T14:34:57Z</time></trkpt><trkpt lat="36.94054387151419" lon="15.0297656154247"><ele>396.0</ele><time>2026-03-28T14:34:58Z</time></trkpt><trkpt lat="36.940646283175056" lon="15.029719349124642"><ele>396.0</ele><time>2026-03-28T14:34:59Z</time></trkpt><trkpt lat="36.94076299414263" lon="15.029659843355555"><ele>396.0</ele><time>2026-03-28T14:35:00Z</time></trkpt><trkpt lat="36.94086113313898" lon="15.029604507594577"><ele>396.0</ele><time>2026-03-28T14:35:01Z</time></trkpt><trkpt lat="36.940946730931884" lon="15.029556246700539"><ele>396.0</ele><time>2026-03-28T14:35:02Z</time></trkpt><trkpt lat="36.941022802562394" lon="15.029502205207312"><ele>396.0</ele><time>2026-03-28T14:35:03Z</time></trkpt><trkpt lat="36.941094058193535" lon="15.029428258791633"><ele>396.0</ele><time>2026-03-28T14:35:04Z</time></trkpt><trkpt lat="36.94115276285009" lon="15.029362619971367"><ele>396.0</ele><time>2026-03-28T14:35:05Z</time></trkpt><trkpt lat="36.94123395829734" lon="15.029269673820156"><ele>396.0</ele><time>2026-03-28T14:35:07Z</time></trkpt><trkpt lat="36.94132228326034" lon="15.029174312391861"><ele>396.0</ele><time>2026-03-28T14:35:09Z</time></trkpt><trkpt lat="36.94139933197947" lon="15.029083763980635"><ele>396.0</ele><time>2026-03-28T14:35:10Z</time></trkpt><trkpt lat="36.94149566486569" lon="15.028941375781663"><ele>396.0</ele><time>2026-03-28T14:35:11Z</time></trkpt><trkpt lat="36.94157359187695" lon="15.02878425715097"><ele>395.6</ele><time>2026-03-28T14:35:12Z</time></trkpt><trkpt lat="36.941656963547366" lon="15.028692166637741"><ele>395.20000000000005</ele><time>2026-03-28T14:35:13Z</time></trkpt><trkpt lat="36.94172781690929" lon="15.028631613696957"><ele>394.79999999999995</ele><time>2026-03-28T14:35:14Z</time></trkpt><trkpt lat="36.94179177588072" lon="15.028572345011034"><ele>394.4</ele><time>2026-03-28T14:35:15Z</time></trkpt><trkpt lat="36.94185371964697" lon="15.028489939762743"><ele>394.0</ele><time>2026-03-28T14:35:16Z</time></trkpt><trkpt lat="36.94192024432625" lon="15.028419664654963"><ele>394.0</ele><time>2026-03-28T14:35:17Z</time></trkpt><trkpt lat="36.94197739138067" lon="15.028343360069721"><ele>394.0</ele><time>2026-03-28T14:35:18Z</time></trkpt><trkpt lat="36.94203334142993" lon="15.028250787813251"><ele>394.0</ele><time>2026-03-28T14:35:19Z</time></trkpt><trkpt lat="36.94208328965654" lon="15.028155373040482"><ele>394.0</ele><time>2026-03-28T14:35:20Z</time></trkpt><trkpt lat="36.94215809523407" lon="15.028065735964443"><ele>394.0</ele><time>2026-03-28T14:35:21Z</time></trkpt><trkpt lat="36.94221822321131" lon="15.02795393154754"><ele>396.0</ele><time>2026-03-28T14:35:22Z</time></trkpt><trkpt lat="36.94226496926128" lon="15.027840497610889"><ele>398.0</ele><time>2026-03-28T14:35:23Z</time></trkpt><trkpt lat="36.942343999066914" lon="15.027768759959857"><ele>400.0</ele><time>2026-03-28T14:35:24Z</time></trkpt><trkpt lat="36.9424117696366" lon="15.027682071322534"><ele>402.0</ele><time>2026-03-28T14:35:25Z</time></trkpt><trkpt lat="36.942476140625615" lon="15.02759808890778"><ele>404.0</ele><time>2026-03-28T14:35:26Z</time></trkpt><trkpt lat="36.942516005893765" lon="15.027515466900219"><ele>404.75</ele><time>2026-03-28T14:35:27Z</time></trkpt><trkpt lat="36.942584622458" lon="15.027354451234721"><ele>405.5</ele><time>2026-03-28T14:35:29Z</time></trkpt><trkpt lat="36.942654971238994" lon="15.027250331515559"><ele>406.25</ele><time>2026-03-28T14:35:30Z</time></trkpt><trkpt lat="36.942715358962296" lon="15.027139153075897"><ele>407.0</ele><time>2026-03-28T14:35:31Z</time></trkpt><trkpt lat="36.94275548001286" lon="15.027022497196006"><ele>407.0</ele><time>2026-03-28T14:35:32Z</time></trkpt><trkpt lat="36.94281872947086" lon="15.026955668252645"><ele>407.0</ele><time>2026-03-28T14:35:33Z</time></trkpt><trkpt lat="36.94287936249589" lon="15.02690380702274"><ele>407.0</ele><time>2026-03-28T14:35:34Z</time></trkpt><trkpt lat="36.94296369654953" lon="15.026838075709112"><ele>407.0</ele><time>2026-03-28T14:35:35Z</time></trkpt><trkpt lat="36.943049388571005" lon="15.026742019114486"><ele>407.0</ele><time>2026-03-28T14:35:36Z</time></trkpt><trkpt lat="36.943128714676945" lon="15.026667009845406"><ele>405.99999999999994</ele><time>2026-03-28T14:35:37Z</time></trkpt><trkpt lat="36.94319558636894" lon="15.026584128831447"><ele>405.0</ele><time>2026-03-28T14:35:38Z</time></trkpt><trkpt lat="36.943265355546394" lon="15.026504509035084"><ele>404.0</ele><time>2026-03-28T14:35:39Z</time></trkpt><trkpt lat="36.94333176983636" lon="15.026429185848247"><ele>403.0</ele><time>2026-03-28T14:35:40Z</time></trkpt><trkpt lat="36.943381794075385" lon="15.026360472285885"><ele>401.99999999999994</ele><time>2026-03-28T14:35:41Z</time></trkpt><trkpt lat="36.94343984645911" lon="15.026297051122459"><ele>401.0</ele><time>2026-03-28T14:35:42Z</time></trkpt><trkpt lat="36.94348564174189" lon="15.026229106786156"><ele>400.99999999999994</ele><time>2026-03-28T14:35:43Z</time></trkpt><trkpt lat="36.9435324250972" lon="15.026159696051675"><ele>401.0</ele><time>2026-03-28T14:35:44Z</time></trkpt><trkpt lat="36.943587235184374" lon="15.026087262275942"><ele>401.0</ele><time>2026-03-28T14:35:45Z</time></trkpt><trkpt lat="36.943646821657595" lon="15.026012619330176"><ele>401.0</ele><time>2026-03-28T14:35:46Z</time></trkpt><trkpt lat="36.94370145134514" lon="15.025952664847853"><ele>400.99999999999994</ele><time>2026-03-28T14:35:47Z</time></trkpt><trkpt lat="36.943805463630234" lon="15.02591910262322"><ele>401.0</ele><time>2026-03-28T14:35:49Z</time></trkpt><trkpt lat="36.943868226544744" lon="15.025899489208168"><ele>401.0</ele><time>2026-03-28T14:35:50Z</time></trkpt><trkpt lat="36.94398276973184" lon="15.025866976997555"><ele>401.0</ele><time>2026-03-28T14:35:52Z</time></trkpt><trkpt lat="36.94408328062155" lon="15.025830622997649"><ele>401.0</ele><time>2026-03-28T14:35:54Z</time></trkpt><trkpt lat="36.94418859376293" lon="15.025805883993238"><ele>401.0</ele><time>2026-03-28T14:35:56Z</time></trkpt><trkpt lat="36.94427524249234" lon="15.025792947781555"><ele>401.0</ele><time>2026-03-28T14:35:58Z</time></trkpt><trkpt lat="36.94434727650352" lon="15.025797881386397"><ele>401.0</ele><time>2026-03-28T14:36:15Z</time></trkpt><trkpt lat="36.94443128238497" lon="15.025811112449778"><ele>401.0</ele><time>2026-03-28T14:37:08Z</time></trkpt><trkpt lat="36.94450147347648" lon="15.025864258237943"><ele>401.0</ele><time>2026-03-28T14:37:10Z</time></trkpt><trkpt lat="36.944583996985195" lon="15.025987094476676"><ele>401.0</ele><time>2026-03-28T14:37:12Z</time></trkpt><trkpt lat="36.944641862234995" lon="15.02604844701763"><ele>401.0</ele><time>2026-03-28T14:37:13Z</time></trkpt><trkpt lat="36.94470698939336" lon="15.02610963728611"><ele>401.0</ele><time>2026-03-28T14:37:14Z</time></trkpt><trkpt lat="36.94477924500574" lon="15.02618083576081"><ele>401.0</ele><time>2026-03-28T14:37:15Z</time></trkpt><trkpt lat="36.944866009674065" lon="15.026267592899423"><ele>401.0</ele><time>2026-03-28T14:37:16Z</time></trkpt><trkpt lat="36.944950114333444" lon="15.026348622210726"><ele>401.0</ele><time>2026-03-28T14:37:17Z</time></trkpt><trkpt lat="36.94503688426904" lon="15.026432563141823"><ele>401.0</ele><time>2026-03-28T14:37:18Z</time></trkpt><trkpt lat="36.9451257556293" lon="15.026522160557887"><ele>403.25</ele><time>2026-03-28T14:37:19Z</time></trkpt><trkpt lat="36.94521379183204" lon="15.026617518216108"><ele>405.5</ele><time>2026-03-28T14:37:20Z</time></trkpt><trkpt lat="36.94530269356557" lon="15.026710773274402"><ele>407.75</ele><time>2026-03-28T14:37:21Z</time></trkpt><trkpt lat="36.94539503490398" lon="15.026796255457397"><ele>410.0</ele><time>2026-03-28T14:37:22Z</time></trkpt><trkpt lat="36.94548597046181" lon="15.026882491385189"><ele>410.2</ele><time>2026-03-28T14:37:23Z</time></trkpt><trkpt lat="36.945575638775445" lon="15.026973647338634"><ele>410.4</ele><time>2026-03-28T14:37:24Z</time></trkpt><trkpt lat="36.9456666048506" lon="15.027065537259116"><ele>410.6</ele><time>2026-03-28T14:37:25Z</time></trkpt><trkpt lat="36.94575293284814" lon="15.027150130370199"><ele>410.8</ele><time>2026-03-28T14:37:26Z</time></trkpt><trkpt lat="36.945826597432486" lon="15.027212959561936"><ele>411.0</ele><time>2026-03-28T14:37:27Z</time></trkpt><trkpt lat="36.94591020681307" lon="15.027236633608192"><ele>411.0</ele><time>2026-03-28T14:37:28Z</time></trkpt><trkpt lat="36.94601333107737" lon="15.027231898628546"><ele>411.0</ele><time>2026-03-28T14:37:29Z</time></trkpt><trkpt lat="36.94612838190447" lon="15.027215668014508"><ele>411.0</ele><time>2026-03-28T14:37:30Z</time></trkpt><trkpt lat="36.94625748419965" lon="15.027201550099335"><ele>411.0</ele><time>2026-03-28T14:37:31Z</time></trkpt><trkpt lat="36.94640006856108" lon="15.027194883488967"><ele>411.0</ele><time>2026-03-28T14:37:32Z</time></trkpt><trkpt lat="36.94654927205857" lon="15.027184536381906"><ele>411.0</ele><time>2026-03-28T14:37:33Z</time></trkpt><trkpt lat="36.94668569565083" lon="15.027176144006233"><ele>411.0</ele><time>2026-03-28T14:37:34Z</time></trkpt><trkpt lat="36.94681834607124" lon="15.027170858498575"><ele>411.0</ele><time>2026-03-28T14:37:35Z</time></trkpt><trkpt lat="36.94695539685028" lon="15.027164358584699"><ele>410.75</ele><time>2026-03-28T14:37:36Z</time></trkpt><trkpt lat="36.94709058272181" lon="15.027158791613349"><ele>410.5</ele><time>2026-03-28T14:37:37Z</time></trkpt><trkpt lat="36.94723949011155" lon="15.027150689161225"><ele>410.25</ele><time>2026-03-28T14:37:38Z</time></trkpt><trkpt lat="36.94740226260063" lon="15.027138628790626"><ele>410.0</ele><time>2026-03-28T14:37:39Z</time></trkpt><trkpt lat="36.947565824000904" lon="15.027124382834057"><ele>410.0</ele><time>2026-03-28T14:37:40Z</time></trkpt><trkpt lat="36.94772486958532" lon="15.027116118665187"><ele>410.0</ele><time>2026-03-28T14:37:41Z</time></trkpt><trkpt lat="36.947880098458704" lon="15.027109129328059"><ele>410.0</ele><time>2026-03-28T14:37:42Z</time></trkpt><trkpt lat="36.948035154054566" lon="15.027100470422717"><ele>410.0</ele><time>2026-03-28T14:37:43Z</time></trkpt><trkpt lat="36.948186370824935" lon="15.027085960503772"><ele>410.0</ele><time>2026-03-28T14:37:44Z</time></trkpt><trkpt lat="36.94832205533319" lon="15.027081710672535"><ele>410.0</ele><time>2026-03-28T14:37:45Z</time></trkpt><trkpt lat="36.948451761311894" lon="15.027073855991178"><ele>410.0</ele><time>2026-03-28T14:37:46Z</time></trkpt><trkpt lat="36.94856981442463" lon="15.027068993623784"><ele>411.0</ele><time>2026-03-28T14:37:47Z</time></trkpt><trkpt lat="36.94867483483592" lon="15.027065886844198"><ele>412.0</ele><time>2026-03-28T14:37:48Z</time></trkpt><trkpt lat="36.94876734539907" lon="15.027058717673375"><ele>413.0</ele><time>2026-03-28T14:37:49Z</time></trkpt><trkpt lat="36.94885451530404" lon="15.0270240067291"><ele>414.0</ele><time>2026-03-28T14:37:50Z</time></trkpt><trkpt lat="36.94894843472661" lon="15.026945880802"><ele>415.0</ele><time>2026-03-28T14:37:51Z</time></trkpt><trkpt lat="36.949046130414835" lon="15.026828642510347"><ele>415.0</ele><time>2026-03-28T14:37:52Z</time></trkpt><trkpt lat="36.94913960977523" lon="15.026699410985154"><ele>415.0</ele><time>2026-03-28T14:37:53Z</time></trkpt><trkpt lat="36.94922921408525" lon="15.026588703816953"><ele>415.0</ele><time>2026-03-28T14:37:54Z</time></trkpt><trkpt lat="36.949315372227865" lon="15.026511544327315"><ele>415.0</ele><time>2026-03-28T14:37:55Z</time></trkpt><trkpt lat="36.949402565169564" lon="15.026456367100684"><ele>414.75</ele><time>2026-03-28T14:37:56Z</time></trkpt><trkpt lat="36.949498531050565" lon="15.026420812165158"><ele>414.5</ele><time>2026-03-28T14:37:57Z</time></trkpt><trkpt lat="36.94961713017723" lon="15.026399039853766"><ele>414.25</ele><time>2026-03-28T14:37:58Z</time></trkpt><trkpt lat="36.949761144638444" lon="15.026381440811836"><ele>414.0</ele><time>2026-03-28T14:37:59Z</time></trkpt><trkpt lat="36.949895496336794" lon="15.026361013659693"><ele>414.0</ele><time>2026-03-28T14:38:00Z</time></trkpt><trkpt lat="36.950007186138485" lon="15.026341841529606"><ele>414.0</ele><time>2026-03-28T14:38:01Z</time></trkpt><trkpt lat="36.950120485533986" lon="15.026321864304366"><ele>414.0</ele><time>2026-03-28T14:38:02Z</time></trkpt><trkpt lat="36.95025273736521" lon="15.026305005452134"><ele>414.0</ele><time>2026-03-28T14:38:03Z</time></trkpt><trkpt lat="36.95037713015549" lon="15.026301101157692"><ele>416.0</ele><time>2026-03-28T14:38:04Z</time></trkpt><trkpt lat="36.95048712893352" lon="15.02632445007607"><ele>418.0</ele><time>2026-03-28T14:38:05Z</time></trkpt><trkpt lat="36.950586723044815" lon="15.026381745680771"><ele>420.0</ele><time>2026-03-28T14:38:06Z</time></trkpt><trkpt lat="36.95067336843987" lon="15.026491216564121"><ele>422.0</ele><time>2026-03-28T14:38:07Z</time></trkpt><trkpt lat="36.95079124232217" lon="15.026574892227876"><ele>420.5</ele><time>2026-03-28T14:38:08Z</time></trkpt><trkpt lat="36.9508990853585" lon="15.026673341815949"><ele>419.0</ele><time>2026-03-28T14:38:09Z</time></trkpt><trkpt lat="36.951002525301526" lon="15.02676056325683"><ele>417.5</ele><time>2026-03-28T14:38:10Z</time></trkpt><trkpt lat="36.95110022697811" lon="15.026841553007044"><ele>416.0</ele><time>2026-03-28T14:38:11Z</time></trkpt><trkpt lat="36.95119625088867" lon="15.026921817562807"><ele>416.0</ele><time>2026-03-28T14:38:12Z</time></trkpt><trkpt lat="36.95128787499506" lon="15.027012235723408"><ele>416.0</ele><time>2026-03-28T14:38:13Z</time></trkpt><trkpt lat="36.951380236304374" lon="15.027122395260523"><ele>416.0</ele><time>2026-03-28T14:38:14Z</time></trkpt><trkpt lat="36.95147439267941" lon="15.027243893563828"><ele>416.0</ele><time>2026-03-28T14:38:15Z</time></trkpt><trkpt lat="36.951571366379504" lon="15.027369141906151"><ele>415.5</ele><time>2026-03-28T14:38:16Z</time></trkpt><trkpt lat="36.95167361025924" lon="15.027498033432435"><ele>415.0</ele><time>2026-03-28T14:38:17Z</time></trkpt><trkpt lat="36.95177535502888" lon="15.027628507826202"><ele>414.5</ele><time>2026-03-28T14:38:18Z</time></trkpt><trkpt lat="36.951860916152675" lon="15.027775663116238"><ele>414.0</ele><time>2026-03-28T14:38:19Z</time></trkpt><trkpt lat="36.951943078531286" lon="15.02792700888866"><ele>414.0</ele><time>2026-03-28T14:38:20Z</time></trkpt><trkpt lat="36.95198605798185" lon="15.028104369936207"><ele>414.0</ele><time>2026-03-28T14:38:21Z</time></trkpt><trkpt lat="36.95203757991252" lon="15.028280814516664"><ele>414.0</ele><time>2026-03-28T14:38:22Z</time></trkpt><trkpt lat="36.952098030205185" lon="15.028475028434611"><ele>412.33333333333337</ele><time>2026-03-28T14:38:23Z</time></trkpt><trkpt lat="36.952142177406714" lon="15.028687858738552"><ele>410.6666666666667</ele><time>2026-03-28T14:38:24Z</time></trkpt><trkpt lat="36.95217416019791" lon="15.02891612884693"><ele>409.0</ele><time>2026-03-28T14:38:25Z</time></trkpt><trkpt lat="36.952227436133214" lon="15.029117875967481"><ele>408.75</ele><time>2026-03-28T14:38:26Z</time></trkpt><trkpt lat="36.95225965613186" lon="15.029305725230447"><ele>408.5</ele><time>2026-03-28T14:38:27Z</time></trkpt><trkpt lat="36.952291451153904" lon="15.029485290526612"><ele>408.25</ele><time>2026-03-28T14:38:28Z</time></trkpt><trkpt lat="36.952333111461456" lon="15.029656476620044"><ele>408.0</ele><time>2026-03-28T14:38:29Z</time></trkpt><trkpt lat="36.95238603057809" lon="15.029816717460907"><ele>408.0</ele><time>2026-03-28T14:38:30Z</time></trkpt><trkpt lat="36.95244011452018" lon="15.029947132206095"><ele>408.0</ele><time>2026-03-28T14:38:31Z</time></trkpt><trkpt lat="36.95249729713184" lon="15.030044482355256"><ele>408.0</ele><time>2026-03-28T14:38:32Z</time></trkpt><trkpt lat="36.95256671504384" lon="15.030106361320398"><ele>408.0</ele><time>2026-03-28T14:38:33Z</time></trkpt><trkpt lat="36.9526508864174" lon="15.030125781820322"><ele>408.0</ele><time>2026-03-28T14:38:34Z</time></trkpt><trkpt lat="36.95275895575664" lon="15.030092207654468"><ele>407.25</ele><time>2026-03-28T14:38:35Z</time></trkpt><trkpt lat="36.95287916108016" lon="15.030102592164528"><ele>406.5</ele><time>2026-03-28T14:38:36Z</time></trkpt><trkpt lat="36.953001288451595" lon="15.03011520605644"><ele>405.75</ele><time>2026-03-28T14:38:37Z</time></trkpt><trkpt lat="36.95310487739082" lon="15.030163717977837"><ele>405.0</ele><time>2026-03-28T14:38:38Z</time></trkpt><trkpt lat="36.95317872498458" lon="15.030263251920253"><ele>405.0</ele><time>2026-03-28T14:38:39Z</time></trkpt><trkpt lat="36.95329187108019" lon="15.03035713514449"><ele>405.0</ele><time>2026-03-28T14:38:40Z</time></trkpt><trkpt lat="36.95340220307848" lon="15.030506412514708"><ele>405.0</ele><time>2026-03-28T14:38:41Z</time></trkpt><trkpt lat="36.953521165015914" lon="15.030659208661163"><ele>405.75</ele><time>2026-03-28T14:38:42Z</time></trkpt><trkpt lat="36.95362894700399" lon="15.030789498844582"><ele>406.5</ele><time>2026-03-28T14:38:43Z</time></trkpt><trkpt lat="36.95373875242409" lon="15.030897480427702"><ele>407.25</ele><time>2026-03-28T14:38:44Z</time></trkpt><trkpt lat="36.953863135062626" lon="15.030975344468505"><ele>408.0</ele><time>2026-03-28T14:38:45Z</time></trkpt><trkpt lat="36.9540055403858" lon="15.031024227996399"><ele>403.75</ele><time>2026-03-28T14:38:46Z</time></trkpt><trkpt lat="36.954149915837526" lon="15.031038659274785"><ele>399.5</ele><time>2026-03-28T14:38:47Z</time></trkpt><trkpt lat="36.95429956638762" lon="15.031026365330026"><ele>395.25</ele><time>2026-03-28T14:38:48Z</time></trkpt><trkpt lat="36.9544347732343" lon="15.031019181067203"><ele>391.0</ele><time>2026-03-28T14:38:49Z</time></trkpt><trkpt lat="36.954578315385575" lon="15.031017915548054"><ele>390.0</ele><time>2026-03-28T14:38:50Z</time></trkpt><trkpt lat="36.95473126550938" lon="15.030995549439574"><ele>389.0</ele><time>2026-03-28T14:38:51Z</time></trkpt><trkpt lat="36.95486923932565" lon="15.03095191944039"><ele>388.0</ele><time>2026-03-28T14:38:52Z</time></trkpt><trkpt lat="36.95500000029594" lon="15.030905017018487"><ele>387.0</ele><time>2026-03-28T14:38:53Z</time></trkpt><trkpt lat="36.95512459045104" lon="15.030867924052165"><ele>385.5</ele><time>2026-03-28T14:38:54Z</time></trkpt><trkpt lat="36.95524389764004" lon="15.030840396369443"><ele>384.0</ele><time>2026-03-28T14:38:55Z</time></trkpt><trkpt lat="36.95536259460359" lon="15.030818143367728"><ele>382.5</ele><time>2026-03-28T14:38:56Z</time></trkpt><trkpt lat="36.95548312824586" lon="15.030824116465165"><ele>381.0</ele><time>2026-03-28T14:38:57Z</time></trkpt><trkpt lat="36.95559978622294" lon="15.030805490524795"><ele>382.20000000000005</ele><time>2026-03-28T14:38:58Z</time></trkpt><trkpt lat="36.95569829399857" lon="15.030769114456566"><ele>383.40000000000003</ele><time>2026-03-28T14:38:59Z</time></trkpt><trkpt lat="36.95579178127756" lon="15.03073727638944"><ele>384.6</ele><time>2026-03-28T14:39:00Z</time></trkpt><trkpt lat="36.955873983336055" lon="15.030741613675028"><ele>385.8</ele><time>2026-03-28T14:39:01Z</time></trkpt><trkpt lat="36.955952098178116" lon="15.030727159240879"><ele>387.0</ele><time>2026-03-28T14:39:02Z</time></trkpt><trkpt lat="36.95604613957305" lon="15.030709756171937"><ele>387.0</ele><time>2026-03-28T14:39:03Z</time></trkpt><trkpt lat="36.95613615658971" lon="15.030693097849154"><ele>387.0</ele><time>2026-03-28T14:39:04Z</time></trkpt><trkpt lat="36.95621706179469" lon="15.030673853886444"><ele>387.0</ele><time>2026-03-28T14:39:05Z</time></trkpt><trkpt lat="36.95629356527791" lon="15.030653160844526"><ele>387.0</ele><time>2026-03-28T14:39:06Z</time></trkpt><trkpt lat="36.95637966360736" lon="15.030642162344606"><ele>387.0</ele><time>2026-03-28T14:39:07Z</time></trkpt><trkpt lat="36.956469872567894" lon="15.030631572315226"><ele>387.0</ele><time>2026-03-28T14:39:08Z</time></trkpt><trkpt lat="36.95655069754716" lon="15.030630905045607"><ele>387.0</ele><time>2026-03-28T14:39:09Z</time></trkpt><trkpt lat="36.956616667471906" lon="15.030594423425711"><ele>387.0</ele><time>2026-03-28T14:39:10Z</time></trkpt><trkpt lat="36.956688213951885" lon="15.03048401675789"><ele>387.0</ele><time>2026-03-28T14:39:12Z</time></trkpt><trkpt lat="36.956698815458374" lon="15.03036928929522"><ele>387.0</ele><time>2026-03-28T14:39:13Z</time></trkpt><trkpt lat="36.956725579093685" lon="15.030228362426849"><ele>387.0</ele><time>2026-03-28T14:39:14Z</time></trkpt><trkpt lat="36.956755574363456" lon="15.030107636128283"><ele>388.0</ele><time>2026-03-28T14:39:15Z</time></trkpt><trkpt lat="36.95675599041532" lon="15.02999526057162"><ele>389.0</ele><time>2026-03-28T14:39:16Z</time></trkpt><trkpt lat="36.95682236436295" lon="15.029894967564623"><ele>390.0</ele><time>2026-03-28T14:39:17Z</time></trkpt><trkpt lat="36.956894433504424" lon="15.029794438009613"><ele>391.0</ele><time>2026-03-28T14:39:18Z</time></trkpt><trkpt lat="36.95694850631544" lon="15.029707147460718"><ele>392.0</ele><time>2026-03-28T14:39:19Z</time></trkpt><trkpt lat="36.95700417073434" lon="15.029640550955218"><ele>392.8333333333333</ele><time>2026-03-28T14:39:20Z</time></trkpt><trkpt lat="36.95707851797542" lon="15.029591054753725"><ele>393.66666666666663</ele><time>2026-03-28T14:39:21Z</time></trkpt><trkpt lat="36.957165941483176" lon="15.029574059512177"><ele>394.5</ele><time>2026-03-28T14:39:22Z</time></trkpt><trkpt lat="36.957232059604145" lon="15.029592128235002"><ele>395.33333333333337</ele><time>2026-03-28T14:39:23Z</time></trkpt><trkpt lat="36.95727764586797" lon="15.029652370377775"><ele>396.1666666666667</ele><time>2026-03-28T14:39:24Z</time></trkpt><trkpt lat="36.957311713250704" lon="15.02974080980482"><ele>397.0</ele><time>2026-03-28T14:39:25Z</time></trkpt><trkpt lat="36.957296996355126" lon="15.029877814221143"><ele>397.0</ele><time>2026-03-28T14:39:27Z</time></trkpt><trkpt lat="36.957236861388495" lon="15.029972741751067"><ele>397.0</ele><time>2026-03-28T14:39:28Z</time></trkpt><trkpt lat="36.95718028804809" lon="15.030088110261481"><ele>397.0</ele><time>2026-03-28T14:39:29Z</time></trkpt><trkpt lat="36.95716682744159" lon="15.03019771205604"><ele>397.0</ele><time>2026-03-28T14:39:30Z</time></trkpt><trkpt lat="36.95719213719236" lon="15.030297953428542"><ele>397.0</ele><time>2026-03-28T14:39:31Z</time></trkpt><trkpt lat="36.95724708232157" lon="15.03038495710952"><ele>396.0</ele><time>2026-03-28T14:39:32Z</time></trkpt><trkpt lat="36.95732445926017" lon="15.030474057957694"><ele>395.0</ele><time>2026-03-28T14:39:33Z</time></trkpt><trkpt lat="36.95739910580629" lon="15.030581249817603"><ele>394.0</ele><time>2026-03-28T14:39:34Z</time></trkpt><trkpt lat="36.957461277625235" lon="15.030698790555109"><ele>393.0</ele><time>2026-03-28T14:39:35Z</time></trkpt><trkpt lat="36.95751209787478" lon="15.030817397078794"><ele>392.0</ele><time>2026-03-28T14:39:36Z</time></trkpt><trkpt lat="36.957539403702725" lon="15.030915517608076"><ele>389.0</ele><time>2026-03-28T14:39:37Z</time></trkpt><trkpt lat="36.957532061605875" lon="15.031008048583667"><ele>386.0</ele><time>2026-03-28T14:39:38Z</time></trkpt><trkpt lat="36.957507262325755" lon="15.031134052283754"><ele>383.0</ele><time>2026-03-28T14:39:39Z</time></trkpt><trkpt lat="36.95747523003467" lon="15.031291927431415"><ele>380.0</ele><time>2026-03-28T14:39:40Z</time></trkpt><trkpt lat="36.957448597467675" lon="15.031438898414292"><ele>377.0</ele><time>2026-03-28T14:39:41Z</time></trkpt><trkpt lat="36.95742276316769" lon="15.031552904778323"><ele>377.0</ele><time>2026-03-28T14:39:42Z</time></trkpt><trkpt lat="36.95737547550316" lon="15.03162369012646"><ele>377.0</ele><time>2026-03-28T14:39:43Z</time></trkpt><trkpt lat="36.957300103777584" lon="15.031655851243292"><ele>377.0</ele><time>2026-03-28T14:39:44Z</time></trkpt><trkpt lat="36.95719732970807" lon="15.031649200978757"><ele>377.0</ele><time>2026-03-28T14:39:45Z</time></trkpt><trkpt lat="36.95709896957047" lon="15.031635223962882"><ele>377.0</ele><time>2026-03-28T14:39:46Z</time></trkpt><trkpt lat="36.95702651122588" lon="15.031667269677124"><ele>377.0</ele><time>2026-03-28T14:39:47Z</time></trkpt><trkpt lat="36.95695969720682" lon="15.03172973132541"><ele>377.0</ele><time>2026-03-28T14:39:48Z</time></trkpt><trkpt lat="36.95689697579435" lon="15.031809201846015"><ele>377.0</ele><time>2026-03-28T14:39:49Z</time></trkpt><trkpt lat="36.95683795025025" lon="15.03190515034172"><ele>377.0</ele><time>2026-03-28T14:39:50Z</time></trkpt><trkpt lat="36.95678011361153" lon="15.03201434617869"><ele>377.0</ele><time>2026-03-28T14:39:51Z</time></trkpt><trkpt lat="36.95671947040543" lon="15.03212225305842"><ele>377.0</ele><time>2026-03-28T14:39:52Z</time></trkpt><trkpt lat="36.9566669604154" lon="15.032224075648383"><ele>376.0</ele><time>2026-03-28T14:39:53Z</time></trkpt><trkpt lat="36.95661923948317" lon="15.032325924377856"><ele>375.0</ele><time>2026-03-28T14:39:54Z</time></trkpt><trkpt lat="36.95657273901802" lon="15.032431698719689"><ele>374.0</ele><time>2026-03-28T14:39:55Z</time></trkpt><trkpt lat="36.95652777159921" lon="15.032525323224752"><ele>373.0</ele><time>2026-03-28T14:39:56Z</time></trkpt><trkpt lat="36.956484592084" lon="15.03261168753548"><ele>372.0</ele><time>2026-03-28T14:39:57Z</time></trkpt><trkpt lat="36.95643807147478" lon="15.032700223715171"><ele>371.0</ele><time>2026-03-28T14:39:58Z</time></trkpt><trkpt lat="36.95637247147729" lon="15.032775300418256"><ele>373.8</ele><time>2026-03-28T14:39:59Z</time></trkpt><trkpt lat="36.956341418754754" lon="15.032867398868573"><ele>376.6</ele><time>2026-03-28T14:40:00Z</time></trkpt><trkpt lat="36.95630409642308" lon="15.032947001579494"><ele>379.4</ele><time>2026-03-28T14:40:01Z</time></trkpt><trkpt lat="36.956259200065055" lon="15.033073164876425"><ele>382.2</ele><time>2026-03-28T14:40:03Z</time></trkpt><trkpt lat="36.95632789766254" lon="15.033195065391906"><ele>385.0</ele><time>2026-03-28T14:40:05Z</time></trkpt><trkpt lat="36.956412818458865" lon="15.03320705027219"><ele>385.0</ele><time>2026-03-28T14:40:06Z</time></trkpt><trkpt lat="36.956513851735245" lon="15.033184404242464"><ele>385.0</ele><time>2026-03-28T14:40:07Z</time></trkpt><trkpt lat="36.95661908132576" lon="15.033126270624697"><ele>385.0</ele><time>2026-03-28T14:40:08Z</time></trkpt><trkpt lat="36.956731439587756" lon="15.033076690911091"><ele>385.0</ele><time>2026-03-28T14:40:09Z</time></trkpt><trkpt lat="36.95685202132832" lon="15.033028109479378"><ele>387.0</ele><time>2026-03-28T14:40:10Z</time></trkpt><trkpt lat="36.956977623932616" lon="15.032969677893066"><ele>389.0</ele><time>2026-03-28T14:40:11Z</time></trkpt><trkpt lat="36.95711638343056" lon="15.032908957734364"><ele>391.0</ele><time>2026-03-28T14:40:12Z</time></trkpt><trkpt lat="36.95726565663397" lon="15.032841602161241"><ele>393.0</ele><time>2026-03-28T14:40:13Z</time></trkpt><trkpt lat="36.95742255417782" lon="15.032761502219179"><ele>391.0</ele><time>2026-03-28T14:40:14Z</time></trkpt><trkpt lat="36.95758356218962" lon="15.032682322084034"><ele>389.0</ele><time>2026-03-28T14:40:15Z</time></trkpt><trkpt lat="36.957734186809994" lon="15.032642956678645"><ele>387.0</ele><time>2026-03-28T14:40:16Z</time></trkpt><trkpt lat="36.95784566765481" lon="15.032600782332008"><ele>385.0</ele><time>2026-03-28T14:40:17Z</time></trkpt><trkpt lat="36.95793308334082" lon="15.03257384306643"><ele>385.0</ele><time>2026-03-28T14:40:18Z</time></trkpt><trkpt lat="36.958000048457855" lon="15.032572233542767"><ele>385.0</ele><time>2026-03-28T14:40:19Z</time></trkpt><trkpt lat="36.9580827118562" lon="15.032666687128936"><ele>385.0</ele><time>2026-03-28T14:40:21Z</time></trkpt><trkpt lat="36.958140564696144" lon="15.032783323917345"><ele>385.0</ele><time>2026-03-28T14:40:22Z</time></trkpt><trkpt lat="36.95818071123224" lon="15.03295064414008"><ele>385.0</ele><time>2026-03-28T14:40:23Z</time></trkpt><trkpt lat="36.9582186112865" lon="15.0331378913206"><ele>390.0</ele><time>2026-03-28T14:40:24Z</time></trkpt><trkpt lat="36.9582704911892" lon="15.033340051636872"><ele>395.0</ele><time>2026-03-28T14:40:25Z</time></trkpt><trkpt lat="36.95833376630902" lon="15.033568884723225"><ele>400.0</ele><time>2026-03-28T14:40:26Z</time></trkpt><trkpt lat="36.958394685288276" lon="15.033805065946028"><ele>400.0</ele><time>2026-03-28T14:40:27Z</time></trkpt><trkpt lat="36.9584525171931" lon="15.03403486538111"><ele>400.0</ele><time>2026-03-28T14:40:28Z</time></trkpt><trkpt lat="36.958503552142574" lon="15.034234922165316"><ele>400.0</ele><time>2026-03-28T14:40:29Z</time></trkpt><trkpt lat="36.95854691690436" lon="15.034412144308906"><ele>403.25</ele><time>2026-03-28T14:40:30Z</time></trkpt><trkpt lat="36.958588133365055" lon="15.034558528223915"><ele>406.5</ele><time>2026-03-28T14:40:31Z</time></trkpt><trkpt lat="36.958648576174475" lon="15.03468005809433"><ele>409.75</ele><time>2026-03-28T14:40:32Z</time></trkpt><trkpt lat="36.9587292662557" lon="15.034792263554897"><ele>413.0</ele><time>2026-03-28T14:40:33Z</time></trkpt><trkpt lat="36.95882945493966" lon="15.03490058650825"><ele>412.66666666666663</ele><time>2026-03-28T14:40:34Z</time></trkpt><trkpt lat="36.95895858698526" lon="15.035019918699307"><ele>412.33333333333337</ele><time>2026-03-28T14:40:35Z</time></trkpt><trkpt lat="36.95907722570032" lon="15.035134377095305"><ele>412.0</ele><time>2026-03-28T14:40:36Z</time></trkpt><trkpt lat="36.95919457539773" lon="15.035248264853205"><ele>412.6666666666667</ele><time>2026-03-28T14:40:37Z</time></trkpt><trkpt lat="36.9593061963115" lon="15.035372353047375"><ele>413.33333333333337</ele><time>2026-03-28T14:40:38Z</time></trkpt><trkpt lat="36.959414110881674" lon="15.035496618368052"><ele>414.0</ele><time>2026-03-28T14:40:39Z</time></trkpt><trkpt lat="36.95953031761883" lon="15.035627636747305"><ele>414.0</ele><time>2026-03-28T14:40:40Z</time></trkpt><trkpt lat="36.959645497389694" lon="15.035754564747805"><ele>414.0</ele><time>2026-03-28T14:40:41Z</time></trkpt><trkpt lat="36.95976054819711" lon="15.035878872420279"><ele>414.0</ele><time>2026-03-28T14:40:42Z</time></trkpt><trkpt lat="36.959876989341424" lon="15.03600531813408"><ele>413.66666666666663</ele><time>2026-03-28T14:40:43Z</time></trkpt><trkpt lat="36.959999710603356" lon="15.036137251725876"><ele>413.3333333333333</ele><time>2026-03-28T14:40:44Z</time></trkpt><trkpt lat="36.960116955688925" lon="15.0362637008488"><ele>413.0</ele><time>2026-03-28T14:40:45Z</time></trkpt><trkpt lat="36.96023277212954" lon="15.036382781238117"><ele>413.0</ele><time>2026-03-28T14:40:46Z</time></trkpt><trkpt lat="36.96034656322367" lon="15.036506603102685"><ele>413.0</ele><time>2026-03-28T14:40:47Z</time></trkpt><trkpt lat="36.96046487456421" lon="15.03663841198951"><ele>413.0</ele><time>2026-03-28T14:40:48Z</time></trkpt><trkpt lat="36.96058537716669" lon="15.036772521810388"><ele>412.0</ele><time>2026-03-28T14:40:49Z</time></trkpt><trkpt lat="36.9607002581675" lon="15.03689521824143"><ele>411.0</ele><time>2026-03-28T14:40:50Z</time></trkpt><trkpt lat="36.9608092389986" lon="15.037011998588643"><ele>410.0</ele><time>2026-03-28T14:40:51Z</time></trkpt><trkpt lat="36.96090741427725" lon="15.03711901833378"><ele>409.0</ele><time>2026-03-28T14:40:52Z</time></trkpt><trkpt lat="36.96099493843207" lon="15.037214595258272"><ele>409.0</ele><time>2026-03-28T14:40:53Z</time></trkpt><trkpt lat="36.96107518948602" lon="15.037302218291005"><ele>409.0</ele><time>2026-03-28T14:40:54Z</time></trkpt><trkpt lat="36.96114654706963" lon="15.037375799550988"><ele>409.0</ele><time>2026-03-28T14:40:55Z</time></trkpt><trkpt lat="36.96121188091629" lon="15.037445911832465"><ele>409.0</ele><time>2026-03-28T14:40:56Z</time></trkpt><trkpt lat="36.961259531383114" lon="15.037510708759182"><ele>409.0</ele><time>2026-03-28T14:40:57Z</time></trkpt><trkpt lat="36.96132498557541" lon="15.037615758987961"><ele>409.25</ele><time>2026-03-28T14:40:59Z</time></trkpt><trkpt lat="36.96135905694319" lon="15.03771828797027"><ele>409.5</ele><time>2026-03-28T14:41:03Z</time></trkpt><trkpt lat="36.96148818642495" lon="15.037648234576954"><ele>409.75</ele><time>2026-03-28T14:41:04Z</time></trkpt><trkpt lat="36.96159345175697" lon="15.037592413736817"><ele>410.0</ele><time>2026-03-28T14:41:05Z</time></trkpt><trkpt lat="36.96171488421402" lon="15.037534593433529"><ele>410.75</ele><time>2026-03-28T14:41:06Z</time></trkpt><trkpt lat="36.96184403864486" lon="15.03747612332966"><ele>411.5</ele><time>2026-03-28T14:41:07Z</time></trkpt><trkpt lat="36.961984857777644" lon="15.037421580269077"><ele>412.25</ele><time>2026-03-28T14:41:08Z</time></trkpt><trkpt lat="36.96211147160797" lon="15.037369797056062"><ele>413.0</ele><time>2026-03-28T14:41:09Z</time></trkpt><trkpt lat="36.962214689068496" lon="15.037325965248158"><ele>413.0</ele><time>2026-03-28T14:41:10Z</time></trkpt><trkpt lat="36.962296733470176" lon="15.037291770438873"><ele>413.0</ele><time>2026-03-28T14:41:11Z</time></trkpt><trkpt lat="36.962399784014785" lon="15.037295832820076"><ele>413.0</ele><time>2026-03-28T14:41:13Z</time></trkpt><trkpt lat="36.96243576004984" lon="15.037384878132402"><ele>413.0</ele><time>2026-03-28T14:41:14Z</time></trkpt><trkpt lat="36.962513648678275" lon="15.037487783825421"><ele>413.0</ele><time>2026-03-28T14:41:15Z</time></trkpt><trkpt lat="36.96258893035943" lon="15.037591664982319"><ele>413.8333333333333</ele><time>2026-03-28T14:41:16Z</time></trkpt><trkpt lat="36.96262468710798" lon="15.037672711236121"><ele>414.66666666666663</ele><time>2026-03-28T14:41:17Z</time></trkpt><trkpt lat="36.96265527319953" lon="15.037756900103945"><ele>415.5</ele><time>2026-03-28T14:41:20Z</time></trkpt><trkpt lat="36.96273368605695" lon="15.0377176213399"><ele>416.33333333333337</ele><time>2026-03-28T14:41:21Z</time></trkpt><trkpt lat="36.96281165925508" lon="15.037677543955777"><ele>417.1666666666667</ele><time>2026-03-28T14:41:24Z</time></trkpt><trkpt lat="36.962897594130084" lon="15.037615920140198"><ele>418.0</ele><time>2026-03-28T14:41:26Z</time></trkpt><trkpt lat="36.96296676063084" lon="15.037550449693097"><ele>418.0</ele><time>2026-03-28T14:41:27Z</time></trkpt><trkpt lat="36.96303782384543" lon="15.037472387829196"><ele>418.0</ele><time>2026-03-28T14:41:28Z</time></trkpt><trkpt lat="36.96313331172684" lon="15.037378618583938"><ele>418.0</ele><time>2026-03-28T14:41:29Z</time></trkpt><trkpt lat="36.96323280954726" lon="15.03725527859911"><ele>418.0</ele><time>2026-03-28T14:41:30Z</time></trkpt><trkpt lat="36.963301828106005" lon="15.037141449911719"><ele>419.4</ele><time>2026-03-28T14:41:31Z</time></trkpt><trkpt lat="36.96337593572692" lon="15.037051726642149"><ele>420.79999999999995</ele><time>2026-03-28T14:41:32Z</time></trkpt><trkpt lat="36.96345615217765" lon="15.03696000898773"><ele>422.2</ele><time>2026-03-28T14:41:33Z</time></trkpt><trkpt lat="36.96353117378026" lon="15.03687294396381"><ele>423.6</ele><time>2026-03-28T14:41:34Z</time></trkpt><trkpt lat="36.963607538231905" lon="15.036779452736726"><ele>425.0</ele><time>2026-03-28T14:41:35Z</time></trkpt><trkpt lat="36.963672453425666" lon="15.036696084111332"><ele>426.4</ele><time>2026-03-28T14:41:36Z</time></trkpt><trkpt lat="36.963734320145136" lon="15.036591073553103"><ele>427.8</ele><time>2026-03-28T14:41:37Z</time></trkpt><trkpt lat="36.96380919514763" lon="15.036511447742598"><ele>429.20000000000005</ele><time>2026-03-28T14:41:38Z</time></trkpt><trkpt lat="36.96387109088439" lon="15.036407165985278"><ele>430.6</ele><time>2026-03-28T14:41:39Z</time></trkpt><trkpt lat="36.96395459945186" lon="15.03630636082659"><ele>432.0</ele><time>2026-03-28T14:41:40Z</time></trkpt><trkpt lat="36.96404261028414" lon="15.036187898192509"><ele>432.0</ele><time>2026-03-28T14:41:41Z</time></trkpt><trkpt lat="36.964119532548196" lon="15.036078860684906"><ele>432.00000000000006</ele><time>2026-03-28T14:41:42Z</time></trkpt><trkpt lat="36.964187072531935" lon="15.035988517733847"><ele>432.00000000000006</ele><time>2026-03-28T14:41:43Z</time></trkpt><trkpt lat="36.96424406741396" lon="15.035901827357302"><ele>432.0</ele><time>2026-03-28T14:41:44Z</time></trkpt><trkpt lat="36.96431553157834" lon="15.035799866802623"><ele>432.0</ele><time>2026-03-28T14:41:45Z</time></trkpt><trkpt lat="36.964380481252014" lon="15.035708673439691"><ele>433.20000000000005</ele><time>2026-03-28T14:41:46Z</time></trkpt><trkpt lat="36.964443063957034" lon="15.035636870780344"><ele>434.40000000000003</ele><time>2026-03-28T14:41:47Z</time></trkpt><trkpt lat="36.96453017790173" lon="15.035544735636686"><ele>435.59999999999997</ele><time>2026-03-28T14:41:48Z</time></trkpt><trkpt lat="36.964606270950355" lon="15.035462619812993"><ele>436.79999999999995</ele><time>2026-03-28T14:41:49Z</time></trkpt><trkpt lat="36.96467272242551" lon="15.035394295963"><ele>438.0</ele><time>2026-03-28T14:41:50Z</time></trkpt><trkpt lat="36.96474168339107" lon="15.03533480470768"><ele>438.0</ele><time>2026-03-28T14:41:51Z</time></trkpt><trkpt lat="36.96481141992665" lon="15.03531035186558"><ele>437.99999999999994</ele><time>2026-03-28T14:41:52Z</time></trkpt><trkpt lat="36.96486817006531" lon="15.035253674905311"><ele>437.99999999999994</ele><time>2026-03-28T14:41:53Z</time></trkpt><trkpt lat="36.96496188429281" lon="15.035215761620139"><ele>438.0</ele><time>2026-03-28T14:41:54Z</time></trkpt><trkpt lat="36.9650538273897" lon="15.035165195374121"><ele>438.0</ele><time>2026-03-28T14:41:55Z</time></trkpt><trkpt lat="36.96515404605519" lon="15.035075543475068"><ele>438.0</ele><time>2026-03-28T14:41:56Z</time></trkpt><trkpt lat="36.96525519989813" lon="15.035003410417534"><ele>438.0</ele><time>2026-03-28T14:41:57Z</time></trkpt><trkpt lat="36.96535097027479" lon="15.03493361143174"><ele>438.0</ele><time>2026-03-28T14:41:58Z</time></trkpt><trkpt lat="36.96546577469544" lon="15.034883176394253"><ele>438.0</ele><time>2026-03-28T14:41:59Z</time></trkpt><trkpt lat="36.96556935021983" lon="15.034824474209513"><ele>438.0</ele><time>2026-03-28T14:42:00Z</time></trkpt><trkpt lat="36.96565630253465" lon="15.034776352396879"><ele>437.99999999999994</ele><time>2026-03-28T14:42:01Z</time></trkpt><trkpt lat="36.96573363436896" lon="15.034732253276102"><ele>437.99999999999994</ele><time>2026-03-28T14:42:02Z</time></trkpt><trkpt lat="36.96579542887621" lon="15.034688106287707"><ele>438.0</ele><time>2026-03-28T14:42:03Z</time></trkpt><trkpt lat="36.96584627851849" lon="15.034611983820387"><ele>438.0</ele><time>2026-03-28T14:42:05Z</time></trkpt><trkpt lat="36.96590909526539" lon="15.03446374343906"><ele>438.0</ele><time>2026-03-28T14:42:07Z</time></trkpt><trkpt lat="36.96596654134541" lon="15.034919162952107"><ele>438.0</ele><time>2026-03-28T14:42:10Z</time></trkpt><trkpt lat="36.96601419711344" lon="15.034981546883975"><ele>438.0</ele><time>2026-03-28T14:42:11Z</time></trkpt><trkpt lat="36.966069139253975" lon="15.035041995923677"><ele>437.8333333333333</ele><time>2026-03-28T14:42:12Z</time></trkpt><trkpt lat="36.96611557264611" lon="15.035101319526197"><ele>437.66666666666663</ele><time>2026-03-28T14:42:13Z</time></trkpt><trkpt lat="36.96616721968479" lon="15.035178132263667"><ele>437.5</ele><time>2026-03-28T14:42:14Z</time></trkpt><trkpt lat="36.96621849639318" lon="15.03525534613673"><ele>437.3333333333333</ele><time>2026-03-28T14:42:15Z</time></trkpt><trkpt lat="36.9662666086251" lon="15.03533054761449"><ele>437.16666666666663</ele><time>2026-03-28T14:42:16Z</time></trkpt><trkpt lat="36.966318971060986" lon="15.035404979723069"><ele>437.0</ele><time>2026-03-28T14:42:17Z</time></trkpt><trkpt lat="36.96637426533176" lon="15.035478308500306"><ele>436.99999999999994</ele><time>2026-03-28T14:42:18Z</time></trkpt><trkpt lat="36.96643541152824" lon="15.035535896334048"><ele>437.0</ele><time>2026-03-28T14:42:19Z</time></trkpt><trkpt lat="36.966491772569604" lon="15.03558242202127"><ele>437.0</ele><time>2026-03-28T14:42:20Z</time></trkpt><trkpt lat="36.96655033571061" lon="15.035621510703729"><ele>437.0</ele><time>2026-03-28T14:42:21Z</time></trkpt><trkpt lat="36.966619026222304" lon="15.035647354512179"><ele>436.99999999999994</ele><time>2026-03-28T14:42:22Z</time></trkpt><trkpt lat="36.9667146587411" lon="15.035660746824961"><ele>437.0</ele><time>2026-03-28T14:42:23Z</time></trkpt><trkpt lat="36.96681879030264" lon="15.035671579981878"><ele>436.25</ele><time>2026-03-28T14:42:24Z</time></trkpt><trkpt lat="36.96692609116483" lon="15.035690244412768"><ele>435.5</ele><time>2026-03-28T14:42:25Z</time></trkpt><trkpt lat="36.96703965829253" lon="15.035713829854194"><ele>434.75</ele><time>2026-03-28T14:42:26Z</time></trkpt><trkpt lat="36.96715746247097" lon="15.035737176589702"><ele>434.0</ele><time>2026-03-28T14:42:27Z</time></trkpt><trkpt lat="36.9672746186132" lon="15.035755860262533"><ele>434.0</ele><time>2026-03-28T14:42:28Z</time></trkpt><trkpt lat="36.9673912862486" lon="15.03576864079946"><ele>434.0</ele><time>2026-03-28T14:42:29Z</time></trkpt><trkpt lat="36.967501712440786" lon="15.035782195256491"><ele>434.0</ele><time>2026-03-28T14:42:30Z</time></trkpt><trkpt lat="36.96761501571224" lon="15.03581323358791"><ele>434.0</ele><time>2026-03-28T14:42:31Z</time></trkpt><trkpt lat="36.96773143819102" lon="15.035863551115122"><ele>432.75</ele><time>2026-03-28T14:42:32Z</time></trkpt><trkpt lat="36.96785165902805" lon="15.035913744115156"><ele>431.5</ele><time>2026-03-28T14:42:33Z</time></trkpt><trkpt lat="36.9679819418901" lon="15.035985572332713"><ele>430.25</ele><time>2026-03-28T14:42:34Z</time></trkpt><trkpt lat="36.96810516888466" lon="15.036065814295991"><ele>429.0</ele><time>2026-03-28T14:42:35Z</time></trkpt><trkpt lat="36.968224127773375" lon="15.036154903001007"><ele>429.0</ele><time>2026-03-28T14:42:36Z</time></trkpt><trkpt lat="36.96832518271367" lon="15.036245152981278"><ele>429.0</ele><time>2026-03-28T14:42:37Z</time></trkpt><trkpt lat="36.96843414085647" lon="15.036346179454164"><ele>429.0</ele><time>2026-03-28T14:42:38Z</time></trkpt><trkpt lat="36.96854965504338" lon="15.036455926539606"><ele>429.0</ele><time>2026-03-28T14:42:39Z</time></trkpt><trkpt lat="36.968659613588265" lon="15.036575297867447"><ele>428.0</ele><time>2026-03-28T14:42:40Z</time></trkpt><trkpt lat="36.96875558911632" lon="15.036684558386222"><ele>427.0</ele><time>2026-03-28T14:42:41Z</time></trkpt><trkpt lat="36.96885001844891" lon="15.036791272157117"><ele>426.0</ele><time>2026-03-28T14:42:42Z</time></trkpt><trkpt lat="36.9689429247689" lon="15.036911804204083"><ele>425.0</ele><time>2026-03-28T14:42:43Z</time></trkpt><trkpt lat="36.969017648777765" lon="15.037021341093217"><ele>425.0</ele><time>2026-03-28T14:42:44Z</time></trkpt><trkpt lat="36.96909088979838" lon="15.037117836674506"><ele>425.0</ele><time>2026-03-28T14:42:45Z</time></trkpt><trkpt lat="36.96916165539956" lon="15.037208437043247"><ele>425.0</ele><time>2026-03-28T14:42:46Z</time></trkpt><trkpt lat="36.96922649794765" lon="15.037292765018679"><ele>425.0</ele><time>2026-03-28T14:42:47Z</time></trkpt><trkpt lat="36.96930121405141" lon="15.0373724579914"><ele>425.0</ele><time>2026-03-28T14:42:48Z</time></trkpt><trkpt lat="36.969397118902904" lon="15.037444461048459"><ele>425.2</ele><time>2026-03-28T14:42:49Z</time></trkpt><trkpt lat="36.969506013021096" lon="15.03751709895361"><ele>425.4</ele><time>2026-03-28T14:42:50Z</time></trkpt><trkpt lat="36.96960171490767" lon="15.037578083521385"><ele>425.6</ele><time>2026-03-28T14:42:51Z</time></trkpt><trkpt lat="36.96970078653745" lon="15.03762579557012"><ele>425.8</ele><time>2026-03-28T14:42:52Z</time></trkpt><trkpt lat="36.96980695353538" lon="15.037671541812166"><ele>426.0</ele><time>2026-03-28T14:42:53Z</time></trkpt><trkpt lat="36.96992164137461" lon="15.037714758059893"><ele>426.75</ele><time>2026-03-28T14:42:54Z</time></trkpt><trkpt lat="36.97003878194335" lon="15.03775758162567"><ele>427.5</ele><time>2026-03-28T14:42:55Z</time></trkpt><trkpt lat="36.97016746984453" lon="15.037799016541532"><ele>428.25</ele><time>2026-03-28T14:42:56Z</time></trkpt><trkpt lat="36.97028900039771" lon="15.037834402358143"><ele>429.0</ele><time>2026-03-28T14:42:57Z</time></trkpt><trkpt lat="36.970397189189505" lon="15.037867854720078"><ele>429.0</ele><time>2026-03-28T14:42:58Z</time></trkpt><trkpt lat="36.970512477429004" lon="15.037909032163393"><ele>429.0</ele><time>2026-03-28T14:42:59Z</time></trkpt><trkpt lat="36.970653316493625" lon="15.037955156182258"><ele>429.0</ele><time>2026-03-28T14:43:00Z</time></trkpt><trkpt lat="36.970784443249904" lon="15.037996622215482"><ele>429.0</ele><time>2026-03-28T14:43:01Z</time></trkpt><trkpt lat="36.970909615562505" lon="15.038042855843232"><ele>429.0</ele><time>2026-03-28T14:43:02Z</time></trkpt><trkpt lat="36.97100289540318" lon="15.038079314441912"><ele>429.0</ele><time>2026-03-28T14:43:03Z</time></trkpt><trkpt lat="36.97109496924202" lon="15.0381154003795"><ele>429.0</ele><time>2026-03-28T14:43:04Z</time></trkpt><trkpt lat="36.97118737482152" lon="15.038161889218705"><ele>429.0</ele><time>2026-03-28T14:43:05Z</time></trkpt><trkpt lat="36.9713042912425" lon="15.038223434282042"><ele>429.0</ele><time>2026-03-28T14:43:06Z</time></trkpt><trkpt lat="36.97138994138128" lon="15.03826389376182"><ele>429.0</ele><time>2026-03-28T14:43:07Z</time></trkpt><trkpt lat="36.97148139364378" lon="15.038296732747305"><ele>429.0</ele><time>2026-03-28T14:43:08Z</time></trkpt><trkpt lat="36.97156260826304" lon="15.038319340126021"><ele>429.0</ele><time>2026-03-28T14:43:09Z</time></trkpt><trkpt lat="36.97164520241473" lon="15.038330607509998"><ele>429.0</ele><time>2026-03-28T14:43:10Z</time></trkpt><trkpt lat="36.97174904837192" lon="15.038344733289245"><ele>429.0</ele><time>2026-03-28T14:43:11Z</time></trkpt><trkpt lat="36.9718402596798" lon="15.038363985620572"><ele>428.5</ele><time>2026-03-28T14:43:12Z</time></trkpt><trkpt lat="36.97192762317306" lon="15.038377128858603"><ele>428.0</ele><time>2026-03-28T14:43:13Z</time></trkpt><trkpt lat="36.972007578733994" lon="15.038380467937454"><ele>427.5</ele><time>2026-03-28T14:43:14Z</time></trkpt><trkpt lat="36.97208460950649" lon="15.038367446784916"><ele>427.0</ele><time>2026-03-28T14:43:15Z</time></trkpt><trkpt lat="36.97216336794651" lon="15.038345907378888"><ele>426.5</ele><time>2026-03-28T14:43:16Z</time></trkpt><trkpt lat="36.97226239865012" lon="15.038277027714926"><ele>426.0</ele><time>2026-03-28T14:43:18Z</time></trkpt><trkpt lat="36.97232599703733" lon="15.038207807446094"><ele>426.0</ele><time>2026-03-28T14:43:19Z</time></trkpt><trkpt lat="36.972416423330344" lon="15.038123148009378"><ele>426.0</ele><time>2026-03-28T14:43:20Z</time></trkpt><trkpt lat="36.972500424407514" lon="15.038049524288033"><ele>426.0</ele><time>2026-03-28T14:43:21Z</time></trkpt><trkpt lat="36.97258415767697" lon="15.03798202280043"><ele>426.0</ele><time>2026-03-28T14:43:22Z</time></trkpt><trkpt lat="36.97265395448891" lon="15.037914830085551"><ele>426.0</ele><time>2026-03-28T14:43:23Z</time></trkpt><trkpt lat="36.97271578367896" lon="15.037848487246505"><ele>426.0</ele><time>2026-03-28T14:43:24Z</time></trkpt><trkpt lat="36.9727769543064" lon="15.037788869840815"><ele>426.0</ele><time>2026-03-28T14:43:25Z</time></trkpt><trkpt lat="36.9728443733272" lon="15.037732959652935"><ele>426.0</ele><time>2026-03-28T14:43:26Z</time></trkpt><trkpt lat="36.97291379443142" lon="15.037684735632432"><ele>426.0</ele><time>2026-03-28T14:43:27Z</time></trkpt><trkpt lat="36.9729802263694" lon="15.037650362314015"><ele>426.0</ele><time>2026-03-28T14:43:28Z</time></trkpt><trkpt lat="36.973048755193645" lon="15.037632027879464"><ele>426.0</ele><time>2026-03-28T14:43:29Z</time></trkpt><trkpt lat="36.97315000034905" lon="15.037670302053598"><ele>425.99999999999994</ele><time>2026-03-28T14:43:31Z</time></trkpt><trkpt lat="36.973208498076886" lon="15.037742193239293"><ele>426.0</ele><time>2026-03-28T14:43:33Z</time></trkpt><trkpt lat="36.973263524424794" lon="15.03778857894489"><ele>426.0</ele><time>2026-03-28T14:43:35Z</time></trkpt><trkpt lat="36.973316114283506" lon="15.037837254848665"><ele>426.0</ele><time>2026-03-28T14:43:37Z</time></trkpt><trkpt lat="36.97334440706139" lon="15.037922992595494"><ele>426.0</ele><time>2026-03-28T14:43:40Z</time></trkpt><trkpt lat="36.973382133363444" lon="15.03799391447089"><ele>425.99999999999994</ele><time>2026-03-28T14:43:43Z</time></trkpt><trkpt lat="36.97344537394734" lon="15.038052977763181"><ele>426.0</ele><time>2026-03-28T14:43:47Z</time></trkpt><trkpt lat="36.973484661435585" lon="15.038134056838697"><ele>426.99999999999994</ele><time>2026-03-28T14:43:51Z</time></trkpt><trkpt lat="36.97350429118659" lon="15.038212649280236"><ele>428.0</ele><time>2026-03-28T14:44:05Z</time></trkpt><trkpt lat="36.973513109066396" lon="15.03830129800706"><ele>429.0</ele><time>2026-03-28T14:44:14Z</time></trkpt><trkpt lat="36.97351778583662" lon="15.038385698416397"><ele>430.0</ele><time>2026-03-28T14:44:17Z</time></trkpt><trkpt lat="36.97353226872776" lon="15.03847573381012"><ele>431.0</ele><time>2026-03-28T14:44:22Z</time></trkpt><trkpt lat="36.97353089648894" lon="15.03856260167269"><ele>431.99999999999994</ele><time>2026-03-28T14:44:26Z</time></trkpt><trkpt lat="36.973523334490444" lon="15.038655139909887"><ele>433.0</ele><time>2026-03-28T14:44:31Z</time></trkpt><trkpt lat="36.973529204378586" lon="15.038742214969865"><ele>433.83333333333337</ele><time>2026-03-28T14:44:35Z</time></trkpt><trkpt lat="36.9735445398339" lon="15.03882840570958"><ele>434.6666666666667</ele><time>2026-03-28T14:44:39Z</time></trkpt><trkpt lat="36.97353278668761" lon="15.038910697818016"><ele>435.5</ele><time>2026-03-28T14:44:58Z</time></trkpt><trkpt lat="36.97354460798132" lon="15.039017163808975"><ele>436.33333333333337</ele><time>2026-03-28T14:45:01Z</time></trkpt><trkpt lat="36.97354715984784" lon="15.039097905089015"><ele>437.1666666666667</ele><time>2026-03-28T14:45:04Z</time></trkpt><trkpt lat="36.97357423819203" lon="15.03920253510983"><ele>438.0</ele><time>2026-03-28T14:45:07Z</time></trkpt><trkpt lat="36.97359972880942" lon="15.039299185800594"><ele>438.0</ele><time>2026-03-28T14:45:10Z</time></trkpt><trkpt lat="36.97359714064689" lon="15.039388111452164"><ele>438.0</ele><time>2026-03-28T14:45:14Z</time></trkpt><trkpt lat="36.973628488743735" lon="15.039460816650536"><ele>438.0</ele><time>2026-03-28T14:45:23Z</time></trkpt><trkpt lat="36.97361363658442" lon="15.039542563364305"><ele>438.0</ele><time>2026-03-28T14:45:28Z</time></trkpt><trkpt lat="36.97363047269662" lon="15.039641732775424"><ele>438.0</ele><time>2026-03-28T14:45:36Z</time></trkpt><trkpt lat="36.973672475331504" lon="15.039751468233147"><ele>438.0</ele><time>2026-03-28T14:45:39Z</time></trkpt><trkpt lat="36.973655320022495" lon="15.0398282922325"><ele>438.0</ele><time>2026-03-28T14:45:41Z</time></trkpt><trkpt lat="36.9736581171404" lon="15.039910807072802"><ele>437.6666666666667</ele><time>2026-03-28T14:45:46Z</time></trkpt><trkpt lat="36.973670743057745" lon="15.040005250749102"><ele>437.33333333333337</ele><time>2026-03-28T14:45:52Z</time></trkpt><trkpt lat="36.97370868464381" lon="15.040098654877422"><ele>437.0</ele><time>2026-03-28T14:45:55Z</time></trkpt><trkpt lat="36.97372290145672" lon="15.040190404797762"><ele>436.6666666666667</ele><time>2026-03-28T14:45:59Z</time></trkpt><trkpt lat="36.97372130723667" lon="15.040278081539077"><ele>436.33333333333337</ele><time>2026-03-28T14:46:02Z</time></trkpt><trkpt lat="36.97372747332959" lon="15.04037523535286"><ele>436.0</ele><time>2026-03-28T14:46:05Z</time></trkpt><trkpt lat="36.97377325374863" lon="15.040461931911"><ele>436.00000000000006</ele><time>2026-03-28T14:46:08Z</time></trkpt><trkpt lat="36.97376958004381" lon="15.040558622625605"><ele>436.0</ele><time>2026-03-28T14:46:11Z</time></trkpt><trkpt lat="36.97383336755495" lon="15.040655360178445"><ele>436.0</ele><time>2026-03-28T14:49:09Z</time></trkpt><trkpt lat="36.973894329083244" lon="15.040791061523722"><ele>436.0</ele><time>2026-03-28T14:49:11Z</time></trkpt><trkpt lat="36.973936985243526" lon="15.040875772729528"><ele>436.00000000000006</ele><time>2026-03-28T14:49:12Z</time></trkpt><trkpt lat="36.97397646186987" lon="15.040943083998554"><ele>436.0</ele><time>2026-03-28T14:49:13Z</time></trkpt><trkpt lat="36.97405277290583" lon="15.04105506382715"><ele>435.6666666666667</ele><time>2026-03-28T14:49:15Z</time></trkpt><trkpt lat="36.97410935186376" lon="15.041123477569474"><ele>435.33333333333337</ele><time>2026-03-28T14:49:16Z</time></trkpt><trkpt lat="36.974161490652726" lon="15.041195048688127"><ele>435.0</ele><time>2026-03-28T14:49:17Z</time></trkpt><trkpt lat="36.97419830536569" lon="15.041265406969488"><ele>434.66666666666663</ele><time>2026-03-28T14:49:18Z</time></trkpt><trkpt lat="36.974273475660695" lon="15.041386102300613"><ele>434.3333333333333</ele><time>2026-03-28T14:49:20Z</time></trkpt><trkpt lat="36.974325181106884" lon="15.041448767768989"><ele>434.0</ele><time>2026-03-28T14:49:21Z</time></trkpt><trkpt lat="36.97437952975453" lon="15.041517607040554"><ele>433.3333333333333</ele><time>2026-03-28T14:49:22Z</time></trkpt><trkpt lat="36.97443240690966" lon="15.041578378088662"><ele>432.66666666666663</ele><time>2026-03-28T14:49:23Z</time></trkpt><trkpt lat="36.974504216058456" lon="15.0416319678771"><ele>432.0</ele><time>2026-03-28T14:49:24Z</time></trkpt><trkpt lat="36.974584740998786" lon="15.041686790807924"><ele>431.33333333333337</ele><time>2026-03-28T14:49:25Z</time></trkpt><trkpt lat="36.97465283131817" lon="15.041730804188008"><ele>430.6666666666667</ele><time>2026-03-28T14:49:26Z</time></trkpt><trkpt lat="36.97471010288624" lon="15.041769284167154"><ele>430.0</ele><time>2026-03-28T14:49:27Z</time></trkpt><trkpt lat="36.974768048898824" lon="15.041832842514703"><ele>430.0</ele><time>2026-03-28T14:49:29Z</time></trkpt><trkpt lat="36.97484676679177" lon="15.041847782291804"><ele>430.0</ele><time>2026-03-28T14:49:33Z</time></trkpt><trkpt lat="36.97487031310526" lon="15.041560303193876"><ele>430.0</ele><time>2026-03-28T14:49:34Z</time></trkpt><trkpt lat="36.97489002408272" lon="15.04148185448541"><ele>430.0</ele><time>2026-03-28T14:49:35Z</time></trkpt><trkpt lat="36.97492248726533" lon="15.041365401395637"><ele>430.0</ele><time>2026-03-28T14:49:37Z</time></trkpt><trkpt lat="36.974967081111586" lon="15.041216976295933"><ele>430.0</ele><time>2026-03-28T14:49:39Z</time></trkpt><trkpt lat="36.975000770830505" lon="15.041074311500592"><ele>430.0</ele><time>2026-03-28T14:49:41Z</time></trkpt><trkpt lat="36.97502190926139" lon="15.040994912362347"><ele>430.0</ele><time>2026-03-28T14:49:42Z</time></trkpt><trkpt lat="36.975067851616274" lon="15.04084349658373"><ele>430.0</ele><time>2026-03-28T14:49:44Z</time></trkpt><trkpt lat="36.975093873047214" lon="15.040762176989514"><ele>429.00000000000006</ele><time>2026-03-28T14:49:45Z</time></trkpt><trkpt lat="36.975122203767526" lon="15.040670147799641"><ele>428.0</ele><time>2026-03-28T14:49:46Z</time></trkpt><trkpt lat="36.97515624182834" lon="15.040566138708238"><ele>427.0</ele><time>2026-03-28T14:49:47Z</time></trkpt><trkpt lat="36.975193640680054" lon="15.040459598999256"><ele>426.0</ele><time>2026-03-28T14:49:48Z</time></trkpt><trkpt lat="36.97523181393293" lon="15.040360115568426"><ele>425.00000000000006</ele><time>2026-03-28T14:49:49Z</time></trkpt><trkpt lat="36.97527201132653" lon="15.040263742966035"><ele>424.0</ele><time>2026-03-28T14:49:50Z</time></trkpt><trkpt lat="36.97532045485037" lon="15.040160315711354"><ele>424.0</ele><time>2026-03-28T14:49:51Z</time></trkpt><trkpt lat="36.9753731818385" lon="15.04004790878924"><ele>424.0</ele><time>2026-03-28T14:49:52Z</time></trkpt><trkpt lat="36.975430686665206" lon="15.039913891925092"><ele>424.0</ele><time>2026-03-28T14:49:53Z</time></trkpt><trkpt lat="36.975497480633756" lon="15.039776428396125"><ele>424.0</ele><time>2026-03-28T14:49:54Z</time></trkpt><trkpt lat="36.97555797786384" lon="15.039636652585438"><ele>425.25</ele><time>2026-03-28T14:49:55Z</time></trkpt><trkpt lat="36.975622205954735" lon="15.039500640187661"><ele>426.5</ele><time>2026-03-28T14:49:56Z</time></trkpt><trkpt lat="36.97568486198803" lon="15.039368260102725"><ele>427.75</ele><time>2026-03-28T14:49:57Z</time></trkpt><trkpt lat="36.97574767852244" lon="15.039231152860362"><ele>429.0</ele><time>2026-03-28T14:49:58Z</time></trkpt><trkpt lat="36.97580858670421" lon="15.039080365667253"><ele>426.75</ele><time>2026-03-28T14:49:59Z</time></trkpt><trkpt lat="36.97588910563513" lon="15.03892953540525"><ele>424.5</ele><time>2026-03-28T14:50:00Z</time></trkpt><trkpt lat="36.97594443191166" lon="15.03876838180368"><ele>422.25</ele><time>2026-03-28T14:50:01Z</time></trkpt><trkpt lat="36.97602409513531" lon="15.03862974249711"><ele>420.0</ele><time>2026-03-28T14:50:02Z</time></trkpt><trkpt lat="36.97608686789374" lon="15.038471099062793"><ele>420.0</ele><time>2026-03-28T14:50:03Z</time></trkpt><trkpt lat="36.976158144378736" lon="15.038323147871328"><ele>420.0</ele><time>2026-03-28T14:50:04Z</time></trkpt><trkpt lat="36.97626102281768" lon="15.038194744044514"><ele>420.0</ele><time>2026-03-28T14:50:05Z</time></trkpt><trkpt lat="36.97636275879456" lon="15.038056899873112"><ele>420.0</ele><time>2026-03-28T14:50:06Z</time></trkpt><trkpt lat="36.97645746482313" lon="15.037915723689466"><ele>420.0</ele><time>2026-03-28T14:50:07Z</time></trkpt><trkpt lat="36.976564149938206" lon="15.0377897463193"><ele>420.0</ele><time>2026-03-28T14:50:08Z</time></trkpt><trkpt lat="36.97666482436754" lon="15.037670706641563"><ele>420.0</ele><time>2026-03-28T14:50:09Z</time></trkpt><trkpt lat="36.976773539723794" lon="15.037562022200419"><ele>420.0</ele><time>2026-03-28T14:50:10Z</time></trkpt><trkpt lat="36.97688419154216" lon="15.037458857550268"><ele>423.0</ele><time>2026-03-28T14:50:11Z</time></trkpt><trkpt lat="36.97700179477828" lon="15.037348848706504"><ele>426.0</ele><time>2026-03-28T14:50:12Z</time></trkpt><trkpt lat="36.977125402621745" lon="15.037231644361881"><ele>429.0</ele><time>2026-03-28T14:50:13Z</time></trkpt><trkpt lat="36.97724944672044" lon="15.037112309667645"><ele>429.0</ele><time>2026-03-28T14:50:14Z</time></trkpt><trkpt lat="36.9773764868644" lon="15.036980671120094"><ele>429.0</ele><time>2026-03-28T14:50:15Z</time></trkpt><trkpt lat="36.97750659427079" lon="15.036836777480264"><ele>429.0</ele><time>2026-03-28T14:50:16Z</time></trkpt><trkpt lat="36.97763822425579" lon="15.03669048940969"><ele>428.0</ele><time>2026-03-28T14:50:17Z</time></trkpt><trkpt lat="36.97775069227563" lon="15.036566715315084"><ele>427.0</ele><time>2026-03-28T14:50:18Z</time></trkpt><trkpt lat="36.97784787583897" lon="15.03645732154789"><ele>426.0</ele><time>2026-03-28T14:50:19Z</time></trkpt><trkpt lat="36.977939779071924" lon="15.036343057338879"><ele>425.0</ele><time>2026-03-28T14:50:20Z</time></trkpt><trkpt lat="36.9780218574479" lon="15.036228738205178"><ele>425.0</ele><time>2026-03-28T14:50:21Z</time></trkpt><trkpt lat="36.978095306130136" lon="15.036107346858152"><ele>425.0</ele><time>2026-03-28T14:50:22Z</time></trkpt><trkpt lat="36.97816531659512" lon="15.035972936497197"><ele>425.0</ele><time>2026-03-28T14:50:23Z</time></trkpt><trkpt lat="36.97823230931605" lon="15.035838218250955"><ele>425.0</ele><time>2026-03-28T14:50:24Z</time></trkpt><trkpt lat="36.978295982840564" lon="15.03571247119224"><ele>424.75</ele><time>2026-03-28T14:50:25Z</time></trkpt><trkpt lat="36.9783634457405" lon="15.035575100149817"><ele>424.5</ele><time>2026-03-28T14:50:26Z</time></trkpt><trkpt lat="36.97843330793648" lon="15.035433360147511"><ele>424.25</ele><time>2026-03-28T14:50:27Z</time></trkpt><trkpt lat="36.97849848266638" lon="15.035287530260282"><ele>424.0</ele><time>2026-03-28T14:50:28Z</time></trkpt><trkpt lat="36.978575858637384" lon="15.035166213554303"><ele>424.0</ele><time>2026-03-28T14:50:29Z</time></trkpt><trkpt lat="36.97863320119127" lon="15.03502014116962"><ele>424.0</ele><time>2026-03-28T14:50:30Z</time></trkpt><trkpt lat="36.978710582223115" lon="15.03487852696138"><ele>424.0</ele><time>2026-03-28T14:50:31Z</time></trkpt><trkpt lat="36.97878515073856" lon="15.034739636011533"><ele>424.0</ele><time>2026-03-28T14:50:32Z</time></trkpt><trkpt lat="36.97885536194341" lon="15.034615423260108"><ele>425.25</ele><time>2026-03-28T14:50:33Z</time></trkpt><trkpt lat="36.978935098665005" lon="15.034495397062908"><ele>426.5</ele><time>2026-03-28T14:50:34Z</time></trkpt><trkpt lat="36.97900974698676" lon="15.03437701796333"><ele>427.75</ele><time>2026-03-28T14:50:35Z</time></trkpt><trkpt lat="36.9790768259196" lon="15.03425655552972"><ele>429.0</ele><time>2026-03-28T14:50:36Z</time></trkpt><trkpt lat="36.97914394462921" lon="15.034133822741124"><ele>428.5</ele><time>2026-03-28T14:50:37Z</time></trkpt><trkpt lat="36.97921200155806" lon="15.03400566699218"><ele>428.0</ele><time>2026-03-28T14:50:38Z</time></trkpt><trkpt lat="36.979281995810176" lon="15.033875654708599"><ele>427.5</ele><time>2026-03-28T14:50:39Z</time></trkpt><trkpt lat="36.979349690476624" lon="15.03375605745592"><ele>427.0</ele><time>2026-03-28T14:50:40Z</time></trkpt><trkpt lat="36.979405662968965" lon="15.033646699617439"><ele>427.00000000000006</ele><time>2026-03-28T14:50:41Z</time></trkpt><trkpt lat="36.97944698761206" lon="15.033544417690555"><ele>427.0</ele><time>2026-03-28T14:50:42Z</time></trkpt><trkpt lat="36.979476083253246" lon="15.033442710578173"><ele>427.0</ele><time>2026-03-28T14:50:43Z</time></trkpt><trkpt lat="36.979513168291476" lon="15.033354344043346"><ele>427.0</ele><time>2026-03-28T14:50:44Z</time></trkpt><trkpt lat="36.97953448361082" lon="15.03326715598635"><ele>427.00000000000006</ele><time>2026-03-28T14:50:46Z</time></trkpt><trkpt lat="36.979553758110534" lon="15.03318444139758"><ele>427.0</ele><time>2026-03-28T14:50:48Z</time></trkpt><trkpt lat="36.97955738361564" lon="15.033099188358404"><ele>427.33333333333337</ele><time>2026-03-28T14:50:50Z</time></trkpt><trkpt lat="36.979576756149584" lon="15.032997450857398"><ele>427.6666666666667</ele><time>2026-03-28T14:50:53Z</time></trkpt><trkpt lat="36.97960518711791" lon="15.032915384748929"><ele>428.0</ele><time>2026-03-28T14:50:56Z</time></trkpt><trkpt lat="36.97966757047127" lon="15.032867807499633"><ele>428.33333333333337</ele><time>2026-03-28T14:51:01Z</time></trkpt><trkpt lat="36.979719672553806" lon="15.032932250636685"><ele>428.6666666666667</ele><time>2026-03-28T14:51:03Z</time></trkpt><trkpt lat="36.979796457866115" lon="15.033048411624575"><ele>429.0</ele><time>2026-03-28T14:51:05Z</time></trkpt><trkpt lat="36.97984623984675" lon="15.03311122108638"><ele>429.0</ele><time>2026-03-28T14:51:06Z</time></trkpt><trkpt lat="36.97989766681758" lon="15.03316863284387"><ele>429.0</ele><time>2026-03-28T14:51:07Z</time></trkpt><trkpt lat="36.979970426955" lon="15.033258161354311"><ele>429.0</ele><time>2026-03-28T14:51:08Z</time></trkpt><trkpt lat="36.98004048478815" lon="15.03334719773582"><ele>429.0</ele><time>2026-03-28T14:51:09Z</time></trkpt><trkpt lat="36.980087521496586" lon="15.033430789676117"><ele>429.0</ele><time>2026-03-28T14:51:10Z</time></trkpt><trkpt lat="36.9801448568865" lon="15.033496507561981"><ele>429.0</ele><time>2026-03-28T14:51:11Z</time></trkpt><trkpt lat="36.98020329737985" lon="15.033561042805108"><ele>429.2</ele><time>2026-03-28T14:51:12Z</time></trkpt><trkpt lat="36.980258090317975" lon="15.033652579337065"><ele>429.4</ele><time>2026-03-28T14:51:14Z</time></trkpt><trkpt lat="36.980181999949245" lon="15.033717348002208"><ele>429.6</ele><time>2026-03-28T14:51:17Z</time></trkpt><trkpt lat="36.98013329361201" lon="15.033798774131759"><ele>429.8</ele><time>2026-03-28T14:51:18Z</time></trkpt><trkpt lat="36.98011126332601" lon="15.033920208533445"><ele>430.0</ele><time>2026-03-28T14:51:19Z</time></trkpt><trkpt lat="36.98006656428533" lon="15.034014430239306"><ele>430.0</ele><time>2026-03-28T14:51:20Z</time></trkpt><trkpt lat="36.98002391865225" lon="15.034091771541247"><ele>430.0</ele><time>2026-03-28T14:51:21Z</time></trkpt><trkpt lat="36.97995716032513" lon="15.034215384296767"><ele>430.0</ele><time>2026-03-28T14:51:23Z</time></trkpt><trkpt lat="36.97992798450518" lon="15.034294165738666"><ele>430.0</ele><time>2026-03-28T14:51:24Z</time></trkpt><trkpt lat="36.979867744605976" lon="15.034429651810125"><ele>430.0</ele><time>2026-03-28T14:51:26Z</time></trkpt><trkpt lat="36.979854690733674" lon="15.034534772438954"><ele>429.4</ele><time>2026-03-28T14:51:27Z</time></trkpt><trkpt lat="36.97982212231184" lon="15.034625655883318"><ele>428.8</ele><time>2026-03-28T14:51:28Z</time></trkpt><trkpt lat="36.9798079690065" lon="15.03475895311892"><ele>428.20000000000005</ele><time>2026-03-28T14:51:30Z</time></trkpt><trkpt lat="36.97985499024828" lon="15.034880718649402"><ele>427.6</ele><time>2026-03-28T14:51:32Z</time></trkpt><trkpt lat="36.97987974546218" lon="15.034983431075727"><ele>427.0</ele><time>2026-03-28T14:51:33Z</time></trkpt><trkpt lat="36.97991182755919" lon="15.03507232341145"><ele>427.0</ele><time>2026-03-28T14:51:34Z</time></trkpt><trkpt lat="36.9799587481113" lon="15.035210776771782"><ele>427.00000000000006</ele><time>2026-03-28T14:51:36Z</time></trkpt><trkpt lat="36.979993898549886" lon="15.035373144245078"><ele>427.00000000000006</ele><time>2026-03-28T14:51:38Z</time></trkpt><trkpt lat="36.98000299620161" lon="15.035453041091953"><ele>427.0</ele><time>2026-03-28T14:51:39Z</time></trkpt><trkpt lat="36.97999560628455" lon="15.035598045729996"><ele>427.0</ele><time>2026-03-28T14:51:41Z</time></trkpt><trkpt lat="36.9799896175922" lon="15.035706265491731"><ele>427.20000000000005</ele><time>2026-03-28T14:51:42Z</time></trkpt><trkpt lat="36.97998091894811" lon="15.035823669909844"><ele>427.40000000000003</ele><time>2026-03-28T14:51:43Z</time></trkpt><trkpt lat="36.979989285424836" lon="15.035944735272958"><ele>427.59999999999997</ele><time>2026-03-28T14:51:44Z</time></trkpt><trkpt lat="36.9799818422833" lon="15.036063841264166"><ele>427.79999999999995</ele><time>2026-03-28T14:51:45Z</time></trkpt><trkpt lat="36.97997447249912" lon="15.036218385321245"><ele>428.0</ele><time>2026-03-28T14:51:46Z</time></trkpt><trkpt lat="36.979954070049935" lon="15.036372547927444"><ele>428.0</ele><time>2026-03-28T14:51:47Z</time></trkpt><trkpt lat="36.979948198134366" lon="15.036511571903308"><ele>428.0</ele><time>2026-03-28T14:51:48Z</time></trkpt><trkpt lat="36.97994125314431" lon="15.03665110092671"><ele>428.0</ele><time>2026-03-28T14:51:49Z</time></trkpt><trkpt lat="36.97993324211204" lon="15.036792220676462"><ele>428.0</ele><time>2026-03-28T14:51:50Z</time></trkpt><trkpt lat="36.97994157973526" lon="15.03693470719256"><ele>428.0</ele><time>2026-03-28T14:51:51Z</time></trkpt><trkpt lat="36.979928329624975" lon="15.037087175281362"><ele>427.99999999999994</ele><time>2026-03-28T14:51:52Z</time></trkpt><trkpt lat="36.979920174370065" lon="15.037205552686375"><ele>427.99999999999994</ele><time>2026-03-28T14:51:53Z</time></trkpt><trkpt lat="36.97991807807326" lon="15.037291528409341"><ele>428.0</ele><time>2026-03-28T14:51:54Z</time></trkpt><trkpt lat="36.979919983992104" lon="15.03737434203742"><ele>428.0</ele><time>2026-03-28T14:51:55Z</time></trkpt><trkpt lat="36.97991401760857" lon="15.03751674160511"><ele>427.99999999999994</ele><time>2026-03-28T14:51:57Z</time></trkpt><trkpt lat="36.97993518436158" lon="15.037635482869934"><ele>428.0</ele><time>2026-03-28T14:51:59Z</time></trkpt><trkpt lat="36.97999085245897" lon="15.037725876123544"><ele>428.0</ele><time>2026-03-28T14:52:01Z</time></trkpt><trkpt lat="36.98000692279838" lon="15.037813038614484"><ele>428.0</ele><time>2026-03-28T14:52:04Z</time></trkpt><trkpt lat="36.97994587196897" lon="15.037854099782658"><ele>427.99999999999994</ele><time>2026-03-28T14:52:06Z</time></trkpt><trkpt lat="36.97987716791651" lon="15.037909969899601"><ele>428.0</ele><time>2026-03-28T14:52:08Z</time></trkpt><trkpt lat="36.979836415125305" lon="15.038001127365082"><ele>427.99999999999994</ele><time>2026-03-28T14:52:10Z</time></trkpt><trkpt lat="36.97979305165465" lon="15.038094205308752"><ele>428.0</ele><time>2026-03-28T14:52:12Z</time></trkpt><trkpt lat="36.979730917276505" lon="15.038173811730054"><ele>428.0</ele><time>2026-03-28T14:52:14Z</time></trkpt><trkpt lat="36.979679133788856" lon="15.038255468666884"><ele>428.0</ele><time>2026-03-28T14:52:16Z</time></trkpt><trkpt lat="36.9796201802962" lon="15.03832042585917"><ele>427.99999999999994</ele><time>2026-03-28T14:52:18Z</time></trkpt><trkpt lat="36.97957148262282" lon="15.038402265056153"><ele>428.0</ele><time>2026-03-28T14:52:20Z</time></trkpt><trkpt lat="36.97951351216584" lon="15.038472743073628"><ele>426.2</ele><time>2026-03-28T14:52:22Z</time></trkpt><trkpt lat="36.979451842158944" lon="15.038563232294145"><ele>424.4</ele><time>2026-03-28T14:52:24Z</time></trkpt><trkpt lat="36.979405931713636" lon="15.038698310267455"><ele>422.59999999999997</ele><time>2026-03-28T14:52:27Z</time></trkpt><trkpt lat="36.97938130899418" lon="15.038780157972585"><ele>420.79999999999995</ele><time>2026-03-28T14:52:28Z</time></trkpt><trkpt lat="36.979400298359685" lon="15.038963154207167"><ele>419.0</ele><time>2026-03-28T14:52:30Z</time></trkpt><trkpt lat="36.97938331459221" lon="15.039093324596292"><ele>417.6</ele><time>2026-03-28T14:52:32Z</time></trkpt><trkpt lat="36.97936828720413" lon="15.039214359467966"><ele>416.2</ele><time>2026-03-28T14:52:34Z</time></trkpt><trkpt lat="36.97935227320914" lon="15.039304828367504"><ele>414.8</ele><time>2026-03-28T14:52:36Z</time></trkpt><trkpt lat="36.97933199031181" lon="15.03938679640716"><ele>413.40000000000003</ele><time>2026-03-28T14:52:38Z</time></trkpt><trkpt lat="36.97922373493221" lon="15.039317997004362"><ele>412.0</ele><time>2026-03-28T14:52:42Z</time></trkpt><trkpt lat="36.9791278933905" lon="15.039361051552314"><ele>411.1666666666667</ele><time>2026-03-28T14:52:44Z</time></trkpt><trkpt lat="36.97902283960548" lon="15.039383828988788"><ele>410.33333333333337</ele><time>2026-03-28T14:52:46Z</time></trkpt><trkpt lat="36.97897850049003" lon="15.039472886632524"><ele>409.5</ele><time>2026-03-28T14:52:49Z</time></trkpt><trkpt lat="36.9789332896293" lon="15.039532603986412"><ele>408.66666666666663</ele><time>2026-03-28T14:52:52Z</time></trkpt><trkpt lat="36.978943057238666" lon="15.039619345197472"><ele>407.8333333333333</ele><time>2026-03-28T14:53:04Z</time></trkpt><trkpt lat="36.97901637854882" lon="15.039696567924954"><ele>407.0</ele><time>2026-03-28T14:53:14Z</time></trkpt><trkpt lat="36.979088227248376" lon="15.039690914940419"><ele>407.00000000000006</ele><time>2026-03-28T14:53:17Z</time></trkpt><trkpt lat="36.97915108025811" lon="15.039743178522935"><ele>407.0</ele><time>2026-03-28T14:53:23Z</time></trkpt><trkpt lat="36.979142930647555" lon="15.039836571932982"><ele>407.0</ele><time>2026-03-28T14:53:30Z</time></trkpt><trkpt lat="36.97909945852921" lon="15.03989940627869"><ele>407.0</ele><time>2026-03-28T14:53:39Z</time></trkpt><trkpt lat="36.97906554016721" lon="15.039968136480763"><ele>407.0</ele><time>2026-03-28T14:53:45Z</time></trkpt><trkpt lat="36.97900517423436" lon="15.040027466294784"><ele>407.00000000000006</ele><time>2026-03-28T14:54:01Z</time></trkpt><trkpt lat="36.97895234022221" lon="15.040077077454047"><ele>407.0</ele><time>2026-03-28T14:54:06Z</time></trkpt><trkpt lat="36.97889153125733" lon="15.040144213202048"><ele>405.66666666666663</ele><time>2026-03-28T14:54:10Z</time></trkpt><trkpt lat="36.978830966520746" lon="15.04019444900849"><ele>404.3333333333333</ele><time>2026-03-28T14:54:15Z</time></trkpt><trkpt lat="36.97877803652939" lon="15.040273201025236"><ele>403.0</ele><time>2026-03-28T14:54:19Z</time></trkpt><trkpt lat="36.97872880941439" lon="15.04033945352436"><ele>401.66666666666663</ele><time>2026-03-28T14:54:23Z</time></trkpt><trkpt lat="36.97868929131679" lon="15.04043106778776"><ele>400.3333333333333</ele><time>2026-03-28T14:54:27Z</time></trkpt><trkpt lat="36.978640274195655" lon="15.040537704233309"><ele>399.0</ele><time>2026-03-28T14:54:30Z</time></trkpt><trkpt lat="36.9786142829252" lon="15.040618958233535"><ele>399.0</ele><time>2026-03-28T14:54:34Z</time></trkpt><trkpt lat="36.978584704501245" lon="15.04069048275666"><ele>399.0</ele><time>2026-03-28T14:54:45Z</time></trkpt><trkpt lat="36.97858760558467" lon="15.04078493267871"><ele>399.0</ele><time>2026-03-28T14:54:49Z</time></trkpt><trkpt lat="36.9785986275636" lon="15.040882321753424"><ele>399.0</ele><time>2026-03-28T14:54:57Z</time></trkpt><trkpt lat="36.97861309128593" lon="15.04096450787131"><ele>399.0</ele><time>2026-03-28T14:55:02Z</time></trkpt><trkpt lat="36.978655887033796" lon="15.04104006615971"><ele>399.0</ele><time>2026-03-28T14:55:07Z</time></trkpt><trkpt lat="36.978697688521386" lon="15.041114588419777"><ele>399.0</ele><time>2026-03-28T14:55:12Z</time></trkpt><trkpt lat="36.978734197298095" lon="15.041184834709318"><ele>399.0</ele><time>2026-03-28T14:55:31Z</time></trkpt><trkpt lat="36.9787774769179" lon="15.041268838904745"><ele>399.0</ele><time>2026-03-28T14:55:34Z</time></trkpt><trkpt lat="36.978824969312264" lon="15.04134621463121"><ele>399.0</ele><time>2026-03-28T14:55:38Z</time></trkpt><trkpt lat="36.97886824279981" lon="15.0414202925008"><ele>399.0</ele><time>2026-03-28T14:55:42Z</time></trkpt><trkpt lat="36.97890948803241" lon="15.041494867377954"><ele>399.0</ele><time>2026-03-28T14:55:46Z</time></trkpt><trkpt lat="36.9789534340625" lon="15.04157219104193"><ele>399.0</ele><time>2026-03-28T14:55:51Z</time></trkpt><trkpt lat="36.97899975929992" lon="15.041643258789795"><ele>396.3333333333333</ele><time>2026-03-28T14:55:55Z</time></trkpt><trkpt lat="36.97904831274447" lon="15.041724016187612"><ele>393.6666666666667</ele><time>2026-03-28T14:55:58Z</time></trkpt><trkpt lat="36.979098897074024" lon="15.041790175402607"><ele>391.0</ele><time>2026-03-28T14:56:01Z</time></trkpt><trkpt lat="36.97910969414314" lon="15.041871736390886"><ele>388.33333333333337</ele><time>2026-03-28T14:56:03Z</time></trkpt><trkpt lat="36.979045438006196" lon="15.041927988127787"><ele>385.6666666666667</ele><time>2026-03-28T14:56:06Z</time></trkpt><trkpt lat="36.97896894657853" lon="15.041945139073144"><ele>383.0</ele><time>2026-03-28T14:56:08Z</time></trkpt><trkpt lat="36.9788959219907" lon="15.042000442030936"><ele>383.0</ele><time>2026-03-28T14:56:11Z</time></trkpt><trkpt lat="36.97879743962389" lon="15.041999655760897"><ele>383.0</ele><time>2026-03-28T14:56:14Z</time></trkpt><trkpt lat="36.97872011340431" lon="15.042060302712374"><ele>383.0</ele><time>2026-03-28T14:56:17Z</time></trkpt><trkpt lat="36.97861291867045" lon="15.042136862173772"><ele>383.0</ele><time>2026-03-28T14:56:19Z</time></trkpt><trkpt lat="36.978522402518436" lon="15.042192737199185"><ele>383.0</ele><time>2026-03-28T14:56:21Z</time></trkpt><trkpt lat="36.97846912676952" lon="15.042253199440433"><ele>383.0</ele><time>2026-03-28T14:56:23Z</time></trkpt><trkpt lat="36.97839980033578" lon="15.042317204471857"><ele>383.0</ele><time>2026-03-28T14:56:25Z</time></trkpt><trkpt lat="36.978337986829885" lon="15.04233710618696"><ele>383.0</ele><time>2026-03-28T14:56:26Z</time></trkpt><trkpt lat="36.97827524396448" lon="15.042358713228628"><ele>383.0</ele><time>2026-03-28T14:56:28Z</time></trkpt><trkpt lat="36.97822026811755" lon="15.042413773566242"><ele>383.0</ele><time>2026-03-28T14:56:32Z</time></trkpt><trkpt lat="36.97816173708731" lon="15.04245041207386"><ele>383.0</ele><time>2026-03-28T14:56:34Z</time></trkpt><trkpt lat="36.978188649987956" lon="15.042541746529743"><ele>383.0</ele><time>2026-03-28T14:56:38Z</time></trkpt><trkpt lat="36.97822007940759" lon="15.042627098587472"><ele>382.1666666666667</ele><time>2026-03-28T14:56:40Z</time></trkpt><trkpt lat="36.97823698390373" lon="15.042721576272431"><ele>381.33333333333337</ele><time>2026-03-28T14:57:16Z</time></trkpt><trkpt lat="36.97825791833452" lon="15.04280814851704"><ele>380.5</ele><time>2026-03-28T14:57:21Z</time></trkpt><trkpt lat="36.97827444484441" lon="15.042893857848673"><ele>379.6666666666667</ele><time>2026-03-28T14:57:25Z</time></trkpt><trkpt lat="36.97830906506423" lon="15.042982808874202"><ele>378.8333333333333</ele><time>2026-03-28T14:57:31Z</time></trkpt><trkpt lat="36.978275014103765" lon="15.04306954773822"><ele>378.0</ele><time>2026-03-28T14:58:33Z</time></trkpt><trkpt lat="36.97826622096642" lon="15.043166617025193"><ele>378.0</ele><time>2026-03-28T14:58:38Z</time></trkpt><trkpt lat="36.978301563507074" lon="15.043257994285769"><ele>378.0</ele><time>2026-03-28T14:58:41Z</time></trkpt><trkpt lat="36.97836409384943" lon="15.043242322978882"><ele>378.0</ele><time>2026-03-28T14:58:45Z</time></trkpt><trkpt lat="36.978402474026424" lon="15.043161049111347"><ele>378.0</ele><time>2026-03-28T14:58:48Z</time></trkpt><trkpt lat="36.97846693983397" lon="15.043181041195"><ele>378.0</ele><time>2026-03-28T14:58:51Z</time></trkpt><trkpt lat="36.978537473490405" lon="15.043248597829718"><ele>378.0</ele><time>2026-03-28T14:58:54Z</time></trkpt><trkpt lat="36.978558373971445" lon="15.043344596093656"><ele>379.0</ele><time>2026-03-28T14:58:58Z</time></trkpt><trkpt lat="36.97854370867226" lon="15.04346408472983"><ele>380.0</ele><time>2026-03-28T14:59:00Z</time></trkpt><trkpt lat="36.97859193831353" lon="15.04359277867323"><ele>381.0</ele><time>2026-03-28T14:59:01Z</time></trkpt><trkpt lat="36.97861581437254" lon="15.043666798184294"><ele>382.0</ele><time>2026-03-28T14:59:02Z</time></trkpt><trkpt lat="36.97864112673619" lon="15.04374241183786"><ele>383.0</ele><time>2026-03-28T14:59:04Z</time></trkpt><trkpt lat="36.97862529808957" lon="15.043854202340016"><ele>384.0</ele><time>2026-03-28T14:59:07Z</time></trkpt><trkpt lat="36.97868100239907" lon="15.043896109289795"><ele>384.0</ele><time>2026-03-28T14:59:17Z</time></trkpt><trkpt lat="36.978727184921674" lon="15.043822514220562"><ele>384.0</ele><time>2026-03-28T14:59:31Z</time></trkpt><trkpt lat="36.97878343083441" lon="15.043748092809452"><ele>384.0</ele><time>2026-03-28T14:59:35Z</time></trkpt><trkpt lat="36.97882092822588" lon="15.04367737131978"><ele>384.0</ele><time>2026-03-28T14:59:38Z</time></trkpt><trkpt lat="36.97885840791464" lon="15.043613145072873"><ele>384.0</ele><time>2026-03-28T14:59:59Z</time></trkpt><trkpt lat="36.978928648632944" lon="15.043559847388796"><ele>384.0</ele><time>2026-03-28T15:00:09Z</time></trkpt><trkpt lat="36.97898043160211" lon="15.043474082985528"><ele>384.0</ele><time>2026-03-28T15:00:13Z</time></trkpt><trkpt lat="36.979046375254065" lon="15.043443067418835"><ele>384.0</ele><time>2026-03-28T15:00:17Z</time></trkpt><trkpt lat="36.979133857556064" lon="15.043416282358756"><ele>384.0</ele><time>2026-03-28T15:00:21Z</time></trkpt><trkpt lat="36.979202200335465" lon="15.043396353867394"><ele>384.0</ele><time>2026-03-28T15:00:24Z</time></trkpt><trkpt lat="36.97928360882754" lon="15.043370094646104"><ele>384.0</ele><time>2026-03-28T15:00:26Z</time></trkpt><trkpt lat="36.97935502624931" lon="15.043350935135114"><ele>384.0</ele><time>2026-03-28T15:00:28Z</time></trkpt><trkpt lat="36.97944829938314" lon="15.043336926399466"><ele>385.5</ele><time>2026-03-28T15:00:31Z</time></trkpt><trkpt lat="36.979523158830254" lon="15.0433259739004"><ele>387.0</ele><time>2026-03-28T15:00:33Z</time></trkpt><trkpt lat="36.979617187419144" lon="15.043329292265382"><ele>388.5</ele><time>2026-03-28T15:00:36Z</time></trkpt><trkpt lat="36.979690393869625" lon="15.04338102102085"><ele>390.0</ele><time>2026-03-28T15:00:38Z</time></trkpt><trkpt lat="36.97972826085167" lon="15.0434556617564"><ele>391.5</ele><time>2026-03-28T15:00:41Z</time></trkpt><trkpt lat="36.97974603214612" lon="15.043560732987848"><ele>393.0</ele><time>2026-03-28T15:00:44Z</time></trkpt><trkpt lat="36.979801479906534" lon="15.04361645700161"><ele>393.0</ele><time>2026-03-28T15:00:47Z</time></trkpt><trkpt lat="36.97987363147128" lon="15.043654480762088"><ele>393.0</ele><time>2026-03-28T15:00:50Z</time></trkpt><trkpt lat="36.979956910946626" lon="15.043681180313209"><ele>393.0</ele><time>2026-03-28T15:00:52Z</time></trkpt><trkpt lat="36.98008730435912" lon="15.04376562585438"><ele>393.0</ele><time>2026-03-28T15:00:54Z</time></trkpt><trkpt lat="36.980151544808386" lon="15.043824771582397"><ele>393.0</ele><time>2026-03-28T15:00:57Z</time></trkpt><trkpt lat="36.98021996058406" lon="15.043859565170722"><ele>394.1666666666667</ele><time>2026-03-28T15:01:00Z</time></trkpt><trkpt lat="36.98028419103412" lon="15.043886616179803"><ele>395.33333333333337</ele><time>2026-03-28T15:01:02Z</time></trkpt><trkpt lat="36.98036245945715" lon="15.043909366100664"><ele>396.5</ele><time>2026-03-28T15:01:05Z</time></trkpt><trkpt lat="36.98043579209428" lon="15.043952916022702"><ele>397.6666666666667</ele><time>2026-03-28T15:01:08Z</time></trkpt><trkpt lat="36.98051662480873" lon="15.043982547534114"><ele>398.83333333333337</ele><time>2026-03-28T15:01:13Z</time></trkpt><trkpt lat="36.98058925634567" lon="15.044027296150638"><ele>400.0</ele><time>2026-03-28T15:01:20Z</time></trkpt><trkpt lat="36.980655546175235" lon="15.044014922003427"><ele>400.00000000000006</ele><time>2026-03-28T15:01:24Z</time></trkpt><trkpt lat="36.98070681713464" lon="15.044084243343772"><ele>400.0</ele><time>2026-03-28T15:01:29Z</time></trkpt><trkpt lat="36.98075304614037" lon="15.04417169677108"><ele>400.0</ele><time>2026-03-28T15:01:32Z</time></trkpt><trkpt lat="36.98078156146777" lon="15.044267774588047"><ele>400.0</ele><time>2026-03-28T15:01:35Z</time></trkpt><trkpt lat="36.980811971893445" lon="15.044372752780442"><ele>400.00000000000006</ele><time>2026-03-28T15:01:37Z</time></trkpt><trkpt lat="36.98082588816457" lon="15.044453868684096"><ele>400.0</ele><time>2026-03-28T15:01:39Z</time></trkpt><trkpt lat="36.98083421350025" lon="15.044546087895952"><ele>400.83333333333337</ele><time>2026-03-28T15:01:42Z</time></trkpt><trkpt lat="36.98083661933721" lon="15.04466215726192"><ele>401.6666666666667</ele><time>2026-03-28T15:01:45Z</time></trkpt><trkpt lat="36.9808264407425" lon="15.044797759853152"><ele>402.5</ele><time>2026-03-28T15:01:47Z</time></trkpt><trkpt lat="36.98083214573419" lon="15.044878214856228"><ele>403.33333333333337</ele><time>2026-03-28T15:01:51Z</time></trkpt><trkpt lat="36.98084558192699" lon="15.044980080615732"><ele>404.1666666666667</ele><time>2026-03-28T15:02:36Z</time></trkpt><trkpt lat="36.98084788013425" lon="15.04508226041482"><ele>405.0</ele><time>2026-03-28T15:02:38Z</time></trkpt><trkpt lat="36.98085812090784" lon="15.045164200355895"><ele>408.0</ele><time>2026-03-28T15:02:40Z</time></trkpt><trkpt lat="36.980884850116574" lon="15.04526698529173"><ele>411.0</ele><time>2026-03-28T15:02:43Z</time></trkpt><trkpt lat="36.98093357543804" lon="15.045318279443118"><ele>414.0</ele><time>2026-03-28T15:02:46Z</time></trkpt><trkpt lat="36.980998061019086" lon="15.045245616965792"><ele>417.0</ele><time>2026-03-28T15:02:49Z</time></trkpt><trkpt lat="36.981003946265595" lon="15.045128060890857"><ele>420.0</ele><time>2026-03-28T15:02:51Z</time></trkpt><trkpt lat="36.98104970868743" lon="15.045047310393873"><ele>423.0</ele><time>2026-03-28T15:02:54Z</time></trkpt><trkpt lat="36.98112780671899" lon="15.045063663208147"><ele>423.0</ele><time>2026-03-28T15:02:57Z</time></trkpt><trkpt lat="36.981183102712535" lon="15.045125297220618"><ele>423.0</ele><time>2026-03-28T15:02:59Z</time></trkpt><trkpt lat="36.981237815460645" lon="15.045164876379383"><ele>423.0</ele><time>2026-03-28T15:03:01Z</time></trkpt><trkpt lat="36.98127708734819" lon="15.045249678641675"><ele>423.0</ele><time>2026-03-28T15:03:04Z</time></trkpt><trkpt lat="36.98130222009587" lon="15.045332641132203"><ele>423.0</ele><time>2026-03-28T15:03:06Z</time></trkpt><trkpt lat="36.98132432682289" lon="15.045411801656002"><ele>423.0</ele><time>2026-03-28T15:03:09Z</time></trkpt><trkpt lat="36.981349480343425" lon="15.045484348609747"><ele>423.0</ele><time>2026-03-28T15:03:11Z</time></trkpt><trkpt lat="36.98137138355256" lon="15.045568642114967"><ele>423.0</ele><time>2026-03-28T15:03:13Z</time></trkpt><trkpt lat="36.98144871264847" lon="15.04570705819959"><ele>423.0</ele><time>2026-03-28T15:03:15Z</time></trkpt><trkpt lat="36.98150760407816" lon="15.045787516575043"><ele>423.0</ele><time>2026-03-28T15:03:18Z</time></trkpt><trkpt lat="36.981571993747465" lon="15.045851149090698"><ele>423.0</ele><time>2026-03-28T15:03:21Z</time></trkpt><trkpt lat="36.98163657116456" lon="15.045930413354546"><ele>423.0</ele><time>2026-03-28T15:03:23Z</time></trkpt><trkpt lat="36.98168026756575" lon="15.04599799251651"><ele>423.8333333333333</ele><time>2026-03-28T15:03:25Z</time></trkpt><trkpt lat="36.98174485279837" lon="15.046066513422051"><ele>424.66666666666663</ele><time>2026-03-28T15:03:27Z</time></trkpt><trkpt lat="36.98181306462301" lon="15.046118448594076"><ele>425.5</ele><time>2026-03-28T15:03:29Z</time></trkpt><trkpt lat="36.98189369119958" lon="15.04611762053384"><ele>426.3333333333333</ele><time>2026-03-28T15:03:33Z</time></trkpt><trkpt lat="36.981948436196106" lon="15.046174891271187"><ele>427.16666666666663</ele><time>2026-03-28T15:03:35Z</time></trkpt><trkpt lat="36.98201977833114" lon="15.046269665996691"><ele>428.0</ele><time>2026-03-28T15:03:37Z</time></trkpt><trkpt lat="36.98208016083478" lon="15.04630774237157"><ele>428.0</ele><time>2026-03-28T15:03:39Z</time></trkpt><trkpt lat="36.982149258365574" lon="15.046347372855056"><ele>427.99999999999994</ele><time>2026-03-28T15:03:41Z</time></trkpt><trkpt lat="36.982238216652284" lon="15.046390471103518"><ele>427.99999999999994</ele><time>2026-03-28T15:03:43Z</time></trkpt><trkpt lat="36.98232846749258" lon="15.046427351050303"><ele>428.0</ele><time>2026-03-28T15:03:45Z</time></trkpt><trkpt lat="36.982425253013076" lon="15.046452461615436"><ele>428.0</ele><time>2026-03-28T15:03:47Z</time></trkpt><trkpt lat="36.98249796488243" lon="15.046509312920945"><ele>427.79999999999995</ele><time>2026-03-28T15:03:49Z</time></trkpt><trkpt lat="36.982618062110795" lon="15.046574178598108"><ele>427.59999999999997</ele><time>2026-03-28T15:03:51Z</time></trkpt><trkpt lat="36.982712340996486" lon="15.046619883789443"><ele>427.40000000000003</ele><time>2026-03-28T15:03:52Z</time></trkpt><trkpt lat="36.98278451828703" lon="15.046657712165526"><ele>427.20000000000005</ele><time>2026-03-28T15:03:53Z</time></trkpt><trkpt lat="36.98287180261812" lon="15.046726784622791"><ele>427.0</ele><time>2026-03-28T15:03:55Z</time></trkpt><trkpt lat="36.98296472039597" lon="15.046809580652557"><ele>426.83333333333337</ele><time>2026-03-28T15:03:57Z</time></trkpt><trkpt lat="36.98305943599211" lon="15.046860216706337"><ele>426.6666666666667</ele><time>2026-03-28T15:03:59Z</time></trkpt><trkpt lat="36.98314124799967" lon="15.046898142147063"><ele>426.5</ele><time>2026-03-28T15:04:00Z</time></trkpt><trkpt lat="36.983216019981306" lon="15.046932410018346"><ele>426.33333333333337</ele><time>2026-03-28T15:04:01Z</time></trkpt><trkpt lat="36.98328429834671" lon="15.046961989585371"><ele>426.1666666666667</ele><time>2026-03-28T15:04:02Z</time></trkpt><trkpt lat="36.98335068827559" lon="15.046987217515253"><ele>426.0</ele><time>2026-03-28T15:04:03Z</time></trkpt><trkpt lat="36.98347666200951" lon="15.046996403823286"><ele>426.0</ele><time>2026-03-28T15:04:05Z</time></trkpt><trkpt lat="36.98355353790347" lon="15.046943689512755"><ele>426.0</ele><time>2026-03-28T15:04:06Z</time></trkpt><trkpt lat="36.98363592219487" lon="15.046919598787586"><ele>426.0</ele><time>2026-03-28T15:04:07Z</time></trkpt><trkpt lat="36.983703423993255" lon="15.046891469433614"><ele>426.0</ele><time>2026-03-28T15:04:08Z</time></trkpt><trkpt lat="36.98377537123197" lon="15.046876217778696"><ele>426.0</ele><time>2026-03-28T15:04:09Z</time></trkpt><trkpt lat="36.98386213612944" lon="15.046868739592103"><ele>426.0</ele><time>2026-03-28T15:04:10Z</time></trkpt><trkpt lat="36.98395575453809" lon="15.046889046138746"><ele>426.0</ele><time>2026-03-28T15:04:11Z</time></trkpt><trkpt lat="36.98406242063689" lon="15.046894757643857"><ele>426.0</ele><time>2026-03-28T15:04:12Z</time></trkpt><trkpt lat="36.984164126329794" lon="15.04690020353927"><ele>426.0</ele><time>2026-03-28T15:04:13Z</time></trkpt><trkpt lat="36.98425043707791" lon="15.046902425398546"><ele>426.0</ele><time>2026-03-28T15:04:14Z</time></trkpt><trkpt lat="36.984332032807835" lon="15.046903469021778"><ele>426.0</ele><time>2026-03-28T15:04:15Z</time></trkpt><trkpt lat="36.984403556025725" lon="15.046875236767459"><ele>426.0</ele><time>2026-03-28T15:04:16Z</time></trkpt><trkpt lat="36.9844698775501" lon="15.046877172192904"><ele>426.0</ele><time>2026-03-28T15:04:17Z</time></trkpt><trkpt lat="36.98457505305306" lon="15.046921174283401"><ele>426.0</ele><time>2026-03-28T15:04:19Z</time></trkpt><trkpt lat="36.98470244983824" lon="15.046938301801113"><ele>426.0</ele><time>2026-03-28T15:04:21Z</time></trkpt><trkpt lat="36.98476740047697" lon="15.04695897992855"><ele>426.0</ele><time>2026-03-28T15:04:22Z</time></trkpt><trkpt lat="36.984831522088044" lon="15.046980020490505"><ele>426.0</ele><time>2026-03-28T15:04:23Z</time></trkpt><trkpt lat="36.98490188915014" lon="15.047010533279881"><ele>426.0</ele><time>2026-03-28T15:04:24Z</time></trkpt><trkpt lat="36.98498152947" lon="15.047047896458762"><ele>426.0</ele><time>2026-03-28T15:04:25Z</time></trkpt><trkpt lat="36.985055701523635" lon="15.04711066288208"><ele>426.0</ele><time>2026-03-28T15:04:26Z</time></trkpt><trkpt lat="36.9851473261447" lon="15.047172558809494"><ele>426.0</ele><time>2026-03-28T15:04:27Z</time></trkpt><trkpt lat="36.98525387587274" lon="15.047261967491162"><ele>426.0</ele><time>2026-03-28T15:04:28Z</time></trkpt><trkpt lat="36.98535500140364" lon="15.047396579759779"><ele>427.0</ele><time>2026-03-28T15:04:29Z</time></trkpt><trkpt lat="36.98545910494732" lon="15.047543714498513"><ele>428.0</ele><time>2026-03-28T15:04:30Z</time></trkpt><trkpt lat="36.98557879019987" lon="15.0476813931993"><ele>429.0</ele><time>2026-03-28T15:04:31Z</time></trkpt><trkpt lat="36.98571537548219" lon="15.047820334560024"><ele>429.75</ele><time>2026-03-28T15:04:32Z</time></trkpt><trkpt lat="36.985855699116236" lon="15.047947270671047"><ele>430.5</ele><time>2026-03-28T15:04:33Z</time></trkpt><trkpt lat="36.98597509962708" lon="15.048051634589793"><ele>431.25</ele><time>2026-03-28T15:04:34Z</time></trkpt><trkpt lat="36.98607803467571" lon="15.04814025964706"><ele>432.0</ele><time>2026-03-28T15:04:35Z</time></trkpt><trkpt lat="36.986161336915494" lon="15.048214852701443"><ele>432.0</ele><time>2026-03-28T15:04:36Z</time></trkpt><trkpt lat="36.98622107024265" lon="15.0482644156341"><ele>432.0</ele><time>2026-03-28T15:04:37Z</time></trkpt><trkpt lat="36.98628113897001" lon="15.048288096907832"><ele>432.0</ele><time>2026-03-28T15:04:39Z</time></trkpt><trkpt lat="36.986362317483014" lon="15.048258972114487"><ele>432.0</ele><time>2026-03-28T15:05:51Z</time></trkpt><trkpt lat="36.98641611943731" lon="15.048213737261465"><ele>432.0</ele><time>2026-03-28T15:05:52Z</time></trkpt><trkpt lat="36.98646395516939" lon="15.04814475646312"><ele>432.0</ele><time>2026-03-28T15:05:53Z</time></trkpt><trkpt lat="36.98651711322481" lon="15.048061443442835"><ele>432.0</ele><time>2026-03-28T15:05:54Z</time></trkpt><trkpt lat="36.98658177733009" lon="15.047951741257432"><ele>432.0</ele><time>2026-03-28T15:05:55Z</time></trkpt><trkpt lat="36.98666336923016" lon="15.04784424595088"><ele>432.0</ele><time>2026-03-28T15:05:56Z</time></trkpt><trkpt lat="36.98672909596316" lon="15.047728685782195"><ele>432.0</ele><time>2026-03-28T15:05:57Z</time></trkpt><trkpt lat="36.98679256012223" lon="15.04761126462937"><ele>432.0</ele><time>2026-03-28T15:05:58Z</time></trkpt><trkpt lat="36.9868410386777" lon="15.047482545979145"><ele>431.75</ele><time>2026-03-28T15:05:59Z</time></trkpt><trkpt lat="36.98690141943689" lon="15.047365698058787"><ele>431.5</ele><time>2026-03-28T15:06:00Z</time></trkpt><trkpt lat="36.986956605890065" lon="15.047245650373105"><ele>431.25</ele><time>2026-03-28T15:06:01Z</time></trkpt><trkpt lat="36.98700982218363" lon="15.047120816595285"><ele>431.0</ele><time>2026-03-28T15:06:02Z</time></trkpt><trkpt lat="36.987060090789925" lon="15.046988442697065"><ele>431.0</ele><time>2026-03-28T15:06:03Z</time></trkpt><trkpt lat="36.98711977607651" lon="15.04686127387578"><ele>431.0</ele><time>2026-03-28T15:06:04Z</time></trkpt><trkpt lat="36.98716311909023" lon="15.046716250067298"><ele>431.0</ele><time>2026-03-28T15:06:05Z</time></trkpt><trkpt lat="36.987201496344554" lon="15.046572022660735"><ele>431.0</ele><time>2026-03-28T15:06:06Z</time></trkpt><trkpt lat="36.98723985500312" lon="15.046434388414527"><ele>431.5</ele><time>2026-03-28T15:06:07Z</time></trkpt><trkpt lat="36.98728323261027" lon="15.04629235763092"><ele>432.0</ele><time>2026-03-28T15:06:08Z</time></trkpt><trkpt lat="36.98732839271416" lon="15.046144464131817"><ele>432.5</ele><time>2026-03-28T15:06:09Z</time></trkpt><trkpt lat="36.987370895412155" lon="15.045992105295927"><ele>433.0</ele><time>2026-03-28T15:06:10Z</time></trkpt><trkpt lat="36.98739717363761" lon="15.045826864343157"><ele>433.25</ele><time>2026-03-28T15:06:11Z</time></trkpt><trkpt lat="36.98743773735093" lon="15.045657346155718"><ele>433.5</ele><time>2026-03-28T15:06:12Z</time></trkpt><trkpt lat="36.98748720249578" lon="15.04548497638101"><ele>433.75</ele><time>2026-03-28T15:06:13Z</time></trkpt><trkpt lat="36.98752614467716" lon="15.04530517561268"><ele>434.0</ele><time>2026-03-28T15:06:14Z</time></trkpt><trkpt lat="36.987566632870106" lon="15.045118236529344"><ele>435.3333333333333</ele><time>2026-03-28T15:06:15Z</time></trkpt><trkpt lat="36.98761134184586" lon="15.04491331120149"><ele>436.66666666666663</ele><time>2026-03-28T15:06:16Z</time></trkpt><trkpt lat="36.98765771742641" lon="15.044723546872541"><ele>438.0</ele><time>2026-03-28T15:06:17Z</time></trkpt><trkpt lat="36.987714890888284" lon="15.044554825442344"><ele>438.0</ele><time>2026-03-28T15:06:18Z</time></trkpt><trkpt lat="36.98778839555199" lon="15.04440722409762"><ele>438.0</ele><time>2026-03-28T15:06:19Z</time></trkpt><trkpt lat="36.98787144511726" lon="15.04426575343385"><ele>438.0</ele><time>2026-03-28T15:06:20Z</time></trkpt><trkpt lat="36.987948666653814" lon="15.04410687227421"><ele>438.0</ele><time>2026-03-28T15:06:21Z</time></trkpt><trkpt lat="36.988060341743044" lon="15.043961171679541"><ele>437.75</ele><time>2026-03-28T15:06:22Z</time></trkpt><trkpt lat="36.988156665121714" lon="15.043808902703857"><ele>437.5</ele><time>2026-03-28T15:06:23Z</time></trkpt><trkpt lat="36.98824603707643" lon="15.043662206041647"><ele>437.25</ele><time>2026-03-28T15:06:24Z</time></trkpt><trkpt lat="36.988326103628815" lon="15.043531288533089"><ele>437.0</ele><time>2026-03-28T15:06:25Z</time></trkpt><trkpt lat="36.9884103869329" lon="15.04340655188151"><ele>438.3333333333333</ele><time>2026-03-28T15:06:26Z</time></trkpt><trkpt lat="36.9885075197378" lon="15.043285330556547"><ele>439.66666666666663</ele><time>2026-03-28T15:06:27Z</time></trkpt><trkpt lat="36.988623369954304" lon="15.043165373782209"><ele>441.0</ele><time>2026-03-28T15:06:28Z</time></trkpt><trkpt lat="36.98875248092792" lon="15.043039776735014"><ele>441.0</ele><time>2026-03-28T15:06:29Z</time></trkpt><trkpt lat="36.98888136087427" lon="15.04291330256488"><ele>441.0</ele><time>2026-03-28T15:06:30Z</time></trkpt><trkpt lat="36.989013218903175" lon="15.042785202568215"><ele>441.0</ele><time>2026-03-28T15:06:31Z</time></trkpt><trkpt lat="36.989130400487475" lon="15.04265773326947"><ele>442.0</ele><time>2026-03-28T15:06:32Z</time></trkpt><trkpt lat="36.989216155859076" lon="15.042521424433598"><ele>443.0</ele><time>2026-03-28T15:06:33Z</time></trkpt><trkpt lat="36.98930467510398" lon="15.042396474134206"><ele>444.0</ele><time>2026-03-28T15:06:34Z</time></trkpt><trkpt lat="36.98938431762148" lon="15.042281203464855"><ele>445.0</ele><time>2026-03-28T15:06:35Z</time></trkpt><trkpt lat="36.98944899445556" lon="15.042202629981093"><ele>445.1666666666667</ele><time>2026-03-28T15:06:36Z</time></trkpt><trkpt lat="36.989498782035" lon="15.042141925232748"><ele>445.33333333333337</ele><time>2026-03-28T15:06:37Z</time></trkpt><trkpt lat="36.98959147512814" lon="15.042095775733323"><ele>445.5</ele><time>2026-03-28T15:06:40Z</time></trkpt><trkpt lat="36.98966090588257" lon="15.042091903824364"><ele>445.66666666666663</ele><time>2026-03-28T15:06:41Z</time></trkpt><trkpt lat="36.98975460861101" lon="15.042091108146359"><ele>445.8333333333333</ele><time>2026-03-28T15:06:42Z</time></trkpt><trkpt lat="36.98985568973248" lon="15.042075685812543"><ele>446.0</ele><time>2026-03-28T15:06:44Z</time></trkpt><trkpt lat="36.98996240295162" lon="15.042100376728964"><ele>446.6</ele><time>2026-03-28T15:06:46Z</time></trkpt><trkpt lat="36.990082807076824" lon="15.042101998460781"><ele>447.20000000000005</ele><time>2026-03-28T15:06:48Z</time></trkpt><trkpt lat="36.99019689628575" lon="15.042079214701316"><ele>447.79999999999995</ele><time>2026-03-28T15:06:50Z</time></trkpt><trkpt lat="36.990312215910464" lon="15.042028642947153"><ele>448.4</ele><time>2026-03-28T15:06:52Z</time></trkpt><trkpt lat="36.99036188667049" lon="15.041975150964596"><ele>449.0</ele><time>2026-03-28T15:06:53Z</time></trkpt><trkpt lat="36.99042500092069" lon="15.04195243680593"><ele>448.99999999999994</ele><time>2026-03-28T15:06:54Z</time></trkpt><trkpt lat="36.9905316700915" lon="15.041866359122208"><ele>449.0</ele><time>2026-03-28T15:06:56Z</time></trkpt><trkpt lat="36.99058921955724" lon="15.041817270851514"><ele>449.0</ele><time>2026-03-28T15:06:57Z</time></trkpt><trkpt lat="36.99063864701023" lon="15.04175039657715"><ele>449.0</ele><time>2026-03-28T15:06:58Z</time></trkpt><trkpt lat="36.9906999853386" lon="15.04170338588502"><ele>448.99999999999994</ele><time>2026-03-28T15:06:59Z</time></trkpt><trkpt lat="36.99075556351139" lon="15.041657788839379"><ele>449.0</ele><time>2026-03-28T15:07:00Z</time></trkpt><trkpt lat="36.99081157978412" lon="15.041611296042511"><ele>449.49999999999994</ele><time>2026-03-28T15:07:01Z</time></trkpt><trkpt lat="36.99087692445406" lon="15.041552965923586"><ele>450.0</ele><time>2026-03-28T15:07:02Z</time></trkpt><trkpt lat="36.99094418815099" lon="15.041502901579976"><ele>450.5</ele><time>2026-03-28T15:07:03Z</time></trkpt><trkpt lat="36.99100607804402" lon="15.041457628330798"><ele>451.0</ele><time>2026-03-28T15:07:04Z</time></trkpt><trkpt lat="36.99107215978611" lon="15.041409264886681"><ele>451.49999999999994</ele><time>2026-03-28T15:07:05Z</time></trkpt><trkpt lat="36.991145065794726" lon="15.041369707006133"><ele>452.0</ele><time>2026-03-28T15:07:06Z</time></trkpt><trkpt lat="36.991227112086435" lon="15.041368695903522"><ele>452.0</ele><time>2026-03-28T15:07:07Z</time></trkpt><trkpt lat="36.99130517694492" lon="15.041357803871838"><ele>452.00000000000006</ele><time>2026-03-28T15:07:08Z</time></trkpt><trkpt lat="36.99139209209461" lon="15.041342528194983"><ele>452.00000000000006</ele><time>2026-03-28T15:07:09Z</time></trkpt><trkpt lat="36.99149943832878" lon="15.041356000959722"><ele>452.0</ele><time>2026-03-28T15:07:10Z</time></trkpt><trkpt lat="36.9916266516216" lon="15.041390810824138"><ele>452.0</ele><time>2026-03-28T15:07:11Z</time></trkpt><trkpt lat="36.99177686062401" lon="15.041466554714512"><ele>453.3333333333333</ele><time>2026-03-28T15:07:12Z</time></trkpt><trkpt lat="36.99194576579116" lon="15.041568374781587"><ele>454.66666666666663</ele><time>2026-03-28T15:07:13Z</time></trkpt><trkpt lat="36.992124461299284" lon="15.04168675894425"><ele>456.0</ele><time>2026-03-28T15:07:14Z</time></trkpt><trkpt lat="36.99232190701887" lon="15.041838244564273"><ele>458.33333333333337</ele><time>2026-03-28T15:07:15Z</time></trkpt><trkpt lat="36.992520197909386" lon="15.041949442094717"><ele>460.6666666666667</ele><time>2026-03-28T15:07:16Z</time></trkpt><trkpt lat="36.992665189213874" lon="15.042044754520754"><ele>463.0</ele><time>2026-03-28T15:07:17Z</time></trkpt><trkpt lat="36.99279625788127" lon="15.042115193404646"><ele>463.0</ele><time>2026-03-28T15:07:18Z</time></trkpt><trkpt lat="36.992923836410526" lon="15.04217344108614"><ele>463.0</ele><time>2026-03-28T15:07:19Z</time></trkpt><trkpt lat="36.993045855432754" lon="15.042194872442263"><ele>463.0</ele><time>2026-03-28T15:07:20Z</time></trkpt><trkpt lat="36.993165408579394" lon="15.042180276424915"><ele>463.0</ele><time>2026-03-28T15:07:21Z</time></trkpt><trkpt lat="36.99330718681962" lon="15.042128570721447"><ele>464.6666666666667</ele><time>2026-03-28T15:07:22Z</time></trkpt><trkpt lat="36.99346415223482" lon="15.042066046990978"><ele>466.33333333333337</ele><time>2026-03-28T15:07:23Z</time></trkpt><trkpt lat="36.99364244868854" lon="15.04200429897838"><ele>468.0</ele><time>2026-03-28T15:07:24Z</time></trkpt><trkpt lat="36.993828171771455" lon="15.041946783383295"><ele>468.0</ele><time>2026-03-28T15:07:25Z</time></trkpt><trkpt lat="36.994007633814" lon="15.041889819461685"><ele>468.0</ele><time>2026-03-28T15:07:26Z</time></trkpt><trkpt lat="36.99416125953399" lon="15.041838375496168"><ele>468.0</ele><time>2026-03-28T15:07:27Z</time></trkpt><trkpt lat="36.994305428649994" lon="15.041789544579318"><ele>468.0</ele><time>2026-03-28T15:07:28Z</time></trkpt><trkpt lat="36.9944447098267" lon="15.041748641437328"><ele>468.0</ele><time>2026-03-28T15:07:29Z</time></trkpt><trkpt lat="36.994583643422914" lon="15.041709332246329"><ele>468.0</ele><time>2026-03-28T15:07:30Z</time></trkpt><trkpt lat="36.994723060156545" lon="15.041664790920931"><ele>468.0</ele><time>2026-03-28T15:07:31Z</time></trkpt><trkpt lat="36.99487204394017" lon="15.04161567983638"><ele>468.75</ele><time>2026-03-28T15:07:32Z</time></trkpt><trkpt lat="36.995002181879244" lon="15.041564446834569"><ele>469.5</ele><time>2026-03-28T15:07:33Z</time></trkpt><trkpt lat="36.995118385396076" lon="15.041492419911016"><ele>470.25</ele><time>2026-03-28T15:07:34Z</time></trkpt><trkpt lat="36.99524121797782" lon="15.04139115247618"><ele>471.0</ele><time>2026-03-28T15:07:35Z</time></trkpt><trkpt lat="36.99537955612319" lon="15.041275779679907"><ele>471.0</ele><time>2026-03-28T15:07:36Z</time></trkpt><trkpt lat="36.99551175958946" lon="15.04115241263442"><ele>471.0</ele><time>2026-03-28T15:07:37Z</time></trkpt><trkpt lat="36.99563263823435" lon="15.041037964271212"><ele>471.0</ele><time>2026-03-28T15:07:38Z</time></trkpt><trkpt lat="36.99574107896715" lon="15.040934378830993"><ele>470.5</ele><time>2026-03-28T15:07:39Z</time></trkpt><trkpt lat="36.995845070374834" lon="15.040829834281825"><ele>470.0</ele><time>2026-03-28T15:07:40Z</time></trkpt><trkpt lat="36.99594634630748" lon="15.040728847901438"><ele>469.5</ele><time>2026-03-28T15:07:41Z</time></trkpt><trkpt lat="36.99603333099589" lon="15.040647264009147"><ele>469.0</ele><time>2026-03-28T15:07:42Z</time></trkpt><trkpt lat="36.99610245756615" lon="15.040590011176953"><ele>470.0</ele><time>2026-03-28T15:07:43Z</time></trkpt><trkpt lat="36.996159138058246" lon="15.040551622184054"><ele>471.0</ele><time>2026-03-28T15:07:46Z</time></trkpt><trkpt lat="36.99606144339762" lon="15.040394990908833"><ele>472.0</ele><time>2026-03-28T15:07:49Z</time></trkpt><trkpt lat="36.99598075816229" lon="15.040314155480937"><ele>473.0</ele><time>2026-03-28T15:07:51Z</time></trkpt><trkpt lat="36.99589621751466" lon="15.040245983254078"><ele>474.0</ele><time>2026-03-28T15:07:53Z</time></trkpt><trkpt lat="36.995796561351156" lon="15.040194768850531"><ele>474.1666666666667</ele><time>2026-03-28T15:07:55Z</time></trkpt><trkpt lat="36.995724188229" lon="15.040105088300265"><ele>474.33333333333337</ele><time>2026-03-28T15:07:57Z</time></trkpt><trkpt lat="36.99564129552547" lon="15.040037197854446"><ele>474.5</ele><time>2026-03-28T15:07:59Z</time></trkpt><trkpt lat="36.99555771546305" lon="15.039968744400111"><ele>474.6666666666667</ele><time>2026-03-28T15:08:01Z</time></trkpt><trkpt lat="36.995494170557606" lon="15.039951641556385"><ele>474.83333333333337</ele><time>2026-03-28T15:08:02Z</time></trkpt><trkpt lat="36.995433898093815" lon="15.039902277487089"><ele>475.0</ele><time>2026-03-28T15:08:03Z</time></trkpt><trkpt lat="36.99536500967753" lon="15.039842680678568"><ele>475.0</ele><time>2026-03-28T15:08:04Z</time></trkpt><trkpt lat="36.99528417770844" lon="15.039773264617393"><ele>475.0</ele><time>2026-03-28T15:08:05Z</time></trkpt><trkpt lat="36.99519307496308" lon="15.03969833109723"><ele>475.0</ele><time>2026-03-28T15:08:06Z</time></trkpt><trkpt lat="36.99507705445671" lon="15.039600778511318"><ele>475.0</ele><time>2026-03-28T15:08:07Z</time></trkpt><trkpt lat="36.99495274907298" lon="15.03949433626004"><ele>473.4</ele><time>2026-03-28T15:08:08Z</time></trkpt><trkpt lat="36.994836906681655" lon="15.039405071293231"><ele>471.8</ele><time>2026-03-28T15:08:09Z</time></trkpt><trkpt lat="36.994746069192146" lon="15.039329255572135"><ele>470.20000000000005</ele><time>2026-03-28T15:08:10Z</time></trkpt><trkpt lat="36.9946671112798" lon="15.039268480802383"><ele>468.6</ele><time>2026-03-28T15:08:11Z</time></trkpt><trkpt lat="36.99458881283762" lon="15.039205161718968"><ele>467.0</ele><time>2026-03-28T15:08:12Z</time></trkpt><trkpt lat="36.994518568268674" lon="15.03914982294658"><ele>466.49999999999994</ele><time>2026-03-28T15:08:13Z</time></trkpt><trkpt lat="36.994471587391246" lon="15.039076914345946"><ele>466.0</ele><time>2026-03-28T15:08:14Z</time></trkpt><trkpt lat="36.9944147314155" lon="15.039030571863327"><ele>465.5</ele><time>2026-03-28T15:08:15Z</time></trkpt><trkpt lat="36.9943413621639" lon="15.038970769601384"><ele>465.0</ele><time>2026-03-28T15:08:17Z</time></trkpt><trkpt lat="36.99440452366531" lon="15.038873994003302"><ele>464.49999999999994</ele><time>2026-03-28T15:08:20Z</time></trkpt><trkpt lat="36.99444899015375" lon="15.038775935283802"><ele>464.0</ele><time>2026-03-28T15:08:21Z</time></trkpt><trkpt lat="36.99451669473458" lon="15.038678443498677"><ele>464.0</ele><time>2026-03-28T15:08:22Z</time></trkpt><trkpt lat="36.994579960215965" lon="15.038569915792758"><ele>464.0</ele><time>2026-03-28T15:08:23Z</time></trkpt><trkpt lat="36.994649850233166" lon="15.038459891726653"><ele>464.0</ele><time>2026-03-28T15:08:24Z</time></trkpt><trkpt lat="36.99472337342721" lon="15.038347300369761"><ele>464.0</ele><time>2026-03-28T15:08:25Z</time></trkpt><trkpt lat="36.994798327249" lon="15.038229084896614"><ele>463.25</ele><time>2026-03-28T15:08:26Z</time></trkpt><trkpt lat="36.99487919362281" lon="15.03809695101914"><ele>462.5</ele><time>2026-03-28T15:08:27Z</time></trkpt><trkpt lat="36.994964765158706" lon="15.03795563282286"><ele>461.75</ele><time>2026-03-28T15:08:28Z</time></trkpt><trkpt lat="36.99503909595794" lon="15.037845849625295"><ele>461.0</ele><time>2026-03-28T15:08:29Z</time></trkpt><trkpt lat="36.99509545956921" lon="15.037754714774051"><ele>461.66666666666663</ele><time>2026-03-28T15:08:30Z</time></trkpt><trkpt lat="36.995142304539904" lon="15.03767802161222"><ele>462.3333333333333</ele><time>2026-03-28T15:08:31Z</time></trkpt><trkpt lat="36.99517909461248" lon="15.037612227063429"><ele>463.0</ele><time>2026-03-28T15:08:32Z</time></trkpt><trkpt lat="36.995259185823436" lon="15.037514967223121"><ele>463.66666666666663</ele><time>2026-03-28T15:08:34Z</time></trkpt><trkpt lat="36.99529445196915" lon="15.037435557536707"><ele>464.3333333333333</ele><time>2026-03-28T15:08:35Z</time></trkpt><trkpt lat="36.99533161581362" lon="15.037369816410678"><ele>465.0</ele><time>2026-03-28T15:08:36Z</time></trkpt><trkpt lat="36.99540103225325" lon="15.037267144955031"><ele>465.0</ele><time>2026-03-28T15:08:38Z</time></trkpt><trkpt lat="36.99544771703775" lon="15.037183256855014"><ele>465.0</ele><time>2026-03-28T15:08:40Z</time></trkpt><trkpt lat="36.99550612658041" lon="15.037078438158671"><ele>465.0</ele><time>2026-03-28T15:08:42Z</time></trkpt><trkpt lat="36.995586098595886" lon="15.036967476983397"><ele>465.0</ele><time>2026-03-28T15:08:44Z</time></trkpt><trkpt lat="36.99562684618879" lon="15.036900433487457"><ele>465.0</ele><time>2026-03-28T15:08:45Z</time></trkpt><trkpt lat="36.9956985905301" lon="15.036782960026908"><ele>465.0</ele><time>2026-03-28T15:08:47Z</time></trkpt><trkpt lat="36.99573984521867" lon="15.03671080681524"><ele>465.0</ele><time>2026-03-28T15:08:48Z</time></trkpt><trkpt lat="36.99578618687678" lon="15.036634481172493"><ele>465.0</ele><time>2026-03-28T15:08:49Z</time></trkpt><trkpt lat="36.9958300118513" lon="15.036568260685174"><ele>465.0</ele><time>2026-03-28T15:08:50Z</time></trkpt><trkpt lat="36.9958986505893" lon="15.03645020114097"><ele>465.0</ele><time>2026-03-28T15:08:52Z</time></trkpt><trkpt lat="36.99595527203894" lon="15.036371239113398"><ele>465.0</ele><time>2026-03-28T15:08:55Z</time></trkpt><trkpt lat="36.99602122822124" lon="15.036261736273316"><ele>465.8</ele><time>2026-03-28T15:10:18Z</time></trkpt><trkpt lat="36.99611034409802" lon="15.036178798199199"><ele>466.6</ele><time>2026-03-28T15:10:20Z</time></trkpt><trkpt lat="36.99617185854283" lon="15.036115215218203"><ele>467.4</ele><time>2026-03-28T15:10:22Z</time></trkpt><trkpt lat="36.99624327020061" lon="15.036047025816565"><ele>468.2</ele><time>2026-03-28T15:10:24Z</time></trkpt><trkpt lat="36.99632293112644" lon="15.035961792877576"><ele>469.0</ele><time>2026-03-28T15:10:26Z</time></trkpt><trkpt lat="36.996392584124536" lon="15.035898650549942"><ele>469.00000000000006</ele><time>2026-03-28T15:10:28Z</time></trkpt><trkpt lat="36.996463738505916" lon="15.035831344299663"><ele>469.0</ele><time>2026-03-28T15:10:30Z</time></trkpt><trkpt lat="36.99650598541179" lon="15.035764657293155"><ele>469.0</ele><time>2026-03-28T15:10:32Z</time></trkpt><trkpt lat="36.996564797570095" lon="15.035669291618433"><ele>469.0</ele><time>2026-03-28T15:10:35Z</time></trkpt><trkpt lat="36.99660268065982" lon="15.035580508808431"><ele>469.00000000000006</ele><time>2026-03-28T15:10:37Z</time></trkpt><trkpt lat="36.99663817937958" lon="15.035493994455438"><ele>469.0</ele><time>2026-03-28T15:10:39Z</time></trkpt><trkpt lat="36.99667050464533" lon="15.035403459734031"><ele>468.83333333333337</ele><time>2026-03-28T15:10:42Z</time></trkpt><trkpt lat="36.9967146810446" lon="15.035331801300204"><ele>468.6666666666667</ele><time>2026-03-28T15:10:45Z</time></trkpt><trkpt lat="36.99674248181538" lon="15.03524200664201"><ele>468.5</ele><time>2026-03-28T15:10:48Z</time></trkpt><trkpt lat="36.996761592895105" lon="15.035138768109192"><ele>468.33333333333337</ele><time>2026-03-28T15:10:51Z</time></trkpt><trkpt lat="36.99676827992618" lon="15.035053756720645"><ele>468.1666666666667</ele><time>2026-03-28T15:10:55Z</time></trkpt><trkpt lat="36.996772698081294" lon="15.03494902418477"><ele>468.0</ele><time>2026-03-28T15:10:58Z</time></trkpt><trkpt lat="36.996788323075755" lon="15.034860306726463"><ele>467.3333333333333</ele><time>2026-03-28T15:11:01Z</time></trkpt><trkpt lat="36.99680560942895" lon="15.034764627166874"><ele>466.66666666666663</ele><time>2026-03-28T15:11:05Z</time></trkpt><trkpt lat="36.99682170585662" lon="15.034681299627717"><ele>466.0</ele><time>2026-03-28T15:11:08Z</time></trkpt><trkpt lat="36.99683604337969" lon="15.03457466035962"><ele>465.3333333333333</ele><time>2026-03-28T15:11:11Z</time></trkpt><trkpt lat="36.99686439741246" lon="15.03447136461941"><ele>464.66666666666663</ele><time>2026-03-28T15:11:14Z</time></trkpt><trkpt lat="36.99690335858652" lon="15.034399575500679"><ele>464.0</ele><time>2026-03-28T15:11:15Z</time></trkpt><trkpt lat="36.99703253045828" lon="15.03426261112973"><ele>464.0</ele><time>2026-03-28T15:11:16Z</time></trkpt><trkpt lat="36.997111802015155" lon="15.034163451683673"><ele>464.0</ele><time>2026-03-28T15:11:18Z</time></trkpt><trkpt lat="36.9971757209942" lon="15.034090915501377"><ele>464.0</ele><time>2026-03-28T15:11:20Z</time></trkpt><trkpt lat="36.99725289182329" lon="15.034008398971348"><ele>464.0</ele><time>2026-03-28T15:11:23Z</time></trkpt><trkpt lat="36.99729968796508" lon="15.03393574229318"><ele>464.0</ele><time>2026-03-28T15:11:25Z</time></trkpt><trkpt lat="36.99736197375792" lon="15.03387332197679"><ele>463.99999999999994</ele><time>2026-03-28T15:11:28Z</time></trkpt><trkpt lat="36.997425928039796" lon="15.033810172485929"><ele>464.0</ele><time>2026-03-28T15:11:31Z</time></trkpt><trkpt lat="36.99747181244439" lon="15.033725989555405"><ele>464.0</ele><time>2026-03-28T15:11:34Z</time></trkpt><trkpt lat="36.99747839504313" lon="15.03364446239089"><ele>464.0</ele><time>2026-03-28T15:11:37Z</time></trkpt><trkpt lat="36.99754197504644" lon="15.033571837423382"><ele>463.99999999999994</ele><time>2026-03-28T15:11:41Z</time></trkpt><trkpt lat="36.99761201820125" lon="15.033506301896978"><ele>464.0</ele><time>2026-03-28T15:11:44Z</time></trkpt><trkpt lat="36.99765911650642" lon="15.033451205210406"><ele>465.49999999999994</ele><time>2026-03-28T15:11:47Z</time></trkpt><trkpt lat="36.99770585458156" lon="15.033387223582743"><ele>467.0</ele><time>2026-03-28T15:11:50Z</time></trkpt><trkpt lat="36.99776580013822" lon="15.033319011525599"><ele>468.5</ele><time>2026-03-28T15:11:53Z</time></trkpt><trkpt lat="36.997839683005" lon="15.033245166442867"><ele>470.0</ele><time>2026-03-28T15:11:56Z</time></trkpt><trkpt lat="36.99791043887805" lon="15.033176034069804"><ele>471.49999999999994</ele><time>2026-03-28T15:11:59Z</time></trkpt><trkpt lat="36.997985554496104" lon="15.033089210059932"><ele>473.0</ele><time>2026-03-28T15:12:01Z</time></trkpt><trkpt lat="36.9980460828219" lon="15.033031689126092"><ele>473.0</ele><time>2026-03-28T15:12:02Z</time></trkpt><trkpt lat="36.99815825270424" lon="15.032973271012917"><ele>472.99999999999994</ele><time>2026-03-28T15:12:03Z</time></trkpt><trkpt lat="36.99821208479426" lon="15.0329016431798"><ele>472.99999999999994</ele><time>2026-03-28T15:12:05Z</time></trkpt><trkpt lat="36.99826253295852" lon="15.03280791967497"><ele>473.0</ele><time>2026-03-28T15:12:07Z</time></trkpt><trkpt lat="36.99832207560449" lon="15.03271511836831"><ele>473.0</ele><time>2026-03-28T15:12:09Z</time></trkpt><trkpt lat="36.998354777706545" lon="15.032633751169685"><ele>472.99999999999994</ele><time>2026-03-28T15:12:10Z</time></trkpt><trkpt lat="36.998390021987795" lon="15.032553259817666"><ele>473.0</ele><time>2026-03-28T15:12:11Z</time></trkpt><trkpt lat="36.998441897518" lon="15.032461950569616"><ele>473.0</ele><time>2026-03-28T15:12:13Z</time></trkpt><trkpt lat="36.99849299088292" lon="15.032383498180879"><ele>473.0</ele><time>2026-03-28T15:12:15Z</time></trkpt><trkpt lat="36.998524829109186" lon="15.032306949190708"><ele>472.99999999999994</ele><time>2026-03-28T15:12:17Z</time></trkpt><trkpt lat="36.998524758473366" lon="15.032221591355928"><ele>473.0</ele><time>2026-03-28T15:12:26Z</time></trkpt><trkpt lat="36.998546646005636" lon="15.032134438193136"><ele>471.66666666666663</ele><time>2026-03-28T15:13:11Z</time></trkpt><trkpt lat="36.99857574029254" lon="15.032013530342782"><ele>470.3333333333333</ele><time>2026-03-28T15:13:14Z</time></trkpt><trkpt lat="36.998599021052286" lon="15.031934636057096"><ele>469.0</ele><time>2026-03-28T15:13:16Z</time></trkpt><trkpt lat="36.99861719884785" lon="15.03182855437278"><ele>467.66666666666663</ele><time>2026-03-28T15:13:19Z</time></trkpt><trkpt lat="36.99864759851019" lon="15.031732975849824"><ele>466.3333333333333</ele><time>2026-03-28T15:13:22Z</time></trkpt><trkpt lat="36.99867843398426" lon="15.031647393123945"><ele>465.0</ele><time>2026-03-28T15:13:26Z</time></trkpt><trkpt lat="36.99870311646186" lon="15.031551521125431"><ele>464.1666666666667</ele><time>2026-03-28T15:13:29Z</time></trkpt><trkpt lat="36.99872770322089" lon="15.031463632577823"><ele>463.33333333333337</ele><time>2026-03-28T15:13:31Z</time></trkpt><trkpt lat="36.99876402567042" lon="15.031353059224962"><ele>462.5</ele><time>2026-03-28T15:13:34Z</time></trkpt><trkpt lat="36.99878719393221" lon="15.031266467404631"><ele>461.6666666666667</ele><time>2026-03-28T15:13:36Z</time></trkpt><trkpt lat="36.99882300391179" lon="15.031172812942147"><ele>460.83333333333337</ele><time>2026-03-28T15:13:38Z</time></trkpt><trkpt lat="36.99884260038447" lon="15.031088125629262"><ele>460.0</ele><time>2026-03-28T15:13:41Z</time></trkpt><trkpt lat="36.99886473894683" lon="15.03099563351071"><ele>460.00000000000006</ele><time>2026-03-28T15:13:44Z</time></trkpt><trkpt lat="36.99889156793956" lon="15.030891663400375"><ele>460.0</ele><time>2026-03-28T15:13:47Z</time></trkpt><trkpt lat="36.99892734788868" lon="15.030790517686494"><ele>460.0</ele><time>2026-03-28T15:13:49Z</time></trkpt><trkpt lat="36.99896884000001" lon="15.030707005823164"><ele>460.0</ele><time>2026-03-28T15:13:51Z</time></trkpt><trkpt lat="36.99899310844053" lon="15.030616176998986"><ele>460.00000000000006</ele><time>2026-03-28T15:13:54Z</time></trkpt><trkpt lat="36.999052908955726" lon="15.030566470982615"><ele>460.0</ele><time>2026-03-28T15:14:06Z</time></trkpt><trkpt lat="36.999116072987604" lon="15.030523282278459"><ele>458.99999999999994</ele><time>2026-03-28T15:14:12Z</time></trkpt><trkpt lat="36.999175929885375" lon="15.030464148601611"><ele>458.0</ele><time>2026-03-28T15:14:25Z</time></trkpt><trkpt lat="36.9992156774048" lon="15.03039896655537"><ele>456.99999999999994</ele><time>2026-03-28T15:14:29Z</time></trkpt><trkpt lat="36.99926238413045" lon="15.030331642919835"><ele>455.99999999999994</ele><time>2026-03-28T15:14:32Z</time></trkpt><trkpt lat="36.99927596469334" lon="15.030236318213998"><ele>455.0</ele><time>2026-03-28T15:14:36Z</time></trkpt><trkpt lat="36.99927537560194" lon="15.030149042860415"><ele>453.99999999999994</ele><time>2026-03-28T15:14:41Z</time></trkpt><trkpt lat="36.999251080436345" lon="15.030058896613953"><ele>452.99999999999994</ele><time>2026-03-28T15:14:46Z</time></trkpt><trkpt lat="36.999267234681625" lon="15.02996148028094"><ele>452.99999999999994</ele><time>2026-03-28T15:14:51Z</time></trkpt><trkpt lat="36.99929104095893" lon="15.029878300265313"><ele>453.0</ele><time>2026-03-28T15:14:54Z</time></trkpt><trkpt lat="36.99930651314141" lon="15.029781679864884"><ele>452.99999999999994</ele><time>2026-03-28T15:14:57Z</time></trkpt><trkpt lat="36.999323563936244" lon="15.029695550852498"><ele>452.99999999999994</ele><time>2026-03-28T15:15:02Z</time></trkpt><trkpt lat="36.99930389418138" lon="15.029608420350057"><ele>453.0</ele><time>2026-03-28T15:15:08Z</time></trkpt><trkpt lat="36.99926306850065" lon="15.029543853936156"><ele>452.99999999999994</ele><time>2026-03-28T15:15:18Z</time></trkpt><trkpt lat="36.99922936491068" lon="15.029464814112622"><ele>452.99999999999994</ele><time>2026-03-28T15:15:22Z</time></trkpt><trkpt lat="36.9992200809238" lon="15.02935750886145"><ele>453.0</ele><time>2026-03-28T15:15:25Z</time></trkpt><trkpt lat="36.99922493372605" lon="15.029226881335912"><ele>453.0</ele><time>2026-03-28T15:15:29Z</time></trkpt><trkpt lat="36.99923477731978" lon="15.029128132387026"><ele>453.0</ele><time>2026-03-28T15:15:32Z</time></trkpt><trkpt lat="36.99922147720145" lon="15.029049970734679"><ele>453.0</ele><time>2026-03-28T15:15:36Z</time></trkpt><trkpt lat="36.99916920737341" lon="15.02910305058954"><ele>453.0</ele><time>2026-03-28T15:17:15Z</time></trkpt><trkpt lat="36.99909163986628" lon="15.029087417453525"><ele>453.0</ele><time>2026-03-28T15:17:18Z</time></trkpt><trkpt lat="36.99898902995389" lon="15.029007010961386"><ele>452.59999999999997</ele><time>2026-03-28T15:17:20Z</time></trkpt><trkpt lat="36.998915354162094" lon="15.02894821637092"><ele>452.19999999999993</ele><time>2026-03-28T15:17:22Z</time></trkpt><trkpt lat="36.99882412851561" lon="15.028887844835722"><ele>451.8</ele><time>2026-03-28T15:17:24Z</time></trkpt><trkpt lat="36.99873169079052" lon="15.0288498921804"><ele>451.4</ele><time>2026-03-28T15:17:26Z</time></trkpt><trkpt lat="36.99865371414994" lon="15.028823333973163"><ele>451.0</ele><time>2026-03-28T15:17:28Z</time></trkpt><trkpt lat="36.99855247588189" lon="15.028799574264582"><ele>451.00000000000006</ele><time>2026-03-28T15:17:30Z</time></trkpt><trkpt lat="36.9984740206955" lon="15.028807100610772"><ele>451.0</ele><time>2026-03-28T15:17:31Z</time></trkpt><trkpt lat="36.9984104114491" lon="15.028802462339979"><ele>451.0</ele><time>2026-03-28T15:17:32Z</time></trkpt><trkpt lat="36.998339952237984" lon="15.028792921577088"><ele>451.0</ele><time>2026-03-28T15:17:33Z</time></trkpt><trkpt lat="36.9982315506044" lon="15.028776022562704"><ele>451.00000000000006</ele><time>2026-03-28T15:17:35Z</time></trkpt><trkpt lat="36.998155262539896" lon="15.028736869743337"><ele>451.0</ele><time>2026-03-28T15:17:37Z</time></trkpt><trkpt lat="36.9980894799294" lon="15.028653147351774"><ele>450.8</ele><time>2026-03-28T15:17:40Z</time></trkpt><trkpt lat="36.99806423868319" lon="15.028570376002754"><ele>450.6</ele><time>2026-03-28T15:17:42Z</time></trkpt><trkpt lat="36.99800844715118" lon="15.02841344153613"><ele>450.4</ele><time>2026-03-28T15:17:44Z</time></trkpt><trkpt lat="36.99794449996633" lon="15.0283332787491"><ele>450.2</ele><time>2026-03-28T15:17:45Z</time></trkpt><trkpt lat="36.99789476719596" lon="15.028233810467992"><ele>450.0</ele><time>2026-03-28T15:17:46Z</time></trkpt><trkpt lat="36.99784263131953" lon="15.0281618932675"><ele>450.0</ele><time>2026-03-28T15:17:47Z</time></trkpt><trkpt lat="36.997798655690694" lon="15.028102526714097"><ele>450.0</ele><time>2026-03-28T15:17:48Z</time></trkpt><trkpt lat="36.997716589107206" lon="15.028001494065172"><ele>450.0</ele><time>2026-03-28T15:17:50Z</time></trkpt><trkpt lat="36.99766304180872" lon="15.027933955596145"><ele>450.0</ele><time>2026-03-28T15:17:51Z</time></trkpt><trkpt lat="36.99760029013106" lon="15.02785963443323"><ele>450.0</ele><time>2026-03-28T15:17:52Z</time></trkpt><trkpt lat="36.997519903178095" lon="15.027768606105724"><ele>450.4</ele><time>2026-03-28T15:17:53Z</time></trkpt><trkpt lat="36.997444891586575" lon="15.027670881192812"><ele>450.8</ele><time>2026-03-28T15:17:54Z</time></trkpt><trkpt lat="36.997370721694395" lon="15.02758100561185"><ele>451.20000000000005</ele><time>2026-03-28T15:17:55Z</time></trkpt><trkpt lat="36.99729994273929" lon="15.027491459036884"><ele>451.6</ele><time>2026-03-28T15:17:56Z</time></trkpt><trkpt lat="36.997242772138236" lon="15.027413728083404"><ele>452.0</ele><time>2026-03-28T15:17:57Z</time></trkpt><trkpt lat="36.99718503020066" lon="15.027334137853146"><ele>451.99999999999994</ele><time>2026-03-28T15:17:59Z</time></trkpt><trkpt lat="36.997218679084725" lon="15.027218277991594"><ele>452.0</ele><time>2026-03-28T15:18:02Z</time></trkpt><trkpt lat="36.99725367934744" lon="15.027150432347153"><ele>452.0</ele><time>2026-03-28T15:18:03Z</time></trkpt><trkpt lat="36.99728615604497" lon="15.027075987588416"><ele>452.0</ele><time>2026-03-28T15:18:04Z</time></trkpt><trkpt lat="36.99729674829517" lon="15.026940345373095"><ele>451.99999999999994</ele><time>2026-03-28T15:18:06Z</time></trkpt><trkpt lat="36.997320482532295" lon="15.026858625549059"><ele>452.0</ele><time>2026-03-28T15:18:07Z</time></trkpt><trkpt lat="36.997387542283896" lon="15.02670301739988"><ele>452.16666666666663</ele><time>2026-03-28T15:18:09Z</time></trkpt><trkpt lat="36.9974325464458" lon="15.026596155310553"><ele>452.3333333333333</ele><time>2026-03-28T15:18:10Z</time></trkpt><trkpt lat="36.99747864675524" lon="15.026497455900905"><ele>452.5</ele><time>2026-03-28T15:18:11Z</time></trkpt><trkpt lat="36.99751652169187" lon="15.02641531679776"><ele>452.66666666666663</ele><time>2026-03-28T15:18:12Z</time></trkpt><trkpt lat="36.997547829629966" lon="15.026336322620761"><ele>452.8333333333333</ele><time>2026-03-28T15:18:13Z</time></trkpt><trkpt lat="36.99757829438817" lon="15.02626301324884"><ele>453.0</ele><time>2026-03-28T15:18:14Z</time></trkpt><trkpt lat="36.99761855300863" lon="15.026142868442475"><ele>453.0</ele><time>2026-03-28T15:18:16Z</time></trkpt><trkpt lat="36.997605557519904" lon="15.026053307286286"><ele>452.99999999999994</ele><time>2026-03-28T15:18:18Z</time></trkpt><trkpt lat="36.997500409269094" lon="15.02596654715255"><ele>452.99999999999994</ele><time>2026-03-28T15:18:20Z</time></trkpt><trkpt lat="36.99745398869853" lon="15.025900940195042"><ele>453.0</ele><time>2026-03-28T15:18:21Z</time></trkpt><trkpt lat="36.997398128865804" lon="15.02580839613319"><ele>453.0</ele><time>2026-03-28T15:18:22Z</time></trkpt><trkpt lat="36.99733569598619" lon="15.025723812200791"><ele>451.2</ele><time>2026-03-28T15:18:23Z</time></trkpt><trkpt lat="36.99727684531321" lon="15.025654274393766"><ele>449.4</ele><time>2026-03-28T15:18:24Z</time></trkpt><trkpt lat="36.997170958394435" lon="15.02557371889022"><ele>447.59999999999997</ele><time>2026-03-28T15:18:26Z</time></trkpt><trkpt lat="36.997057978723966" lon="15.025531179352157"><ele>445.79999999999995</ele><time>2026-03-28T15:18:28Z</time></trkpt><trkpt lat="36.99701245786438" lon="15.025469035524356"><ele>444.0</ele><time>2026-03-28T15:18:29Z</time></trkpt><trkpt lat="36.996943858095314" lon="15.025397912207913"><ele>444.0</ele><time>2026-03-28T15:18:30Z</time></trkpt><trkpt lat="36.99686990979122" lon="15.025328459771538"><ele>444.0</ele><time>2026-03-28T15:18:31Z</time></trkpt><trkpt lat="36.996812297381446" lon="15.02526891716444"><ele>444.0</ele><time>2026-03-28T15:18:32Z</time></trkpt><trkpt lat="36.99674646293476" lon="15.025209536499831"><ele>444.0</ele><time>2026-03-28T15:18:33Z</time></trkpt><trkpt lat="36.996684681650386" lon="15.02514939238056"><ele>444.0</ele><time>2026-03-28T15:18:34Z</time></trkpt><trkpt lat="36.99662697840794" lon="15.025091943887054"><ele>444.0</ele><time>2026-03-28T15:18:35Z</time></trkpt><trkpt lat="36.996567760365664" lon="15.025032596256157"><ele>444.0</ele><time>2026-03-28T15:18:36Z</time></trkpt><trkpt lat="36.99651570414385" lon="15.02498116146289"><ele>444.0</ele><time>2026-03-28T15:18:37Z</time></trkpt><trkpt lat="36.99645890943862" lon="15.024931270182492"><ele>444.0</ele><time>2026-03-28T15:18:38Z</time></trkpt><trkpt lat="36.996396516639436" lon="15.024873993013232"><ele>444.0</ele><time>2026-03-28T15:18:39Z</time></trkpt><trkpt lat="36.99628180065304" lon="15.024788077609738"><ele>444.0</ele><time>2026-03-28T15:18:40Z</time></trkpt><trkpt lat="36.9961948695816" lon="15.024704446129329"><ele>443.33333333333337</ele><time>2026-03-28T15:18:41Z</time></trkpt><trkpt lat="36.99610643024004" lon="15.02459417624135"><ele>442.6666666666667</ele><time>2026-03-28T15:18:42Z</time></trkpt><trkpt lat="36.99597125150939" lon="15.024493655477722"><ele>442.0</ele><time>2026-03-28T15:18:43Z</time></trkpt><trkpt lat="36.99582770828801" lon="15.024324369194423"><ele>442.0</ele><time>2026-03-28T15:18:44Z</time></trkpt><trkpt lat="36.995679135323755" lon="15.02416731217179"><ele>442.0</ele><time>2026-03-28T15:18:45Z</time></trkpt><trkpt lat="36.99575297751459" lon="15.02424536979247"><ele>442.0</ele><time>2026-03-28T15:18:46Z</time></trkpt><trkpt lat="36.995874642832206" lon="15.024141200622994"><ele>442.0</ele><time>2026-03-28T15:18:53Z</time></trkpt><trkpt lat="36.99594771929427" lon="15.024077557744603"><ele>441.75</ele><time>2026-03-28T15:18:54Z</time></trkpt><trkpt lat="36.996024616006274" lon="15.024009435189566"><ele>441.5</ele><time>2026-03-28T15:18:55Z</time></trkpt><trkpt lat="36.996102905556626" lon="15.02392283775384"><ele>441.25</ele><time>2026-03-28T15:18:56Z</time></trkpt><trkpt lat="36.99620462177621" lon="15.023826163773576"><ele>441.0</ele><time>2026-03-28T15:18:57Z</time></trkpt><trkpt lat="36.996325641761565" lon="15.023715770814372"><ele>441.0</ele><time>2026-03-28T15:18:58Z</time></trkpt><trkpt lat="36.996471425239605" lon="15.023576089912305"><ele>441.0</ele><time>2026-03-28T15:18:59Z</time></trkpt><trkpt lat="36.996621066139745" lon="15.023428610080522"><ele>441.0</ele><time>2026-03-28T15:19:00Z</time></trkpt><trkpt lat="36.99678734519238" lon="15.023265721597157"><ele>441.66666666666663</ele><time>2026-03-28T15:19:01Z</time></trkpt><trkpt lat="36.99696044802121" lon="15.023094944405033"><ele>442.3333333333333</ele><time>2026-03-28T15:19:02Z</time></trkpt><trkpt lat="36.99713760511847" lon="15.022925182523561"><ele>443.0</ele><time>2026-03-28T15:19:03Z</time></trkpt><trkpt lat="36.997321538431535" lon="15.022749863768547"><ele>443.0</ele><time>2026-03-28T15:19:04Z</time></trkpt><trkpt lat="36.997508350814506" lon="15.022563659306279"><ele>443.0</ele><time>2026-03-28T15:19:05Z</time></trkpt><trkpt lat="36.99771443551604" lon="15.022365250270184"><ele>443.0</ele><time>2026-03-28T15:19:06Z</time></trkpt><trkpt lat="36.99791469221671" lon="15.022179835982085"><ele>443.0</ele><time>2026-03-28T15:19:07Z</time></trkpt><trkpt lat="36.99810862902386" lon="15.02198774585362"><ele>443.0</ele><time>2026-03-28T15:19:08Z</time></trkpt><trkpt lat="36.998302264140335" lon="15.021797857954775"><ele>443.0</ele><time>2026-03-28T15:19:09Z</time></trkpt><trkpt lat="36.99848060008584" lon="15.021617740721338"><ele>443.3333333333333</ele><time>2026-03-28T15:19:10Z</time></trkpt><trkpt lat="36.99865023184388" lon="15.02145019469137"><ele>443.66666666666663</ele><time>2026-03-28T15:19:11Z</time></trkpt><trkpt lat="36.998813420588085" lon="15.021296743530451"><ele>444.0</ele><time>2026-03-28T15:19:12Z</time></trkpt><trkpt lat="36.998977088442466" lon="15.021139269238725"><ele>444.0</ele><time>2026-03-28T15:19:13Z</time></trkpt><trkpt lat="36.99913244175617" lon="15.020994450322657"><ele>444.0</ele><time>2026-03-28T15:19:14Z</time></trkpt><trkpt lat="36.999267425532295" lon="15.020875517429038"><ele>444.0</ele><time>2026-03-28T15:19:15Z</time></trkpt><trkpt lat="36.99940680864959" lon="15.020739816399848"><ele>444.0</ele><time>2026-03-28T15:19:16Z</time></trkpt><trkpt lat="36.99954747979804" lon="15.020606106030755"><ele>444.0</ele><time>2026-03-28T15:19:17Z</time></trkpt><trkpt lat="36.999678570562374" lon="15.020488198598045"><ele>444.0</ele><time>2026-03-28T15:19:18Z</time></trkpt><trkpt lat="36.999804651125494" lon="15.020388064933229"><ele>444.0</ele><time>2026-03-28T15:19:19Z</time></trkpt><trkpt lat="36.9999117127008" lon="15.020325655726579"><ele>444.0</ele><time>2026-03-28T15:19:20Z</time></trkpt><trkpt lat="37.0000105027966" lon="15.020277135491991"><ele>444.0</ele><time>2026-03-28T15:19:21Z</time></trkpt><trkpt lat="37.00011158472456" lon="15.020239158895135"><ele>444.0</ele><time>2026-03-28T15:19:22Z</time></trkpt><trkpt lat="37.00019880873403" lon="15.020196801298475"><ele>444.0</ele><time>2026-03-28T15:19:23Z</time></trkpt><trkpt lat="37.00026308300826" lon="15.020162318786419"><ele>444.0</ele><time>2026-03-28T15:19:24Z</time></trkpt><trkpt lat="37.000327870667455" lon="15.020128792352295"><ele>444.0</ele><time>2026-03-28T15:19:25Z</time></trkpt><trkpt lat="37.00042558484053" lon="15.020075909427868"><ele>444.0</ele><time>2026-03-28T15:19:27Z</time></trkpt><trkpt lat="37.000535564691575" lon="15.02002322330571"><ele>444.0</ele><time>2026-03-28T15:19:29Z</time></trkpt><trkpt lat="37.000597060272945" lon="15.02000400114921"><ele>444.0</ele><time>2026-03-28T15:19:30Z</time></trkpt><trkpt lat="37.00067269985769" lon="15.019979166015547"><ele>444.0</ele><time>2026-03-28T15:19:32Z</time></trkpt><trkpt lat="37.00055454500144" lon="15.020005399016657"><ele>444.0</ele><time>2026-03-28T15:19:42Z</time></trkpt><trkpt lat="37.00043659309318" lon="15.020098001646755"><ele>444.0</ele><time>2026-03-28T15:19:43Z</time></trkpt><trkpt lat="37.000347839636966" lon="15.020096519295729"><ele>444.0</ele><time>2026-03-28T15:19:45Z</time></trkpt><trkpt lat="37.00026655002084" lon="15.020061271897955"><ele>444.0</ele><time>2026-03-28T15:19:47Z</time></trkpt><trkpt lat="37.00017341505702" lon="15.019963895230728"><ele>444.0</ele><time>2026-03-28T15:19:49Z</time></trkpt><trkpt lat="37.00011969927059" lon="15.019918138818355"><ele>444.0</ele><time>2026-03-28T15:19:50Z</time></trkpt><trkpt lat="37.0000655646934" lon="15.019866665096513"><ele>444.0</ele><time>2026-03-28T15:19:51Z</time></trkpt><trkpt lat="36.999994088003085" lon="15.019809448642386"><ele>444.0</ele><time>2026-03-28T15:19:53Z</time></trkpt><trkpt lat="36.99993587024373" lon="15.019760161168358"><ele>444.0</ele><time>2026-03-28T15:19:55Z</time></trkpt><trkpt lat="36.999864507195014" lon="15.019710623947786"><ele>444.0</ele><time>2026-03-28T15:19:58Z</time></trkpt><trkpt lat="36.99976144025169" lon="15.019627257653976"><ele>444.0</ele><time>2026-03-28T15:20:00Z</time></trkpt><trkpt lat="36.999684951031576" lon="15.019579296004752"><ele>444.0</ele><time>2026-03-28T15:20:01Z</time></trkpt><trkpt lat="36.99960343963523" lon="15.019537650924617"><ele>444.0</ele><time>2026-03-28T15:20:02Z</time></trkpt><trkpt lat="36.99953629978372" lon="15.019493617044086"><ele>444.0</ele><time>2026-03-28T15:20:03Z</time></trkpt><trkpt lat="36.99947522209678" lon="15.019468583676506"><ele>444.0</ele><time>2026-03-28T15:20:04Z</time></trkpt><trkpt lat="36.999378369515874" lon="15.019415940113555"><ele>444.0</ele><time>2026-03-28T15:20:06Z</time></trkpt><trkpt lat="36.99928176168763" lon="15.01942223629154"><ele>444.0</ele><time>2026-03-28T15:20:08Z</time></trkpt><trkpt lat="36.999216785564414" lon="15.019432891593327"><ele>443.3333333333333</ele><time>2026-03-28T15:20:09Z</time></trkpt><trkpt lat="36.999143528989535" lon="15.019431504168834"><ele>442.66666666666663</ele><time>2026-03-28T15:20:10Z</time></trkpt><trkpt lat="36.99907892497465" lon="15.019438790049982"><ele>442.0</ele><time>2026-03-28T15:20:11Z</time></trkpt><trkpt lat="36.999006612641175" lon="15.019444643518435"><ele>441.3333333333333</ele><time>2026-03-28T15:20:12Z</time></trkpt><trkpt lat="36.998939635183234" lon="15.019446040890138"><ele>440.66666666666663</ele><time>2026-03-28T15:20:13Z</time></trkpt><trkpt lat="36.998838119626626" lon="15.019450051747674"><ele>440.0</ele><time>2026-03-28T15:20:15Z</time></trkpt><trkpt lat="36.99875229805249" lon="15.019412617430877"><ele>439.99999999999994</ele><time>2026-03-28T15:20:17Z</time></trkpt><trkpt lat="36.99870319414822" lon="15.019348770647825"><ele>440.0</ele><time>2026-03-28T15:20:19Z</time></trkpt><trkpt lat="36.99866559460992" lon="15.019267265627345"><ele>440.0</ele><time>2026-03-28T15:20:22Z</time></trkpt><trkpt lat="36.9986212695118" lon="15.019178316180641"><ele>440.0</ele><time>2026-03-28T15:23:40Z</time></trkpt><trkpt lat="36.99861873781332" lon="15.019083462874478"><ele>440.0</ele><time>2026-03-28T15:23:42Z</time></trkpt><trkpt lat="36.998622593742404" lon="15.018998355999242"><ele>439.99999999999994</ele><time>2026-03-28T15:23:46Z</time></trkpt><trkpt lat="36.998625959616476" lon="15.018918203014946"><ele>440.0</ele><time>2026-03-28T15:23:49Z</time></trkpt><trkpt lat="36.998633314612746" lon="15.018839052822932"><ele>439.85714285714283</ele><time>2026-03-28T15:23:53Z</time></trkpt><trkpt lat="36.99863967907124" lon="15.018755378810289"><ele>439.7142857142857</ele><time>2026-03-28T15:23:58Z</time></trkpt><trkpt lat="36.99862679415278" lon="15.0186733064717"><ele>439.57142857142856</ele><time>2026-03-28T15:24:04Z</time></trkpt><trkpt lat="36.99855019427372" lon="15.018716648971363"><ele>439.42857142857144</ele><time>2026-03-28T15:24:33Z</time></trkpt><trkpt lat="36.998486840969406" lon="15.018712763202315"><ele>439.2857142857143</ele><time>2026-03-28T15:25:35Z</time></trkpt><trkpt lat="36.998428134565046" lon="15.018741370060235"><ele>439.1428571428571</ele><time>2026-03-28T15:28:11Z</time></trkpt><trkpt lat="36.998360947878666" lon="15.01873949082094"><ele>439.0</ele><time>2026-03-28T15:28:27Z</time></trkpt><trkpt lat="36.998289565418624" lon="15.018757544943883"><ele>436.57142857142856</ele><time>2026-03-28T15:28:35Z</time></trkpt><trkpt lat="36.99821887845216" lon="15.018766411602224"><ele>434.1428571428571</ele><time>2026-03-28T15:28:42Z</time></trkpt><trkpt lat="36.99814347420717" lon="15.018784781689051"><ele>431.7142857142857</ele><time>2026-03-28T15:28:47Z</time></trkpt><trkpt lat="36.998079077739916" lon="15.018787525005308"><ele>429.2857142857143</ele><time>2026-03-28T15:28:51Z</time></trkpt><trkpt lat="36.99801647773946" lon="15.018809067593182"><ele>426.8571428571429</ele><time>2026-03-28T15:30:49Z</time></trkpt><trkpt lat="36.99796011127312" lon="15.018877928819512"><ele>424.42857142857144</ele><time>2026-03-28T15:30:51Z</time></trkpt><trkpt lat="36.997908023110035" lon="15.018940686494702"><ele>422.0</ele><time>2026-03-28T15:30:53Z</time></trkpt><trkpt lat="36.99785852421689" lon="15.019056735712194"><ele>421.99999999999994</ele><time>2026-03-28T15:30:56Z</time></trkpt><trkpt lat="36.99778477272819" lon="15.019146776140051"><ele>422.0</ele><time>2026-03-28T15:30:58Z</time></trkpt><trkpt lat="36.99768653550908" lon="15.019185158188215"><ele>422.0</ele><time>2026-03-28T15:31:00Z</time></trkpt><trkpt lat="36.99762021320441" lon="15.019203309744057"><ele>422.0</ele><time>2026-03-28T15:31:02Z</time></trkpt><trkpt lat="36.99755233176655" lon="15.019241020542191"><ele>421.99999999999994</ele><time>2026-03-28T15:31:05Z</time></trkpt><trkpt lat="36.99748380360398" lon="15.019271605036943"><ele>422.0</ele><time>2026-03-28T15:31:16Z</time></trkpt><trkpt lat="36.99741706038542" lon="15.01923423046174"><ele>422.16666666666663</ele><time>2026-03-28T15:31:34Z</time></trkpt><trkpt lat="36.9973465701388" lon="15.01924133284714"><ele>422.3333333333333</ele><time>2026-03-28T15:31:41Z</time></trkpt><trkpt lat="36.997295923911025" lon="15.019176577740394"><ele>422.5</ele><time>2026-03-28T15:31:44Z</time></trkpt><trkpt lat="36.99732037971536" lon="15.019076806484712"><ele>422.66666666666663</ele><time>2026-03-28T15:32:05Z</time></trkpt><trkpt lat="36.99738142014986" lon="15.019023452891906"><ele>422.8333333333333</ele><time>2026-03-28T15:32:08Z</time></trkpt><trkpt lat="36.99743716463466" lon="15.018955280324109"><ele>423.0</ele><time>2026-03-28T15:32:10Z</time></trkpt><trkpt lat="36.99747485235145" lon="15.018878512907643"><ele>422.8333333333333</ele><time>2026-03-28T15:32:12Z</time></trkpt><trkpt lat="36.99749660314593" lon="15.018792294857782"><ele>422.66666666666663</ele><time>2026-03-28T15:32:14Z</time></trkpt><trkpt lat="36.99754901960408" lon="15.018726322400031"><ele>422.5</ele><time>2026-03-28T15:32:16Z</time></trkpt><trkpt lat="36.997614536540105" lon="15.0187145937335"><ele>422.3333333333333</ele><time>2026-03-28T15:32:18Z</time></trkpt><trkpt lat="36.99768928535768" lon="15.018632255134687"><ele>422.16666666666663</ele><time>2026-03-28T15:32:20Z</time></trkpt><trkpt lat="36.99773522589663" lon="15.018575403625047"><ele>422.0</ele><time>2026-03-28T15:32:21Z</time></trkpt><trkpt lat="36.99781553689386" lon="15.01846739331727"><ele>421.99999999999994</ele><time>2026-03-28T15:32:23Z</time></trkpt><trkpt lat="36.99786984204044" lon="15.01838801282494"><ele>422.0</ele><time>2026-03-28T15:32:25Z</time></trkpt><trkpt lat="36.99791234699857" lon="15.01830815633588"><ele>422.0</ele><time>2026-03-28T15:32:29Z</time></trkpt><trkpt lat="36.997940129502574" lon="15.018228942705232"><ele>422.0</ele><time>2026-03-28T15:32:31Z</time></trkpt><trkpt lat="36.99798605490069" lon="15.018145946516052"><ele>421.99999999999994</ele><time>2026-03-28T15:32:34Z</time></trkpt><trkpt lat="36.99805617618901" lon="15.018080540555069"><ele>422.0</ele><time>2026-03-28T15:32:59Z</time></trkpt><trkpt lat="36.998120976022356" lon="15.01796853410423"><ele>422.16666666666663</ele><time>2026-03-28T15:33:01Z</time></trkpt><trkpt lat="36.99818084847381" lon="15.017882667335476"><ele>422.3333333333333</ele><time>2026-03-28T15:33:03Z</time></trkpt><trkpt lat="36.998267390547326" lon="15.017831386838127"><ele>422.5</ele><time>2026-03-28T15:33:06Z</time></trkpt><trkpt lat="36.99832555248863" lon="15.017784059094122"><ele>422.66666666666663</ele><time>2026-03-28T15:33:08Z</time></trkpt><trkpt lat="36.99838153577067" lon="15.017698803206814"><ele>422.8333333333333</ele><time>2026-03-28T15:33:10Z</time></trkpt><trkpt lat="36.99842136851649" lon="15.017629265272257"><ele>423.0</ele><time>2026-03-28T15:33:12Z</time></trkpt><trkpt lat="36.998445799672155" lon="15.01752630964529"><ele>423.3333333333333</ele><time>2026-03-28T15:33:14Z</time></trkpt><trkpt lat="36.99848733353512" lon="15.017422701546696"><ele>423.66666666666663</ele><time>2026-03-28T15:33:16Z</time></trkpt><trkpt lat="36.99850512080046" lon="15.017339368685663"><ele>424.0</ele><time>2026-03-28T15:33:18Z</time></trkpt><trkpt lat="36.998554121937346" lon="15.017247687255965"><ele>424.3333333333333</ele><time>2026-03-28T15:33:20Z</time></trkpt><trkpt lat="36.99860222054777" lon="15.01717089838412"><ele>424.66666666666663</ele><time>2026-03-28T15:33:23Z</time></trkpt><trkpt lat="36.99855677813092" lon="15.017225725328387"><ele>425.0</ele><time>2026-03-28T15:34:00Z</time></trkpt><trkpt lat="36.99851772652255" lon="15.017324718823653"><ele>424.99999999999994</ele><time>2026-03-28T15:34:02Z</time></trkpt><trkpt lat="36.99848114596837" lon="15.017436210843304"><ele>425.0</ele><time>2026-03-28T15:34:06Z</time></trkpt><trkpt lat="36.99843942967392" lon="15.017563646186954"><ele>425.0</ele><time>2026-03-28T15:34:08Z</time></trkpt><trkpt lat="36.99840509822367" lon="15.017662627791978"><ele>425.0</ele><time>2026-03-28T15:34:10Z</time></trkpt><trkpt lat="36.998362848757274" lon="15.017730938162043"><ele>424.99999999999994</ele><time>2026-03-28T15:34:12Z</time></trkpt><trkpt lat="36.998305756240086" lon="15.017804128319652"><ele>425.0</ele><time>2026-03-28T15:34:14Z</time></trkpt><trkpt lat="36.9982051333062" lon="15.017860934193061"><ele>424.66666666666663</ele><time>2026-03-28T15:34:17Z</time></trkpt><trkpt lat="36.99813885505485" lon="15.017932799714734"><ele>424.3333333333333</ele><time>2026-03-28T15:34:19Z</time></trkpt><trkpt lat="36.99808757362276" lon="15.018034727939742"><ele>424.0</ele><time>2026-03-28T15:34:21Z</time></trkpt><trkpt lat="36.99802667292129" lon="15.018100591152114"><ele>423.66666666666663</ele><time>2026-03-28T15:34:23Z</time></trkpt><trkpt lat="36.997962120809916" lon="15.018174084270997"><ele>423.3333333333333</ele><time>2026-03-28T15:34:25Z</time></trkpt><trkpt lat="36.99793605489328" lon="15.018249807674067"><ele>423.0</ele><time>2026-03-28T15:34:27Z</time></trkpt><trkpt lat="36.99790460671511" lon="15.018345162654354"><ele>422.8333333333333</ele><time>2026-03-28T15:34:29Z</time></trkpt><trkpt lat="36.99783638386746" lon="15.018451831001776"><ele>422.66666666666663</ele><time>2026-03-28T15:34:31Z</time></trkpt><trkpt lat="36.997785332383565" lon="15.018502165587993"><ele>422.5</ele><time>2026-03-28T15:34:32Z</time></trkpt><trkpt lat="36.99771132476627" lon="15.018582391821212"><ele>422.3333333333333</ele><time>2026-03-28T15:34:34Z</time></trkpt><trkpt lat="36.997652146515954" lon="15.018648838402958"><ele>422.16666666666663</ele><time>2026-03-28T15:34:36Z</time></trkpt><trkpt lat="36.99760298275571" lon="15.018718813678348"><ele>422.0</ele><time>2026-03-28T15:34:38Z</time></trkpt><trkpt lat="36.99754074546043" lon="15.018743572057941"><ele>422.49999999999994</ele><time>2026-03-28T15:34:40Z</time></trkpt><trkpt lat="36.997485805352234" lon="15.018785615556519"><ele>423.0</ele><time>2026-03-28T15:34:42Z</time></trkpt><trkpt lat="36.9974618539149" lon="15.0188894010716"><ele>423.5</ele><time>2026-03-28T15:34:44Z</time></trkpt><trkpt lat="36.99742579447798" lon="15.018975310350479"><ele>424.0</ele><time>2026-03-28T15:34:46Z</time></trkpt><trkpt lat="36.9973674130649" lon="15.019033603902532"><ele>424.49999999999994</ele><time>2026-03-28T15:34:48Z</time></trkpt><trkpt lat="36.99728566527145" lon="15.019060332043159"><ele>425.0</ele><time>2026-03-28T15:34:50Z</time></trkpt><trkpt lat="36.997211412985926" lon="15.01913153245116"><ele>424.66666666666663</ele><time>2026-03-28T15:34:53Z</time></trkpt><trkpt lat="36.99715644018926" lon="15.019214655039308"><ele>424.3333333333333</ele><time>2026-03-28T15:34:55Z</time></trkpt><trkpt lat="36.99711528023602" lon="15.019296518963554"><ele>424.0</ele><time>2026-03-28T15:34:57Z</time></trkpt><trkpt lat="36.997066735812545" lon="15.019353845091873"><ele>423.66666666666663</ele><time>2026-03-28T15:34:58Z</time></trkpt><trkpt lat="36.99700932795362" lon="15.019419664691029"><ele>423.3333333333333</ele><time>2026-03-28T15:34:59Z</time></trkpt><trkpt lat="36.99690816180882" lon="15.019471978493804"><ele>423.0</ele><time>2026-03-28T15:35:01Z</time></trkpt><trkpt lat="36.99681303122296" lon="15.019445339930336"><ele>423.0</ele><time>2026-03-28T15:35:04Z</time></trkpt><trkpt lat="36.99675270459632" lon="15.019480629031701"><ele>423.0</ele><time>2026-03-28T15:35:06Z</time></trkpt><trkpt lat="36.99667239176181" lon="15.01956819782035"><ele>423.0</ele><time>2026-03-28T15:35:08Z</time></trkpt><trkpt lat="36.99657963333297" lon="15.01963107745015"><ele>423.0</ele><time>2026-03-28T15:35:10Z</time></trkpt><trkpt lat="36.99651961963277" lon="15.019659113522636"><ele>423.0</ele><time>2026-03-28T15:35:12Z</time></trkpt><trkpt lat="36.996452082338976" lon="15.019649413962822"><ele>423.0</ele><time>2026-03-28T15:35:15Z</time></trkpt><trkpt lat="36.99639333323986" lon="15.019684245125879"><ele>423.2</ele><time>2026-03-28T15:35:18Z</time></trkpt><trkpt lat="36.996353503209335" lon="15.019754931260815"><ele>423.4</ele><time>2026-03-28T15:35:20Z</time></trkpt><trkpt lat="36.99627578128703" lon="15.019827359631918"><ele>423.59999999999997</ele><time>2026-03-28T15:35:22Z</time></trkpt><trkpt lat="36.99616295269354" lon="15.019864355661209"><ele>423.79999999999995</ele><time>2026-03-28T15:35:24Z</time></trkpt><trkpt lat="36.99609836812594" lon="15.019872297167332"><ele>424.0</ele><time>2026-03-28T15:35:25Z</time></trkpt><trkpt lat="36.99599518430827" lon="15.019892279249136"><ele>424.00000000000006</ele><time>2026-03-28T15:35:27Z</time></trkpt><trkpt lat="36.99592154511735" lon="15.019901451944337"><ele>424.0</ele><time>2026-03-28T15:35:32Z</time></trkpt><trkpt lat="36.99584582629492" lon="15.01994407114471"><ele>424.0</ele><time>2026-03-28T15:35:34Z</time></trkpt><trkpt lat="36.99577367087265" lon="15.01996562842322"><ele>424.0</ele><time>2026-03-28T15:35:38Z</time></trkpt><trkpt lat="36.99572184829159" lon="15.019873557754398"><ele>424.00000000000006</ele><time>2026-03-28T15:35:41Z</time></trkpt><trkpt lat="36.99569783370821" lon="15.019786051187394"><ele>424.0</ele><time>2026-03-28T15:35:43Z</time></trkpt><trkpt lat="36.99565204966591" lon="15.019712888456285"><ele>424.00000000000006</ele><time>2026-03-28T15:35:45Z</time></trkpt><trkpt lat="36.995637900095424" lon="15.019616407380742"><ele>424.0</ele><time>2026-03-28T15:35:48Z</time></trkpt><trkpt lat="36.995669886621066" lon="15.01953644838531"><ele>424.0</ele><time>2026-03-28T15:35:50Z</time></trkpt><trkpt lat="36.99572709000885" lon="15.019498088728781"><ele>424.0</ele><time>2026-03-28T15:35:52Z</time></trkpt><trkpt lat="36.99580160079387" lon="15.01943308857313"><ele>424.00000000000006</ele><time>2026-03-28T15:35:54Z</time></trkpt><trkpt lat="36.99587923134289" lon="15.019391257805928"><ele>424.0</ele><time>2026-03-28T15:35:56Z</time></trkpt><trkpt lat="36.99595272051127" lon="15.019344693590636"><ele>424.00000000000006</ele><time>2026-03-28T15:35:58Z</time></trkpt><trkpt lat="36.99604327956831" lon="15.019276191537056"><ele>424.0</ele><time>2026-03-28T15:36:00Z</time></trkpt><trkpt lat="36.9961072938939" lon="15.019206120413218"><ele>424.0</ele><time>2026-03-28T15:36:02Z</time></trkpt><trkpt lat="36.99617878407434" lon="15.019113408307122"><ele>424.0</ele><time>2026-03-28T15:36:04Z</time></trkpt><trkpt lat="36.996227828128404" lon="15.019063429519719"><ele>424.00000000000006</ele><time>2026-03-28T15:36:05Z</time></trkpt><trkpt lat="36.99628398317477" lon="15.019008725991386"><ele>424.0</ele><time>2026-03-28T15:36:06Z</time></trkpt><trkpt lat="36.99637729190278" lon="15.01892988812886"><ele>424.1666666666667</ele><time>2026-03-28T15:36:08Z</time></trkpt><trkpt lat="36.99645081682268" lon="15.018846395626673"><ele>424.33333333333337</ele><time>2026-03-28T15:36:10Z</time></trkpt><trkpt lat="36.996501829273974" lon="15.018777295869139"><ele>424.5</ele><time>2026-03-28T15:36:11Z</time></trkpt><trkpt lat="36.996560781578985" lon="15.018716723995162"><ele>424.66666666666663</ele><time>2026-03-28T15:36:12Z</time></trkpt><trkpt lat="36.99662436883594" lon="15.018664113326377"><ele>424.8333333333333</ele><time>2026-03-28T15:36:13Z</time></trkpt><trkpt lat="36.996708330959876" lon="15.018583697900153"><ele>425.0</ele><time>2026-03-28T15:36:15Z</time></trkpt><trkpt lat="36.996742549532094" lon="15.018515192965964"><ele>424.99999999999994</ele><time>2026-03-28T15:36:16Z</time></trkpt><trkpt lat="36.99676958087699" lon="15.018430593639213"><ele>425.0</ele><time>2026-03-28T15:36:17Z</time></trkpt><trkpt lat="36.99678349064923" lon="15.01829417895706"><ele>425.0</ele><time>2026-03-28T15:36:19Z</time></trkpt><trkpt lat="36.99677936562421" lon="15.018196504991945"><ele>425.0</ele><time>2026-03-28T15:36:20Z</time></trkpt><trkpt lat="36.99678707862661" lon="15.018102433543625"><ele>424.99999999999994</ele><time>2026-03-28T15:36:21Z</time></trkpt><trkpt lat="36.99680765130334" lon="15.018013281632307"><ele>425.0</ele><time>2026-03-28T15:36:22Z</time></trkpt><trkpt lat="36.996869255261494" lon="15.017893918121292"><ele>427.25</ele><time>2026-03-28T15:36:24Z</time></trkpt><trkpt lat="36.99695708806401" lon="15.017802337263626"><ele>429.5</ele><time>2026-03-28T15:36:26Z</time></trkpt><trkpt lat="36.99705192278368" lon="15.017664787426122"><ele>431.75</ele><time>2026-03-28T15:36:28Z</time></trkpt><trkpt lat="36.99711752404155" lon="15.017563618923345"><ele>434.0</ele><time>2026-03-28T15:36:29Z</time></trkpt><trkpt lat="36.99717662170272" lon="15.017471151404935"><ele>433.4</ele><time>2026-03-28T15:36:30Z</time></trkpt><trkpt lat="36.997242762028584" lon="15.017384616330554"><ele>432.79999999999995</ele><time>2026-03-28T15:36:31Z</time></trkpt><trkpt lat="36.99730456369692" lon="15.017304007778122"><ele>432.20000000000005</ele><time>2026-03-28T15:36:32Z</time></trkpt><trkpt lat="36.997364687929256" lon="15.01724047129853"><ele>431.6</ele><time>2026-03-28T15:36:33Z</time></trkpt><trkpt lat="36.99743418995031" lon="15.017174764617668"><ele>431.0</ele><time>2026-03-28T15:36:34Z</time></trkpt><trkpt lat="36.99753829695976" lon="15.01715511111224"><ele>430.99999999999994</ele><time>2026-03-28T15:36:35Z</time></trkpt><trkpt lat="36.99757149222005" lon="15.017077074513178"><ele>431.0</ele><time>2026-03-28T15:36:36Z</time></trkpt><trkpt lat="36.99762350925263" lon="15.017029401979062"><ele>431.0</ele><time>2026-03-28T15:36:37Z</time></trkpt><trkpt lat="36.9976669101954" lon="15.016909179730673"><ele>431.0</ele><time>2026-03-28T15:36:39Z</time></trkpt><trkpt lat="36.997668768599624" lon="15.016808964986021"><ele>430.99999999999994</ele><time>2026-03-28T15:36:40Z</time></trkpt><trkpt lat="36.99767216868833" lon="15.016671226984972"><ele>431.0</ele><time>2026-03-28T15:36:41Z</time></trkpt><trkpt lat="36.99766999628709" lon="15.016521311234873"><ele>432.6</ele><time>2026-03-28T15:36:42Z</time></trkpt><trkpt lat="36.997678350778116" lon="15.01639430066523"><ele>434.20000000000005</ele><time>2026-03-28T15:36:43Z</time></trkpt><trkpt lat="36.99768332841091" lon="15.016279559432226"><ele>435.79999999999995</ele><time>2026-03-28T15:36:44Z</time></trkpt><trkpt lat="36.99768860584176" lon="15.016183856482531"><ele>437.4</ele><time>2026-03-28T15:36:45Z</time></trkpt><trkpt lat="36.997742000615936" lon="15.016087608707702"><ele>439.0</ele><time>2026-03-28T15:36:47Z</time></trkpt><trkpt lat="36.9978542674046" lon="15.016040855788548"><ele>439.0</ele><time>2026-03-28T15:36:49Z</time></trkpt><trkpt lat="36.99793786123624" lon="15.016042910688975"><ele>439.0</ele><time>2026-03-28T15:36:50Z</time></trkpt><trkpt lat="36.99801032172109" lon="15.016003671758307"><ele>439.0</ele><time>2026-03-28T15:36:51Z</time></trkpt><trkpt lat="36.99811499805889" lon="15.015941897445067"><ele>439.0</ele><time>2026-03-28T15:36:53Z</time></trkpt><trkpt lat="36.99821139210214" lon="15.01584161522543"><ele>439.0</ele><time>2026-03-28T15:36:55Z</time></trkpt><trkpt lat="36.99827488733979" lon="15.015762391271121"><ele>439.6666666666667</ele><time>2026-03-28T15:36:56Z</time></trkpt><trkpt lat="36.99833209558761" lon="15.01568703939772"><ele>440.33333333333337</ele><time>2026-03-28T15:36:57Z</time></trkpt><trkpt lat="36.99839499769423" lon="15.015602643238688"><ele>441.0</ele><time>2026-03-28T15:36:58Z</time></trkpt><trkpt lat="36.998459158563485" lon="15.015522471974135"><ele>441.66666666666663</ele><time>2026-03-28T15:36:59Z</time></trkpt><trkpt lat="36.99852761925257" lon="15.015454247692674"><ele>442.3333333333333</ele><time>2026-03-28T15:37:00Z</time></trkpt><trkpt lat="36.99859646118105" lon="15.015372245445008"><ele>443.0</ele><time>2026-03-28T15:37:01Z</time></trkpt><trkpt lat="36.998669977949696" lon="15.015311747375314"><ele>443.0</ele><time>2026-03-28T15:37:02Z</time></trkpt><trkpt lat="36.99870872665668" lon="15.015239216519916"><ele>442.99999999999994</ele><time>2026-03-28T15:37:03Z</time></trkpt><trkpt lat="36.99876174819315" lon="15.015135568606626"><ele>442.99999999999994</ele><time>2026-03-28T15:37:05Z</time></trkpt><trkpt lat="36.99875200459202" lon="15.015006931038714"><ele>443.0</ele><time>2026-03-28T15:37:07Z</time></trkpt><trkpt lat="36.998719788274265" lon="15.014910498197676"><ele>443.0</ele><time>2026-03-28T15:37:08Z</time></trkpt><trkpt lat="36.99866406872077" lon="15.01480075112444"><ele>443.0</ele><time>2026-03-28T15:37:09Z</time></trkpt><trkpt lat="36.998606461544" lon="15.014718518278693"><ele>442.99999999999994</ele><time>2026-03-28T15:37:10Z</time></trkpt><trkpt lat="36.99855277252333" lon="15.014648427566758"><ele>442.99999999999994</ele><time>2026-03-28T15:37:11Z</time></trkpt><trkpt lat="36.99851303599925" lon="15.014539014552486"><ele>443.0</ele><time>2026-03-28T15:37:13Z</time></trkpt><trkpt lat="36.99854999769379" lon="15.014470132727952"><ele>443.0</ele><time>2026-03-28T15:37:15Z</time></trkpt><trkpt lat="36.99865431395674" lon="15.014386772340929"><ele>443.0</ele><time>2026-03-28T15:37:17Z</time></trkpt><trkpt lat="36.99872402057043" lon="15.01433689137903"><ele>442.99999999999994</ele><time>2026-03-28T15:37:18Z</time></trkpt><trkpt lat="36.998808144808635" lon="15.014273605999902"><ele>442.99999999999994</ele><time>2026-03-28T15:37:19Z</time></trkpt><trkpt lat="36.998907055259814" lon="15.014195280960326"><ele>443.0</ele><time>2026-03-28T15:37:20Z</time></trkpt><trkpt lat="36.999008911738855" lon="15.01410505899267"><ele>443.0</ele><time>2026-03-28T15:37:21Z</time></trkpt><trkpt lat="36.999097720468924" lon="15.01402314025997"><ele>444.79999999999995</ele><time>2026-03-28T15:37:22Z</time></trkpt><trkpt lat="36.99916854826848" lon="15.013946548555362"><ele>446.59999999999997</ele><time>2026-03-28T15:37:23Z</time></trkpt><trkpt lat="36.999222848355075" lon="15.013882951230697"><ele>448.40000000000003</ele><time>2026-03-28T15:37:24Z</time></trkpt><trkpt lat="36.999293168461655" lon="15.013774741596485"><ele>450.20000000000005</ele><time>2026-03-28T15:37:26Z</time></trkpt><trkpt lat="36.99932668657694" lon="15.013594580278056"><ele>452.0</ele><time>2026-03-28T15:37:28Z</time></trkpt><trkpt lat="36.99934152828273" lon="15.013481088565332"><ele>452.0</ele><time>2026-03-28T15:37:29Z</time></trkpt><trkpt lat="36.99937119766118" lon="15.01334847545246"><ele>452.00000000000006</ele><time>2026-03-28T15:37:30Z</time></trkpt><trkpt lat="36.9994012119291" lon="15.013227360772396"><ele>452.00000000000006</ele><time>2026-03-28T15:37:31Z</time></trkpt><trkpt lat="36.99942757884333" lon="15.013096213481658"><ele>452.0</ele><time>2026-03-28T15:37:32Z</time></trkpt><trkpt lat="36.99945345298561" lon="15.012974723838706"><ele>452.0</ele><time>2026-03-28T15:37:33Z</time></trkpt><trkpt lat="36.99947540058617" lon="15.012881355636127"><ele>451.8</ele><time>2026-03-28T15:37:34Z</time></trkpt><trkpt lat="36.99948880680251" lon="15.012793233471001"><ele>451.6</ele><time>2026-03-28T15:37:35Z</time></trkpt><trkpt lat="36.99950101970007" lon="15.012692742018707"><ele>451.40000000000003</ele><time>2026-03-28T15:37:36Z</time></trkpt><trkpt lat="36.999513168431264" lon="15.012601191533586"><ele>451.20000000000005</ele><time>2026-03-28T15:37:37Z</time></trkpt><trkpt lat="36.999549153873524" lon="15.012465854487047"><ele>451.0</ele><time>2026-03-28T15:37:39Z</time></trkpt><trkpt lat="36.999623100219885" lon="15.012349757366994"><ele>450.20000000000005</ele><time>2026-03-28T15:37:41Z</time></trkpt><trkpt lat="36.999687816951635" lon="15.012245242522486"><ele>449.40000000000003</ele><time>2026-03-28T15:37:43Z</time></trkpt><trkpt lat="36.99971870358668" lon="15.012166890505204"><ele>448.6</ele><time>2026-03-28T15:37:44Z</time></trkpt><trkpt lat="36.99976941648715" lon="15.012072783939388"><ele>447.8</ele><time>2026-03-28T15:37:45Z</time></trkpt><trkpt lat="36.99983536388353" lon="15.011974703056438"><ele>447.0</ele><time>2026-03-28T15:37:46Z</time></trkpt><trkpt lat="36.99990858922834" lon="15.011860374131379"><ele>447.0</ele><time>2026-03-28T15:37:47Z</time></trkpt><trkpt lat="36.99999837857723" lon="15.011709428511505"><ele>447.0</ele><time>2026-03-28T15:37:48Z</time></trkpt><trkpt lat="37.00008310200492" lon="15.011559469430704"><ele>447.0</ele><time>2026-03-28T15:37:49Z</time></trkpt><trkpt lat="37.0001500855376" lon="15.011444552217721"><ele>447.0</ele><time>2026-03-28T15:37:50Z</time></trkpt><trkpt lat="37.00021653771822" lon="15.011343638244735"><ele>446.8</ele><time>2026-03-28T15:37:51Z</time></trkpt><trkpt lat="37.000280042761034" lon="15.011241401663938"><ele>446.6</ele><time>2026-03-28T15:37:52Z</time></trkpt><trkpt lat="37.000362499156424" lon="15.011143287437507"><ele>446.40000000000003</ele><time>2026-03-28T15:37:53Z</time></trkpt><trkpt lat="37.00043238592794" lon="15.011030546764417"><ele>446.20000000000005</ele><time>2026-03-28T15:37:54Z</time></trkpt><trkpt lat="37.000464582993594" lon="15.010933573767714"><ele>446.0</ele><time>2026-03-28T15:37:55Z</time></trkpt><trkpt lat="37.00050466636187" lon="15.01083224346644"><ele>445.6</ele><time>2026-03-28T15:37:56Z</time></trkpt><trkpt lat="37.000541120822795" lon="15.010701918759327"><ele>445.20000000000005</ele><time>2026-03-28T15:37:57Z</time></trkpt><trkpt lat="37.0005852003065" lon="15.010566544112296"><ele>444.79999999999995</ele><time>2026-03-28T15:37:58Z</time></trkpt><trkpt lat="37.00062797825985" lon="15.010442702807909"><ele>444.4</ele><time>2026-03-28T15:37:59Z</time></trkpt><trkpt lat="37.000665807341214" lon="15.010320025362498"><ele>444.0</ele><time>2026-03-28T15:38:00Z</time></trkpt><trkpt lat="37.000695499972956" lon="15.010208676030912"><ele>444.0</ele><time>2026-03-28T15:38:01Z</time></trkpt><trkpt lat="37.00072701685878" lon="15.010123279226487"><ele>444.0</ele><time>2026-03-28T15:38:02Z</time></trkpt><trkpt lat="37.00076255884373" lon="15.010046819286877"><ele>444.0</ele><time>2026-03-28T15:38:03Z</time></trkpt><trkpt lat="37.00079189402561" lon="15.009967629792676"><ele>444.0</ele><time>2026-03-28T15:38:04Z</time></trkpt><trkpt lat="37.000828475376466" lon="15.009886055103179"><ele>444.0</ele><time>2026-03-28T15:38:05Z</time></trkpt><trkpt lat="37.00089592962872" lon="15.009799737672642"><ele>444.0</ele><time>2026-03-28T15:38:06Z</time></trkpt><trkpt lat="37.00096824679536" lon="15.009712510215971"><ele>444.6</ele><time>2026-03-28T15:38:07Z</time></trkpt><trkpt lat="37.00104102400607" lon="15.009627123703357"><ele>445.2</ele><time>2026-03-28T15:38:08Z</time></trkpt><trkpt lat="37.00112693902757" lon="15.009532494782603"><ele>445.80000000000007</ele><time>2026-03-28T15:38:09Z</time></trkpt><trkpt lat="37.00121260846308" lon="15.009447939466291"><ele>446.40000000000003</ele><time>2026-03-28T15:38:10Z</time></trkpt><trkpt lat="37.00129274001054" lon="15.009384321835016"><ele>447.0</ele><time>2026-03-28T15:38:11Z</time></trkpt><trkpt lat="37.00138096943412" lon="15.009334928627888"><ele>447.0</ele><time>2026-03-28T15:38:12Z</time></trkpt><trkpt lat="37.001476631872876" lon="15.00927917864349"><ele>447.00000000000006</ele><time>2026-03-28T15:38:13Z</time></trkpt><trkpt lat="37.001565294578455" lon="15.009200795307041"><ele>447.00000000000006</ele><time>2026-03-28T15:38:14Z</time></trkpt><trkpt lat="37.00163347074351" lon="15.009117157762098"><ele>447.0</ele><time>2026-03-28T15:38:15Z</time></trkpt><trkpt lat="37.001700454206315" lon="15.009016990239452"><ele>447.0</ele><time>2026-03-28T15:38:16Z</time></trkpt><trkpt lat="37.00176812813609" lon="15.008922440034716"><ele>447.75</ele><time>2026-03-28T15:38:17Z</time></trkpt><trkpt lat="37.001836709877786" lon="15.008837580800721"><ele>448.5</ele><time>2026-03-28T15:38:18Z</time></trkpt><trkpt lat="37.00191110704596" lon="15.00872119238256"><ele>449.25</ele><time>2026-03-28T15:38:19Z</time></trkpt><trkpt lat="37.00200212938006" lon="15.00859634577498"><ele>450.0</ele><time>2026-03-28T15:38:20Z</time></trkpt><trkpt lat="37.002091454834115" lon="15.00848784405067"><ele>450.0</ele><time>2026-03-28T15:38:21Z</time></trkpt><trkpt lat="37.002174267887234" lon="15.008391876986595"><ele>450.0</ele><time>2026-03-28T15:38:22Z</time></trkpt><trkpt lat="37.0022311130254" lon="15.00831090971206"><ele>450.0</ele><time>2026-03-28T15:38:23Z</time></trkpt><trkpt lat="37.002276504276715" lon="15.008247453382745"><ele>450.0</ele><time>2026-03-28T15:38:24Z</time></trkpt><trkpt lat="37.00229710809418" lon="15.008086184205965"><ele>450.0</ele><time>2026-03-28T15:38:26Z</time></trkpt><trkpt lat="37.00228109033669" lon="15.007949118210126"><ele>450.1666666666667</ele><time>2026-03-28T15:38:27Z</time></trkpt><trkpt lat="37.00228320444027" lon="15.00782457054357"><ele>450.33333333333337</ele><time>2026-03-28T15:38:28Z</time></trkpt><trkpt lat="37.0022995381042" lon="15.00773850244892"><ele>450.5</ele><time>2026-03-28T15:38:29Z</time></trkpt><trkpt lat="37.00235504707881" lon="15.007624580247393"><ele>450.6666666666667</ele><time>2026-03-28T15:38:31Z</time></trkpt><trkpt lat="37.002408746211685" lon="15.007578626114553"><ele>450.83333333333337</ele><time>2026-03-28T15:38:32Z</time></trkpt><trkpt lat="37.00247757116132" lon="15.007526795057503"><ele>451.0</ele><time>2026-03-28T15:38:33Z</time></trkpt><trkpt lat="37.00256492905833" lon="15.007440927795114"><ele>452.00000000000006</ele><time>2026-03-28T15:38:34Z</time></trkpt><trkpt lat="37.00265015209643" lon="15.007350031683009"><ele>453.0</ele><time>2026-03-28T15:38:35Z</time></trkpt><trkpt lat="37.00270848144026" lon="15.007286520010238"><ele>454.0</ele><time>2026-03-28T15:38:36Z</time></trkpt><trkpt lat="37.0027575539551" lon="15.007232844685886"><ele>455.0</ele><time>2026-03-28T15:38:37Z</time></trkpt><trkpt lat="37.00282405526225" lon="15.007193057025233"><ele>456.00000000000006</ele><time>2026-03-28T15:38:38Z</time></trkpt><trkpt lat="37.00291735282893" lon="15.007160982889236"><ele>457.0</ele><time>2026-03-28T15:38:39Z</time></trkpt><trkpt lat="37.002994486999775" lon="15.007139490389275"><ele>457.0</ele><time>2026-03-28T15:38:40Z</time></trkpt><trkpt lat="37.00307434409042" lon="15.007117034051706"><ele>457.00000000000006</ele><time>2026-03-28T15:38:41Z</time></trkpt><trkpt lat="37.003144385681914" lon="15.00709192670769"><ele>457.00000000000006</ele><time>2026-03-28T15:38:42Z</time></trkpt><trkpt lat="37.00320277666986" lon="15.007045330413808"><ele>457.0</ele><time>2026-03-28T15:38:44Z</time></trkpt><trkpt lat="37.0031012454998" lon="15.006862587713298"><ele>457.0</ele><time>2026-03-28T15:38:48Z</time></trkpt><trkpt lat="37.00305930599822" lon="15.006794488389584"><ele>457.0</ele><time>2026-03-28T15:38:49Z</time></trkpt><trkpt lat="37.00302176496829" lon="15.006723601474704"><ele>457.00000000000006</ele><time>2026-03-28T15:38:50Z</time></trkpt><trkpt lat="37.00299257512138" lon="15.006583498303042"><ele>457.00000000000006</ele><time>2026-03-28T15:38:52Z</time></trkpt><trkpt lat="37.00296819108611" lon="15.006464292505594"><ele>457.0</ele><time>2026-03-28T15:38:53Z</time></trkpt><trkpt lat="37.00285629753573" lon="15.00637174232417"><ele>457.0</ele><time>2026-03-28T15:38:54Z</time></trkpt><trkpt lat="37.0027684191207" lon="15.006253178406316"><ele>457.25</ele><time>2026-03-28T15:38:55Z</time></trkpt><trkpt lat="37.002679739057655" lon="15.006120392814152"><ele>457.5</ele><time>2026-03-28T15:38:56Z</time></trkpt><trkpt lat="37.002597625584144" lon="15.005988306477397"><ele>457.75</ele><time>2026-03-28T15:38:57Z</time></trkpt><trkpt lat="37.00252661078492" lon="15.005872812582437"><ele>458.0</ele><time>2026-03-28T15:38:58Z</time></trkpt><trkpt lat="37.002461297681734" lon="15.00576261116274"><ele>458.0</ele><time>2026-03-28T15:38:59Z</time></trkpt><trkpt lat="37.00238825866799" lon="15.005641413473144"><ele>458.0</ele><time>2026-03-28T15:39:00Z</time></trkpt><trkpt lat="37.00229664892262" lon="15.005505184966335"><ele>458.0</ele><time>2026-03-28T15:39:01Z</time></trkpt><trkpt lat="37.00220906860472" lon="15.00538028742852"><ele>458.0</ele><time>2026-03-28T15:39:02Z</time></trkpt><trkpt lat="37.00213542799695" lon="15.00525919480186"><ele>458.0</ele><time>2026-03-28T15:39:03Z</time></trkpt><trkpt lat="37.002072000652674" lon="15.005127045811228"><ele>458.0</ele><time>2026-03-28T15:39:04Z</time></trkpt><trkpt lat="37.002013731619506" lon="15.004968531029464"><ele>458.0</ele><time>2026-03-28T15:39:05Z</time></trkpt><trkpt lat="37.00196706792141" lon="15.004806170525812"><ele>458.0</ele><time>2026-03-28T15:39:06Z</time></trkpt><trkpt lat="37.00193014488129" lon="15.004653884850951"><ele>459.5</ele><time>2026-03-28T15:39:07Z</time></trkpt><trkpt lat="37.001887184936216" lon="15.004498599020508"><ele>461.0</ele><time>2026-03-28T15:39:08Z</time></trkpt><trkpt lat="37.00183576949375" lon="15.004335273256165"><ele>462.5</ele><time>2026-03-28T15:39:09Z</time></trkpt><trkpt lat="37.00178427524466" lon="15.004173188983504"><ele>464.0</ele><time>2026-03-28T15:39:10Z</time></trkpt><trkpt lat="37.00173637297144" lon="15.004002867830842"><ele>463.75</ele><time>2026-03-28T15:39:11Z</time></trkpt><trkpt lat="37.00169805147223" lon="15.0038391850337"><ele>463.5</ele><time>2026-03-28T15:39:12Z</time></trkpt><trkpt lat="37.00167084522848" lon="15.00366791808201"><ele>463.25</ele><time>2026-03-28T15:39:13Z</time></trkpt><trkpt lat="37.001648598154276" lon="15.003479884282438"><ele>463.0</ele><time>2026-03-28T15:39:14Z</time></trkpt><trkpt lat="37.001638203947564" lon="15.003289297573572"><ele>463.75</ele><time>2026-03-28T15:39:15Z</time></trkpt><trkpt lat="37.00163368784779" lon="15.003106005895168"><ele>464.5</ele><time>2026-03-28T15:39:16Z</time></trkpt><trkpt lat="37.00162657689467" lon="15.002923896111392"><ele>465.25</ele><time>2026-03-28T15:39:17Z</time></trkpt><trkpt lat="37.00161928655413" lon="15.002737350459352"><ele>466.0</ele><time>2026-03-28T15:39:18Z</time></trkpt><trkpt lat="37.00161327904626" lon="15.002538938856038"><ele>467.33333333333337</ele><time>2026-03-28T15:39:19Z</time></trkpt><trkpt lat="37.001602740007286" lon="15.002342238694578"><ele>468.66666666666663</ele><time>2026-03-28T15:39:20Z</time></trkpt><trkpt lat="37.00159140990469" lon="15.00214101218316"><ele>470.0</ele><time>2026-03-28T15:39:21Z</time></trkpt><trkpt lat="37.0015797103672" lon="15.001936812037306"><ele>470.0</ele><time>2026-03-28T15:39:22Z</time></trkpt><trkpt lat="37.00157016055548" lon="15.001742414412227"><ele>470.0</ele><time>2026-03-28T15:39:23Z</time></trkpt><trkpt lat="37.001560309986665" lon="15.001550397046492"><ele>470.0</ele><time>2026-03-28T15:39:24Z</time></trkpt><trkpt lat="37.00155094824701" lon="15.001359098450811"><ele>473.66666666666663</ele><time>2026-03-28T15:39:25Z</time></trkpt><trkpt lat="37.00154297534297" lon="15.001170187282762"><ele>477.33333333333337</ele><time>2026-03-28T15:39:26Z</time></trkpt><trkpt lat="37.00153387278244" lon="15.000982202274358"><ele>481.0</ele><time>2026-03-28T15:39:27Z</time></trkpt><trkpt lat="37.001524543286344" lon="15.000794679559386"><ele>481.0</ele><time>2026-03-28T15:39:28Z</time></trkpt><trkpt lat="37.001511181334834" lon="15.000631230045421"><ele>481.0</ele><time>2026-03-28T15:39:29Z</time></trkpt><trkpt lat="37.0014879636729" lon="15.00046915037962"><ele>481.0</ele><time>2026-03-28T15:39:30Z</time></trkpt><trkpt lat="37.001432474585826" lon="15.000290072321778"><ele>481.0</ele><time>2026-03-28T15:39:31Z</time></trkpt><trkpt lat="37.00134371880358" lon="15.000102977263403"><ele>481.0</ele><time>2026-03-28T15:39:32Z</time></trkpt><trkpt lat="37.001218128881526" lon="14.999921361284672"><ele>481.0</ele><time>2026-03-28T15:39:33Z</time></trkpt><trkpt lat="37.001083160514405" lon="14.999755518843516"><ele>481.0</ele><time>2026-03-28T15:39:34Z</time></trkpt><trkpt lat="37.000958722695756" lon="14.999608812367656"><ele>481.0</ele><time>2026-03-28T15:39:35Z</time></trkpt><trkpt lat="37.00084574665125" lon="14.999457435153179"><ele>481.0</ele><time>2026-03-28T15:39:36Z</time></trkpt><trkpt lat="37.00073128183902" lon="14.99929373145372"><ele>481.0</ele><time>2026-03-28T15:39:37Z</time></trkpt><trkpt lat="37.000614905438916" lon="14.999138395303921"><ele>484.33333333333337</ele><time>2026-03-28T15:39:38Z</time></trkpt><trkpt lat="37.00050040332445" lon="14.998982452186791"><ele>487.66666666666663</ele><time>2026-03-28T15:39:39Z</time></trkpt><trkpt lat="37.00038278193103" lon="14.998823499628736"><ele>491.0</ele><time>2026-03-28T15:39:40Z</time></trkpt><trkpt lat="37.00026406560237" lon="14.998660672400355"><ele>491.0</ele><time>2026-03-28T15:39:41Z</time></trkpt><trkpt lat="37.00013941211856" lon="14.998492057989218"><ele>491.0</ele><time>2026-03-28T15:39:42Z</time></trkpt><trkpt lat="37.00001144612709" lon="14.998319479149211"><ele>491.0</ele><time>2026-03-28T15:39:43Z</time></trkpt><trkpt lat="36.99987648757621" lon="14.998140395779432"><ele>490.66666666666663</ele><time>2026-03-28T15:39:44Z</time></trkpt><trkpt lat="36.99975085413437" lon="14.99797594664354"><ele>490.33333333333337</ele><time>2026-03-28T15:39:45Z</time></trkpt><trkpt lat="36.99963195474462" lon="14.997814084301991"><ele>490.0</ele><time>2026-03-28T15:39:46Z</time></trkpt><trkpt lat="36.99951462991514" lon="14.997652843171304"><ele>489.6666666666667</ele><time>2026-03-28T15:39:47Z</time></trkpt><trkpt lat="36.99939180248186" lon="14.997486039971285"><ele>489.33333333333337</ele><time>2026-03-28T15:39:48Z</time></trkpt><trkpt lat="36.999266494619505" lon="14.997322226243625"><ele>489.0</ele><time>2026-03-28T15:39:49Z</time></trkpt><trkpt lat="36.99912391194635" lon="14.997175352423834"><ele>491.66666666666663</ele><time>2026-03-28T15:39:50Z</time></trkpt><trkpt lat="36.99896935806707" lon="14.997055609673865"><ele>494.3333333333333</ele><time>2026-03-28T15:39:51Z</time></trkpt><trkpt lat="36.99880430496909" lon="14.996959822518615"><ele>497.0</ele><time>2026-03-28T15:39:52Z</time></trkpt><trkpt lat="36.998632562051824" lon="14.996878021404"><ele>497.0</ele><time>2026-03-28T15:39:53Z</time></trkpt><trkpt lat="36.99846399416696" lon="14.996791627910657"><ele>497.0</ele><time>2026-03-28T15:39:54Z</time></trkpt><trkpt lat="36.998313602430976" lon="14.996686909669812"><ele>497.0</ele><time>2026-03-28T15:39:55Z</time></trkpt><trkpt lat="36.99818218916288" lon="14.99661416955976"><ele>497.8</ele><time>2026-03-28T15:39:56Z</time></trkpt><trkpt lat="36.99806764990165" lon="14.996551079796651"><ele>498.6</ele><time>2026-03-28T15:39:57Z</time></trkpt><trkpt lat="36.997963003758954" lon="14.996493439236367"><ele>499.40000000000003</ele><time>2026-03-28T15:39:58Z</time></trkpt><trkpt lat="36.99787135186161" lon="14.996443322661214"><ele>500.20000000000005</ele><time>2026-03-28T15:39:59Z</time></trkpt><trkpt lat="36.9977909738805" lon="14.99639978335403"><ele>501.0</ele><time>2026-03-28T15:40:00Z</time></trkpt><trkpt lat="36.99771116503346" lon="14.996356552333594"><ele>501.0</ele><time>2026-03-28T15:40:01Z</time></trkpt><trkpt lat="36.99763710765656" lon="14.99631643682311"><ele>501.0</ele><time>2026-03-28T15:40:02Z</time></trkpt><trkpt lat="36.99756347271741" lon="14.996300759134881"><ele>501.0</ele><time>2026-03-28T15:40:03Z</time></trkpt><trkpt lat="36.99745854396311" lon="14.996227013466816"><ele>501.0</ele><time>2026-03-28T15:40:05Z</time></trkpt><trkpt lat="36.99738648644391" lon="14.996158316338546"><ele>501.0</ele><time>2026-03-28T15:40:06Z</time></trkpt><trkpt lat="36.99728905810792" lon="14.996054810842294"><ele>501.0</ele><time>2026-03-28T15:40:07Z</time></trkpt><trkpt lat="36.99718685510128" lon="14.995919410368076"><ele>501.0</ele><time>2026-03-28T15:40:08Z</time></trkpt><trkpt lat="36.99710103326412" lon="14.995787722780317"><ele>501.0</ele><time>2026-03-28T15:40:09Z</time></trkpt><trkpt lat="36.99702185063587" lon="14.995642726416756"><ele>501.0</ele><time>2026-03-28T15:40:10Z</time></trkpt><trkpt lat="36.9969405719308" lon="14.99549287382965"><ele>501.66666666666663</ele><time>2026-03-28T15:40:11Z</time></trkpt><trkpt lat="36.996852786937374" lon="14.995343367776504"><ele>502.3333333333333</ele><time>2026-03-28T15:40:12Z</time></trkpt><trkpt lat="36.99676126213838" lon="14.995188234252787"><ele>503.0</ele><time>2026-03-28T15:40:13Z</time></trkpt><trkpt lat="36.9966691495455" lon="14.995021628450203"><ele>505.3333333333333</ele><time>2026-03-28T15:40:14Z</time></trkpt><trkpt lat="36.996567196175" lon="14.994838944370168"><ele>507.66666666666663</ele><time>2026-03-28T15:40:15Z</time></trkpt><trkpt lat="36.9964552550933" lon="14.994644117640302"><ele>510.0</ele><time>2026-03-28T15:40:16Z</time></trkpt><trkpt lat="36.9963406385322" lon="14.994443826913072"><ele>510.0</ele><time>2026-03-28T15:40:17Z</time></trkpt><trkpt lat="36.996240022768006" lon="14.994265624559594"><ele>510.0</ele><time>2026-03-28T15:40:18Z</time></trkpt><trkpt lat="36.99615228143649" lon="14.994104256094204"><ele>510.0</ele><time>2026-03-28T15:40:19Z</time></trkpt><trkpt lat="36.99607261023972" lon="14.99395866711743"><ele>510.5</ele><time>2026-03-28T15:40:20Z</time></trkpt><trkpt lat="36.99599578052845" lon="14.99382598787473"><ele>511.0</ele><time>2026-03-28T15:40:21Z</time></trkpt><trkpt lat="36.99591942974311" lon="14.993701108918057"><ele>511.5</ele><time>2026-03-28T15:40:22Z</time></trkpt><trkpt lat="36.9958326661317" lon="14.993550833266072"><ele>512.0</ele><time>2026-03-28T15:40:23Z</time></trkpt><trkpt lat="36.99573705749103" lon="14.993365662874112"><ele>513.6666666666666</ele><time>2026-03-28T15:40:24Z</time></trkpt><trkpt lat="36.995643020125804" lon="14.99316168693151"><ele>515.3333333333334</ele><time>2026-03-28T15:40:25Z</time></trkpt><trkpt lat="36.995548409951745" lon="14.99292333467099"><ele>517.0</ele><time>2026-03-28T15:40:26Z</time></trkpt><trkpt lat="36.99545887114911" lon="14.992664501213051"><ele>517.0</ele><time>2026-03-28T15:40:27Z</time></trkpt><trkpt lat="36.995366544588315" lon="14.99239774043872"><ele>517.0</ele><time>2026-03-28T15:40:28Z</time></trkpt><trkpt lat="36.99526740265365" lon="14.992108566324571"><ele>517.0</ele><time>2026-03-28T15:40:29Z</time></trkpt><trkpt lat="36.9951747836515" lon="14.991842961815966"><ele>517.0</ele><time>2026-03-28T15:40:30Z</time></trkpt><trkpt lat="36.99509553806891" lon="14.991607970999505"><ele>517.0</ele><time>2026-03-28T15:40:31Z</time></trkpt><trkpt lat="36.9950234870492" lon="14.991392467854478"><ele>516.3333333333334</ele><time>2026-03-28T15:40:32Z</time></trkpt><trkpt lat="36.99495402383777" lon="14.991181086286765"><ele>515.6666666666666</ele><time>2026-03-28T15:40:33Z</time></trkpt><trkpt lat="36.99487889191408" lon="14.990959006409527"><ele>515.0</ele><time>2026-03-28T15:40:34Z</time></trkpt><trkpt lat="36.994799347309225" lon="14.990730469928842"><ele>515.0</ele><time>2026-03-28T15:40:35Z</time></trkpt><trkpt lat="36.994716483516775" lon="14.990498802820857"><ele>515.0</ele><time>2026-03-28T15:40:36Z</time></trkpt><trkpt lat="36.994633174328115" lon="14.990253329236586"><ele>515.0</ele><time>2026-03-28T15:40:37Z</time></trkpt><trkpt lat="36.99455060365922" lon="14.990004449512808"><ele>517.0</ele><time>2026-03-28T15:40:38Z</time></trkpt><trkpt lat="36.994468677669204" lon="14.989755472276828"><ele>519.0</ele><time>2026-03-28T15:40:39Z</time></trkpt><trkpt lat="36.99439632378231" lon="14.989505646726016"><ele>521.0</ele><time>2026-03-28T15:40:40Z</time></trkpt><trkpt lat="36.99433693058557" lon="14.989263579644156"><ele>521.6666666666666</ele><time>2026-03-28T15:40:41Z</time></trkpt><trkpt lat="36.99429218172366" lon="14.989041421268166"><ele>522.3333333333334</ele><time>2026-03-28T15:40:42Z</time></trkpt><trkpt lat="36.99423257852252" lon="14.988839293631262"><ele>523.0</ele><time>2026-03-28T15:40:43Z</time></trkpt><trkpt lat="36.994143539595854" lon="14.988643171256191"><ele>523.0</ele><time>2026-03-28T15:40:44Z</time></trkpt><trkpt lat="36.994031347092516" lon="14.988443745937854"><ele>523.0</ele><time>2026-03-28T15:40:45Z</time></trkpt><trkpt lat="36.99390443341114" lon="14.988231707639654"><ele>523.0</ele><time>2026-03-28T15:40:46Z</time></trkpt><trkpt lat="36.99376382423942" lon="14.988019943476782"><ele>521.6666666666667</ele><time>2026-03-28T15:40:47Z</time></trkpt><trkpt lat="36.993633465573375" lon="14.987828974508725"><ele>520.3333333333334</ele><time>2026-03-28T15:40:48Z</time></trkpt><trkpt lat="36.99351431076426" lon="14.987649864583004"><ele>519.0</ele><time>2026-03-28T15:40:49Z</time></trkpt><trkpt lat="36.993408206776216" lon="14.987475693741391"><ele>519.3333333333334</ele><time>2026-03-28T15:40:50Z</time></trkpt><trkpt lat="36.9932981937588" lon="14.987290595574315"><ele>519.6666666666667</ele><time>2026-03-28T15:40:51Z</time></trkpt><trkpt lat="36.99318382063633" lon="14.987108826524986"><ele>520.0</ele><time>2026-03-28T15:40:52Z</time></trkpt><trkpt lat="36.99307610062698" lon="14.986952528734502"><ele>520.0</ele><time>2026-03-28T15:40:53Z</time></trkpt><trkpt lat="36.992984377237754" lon="14.986803903465823"><ele>520.0</ele><time>2026-03-28T15:40:54Z</time></trkpt><trkpt lat="36.992928095371006" lon="14.986654876699475"><ele>520.0</ele><time>2026-03-28T15:40:55Z</time></trkpt><trkpt lat="36.99289798878361" lon="14.986485874329272"><ele>520.0</ele><time>2026-03-28T15:40:56Z</time></trkpt><trkpt lat="36.99292404640146" lon="14.986293585092508"><ele>517.6666666666667</ele><time>2026-03-28T15:40:57Z</time></trkpt><trkpt lat="36.992937006699485" lon="14.986080432329521"><ele>515.3333333333334</ele><time>2026-03-28T15:40:58Z</time></trkpt><trkpt lat="36.992973824236714" lon="14.985863767207386"><ele>513.0</ele><time>2026-03-28T15:40:59Z</time></trkpt><trkpt lat="36.99299722756962" lon="14.98566158143268"><ele>513.0</ele><time>2026-03-28T15:41:00Z</time></trkpt><trkpt lat="36.99301303895179" lon="14.985498136367926"><ele>513.0</ele><time>2026-03-28T15:41:01Z</time></trkpt><trkpt lat="36.992995732471066" lon="14.985372491378566"><ele>513.0</ele><time>2026-03-28T15:41:02Z</time></trkpt><trkpt lat="36.99295599319469" lon="14.98527968417445"><ele>513.0</ele><time>2026-03-28T15:41:03Z</time></trkpt><trkpt lat="36.99288174427634" lon="14.985212176423147"><ele>513.0</ele><time>2026-03-28T15:41:04Z</time></trkpt><trkpt lat="36.9927740215725" lon="14.985147030814863"><ele>513.0</ele><time>2026-03-28T15:41:05Z</time></trkpt><trkpt lat="36.99268269455695" lon="14.985065540406035"><ele>513.0</ele><time>2026-03-28T15:41:06Z</time></trkpt><trkpt lat="36.99263727088217" lon="14.98497703495597"><ele>513.0</ele><time>2026-03-28T15:41:07Z</time></trkpt><trkpt lat="36.99271258999221" lon="14.984861766462748"><ele>513.0</ele><time>2026-03-28T15:41:09Z</time></trkpt><trkpt lat="36.99279023356204" lon="14.984823372368258"><ele>513.0</ele><time>2026-03-28T15:41:10Z</time></trkpt><trkpt lat="36.992898128311474" lon="14.984761862396896"><ele>514.25</ele><time>2026-03-28T15:41:11Z</time></trkpt><trkpt lat="36.99300844803384" lon="14.984671081632971"><ele>515.5</ele><time>2026-03-28T15:41:12Z</time></trkpt><trkpt lat="36.99314693816137" lon="14.984549334342336"><ele>516.75</ele><time>2026-03-28T15:41:13Z</time></trkpt><trkpt lat="36.99323385310992" lon="14.984458609030485"><ele>518.0</ele><time>2026-03-28T15:41:14Z</time></trkpt><trkpt lat="36.99326353442093" lon="14.984375495224237"><ele>518.0</ele><time>2026-03-28T15:41:16Z</time></trkpt><trkpt lat="36.99316425833859" lon="14.984299280210305"><ele>518.0</ele><time>2026-03-28T15:41:17Z</time></trkpt><trkpt lat="36.9930722165726" lon="14.984306407128836"><ele>518.0</ele><time>2026-03-28T15:41:18Z</time></trkpt><trkpt lat="36.992949475571855" lon="14.984299177665234"><ele>518.0</ele><time>2026-03-28T15:41:19Z</time></trkpt><trkpt lat="36.99284311258027" lon="14.98428028328515"><ele>518.0</ele><time>2026-03-28T15:41:20Z</time></trkpt><trkpt lat="36.99277258922114" lon="14.984212767667618"><ele>520.0</ele><time>2026-03-28T15:41:21Z</time></trkpt><trkpt lat="36.992704645618375" lon="14.9841145677167"><ele>522.0</ele><time>2026-03-28T15:41:22Z</time></trkpt><trkpt lat="36.99266242784361" lon="14.983935777087616"><ele>524.0</ele><time>2026-03-28T15:41:23Z</time></trkpt><trkpt lat="36.99260395311465" lon="14.983730624264522"><ele>526.0</ele><time>2026-03-28T15:41:24Z</time></trkpt><trkpt lat="36.99253601526117" lon="14.983533952410701"><ele>527.3333333333334</ele><time>2026-03-28T15:41:25Z</time></trkpt><trkpt lat="36.99246299060663" lon="14.983341795705618"><ele>528.6666666666666</ele><time>2026-03-28T15:41:26Z</time></trkpt><trkpt lat="36.99237299642423" lon="14.98308981509412"><ele>530.0</ele><time>2026-03-28T15:41:27Z</time></trkpt><trkpt lat="36.992281916467725" lon="14.982819067026174"><ele>530.0</ele><time>2026-03-28T15:41:28Z</time></trkpt><trkpt lat="36.99218984953808" lon="14.982566956229558"><ele>530.0</ele><time>2026-03-28T15:41:29Z</time></trkpt><trkpt lat="36.99210612921651" lon="14.98232884748257"><ele>530.0</ele><time>2026-03-28T15:41:30Z</time></trkpt><trkpt lat="36.99202854123957" lon="14.982100043774393"><ele>531.0</ele><time>2026-03-28T15:41:31Z</time></trkpt><trkpt lat="36.99196322934625" lon="14.981895294324685"><ele>532.0</ele><time>2026-03-28T15:41:32Z</time></trkpt><trkpt lat="36.99190212453199" lon="14.981719911635825"><ele>533.0</ele><time>2026-03-28T15:41:33Z</time></trkpt><trkpt lat="36.991839380796215" lon="14.981545619310877"><ele>534.6666666666666</ele><time>2026-03-28T15:41:34Z</time></trkpt><trkpt lat="36.99177209198443" lon="14.98135603013744"><ele>536.3333333333334</ele><time>2026-03-28T15:41:35Z</time></trkpt><trkpt lat="36.99169562201797" lon="14.981163802282726"><ele>538.0</ele><time>2026-03-28T15:41:36Z</time></trkpt><trkpt lat="36.99160406778272" lon="14.980992722601977"><ele>539.3333333333334</ele><time>2026-03-28T15:41:37Z</time></trkpt><trkpt lat="36.991486318623885" lon="14.980848987228917"><ele>540.6666666666666</ele><time>2026-03-28T15:41:38Z</time></trkpt><trkpt lat="36.99133664665026" lon="14.980708403973134"><ele>542.0</ele><time>2026-03-28T15:41:39Z</time></trkpt><trkpt lat="36.99118895144096" lon="14.980556967955463"><ele>542.0</ele><time>2026-03-28T15:41:40Z</time></trkpt><trkpt lat="36.99102954586816" lon="14.980402853206371"><ele>542.0</ele><time>2026-03-28T15:41:41Z</time></trkpt><trkpt lat="36.99087067664303" lon="14.980249256997267"><ele>542.0</ele><time>2026-03-28T15:41:42Z</time></trkpt><trkpt lat="36.99071202940539" lon="14.980118376170868"><ele>542.0</ele><time>2026-03-28T15:41:43Z</time></trkpt><trkpt lat="36.99057518584242" lon="14.979987053304198"><ele>542.0</ele><time>2026-03-28T15:41:44Z</time></trkpt><trkpt lat="36.9904462125616" lon="14.979864813123616"><ele>542.0</ele><time>2026-03-28T15:41:45Z</time></trkpt><trkpt lat="36.99032025726679" lon="14.979717106554201"><ele>542.0</ele><time>2026-03-28T15:41:46Z</time></trkpt><trkpt lat="36.990193219763185" lon="14.979594285568233"><ele>542.0</ele><time>2026-03-28T15:41:47Z</time></trkpt><trkpt lat="36.99006955209347" lon="14.979495417845442"><ele>542.0</ele><time>2026-03-28T15:41:48Z</time></trkpt><trkpt lat="36.989963577505264" lon="14.979390960862498"><ele>542.0</ele><time>2026-03-28T15:41:49Z</time></trkpt><trkpt lat="36.989866547535634" lon="14.979295568261026"><ele>542.0</ele><time>2026-03-28T15:41:50Z</time></trkpt><trkpt lat="36.98977019415974" lon="14.979199281417772"><ele>542.0</ele><time>2026-03-28T15:41:51Z</time></trkpt><trkpt lat="36.98967438296641" lon="14.97910059640443"><ele>542.0</ele><time>2026-03-28T15:41:52Z</time></trkpt><trkpt lat="36.98958201711706" lon="14.979010101687534"><ele>542.0</ele><time>2026-03-28T15:41:53Z</time></trkpt><trkpt lat="36.989478068198316" lon="14.978915361707895"><ele>542.0</ele><time>2026-03-28T15:41:54Z</time></trkpt><trkpt lat="36.98938206741926" lon="14.978790678470805"><ele>542.0</ele><time>2026-03-28T15:41:55Z</time></trkpt><trkpt lat="36.98928114558145" lon="14.978689711557234"><ele>542.0</ele><time>2026-03-28T15:41:56Z</time></trkpt><trkpt lat="36.989184015550315" lon="14.978593712043903"><ele>542.0</ele><time>2026-03-28T15:41:57Z</time></trkpt><trkpt lat="36.98908536342702" lon="14.978523467602093"><ele>542.5</ele><time>2026-03-28T15:41:58Z</time></trkpt><trkpt lat="36.98900820425971" lon="14.978429841733599"><ele>543.0</ele><time>2026-03-28T15:41:59Z</time></trkpt><trkpt lat="36.98890696299243" lon="14.97837585665617"><ele>543.5</ele><time>2026-03-28T15:42:00Z</time></trkpt><trkpt lat="36.988805669936916" lon="14.978300914514987"><ele>544.0</ele><time>2026-03-28T15:42:01Z</time></trkpt><trkpt lat="36.988685068933705" lon="14.978263138411235"><ele>544.25</ele><time>2026-03-28T15:42:02Z</time></trkpt><trkpt lat="36.988576960308684" lon="14.978189310230947"><ele>544.5</ele><time>2026-03-28T15:42:03Z</time></trkpt><trkpt lat="36.98846309069236" lon="14.978132135115159"><ele>544.75</ele><time>2026-03-28T15:42:04Z</time></trkpt><trkpt lat="36.988349533441706" lon="14.978074521111132"><ele>545.0</ele><time>2026-03-28T15:42:05Z</time></trkpt><trkpt lat="36.98824300242748" lon="14.978020153955203"><ele>545.0</ele><time>2026-03-28T15:42:06Z</time></trkpt><trkpt lat="36.988138221366114" lon="14.977966011906238"><ele>545.0</ele><time>2026-03-28T15:42:07Z</time></trkpt><trkpt lat="36.98801995194032" lon="14.977900790750153"><ele>545.0</ele><time>2026-03-28T15:42:08Z</time></trkpt><trkpt lat="36.98789700771008" lon="14.977841729700229"><ele>545.0</ele><time>2026-03-28T15:42:09Z</time></trkpt><trkpt lat="36.98778413433771" lon="14.97778882622389"><ele>545.0</ele><time>2026-03-28T15:42:10Z</time></trkpt><trkpt lat="36.98767428426421" lon="14.977737339746106"><ele>545.0</ele><time>2026-03-28T15:42:11Z</time></trkpt><trkpt lat="36.98756040892288" lon="14.97768507671693"><ele>545.0</ele><time>2026-03-28T15:42:12Z</time></trkpt><trkpt lat="36.98744786056874" lon="14.977632802687896"><ele>545.0</ele><time>2026-03-28T15:42:13Z</time></trkpt><trkpt lat="36.98734844500771" lon="14.977582174673808"><ele>544.4</ele><time>2026-03-28T15:42:14Z</time></trkpt><trkpt lat="36.987259938990704" lon="14.977531544965892"><ele>543.8</ele><time>2026-03-28T15:42:15Z</time></trkpt><trkpt lat="36.98717179596908" lon="14.977484098042149"><ele>543.2</ele><time>2026-03-28T15:42:16Z</time></trkpt><trkpt lat="36.98709872069752" lon="14.977455845761602"><ele>542.6</ele><time>2026-03-28T15:42:17Z</time></trkpt><trkpt lat="36.98701417132909" lon="14.977459212013509"><ele>542.0</ele><time>2026-03-28T15:42:18Z</time></trkpt><trkpt lat="36.98691927820808" lon="14.977500450284785"><ele>541.8000000000001</ele><time>2026-03-28T15:42:19Z</time></trkpt><trkpt lat="36.986818282557614" lon="14.977550070939438"><ele>541.6</ele><time>2026-03-28T15:42:20Z</time></trkpt><trkpt lat="36.98671523994803" lon="14.977605466031363"><ele>541.4000000000001</ele><time>2026-03-28T15:42:21Z</time></trkpt><trkpt lat="36.98660848066348" lon="14.977659426193648"><ele>541.2</ele><time>2026-03-28T15:42:22Z</time></trkpt><trkpt lat="36.9865096506323" lon="14.977707215026248"><ele>541.0</ele><time>2026-03-28T15:42:23Z</time></trkpt><trkpt lat="36.98641020182167" lon="14.977751583939725"><ele>542.4</ele><time>2026-03-28T15:42:24Z</time></trkpt><trkpt lat="36.986316192251984" lon="14.977777668732553"><ele>543.8</ele><time>2026-03-28T15:42:25Z</time></trkpt><trkpt lat="36.986221460278145" lon="14.977792292866914"><ele>545.1999999999999</ele><time>2026-03-28T15:42:26Z</time></trkpt><trkpt lat="36.98610671681173" lon="14.977801543547178"><ele>546.6</ele><time>2026-03-28T15:42:27Z</time></trkpt><trkpt lat="36.98599479425907" lon="14.97780983638176"><ele>548.0</ele><time>2026-03-28T15:42:28Z</time></trkpt><trkpt lat="36.98590269998497" lon="14.977815212884535"><ele>548.3333333333333</ele><time>2026-03-28T15:42:29Z</time></trkpt><trkpt lat="36.98582192477114" lon="14.977816433869647"><ele>548.6666666666666</ele><time>2026-03-28T15:42:30Z</time></trkpt><trkpt lat="36.98573345226795" lon="14.977813391810468"><ele>549.0</ele><time>2026-03-28T15:42:31Z</time></trkpt><trkpt lat="36.98564209830712" lon="14.977805925923699"><ele>549.3333333333334</ele><time>2026-03-28T15:42:32Z</time></trkpt><trkpt lat="36.98555727589463" lon="14.9777944112925"><ele>549.6666666666667</ele><time>2026-03-28T15:42:33Z</time></trkpt><trkpt lat="36.98546276836178" lon="14.977781089674187"><ele>550.0</ele><time>2026-03-28T15:42:34Z</time></trkpt><trkpt lat="36.985366213873085" lon="14.977767479519182"><ele>550.0</ele><time>2026-03-28T15:42:35Z</time></trkpt><trkpt lat="36.98527015824458" lon="14.977755306113403"><ele>550.0</ele><time>2026-03-28T15:42:36Z</time></trkpt><trkpt lat="36.98516660617922" lon="14.977744348580986"><ele>550.0</ele><time>2026-03-28T15:42:37Z</time></trkpt><trkpt lat="36.98506452051982" lon="14.977733546217246"><ele>550.0</ele><time>2026-03-28T15:42:38Z</time></trkpt><trkpt lat="36.98496608194053" lon="14.97772089774471"><ele>550.0</ele><time>2026-03-28T15:42:39Z</time></trkpt><trkpt lat="36.98485383070893" lon="14.977698580793371"><ele>548.25</ele><time>2026-03-28T15:42:40Z</time></trkpt><trkpt lat="36.98473828315602" lon="14.977666474464773"><ele>546.5</ele><time>2026-03-28T15:42:41Z</time></trkpt><trkpt lat="36.984622444492466" lon="14.977630418718705"><ele>544.75</ele><time>2026-03-28T15:42:42Z</time></trkpt><trkpt lat="36.98449059690897" lon="14.97759495658187"><ele>543.0</ele><time>2026-03-28T15:42:43Z</time></trkpt><trkpt lat="36.984342082010016" lon="14.977589316506878"><ele>543.0</ele><time>2026-03-28T15:42:44Z</time></trkpt><trkpt lat="36.98421670525973" lon="14.977552375284658"><ele>543.0</ele><time>2026-03-28T15:42:45Z</time></trkpt><trkpt lat="36.98411225873687" lon="14.977518842871435"><ele>543.0</ele><time>2026-03-28T15:42:46Z</time></trkpt><trkpt lat="36.98400851322747" lon="14.977492583062277"><ele>543.0</ele><time>2026-03-28T15:42:47Z</time></trkpt><trkpt lat="36.98389889318216" lon="14.977442080426073"><ele>543.8</ele><time>2026-03-28T15:42:48Z</time></trkpt><trkpt lat="36.9837835501229" lon="14.977432193486585"><ele>544.5999999999999</ele><time>2026-03-28T15:42:49Z</time></trkpt><trkpt lat="36.983676830086786" lon="14.977428021626594"><ele>545.4000000000001</ele><time>2026-03-28T15:42:50Z</time></trkpt><trkpt lat="36.98357773575544" lon="14.977431452760458"><ele>546.2</ele><time>2026-03-28T15:42:51Z</time></trkpt><trkpt lat="36.983461249911024" lon="14.977446563803069"><ele>547.0</ele><time>2026-03-28T15:42:52Z</time></trkpt><trkpt lat="36.98334832593022" lon="14.977474198330864"><ele>547.8000000000001</ele><time>2026-03-28T15:42:53Z</time></trkpt><trkpt lat="36.98325668542504" lon="14.977491095308263"><ele>548.6</ele><time>2026-03-28T15:42:54Z</time></trkpt><trkpt lat="36.983151555840806" lon="14.977504324777259"><ele>549.4000000000001</ele><time>2026-03-28T15:42:55Z</time></trkpt><trkpt lat="36.983045130056524" lon="14.977511915272684"><ele>550.2</ele><time>2026-03-28T15:42:56Z</time></trkpt><trkpt lat="36.98295911315583" lon="14.977511278136134"><ele>551.0</ele><time>2026-03-28T15:42:57Z</time></trkpt><trkpt lat="36.982889541937155" lon="14.977506266319915"><ele>551.0</ele><time>2026-03-28T15:42:58Z</time></trkpt><trkpt lat="36.98280734756474" lon="14.977490018839019"><ele>551.0</ele><time>2026-03-28T15:42:59Z</time></trkpt><trkpt lat="36.98270504174982" lon="14.977458212526978"><ele>551.0</ele><time>2026-03-28T15:43:00Z</time></trkpt><trkpt lat="36.982596954317955" lon="14.97741782076736"><ele>551.0</ele><time>2026-03-28T15:43:01Z</time></trkpt><trkpt lat="36.98246536982587" lon="14.977362306016138"><ele>551.0</ele><time>2026-03-28T15:43:02Z</time></trkpt><trkpt lat="36.982353404356104" lon="14.977313161581506"><ele>552.6</ele><time>2026-03-28T15:43:03Z</time></trkpt><trkpt lat="36.98226003167297" lon="14.977269912809755"><ele>554.2</ele><time>2026-03-28T15:43:04Z</time></trkpt><trkpt lat="36.982158907506026" lon="14.977218574390012"><ele>555.8</ele><time>2026-03-28T15:43:05Z</time></trkpt><trkpt lat="36.9820699424971" lon="14.97716694600858"><ele>557.4</ele><time>2026-03-28T15:43:06Z</time></trkpt><trkpt lat="36.98199178594725" lon="14.977115244181324"><ele>559.0</ele><time>2026-03-28T15:43:07Z</time></trkpt><trkpt lat="36.981916224667664" lon="14.977058015664094"><ele>559.0</ele><time>2026-03-28T15:43:08Z</time></trkpt><trkpt lat="36.98183998319497" lon="14.976992907159058"><ele>559.0</ele><time>2026-03-28T15:43:09Z</time></trkpt><trkpt lat="36.98175642656637" lon="14.976919270297799"><ele>559.0</ele><time>2026-03-28T15:43:10Z</time></trkpt><trkpt lat="36.98168000136639" lon="14.976847998525145"><ele>559.0</ele><time>2026-03-28T15:43:11Z</time></trkpt><trkpt lat="36.98160192068099" lon="14.976798080599426"><ele>559.0</ele><time>2026-03-28T15:43:12Z</time></trkpt><trkpt lat="36.98155127343484" lon="14.976714697903294"><ele>561.0</ele><time>2026-03-28T15:43:13Z</time></trkpt><trkpt lat="36.98150395041283" lon="14.976604951420448"><ele>563.0</ele><time>2026-03-28T15:43:14Z</time></trkpt><trkpt lat="36.981457499256656" lon="14.976499736192336"><ele>565.0</ele><time>2026-03-28T15:43:15Z</time></trkpt><trkpt lat="36.98141397553249" lon="14.97640287851605"><ele>567.0</ele><time>2026-03-28T15:43:16Z</time></trkpt><trkpt lat="36.98137673025078" lon="14.976281247137946"><ele>569.0</ele><time>2026-03-28T15:43:17Z</time></trkpt><trkpt lat="36.981346903538444" lon="14.976144692468042"><ele>569.0</ele><time>2026-03-28T15:43:18Z</time></trkpt><trkpt lat="36.98132901792157" lon="14.976029163402153"><ele>569.0</ele><time>2026-03-28T15:43:19Z</time></trkpt><trkpt lat="36.98129580494884" lon="14.975932054391434"><ele>569.0</ele><time>2026-03-28T15:43:20Z</time></trkpt><trkpt lat="36.98123852716899" lon="14.975828976399809"><ele>569.0</ele><time>2026-03-28T15:43:21Z</time></trkpt><trkpt lat="36.9811634975676" lon="14.975743418727447"><ele>569.0</ele><time>2026-03-28T15:43:22Z</time></trkpt><trkpt lat="36.98110524163352" lon="14.975672934294392"><ele>569.8333333333333</ele><time>2026-03-28T15:43:23Z</time></trkpt><trkpt lat="36.981063406368996" lon="14.975610076219647"><ele>570.6666666666666</ele><time>2026-03-28T15:43:24Z</time></trkpt><trkpt lat="36.98098272624165" lon="14.975522414721997"><ele>571.5</ele><time>2026-03-28T15:43:26Z</time></trkpt><trkpt lat="36.98092540376444" lon="14.97548905809811"><ele>572.3333333333334</ele><time>2026-03-28T15:43:27Z</time></trkpt><trkpt lat="36.98086098974779" lon="14.975451438343107"><ele>573.1666666666667</ele><time>2026-03-28T15:43:28Z</time></trkpt><trkpt lat="36.98076771270784" lon="14.975430483387147"><ele>574.0</ele><time>2026-03-28T15:43:30Z</time></trkpt><trkpt lat="36.98065738120376" lon="14.975469895245949"><ele>574.0</ele><time>2026-03-28T15:43:32Z</time></trkpt><trkpt lat="36.980585059545895" lon="14.975512266934059"><ele>574.0</ele><time>2026-03-28T15:43:34Z</time></trkpt><trkpt lat="36.98050329013726" lon="14.975558627229494"><ele>574.0</ele><time>2026-03-28T15:43:36Z</time></trkpt><trkpt lat="36.9804246779405" lon="14.975606777651226"><ele>574.0</ele><time>2026-03-28T15:43:38Z</time></trkpt><trkpt lat="36.98031425985957" lon="14.975619438674212"><ele>574.0</ele><time>2026-03-28T15:43:40Z</time></trkpt><trkpt lat="36.98023142714593" lon="14.975606276321829"><ele>574.0</ele><time>2026-03-28T15:43:41Z</time></trkpt><trkpt lat="36.98016457106232" lon="14.975590334759444"><ele>574.0</ele><time>2026-03-28T15:43:42Z</time></trkpt><trkpt lat="36.98008418182695" lon="14.97549312596059"><ele>574.0</ele><time>2026-03-28T15:43:44Z</time></trkpt><trkpt lat="36.97999734957992" lon="14.975444548598274"><ele>574.0</ele><time>2026-03-28T15:43:46Z</time></trkpt><trkpt lat="36.97993558705721" lon="14.975402251178433"><ele>574.0</ele><time>2026-03-28T15:43:48Z</time></trkpt><trkpt lat="36.97987232833241" lon="14.975335860987009"><ele>574.0</ele><time>2026-03-28T15:43:52Z</time></trkpt><trkpt lat="36.9798423889223" lon="14.975256252388736"><ele>574.1428571428571</ele><time>2026-03-28T15:43:57Z</time></trkpt><trkpt lat="36.97981725866976" lon="14.975173725338223"><ele>574.2857142857142</ele><time>2026-03-28T15:44:08Z</time></trkpt><trkpt lat="36.979761398463694" lon="14.97510227479237"><ele>574.4285714285714</ele><time>2026-03-28T15:44:12Z</time></trkpt><trkpt lat="36.979720146403665" lon="14.975025989595695"><ele>574.5714285714286</ele><time>2026-03-28T15:44:15Z</time></trkpt><trkpt lat="36.97966971187935" lon="14.974962529609147"><ele>574.7142857142857</ele><time>2026-03-28T15:44:18Z</time></trkpt><trkpt lat="36.97968027335849" lon="14.974875568390896"><ele>574.8571428571429</ele><time>2026-03-28T15:44:22Z</time></trkpt><trkpt lat="36.979663016840945" lon="14.974794521124032"><ele>575.0</ele><time>2026-03-28T15:44:26Z</time></trkpt><trkpt lat="36.979656320189534" lon="14.974695057745738"><ele>575.5</ele><time>2026-03-28T15:44:35Z</time></trkpt><trkpt lat="36.97962739694776" lon="14.974612040883631"><ele>576.0</ele><time>2026-03-28T15:44:39Z</time></trkpt><trkpt lat="36.979614367688534" lon="14.974516711258174"><ele>576.5</ele><time>2026-03-28T15:44:42Z</time></trkpt><trkpt lat="36.97957198636485" lon="14.974425030688991"><ele>577.0</ele><time>2026-03-28T15:44:45Z</time></trkpt><trkpt lat="36.979530270821996" lon="14.974341841984558"><ele>577.5</ele><time>2026-03-28T15:45:19Z</time></trkpt><trkpt lat="36.979468059149426" lon="14.974214377500553"><ele>578.0</ele><time>2026-03-28T15:45:21Z</time></trkpt><trkpt lat="36.979428287648986" lon="14.974130143200409"><ele>580.1999999999999</ele><time>2026-03-28T15:45:22Z</time></trkpt><trkpt lat="36.9793963405446" lon="14.974005297763492"><ele>582.4</ele><time>2026-03-28T15:45:23Z</time></trkpt><trkpt lat="36.9793469146174" lon="14.973924416439326"><ele>584.5999999999999</ele><time>2026-03-28T15:45:24Z</time></trkpt><trkpt lat="36.979264800020594" lon="14.973880089825313"><ele>586.8</ele><time>2026-03-28T15:45:25Z</time></trkpt><trkpt lat="36.979187638644284" lon="14.973806928047667"><ele>589.0</ele><time>2026-03-28T15:45:26Z</time></trkpt><trkpt lat="36.97912534709717" lon="14.973729350462563"><ele>589.0</ele><time>2026-03-28T15:45:27Z</time></trkpt><trkpt lat="36.97907179124311" lon="14.973642525998962"><ele>589.0</ele><time>2026-03-28T15:45:28Z</time></trkpt><trkpt lat="36.979027865044934" lon="14.973555857633583"><ele>589.0</ele><time>2026-03-28T15:45:29Z</time></trkpt><trkpt lat="36.97898142990574" lon="14.973495571803172"><ele>589.0</ele><time>2026-03-28T15:45:30Z</time></trkpt><trkpt lat="36.978886964181925" lon="14.973407203519244"><ele>589.0</ele><time>2026-03-28T15:45:32Z</time></trkpt><trkpt lat="36.97881384842789" lon="14.973323825818648"><ele>589.2</ele><time>2026-03-28T15:45:34Z</time></trkpt><trkpt lat="36.97874697762097" lon="14.973255621667018"><ele>589.4</ele><time>2026-03-28T15:45:35Z</time></trkpt><trkpt lat="36.97865091654164" lon="14.973140975505585"><ele>589.6</ele><time>2026-03-28T15:45:36Z</time></trkpt><trkpt lat="36.978570783264935" lon="14.973062502553665"><ele>589.8</ele><time>2026-03-28T15:45:37Z</time></trkpt><trkpt lat="36.978516324836754" lon="14.972989716054125"><ele>590.0</ele><time>2026-03-28T15:45:38Z</time></trkpt><trkpt lat="36.97846878206775" lon="14.972928419216966"><ele>590.0</ele><time>2026-03-28T15:45:39Z</time></trkpt><trkpt lat="36.97837599747413" lon="14.972837365219666"><ele>590.0</ele><time>2026-03-28T15:45:41Z</time></trkpt><trkpt lat="36.97827857732094" lon="14.972771793351116"><ele>590.0</ele><time>2026-03-28T15:45:43Z</time></trkpt><trkpt lat="36.978223642097504" lon="14.972711117748878"><ele>590.0</ele><time>2026-03-28T15:45:45Z</time></trkpt><trkpt lat="36.978174579053665" lon="14.97265934368161"><ele>590.0</ele><time>2026-03-28T15:45:48Z</time></trkpt><trkpt lat="36.978108008559985" lon="14.972674779465263"><ele>590.0</ele><time>2026-03-28T15:45:51Z</time></trkpt><trkpt lat="36.97804464489322" lon="14.972687444825937"><ele>590.2857142857143</ele><time>2026-03-28T15:46:05Z</time></trkpt><trkpt lat="36.97796825619235" lon="14.972660876971865"><ele>590.5714285714286</ele><time>2026-03-28T15:46:10Z</time></trkpt><trkpt lat="36.97791330108835" lon="14.972705576751128"><ele>590.8571428571429</ele><time>2026-03-28T15:46:14Z</time></trkpt><trkpt lat="36.97785849150073" lon="14.972744778328451"><ele>591.1428571428571</ele><time>2026-03-28T15:46:31Z</time></trkpt><trkpt lat="36.97781086806571" lon="14.97281411189291"><ele>591.4285714285714</ele><time>2026-03-28T15:46:36Z</time></trkpt><trkpt lat="36.97777589706513" lon="14.972882674225032"><ele>591.7142857142858</ele><time>2026-03-28T15:46:40Z</time></trkpt><trkpt lat="36.97770834810002" lon="14.972864067506839"><ele>592.0</ele><time>2026-03-28T15:46:45Z</time></trkpt><trkpt lat="36.977652597700846" lon="14.972802156775824"><ele>592.0</ele><time>2026-03-28T15:46:51Z</time></trkpt><trkpt lat="36.977580381328686" lon="14.972798883690258"><ele>592.0</ele><time>2026-03-28T15:46:59Z</time></trkpt><trkpt lat="36.97754226617242" lon="14.972874855398484"><ele>592.0</ele><time>2026-03-28T15:47:03Z</time></trkpt><trkpt lat="36.97750809446798" lon="14.972955109157574"><ele>592.0</ele><time>2026-03-28T15:47:14Z</time></trkpt><trkpt lat="36.97753270027358" lon="14.973044802571666"><ele>592.0</ele><time>2026-03-28T15:47:25Z</time></trkpt><trkpt lat="36.9775830070416" lon="14.973112658968724"><ele>592.0</ele><time>2026-03-28T15:47:31Z</time></trkpt><trkpt lat="36.97762539184432" lon="14.973177005530266"><ele>592.0</ele><time>2026-03-28T15:47:36Z</time></trkpt><trkpt lat="36.97764467981205" lon="14.973254769242331"><ele>592.0</ele><time>2026-03-28T15:47:43Z</time></trkpt><trkpt lat="36.977684686993975" lon="14.973334183283484"><ele>592.0</ele><time>2026-03-28T15:47:46Z</time></trkpt><trkpt lat="36.977631174934345" lon="14.973390257455586"><ele>592.0</ele><time>2026-03-28T15:48:02Z</time></trkpt><trkpt lat="36.977599683758356" lon="14.973460027305023"><ele>592.0</ele><time>2026-03-28T15:48:06Z</time></trkpt><trkpt lat="36.97754597491956" lon="14.97353393484583"><ele>592.0</ele><time>2026-03-28T15:49:45Z</time></trkpt><trkpt lat="36.977489672597166" lon="14.973594107002908"><ele>592.0</ele><time>2026-03-28T15:49:48Z</time></trkpt><trkpt lat="36.97747118819902" lon="14.973670522965845"><ele>592.0</ele><time>2026-03-28T15:49:50Z</time></trkpt><trkpt lat="36.97746474327013" lon="14.973756434456275"><ele>594.3333333333334</ele><time>2026-03-28T15:49:52Z</time></trkpt><trkpt lat="36.977423261527655" lon="14.973836416132993"><ele>596.6666666666667</ele><time>2026-03-28T15:49:54Z</time></trkpt><trkpt lat="36.977378256559795" lon="14.973921769285525"><ele>599.0</ele><time>2026-03-28T15:49:56Z</time></trkpt><trkpt lat="36.97733693240528" lon="14.973995115550318"><ele>601.3333333333334</ele><time>2026-03-28T15:49:58Z</time></trkpt><trkpt lat="36.97730493609865" lon="14.974074209614908"><ele>603.6666666666666</ele><time>2026-03-28T15:50:01Z</time></trkpt><trkpt lat="36.977235956729736" lon="14.97414575655138"><ele>606.0</ele><time>2026-03-28T15:50:04Z</time></trkpt><trkpt lat="36.97718132531897" lon="14.974217409052985"><ele>606.0</ele><time>2026-03-28T15:50:06Z</time></trkpt><trkpt lat="36.9771383699921" lon="14.974288576334107"><ele>606.0</ele><time>2026-03-28T15:50:08Z</time></trkpt><trkpt lat="36.9770784173236" lon="14.97434299994504"><ele>606.0</ele><time>2026-03-28T15:50:10Z</time></trkpt><trkpt lat="36.97699597441965" lon="14.974389713976308"><ele>606.0</ele><time>2026-03-28T15:50:12Z</time></trkpt><trkpt lat="36.976913791355955" lon="14.974486699964284"><ele>606.0</ele><time>2026-03-28T15:50:16Z</time></trkpt><trkpt lat="36.97684095117166" lon="14.974588496967705"><ele>606.0</ele><time>2026-03-28T15:50:19Z</time></trkpt><trkpt lat="36.97665852671724" lon="14.974789971576856"><ele>606.0</ele><time>2026-03-28T15:50:22Z</time></trkpt><trkpt lat="36.9765749560613" lon="14.974887332154399"><ele>606.0</ele><time>2026-03-28T15:50:23Z</time></trkpt><trkpt lat="36.9764928562313" lon="14.97497024144157"><ele>605.5</ele><time>2026-03-28T15:50:24Z</time></trkpt><trkpt lat="36.976439672026366" lon="14.975038045285118"><ele>605.0</ele><time>2026-03-28T15:50:25Z</time></trkpt><trkpt lat="36.976392344502614" lon="14.97509419535233"><ele>604.5</ele><time>2026-03-28T15:50:26Z</time></trkpt><trkpt lat="36.97634321797427" lon="14.975151290445394"><ele>604.0</ele><time>2026-03-28T15:50:27Z</time></trkpt><trkpt lat="36.97624458901012" lon="14.97523210656351"><ele>603.5</ele><time>2026-03-28T15:50:29Z</time></trkpt><trkpt lat="36.976196968827594" lon="14.975285349093696"><ele>603.0</ele><time>2026-03-28T15:50:30Z</time></trkpt><trkpt lat="36.976151684738326" lon="14.975349409439815"><ele>603.0</ele><time>2026-03-28T15:50:31Z</time></trkpt><trkpt lat="36.976128603141134" lon="14.975437478096449"><ele>603.0</ele><time>2026-03-28T15:50:32Z</time></trkpt><trkpt lat="36.97611314832609" lon="14.975514319442222"><ele>603.0</ele><time>2026-03-28T15:50:33Z</time></trkpt><trkpt lat="36.9760709442283" lon="14.975581669630705"><ele>603.0</ele><time>2026-03-28T15:50:34Z</time></trkpt><trkpt lat="36.976025450299964" lon="14.975703733471255"><ele>603.0</ele><time>2026-03-28T15:50:36Z</time></trkpt><trkpt lat="36.975969758729384" lon="14.97574766585677"><ele>603.0</ele><time>2026-03-28T15:50:37Z</time></trkpt><trkpt lat="36.97592568420919" lon="14.975804866447504"><ele>603.0</ele><time>2026-03-28T15:50:38Z</time></trkpt><trkpt lat="36.97588723855344" lon="14.975893061002715"><ele>603.1666666666666</ele><time>2026-03-28T15:50:39Z</time></trkpt><trkpt lat="36.97583286835745" lon="14.975956802533233"><ele>603.3333333333334</ele><time>2026-03-28T15:50:40Z</time></trkpt><trkpt lat="36.97575943403458" lon="14.976040245971543"><ele>603.5</ele><time>2026-03-28T15:50:41Z</time></trkpt><trkpt lat="36.97569771442064" lon="14.9761165688889"><ele>603.6666666666667</ele><time>2026-03-28T15:50:42Z</time></trkpt><trkpt lat="36.975644055008594" lon="14.976194453944284"><ele>603.8333333333334</ele><time>2026-03-28T15:50:43Z</time></trkpt><trkpt lat="36.975601688185996" lon="14.976280354333698"><ele>604.0</ele><time>2026-03-28T15:50:44Z</time></trkpt><trkpt lat="36.97554477023476" lon="14.976376647248685"><ele>604.0</ele><time>2026-03-28T15:50:45Z</time></trkpt><trkpt lat="36.97550133270339" lon="14.976454655521046"><ele>604.0</ele><time>2026-03-28T15:50:46Z</time></trkpt><trkpt lat="36.975445813036934" lon="14.97654139592327"><ele>604.0</ele><time>2026-03-28T15:50:48Z</time></trkpt><trkpt lat="36.97536609010287" lon="14.976624447508732"><ele>604.0</ele><time>2026-03-28T15:50:50Z</time></trkpt><trkpt lat="36.97529612487312" lon="14.976721958180923"><ele>604.0</ele><time>2026-03-28T15:50:52Z</time></trkpt><trkpt lat="36.97525861503594" lon="14.976812815977759"><ele>604.0</ele><time>2026-03-28T15:50:55Z</time></trkpt><trkpt lat="36.975247524696165" lon="14.976901882555667"><ele>604.0</ele><time>2026-03-28T15:50:58Z</time></trkpt><trkpt lat="36.97521533736324" lon="14.976997091726115"><ele>604.0</ele><time>2026-03-28T15:51:02Z</time></trkpt><trkpt lat="36.975146031620966" lon="14.977052482212029"><ele>604.0</ele><time>2026-03-28T15:51:05Z</time></trkpt><trkpt lat="36.975094210675" lon="14.977139380960645"><ele>604.0</ele><time>2026-03-28T15:51:07Z</time></trkpt><trkpt lat="36.97505087155813" lon="14.977202047909156"><ele>604.0</ele><time>2026-03-28T15:51:09Z</time></trkpt><trkpt lat="36.974986034149566" lon="14.97729124474405"><ele>603.6666666666667</ele><time>2026-03-28T15:51:10Z</time></trkpt><trkpt lat="36.974947005019324" lon="14.977358243994477"><ele>603.3333333333334</ele><time>2026-03-28T15:51:11Z</time></trkpt><trkpt lat="36.97488499917265" lon="14.977435689139257"><ele>603.0</ele><time>2026-03-28T15:51:12Z</time></trkpt><trkpt lat="36.9748394366643" lon="14.97754948462584"><ele>602.6666666666666</ele><time>2026-03-28T15:51:14Z</time></trkpt><trkpt lat="36.97477994552775" lon="14.977593271429425"><ele>602.3333333333333</ele><time>2026-03-28T15:51:16Z</time></trkpt><trkpt lat="36.97473217749426" lon="14.977658233815236"><ele>602.0</ele><time>2026-03-28T15:51:18Z</time></trkpt><trkpt lat="36.974660925026" lon="14.977721829838607"><ele>601.4</ele><time>2026-03-28T15:51:20Z</time></trkpt><trkpt lat="36.97459817558186" lon="14.97779732710871"><ele>600.8000000000001</ele><time>2026-03-28T15:51:22Z</time></trkpt><trkpt lat="36.97454588416615" lon="14.977903685273054"><ele>600.2</ele><time>2026-03-28T15:51:23Z</time></trkpt><trkpt lat="36.97451303788496" lon="14.977974572848193"><ele>599.6</ele><time>2026-03-28T15:51:24Z</time></trkpt><trkpt lat="36.974452963749435" lon="14.978120579369682"><ele>599.0</ele><time>2026-03-28T15:51:26Z</time></trkpt><trkpt lat="36.97442838434466" lon="14.978197827381571"><ele>599.0</ele><time>2026-03-28T15:51:27Z</time></trkpt><trkpt lat="36.974358535325074" lon="14.978340755909148"><ele>599.0</ele><time>2026-03-28T15:51:29Z</time></trkpt><trkpt lat="36.97429273972756" lon="14.978444620175402"><ele>599.0</ele><time>2026-03-28T15:51:31Z</time></trkpt><trkpt lat="36.97426796218864" lon="14.978520122920544"><ele>599.0</ele><time>2026-03-28T15:51:32Z</time></trkpt><trkpt lat="36.974233652043765" lon="14.978594065642165"><ele>599.0</ele><time>2026-03-28T15:51:33Z</time></trkpt><trkpt lat="36.97416409020164" lon="14.978706952370922"><ele>597.6666666666666</ele><time>2026-03-28T15:51:35Z</time></trkpt><trkpt lat="36.974115746197874" lon="14.978807020533845"><ele>596.3333333333333</ele><time>2026-03-28T15:51:37Z</time></trkpt><trkpt lat="36.97405951005854" lon="14.978909230179244"><ele>595.0</ele><time>2026-03-28T15:51:39Z</time></trkpt><trkpt lat="36.974012704488246" lon="14.979036782781625"><ele>593.6666666666666</ele><time>2026-03-28T15:51:41Z</time></trkpt><trkpt lat="36.973977641428164" lon="14.979105907362607"><ele>592.3333333333334</ele><time>2026-03-28T15:51:42Z</time></trkpt><trkpt lat="36.97393650174944" lon="14.979178947825098"><ele>591.0</ele><time>2026-03-28T15:51:43Z</time></trkpt><trkpt lat="36.97389420501681" lon="14.979242127291824"><ele>590.8333333333334</ele><time>2026-03-28T15:51:44Z</time></trkpt><trkpt lat="36.97385219085877" lon="14.979312814253902"><ele>590.6666666666666</ele><time>2026-03-28T15:51:45Z</time></trkpt><trkpt lat="36.97380852598235" lon="14.979380658340292"><ele>590.5</ele><time>2026-03-28T15:51:46Z</time></trkpt><trkpt lat="36.973754403032586" lon="14.979441524583219"><ele>590.3333333333333</ele><time>2026-03-28T15:51:47Z</time></trkpt><trkpt lat="36.97371047582432" lon="14.979503175592846"><ele>590.1666666666666</ele><time>2026-03-28T15:51:48Z</time></trkpt><trkpt lat="36.973660511498245" lon="14.97960815377242"><ele>590.0</ele><time>2026-03-28T15:51:50Z</time></trkpt><trkpt lat="36.973582463053994" lon="14.9797530773218"><ele>590.0</ele><time>2026-03-28T15:51:52Z</time></trkpt><trkpt lat="36.97352861613879" lon="14.979868983832834"><ele>590.0</ele><time>2026-03-28T15:51:53Z</time></trkpt><trkpt lat="36.97348823659183" lon="14.979970406988464"><ele>590.0</ele><time>2026-03-28T15:51:54Z</time></trkpt><trkpt lat="36.97343891847483" lon="14.980067034592384"><ele>590.0</ele><time>2026-03-28T15:51:56Z</time></trkpt><trkpt lat="36.97335403054573" lon="14.980041727711557"><ele>590.0</ele><time>2026-03-28T15:51:59Z</time></trkpt><trkpt lat="36.973277906389086" lon="14.980006485118407"><ele>589.75</ele><time>2026-03-28T15:52:00Z</time></trkpt><trkpt lat="36.97316206438802" lon="14.979988894964638"><ele>589.5</ele><time>2026-03-28T15:52:01Z</time></trkpt><trkpt lat="36.97302860591127" lon="14.979959246087597"><ele>589.25</ele><time>2026-03-28T15:52:02Z</time></trkpt><trkpt lat="36.972872052384176" lon="14.979902609765906"><ele>589.0</ele><time>2026-03-28T15:52:03Z</time></trkpt><trkpt lat="36.97269988045895" lon="14.979831778597763"><ele>589.0</ele><time>2026-03-28T15:52:04Z</time></trkpt><trkpt lat="36.97253427862484" lon="14.979768939337458"><ele>589.0</ele><time>2026-03-28T15:52:05Z</time></trkpt><trkpt lat="36.97239824542364" lon="14.979723830311174"><ele>589.0</ele><time>2026-03-28T15:52:06Z</time></trkpt><trkpt lat="36.9722883281996" lon="14.9796877677145"><ele>589.0</ele><time>2026-03-28T15:52:07Z</time></trkpt><trkpt lat="36.97220416594201" lon="14.979656734368143"><ele>588.4285714285714</ele><time>2026-03-28T15:52:08Z</time></trkpt><trkpt lat="36.972131565363235" lon="14.979640664961146"><ele>587.8571428571428</ele><time>2026-03-28T15:52:09Z</time></trkpt><trkpt lat="36.972076928831285" lon="14.979587276662375"><ele>587.2857142857142</ele><time>2026-03-28T15:52:10Z</time></trkpt><trkpt lat="36.971980200076345" lon="14.97956041249537"><ele>586.7142857142857</ele><time>2026-03-28T15:52:12Z</time></trkpt><trkpt lat="36.97191274640875" lon="14.979585172650724"><ele>586.1428571428571</ele><time>2026-03-28T15:52:14Z</time></trkpt><trkpt lat="36.97185142110061" lon="14.97955469638325"><ele>585.5714285714286</ele><time>2026-03-28T15:52:20Z</time></trkpt><trkpt lat="36.97179159151336" lon="14.979585201109945"><ele>585.0</ele><time>2026-03-28T15:52:28Z</time></trkpt><trkpt lat="36.971731682278644" lon="14.979625724464459"><ele>584.5</ele><time>2026-03-28T15:52:31Z</time></trkpt><trkpt lat="36.97137339069648" lon="14.979555741196608"><ele>584.0</ele><time>2026-03-28T15:52:34Z</time></trkpt><trkpt lat="36.97134598487752" lon="14.979370702660027"><ele>584.0</ele><time>2026-03-28T15:52:35Z</time></trkpt><trkpt lat="36.97135023713017" lon="14.979278025264572"><ele>584.0</ele><time>2026-03-28T15:52:37Z</time></trkpt><trkpt lat="36.97157961743311" lon="14.979265004011173"><ele>584.0</ele><time>2026-03-28T15:52:38Z</time></trkpt><trkpt lat="36.97155378301381" lon="14.979126592793097"><ele>584.0</ele><time>2026-03-28T15:52:39Z</time></trkpt><trkpt lat="36.9715079511039" lon="14.979070256745143"><ele>584.4</ele><time>2026-03-28T15:52:41Z</time></trkpt><trkpt lat="36.9714757003237" lon="14.978932781404934"><ele>584.8</ele><time>2026-03-28T15:52:44Z</time></trkpt><trkpt lat="36.97141962925726" lon="14.978823607932041"><ele>585.2</ele><time>2026-03-28T15:52:45Z</time></trkpt><trkpt lat="36.97135478211868" lon="14.97877427362908"><ele>585.6</ele><time>2026-03-28T15:52:46Z</time></trkpt><trkpt lat="36.97126539056028" lon="14.978672522764864"><ele>586.0</ele><time>2026-03-28T15:53:01Z</time></trkpt><trkpt lat="36.971211452989465" lon="14.978606469110655"><ele>586.0</ele><time>2026-03-28T15:53:02Z</time></trkpt><trkpt lat="36.97114759205864" lon="14.978537153234395"><ele>586.0</ele><time>2026-03-28T15:53:03Z</time></trkpt><trkpt lat="36.97105883449755" lon="14.9784680479709"><ele>586.0</ele><time>2026-03-28T15:53:04Z</time></trkpt><trkpt lat="36.97096523844433" lon="14.978404418297252"><ele>586.0</ele><time>2026-03-28T15:53:05Z</time></trkpt><trkpt lat="36.970888303068" lon="14.978355546583245"><ele>586.0</ele><time>2026-03-28T15:53:06Z</time></trkpt><trkpt lat="36.97084870851324" lon="14.97822616302944"><ele>585.8</ele><time>2026-03-28T15:53:08Z</time></trkpt><trkpt lat="36.97088330318915" lon="14.978126623153454"><ele>585.6</ele><time>2026-03-28T15:53:09Z</time></trkpt><trkpt lat="36.970944147685" lon="14.97800460965163"><ele>585.4</ele><time>2026-03-28T15:53:10Z</time></trkpt><trkpt lat="36.97099053649784" lon="14.977888099048533"><ele>585.2</ele><time>2026-03-28T15:53:11Z</time></trkpt><trkpt lat="36.97098134015343" lon="14.97779195670331"><ele>585.0</ele><time>2026-03-28T15:53:12Z</time></trkpt><trkpt lat="36.9708624492559" lon="14.977696009926664"><ele>585.25</ele><time>2026-03-28T15:53:14Z</time></trkpt><trkpt lat="36.970757280315695" lon="14.977657721742052"><ele>585.5</ele><time>2026-03-28T15:53:15Z</time></trkpt><trkpt lat="36.97067494236558" lon="14.977566259161783"><ele>585.75</ele><time>2026-03-28T15:53:16Z</time></trkpt><trkpt lat="36.970560476579855" lon="14.97746484151583"><ele>586.0</ele><time>2026-03-28T15:53:17Z</time></trkpt><trkpt lat="36.97045385418793" lon="14.977298170379303"><ele>586.25</ele><time>2026-03-28T15:53:18Z</time></trkpt><trkpt lat="36.9703514711204" lon="14.977145519358304"><ele>586.5</ele><time>2026-03-28T15:53:19Z</time></trkpt><trkpt lat="36.97025398436209" lon="14.976997241338934"><ele>586.75</ele><time>2026-03-28T15:53:20Z</time></trkpt><trkpt lat="36.97017178219671" lon="14.976865250300184"><ele>587.0</ele><time>2026-03-28T15:53:21Z</time></trkpt><trkpt lat="36.970105732619" lon="14.976746821743069"><ele>586.8333333333333</ele><time>2026-03-28T15:53:22Z</time></trkpt><trkpt lat="36.97005571946964" lon="14.976663342925473"><ele>586.6666666666666</ele><time>2026-03-28T15:53:23Z</time></trkpt><trkpt lat="36.96999945858892" lon="14.976623581553682"><ele>586.5</ele><time>2026-03-28T15:53:24Z</time></trkpt><trkpt lat="36.96991845142676" lon="14.97658264881476"><ele>586.3333333333334</ele><time>2026-03-28T15:53:29Z</time></trkpt><trkpt lat="36.96983782226938" lon="14.976606673052439"><ele>586.1666666666667</ele><time>2026-03-28T15:53:33Z</time></trkpt><trkpt lat="36.969752934578324" lon="14.976672389587883"><ele>586.0</ele><time>2026-03-28T15:53:36Z</time></trkpt><trkpt lat="36.96967805193665" lon="14.976690559825215"><ele>586.0</ele><time>2026-03-28T15:53:37Z</time></trkpt><trkpt lat="36.969604520180916" lon="14.97668732772449"><ele>586.0</ele><time>2026-03-28T15:53:38Z</time></trkpt><trkpt lat="36.96951019612047" lon="14.976711436651081"><ele>586.0</ele><time>2026-03-28T15:53:39Z</time></trkpt><trkpt lat="36.96942303150545" lon="14.976768499735059"><ele>586.0</ele><time>2026-03-28T15:53:40Z</time></trkpt><trkpt lat="36.969347231746156" lon="14.976836547488984"><ele>586.0</ele><time>2026-03-28T15:53:41Z</time></trkpt><trkpt lat="36.96926717567683" lon="14.97688098298684"><ele>586.0</ele><time>2026-03-28T15:53:42Z</time></trkpt><trkpt lat="36.969174361319816" lon="14.97688177365238"><ele>586.4</ele><time>2026-03-28T15:53:43Z</time></trkpt><trkpt lat="36.96908087073852" lon="14.976856934922692"><ele>586.8</ele><time>2026-03-28T15:53:44Z</time></trkpt><trkpt lat="36.968987041740306" lon="14.976834043256874"><ele>587.1999999999999</ele><time>2026-03-28T15:53:45Z</time></trkpt><trkpt lat="36.96888676488617" lon="14.976818464670563"><ele>587.6</ele><time>2026-03-28T15:53:46Z</time></trkpt><trkpt lat="36.96876451398089" lon="14.976809261169228"><ele>588.0</ele><time>2026-03-28T15:53:47Z</time></trkpt><trkpt lat="36.96861606749367" lon="14.976804248085262"><ele>588.0</ele><time>2026-03-28T15:53:48Z</time></trkpt><trkpt lat="36.968478269563384" lon="14.976813745433368"><ele>588.0</ele><time>2026-03-28T15:53:49Z</time></trkpt><trkpt lat="36.96834409824494" lon="14.97681286692727"><ele>588.0</ele><time>2026-03-28T15:53:50Z</time></trkpt><trkpt lat="36.968208946379626" lon="14.976827941211456"><ele>588.0</ele><time>2026-03-28T15:53:51Z</time></trkpt><trkpt lat="36.96808063941302" lon="14.97683920359882"><ele>589.0</ele><time>2026-03-28T15:53:52Z</time></trkpt><trkpt lat="36.96795627179357" lon="14.976861511983278"><ele>590.0</ele><time>2026-03-28T15:53:53Z</time></trkpt><trkpt lat="36.96783293398323" lon="14.976833499179511"><ele>591.0</ele><time>2026-03-28T15:53:54Z</time></trkpt><trkpt lat="36.96772795209817" lon="14.976816486439736"><ele>592.0</ele><time>2026-03-28T15:53:55Z</time></trkpt><trkpt lat="36.967636048811855" lon="14.976823165762665"><ele>593.0</ele><time>2026-03-28T15:53:56Z</time></trkpt><trkpt lat="36.967560568316216" lon="14.976811961618287"><ele>592.5</ele><time>2026-03-28T15:53:57Z</time></trkpt><trkpt lat="36.967485841979794" lon="14.976799083475969"><ele>592.0</ele><time>2026-03-28T15:53:58Z</time></trkpt><trkpt lat="36.9674159492496" lon="14.976773699431249"><ele>591.5</ele><time>2026-03-28T15:53:59Z</time></trkpt><trkpt lat="36.96736476961135" lon="14.976716680638363"><ele>591.0</ele><time>2026-03-28T15:54:00Z</time></trkpt><trkpt lat="36.9673303382404" lon="14.976637350778269"><ele>590.5</ele><time>2026-03-28T15:54:01Z</time></trkpt><trkpt lat="36.96731031293607" lon="14.976530252961686"><ele>590.0</ele><time>2026-03-28T15:54:02Z</time></trkpt><trkpt lat="36.96729418378398" lon="14.976412355842015"><ele>590.0</ele><time>2026-03-28T15:54:03Z</time></trkpt><trkpt lat="36.96730469227335" lon="14.97627877924418"><ele>590.0</ele><time>2026-03-28T15:54:04Z</time></trkpt><trkpt lat="36.967329422432975" lon="14.976168525482779"><ele>590.0</ele><time>2026-03-28T15:54:05Z</time></trkpt><trkpt lat="36.967355700064225" lon="14.976078451270963"><ele>590.0</ele><time>2026-03-28T15:54:06Z</time></trkpt><trkpt lat="36.9673790445918" lon="14.975997640254553"><ele>590.0</ele><time>2026-03-28T15:54:07Z</time></trkpt><trkpt lat="36.967403931019795" lon="14.975918561592787"><ele>590.0</ele><time>2026-03-28T15:54:08Z</time></trkpt><trkpt lat="36.96741450365812" lon="14.975796976338382"><ele>589.4</ele><time>2026-03-28T15:54:10Z</time></trkpt><trkpt lat="36.967400584562846" lon="14.975655452164684"><ele>588.8</ele><time>2026-03-28T15:54:12Z</time></trkpt><trkpt lat="36.96738650987242" lon="14.97553036967226"><ele>588.2</ele><time>2026-03-28T15:54:13Z</time></trkpt><trkpt lat="36.96736875448668" lon="14.975393024682528"><ele>587.6</ele><time>2026-03-28T15:54:14Z</time></trkpt><trkpt lat="36.967352253620234" lon="14.975260852332275"><ele>587.0</ele><time>2026-03-28T15:54:15Z</time></trkpt><trkpt lat="36.96735014075089" lon="14.975132449739943"><ele>586.75</ele><time>2026-03-28T15:54:16Z</time></trkpt><trkpt lat="36.96736104808468" lon="14.974999090685865"><ele>586.5</ele><time>2026-03-28T15:54:17Z</time></trkpt><trkpt lat="36.96738766947616" lon="14.974858866312832"><ele>586.25</ele><time>2026-03-28T15:54:18Z</time></trkpt><trkpt lat="36.96743569747731" lon="14.97472369710079"><ele>586.0</ele><time>2026-03-28T15:54:19Z</time></trkpt><trkpt lat="36.967487833467366" lon="14.974589792909608"><ele>586.2</ele><time>2026-03-28T15:54:20Z</time></trkpt><trkpt lat="36.96754508858836" lon="14.974456473332621"><ele>586.4000000000001</ele><time>2026-03-28T15:54:21Z</time></trkpt><trkpt lat="36.96760012431832" lon="14.97433605213955"><ele>586.6</ele><time>2026-03-28T15:54:22Z</time></trkpt><trkpt lat="36.967645188412284" lon="14.974224775825615"><ele>586.8000000000001</ele><time>2026-03-28T15:54:23Z</time></trkpt><trkpt lat="36.96768711560037" lon="14.974121028823152"><ele>587.0</ele><time>2026-03-28T15:54:24Z</time></trkpt><trkpt lat="36.96772325390285" lon="14.974021352666735"><ele>586.3333333333333</ele><time>2026-03-28T15:54:25Z</time></trkpt><trkpt lat="36.967741068866594" lon="14.97392111875918"><ele>585.6666666666666</ele><time>2026-03-28T15:54:26Z</time></trkpt><trkpt lat="36.96774055989507" lon="14.973823381001628"><ele>585.0</ele><time>2026-03-28T15:54:27Z</time></trkpt><trkpt lat="36.96773262631459" lon="14.973741455015656"><ele>584.3333333333334</ele><time>2026-03-28T15:54:28Z</time></trkpt><trkpt lat="36.96772922417554" lon="14.973643617339961"><ele>583.6666666666667</ele><time>2026-03-28T15:54:30Z</time></trkpt><trkpt lat="36.967628011499166" lon="14.973579246133673"><ele>583.0</ele><time>2026-03-28T15:54:31Z</time></trkpt><trkpt lat="36.967553626926495" lon="14.973530553678735"><ele>583.25</ele><time>2026-03-28T15:54:32Z</time></trkpt><trkpt lat="36.96746048284748" lon="14.973483501536965"><ele>583.5</ele><time>2026-03-28T15:54:33Z</time></trkpt><trkpt lat="36.96734773836906" lon="14.97342894766696"><ele>583.75</ele><time>2026-03-28T15:54:34Z</time></trkpt><trkpt lat="36.96722517772344" lon="14.973375374873049"><ele>584.0</ele><time>2026-03-28T15:54:35Z</time></trkpt><trkpt lat="36.96708531097329" lon="14.973328015686386"><ele>583.3333333333333</ele><time>2026-03-28T15:54:36Z</time></trkpt><trkpt lat="36.96693163765883" lon="14.973300448253102"><ele>582.6666666666666</ele><time>2026-03-28T15:54:37Z</time></trkpt><trkpt lat="36.96676511758289" lon="14.973292054049299"><ele>582.0</ele><time>2026-03-28T15:54:38Z</time></trkpt><trkpt lat="36.966620079864214" lon="14.97329208532489"><ele>581.75</ele><time>2026-03-28T15:54:39Z</time></trkpt><trkpt lat="36.96648655242662" lon="14.973289669173607"><ele>581.5</ele><time>2026-03-28T15:54:40Z</time></trkpt><trkpt lat="36.96635569937494" lon="14.973288933679857"><ele>581.25</ele><time>2026-03-28T15:54:41Z</time></trkpt><trkpt lat="36.966234478459356" lon="14.973312391024878"><ele>581.0</ele><time>2026-03-28T15:54:42Z</time></trkpt><trkpt lat="36.96612917853478" lon="14.973340881190513"><ele>581.25</ele><time>2026-03-28T15:54:43Z</time></trkpt><trkpt lat="36.9660505823831" lon="14.973446146050662"><ele>581.5</ele><time>2026-03-28T15:54:44Z</time></trkpt><trkpt lat="36.96596427169878" lon="14.973567123253805"><ele>581.75</ele><time>2026-03-28T15:54:45Z</time></trkpt><trkpt lat="36.965871600135536" lon="14.973716925879579"><ele>582.0</ele><time>2026-03-28T15:54:46Z</time></trkpt><trkpt lat="36.965780526370445" lon="14.973845420856918"><ele>582.0</ele><time>2026-03-28T15:54:47Z</time></trkpt><trkpt lat="36.96569175019877" lon="14.973962861054437"><ele>582.0</ele><time>2026-03-28T15:54:48Z</time></trkpt><trkpt lat="36.965590439666954" lon="14.974081188806583"><ele>582.0</ele><time>2026-03-28T15:54:49Z</time></trkpt><trkpt lat="36.96545325722865" lon="14.97416129814997"><ele>582.0</ele><time>2026-03-28T15:54:50Z</time></trkpt><trkpt lat="36.96533607480188" lon="14.974270819603166"><ele>581.75</ele><time>2026-03-28T15:54:51Z</time></trkpt><trkpt lat="36.96523655402481" lon="14.974384715356026"><ele>581.5</ele><time>2026-03-28T15:54:52Z</time></trkpt><trkpt lat="36.96513099402878" lon="14.974481740317717"><ele>581.25</ele><time>2026-03-28T15:54:53Z</time></trkpt><trkpt lat="36.965016824587984" lon="14.974572495553332"><ele>581.0</ele><time>2026-03-28T15:54:54Z</time></trkpt><trkpt lat="36.9649113669979" lon="14.974671911532305"><ele>581.5</ele><time>2026-03-28T15:54:55Z</time></trkpt><trkpt lat="36.96481574978108" lon="14.974760612303825"><ele>582.0</ele><time>2026-03-28T15:54:56Z</time></trkpt><trkpt lat="36.96472093708447" lon="14.97483974990569"><ele>582.5</ele><time>2026-03-28T15:54:57Z</time></trkpt><trkpt lat="36.96462334091365" lon="14.974900865819487"><ele>583.0</ele><time>2026-03-28T15:54:58Z</time></trkpt><trkpt lat="36.96451024705738" lon="14.974964182628712"><ele>583.75</ele><time>2026-03-28T15:54:59Z</time></trkpt><trkpt lat="36.96439139881073" lon="14.975022008209413"><ele>584.5</ele><time>2026-03-28T15:55:00Z</time></trkpt><trkpt lat="36.96428546835257" lon="14.975089668455297"><ele>585.25</ele><time>2026-03-28T15:55:01Z</time></trkpt><trkpt lat="36.964173423658174" lon="14.975144376864685"><ele>586.0</ele><time>2026-03-28T15:55:02Z</time></trkpt><trkpt lat="36.964061447478606" lon="14.975196828717799"><ele>586.0</ele><time>2026-03-28T15:55:03Z</time></trkpt><trkpt lat="36.96394381239154" lon="14.975214979501281"><ele>586.0</ele><time>2026-03-28T15:55:04Z</time></trkpt><trkpt lat="36.963828682822054" lon="14.975238817520403"><ele>586.0</ele><time>2026-03-28T15:55:05Z</time></trkpt><trkpt lat="36.96371097634193" lon="14.975249706875717"><ele>586.0</ele><time>2026-03-28T15:55:06Z</time></trkpt><trkpt lat="36.9635861123982" lon="14.975278474177532"><ele>586.0</ele><time>2026-03-28T15:55:07Z</time></trkpt><trkpt lat="36.96345751568276" lon="14.97528911520769"><ele>586.0</ele><time>2026-03-28T15:55:08Z</time></trkpt><trkpt lat="36.96333032023147" lon="14.975309196930349"><ele>586.0</ele><time>2026-03-28T15:55:09Z</time></trkpt><trkpt lat="36.96320424505873" lon="14.975332261224459"><ele>586.0</ele><time>2026-03-28T15:55:10Z</time></trkpt><trkpt lat="36.96308201292289" lon="14.97535409261922"><ele>586.6</ele><time>2026-03-28T15:55:11Z</time></trkpt><trkpt lat="36.96297777679693" lon="14.97537279229045"><ele>587.2</ele><time>2026-03-28T15:55:12Z</time></trkpt><trkpt lat="36.96288056386127" lon="14.975388886134036"><ele>587.8</ele><time>2026-03-28T15:55:13Z</time></trkpt><trkpt lat="36.96277969874008" lon="14.975401116893321"><ele>588.4</ele><time>2026-03-28T15:55:14Z</time></trkpt><trkpt lat="36.96268426877969" lon="14.975403452969372"><ele>589.0</ele><time>2026-03-28T15:55:15Z</time></trkpt><trkpt lat="36.962607860993266" lon="14.975399733890555"><ele>589.3333333333334</ele><time>2026-03-28T15:55:16Z</time></trkpt><trkpt lat="36.962501431577955" lon="14.97538136429911"><ele>589.6666666666667</ele><time>2026-03-28T15:55:18Z</time></trkpt><trkpt lat="36.96244872737921" lon="14.975328263426672"><ele>590.0</ele><time>2026-03-28T15:55:21Z</time></trkpt><trkpt lat="36.96245479747464" lon="14.975214685676917"><ele>590.3333333333334</ele><time>2026-03-28T15:55:23Z</time></trkpt><trkpt lat="36.96247501574375" lon="14.975080586726039"><ele>590.6666666666666</ele><time>2026-03-28T15:55:25Z</time></trkpt><trkpt lat="36.96248850468868" lon="14.975003582285757"><ele>591.0</ele><time>2026-03-28T15:55:26Z</time></trkpt><trkpt lat="36.962501084338975" lon="14.974925873332317"><ele>591.1666666666666</ele><time>2026-03-28T15:55:27Z</time></trkpt><trkpt lat="36.96251327094298" lon="14.974790214405061"><ele>591.3333333333334</ele><time>2026-03-28T15:55:29Z</time></trkpt><trkpt lat="36.96250849186975" lon="14.974692631991076"><ele>591.5</ele><time>2026-03-28T15:55:31Z</time></trkpt><trkpt lat="36.96248395594563" lon="14.97460779694255"><ele>591.6666666666667</ele><time>2026-03-28T15:55:45Z</time></trkpt><trkpt lat="36.96254760279991" lon="14.974575732795492"><ele>591.8333333333334</ele><time>2026-03-28T15:56:13Z</time></trkpt><trkpt lat="36.96261096341077" lon="14.974594300669509"><ele>592.0</ele><time>2026-03-28T15:56:39Z</time></trkpt><trkpt lat="36.96263711783179" lon="14.97466840853809"><ele>592.0</ele><time>2026-03-28T16:09:43Z</time></trkpt><trkpt lat="36.962646550477565" lon="14.974584317338937"><ele>592.0</ele><time>2026-03-28T16:10:24Z</time></trkpt><trkpt lat="36.96258106081634" lon="14.974657586844309"><ele>592.0</ele><time>2026-03-28T16:11:00Z</time></trkpt><trkpt lat="36.96271947610458" lon="14.97476646045236"><ele>592.0</ele><time>2026-03-28T16:14:15Z</time></trkpt><trkpt lat="36.962648523364415" lon="14.974632296969117"><ele>592.0</ele><time>2026-03-28T16:14:16Z</time></trkpt><trkpt lat="36.962584789455455" lon="14.974634187261909"><ele>592.0</ele><time>2026-03-28T16:14:26Z</time></trkpt><trkpt lat="36.96262488151494" lon="14.974740408227335"><ele>592.0</ele><time>2026-03-28T16:14:29Z</time></trkpt><trkpt lat="36.96266946303718" lon="14.974680426806016"><ele>592.0</ele><time>2026-03-28T16:14:34Z</time></trkpt><trkpt lat="36.96264859205115" lon="14.974584056679355"><ele>592.0</ele><time>2026-03-28T16:14:54Z</time></trkpt><trkpt lat="36.96256758051458" lon="14.97455491100376"><ele>592.0</ele><time>2026-03-28T16:14:57Z</time></trkpt><trkpt lat="36.96250594846281" lon="14.974578796690677"><ele>592.0</ele><time>2026-03-28T16:16:40Z</time></trkpt><trkpt lat="36.96252038281514" lon="14.974496381126496"><ele>592.0</ele><time>2026-03-28T16:17:40Z</time></trkpt><trkpt lat="36.962539887061446" lon="14.974409141264564"><ele>592.0</ele><time>2026-03-28T16:17:41Z</time></trkpt><trkpt lat="36.9625312851857" lon="14.974282155076542"><ele>592.0</ele><time>2026-03-28T16:17:43Z</time></trkpt><trkpt lat="36.962426402647" lon="14.974194810572746"><ele>592.0</ele><time>2026-03-28T16:17:45Z</time></trkpt><trkpt lat="36.96233834387849" lon="14.974175936925182"><ele>592.0</ele><time>2026-03-28T16:17:46Z</time></trkpt><trkpt lat="36.962252927816095" lon="14.974177140236607"><ele>592.6</ele><time>2026-03-28T16:17:47Z</time></trkpt><trkpt lat="36.962171519611864" lon="14.974168767064212"><ele>593.2</ele><time>2026-03-28T16:17:48Z</time></trkpt><trkpt lat="36.96206115037676" lon="14.974151727262605"><ele>593.8</ele><time>2026-03-28T16:17:49Z</time></trkpt><trkpt lat="36.96194209404539" lon="14.97414127785047"><ele>594.4</ele><time>2026-03-28T16:17:50Z</time></trkpt><trkpt lat="36.96184129512369" lon="14.974131227147076"><ele>595.0</ele><time>2026-03-28T16:17:51Z</time></trkpt><trkpt lat="36.96175431780164" lon="14.974151022905104"><ele>594.8</ele><time>2026-03-28T16:17:52Z</time></trkpt><trkpt lat="36.96167117242413" lon="14.974186943125892"><ele>594.6</ele><time>2026-03-28T16:17:53Z</time></trkpt><trkpt lat="36.96157639262236" lon="14.974237476972922"><ele>594.4</ele><time>2026-03-28T16:17:54Z</time></trkpt><trkpt lat="36.961471696126814" lon="14.974305871752254"><ele>594.2</ele><time>2026-03-28T16:17:55Z</time></trkpt><trkpt lat="36.96138248752974" lon="14.974358280791678"><ele>594.0</ele><time>2026-03-28T16:17:56Z</time></trkpt><trkpt lat="36.96129935059802" lon="14.974410753556695"><ele>593.6</ele><time>2026-03-28T16:17:57Z</time></trkpt><trkpt lat="36.96121258169877" lon="14.974460619856574"><ele>593.2</ele><time>2026-03-28T16:17:58Z</time></trkpt><trkpt lat="36.961112441203305" lon="14.97451640449848"><ele>592.8000000000001</ele><time>2026-03-28T16:17:59Z</time></trkpt><trkpt lat="36.96102086126685" lon="14.974570462093615"><ele>592.4</ele><time>2026-03-28T16:18:00Z</time></trkpt><trkpt lat="36.96092392391345" lon="14.974625055938956"><ele>592.0</ele><time>2026-03-28T16:18:01Z</time></trkpt><trkpt lat="36.96080956126563" lon="14.974678284606474"><ele>591.25</ele><time>2026-03-28T16:18:02Z</time></trkpt><trkpt lat="36.960689279950046" lon="14.974720040188961"><ele>590.5</ele><time>2026-03-28T16:18:03Z</time></trkpt><trkpt lat="36.96057223856951" lon="14.974734638829618"><ele>589.75</ele><time>2026-03-28T16:18:04Z</time></trkpt><trkpt lat="36.96044290211642" lon="14.974734448181364"><ele>589.0</ele><time>2026-03-28T16:18:05Z</time></trkpt><trkpt lat="36.96030351848849" lon="14.97470746279069"><ele>589.0</ele><time>2026-03-28T16:18:06Z</time></trkpt><trkpt lat="36.960162796870755" lon="14.974659313242702"><ele>589.0</ele><time>2026-03-28T16:18:07Z</time></trkpt><trkpt lat="36.960024689697434" lon="14.974615316153418"><ele>589.0</ele><time>2026-03-28T16:18:08Z</time></trkpt><trkpt lat="36.959874341356226" lon="14.974602750525355"><ele>589.0</ele><time>2026-03-28T16:18:09Z</time></trkpt><trkpt lat="36.959716337936406" lon="14.974603787727732"><ele>589.0</ele><time>2026-03-28T16:18:10Z</time></trkpt><trkpt lat="36.95956899683656" lon="14.974603636297026"><ele>589.0</ele><time>2026-03-28T16:18:11Z</time></trkpt><trkpt lat="36.959421060419004" lon="14.974604727751771"><ele>589.0</ele><time>2026-03-28T16:18:12Z</time></trkpt><trkpt lat="36.959271899574276" lon="14.974599846224875"><ele>589.0</ele><time>2026-03-28T16:18:13Z</time></trkpt><trkpt lat="36.959117696692" lon="14.974596845303367"><ele>588.5</ele><time>2026-03-28T16:18:14Z</time></trkpt><trkpt lat="36.95896754296335" lon="14.974593444608445"><ele>588.0</ele><time>2026-03-28T16:18:15Z</time></trkpt><trkpt lat="36.95881992477418" lon="14.974597484380448"><ele>587.5</ele><time>2026-03-28T16:18:16Z</time></trkpt><trkpt lat="36.958671270516945" lon="14.974605007130801"><ele>587.0</ele><time>2026-03-28T16:18:17Z</time></trkpt><trkpt lat="36.95852566588731" lon="14.974618721983681"><ele>587.0</ele><time>2026-03-28T16:18:18Z</time></trkpt><trkpt lat="36.9583742033765" lon="14.974651906106557"><ele>587.0</ele><time>2026-03-28T16:18:19Z</time></trkpt><trkpt lat="36.9582101049635" lon="14.974709387750954"><ele>587.0</ele><time>2026-03-28T16:18:20Z</time></trkpt><trkpt lat="36.95804232258854" lon="14.974776227082573"><ele>587.3333333333333</ele><time>2026-03-28T16:18:21Z</time></trkpt><trkpt lat="36.95786604398924" lon="14.974846117007402"><ele>587.6666666666666</ele><time>2026-03-28T16:18:22Z</time></trkpt><trkpt lat="36.95768134114649" lon="14.974906509633502"><ele>588.0</ele><time>2026-03-28T16:18:23Z</time></trkpt><trkpt lat="36.95749911865964" lon="14.974963332421535"><ele>587.3333333333334</ele><time>2026-03-28T16:18:24Z</time></trkpt><trkpt lat="36.957312759683916" lon="14.975021850125046"><ele>586.6666666666667</ele><time>2026-03-28T16:18:25Z</time></trkpt><trkpt lat="36.95710394854765" lon="14.975087564392046"><ele>586.0</ele><time>2026-03-28T16:18:26Z</time></trkpt><trkpt lat="36.95689645435032" lon="14.975163271156653"><ele>586.0</ele><time>2026-03-28T16:18:27Z</time></trkpt><trkpt lat="36.956722501384434" lon="14.975222259626847"><ele>586.0</ele><time>2026-03-28T16:18:28Z</time></trkpt><trkpt lat="36.95655177237913" lon="14.975280752160328"><ele>586.0</ele><time>2026-03-28T16:18:29Z</time></trkpt><trkpt lat="36.9563670417607" lon="14.975338033725906"><ele>587.6666666666667</ele><time>2026-03-28T16:18:30Z</time></trkpt><trkpt lat="36.95617599007891" lon="14.975401860303489"><ele>589.3333333333334</ele><time>2026-03-28T16:18:31Z</time></trkpt><trkpt lat="36.95599378688139" lon="14.975477570064982"><ele>591.0</ele><time>2026-03-28T16:18:32Z</time></trkpt><trkpt lat="36.95583127479634" lon="14.975563481369925"><ele>591.0</ele><time>2026-03-28T16:18:33Z</time></trkpt><trkpt lat="36.955695442350134" lon="14.975651227239975"><ele>591.0</ele><time>2026-03-28T16:18:34Z</time></trkpt><trkpt lat="36.9555716409953" lon="14.975731612637734"><ele>591.0</ele><time>2026-03-28T16:18:35Z</time></trkpt><trkpt lat="36.95545359718347" lon="14.975812399649127"><ele>591.0</ele><time>2026-03-28T16:18:36Z</time></trkpt><trkpt lat="36.955315698252434" lon="14.975862240624544"><ele>591.0</ele><time>2026-03-28T16:18:37Z</time></trkpt><trkpt lat="36.95518449938418" lon="14.975923543262214"><ele>591.0</ele><time>2026-03-28T16:18:38Z</time></trkpt><trkpt lat="36.95504264604988" lon="14.975976368535282"><ele>591.0</ele><time>2026-03-28T16:18:39Z</time></trkpt><trkpt lat="36.954916546268755" lon="14.976014502257554"><ele>591.0</ele><time>2026-03-28T16:18:40Z</time></trkpt><trkpt lat="36.95480196660337" lon="14.97604635749436"><ele>592.0</ele><time>2026-03-28T16:18:41Z</time></trkpt><trkpt lat="36.95468817287463" lon="14.976076439634285"><ele>593.0</ele><time>2026-03-28T16:18:42Z</time></trkpt><trkpt lat="36.95456771294159" lon="14.976109975422137"><ele>594.0</ele><time>2026-03-28T16:18:43Z</time></trkpt><trkpt lat="36.95445137931366" lon="14.976142129371732"><ele>595.0</ele><time>2026-03-28T16:18:44Z</time></trkpt><trkpt lat="36.95433368831245" lon="14.97619350966468"><ele>595.0</ele><time>2026-03-28T16:18:45Z</time></trkpt><trkpt lat="36.95421684659784" lon="14.976231510171115"><ele>595.0</ele><time>2026-03-28T16:18:46Z</time></trkpt><trkpt lat="36.95410190276133" lon="14.976244149887686"><ele>595.0</ele><time>2026-03-28T16:18:47Z</time></trkpt><trkpt lat="36.95399277703649" lon="14.976276316230413"><ele>595.0</ele><time>2026-03-28T16:18:48Z</time></trkpt><trkpt lat="36.95386561964797" lon="14.976313475696408"><ele>594.25</ele><time>2026-03-28T16:18:49Z</time></trkpt><trkpt lat="36.953736356791225" lon="14.976341375314483"><ele>593.5</ele><time>2026-03-28T16:18:50Z</time></trkpt><trkpt lat="36.95359890965149" lon="14.976384921383854"><ele>592.75</ele><time>2026-03-28T16:18:51Z</time></trkpt><trkpt lat="36.95344938204757" lon="14.976394577096098"><ele>592.0</ele><time>2026-03-28T16:18:52Z</time></trkpt><trkpt lat="36.953292370840984" lon="14.976407312272727"><ele>591.3333333333334</ele><time>2026-03-28T16:18:53Z</time></trkpt><trkpt lat="36.9531273508272" lon="14.97643517095511"><ele>590.6666666666666</ele><time>2026-03-28T16:18:54Z</time></trkpt><trkpt lat="36.95295034653138" lon="14.976495664935724"><ele>590.0</ele><time>2026-03-28T16:18:55Z</time></trkpt><trkpt lat="36.952786213033264" lon="14.976569009323123"><ele>590.0</ele><time>2026-03-28T16:18:56Z</time></trkpt><trkpt lat="36.95263021754437" lon="14.976632503434466"><ele>590.0</ele><time>2026-03-28T16:18:57Z</time></trkpt><trkpt lat="36.952490662364895" lon="14.976694566135565"><ele>590.0</ele><time>2026-03-28T16:18:58Z</time></trkpt><trkpt lat="36.95236242613439" lon="14.976764085725787"><ele>589.5</ele><time>2026-03-28T16:18:59Z</time></trkpt><trkpt lat="36.95224813932777" lon="14.97684205802137"><ele>589.0</ele><time>2026-03-28T16:19:00Z</time></trkpt><trkpt lat="36.9521426088918" lon="14.97693372551929"><ele>588.5</ele><time>2026-03-28T16:19:01Z</time></trkpt><trkpt lat="36.9520488977643" lon="14.977035420561855"><ele>588.0</ele><time>2026-03-28T16:19:02Z</time></trkpt><trkpt lat="36.95196510359633" lon="14.977138196042972"><ele>588.0</ele><time>2026-03-28T16:19:03Z</time></trkpt><trkpt lat="36.951898519310504" lon="14.977226365024114"><ele>588.0</ele><time>2026-03-28T16:19:03.999Z</time></trkpt><trkpt lat="36.951832793733196" lon="14.977305336865063"><ele>588.0</ele><time>2026-03-28T16:19:04.999Z</time></trkpt><trkpt lat="36.95176579280394" lon="14.977368901609806"><ele>588.0</ele><time>2026-03-28T16:19:05.999Z</time></trkpt><trkpt lat="36.95170400589245" lon="14.977418527580646"><ele>588.0</ele><time>2026-03-28T16:19:06.999Z</time></trkpt><trkpt lat="36.951636318129154" lon="14.977457800571104"><ele>588.0</ele><time>2026-03-28T16:19:12.999Z</time></trkpt><trkpt lat="36.95155623757132" lon="14.977535591571156"><ele>587.6</ele><time>2026-03-28T16:20:21Z</time></trkpt><trkpt lat="36.9514771036979" lon="14.977587423421285"><ele>587.1999999999999</ele><time>2026-03-28T16:20:22Z</time></trkpt><trkpt lat="36.95139304418947" lon="14.977647421955538"><ele>586.8</ele><time>2026-03-28T16:20:23Z</time></trkpt><trkpt lat="36.95127984639308" lon="14.977694692579572"><ele>586.4</ele><time>2026-03-28T16:20:24Z</time></trkpt><trkpt lat="36.951159797654874" lon="14.977765090872126"><ele>586.0</ele><time>2026-03-28T16:20:25Z</time></trkpt><trkpt lat="36.951047662296794" lon="14.977846988582856"><ele>586.0</ele><time>2026-03-28T16:20:26Z</time></trkpt><trkpt lat="36.950922554406" lon="14.97789630250269"><ele>586.0</ele><time>2026-03-28T16:20:27Z</time></trkpt><trkpt lat="36.95078657239001" lon="14.977940067420619"><ele>586.0</ele><time>2026-03-28T16:20:28Z</time></trkpt><trkpt lat="36.95064820952351" lon="14.97798639622519"><ele>586.0</ele><time>2026-03-28T16:20:29Z</time></trkpt><trkpt lat="36.950520091760424" lon="14.978040452862265"><ele>585.5</ele><time>2026-03-28T16:20:30Z</time></trkpt><trkpt lat="36.95040723226865" lon="14.978090358524504"><ele>585.0</ele><time>2026-03-28T16:20:31Z</time></trkpt><trkpt lat="36.95030778726638" lon="14.97814366329678"><ele>584.5</ele><time>2026-03-28T16:20:32Z</time></trkpt><trkpt lat="36.950202373700314" lon="14.978210378054879"><ele>584.0</ele><time>2026-03-28T16:20:33Z</time></trkpt><trkpt lat="36.950080783219896" lon="14.978278214190048"><ele>583.3333333333333</ele><time>2026-03-28T16:20:34Z</time></trkpt><trkpt lat="36.94994698972833" lon="14.978353413318239"><ele>582.6666666666666</ele><time>2026-03-28T16:20:35Z</time></trkpt><trkpt lat="36.94980420818558" lon="14.978431154838319"><ele>582.0</ele><time>2026-03-28T16:20:36Z</time></trkpt><trkpt lat="36.94965423635035" lon="14.97851112250754"><ele>582.0</ele><time>2026-03-28T16:20:37Z</time></trkpt><trkpt lat="36.949500370209826" lon="14.97859044557428"><ele>582.0</ele><time>2026-03-28T16:20:38Z</time></trkpt><trkpt lat="36.94935094070018" lon="14.978665211539242"><ele>582.0</ele><time>2026-03-28T16:20:39Z</time></trkpt><trkpt lat="36.949177724868875" lon="14.97872303706917"><ele>581.0</ele><time>2026-03-28T16:20:40Z</time></trkpt><trkpt lat="36.948987427197544" lon="14.978779409044968"><ele>580.0</ele><time>2026-03-28T16:20:41Z</time></trkpt><trkpt lat="36.948798146388334" lon="14.978821083597477"><ele>579.0</ele><time>2026-03-28T16:20:42Z</time></trkpt><trkpt lat="36.9486041478913" lon="14.978866771162833"><ele>579.0</ele><time>2026-03-28T16:20:43Z</time></trkpt><trkpt lat="36.94839595613332" lon="14.978906581081889"><ele>579.0</ele><time>2026-03-28T16:20:44Z</time></trkpt><trkpt lat="36.948153167832054" lon="14.978947714434787"><ele>578.3333333333334</ele><time>2026-03-28T16:20:45Z</time></trkpt><trkpt lat="36.94793358818308" lon="14.978985196426926"><ele>577.6666666666667</ele><time>2026-03-28T16:20:46Z</time></trkpt><trkpt lat="36.94773343792713" lon="14.97901308545508"><ele>577.0</ele><time>2026-03-28T16:20:47Z</time></trkpt><trkpt lat="36.94755804905302" lon="14.97902393088237"><ele>576.3333333333334</ele><time>2026-03-28T16:20:48Z</time></trkpt><trkpt lat="36.94739768035659" lon="14.979024070374853"><ele>575.6666666666666</ele><time>2026-03-28T16:20:49Z</time></trkpt><trkpt lat="36.947244142618466" lon="14.97899610631106"><ele>575.0</ele><time>2026-03-28T16:20:50Z</time></trkpt><trkpt lat="36.947066578669485" lon="14.978944028026186"><ele>575.0</ele><time>2026-03-28T16:20:51Z</time></trkpt><trkpt lat="36.94688831136533" lon="14.97887232424351"><ele>575.0</ele><time>2026-03-28T16:20:52Z</time></trkpt><trkpt lat="36.9467106256178" lon="14.978807517117325"><ele>575.0</ele><time>2026-03-28T16:20:53Z</time></trkpt><trkpt lat="36.946541286443" lon="14.97875787764288"><ele>575.0</ele><time>2026-03-28T16:20:54Z</time></trkpt><trkpt lat="36.94638013052946" lon="14.978727019704444"><ele>575.0</ele><time>2026-03-28T16:20:55Z</time></trkpt><trkpt lat="36.94621744331342" lon="14.978711392430966"><ele>575.0</ele><time>2026-03-28T16:20:56Z</time></trkpt><trkpt lat="36.946056479484746" lon="14.9787048626245"><ele>575.0</ele><time>2026-03-28T16:20:57Z</time></trkpt><trkpt lat="36.945907792066805" lon="14.978696874538695"><ele>575.0</ele><time>2026-03-28T16:20:58Z</time></trkpt><trkpt lat="36.945762236107036" lon="14.978675784414664"><ele>575.0</ele><time>2026-03-28T16:20:59Z</time></trkpt><trkpt lat="36.94562544796806" lon="14.978643339930992"><ele>575.0</ele><time>2026-03-28T16:21:00Z</time></trkpt><trkpt lat="36.94550322690063" lon="14.978595108804837"><ele>575.0</ele><time>2026-03-28T16:21:01Z</time></trkpt><trkpt lat="36.94538633947146" lon="14.978537921132265"><ele>575.0</ele><time>2026-03-28T16:21:02Z</time></trkpt><trkpt lat="36.945269400685774" lon="14.978468288187097"><ele>575.0</ele><time>2026-03-28T16:21:03Z</time></trkpt><trkpt lat="36.94515726814781" lon="14.978386585070758"><ele>575.0</ele><time>2026-03-28T16:21:04Z</time></trkpt><trkpt lat="36.94505662133367" lon="14.978308107135424"><ele>573.8</ele><time>2026-03-28T16:21:05Z</time></trkpt><trkpt lat="36.94496334207041" lon="14.978233924673376"><ele>572.6</ele><time>2026-03-28T16:21:06Z</time></trkpt><trkpt lat="36.94487252413013" lon="14.978168557736257"><ele>571.4</ele><time>2026-03-28T16:21:07Z</time></trkpt><trkpt lat="36.944792176016456" lon="14.978125939109178"><ele>570.2</ele><time>2026-03-28T16:21:08Z</time></trkpt><trkpt lat="36.94471670063604" lon="14.978095717294577"><ele>569.0</ele><time>2026-03-28T16:21:09Z</time></trkpt><trkpt lat="36.94464367124775" lon="14.978079685213377"><ele>569.0</ele><time>2026-03-28T16:21:09.999Z</time></trkpt><trkpt lat="36.94456476287428" lon="14.978083233400556"><ele>569.0</ele><time>2026-03-28T16:21:10.999Z</time></trkpt><trkpt lat="36.944466586062035" lon="14.978108394847064"><ele>569.0</ele><time>2026-03-28T16:21:11.999Z</time></trkpt><trkpt lat="36.94433695372139" lon="14.978135272767641"><ele>569.0</ele><time>2026-03-28T16:21:12.999Z</time></trkpt><trkpt lat="36.94418345346829" lon="14.978183791286858"><ele>568.5</ele><time>2026-03-28T16:21:13.999Z</time></trkpt><trkpt lat="36.94403807193059" lon="14.97823125943191"><ele>568.0</ele><time>2026-03-28T16:21:14.999Z</time></trkpt><trkpt lat="36.94391936115568" lon="14.978304468235489"><ele>567.5</ele><time>2026-03-28T16:21:15.999Z</time></trkpt><trkpt lat="36.9438024438322" lon="14.9783398495645"><ele>567.0</ele><time>2026-03-28T16:21:16.999Z</time></trkpt><trkpt lat="36.943691026380584" lon="14.97836925544021"><ele>567.0</ele><time>2026-03-28T16:21:17.999Z</time></trkpt><trkpt lat="36.94356902017248" lon="14.978403472294723"><ele>567.0</ele><time>2026-03-28T16:21:18.999Z</time></trkpt><trkpt lat="36.943435409904076" lon="14.978447474504813"><ele>567.0</ele><time>2026-03-28T16:21:19.999Z</time></trkpt><trkpt lat="36.94331031084163" lon="14.978486762065183"><ele>567.0</ele><time>2026-03-28T16:21:20.999Z</time></trkpt><trkpt lat="36.94316952264776" lon="14.978521016602052"><ele>566.0</ele><time>2026-03-28T16:21:21.999Z</time></trkpt><trkpt lat="36.942988554650405" lon="14.978572097426358"><ele>565.0</ele><time>2026-03-28T16:21:22.999Z</time></trkpt><trkpt lat="36.94277755843885" lon="14.978628891760026"><ele>564.0</ele><time>2026-03-28T16:21:23.999Z</time></trkpt><trkpt lat="36.942545127221145" lon="14.978674202484697"><ele>563.3333333333334</ele><time>2026-03-28T16:21:24.999Z</time></trkpt><trkpt lat="36.942336805960196" lon="14.978706573192463"><ele>562.6666666666667</ele><time>2026-03-28T16:21:25.999Z</time></trkpt><trkpt lat="36.94212792108625" lon="14.97874317572547"><ele>562.0</ele><time>2026-03-28T16:21:26.999Z</time></trkpt><trkpt lat="36.94192505878119" lon="14.9787835358436"><ele>562.0</ele><time>2026-03-28T16:21:27.999Z</time></trkpt><trkpt lat="36.941726006888146" lon="14.978826277052274"><ele>562.0</ele><time>2026-03-28T16:21:28.999Z</time></trkpt><trkpt lat="36.941514458230905" lon="14.978871495800558"><ele>562.0</ele><time>2026-03-28T16:21:29.999Z</time></trkpt><trkpt lat="36.941314642640876" lon="14.97891816637298"><ele>561.6666666666667</ele><time>2026-03-28T16:21:30.999Z</time></trkpt><trkpt lat="36.94112484822743" lon="14.97895936153102"><ele>561.3333333333334</ele><time>2026-03-28T16:21:31.999Z</time></trkpt><trkpt lat="36.940923792186204" lon="14.978992053689776"><ele>561.0</ele><time>2026-03-28T16:21:32.999Z</time></trkpt><trkpt lat="36.940704995449146" lon="14.979017708029518"><ele>561.0</ele><time>2026-03-28T16:21:33.999Z</time></trkpt><trkpt lat="36.940475232784614" lon="14.979035363616655"><ele>561.0</ele><time>2026-03-28T16:21:34.999Z</time></trkpt><trkpt lat="36.940259051763356" lon="14.97904612611967"><ele>561.0</ele><time>2026-03-28T16:21:35.999Z</time></trkpt><trkpt lat="36.94002972553058" lon="14.979054181882354"><ele>559.0</ele><time>2026-03-28T16:21:36.999Z</time></trkpt><trkpt lat="36.93978830285875" lon="14.979065351958596"><ele>557.0</ele><time>2026-03-28T16:21:37.999Z</time></trkpt><trkpt lat="36.93954486951354" lon="14.979072229049562"><ele>557.0</ele><time>2026-03-28T16:21:38.999Z</time></trkpt><trkpt lat="36.939294160440575" lon="14.97907148930916"><ele>557.0</ele><time>2026-03-28T16:21:39.999Z</time></trkpt><trkpt lat="36.939032504822144" lon="14.979067513252502"><ele>555.5</ele><time>2026-03-28T16:21:40.999Z</time></trkpt><trkpt lat="36.93876432128266" lon="14.97906207657039"><ele>554.0</ele><time>2026-03-28T16:21:41.999Z</time></trkpt><trkpt lat="36.938491679360226" lon="14.979046129574634"><ele>553.0</ele><time>2026-03-28T16:21:42.999Z</time></trkpt><trkpt lat="36.938251228314535" lon="14.979007951146517"><ele>552.0</ele><time>2026-03-28T16:21:43.999Z</time></trkpt><trkpt lat="36.938018834434594" lon="14.979012271423587"><ele>552.0</ele><time>2026-03-28T16:21:44.999Z</time></trkpt><trkpt lat="36.93780027203939" lon="14.979005364243363"><ele>552.0</ele><time>2026-03-28T16:21:45.999Z</time></trkpt><trkpt lat="36.93758930790969" lon="14.978987770471424"><ele>552.0</ele><time>2026-03-28T16:21:46.999Z</time></trkpt><trkpt lat="36.937369031951306" lon="14.978976660117311"><ele>551.6666666666666</ele><time>2026-03-28T16:21:47.999Z</time></trkpt><trkpt lat="36.937147815175585" lon="14.97896672290327"><ele>551.3333333333333</ele><time>2026-03-28T16:21:49Z</time></trkpt><trkpt lat="36.93692224862273" lon="14.9789552028575"><ele>551.0</ele><time>2026-03-28T16:21:50Z</time></trkpt><trkpt lat="36.93669250243589" lon="14.97894922219833"><ele>551.0</ele><time>2026-03-28T16:21:51Z</time></trkpt><trkpt lat="36.936457262427986" lon="14.978949965182624"><ele>551.0</ele><time>2026-03-28T16:21:52Z</time></trkpt><trkpt lat="36.93621757495469" lon="14.978960812844813"><ele>551.0</ele><time>2026-03-28T16:21:53Z</time></trkpt><trkpt lat="36.93597384423524" lon="14.97897724619042"><ele>551.0</ele><time>2026-03-28T16:21:54Z</time></trkpt><trkpt lat="36.93572667814802" lon="14.978995662218267"><ele>549.5</ele><time>2026-03-28T16:21:55Z</time></trkpt><trkpt lat="36.93547600155598" lon="14.979024482875468"><ele>548.0</ele><time>2026-03-28T16:21:56Z</time></trkpt><trkpt lat="36.9352251797129" lon="14.979053509575488"><ele>547.0</ele><time>2026-03-28T16:21:57Z</time></trkpt><trkpt lat="36.934978685873396" lon="14.979071887624482"><ele>546.0</ele><time>2026-03-28T16:21:58Z</time></trkpt><trkpt lat="36.934736173635756" lon="14.979078056585871"><ele>546.0</ele><time>2026-03-28T16:21:59Z</time></trkpt><trkpt lat="36.934496408075624" lon="14.97906093736586"><ele>546.0</ele><time>2026-03-28T16:22:00Z</time></trkpt><trkpt lat="36.93427273465738" lon="14.979032552166279"><ele>546.3333333333334</ele><time>2026-03-28T16:22:01Z</time></trkpt><trkpt lat="36.93405361479994" lon="14.979003572301613"><ele>546.6666666666667</ele><time>2026-03-28T16:22:02Z</time></trkpt><trkpt lat="36.93383111074105" lon="14.978997842692781"><ele>547.0</ele><time>2026-03-28T16:22:03Z</time></trkpt><trkpt lat="36.93358805017713" lon="14.97903091289091"><ele>547.0</ele><time>2026-03-28T16:22:04Z</time></trkpt><trkpt lat="36.93333742722944" lon="14.979085154597497"><ele>547.0</ele><time>2026-03-28T16:22:05Z</time></trkpt><trkpt lat="36.933096828670294" lon="14.979148407096037"><ele>552.0</ele><time>2026-03-28T16:22:06Z</time></trkpt><trkpt lat="36.93285989921127" lon="14.979231502684721"><ele>557.0</ele><time>2026-03-28T16:22:07Z</time></trkpt><trkpt lat="36.93264548470873" lon="14.979301919769267"><ele>554.6666666666666</ele><time>2026-03-28T16:22:08Z</time></trkpt><trkpt lat="36.932475146346704" lon="14.97939737485051"><ele>552.3333333333334</ele><time>2026-03-28T16:22:09Z</time></trkpt><trkpt lat="36.932338148288956" lon="14.979496261596386"><ele>550.0</ele><time>2026-03-28T16:22:10Z</time></trkpt><trkpt lat="36.93221539510996" lon="14.979594590221168"><ele>550.0</ele><time>2026-03-28T16:22:11Z</time></trkpt><trkpt lat="36.93210510059584" lon="14.979691159436115"><ele>550.0</ele><time>2026-03-28T16:22:12Z</time></trkpt><trkpt lat="36.93200462738455" lon="14.97978446151303"><ele>550.0</ele><time>2026-03-28T16:22:13Z</time></trkpt><trkpt lat="36.931895905971075" lon="14.97988988117713"><ele>550.0</ele><time>2026-03-28T16:22:14Z</time></trkpt><trkpt lat="36.93179628638333" lon="14.979992523345896"><ele>548.4</ele><time>2026-03-28T16:22:15Z</time></trkpt><trkpt lat="36.931705297014176" lon="14.980087159667937"><ele>546.8</ele><time>2026-03-28T16:22:16Z</time></trkpt><trkpt lat="36.931639317764414" lon="14.980198234765481"><ele>545.2</ele><time>2026-03-28T16:22:17Z</time></trkpt><trkpt lat="36.93156786700943" lon="14.98029475798122"><ele>543.6</ele><time>2026-03-28T16:22:18Z</time></trkpt><trkpt lat="36.93153169810735" lon="14.98043165465283"><ele>542.0</ele><time>2026-03-28T16:22:19Z</time></trkpt><trkpt lat="36.93152500357837" lon="14.980573749648414"><ele>542.0</ele><time>2026-03-28T16:22:20Z</time></trkpt><trkpt lat="36.931535435709534" lon="14.980712599351403"><ele>542.0</ele><time>2026-03-28T16:22:21Z</time></trkpt><trkpt lat="36.93157862925377" lon="14.980838416678067"><ele>542.0</ele><time>2026-03-28T16:22:22Z</time></trkpt><trkpt lat="36.931605174842325" lon="14.980943444786078"><ele>542.0</ele><time>2026-03-28T16:22:23Z</time></trkpt><trkpt lat="36.93162832783076" lon="14.981026607564402"><ele>542.0</ele><time>2026-03-28T16:22:24Z</time></trkpt><trkpt lat="36.93164468587225" lon="14.98110810337051"><ele>542.0</ele><time>2026-03-28T16:22:28Z</time></trkpt><trkpt lat="36.93164087526541" lon="14.98120481300875"><ele>541.1666666666666</ele><time>2026-03-28T16:22:30Z</time></trkpt><trkpt lat="36.93161854343243" lon="14.98131517746974"><ele>540.3333333333333</ele><time>2026-03-28T16:22:33Z</time></trkpt><trkpt lat="36.93156476972457" lon="14.98140305044019"><ele>539.5</ele><time>2026-03-28T16:22:39Z</time></trkpt><trkpt lat="36.93149700418575" lon="14.981463755695408"><ele>538.6666666666666</ele><time>2026-03-28T16:23:00Z</time></trkpt><trkpt lat="36.93144493799463" lon="14.981551330506504"><ele>537.8333333333334</ele><time>2026-03-28T16:23:02Z</time></trkpt><trkpt lat="36.93138935568428" lon="14.981624309639427"><ele>537.0</ele><time>2026-03-28T16:23:04Z</time></trkpt><trkpt lat="36.93132799099885" lon="14.981700677321534"><ele>535.9999999999999</ele><time>2026-03-28T16:23:06Z</time></trkpt><trkpt lat="36.93127805368566" lon="14.98175272423507"><ele>535.0</ele><time>2026-03-28T16:23:08Z</time></trkpt><trkpt lat="36.931232345517174" lon="14.981821472283134"><ele>534.0</ele><time>2026-03-28T16:23:10Z</time></trkpt><trkpt lat="36.931172667783294" lon="14.981869096851867"><ele>533.0</ele><time>2026-03-28T16:23:13Z</time></trkpt><trkpt lat="36.931114334286505" lon="14.981941642603928"><ele>532.0</ele><time>2026-03-28T16:23:16Z</time></trkpt><trkpt lat="36.93114994411467" lon="14.982035256290992"><ele>530.9999999999999</ele><time>2026-03-28T16:23:20Z</time></trkpt><trkpt lat="36.93118610976703" lon="14.982102284192498"><ele>530.0</ele><time>2026-03-28T16:23:22Z</time></trkpt><trkpt lat="36.93114779982661" lon="14.982170168069255"><ele>530.0</ele><time>2026-03-28T16:23:25Z</time></trkpt><trkpt lat="36.93108945127289" lon="14.982222364363189"><ele>530.0</ele><time>2026-03-28T16:23:26Z</time></trkpt><trkpt lat="36.93089388391834" lon="14.982246797730511"><ele>530.0</ele><time>2026-03-28T16:23:27Z</time></trkpt><trkpt lat="36.93074190920191" lon="14.982335166061171"><ele>530.0</ele><time>2026-03-28T16:23:28Z</time></trkpt><trkpt lat="36.93064324294405" lon="14.982442473947314"><ele>529.5</ele><time>2026-03-28T16:23:29Z</time></trkpt><trkpt lat="36.93054459662478" lon="14.982457032965735"><ele>529.0</ele><time>2026-03-28T16:23:30Z</time></trkpt><trkpt lat="36.930445227268436" lon="14.98236528032109"><ele>528.5</ele><time>2026-03-28T16:23:31.999Z</time></trkpt><trkpt lat="36.93032825981979" lon="14.982312095878662"><ele>528.0</ele><time>2026-03-28T16:23:32.999Z</time></trkpt><trkpt lat="36.93021657199731" lon="14.982212503314878"><ele>527.3333333333334</ele><time>2026-03-28T16:23:33.999Z</time></trkpt><trkpt lat="36.93002929105814" lon="14.982121606763455"><ele>526.6666666666667</ele><time>2026-03-28T16:23:34.999Z</time></trkpt><trkpt lat="36.92983598196755" lon="14.98202216069716"><ele>526.0</ele><time>2026-03-28T16:23:35.999Z</time></trkpt><trkpt lat="36.92963812824412" lon="14.981898981029842"><ele>526.0</ele><time>2026-03-28T16:23:36.999Z</time></trkpt><trkpt lat="36.929478486143914" lon="14.981765032610921"><ele>526.0</ele><time>2026-03-28T16:23:37.999Z</time></trkpt><trkpt lat="36.92933289483616" lon="14.981639742747818"><ele>526.0</ele><time>2026-03-28T16:23:38.999Z</time></trkpt><trkpt lat="36.929189984334656" lon="14.981535943833025"><ele>526.3333333333334</ele><time>2026-03-28T16:23:39.999Z</time></trkpt><trkpt lat="36.92904356377666" lon="14.98143104976343"><ele>526.6666666666666</ele><time>2026-03-28T16:23:40.999Z</time></trkpt><trkpt lat="36.92891655135453" lon="14.981345757622668"><ele>527.0</ele><time>2026-03-28T16:23:41.999Z</time></trkpt><trkpt lat="36.92877674495505" lon="14.981243554227884"><ele>527.0</ele><time>2026-03-28T16:23:42.999Z</time></trkpt><trkpt lat="36.92864798208658" lon="14.98114739358072"><ele>527.0</ele><time>2026-03-28T16:23:43.999Z</time></trkpt><trkpt lat="36.9285364739204" lon="14.981053673949411"><ele>527.0</ele><time>2026-03-28T16:23:44.999Z</time></trkpt><trkpt lat="36.92843772572603" lon="14.980938463916152"><ele>527.0</ele><time>2026-03-28T16:23:45.999Z</time></trkpt><trkpt lat="36.92835722021596" lon="14.980838880717085"><ele>527.75</ele><time>2026-03-28T16:23:46.999Z</time></trkpt><trkpt lat="36.92827982098424" lon="14.980752504011981"><ele>528.5</ele><time>2026-03-28T16:23:47.999Z</time></trkpt><trkpt lat="36.92818525249865" lon="14.98072140386452"><ele>529.25</ele><time>2026-03-28T16:23:48.999Z</time></trkpt><trkpt lat="36.92806177942483" lon="14.98073338831822"><ele>530.0</ele><time>2026-03-28T16:23:49.999Z</time></trkpt><trkpt lat="36.92792085072054" lon="14.980785388314096"><ele>530.0</ele><time>2026-03-28T16:23:50.999Z</time></trkpt><trkpt lat="36.92776451602863" lon="14.980842222969732"><ele>530.0</ele><time>2026-03-28T16:23:51.999Z</time></trkpt><trkpt lat="36.92760749977937" lon="14.980889354341736"><ele>530.0</ele><time>2026-03-28T16:23:52.999Z</time></trkpt><trkpt lat="36.92744189755249" lon="14.980934241818044"><ele>529.0</ele><time>2026-03-28T16:23:53.999Z</time></trkpt><trkpt lat="36.92726853228638" lon="14.980932736887215"><ele>528.0</ele><time>2026-03-28T16:23:55Z</time></trkpt><trkpt lat="36.92707876023641" lon="14.980928978806201"><ele>527.0</ele><time>2026-03-28T16:23:56Z</time></trkpt><trkpt lat="36.92687528305941" lon="14.980923918232524"><ele>526.6666666666666</ele><time>2026-03-28T16:23:57Z</time></trkpt><trkpt lat="36.926673299155766" lon="14.980918592917464"><ele>526.3333333333334</ele><time>2026-03-28T16:23:58Z</time></trkpt><trkpt lat="36.92648758847043" lon="14.980913219266224"><ele>526.0</ele><time>2026-03-28T16:23:59Z</time></trkpt><trkpt lat="36.92630428371976" lon="14.98092637576097"><ele>526.0</ele><time>2026-03-28T16:24:00Z</time></trkpt><trkpt lat="36.92611088092208" lon="14.980916760569398"><ele>526.0</ele><time>2026-03-28T16:24:01Z</time></trkpt><trkpt lat="36.92591192937473" lon="14.980914644630543"><ele>526.0</ele><time>2026-03-28T16:24:02Z</time></trkpt><trkpt lat="36.92572121787958" lon="14.980910322570365"><ele>524.3333333333334</ele><time>2026-03-28T16:24:03Z</time></trkpt><trkpt lat="36.92553756871423" lon="14.980901792560624"><ele>522.6666666666666</ele><time>2026-03-28T16:24:04Z</time></trkpt><trkpt lat="36.925375141749406" lon="14.980899973722355"><ele>521.0</ele><time>2026-03-28T16:24:05Z</time></trkpt><trkpt lat="36.925215052766674" lon="14.980905358426579"><ele>519.3333333333333</ele><time>2026-03-28T16:24:06Z</time></trkpt><trkpt lat="36.925058569197226" lon="14.980918973293425"><ele>517.6666666666666</ele><time>2026-03-28T16:24:07Z</time></trkpt><trkpt lat="36.924902202390854" lon="14.98093394183624"><ele>516.0</ele><time>2026-03-28T16:24:08Z</time></trkpt><trkpt lat="36.9247288986626" lon="14.980967003016206"><ele>516.0</ele><time>2026-03-28T16:24:09Z</time></trkpt><trkpt lat="36.92455177469429" lon="14.981028392331112"><ele>516.0</ele><time>2026-03-28T16:24:10Z</time></trkpt><trkpt lat="36.92440518861335" lon="14.981102991085425"><ele>516.0</ele><time>2026-03-28T16:24:11Z</time></trkpt><trkpt lat="36.924260504606956" lon="14.981217133050368"><ele>515.6666666666666</ele><time>2026-03-28T16:24:12Z</time></trkpt><trkpt lat="36.92412431106016" lon="14.981360470306718"><ele>515.3333333333333</ele><time>2026-03-28T16:24:13Z</time></trkpt><trkpt lat="36.923988151451944" lon="14.981535922677786"><ele>515.0</ele><time>2026-03-28T16:24:14Z</time></trkpt><trkpt lat="36.92386418448398" lon="14.98170248993851"><ele>513.6666666666666</ele><time>2026-03-28T16:24:15Z</time></trkpt><trkpt lat="36.92374058566844" lon="14.98185166131857"><ele>512.3333333333334</ele><time>2026-03-28T16:24:16Z</time></trkpt><trkpt lat="36.923605759732666" lon="14.9819580983523"><ele>511.0</ele><time>2026-03-28T16:24:17Z</time></trkpt><trkpt lat="36.92347145875065" lon="14.982051694367717"><ele>511.5</ele><time>2026-03-28T16:24:18Z</time></trkpt><trkpt lat="36.92333678685166" lon="14.982126986141324"><ele>512.0</ele><time>2026-03-28T16:24:19Z</time></trkpt><trkpt lat="36.923194196948145" lon="14.982132825952355"><ele>512.5</ele><time>2026-03-28T16:24:20Z</time></trkpt><trkpt lat="36.92305484634321" lon="14.982141493232021"><ele>513.0</ele><time>2026-03-28T16:24:21Z</time></trkpt><trkpt lat="36.92293448758552" lon="14.982164952484846"><ele>513.0</ele><time>2026-03-28T16:24:22Z</time></trkpt><trkpt lat="36.92281757879187" lon="14.982230010940336"><ele>513.0</ele><time>2026-03-28T16:24:23Z</time></trkpt><trkpt lat="36.92272552966842" lon="14.982376524384888"><ele>513.0</ele><time>2026-03-28T16:24:24Z</time></trkpt><trkpt lat="36.92261494767766" lon="14.982527125909161"><ele>513.0</ele><time>2026-03-28T16:24:25Z</time></trkpt><trkpt lat="36.92246335206322" lon="14.982668151517627"><ele>513.0</ele><time>2026-03-28T16:24:26Z</time></trkpt><trkpt lat="36.922294824546874" lon="14.982828364914733"><ele>513.0</ele><time>2026-03-28T16:24:27Z</time></trkpt><trkpt lat="36.92211357942205" lon="14.98299006789962"><ele>513.0</ele><time>2026-03-28T16:24:28Z</time></trkpt><trkpt lat="36.92192564374153" lon="14.983144998903724"><ele>513.0</ele><time>2026-03-28T16:24:29Z</time></trkpt><trkpt lat="36.92176167631679" lon="14.983303130806537"><ele>513.0</ele><time>2026-03-28T16:24:30Z</time></trkpt><trkpt lat="36.92161108663783" lon="14.983417372023775"><ele>513.0</ele><time>2026-03-28T16:24:31Z</time></trkpt><trkpt lat="36.92147049441888" lon="14.983481893950323"><ele>511.33333333333337</ele><time>2026-03-28T16:24:32Z</time></trkpt><trkpt lat="36.9213626334782" lon="14.983602728614928"><ele>509.6666666666667</ele><time>2026-03-28T16:24:33Z</time></trkpt><trkpt lat="36.92125276257937" lon="14.983770728514989"><ele>508.0</ele><time>2026-03-28T16:24:34Z</time></trkpt><trkpt lat="36.92115005394197" lon="14.983924509640197"><ele>508.0</ele><time>2026-03-28T16:24:35Z</time></trkpt><trkpt lat="36.9210653659354" lon="14.984023308900696"><ele>508.0</ele><time>2026-03-28T16:24:36Z</time></trkpt><trkpt lat="36.92097966669989" lon="14.984089720788791"><ele>508.0</ele><time>2026-03-28T16:24:37Z</time></trkpt><trkpt lat="36.92086967559756" lon="14.98412937986424"><ele>508.0</ele><time>2026-03-28T16:24:38Z</time></trkpt><trkpt lat="36.92072727092537" lon="14.98414006968267"><ele>505.6666666666667</ele><time>2026-03-28T16:24:39Z</time></trkpt><trkpt lat="36.92056436417823" lon="14.984129714250075"><ele>503.33333333333337</ele><time>2026-03-28T16:24:40Z</time></trkpt><trkpt lat="36.92041706263096" lon="14.984070656427747"><ele>501.0</ele><time>2026-03-28T16:24:41Z</time></trkpt><trkpt lat="36.92029395021693" lon="14.983988587825863"><ele>501.0</ele><time>2026-03-28T16:24:42Z</time></trkpt><trkpt lat="36.92019162304451" lon="14.983873049495521"><ele>501.0</ele><time>2026-03-28T16:24:43Z</time></trkpt><trkpt lat="36.92010181082387" lon="14.983719294778494"><ele>501.0</ele><time>2026-03-28T16:24:44Z</time></trkpt><trkpt lat="36.92004360247081" lon="14.983562944361529"><ele>501.0</ele><time>2026-03-28T16:24:45Z</time></trkpt><trkpt lat="36.92000322277103" lon="14.983420735268652"><ele>498.5</ele><time>2026-03-28T16:24:46Z</time></trkpt><trkpt lat="36.91994152702849" lon="14.983289085202394"><ele>496.0</ele><time>2026-03-28T16:24:47Z</time></trkpt><trkpt lat="36.919838956047066" lon="14.983166644723095"><ele>493.5</ele><time>2026-03-28T16:24:48Z</time></trkpt><trkpt lat="36.91973352110205" lon="14.983067531281955"><ele>491.0</ele><time>2026-03-28T16:24:49Z</time></trkpt><trkpt lat="36.91961881588774" lon="14.982999857864128"><ele>491.0</ele><time>2026-03-28T16:24:50Z</time></trkpt><trkpt lat="36.91947303443106" lon="14.982951705501936"><ele>491.0</ele><time>2026-03-28T16:24:51Z</time></trkpt><trkpt lat="36.919293456423354" lon="14.982916799064945"><ele>491.0</ele><time>2026-03-28T16:24:52Z</time></trkpt><trkpt lat="36.919110054968606" lon="14.982882181967026"><ele>491.3333333333333</ele><time>2026-03-28T16:24:53Z</time></trkpt><trkpt lat="36.918920267479415" lon="14.982846773447898"><ele>491.66666666666663</ele><time>2026-03-28T16:24:54Z</time></trkpt><trkpt lat="36.91872583746052" lon="14.982824560860754"><ele>492.0</ele><time>2026-03-28T16:24:55Z</time></trkpt><trkpt lat="36.9185597821727" lon="14.982815915922505"><ele>492.0</ele><time>2026-03-28T16:24:56Z</time></trkpt><trkpt lat="36.918423604054134" lon="14.98281990474994"><ele>492.0</ele><time>2026-03-28T16:24:57Z</time></trkpt><trkpt lat="36.918298561811035" lon="14.982824315564244"><ele>492.0</ele><time>2026-03-28T16:24:58Z</time></trkpt><trkpt lat="36.91818642649392" lon="14.982801604242868"><ele>492.0</ele><time>2026-03-28T16:24:59Z</time></trkpt><trkpt lat="36.91808330625044" lon="14.982723963662972"><ele>490.66666666666663</ele><time>2026-03-28T16:25:00Z</time></trkpt><trkpt lat="36.91797643392896" lon="14.982582908124854"><ele>489.3333333333333</ele><time>2026-03-28T16:25:01Z</time></trkpt><trkpt lat="36.917850404035754" lon="14.982401802033948"><ele>488.0</ele><time>2026-03-28T16:25:02Z</time></trkpt><trkpt lat="36.91770707944232" lon="14.982219648136727"><ele>486.3333333333333</ele><time>2026-03-28T16:25:03Z</time></trkpt><trkpt lat="36.91758158352027" lon="14.982054769001081"><ele>484.66666666666663</ele><time>2026-03-28T16:25:04Z</time></trkpt><trkpt lat="36.9174775554017" lon="14.981900317763396"><ele>483.0</ele><time>2026-03-28T16:25:05Z</time></trkpt><trkpt lat="36.91738026495656" lon="14.981742837903893"><ele>483.0</ele><time>2026-03-28T16:25:06Z</time></trkpt><trkpt lat="36.9172807815545" lon="14.981580051350491"><ele>483.0</ele><time>2026-03-28T16:25:07Z</time></trkpt><trkpt lat="36.91719214011562" lon="14.981433511461457"><ele>483.0</ele><time>2026-03-28T16:25:08Z</time></trkpt><trkpt lat="36.91711150659109" lon="14.981303183013413"><ele>483.0</ele><time>2026-03-28T16:25:09Z</time></trkpt><trkpt lat="36.917045189741316" lon="14.981181410742446"><ele>483.0</ele><time>2026-03-28T16:25:10Z</time></trkpt><trkpt lat="36.917007227253386" lon="14.981069622321352"><ele>483.0</ele><time>2026-03-28T16:25:11Z</time></trkpt><trkpt lat="36.91700124218898" lon="14.980952025020809"><ele>483.0</ele><time>2026-03-28T16:25:12Z</time></trkpt><trkpt lat="36.917037281074634" lon="14.980797576828813"><ele>483.0</ele><time>2026-03-28T16:25:13Z</time></trkpt><trkpt lat="36.91709488874172" lon="14.980639825008343"><ele>481.59999999999997</ele><time>2026-03-28T16:25:14Z</time></trkpt><trkpt lat="36.917130808292306" lon="14.980509447355441"><ele>480.19999999999993</ele><time>2026-03-28T16:25:15Z</time></trkpt><trkpt lat="36.91713633677944" lon="14.98042178281318"><ele>478.8</ele><time>2026-03-28T16:25:16Z</time></trkpt><trkpt lat="36.917103690846474" lon="14.98034452727369"><ele>477.4</ele><time>2026-03-28T16:25:17Z</time></trkpt><trkpt lat="36.917018446209156" lon="14.980267012096155"><ele>476.0</ele><time>2026-03-28T16:25:18Z</time></trkpt><trkpt lat="36.91688926454086" lon="14.980192124802318"><ele>476.0</ele><time>2026-03-28T16:25:19Z</time></trkpt><trkpt lat="36.91673806167839" lon="14.980128743808498"><ele>476.0</ele><time>2026-03-28T16:25:20Z</time></trkpt><trkpt lat="36.91659219512361" lon="14.98007289977423"><ele>476.0</ele><time>2026-03-28T16:25:21Z</time></trkpt><trkpt lat="36.916476102274274" lon="14.980026954789626"><ele>476.0</ele><time>2026-03-28T16:25:22Z</time></trkpt><trkpt lat="36.91639738251514" lon="14.979984740620697"><ele>473.8</ele><time>2026-03-28T16:25:23Z</time></trkpt><trkpt lat="36.91636315776971" lon="14.97991117287457"><ele>471.6</ele><time>2026-03-28T16:25:25Z</time></trkpt><trkpt lat="36.91643806558118" lon="14.979730747279259"><ele>469.4</ele><time>2026-03-28T16:25:27Z</time></trkpt><trkpt lat="36.91651160817655" lon="14.979623046804685"><ele>467.2</ele><time>2026-03-28T16:25:28Z</time></trkpt><trkpt lat="36.916518873931174" lon="14.979541552936439"><ele>465.0</ele><time>2026-03-28T16:25:29Z</time></trkpt><trkpt lat="36.9164098016319" lon="14.979451292412849"><ele>465.0</ele><time>2026-03-28T16:25:30.999Z</time></trkpt><trkpt lat="36.916317422302185" lon="14.979452798293945"><ele>465.0</ele><time>2026-03-28T16:25:31.999Z</time></trkpt><trkpt lat="36.91619173534697" lon="14.979493828303319"><ele>465.0</ele><time>2026-03-28T16:25:32.999Z</time></trkpt><trkpt lat="36.91604929745168" lon="14.979536999210012"><ele>465.0</ele><time>2026-03-28T16:25:33.999Z</time></trkpt><trkpt lat="36.91590291499149" lon="14.979553582437697"><ele>464.0</ele><time>2026-03-28T16:25:34.999Z</time></trkpt><trkpt lat="36.91578715711711" lon="14.979523063093273"><ele>463.0</ele><time>2026-03-28T16:25:35.999Z</time></trkpt><trkpt lat="36.9156844629035" lon="14.979444292898078"><ele>462.0</ele><time>2026-03-28T16:25:36.999Z</time></trkpt><trkpt lat="36.915582435711045" lon="14.979364611452686"><ele>461.0</ele><time>2026-03-28T16:25:37.999Z</time></trkpt><trkpt lat="36.91550101772393" lon="14.979328820282493"><ele>460.0</ele><time>2026-03-28T16:25:38.999Z</time></trkpt><trkpt lat="36.91541560361757" lon="14.979318350814918"><ele>460.0</ele><time>2026-03-28T16:25:40.999Z</time></trkpt><trkpt lat="36.91536527744644" lon="14.979245327452126"><ele>460.0</ele><time>2026-03-28T16:25:48.999Z</time></trkpt><trkpt lat="36.91530791400959" lon="14.979059871885694"><ele>460.0</ele><time>2026-03-28T16:25:50.999Z</time></trkpt><trkpt lat="36.91525175899394" lon="14.978927680707583"><ele>460.0</ele><time>2026-03-28T16:25:51.999Z</time></trkpt><trkpt lat="36.915191364119075" lon="14.978792024918533"><ele>457.8</ele><time>2026-03-28T16:25:52.999Z</time></trkpt><trkpt lat="36.915139994128104" lon="14.97867187529312"><ele>455.6</ele><time>2026-03-28T16:25:53.999Z</time></trkpt><trkpt lat="36.915097444409575" lon="14.978573055132221"><ele>453.4</ele><time>2026-03-28T16:25:54.999Z</time></trkpt><trkpt lat="36.915066069122126" lon="14.978499659215256"><ele>451.2</ele><time>2026-03-28T16:25:55.999Z</time></trkpt><trkpt lat="36.91501008631566" lon="14.978373482333968"><ele>449.0</ele><time>2026-03-28T16:25:57.999Z</time></trkpt><trkpt lat="36.914943689492254" lon="14.97826169852014"><ele>446.6</ele><time>2026-03-28T16:25:59.999Z</time></trkpt><trkpt lat="36.91487330973021" lon="14.978174792097422"><ele>444.2</ele><time>2026-03-28T16:26:02Z</time></trkpt><trkpt lat="36.91483162838875" lon="14.97810419430623"><ele>441.80000000000007</ele><time>2026-03-28T16:26:04Z</time></trkpt><trkpt lat="36.914850498111896" lon="14.97798563694297"><ele>439.40000000000003</ele><time>2026-03-28T16:26:07Z</time></trkpt><trkpt lat="36.91477028641916" lon="14.977830944843468"><ele>437.0</ele><time>2026-03-28T16:26:09Z</time></trkpt><trkpt lat="36.91472581571832" lon="14.977725817043831"><ele>437.0</ele><time>2026-03-28T16:26:10Z</time></trkpt><trkpt lat="36.91468209834197" lon="14.977608100212244"><ele>437.00000000000006</ele><time>2026-03-28T16:26:11Z</time></trkpt><trkpt lat="36.914639841154695" lon="14.977502888190497"><ele>437.00000000000006</ele><time>2026-03-28T16:26:12Z</time></trkpt><trkpt lat="36.91459585394047" lon="14.977397473852236"><ele>437.0</ele><time>2026-03-28T16:26:13Z</time></trkpt><trkpt lat="36.91455980801068" lon="14.977302478724273"><ele>437.0</ele><time>2026-03-28T16:26:14Z</time></trkpt><trkpt lat="36.91452277843417" lon="14.977210930094117"><ele>436.66666666666663</ele><time>2026-03-28T16:26:15Z</time></trkpt><trkpt lat="36.914481560980555" lon="14.9771246885008"><ele>436.3333333333333</ele><time>2026-03-28T16:26:16Z</time></trkpt><trkpt lat="36.914449232012565" lon="14.97703343240173"><ele>436.0</ele><time>2026-03-28T16:26:17Z</time></trkpt><trkpt lat="36.91441647330247" lon="14.976952442037135"><ele>435.66666666666663</ele><time>2026-03-28T16:26:18Z</time></trkpt><trkpt lat="36.914386084642224" lon="14.976877163907242"><ele>435.3333333333333</ele><time>2026-03-28T16:26:19Z</time></trkpt><trkpt lat="36.91435764711452" lon="14.9768030510834"><ele>435.0</ele><time>2026-03-28T16:26:20Z</time></trkpt><trkpt lat="36.91431650506221" lon="14.976661934324076"><ele>435.0</ele><time>2026-03-28T16:26:22Z</time></trkpt><trkpt lat="36.914324816252396" lon="14.976523448740851"><ele>435.0</ele><time>2026-03-28T16:26:24Z</time></trkpt><trkpt lat="36.91436924104549" lon="14.976402848219294"><ele>435.0</ele><time>2026-03-28T16:26:26Z</time></trkpt><trkpt lat="36.91439661842721" lon="14.976284356152853"><ele>435.0</ele><time>2026-03-28T16:26:28Z</time></trkpt><trkpt lat="36.91442199604035" lon="14.976203871019404"><ele>435.0</ele><time>2026-03-28T16:26:30Z</time></trkpt><trkpt lat="36.9144218988669" lon="14.97611841756532"><ele>435.0</ele><time>2026-03-28T16:26:36Z</time></trkpt><trkpt lat="36.91434280793537" lon="14.976207410590511"><ele>435.0</ele><time>2026-03-28T16:26:41Z</time></trkpt><trkpt lat="36.914287244831925" lon="14.97630012062958"><ele>435.0</ele><time>2026-03-28T16:26:43Z</time></trkpt><trkpt lat="36.91422953718372" lon="14.976341391690612"><ele>435.0</ele><time>2026-03-28T16:26:46Z</time></trkpt><trkpt lat="36.91421867920132" lon="14.976241433901304"><ele>435.0</ele><time>2026-03-28T16:26:50Z</time></trkpt><trkpt lat="36.91425309224308" lon="14.976142546410989"><ele>435.0</ele><time>2026-03-28T16:26:53Z</time></trkpt><trkpt lat="36.914254111976646" lon="14.976062954393507"><ele>434.0</ele><time>2026-03-28T16:26:57Z</time></trkpt><trkpt lat="36.914191406084505" lon="14.976018147892432"><ele>433.0</ele><time>2026-03-28T16:27:00Z</time></trkpt><trkpt lat="36.91416336013474" lon="14.975930910443616"><ele>432.0</ele><time>2026-03-28T16:27:04Z</time></trkpt><trkpt lat="36.91419154302493" lon="14.975786322002708"><ele>431.0</ele><time>2026-03-28T16:27:07Z</time></trkpt><trkpt lat="36.9142251349452" lon="14.975694918603125"><ele>430.0</ele><time>2026-03-28T16:27:10Z</time></trkpt><trkpt lat="36.91427429694132" lon="14.975626137161946"><ele>429.0</ele><time>2026-03-28T16:27:12Z</time></trkpt><trkpt lat="36.91431672866919" lon="14.975557242802005"><ele>429.0</ele><time>2026-03-28T16:27:14Z</time></trkpt><trkpt lat="36.914339506746344" lon="14.975468237721149"><ele>429.0</ele><time>2026-03-28T16:27:17Z</time></trkpt><trkpt lat="36.91427702835774" lon="14.975437356239578"><ele>429.0</ele><time>2026-03-28T16:27:20Z</time></trkpt><trkpt lat="36.91421392018038" lon="14.975489764703742"><ele>429.0</ele><time>2026-03-28T16:27:23Z</time></trkpt><trkpt lat="36.914154579738565" lon="14.975525403212352"><ele>429.0</ele><time>2026-03-28T16:27:27Z</time></trkpt><trkpt lat="36.914113171763894" lon="14.97545975642702"><ele>429.0</ele><time>2026-03-28T16:27:31Z</time></trkpt><trkpt lat="36.91409028189023" lon="14.975377320126972"><ele>429.0</ele><time>2026-03-28T16:27:35Z</time></trkpt><trkpt lat="36.914131225921984" lon="14.975309369789434"><ele>428.2857142857143</ele><time>2026-03-28T16:27:39Z</time></trkpt><trkpt lat="36.91415839225675" lon="14.975216017195159"><ele>427.57142857142856</ele><time>2026-03-28T16:27:41.999Z</time></trkpt><trkpt lat="36.91421087056982" lon="14.975140588601185"><ele>426.8571428571429</ele><time>2026-03-28T16:27:44.999Z</time></trkpt><trkpt lat="36.91415192372874" lon="14.975174150455812"><ele>426.1428571428571</ele><time>2026-03-28T16:27:59.999Z</time></trkpt><trkpt lat="36.91408302177957" lon="14.975182776449357"><ele>425.4285714285714</ele><time>2026-03-28T16:28:01.999Z</time></trkpt><trkpt lat="36.91400962023296" lon="14.975215756053068"><ele>424.7142857142857</ele><time>2026-03-28T16:28:03.999Z</time></trkpt><trkpt lat="36.91395016122454" lon="14.975247814651397"><ele>424.0</ele><time>2026-03-28T16:28:05.999Z</time></trkpt><trkpt lat="36.9138735717389" lon="14.975288189239548"><ele>424.0</ele><time>2026-03-28T16:28:09Z</time></trkpt><trkpt lat="36.913803316456566" lon="14.97526485225166"><ele>424.0</ele><time>2026-03-28T16:28:13Z</time></trkpt><trkpt lat="36.913834784420715" lon="14.97517297081384"><ele>424.0</ele><time>2026-03-28T16:28:17Z</time></trkpt><trkpt lat="36.91389015579284" lon="14.975107555919246"><ele>424.0</ele><time>2026-03-28T16:28:20Z</time></trkpt><trkpt lat="36.913997559172564" lon="14.97496426115457"><ele>424.0</ele><time>2026-03-28T16:28:23Z</time></trkpt><trkpt lat="36.91405798423625" lon="14.974896955404263"><ele>423.14285714285717</ele><time>2026-03-28T16:28:25Z</time></trkpt><trkpt lat="36.914098118973186" lon="14.97482733878113"><ele>422.2857142857143</ele><time>2026-03-28T16:28:28Z</time></trkpt><trkpt lat="36.914147117740896" lon="14.97477489240538"><ele>421.42857142857144</ele><time>2026-03-28T16:28:33Z</time></trkpt><trkpt lat="36.91422102709908" lon="14.974773550642473"><ele>420.57142857142856</ele><time>2026-03-28T16:28:45Z</time></trkpt><trkpt lat="36.91429090144187" lon="14.974804942909087"><ele>419.71428571428567</ele><time>2026-03-28T16:28:49Z</time></trkpt><trkpt lat="36.914346118218205" lon="14.97486670838946"><ele>418.85714285714283</ele><time>2026-03-28T16:28:53Z</time></trkpt><trkpt lat="36.91440437560637" lon="14.974933690537659"><ele>418.0</ele><time>2026-03-28T16:28:57Z</time></trkpt><trkpt lat="36.914437695891436" lon="14.975020408262516"><ele>419.57142857142856</ele><time>2026-03-28T16:29:03Z</time></trkpt><trkpt lat="36.91447628254431" lon="14.97509056786239"><ele>421.1428571428571</ele><time>2026-03-28T16:29:07Z</time></trkpt><trkpt lat="36.91451636612855" lon="14.975156278478147"><ele>422.7142857142857</ele><time>2026-03-28T16:29:15Z</time></trkpt><trkpt lat="36.914583175507" lon="14.975192627590138"><ele>424.2857142857143</ele><time>2026-03-28T16:29:19Z</time></trkpt><trkpt lat="36.91463470149377" lon="14.975250702917606"><ele>425.8571428571429</ele><time>2026-03-28T16:29:21Z</time></trkpt><trkpt lat="36.914702217769815" lon="14.975280896019125"><ele>427.42857142857144</ele><time>2026-03-28T16:29:25Z</time></trkpt><trkpt lat="36.9147791530155" lon="14.97530488071355"><ele>429.0</ele><time>2026-03-28T16:29:59.999Z</time></trkpt><trkpt lat="36.9148624723329" lon="14.975213148848862"><ele>429.0</ele><time>2026-03-28T16:30:01.999Z</time></trkpt><trkpt lat="36.91495556468163" lon="14.975118913293954"><ele>429.0</ele><time>2026-03-28T16:30:03.999Z</time></trkpt><trkpt lat="36.91504470646576" lon="14.975089830839249"><ele>429.0</ele><time>2026-03-28T16:30:05.999Z</time></trkpt><trkpt lat="36.91512028846062" lon="14.975137794769374"><ele>429.0</ele><time>2026-03-28T16:30:07.999Z</time></trkpt><trkpt lat="36.91519089354421" lon="14.975273078814357"><ele>429.0</ele><time>2026-03-28T16:30:09.999Z</time></trkpt><trkpt lat="36.915221312577614" lon="14.975380460628665"><ele>426.1666666666667</ele><time>2026-03-28T16:30:10.999Z</time></trkpt><trkpt lat="36.91524810241744" lon="14.975495298471456"><ele>423.33333333333337</ele><time>2026-03-28T16:30:11.999Z</time></trkpt><trkpt lat="36.91527362794057" lon="14.975586727618872"><ele>420.5</ele><time>2026-03-28T16:30:13Z</time></trkpt><trkpt lat="36.91530633392106" lon="14.975667799196026"><ele>417.6666666666667</ele><time>2026-03-28T16:30:14Z</time></trkpt><trkpt lat="36.91534230875704" lon="14.975757702248336"><ele>414.83333333333337</ele><time>2026-03-28T16:30:15Z</time></trkpt><trkpt lat="36.91537803946307" lon="14.975843222006722"><ele>412.0</ele><time>2026-03-28T16:30:16Z</time></trkpt><trkpt lat="36.91541738497122" lon="14.975926776672228"><ele>412.00000000000006</ele><time>2026-03-28T16:30:17Z</time></trkpt><trkpt lat="36.91546476752247" lon="14.976022062307354"><ele>412.0</ele><time>2026-03-28T16:30:18Z</time></trkpt><trkpt lat="36.91550752448755" lon="14.976110272105107"><ele>412.0</ele><time>2026-03-28T16:30:19Z</time></trkpt><trkpt lat="36.91554603905678" lon="14.976192606239348"><ele>412.0</ele><time>2026-03-28T16:30:20Z</time></trkpt><trkpt lat="36.91558814081699" lon="14.976282134210845"><ele>412.00000000000006</ele><time>2026-03-28T16:30:21Z</time></trkpt><trkpt lat="36.915627454828" lon="14.976375933758492"><ele>412.0</ele><time>2026-03-28T16:30:22Z</time></trkpt><trkpt lat="36.915656283771696" lon="14.976469761011927"><ele>412.00000000000006</ele><time>2026-03-28T16:30:23Z</time></trkpt><trkpt lat="36.91567756144967" lon="14.976560764771104"><ele>412.0</ele><time>2026-03-28T16:30:24Z</time></trkpt><trkpt lat="36.91569293041985" lon="14.976658579559937"><ele>412.0</ele><time>2026-03-28T16:30:25Z</time></trkpt><trkpt lat="36.91570195643423" lon="14.976756358186286"><ele>412.0</ele><time>2026-03-28T16:30:26Z</time></trkpt><trkpt lat="36.9157059684417" lon="14.976849062589439"><ele>412.00000000000006</ele><time>2026-03-28T16:30:27Z</time></trkpt><trkpt lat="36.91569933425605" lon="14.976939885730358"><ele>412.0</ele><time>2026-03-28T16:30:28Z</time></trkpt><trkpt lat="36.91569278790696" lon="14.97702904885141"><ele>413.33333333333337</ele><time>2026-03-28T16:30:29Z</time></trkpt><trkpt lat="36.915682962729626" lon="14.977109855897012"><ele>414.6666666666667</ele><time>2026-03-28T16:30:30Z</time></trkpt><trkpt lat="36.915673939140135" lon="14.977252682360737"><ele>416.0</ele><time>2026-03-28T16:30:32Z</time></trkpt><trkpt lat="36.91571652812764" lon="14.97733703540371"><ele>417.33333333333337</ele><time>2026-03-28T16:30:34Z</time></trkpt><trkpt lat="36.915779598484136" lon="14.977298200595978"><ele>418.6666666666667</ele><time>2026-03-28T16:30:36Z</time></trkpt><trkpt lat="36.915766597534166" lon="14.977159265812746"><ele>420.0</ele><time>2026-03-28T16:30:38Z</time></trkpt><trkpt lat="36.915780714314955" lon="14.977033482345314"><ele>420.0</ele><time>2026-03-28T16:30:40Z</time></trkpt><trkpt lat="36.91584174957616" lon="14.976962315602822"><ele>420.0</ele><time>2026-03-28T16:30:42Z</time></trkpt><trkpt lat="36.91588699824394" lon="14.976828938498594"><ele>420.0</ele><time>2026-03-28T16:30:44Z</time></trkpt><trkpt lat="36.91588235548444" lon="14.976734875099831"><ele>420.0</ele><time>2026-03-28T16:30:45Z</time></trkpt><trkpt lat="36.915879507393434" lon="14.976644590961591"><ele>420.0</ele><time>2026-03-28T16:30:46Z</time></trkpt><trkpt lat="36.915878799789525" lon="14.976552916344698"><ele>420.0</ele><time>2026-03-28T16:30:47Z</time></trkpt><trkpt lat="36.91587651102387" lon="14.976461497900162"><ele>418.4</ele><time>2026-03-28T16:30:48Z</time></trkpt><trkpt lat="36.91587364741909" lon="14.97636822545898"><ele>416.8</ele><time>2026-03-28T16:30:49Z</time></trkpt><trkpt lat="36.91586129083295" lon="14.97625767133028"><ele>415.20000000000005</ele><time>2026-03-28T16:30:50Z</time></trkpt><trkpt lat="36.9158440085178" lon="14.97613533653469"><ele>413.6</ele><time>2026-03-28T16:30:51Z</time></trkpt><trkpt lat="36.91582390075918" lon="14.976009156627095"><ele>412.0</ele><time>2026-03-28T16:30:52Z</time></trkpt><trkpt lat="36.91580642143626" lon="14.975858891455143"><ele>409.8</ele><time>2026-03-28T16:30:53Z</time></trkpt><trkpt lat="36.91579500503183" lon="14.975697084376959"><ele>407.6</ele><time>2026-03-28T16:30:54Z</time></trkpt><trkpt lat="36.91580212569678" lon="14.97554740908573"><ele>405.40000000000003</ele><time>2026-03-28T16:30:55Z</time></trkpt><trkpt lat="36.91579704313737" lon="14.97541992308124"><ele>403.20000000000005</ele><time>2026-03-28T16:30:56Z</time></trkpt><trkpt lat="36.915783093127295" lon="14.975305783585414"><ele>401.0</ele><time>2026-03-28T16:30:57Z</time></trkpt><trkpt lat="36.91576911481538" lon="14.975215434522674"><ele>401.0</ele><time>2026-03-28T16:30:58Z</time></trkpt><trkpt lat="36.91575233698685" lon="14.975122402813424"><ele>401.0</ele><time>2026-03-28T16:30:59Z</time></trkpt><trkpt lat="36.91574135875854" lon="14.97502299742911"><ele>401.0</ele><time>2026-03-28T16:31:00Z</time></trkpt><trkpt lat="36.91574945083424" lon="14.974921785400474"><ele>401.0</ele><time>2026-03-28T16:31:01Z</time></trkpt><trkpt lat="36.915778859074024" lon="14.97480619519524"><ele>401.0</ele><time>2026-03-28T16:31:02Z</time></trkpt><trkpt lat="36.91581779004427" lon="14.974669511477751"><ele>401.6</ele><time>2026-03-28T16:31:03Z</time></trkpt><trkpt lat="36.91585402604374" lon="14.974530337248334"><ele>402.20000000000005</ele><time>2026-03-28T16:31:04Z</time></trkpt><trkpt lat="36.91588125103238" lon="14.974404725195557"><ele>402.79999999999995</ele><time>2026-03-28T16:31:05Z</time></trkpt><trkpt lat="36.91590680749778" lon="14.97428635242865"><ele>403.4</ele><time>2026-03-28T16:31:06Z</time></trkpt><trkpt lat="36.91593500406959" lon="14.974176239749143"><ele>404.0</ele><time>2026-03-28T16:31:07Z</time></trkpt><trkpt lat="36.91595741574954" lon="14.974065333763244"><ele>401.2</ele><time>2026-03-28T16:31:08Z</time></trkpt><trkpt lat="36.915973751114294" lon="14.973944731858905"><ele>398.4</ele><time>2026-03-28T16:31:09Z</time></trkpt><trkpt lat="36.91598025941968" lon="14.973831607873821"><ele>395.6</ele><time>2026-03-28T16:31:10Z</time></trkpt><trkpt lat="36.91598463088717" lon="14.973712821201598"><ele>392.8</ele><time>2026-03-28T16:31:11Z</time></trkpt><trkpt lat="36.915984029078516" lon="14.973581019067518"><ele>390.0</ele><time>2026-03-28T16:31:12Z</time></trkpt><trkpt lat="36.91598362362588" lon="14.973473651612348"><ele>390.0</ele><time>2026-03-28T16:31:13Z</time></trkpt><trkpt lat="36.91598579478655" lon="14.973371758214835"><ele>390.0</ele><time>2026-03-28T16:31:14Z</time></trkpt><trkpt lat="36.91598893370917" lon="14.97327554141185"><ele>390.0</ele><time>2026-03-28T16:31:15Z</time></trkpt><trkpt lat="36.91598797610116" lon="14.973186006064996"><ele>390.0</ele><time>2026-03-28T16:31:16Z</time></trkpt><trkpt lat="36.91598571972414" lon="14.973106505006063"><ele>390.0</ele><time>2026-03-28T16:31:17Z</time></trkpt><trkpt lat="36.915982922357536" lon="14.972977245000447"><ele>390.0</ele><time>2026-03-28T16:31:19Z</time></trkpt><trkpt lat="36.91596001566708" lon="14.972855698493758"><ele>388.3333333333333</ele><time>2026-03-28T16:31:21Z</time></trkpt><trkpt lat="36.91593254581639" lon="14.9727812569555"><ele>386.6666666666667</ele><time>2026-03-28T16:31:22Z</time></trkpt><trkpt lat="36.91589869113464" lon="14.972709684657934"><ele>385.0</ele><time>2026-03-28T16:31:23Z</time></trkpt><trkpt lat="36.91585933122382" lon="14.972642021435691"><ele>383.33333333333337</ele><time>2026-03-28T16:31:24Z</time></trkpt><trkpt lat="36.915812140559346" lon="14.972581556846393"><ele>381.6666666666667</ele><time>2026-03-28T16:31:25Z</time></trkpt><trkpt lat="36.91569168394311" lon="14.972503885204457"><ele>380.0</ele><time>2026-03-28T16:31:27Z</time></trkpt><trkpt lat="36.91559205387858" lon="14.972469576467796"><ele>377.83333333333337</ele><time>2026-03-28T16:31:28Z</time></trkpt><trkpt lat="36.915498458629514" lon="14.972458434924645"><ele>375.6666666666667</ele><time>2026-03-28T16:31:29Z</time></trkpt><trkpt lat="36.9154077633363" lon="14.972463585874964"><ele>373.5</ele><time>2026-03-28T16:31:30Z</time></trkpt><trkpt lat="36.91532278343416" lon="14.97246986849044"><ele>371.3333333333333</ele><time>2026-03-28T16:31:31Z</time></trkpt><trkpt lat="36.915240318608014" lon="14.972470100312306"><ele>369.16666666666663</ele><time>2026-03-28T16:31:32Z</time></trkpt><trkpt lat="36.915164252994174" lon="14.972472739192721"><ele>367.0</ele><time>2026-03-28T16:31:33Z</time></trkpt><trkpt lat="36.915102336193094" lon="14.972487073293431"><ele>365.66666666666663</ele><time>2026-03-28T16:31:34Z</time></trkpt><trkpt lat="36.91499019113706" lon="14.972519676878814"><ele>364.3333333333333</ele><time>2026-03-28T16:31:36Z</time></trkpt><trkpt lat="36.91493465181634" lon="14.972566399311539"><ele>363.0</ele><time>2026-03-28T16:31:37Z</time></trkpt><trkpt lat="36.91487981829586" lon="14.972626208686457"><ele>361.6666666666667</ele><time>2026-03-28T16:31:38Z</time></trkpt><trkpt lat="36.91482712959631" lon="14.97269052916552"><ele>360.33333333333337</ele><time>2026-03-28T16:31:39Z</time></trkpt><trkpt lat="36.91478947198161" lon="14.97275906682395"><ele>359.0</ele><time>2026-03-28T16:31:40Z</time></trkpt><trkpt lat="36.91473243166561" lon="14.97288475677617"><ele>359.0</ele><time>2026-03-28T16:31:42Z</time></trkpt><trkpt lat="36.91467592644911" lon="14.972947481903962"><ele>359.0</ele><time>2026-03-28T16:31:44Z</time></trkpt><trkpt lat="36.91462931216694" lon="14.97287826784314"><ele>359.0</ele><time>2026-03-28T16:31:46Z</time></trkpt><trkpt lat="36.91463894906127" lon="14.972780223162472"><ele>359.0</ele><time>2026-03-28T16:31:48Z</time></trkpt><trkpt lat="36.91466500794715" lon="14.972695466924257"><ele>359.0</ele><time>2026-03-28T16:31:50Z</time></trkpt><trkpt lat="36.914690617053466" lon="14.972619722133711"><ele>359.0</ele><time>2026-03-28T16:31:52Z</time></trkpt><trkpt lat="36.91471550364334" lon="14.97253470125259"><ele>359.0</ele><time>2026-03-28T16:31:54Z</time></trkpt><trkpt lat="36.91473981857926" lon="14.972449328594992"><ele>359.0</ele><time>2026-03-28T16:31:56Z</time></trkpt><trkpt lat="36.914686980604536" lon="14.972352861745405"><ele>359.0</ele><time>2026-03-28T16:31:59Z</time></trkpt><trkpt lat="36.91460364131746" lon="14.972368354820347"><ele>359.0</ele><time>2026-03-28T16:32:01Z</time></trkpt><trkpt lat="36.91452571678686" lon="14.972441595310167"><ele>359.0</ele><time>2026-03-28T16:32:03Z</time></trkpt><trkpt lat="36.914477508162" lon="14.972512475041633"><ele>359.0</ele><time>2026-03-28T16:32:05.999Z</time></trkpt><trkpt lat="36.914496855590755" lon="14.972605943429834"><ele>359.0</ele><time>2026-03-28T16:32:10.999Z</time></trkpt><trkpt lat="36.91456177449287" lon="14.972654078949152"><ele>359.0</ele><time>2026-03-28T16:32:12.999Z</time></trkpt><trkpt lat="36.914621196588094" lon="14.972684144549547"><ele>359.0</ele><time>2026-03-28T16:32:14.999Z</time></trkpt><trkpt lat="36.914690330291975" lon="14.972652312871556"><ele>359.0</ele><time>2026-03-28T16:32:19Z</time></trkpt><trkpt lat="36.91471293963631" lon="14.972514049498233"><ele>359.0</ele><time>2026-03-28T16:32:41Z</time></trkpt><trkpt lat="36.91472607398811" lon="14.97240094019362"><ele>359.0</ele><time>2026-03-28T16:32:43Z</time></trkpt><trkpt lat="36.91465986465674" lon="14.972348388448053"><ele>359.0</ele><time>2026-03-28T16:32:45Z</time></trkpt><trkpt lat="36.91456893398737" lon="14.972396129007562"><ele>359.0</ele><time>2026-03-28T16:32:47Z</time></trkpt><trkpt lat="36.9145046042483" lon="14.972465634848074"><ele>359.0</ele><time>2026-03-28T16:32:49Z</time></trkpt><trkpt lat="36.91446091807271" lon="14.97252991804408"><ele>359.0</ele><time>2026-03-28T16:32:52Z</time></trkpt><trkpt lat="36.914488925662" lon="14.972604737375786"><ele>359.0</ele><time>2026-03-28T16:32:56Z</time></trkpt><trkpt lat="36.91455838185769" lon="14.972638160125868"><ele>359.0</ele><time>2026-03-28T16:32:58Z</time></trkpt><trkpt lat="36.914616047095635" lon="14.972681219671088"><ele>359.0</ele><time>2026-03-28T16:33:00Z</time></trkpt><trkpt lat="36.91469831173253" lon="14.97263780077452"><ele>359.0</ele><time>2026-03-28T16:33:04Z</time></trkpt><trkpt lat="36.914701835785756" lon="14.972523573441025"><ele>359.0</ele><time>2026-03-28T16:33:06Z</time></trkpt><trkpt lat="36.914715353404205" lon="14.972446344713793"><ele>359.0</ele><time>2026-03-28T16:33:26Z</time></trkpt><trkpt lat="36.914669769585814" lon="14.972348996746907"><ele>359.0</ele><time>2026-03-28T16:33:29Z</time></trkpt><trkpt lat="36.91457358974628" lon="14.972389685786808"><ele>359.0</ele><time>2026-03-28T16:33:31Z</time></trkpt><trkpt lat="36.914507989962964" lon="14.97246530694521"><ele>359.0</ele><time>2026-03-28T16:33:33Z</time></trkpt><trkpt lat="36.91445363312078" lon="14.972538819386129"><ele>359.0</ele><time>2026-03-28T16:33:36Z</time></trkpt><trkpt lat="36.91449990855588" lon="14.972612281029946"><ele>359.0</ele><time>2026-03-28T16:33:40Z</time></trkpt><trkpt lat="36.9145823593375" lon="14.97266339185572"><ele>359.0</ele><time>2026-03-28T16:33:43Z</time></trkpt><trkpt lat="36.914647324808435" lon="14.9726856268688"><ele>359.0</ele><time>2026-03-28T16:33:46Z</time></trkpt><trkpt lat="36.91468342925205" lon="14.97260847745363"><ele>359.0</ele><time>2026-03-28T16:33:49Z</time></trkpt><trkpt lat="36.91471287906087" lon="14.972510923234282"><ele>359.0</ele><time>2026-03-28T16:34:05.999Z</time></trkpt><trkpt lat="36.91472940231214" lon="14.972405259944525"><ele>359.0</ele><time>2026-03-28T16:34:07.999Z</time></trkpt><trkpt lat="36.91467461017745" lon="14.972354655336126"><ele>359.0</ele><time>2026-03-28T16:34:09.999Z</time></trkpt><trkpt lat="36.91458507000589" lon="14.972383000862607"><ele>359.0</ele><time>2026-03-28T16:34:11.999Z</time></trkpt><trkpt lat="36.91451538442007" lon="14.972456457991148"><ele>359.0</ele><time>2026-03-28T16:34:13.999Z</time></trkpt><trkpt lat="36.91447267219307" lon="14.97251795471516"><ele>359.0</ele><time>2026-03-28T16:34:15.999Z</time></trkpt><trkpt lat="36.914517792442375" lon="14.972620604257962"><ele>359.0</ele><time>2026-03-28T16:34:35Z</time></trkpt><trkpt lat="36.91458948922364" lon="14.972672247045784"><ele>359.0</ele><time>2026-03-28T16:34:37Z</time></trkpt><trkpt lat="36.91466443248662" lon="14.972688590646516"><ele>359.0</ele><time>2026-03-28T16:34:40Z</time></trkpt><trkpt lat="36.9146928586588" lon="14.97261351184165"><ele>359.0</ele><time>2026-03-28T16:34:42Z</time></trkpt><trkpt lat="36.91472142994049" lon="14.972497100871907"><ele>359.0</ele><time>2026-03-28T16:34:44Z</time></trkpt><trkpt lat="36.914733052952805" lon="14.97240737343426"><ele>359.0</ele><time>2026-03-28T16:34:46Z</time></trkpt><trkpt lat="36.91466999533557" lon="14.972340130222106"><ele>359.0</ele><time>2026-03-28T16:34:49Z</time></trkpt><trkpt lat="36.91457949640024" lon="14.97237722635503"><ele>359.0</ele><time>2026-03-28T16:34:51Z</time></trkpt><trkpt lat="36.91449167508737" lon="14.972486023726473"><ele>359.1666666666667</ele><time>2026-03-28T16:34:53Z</time></trkpt><trkpt lat="36.9144367328186" lon="14.972597899008598"><ele>359.33333333333337</ele><time>2026-03-28T16:34:55Z</time></trkpt><trkpt lat="36.9143668155457" lon="14.972646642484472"><ele>359.5</ele><time>2026-03-28T16:34:57Z</time></trkpt><trkpt lat="36.914304230645" lon="14.97261396016674"><ele>359.6666666666667</ele><time>2026-03-28T16:35:15Z</time></trkpt><trkpt lat="36.91424458805648" lon="14.972580483704805"><ele>359.8333333333333</ele><time>2026-03-28T16:37:34Z</time></trkpt><trkpt lat="36.91415390180236" lon="14.972540830485707"><ele>360.0</ele><time>2026-03-28T16:37:36Z</time></trkpt><trkpt lat="36.91407250622429" lon="14.972450058146986"><ele>357.0</ele><time>2026-03-28T16:37:38Z</time></trkpt><trkpt lat="36.91399419188906" lon="14.972342839433272"><ele>354.0</ele><time>2026-03-28T16:37:40Z</time></trkpt><trkpt lat="36.91392512352935" lon="14.972259085460829"><ele>351.0</ele><time>2026-03-28T16:37:42Z</time></trkpt><trkpt lat="36.91385060158844" lon="14.972192430033122"><ele>348.0</ele><time>2026-03-28T16:37:44Z</time></trkpt><trkpt lat="36.91374363743554" lon="14.972146836381505"><ele>345.0</ele><time>2026-03-28T16:37:47Z</time></trkpt><trkpt lat="36.91364694655912" lon="14.972061442975104"><ele>345.0</ele><time>2026-03-28T16:37:49Z</time></trkpt><trkpt lat="36.913589247191986" lon="14.971989024834166"><ele>345.0</ele><time>2026-03-28T16:37:50Z</time></trkpt><trkpt lat="36.91351618671332" lon="14.971886735216072"><ele>345.0</ele><time>2026-03-28T16:37:51Z</time></trkpt><trkpt lat="36.91345029326174" lon="14.971786376192513"><ele>345.0</ele><time>2026-03-28T16:37:52Z</time></trkpt><trkpt lat="36.913397828086126" lon="14.971712087959329"><ele>345.0</ele><time>2026-03-28T16:37:53Z</time></trkpt><trkpt lat="36.91334790404424" lon="14.971566424503552"><ele>345.6666666666667</ele><time>2026-03-28T16:37:55Z</time></trkpt><trkpt lat="36.91332665689785" lon="14.97147416846168"><ele>346.3333333333333</ele><time>2026-03-28T16:37:56Z</time></trkpt><trkpt lat="36.91330688167544" lon="14.971374955802588"><ele>347.0</ele><time>2026-03-28T16:37:57Z</time></trkpt><trkpt lat="36.91327650710304" lon="14.971280219981747"><ele>347.66666666666663</ele><time>2026-03-28T16:37:58Z</time></trkpt><trkpt lat="36.913239269049235" lon="14.971200900775486"><ele>348.3333333333333</ele><time>2026-03-28T16:37:59Z</time></trkpt><trkpt lat="36.91319357832538" lon="14.971142713168692"><ele>349.0</ele><time>2026-03-28T16:38:00Z</time></trkpt><trkpt lat="36.91313404420507" lon="14.971089039730401"><ele>349.0</ele><time>2026-03-28T16:38:01Z</time></trkpt><trkpt lat="36.913063039385214" lon="14.971032149747112"><ele>349.0</ele><time>2026-03-28T16:38:02Z</time></trkpt><trkpt lat="36.912974721923526" lon="14.970966160506087"><ele>349.0</ele><time>2026-03-28T16:38:04Z</time></trkpt><trkpt lat="36.91299824865138" lon="14.970798331762909"><ele>349.0</ele><time>2026-03-28T16:38:05Z</time></trkpt><trkpt lat="36.91289844497507" lon="14.97073654086618"><ele>349.0</ele><time>2026-03-28T16:38:10Z</time></trkpt><trkpt lat="36.91283230639701" lon="14.970712737113528"><ele>348.0</ele><time>2026-03-28T16:38:11Z</time></trkpt><trkpt lat="36.91272559270013" lon="14.970637561498041"><ele>347.0</ele><time>2026-03-28T16:38:13Z</time></trkpt><trkpt lat="36.91267135456403" lon="14.970593279503174"><ele>346.0</ele><time>2026-03-28T16:38:14Z</time></trkpt><trkpt lat="36.912576405332196" lon="14.970534367670671"><ele>345.0</ele><time>2026-03-28T16:38:16Z</time></trkpt><trkpt lat="36.91250693879181" lon="14.97048935645871"><ele>344.0</ele><time>2026-03-28T16:38:17.999Z</time></trkpt><trkpt lat="36.912466360441925" lon="14.970297340024565"><ele>344.0</ele><time>2026-03-28T16:38:21.999Z</time></trkpt><trkpt lat="36.91246038304067" lon="14.970208779520226"><ele>344.0</ele><time>2026-03-28T16:38:22.999Z</time></trkpt><trkpt lat="36.91243782428263" lon="14.970082251670814"><ele>344.0</ele><time>2026-03-28T16:38:24.999Z</time></trkpt><trkpt lat="36.91237707053126" lon="14.969956423171428"><ele>344.0</ele><time>2026-03-28T16:38:26.999Z</time></trkpt><trkpt lat="36.91231369439118" lon="14.969882724290386"><ele>344.0</ele><time>2026-03-28T16:38:27.999Z</time></trkpt><trkpt lat="36.91224791066344" lon="14.969776272825206"><ele>344.6</ele><time>2026-03-28T16:38:28.999Z</time></trkpt><trkpt lat="36.91221566469863" lon="14.96969627732448"><ele>345.2</ele><time>2026-03-28T16:38:29.999Z</time></trkpt><trkpt lat="36.91217991267113" lon="14.969618238341459"><ele>345.8</ele><time>2026-03-28T16:38:30.999Z</time></trkpt><trkpt lat="36.91216144390336" lon="14.969522805527802"><ele>346.40000000000003</ele><time>2026-03-28T16:38:31.999Z</time></trkpt><trkpt lat="36.91213021861256" lon="14.969399158908296"><ele>347.0</ele><time>2026-03-28T16:38:32.999Z</time></trkpt><trkpt lat="36.912083401176865" lon="14.969213290947714"><ele>347.25</ele><time>2026-03-28T16:38:33.999Z</time></trkpt><trkpt lat="36.91202996217331" lon="14.969028410453367"><ele>347.5</ele><time>2026-03-28T16:38:34.999Z</time></trkpt><trkpt lat="36.91198486834398" lon="14.968893428408492"><ele>347.75</ele><time>2026-03-28T16:38:35.999Z</time></trkpt><trkpt lat="36.91193438344542" lon="14.96876766807907"><ele>348.0</ele><time>2026-03-28T16:38:37Z</time></trkpt><trkpt lat="36.91187111854561" lon="14.968663899835743"><ele>348.0</ele><time>2026-03-28T16:38:38Z</time></trkpt><trkpt lat="36.91183328462363" lon="14.968571010562771"><ele>348.0</ele><time>2026-03-28T16:38:39Z</time></trkpt><trkpt lat="36.911756376740456" lon="14.968390269078453"><ele>348.0</ele><time>2026-03-28T16:38:40Z</time></trkpt><trkpt lat="36.91171945975805" lon="14.96828863172019"><ele>348.0</ele><time>2026-03-28T16:38:41Z</time></trkpt><trkpt lat="36.911647350984296" lon="14.968173347695837"><ele>347.4</ele><time>2026-03-28T16:38:42Z</time></trkpt><trkpt lat="36.911582649047276" lon="14.968071607642164"><ele>346.79999999999995</ele><time>2026-03-28T16:38:43Z</time></trkpt><trkpt lat="36.91151395248516" lon="14.967966194001354"><ele>346.2</ele><time>2026-03-28T16:38:44Z</time></trkpt><trkpt lat="36.91145174188063" lon="14.967905837812662"><ele>345.6</ele><time>2026-03-28T16:38:45Z</time></trkpt><trkpt lat="36.91137445896821" lon="14.967832260138325"><ele>345.0</ele><time>2026-03-28T16:38:47Z</time></trkpt><trkpt lat="36.91135481980518" lon="14.967725899392208"><ele>345.0</ele><time>2026-03-28T16:38:49Z</time></trkpt><trkpt lat="36.91137231886647" lon="14.967560255891101"><ele>345.0</ele><time>2026-03-28T16:38:51Z</time></trkpt><trkpt lat="36.91137487457442" lon="14.967447667038806"><ele>345.0</ele><time>2026-03-28T16:38:52Z</time></trkpt><trkpt lat="36.911381477983355" lon="14.967280158079209"><ele>345.0</ele><time>2026-03-28T16:38:53Z</time></trkpt><trkpt lat="36.911390360386555" lon="14.967124735874373"><ele>346.8333333333333</ele><time>2026-03-28T16:38:54Z</time></trkpt><trkpt lat="36.91140356595608" lon="14.966999901599467"><ele>348.6666666666667</ele><time>2026-03-28T16:38:55Z</time></trkpt><trkpt lat="36.91142746488814" lon="14.96691649619215"><ele>350.5</ele><time>2026-03-28T16:38:56Z</time></trkpt><trkpt lat="36.911466419874806" lon="14.966844317795884"><ele>352.33333333333337</ele><time>2026-03-28T16:38:57Z</time></trkpt><trkpt lat="36.91149550899526" lon="14.966738645549219"><ele>354.1666666666667</ele><time>2026-03-28T16:38:59Z</time></trkpt><trkpt lat="36.911446365015266" lon="14.96664139929726"><ele>356.0</ele><time>2026-03-28T16:39:01Z</time></trkpt><trkpt lat="36.91140243113172" lon="14.96658452801952"><ele>357.4</ele><time>2026-03-28T16:39:02Z</time></trkpt><trkpt lat="36.911344344091106" lon="14.966516300854297"><ele>358.8</ele><time>2026-03-28T16:39:03Z</time></trkpt><trkpt lat="36.91128095950225" lon="14.966431003320652"><ele>360.2</ele><time>2026-03-28T16:39:04Z</time></trkpt><trkpt lat="36.91121067699377" lon="14.96633046335955"><ele>361.59999999999997</ele><time>2026-03-28T16:39:05Z</time></trkpt><trkpt lat="36.91114047945148" lon="14.966233052228926"><ele>363.0</ele><time>2026-03-28T16:39:06Z</time></trkpt><trkpt lat="36.91107516333706" lon="14.966134294866105"><ele>363.0</ele><time>2026-03-28T16:39:07Z</time></trkpt><trkpt lat="36.911003654139094" lon="14.966032245453034"><ele>363.0</ele><time>2026-03-28T16:39:08Z</time></trkpt><trkpt lat="36.91093438672845" lon="14.965938016060537"><ele>363.0</ele><time>2026-03-28T16:39:09Z</time></trkpt><trkpt lat="36.91086940516878" lon="14.965840821299047"><ele>363.0</ele><time>2026-03-28T16:39:10Z</time></trkpt><trkpt lat="36.9107950486893" lon="14.965727846543405"><ele>363.0</ele><time>2026-03-28T16:39:11Z</time></trkpt><trkpt lat="36.91071599566228" lon="14.96560756979921"><ele>366.0</ele><time>2026-03-28T16:39:12Z</time></trkpt><trkpt lat="36.91065562625226" lon="14.965516968311618"><ele>369.0</ele><time>2026-03-28T16:39:13Z</time></trkpt><trkpt lat="36.91059013468175" lon="14.965422412770067"><ele>372.0</ele><time>2026-03-28T16:39:14Z</time></trkpt><trkpt lat="36.910528142203056" lon="14.965341432704399"><ele>375.0</ele><time>2026-03-28T16:39:15Z</time></trkpt><trkpt lat="36.91045753070205" lon="14.965261294132665"><ele>378.0</ele><time>2026-03-28T16:39:16Z</time></trkpt><trkpt lat="36.91036665308533" lon="14.965171132458785"><ele>378.0</ele><time>2026-03-28T16:39:17Z</time></trkpt><trkpt lat="36.910271757754195" lon="14.9650925880055"><ele>378.0</ele><time>2026-03-28T16:39:18Z</time></trkpt><trkpt lat="36.910196713014265" lon="14.965016640403213"><ele>378.0</ele><time>2026-03-28T16:39:19Z</time></trkpt><trkpt lat="36.910119437991796" lon="14.964929163992908"><ele>378.0</ele><time>2026-03-28T16:39:20Z</time></trkpt><trkpt lat="36.91001361118434" lon="14.964816256901097"><ele>379.79999999999995</ele><time>2026-03-28T16:39:21Z</time></trkpt><trkpt lat="36.90991011321085" lon="14.96470487771892"><ele>381.6</ele><time>2026-03-28T16:39:22Z</time></trkpt><trkpt lat="36.909829031539985" lon="14.964627175399208"><ele>383.4</ele><time>2026-03-28T16:39:23Z</time></trkpt><trkpt lat="36.909771140808914" lon="14.964571547361626"><ele>385.20000000000005</ele><time>2026-03-28T16:39:24Z</time></trkpt><trkpt lat="36.909716290304026" lon="14.964523306767292"><ele>387.0</ele><time>2026-03-28T16:39:25Z</time></trkpt><trkpt lat="36.909633204806894" lon="14.964506707246663"><ele>387.0</ele><time>2026-03-28T16:39:27Z</time></trkpt><trkpt lat="36.90952278689115" lon="14.964545647432898"><ele>387.0</ele><time>2026-03-28T16:39:29Z</time></trkpt><trkpt lat="36.90946692092002" lon="14.964622550413957"><ele>387.0</ele><time>2026-03-28T16:39:30Z</time></trkpt><trkpt lat="36.90941261345836" lon="14.964699344169077"><ele>387.0</ele><time>2026-03-28T16:39:31Z</time></trkpt><trkpt lat="36.90933365173863" lon="14.964815237781387"><ele>387.0</ele><time>2026-03-28T16:39:32Z</time></trkpt><trkpt lat="36.909270994158035" lon="14.964927492872324"><ele>386.1666666666667</ele><time>2026-03-28T16:39:33Z</time></trkpt><trkpt lat="36.909248075005166" lon="14.965052389860958"><ele>385.3333333333333</ele><time>2026-03-28T16:39:34Z</time></trkpt><trkpt lat="36.90922860297035" lon="14.96515824932388"><ele>384.5</ele><time>2026-03-28T16:39:35Z</time></trkpt><trkpt lat="36.90922177862277" lon="14.965250109959717"><ele>383.66666666666663</ele><time>2026-03-28T16:39:36Z</time></trkpt><trkpt lat="36.90921508653543" lon="14.965336480557214"><ele>382.8333333333333</ele><time>2026-03-28T16:39:38Z</time></trkpt><trkpt lat="36.909115487398786" lon="14.965295575134462"><ele>382.0</ele><time>2026-03-28T16:39:42Z</time></trkpt><trkpt lat="36.90902970343068" lon="14.965231764007884"><ele>383.25</ele><time>2026-03-28T16:39:43Z</time></trkpt><trkpt lat="36.908929062792105" lon="14.965171498116998"><ele>384.5</ele><time>2026-03-28T16:39:44Z</time></trkpt><trkpt lat="36.90880822330906" lon="14.965124634704102"><ele>385.75</ele><time>2026-03-28T16:39:45Z</time></trkpt><trkpt lat="36.908704632340125" lon="14.965072717680776"><ele>387.0</ele><time>2026-03-28T16:39:46Z</time></trkpt><trkpt lat="36.90861892946075" lon="14.965008706157441"><ele>387.0</ele><time>2026-03-28T16:39:47Z</time></trkpt><trkpt lat="36.9085352707943" lon="14.964945840149133"><ele>387.0</ele><time>2026-03-28T16:39:48Z</time></trkpt><trkpt lat="36.90845865571791" lon="14.964908117994275"><ele>387.0</ele><time>2026-03-28T16:39:49Z</time></trkpt><trkpt lat="36.90838313591694" lon="14.964902252119032"><ele>387.0</ele><time>2026-03-28T16:39:50Z</time></trkpt><trkpt lat="36.90830846261321" lon="14.964916586948831"><ele>387.0</ele><time>2026-03-28T16:39:51Z</time></trkpt><trkpt lat="36.90824084337201" lon="14.964954231915211"><ele>387.0</ele><time>2026-03-28T16:39:52Z</time></trkpt><trkpt lat="36.908180521725974" lon="14.9650056618407"><ele>383.0</ele><time>2026-03-28T16:39:53Z</time></trkpt><trkpt lat="36.90812835972175" lon="14.965070790063674"><ele>379.0</ele><time>2026-03-28T16:39:54Z</time></trkpt><trkpt lat="36.90805100290245" lon="14.965158930783932"><ele>375.0</ele><time>2026-03-28T16:39:55Z</time></trkpt><trkpt lat="36.907941014441896" lon="14.965249979783069"><ele>371.0</ele><time>2026-03-28T16:39:56Z</time></trkpt><trkpt lat="36.907843672158414" lon="14.965324704969099"><ele>367.0</ele><time>2026-03-28T16:39:57Z</time></trkpt><trkpt lat="36.90775514717469" lon="14.965392228795105"><ele>367.0</ele><time>2026-03-28T16:39:58Z</time></trkpt><trkpt lat="36.90767389648194" lon="14.965451222029609"><ele>367.0</ele><time>2026-03-28T16:39:59Z</time></trkpt><trkpt lat="36.90759523001825" lon="14.96550113788085"><ele>367.0</ele><time>2026-03-28T16:40:00Z</time></trkpt><trkpt lat="36.90751876093636" lon="14.965550240384287"><ele>367.0</ele><time>2026-03-28T16:40:01Z</time></trkpt><trkpt lat="36.907450615632605" lon="14.965597838867302"><ele>367.0</ele><time>2026-03-28T16:40:02Z</time></trkpt><trkpt lat="36.90734525098147" lon="14.965634256894809"><ele>366.8</ele><time>2026-03-28T16:40:04Z</time></trkpt><trkpt lat="36.9072834466169" lon="14.965615305517797"><ele>366.6</ele><time>2026-03-28T16:40:05Z</time></trkpt><trkpt lat="36.90717457900287" lon="14.965589244777961"><ele>366.40000000000003</ele><time>2026-03-28T16:40:07Z</time></trkpt><trkpt lat="36.90702126131366" lon="14.9656125446022"><ele>366.20000000000005</ele><time>2026-03-28T16:40:09Z</time></trkpt><trkpt lat="36.90690729516634" lon="14.965636281474831"><ele>366.0</ele><time>2026-03-28T16:40:10Z</time></trkpt><trkpt lat="36.90682580094122" lon="14.965664524358044"><ele>366.0</ele><time>2026-03-28T16:40:11Z</time></trkpt><trkpt lat="36.90676388608828" lon="14.965691549653764"><ele>366.0</ele><time>2026-03-28T16:40:12Z</time></trkpt><trkpt lat="36.906708454015224" lon="14.965730666128872"><ele>366.0</ele><time>2026-03-28T16:40:13Z</time></trkpt><trkpt lat="36.90666694127286" lon="14.96579027843767"><ele>366.0</ele><time>2026-03-28T16:40:14Z</time></trkpt><trkpt lat="36.90662013301785" lon="14.965892377879587"><ele>366.0</ele><time>2026-03-28T16:40:15Z</time></trkpt><trkpt lat="36.90655687960005" lon="14.966032292013988"><ele>366.0</ele><time>2026-03-28T16:40:16Z</time></trkpt><trkpt lat="36.90647282492231" lon="14.966208700141056"><ele>367.0</ele><time>2026-03-28T16:40:17Z</time></trkpt><trkpt lat="36.90639000355138" lon="14.966383793836483"><ele>368.0</ele><time>2026-03-28T16:40:18Z</time></trkpt><trkpt lat="36.906322073551166" lon="14.96653868358912"><ele>369.0</ele><time>2026-03-28T16:40:19Z</time></trkpt><trkpt lat="36.90625534427959" lon="14.966693116571088"><ele>370.0</ele><time>2026-03-28T16:40:20Z</time></trkpt><trkpt lat="36.90619530812113" lon="14.966838004684465"><ele>370.5</ele><time>2026-03-28T16:40:21Z</time></trkpt><trkpt lat="36.9061334816397" lon="14.966992328572694"><ele>371.0</ele><time>2026-03-28T16:40:22Z</time></trkpt><trkpt lat="36.906077266861224" lon="14.96714801683818"><ele>371.5</ele><time>2026-03-28T16:40:22.999Z</time></trkpt><trkpt lat="36.90603577764511" lon="14.967286393624097"><ele>372.0</ele><time>2026-03-28T16:40:23.999Z</time></trkpt><trkpt lat="36.906008448454074" lon="14.967407746756495"><ele>372.0</ele><time>2026-03-28T16:40:24.999Z</time></trkpt><trkpt lat="36.90599836722577" lon="14.967519907014003"><ele>372.0</ele><time>2026-03-28T16:40:25.999Z</time></trkpt><trkpt lat="36.90599598569136" lon="14.96762654496347"><ele>372.0</ele><time>2026-03-28T16:40:26.999Z</time></trkpt><trkpt lat="36.905997301216686" lon="14.96772398631489"><ele>372.0</ele><time>2026-03-28T16:40:27.999Z</time></trkpt><trkpt lat="36.905993349072446" lon="14.967805149486901"><ele>372.0</ele><time>2026-03-28T16:40:28.999Z</time></trkpt><trkpt lat="36.905917695470556" lon="14.967843517302152"><ele>372.0</ele><time>2026-03-28T16:40:31.999Z</time></trkpt><trkpt lat="36.905850281380104" lon="14.967736183644227"><ele>372.6666666666667</ele><time>2026-03-28T16:40:33.999Z</time></trkpt><trkpt lat="36.90577376254426" lon="14.96763691148323"><ele>373.3333333333333</ele><time>2026-03-28T16:40:35.999Z</time></trkpt><trkpt lat="36.90571021584942" lon="14.967589685539107"><ele>374.0</ele><time>2026-03-28T16:40:36.999Z</time></trkpt><trkpt lat="36.905640704716845" lon="14.967531215726734"><ele>374.66666666666663</ele><time>2026-03-28T16:40:37.999Z</time></trkpt><trkpt lat="36.90557786995647" lon="14.967476048731465"><ele>375.3333333333333</ele><time>2026-03-28T16:40:38.999Z</time></trkpt><trkpt lat="36.90552434350011" lon="14.967428793838474"><ele>376.0</ele><time>2026-03-28T16:40:39.999Z</time></trkpt><trkpt lat="36.90547229145984" lon="14.967371014235422"><ele>376.0</ele><time>2026-03-28T16:40:40.999Z</time></trkpt><trkpt lat="36.9054217030742" lon="14.967303493638445"><ele>376.0</ele><time>2026-03-28T16:40:41.999Z</time></trkpt><trkpt lat="36.90536477839624" lon="14.967248766311103"><ele>376.0</ele><time>2026-03-28T16:40:43Z</time></trkpt><trkpt lat="36.9052951013759" lon="14.967203800058"><ele>376.0</ele><time>2026-03-28T16:40:44Z</time></trkpt><trkpt lat="36.90523714181317" lon="14.967153274823712"><ele>376.0</ele><time>2026-03-28T16:40:45Z</time></trkpt><trkpt lat="36.90514637987445" lon="14.967067907464466"><ele>376.0</ele><time>2026-03-28T16:40:47Z</time></trkpt><trkpt lat="36.90508504904953" lon="14.96699959422175"><ele>373.66666666666663</ele><time>2026-03-28T16:40:49Z</time></trkpt><trkpt lat="36.905069284234884" lon="14.966912655549782"><ele>371.3333333333333</ele><time>2026-03-28T16:41:43Z</time></trkpt><trkpt lat="36.905052245319666" lon="14.966819087303493"><ele>369.0</ele><time>2026-03-28T16:51:47Z</time></trkpt><trkpt lat="36.90502661460585" lon="14.966733985084572"><ele>366.6666666666667</ele><time>2026-03-28T16:51:49Z</time></trkpt><trkpt lat="36.904985468101586" lon="14.966628115702457"><ele>364.33333333333337</ele><time>2026-03-28T16:51:51Z</time></trkpt><trkpt lat="36.904953215073036" lon="14.966514477329607"><ele>362.0</ele><time>2026-03-28T16:51:53Z</time></trkpt><trkpt lat="36.90493644522307" lon="14.966397992116592"><ele>362.0</ele><time>2026-03-28T16:51:55Z</time></trkpt><trkpt lat="36.904938603678126" lon="14.966277479729815"><ele>362.0</ele><time>2026-03-28T16:51:57Z</time></trkpt><trkpt lat="36.9049343731643" lon="14.96616254554945"><ele>362.0</ele><time>2026-03-28T16:51:59Z</time></trkpt><trkpt lat="36.90491134158178" lon="14.96606688208087"><ele>362.0</ele><time>2026-03-28T16:52:01Z</time></trkpt><trkpt lat="36.90487882354604" lon="14.965985769584016"><ele>362.0</ele><time>2026-03-28T16:52:03Z</time></trkpt><trkpt lat="36.904856034185244" lon="14.965890709222267"><ele>362.0</ele><time>2026-03-28T16:52:06Z</time></trkpt><trkpt lat="36.90485877666108" lon="14.965792334729185"><ele>360.1666666666667</ele><time>2026-03-28T16:52:08Z</time></trkpt><trkpt lat="36.90482642337128" lon="14.965689641747133"><ele>358.33333333333337</ele><time>2026-03-28T16:52:10Z</time></trkpt><trkpt lat="36.90478356671845" lon="14.965614278735506"><ele>356.5</ele><time>2026-03-28T16:52:13Z</time></trkpt><trkpt lat="36.904713937744646" lon="14.965606995811989"><ele>354.6666666666667</ele><time>2026-03-28T16:52:17Z</time></trkpt><trkpt lat="36.904633489335914" lon="14.96560948111906"><ele>352.8333333333333</ele><time>2026-03-28T16:52:21Z</time></trkpt><trkpt lat="36.90457208872399" lon="14.965548066184143"><ele>351.0</ele><time>2026-03-28T16:52:24Z</time></trkpt><trkpt lat="36.904508235057044" lon="14.965511616291025"><ele>351.00000000000006</ele><time>2026-03-28T16:52:27Z</time></trkpt><trkpt lat="36.904437173702824" lon="14.965524755431668"><ele>351.0</ele><time>2026-03-28T16:52:30Z</time></trkpt><trkpt lat="36.90436581981258" lon="14.965565583503212"><ele>351.0</ele><time>2026-03-28T16:52:33Z</time></trkpt><trkpt lat="36.90430218953306" lon="14.965576972791649"><ele>351.0</ele><time>2026-03-28T16:52:36Z</time></trkpt><trkpt lat="36.904253303732965" lon="14.965502357610402"><ele>351.0</ele><time>2026-03-28T16:52:40Z</time></trkpt><trkpt lat="36.90420980446737" lon="14.965441686233827"><ele>351.00000000000006</ele><time>2026-03-28T16:52:43Z</time></trkpt><trkpt lat="36.90417982551516" lon="14.965349421338464"><ele>351.0</ele><time>2026-03-28T16:52:47Z</time></trkpt><trkpt lat="36.90414152283807" lon="14.965185016274667"><ele>348.3333333333333</ele><time>2026-03-28T16:52:50Z</time></trkpt><trkpt lat="36.90414006357095" lon="14.965105395361059"><ele>345.6666666666667</ele><time>2026-03-28T16:52:52Z</time></trkpt><trkpt lat="36.90415607981941" lon="14.965005149822641"><ele>343.0</ele><time>2026-03-28T16:52:54.999Z</time></trkpt><trkpt lat="36.90420848299179" lon="14.96492166723439"><ele>340.33333333333337</ele><time>2026-03-28T16:52:56.999Z</time></trkpt><trkpt lat="36.90428140222239" lon="14.964819076166233"><ele>337.6666666666667</ele><time>2026-03-28T16:52:58.999Z</time></trkpt><trkpt lat="36.904357746982114" lon="14.964724575924143"><ele>335.0</ele><time>2026-03-28T16:53:00.999Z</time></trkpt><trkpt lat="36.90442023627983" lon="14.964656326909346"><ele>335.0</ele><time>2026-03-28T16:53:02.999Z</time></trkpt><trkpt lat="36.90447767370563" lon="14.96459772000412"><ele>335.0</ele><time>2026-03-28T16:53:04.999Z</time></trkpt><trkpt lat="36.904424543028334" lon="14.96455185043792"><ele>335.0</ele><time>2026-03-28T16:53:10.999Z</time></trkpt><trkpt lat="36.904314119854014" lon="14.964546165408121"><ele>335.0</ele><time>2026-03-28T16:53:13.999Z</time></trkpt><trkpt lat="36.904217740024954" lon="14.964525256445127"><ele>335.0</ele><time>2026-03-28T16:53:15.999Z</time></trkpt><trkpt lat="36.90415612331695" lon="14.964503297705482"><ele>335.0</ele><time>2026-03-28T16:53:17.999Z</time></trkpt><trkpt lat="36.90406912242224" lon="14.964501572971283"><ele>331.0</ele><time>2026-03-28T16:53:20Z</time></trkpt><trkpt lat="36.90397160513242" lon="14.96450580647722"><ele>327.0</ele><time>2026-03-28T16:53:22Z</time></trkpt><trkpt lat="36.90388988533773" lon="14.96443013231628"><ele>323.0</ele><time>2026-03-28T16:53:24Z</time></trkpt><trkpt lat="36.903810354545215" lon="14.964332197238809"><ele>319.0</ele><time>2026-03-28T16:53:26Z</time></trkpt><trkpt lat="36.90368673416259" lon="14.964289998154825"><ele>315.0</ele><time>2026-03-28T16:53:28Z</time></trkpt><trkpt lat="36.903600370418125" lon="14.96427233937988"><ele>315.0</ele><time>2026-03-28T16:53:29Z</time></trkpt><trkpt lat="36.903506265243244" lon="14.964240016959966"><ele>315.0</ele><time>2026-03-28T16:53:30Z</time></trkpt><trkpt lat="36.903410422579924" lon="14.96419652339703"><ele>315.0</ele><time>2026-03-28T16:53:31Z</time></trkpt><trkpt lat="36.903332581032224" lon="14.96415541616667"><ele>315.0</ele><time>2026-03-28T16:53:32Z</time></trkpt><trkpt lat="36.90326939865046" lon="14.964115675259157"><ele>315.0</ele><time>2026-03-28T16:53:33Z</time></trkpt><trkpt lat="36.903210528314744" lon="14.964076631693683"><ele>315.0</ele><time>2026-03-28T16:53:34Z</time></trkpt><trkpt lat="36.90312175987985" lon="14.963987398676656"><ele>310.2</ele><time>2026-03-28T16:53:36Z</time></trkpt><trkpt lat="36.90306446423983" lon="14.963914720936325"><ele>305.4</ele><time>2026-03-28T16:53:38Z</time></trkpt><trkpt lat="36.902995647860095" lon="14.963947813954066"><ele>300.6</ele><time>2026-03-28T16:53:40Z</time></trkpt><trkpt lat="36.902927118552796" lon="14.964006891498483"><ele>295.8</ele><time>2026-03-28T16:53:42Z</time></trkpt><trkpt lat="36.90287362283026" lon="14.964124252809748"><ele>291.0</ele><time>2026-03-28T16:53:44Z</time></trkpt><trkpt lat="36.90279131616139" lon="14.964236587826559"><ele>290.0</ele><time>2026-03-28T16:53:46Z</time></trkpt><trkpt lat="36.9027441170449" lon="14.964312345456682"><ele>289.0</ele><time>2026-03-28T16:53:47Z</time></trkpt><trkpt lat="36.902704007493796" lon="14.964374956123267"><ele>288.0</ele><time>2026-03-28T16:53:48Z</time></trkpt><trkpt lat="36.902616551688226" lon="14.964482705587272"><ele>287.0</ele><time>2026-03-28T16:53:50Z</time></trkpt><trkpt lat="36.902560760737295" lon="14.964585414797753"><ele>286.0</ele><time>2026-03-28T16:53:52Z</time></trkpt><trkpt lat="36.902499589015214" lon="14.964705873929743"><ele>282.6</ele><time>2026-03-28T16:53:54Z</time></trkpt><trkpt lat="36.90243100594893" lon="14.964800089960704"><ele>279.20000000000005</ele><time>2026-03-28T16:53:56Z</time></trkpt><trkpt lat="36.90240936117717" lon="14.96488892494274"><ele>275.79999999999995</ele><time>2026-03-28T16:53:59Z</time></trkpt><trkpt lat="36.90244662576292" lon="14.964978396098987"><ele>272.4</ele><time>2026-03-28T16:54:02Z</time></trkpt><trkpt lat="36.90249705259891" lon="14.965141829803391"><ele>269.0</ele><time>2026-03-28T16:54:04Z</time></trkpt><trkpt lat="36.902474509780085" lon="14.965241180717266"><ele>266.8</ele><time>2026-03-28T16:54:06Z</time></trkpt><trkpt lat="36.90246052284077" lon="14.965335952986635"><ele>264.59999999999997</ele><time>2026-03-28T16:54:08Z</time></trkpt><trkpt lat="36.902487476667964" lon="14.965448000974106"><ele>262.4</ele><time>2026-03-28T16:54:10Z</time></trkpt><trkpt lat="36.90246193820069" lon="14.965598789604456"><ele>260.2</ele><time>2026-03-28T16:54:12Z</time></trkpt><trkpt lat="36.90246360491928" lon="14.96570103081441"><ele>258.0</ele><time>2026-03-28T16:54:13Z</time></trkpt><trkpt lat="36.90248657777213" lon="14.965819447240415"><ele>257.6</ele><time>2026-03-28T16:54:15Z</time></trkpt><trkpt lat="36.902510248125935" lon="14.965901919213742"><ele>257.20000000000005</ele><time>2026-03-28T16:54:16Z</time></trkpt><trkpt lat="36.90253815380916" lon="14.965993153456196"><ele>256.8</ele><time>2026-03-28T16:54:17Z</time></trkpt><trkpt lat="36.902549879513735" lon="14.966134965095844"><ele>256.40000000000003</ele><time>2026-03-28T16:54:19Z</time></trkpt><trkpt lat="36.90244428034267" lon="14.966187070594858"><ele>256.0</ele><time>2026-03-28T16:54:21Z</time></trkpt><trkpt lat="36.90238212846256" lon="14.96628857670833"><ele>256.0</ele><time>2026-03-28T16:54:23Z</time></trkpt><trkpt lat="36.90226917392724" lon="14.966383602010927"><ele>256.0</ele><time>2026-03-28T16:54:25Z</time></trkpt><trkpt lat="36.90219814985993" lon="14.966445731045289"><ele>256.0</ele><time>2026-03-28T16:54:26Z</time></trkpt><trkpt lat="36.902133733455244" lon="14.966485641088251"><ele>256.0</ele><time>2026-03-28T16:54:27Z</time></trkpt><trkpt lat="36.902066818776184" lon="14.966506539914343"><ele>256.0</ele><time>2026-03-28T16:54:28Z</time></trkpt><trkpt lat="36.90198104716054" lon="14.96653157959287"><ele>256.0</ele><time>2026-03-28T16:54:29Z</time></trkpt><trkpt lat="36.901895546919675" lon="14.966560186623266"><ele>256.0</ele><time>2026-03-28T16:54:30Z</time></trkpt><trkpt lat="36.90181923020494" lon="14.966601348774905"><ele>256.0</ele><time>2026-03-28T16:54:31Z</time></trkpt><trkpt lat="36.90176375386212" lon="14.966639287719438"><ele>256.0</ele><time>2026-03-28T16:54:32Z</time></trkpt><trkpt lat="36.90164988122957" lon="14.966692861230218"><ele>256.0</ele><time>2026-03-28T16:54:34Z</time></trkpt><trkpt lat="36.90152980235166" lon="14.966674426291364"><ele>252.20000000000002</ele><time>2026-03-28T16:54:36Z</time></trkpt><trkpt lat="36.9014277054028" lon="14.96666099367756"><ele>248.40000000000003</ele><time>2026-03-28T16:54:38Z</time></trkpt><trkpt lat="36.9013253664171" lon="14.966629441235465"><ele>244.6</ele><time>2026-03-28T16:54:40Z</time></trkpt><trkpt lat="36.90121780816616" lon="14.966597157790348"><ele>240.8</ele><time>2026-03-28T16:54:42Z</time></trkpt><trkpt lat="36.90111475844299" lon="14.966545372464575"><ele>237.0</ele><time>2026-03-28T16:54:44Z</time></trkpt><trkpt lat="36.90104116478715" lon="14.966534950796923"><ele>235.6</ele><time>2026-03-28T16:54:47Z</time></trkpt><trkpt lat="36.90091391793239" lon="14.966570160281751"><ele>234.2</ele><time>2026-03-28T16:54:48Z</time></trkpt><trkpt lat="36.90081402066901" lon="14.966604316954092"><ele>232.8</ele><time>2026-03-28T16:54:49Z</time></trkpt><trkpt lat="36.90071760340006" lon="14.966586446088803"><ele>231.4</ele><time>2026-03-28T16:54:50Z</time></trkpt><trkpt lat="36.90064442112744" lon="14.96658374477167"><ele>230.0</ele><time>2026-03-28T16:54:51Z</time></trkpt><trkpt lat="36.90057168373886" lon="14.966571528905359"><ele>230.0</ele><time>2026-03-28T16:54:52Z</time></trkpt><trkpt lat="36.900487456698414" lon="14.966560552778803"><ele>230.0</ele><time>2026-03-28T16:54:53Z</time></trkpt><trkpt lat="36.90038590098287" lon="14.966547318451413"><ele>230.0</ele><time>2026-03-28T16:54:54Z</time></trkpt><trkpt lat="36.900281400496674" lon="14.966533700367677"><ele>230.0</ele><time>2026-03-28T16:54:55Z</time></trkpt><trkpt lat="36.90017666308152" lon="14.966525004858406"><ele>230.0</ele><time>2026-03-28T16:54:56Z</time></trkpt><trkpt lat="36.90008993532739" lon="14.966514921603611"><ele>229.50000000000003</ele><time>2026-03-28T16:54:56.999Z</time></trkpt><trkpt lat="36.90000871341387" lon="14.966495329194773"><ele>229.0</ele><time>2026-03-28T16:54:57.999Z</time></trkpt><trkpt lat="36.89993009435484" lon="14.966472556150679"><ele>228.5</ele><time>2026-03-28T16:54:58.999Z</time></trkpt><trkpt lat="36.899853773295284" lon="14.966456535072643"><ele>228.0</ele><time>2026-03-28T16:54:59.999Z</time></trkpt><trkpt lat="36.89977754182701" lon="14.966444376392088"><ele>227.50000000000003</ele><time>2026-03-28T16:55:00.999Z</time></trkpt><trkpt lat="36.899710586809576" lon="14.96644444370334"><ele>227.0</ele><time>2026-03-28T16:55:01.999Z</time></trkpt><trkpt lat="36.89961562808177" lon="14.966475228965788"><ele>227.00000000000003</ele><time>2026-03-28T16:55:03.999Z</time></trkpt><trkpt lat="36.89954075094434" lon="14.966521773942564"><ele>227.0</ele><time>2026-03-28T16:55:05.999Z</time></trkpt><trkpt lat="36.89944139873349" lon="14.966561202389391"><ele>227.0</ele><time>2026-03-28T16:55:07.999Z</time></trkpt><trkpt lat="36.89937241756502" lon="14.966565989073349"><ele>227.0</ele><time>2026-03-28T16:55:08.999Z</time></trkpt><trkpt lat="36.89929627002436" lon="14.966584175307661"><ele>227.00000000000003</ele><time>2026-03-28T16:55:09.999Z</time></trkpt><trkpt lat="36.89921680442081" lon="14.966620173167396"><ele>227.0</ele><time>2026-03-28T16:55:10.999Z</time></trkpt><trkpt lat="36.89915140057411" lon="14.966674435937549"><ele>227.50000000000003</ele><time>2026-03-28T16:55:11.999Z</time></trkpt><trkpt lat="36.899081935880865" lon="14.966727416606002"><ele>228.0</ele><time>2026-03-28T16:55:12.999Z</time></trkpt><trkpt lat="36.89900110155911" lon="14.966798129759434"><ele>228.5</ele><time>2026-03-28T16:55:13.999Z</time></trkpt><trkpt lat="36.89893427508471" lon="14.966878356850952"><ele>229.0</ele><time>2026-03-28T16:55:14.999Z</time></trkpt><trkpt lat="36.898869590310255" lon="14.966953922902196"><ele>229.50000000000003</ele><time>2026-03-28T16:55:15.999Z</time></trkpt><trkpt lat="36.89881347458699" lon="14.967012566596965"><ele>230.0</ele><time>2026-03-28T16:55:16.999Z</time></trkpt><trkpt lat="36.898747099104725" lon="14.967059803902863"><ele>230.00000000000003</ele><time>2026-03-28T16:55:17.999Z</time></trkpt><trkpt lat="36.89865789869142" lon="14.967125430641538"><ele>230.0</ele><time>2026-03-28T16:55:18.999Z</time></trkpt><trkpt lat="36.898572586838334" lon="14.96719883272899"><ele>230.0</ele><time>2026-03-28T16:55:19.999Z</time></trkpt><trkpt lat="36.89850644160703" lon="14.967272686219415"><ele>230.0</ele><time>2026-03-28T16:55:20.999Z</time></trkpt><trkpt lat="36.898448885986426" lon="14.967343163799656"><ele>230.00000000000003</ele><time>2026-03-28T16:55:21.999Z</time></trkpt><trkpt lat="36.89839767336983" lon="14.967407199806113"><ele>230.0</ele><time>2026-03-28T16:55:22.999Z</time></trkpt><trkpt lat="36.898346980360856" lon="14.967470586093814"><ele>227.66666666666669</ele><time>2026-03-28T16:55:23.999Z</time></trkpt><trkpt lat="36.89828282347486" lon="14.967553714191213"><ele>225.33333333333334</ele><time>2026-03-28T16:55:25Z</time></trkpt><trkpt lat="36.898225091784674" lon="14.967638726659453"><ele>223.0</ele><time>2026-03-28T16:55:26Z</time></trkpt><trkpt lat="36.89818490518835" lon="14.967741850034392"><ele>220.66666666666669</ele><time>2026-03-28T16:55:27Z</time></trkpt><trkpt lat="36.89811444134886" lon="14.967809646279743"><ele>218.33333333333334</ele><time>2026-03-28T16:55:28Z</time></trkpt><trkpt lat="36.89805736327223" lon="14.967871149646895"><ele>216.0</ele><time>2026-03-28T16:55:29Z</time></trkpt><trkpt lat="36.8980003536773" lon="14.96791845501974"><ele>216.0</ele><time>2026-03-28T16:55:30Z</time></trkpt><trkpt lat="36.897929235852565" lon="14.967963478073855"><ele>216.0</ele><time>2026-03-28T16:55:31Z</time></trkpt><trkpt lat="36.897844368291125" lon="14.968015874317995"><ele>216.0</ele><time>2026-03-28T16:55:32Z</time></trkpt><trkpt lat="36.89776324511865" lon="14.968043179937672"><ele>216.0</ele><time>2026-03-28T16:55:33Z</time></trkpt><trkpt lat="36.897681402333745" lon="14.968058561649972"><ele>216.0</ele><time>2026-03-28T16:55:34Z</time></trkpt><trkpt lat="36.89758212304434" lon="14.968085475395558"><ele>216.0</ele><time>2026-03-28T16:55:35Z</time></trkpt><trkpt lat="36.89746979006013" lon="14.968125333844174"><ele>212.75</ele><time>2026-03-28T16:55:36Z</time></trkpt><trkpt lat="36.89735843176419" lon="14.968160199412097"><ele>209.5</ele><time>2026-03-28T16:55:37Z</time></trkpt><trkpt lat="36.89724466051535" lon="14.968183183330282"><ele>206.25</ele><time>2026-03-28T16:55:38Z</time></trkpt><trkpt lat="36.8971207963606" lon="14.968209417562711"><ele>203.0</ele><time>2026-03-28T16:55:39Z</time></trkpt><trkpt lat="36.8970180119674" lon="14.968248292945896"><ele>203.0</ele><time>2026-03-28T16:55:40Z</time></trkpt><trkpt lat="36.896931769480815" lon="14.968290610188099"><ele>203.0</ele><time>2026-03-28T16:55:41Z</time></trkpt><trkpt lat="36.89685994755658" lon="14.968331515182808"><ele>203.0</ele><time>2026-03-28T16:55:42Z</time></trkpt><trkpt lat="36.896792517877884" lon="14.968362970178964"><ele>203.0</ele><time>2026-03-28T16:55:43Z</time></trkpt><trkpt lat="36.89669017516759" lon="14.968370292493361"><ele>203.0</ele><time>2026-03-28T16:55:44Z</time></trkpt><trkpt lat="36.89658592040092" lon="14.968425416775515"><ele>201.83333333333334</ele><time>2026-03-28T16:55:45Z</time></trkpt><trkpt lat="36.896504874697925" lon="14.968444704113958"><ele>200.66666666666669</ele><time>2026-03-28T16:55:46Z</time></trkpt><trkpt lat="36.89643152201792" lon="14.96842837060611"><ele>199.5</ele><time>2026-03-28T16:55:47Z</time></trkpt><trkpt lat="36.89636670103456" lon="14.968432194937256"><ele>198.33333333333331</ele><time>2026-03-28T16:55:48Z</time></trkpt><trkpt lat="36.89630448022773" lon="14.96846354328607"><ele>197.16666666666666</ele><time>2026-03-28T16:55:49Z</time></trkpt><trkpt lat="36.896196600096104" lon="14.968440766754378"><ele>196.0</ele><time>2026-03-28T16:55:51Z</time></trkpt><trkpt lat="36.89614905283756" lon="14.968347959714219"><ele>195.66666666666666</ele><time>2026-03-28T16:55:53Z</time></trkpt><trkpt lat="36.89610789689393" lon="14.968261280680784"><ele>195.33333333333331</ele><time>2026-03-28T16:55:54Z</time></trkpt><trkpt lat="36.896060530106155" lon="14.968195412627484"><ele>195.0</ele><time>2026-03-28T16:55:55Z</time></trkpt><trkpt lat="36.89595575249889" lon="14.968187592911702"><ele>194.66666666666669</ele><time>2026-03-28T16:55:57Z</time></trkpt><trkpt lat="36.89588282285199" lon="14.968222790710257"><ele>194.33333333333334</ele><time>2026-03-28T16:55:58Z</time></trkpt><trkpt lat="36.89578064686006" lon="14.968282877442725"><ele>194.0</ele><time>2026-03-28T16:55:59Z</time></trkpt><trkpt lat="36.89567484972043" lon="14.968331023231965"><ele>190.79999999999998</ele><time>2026-03-28T16:56:00Z</time></trkpt><trkpt lat="36.895562577611145" lon="14.968370814823027"><ele>187.6</ele><time>2026-03-28T16:56:01Z</time></trkpt><trkpt lat="36.895452010844885" lon="14.968414617566937"><ele>184.4</ele><time>2026-03-28T16:56:02Z</time></trkpt><trkpt lat="36.89534982522886" lon="14.968457278315661"><ele>181.2</ele><time>2026-03-28T16:56:03Z</time></trkpt><trkpt lat="36.895258192496314" lon="14.968498504715727"><ele>178.0</ele><time>2026-03-28T16:56:04Z</time></trkpt><trkpt lat="36.89517288946295" lon="14.968534899999241"><ele>178.0</ele><time>2026-03-28T16:56:05Z</time></trkpt><trkpt lat="36.89508970322847" lon="14.968565662614722"><ele>178.0</ele><time>2026-03-28T16:56:06Z</time></trkpt><trkpt lat="36.89498876286915" lon="14.96857220321807"><ele>178.0</ele><time>2026-03-28T16:56:07Z</time></trkpt><trkpt lat="36.89487941701503" lon="14.968616180096976"><ele>178.0</ele><time>2026-03-28T16:56:08Z</time></trkpt><trkpt lat="36.8947875659829" lon="14.968653120861932"><ele>178.0</ele><time>2026-03-28T16:56:09Z</time></trkpt><trkpt lat="36.8947093972714" lon="14.96868455886413"><ele>176.66666666666669</ele><time>2026-03-28T16:56:10Z</time></trkpt><trkpt lat="36.894642157998135" lon="14.968711601238924"><ele>175.33333333333334</ele><time>2026-03-28T16:56:11Z</time></trkpt><trkpt lat="36.894578800504746" lon="14.968758312114835"><ele>174.0</ele><time>2026-03-28T16:56:12Z</time></trkpt><trkpt lat="36.89450522022146" lon="14.968766848687505"><ele>172.66666666666666</ele><time>2026-03-28T16:56:13Z</time></trkpt><trkpt lat="36.89444097451941" lon="14.968792796209126"><ele>171.33333333333331</ele><time>2026-03-28T16:56:14Z</time></trkpt><trkpt lat="36.89433398964535" lon="14.968836005198073"><ele>170.0</ele><time>2026-03-28T16:56:16Z</time></trkpt><trkpt lat="36.894245722639674" lon="14.968872585663004"><ele>169.4</ele><time>2026-03-28T16:56:18Z</time></trkpt><trkpt lat="36.89417319790615" lon="14.968929169413633"><ele>168.8</ele><time>2026-03-28T16:56:20Z</time></trkpt><trkpt lat="36.894138267527424" lon="14.969001396665307"><ele>168.2</ele><time>2026-03-28T16:56:23Z</time></trkpt><trkpt lat="36.8941490664681" lon="14.969142815553711"><ele>167.6</ele><time>2026-03-28T16:56:24Z</time></trkpt><trkpt lat="36.89421147654696" lon="14.969243008577173"><ele>167.0</ele><time>2026-03-28T16:56:26Z</time></trkpt><trkpt lat="36.894273734086454" lon="14.969334021194776"><ele>167.0</ele><time>2026-03-28T16:56:27Z</time></trkpt><trkpt lat="36.894317372837754" lon="14.969392082415593"><ele>167.0</ele><time>2026-03-28T16:56:28Z</time></trkpt><trkpt lat="36.89437054898673" lon="14.969453196397119"><ele>167.0</ele><time>2026-03-28T16:56:29Z</time></trkpt><trkpt lat="36.894415464906174" lon="14.969512541658087"><ele>167.0</ele><time>2026-03-28T16:56:30Z</time></trkpt><trkpt lat="36.894458205222946" lon="14.969598566583205"><ele>167.0</ele><time>2026-03-28T16:56:32Z</time></trkpt><trkpt lat="36.89439859121752" lon="14.969636823950024"><ele>167.0</ele><time>2026-03-28T16:56:34Z</time></trkpt><trkpt lat="36.894304401456665" lon="14.96968040005862"><ele>166.33333333333331</ele><time>2026-03-28T16:56:36Z</time></trkpt><trkpt lat="36.89423810953753" lon="14.969683323494714"><ele>165.66666666666666</ele><time>2026-03-28T16:56:37Z</time></trkpt><trkpt lat="36.8941765715905" lon="14.96970530567533"><ele>165.0</ele><time>2026-03-28T16:56:38Z</time></trkpt><trkpt lat="36.89405447494698" lon="14.969729380790815"><ele>164.33333333333334</ele><time>2026-03-28T16:56:40Z</time></trkpt><trkpt lat="36.89397970534162" lon="14.969658602062164"><ele>163.66666666666669</ele><time>2026-03-28T16:56:41Z</time></trkpt><trkpt lat="36.89390658021254" lon="14.969697502118734"><ele>163.0</ele><time>2026-03-28T16:56:42Z</time></trkpt><trkpt lat="36.89380387454364" lon="14.969729436332013"><ele>163.0</ele><time>2026-03-28T16:56:43Z</time></trkpt><trkpt lat="36.89369141496909" lon="14.969748306200959"><ele>163.0</ele><time>2026-03-28T16:56:44Z</time></trkpt><trkpt lat="36.89360291772197" lon="14.969738377080379"><ele>163.0</ele><time>2026-03-28T16:56:45Z</time></trkpt><trkpt lat="36.89352172098882" lon="14.969700806913695"><ele>163.0</ele><time>2026-03-28T16:56:46Z</time></trkpt><trkpt lat="36.89344362865934" lon="14.969642391876638"><ele>163.0</ele><time>2026-03-28T16:56:47Z</time></trkpt><trkpt lat="36.893379790024824" lon="14.96956547198528"><ele>162.83333333333334</ele><time>2026-03-28T16:56:48Z</time></trkpt><trkpt lat="36.89332685318821" lon="14.969481485311354"><ele>162.66666666666669</ele><time>2026-03-28T16:56:49Z</time></trkpt><trkpt lat="36.89329916839741" lon="14.969395577286594"><ele>162.5</ele><time>2026-03-28T16:56:50Z</time></trkpt><trkpt lat="36.893274134019904" lon="14.969307216591448"><ele>162.33333333333334</ele><time>2026-03-28T16:56:51Z</time></trkpt><trkpt lat="36.893258161118005" lon="14.969205490015346"><ele>162.16666666666666</ele><time>2026-03-28T16:56:52Z</time></trkpt><trkpt lat="36.89325849002111" lon="14.96908426056827"><ele>162.0</ele><time>2026-03-28T16:56:53Z</time></trkpt><trkpt lat="36.893267820373104" lon="14.968939145174476"><ele>162.0</ele><time>2026-03-28T16:56:54Z</time></trkpt><trkpt lat="36.893277772629794" lon="14.968816530476452"><ele>162.0</ele><time>2026-03-28T16:56:55Z</time></trkpt><trkpt lat="36.893286998751734" lon="14.968713633385443"><ele>162.0</ele><time>2026-03-28T16:56:56Z</time></trkpt><trkpt lat="36.89329264387703" lon="14.968615369951767"><ele>162.0</ele><time>2026-03-28T16:56:57Z</time></trkpt><trkpt lat="36.89328900462492" lon="14.968524849460103"><ele>162.0</ele><time>2026-03-28T16:56:58Z</time></trkpt><trkpt lat="36.89326976730071" lon="14.968444878378264"><ele>162.0</ele><time>2026-03-28T16:56:59Z</time></trkpt><trkpt lat="36.89318979820205" lon="14.968308085767841"><ele>160.75</ele><time>2026-03-28T16:57:00.999Z</time></trkpt><trkpt lat="36.89310690267656" lon="14.968233983748904"><ele>159.5</ele><time>2026-03-28T16:57:01.999Z</time></trkpt><trkpt lat="36.89299473236379" lon="14.968145312661804"><ele>158.25</ele><time>2026-03-28T16:57:02.999Z</time></trkpt><trkpt lat="36.892878464293936" lon="14.968042359756067"><ele>157.0</ele><time>2026-03-28T16:57:03.999Z</time></trkpt><trkpt lat="36.89276149978467" lon="14.967929086529775"><ele>157.0</ele><time>2026-03-28T16:57:04.999Z</time></trkpt><trkpt lat="36.892655064316436" lon="14.967818656303153"><ele>157.0</ele><time>2026-03-28T16:57:05.999Z</time></trkpt><trkpt lat="36.89257188871038" lon="14.96771180526644"><ele>157.0</ele><time>2026-03-28T16:57:06.999Z</time></trkpt><trkpt lat="36.89249987513009" lon="14.967612401147417"><ele>157.0</ele><time>2026-03-28T16:57:07.999Z</time></trkpt><trkpt lat="36.89242609582081" lon="14.967540275918463"><ele>155.0</ele><time>2026-03-28T16:57:08.999Z</time></trkpt><trkpt lat="36.89234226815081" lon="14.967498617723447"><ele>153.0</ele><time>2026-03-28T16:57:09.999Z</time></trkpt><trkpt lat="36.89222529909646" lon="14.967459412586106"><ele>151.0</ele><time>2026-03-28T16:57:10.999Z</time></trkpt><trkpt lat="36.892093777677154" lon="14.967424386224357"><ele>149.0</ele><time>2026-03-28T16:57:11.999Z</time></trkpt><trkpt lat="36.891977762909065" lon="14.967397436619846"><ele>149.0</ele><time>2026-03-28T16:57:12.999Z</time></trkpt><trkpt lat="36.89188557827044" lon="14.967354730553057"><ele>149.0</ele><time>2026-03-28T16:57:13.999Z</time></trkpt><trkpt lat="36.89179563544647" lon="14.967291608901617"><ele>149.0</ele><time>2026-03-28T16:57:14.999Z</time></trkpt><trkpt lat="36.891715386434576" lon="14.967217178258315"><ele>149.0</ele><time>2026-03-28T16:57:15.999Z</time></trkpt><trkpt lat="36.89164902343673" lon="14.967136796046177"><ele>149.0</ele><time>2026-03-28T16:57:16.999Z</time></trkpt><trkpt lat="36.89160292449388" lon="14.967043593047629"><ele>149.2</ele><time>2026-03-28T16:57:17.999Z</time></trkpt><trkpt lat="36.8915351468351" lon="14.966948236889584"><ele>149.4</ele><time>2026-03-28T16:57:18.999Z</time></trkpt><trkpt lat="36.89146916344426" lon="14.966872074507341"><ele>149.6</ele><time>2026-03-28T16:57:19.999Z</time></trkpt><trkpt lat="36.891409870390994" lon="14.966810063034279"><ele>149.8</ele><time>2026-03-28T16:57:20.999Z</time></trkpt><trkpt lat="36.89131050544405" lon="14.966750258379122"><ele>150.0</ele><time>2026-03-28T16:57:21.999Z</time></trkpt><trkpt lat="36.89117162890065" lon="14.966687905019874"><ele>149.25</ele><time>2026-03-28T16:57:22.999Z</time></trkpt><trkpt lat="36.89102792547916" lon="14.966620815056727"><ele>148.5</ele><time>2026-03-28T16:57:23.999Z</time></trkpt><trkpt lat="36.89090825522331" lon="14.96655497287156"><ele>147.75</ele><time>2026-03-28T16:57:24.999Z</time></trkpt><trkpt lat="36.89078154203264" lon="14.966479020400739"><ele>147.0</ele><time>2026-03-28T16:57:25.999Z</time></trkpt><trkpt lat="36.89066391572709" lon="14.966403201077178"><ele>148.2</ele><time>2026-03-28T16:57:26.999Z</time></trkpt><trkpt lat="36.89056621785348" lon="14.966342175224282"><ele>149.39999999999998</ele><time>2026-03-28T16:57:27.999Z</time></trkpt><trkpt lat="36.890476861583274" lon="14.966276532875849"><ele>150.60000000000002</ele><time>2026-03-28T16:57:28.999Z</time></trkpt><trkpt lat="36.89039561529041" lon="14.966212854719165"><ele>151.8</ele><time>2026-03-28T16:57:29.999Z</time></trkpt><trkpt lat="36.89032810845733" lon="14.966148076900083"><ele>153.0</ele><time>2026-03-28T16:57:31Z</time></trkpt><trkpt lat="36.89026406131492" lon="14.966069662790495"><ele>153.0</ele><time>2026-03-28T16:57:32Z</time></trkpt><trkpt lat="36.890201542781796" lon="14.965981824627148"><ele>153.0</ele><time>2026-03-28T16:57:33Z</time></trkpt><trkpt lat="36.89014988938256" lon="14.965892425694086"><ele>153.0</ele><time>2026-03-28T16:57:34Z</time></trkpt><trkpt lat="36.89008678086637" lon="14.965810992347054"><ele>153.0</ele><time>2026-03-28T16:57:35Z</time></trkpt><trkpt lat="36.89002410387041" lon="14.96572948105029"><ele>153.0</ele><time>2026-03-28T16:57:36Z</time></trkpt><trkpt lat="36.88995748571573" lon="14.965638696127966"><ele>151.4</ele><time>2026-03-28T16:57:37Z</time></trkpt><trkpt lat="36.889901778123296" lon="14.96555118870258"><ele>149.8</ele><time>2026-03-28T16:57:38Z</time></trkpt><trkpt lat="36.88984562900626" lon="14.965461378926022"><ele>148.2</ele><time>2026-03-28T16:57:39Z</time></trkpt><trkpt lat="36.889788820716355" lon="14.965370591755901"><ele>146.6</ele><time>2026-03-28T16:57:40Z</time></trkpt><trkpt lat="36.889724350391354" lon="14.965288281794958"><ele>145.0</ele><time>2026-03-28T16:57:41Z</time></trkpt><trkpt lat="36.88965057413995" lon="14.96522542117368"><ele>145.0</ele><time>2026-03-28T16:57:42Z</time></trkpt><trkpt lat="36.88956952830724" lon="14.965188473752464"><ele>145.0</ele><time>2026-03-28T16:57:43Z</time></trkpt><trkpt lat="36.88946701505556" lon="14.965181622881337"><ele>145.0</ele><time>2026-03-28T16:57:44Z</time></trkpt><trkpt lat="36.88935278268499" lon="14.965182616850583"><ele>145.0</ele><time>2026-03-28T16:57:45Z</time></trkpt><trkpt lat="36.889233083099136" lon="14.965178821657066"><ele>145.0</ele><time>2026-03-28T16:57:46Z</time></trkpt><trkpt lat="36.88911122381454" lon="14.965176792283028"><ele>142.33333333333334</ele><time>2026-03-28T16:57:47Z</time></trkpt><trkpt lat="36.88896189449001" lon="14.965153739119888"><ele>139.66666666666666</ele><time>2026-03-28T16:57:48Z</time></trkpt><trkpt lat="36.88877906904482" lon="14.965152470922732"><ele>137.0</ele><time>2026-03-28T16:57:49Z</time></trkpt><trkpt lat="36.888596663473166" lon="14.965176576401626"><ele>137.0</ele><time>2026-03-28T16:57:50Z</time></trkpt><trkpt lat="36.88844126038549" lon="14.96517670275469"><ele>137.0</ele><time>2026-03-28T16:57:51Z</time></trkpt><trkpt lat="36.888306446974305" lon="14.965177659303107"><ele>137.0</ele><time>2026-03-28T16:57:52Z</time></trkpt><trkpt lat="36.88817851401123" lon="14.965167176972605"><ele>137.0</ele><time>2026-03-28T16:57:53Z</time></trkpt><trkpt lat="36.888048486773826" lon="14.965114440443179"><ele>135.5</ele><time>2026-03-28T16:57:54Z</time></trkpt><trkpt lat="36.88791028752053" lon="14.965063788223484"><ele>134.0</ele><time>2026-03-28T16:57:55Z</time></trkpt><trkpt lat="36.887769442054015" lon="14.965032772316956"><ele>132.5</ele><time>2026-03-28T16:57:56Z</time></trkpt><trkpt lat="36.88763354201019" lon="14.964980552829077"><ele>131.0</ele><time>2026-03-28T16:57:57Z</time></trkpt><trkpt lat="36.88750123816998" lon="14.96493534676079"><ele>130.0</ele><time>2026-03-28T16:57:58Z</time></trkpt><trkpt lat="36.88738804941463" lon="14.964898246086781"><ele>129.0</ele><time>2026-03-28T16:57:59Z</time></trkpt><trkpt lat="36.88728947406263" lon="14.964842559178825"><ele>128.0</ele><time>2026-03-28T16:58:00Z</time></trkpt><trkpt lat="36.88718205952185" lon="14.964796421732785"><ele>127.0</ele><time>2026-03-28T16:58:01Z</time></trkpt><trkpt lat="36.88704099286269" lon="14.964754043334025"><ele>127.0</ele><time>2026-03-28T16:58:02Z</time></trkpt><trkpt lat="36.886884859404624" lon="14.964679352841241"><ele>127.0</ele><time>2026-03-28T16:58:03Z</time></trkpt><trkpt lat="36.88674215081411" lon="14.964585526228984"><ele>127.0</ele><time>2026-03-28T16:58:04Z</time></trkpt><trkpt lat="36.88660781302044" lon="14.964526939896869"><ele>124.66666666666667</ele><time>2026-03-28T16:58:05Z</time></trkpt><trkpt lat="36.88646325154318" lon="14.964484404462738"><ele>122.33333333333334</ele><time>2026-03-28T16:58:06Z</time></trkpt><trkpt lat="36.886287020441024" lon="14.964406704594271"><ele>120.0</ele><time>2026-03-28T16:58:07Z</time></trkpt><trkpt lat="36.8860958097744" lon="14.964322490034014"><ele>120.0</ele><time>2026-03-28T16:58:08Z</time></trkpt><trkpt lat="36.88593509441243" lon="14.964253557404103"><ele>120.0</ele><time>2026-03-28T16:58:09Z</time></trkpt><trkpt lat="36.885796911470706" lon="14.964189832367373"><ele>120.0</ele><time>2026-03-28T16:58:10Z</time></trkpt><trkpt lat="36.88566213204149" lon="14.964130948704444"><ele>119.75</ele><time>2026-03-28T16:58:11Z</time></trkpt><trkpt lat="36.885528635396334" lon="14.964072566985939"><ele>119.5</ele><time>2026-03-28T16:58:12Z</time></trkpt><trkpt lat="36.885393501890256" lon="14.964015489159555"><ele>119.25</ele><time>2026-03-28T16:58:13Z</time></trkpt><trkpt lat="36.885257879561365" lon="14.963933207753614"><ele>119.0</ele><time>2026-03-28T16:58:14Z</time></trkpt><trkpt lat="36.885105655934225" lon="14.963864620979793"><ele>117.66666666666666</ele><time>2026-03-28T16:58:15Z</time></trkpt><trkpt lat="36.88495310221864" lon="14.963793033777057"><ele>116.33333333333334</ele><time>2026-03-28T16:58:16Z</time></trkpt><trkpt lat="36.884818500168585" lon="14.963728858742368"><ele>115.0</ele><time>2026-03-28T16:58:17Z</time></trkpt><trkpt lat="36.88468326798873" lon="14.963663567950723"><ele>115.0</ele><time>2026-03-28T16:58:18Z</time></trkpt><trkpt lat="36.884533618043" lon="14.96359131620309"><ele>115.0</ele><time>2026-03-28T16:58:19Z</time></trkpt><trkpt lat="36.88439171748709" lon="14.963524546454689"><ele>115.0</ele><time>2026-03-28T16:58:20Z</time></trkpt><trkpt lat="36.88425206163484" lon="14.96345897070174"><ele>114.75</ele><time>2026-03-28T16:58:21Z</time></trkpt><trkpt lat="36.8841180688155" lon="14.963396054010119"><ele>114.5</ele><time>2026-03-28T16:58:22Z</time></trkpt><trkpt lat="36.88399875334582" lon="14.963339824430696"><ele>114.25</ele><time>2026-03-28T16:58:23Z</time></trkpt><trkpt lat="36.8839007100855" lon="14.963293303917576"><ele>114.0</ele><time>2026-03-28T16:58:24Z</time></trkpt><trkpt lat="36.88381000074136" lon="14.963269923727387"><ele>114.0</ele><time>2026-03-28T16:58:25Z</time></trkpt><trkpt lat="36.88373421044549" lon="14.96323262981042"><ele>114.0</ele><time>2026-03-28T16:58:26Z</time></trkpt><trkpt lat="36.88367256054091" lon="14.963200511863176"><ele>114.0</ele><time>2026-03-28T16:58:27Z</time></trkpt><trkpt lat="36.883612683336445" lon="14.963153392644543"><ele>114.0</ele><time>2026-03-28T16:58:29Z</time></trkpt><trkpt lat="36.883525786367095" lon="14.963084440897937"><ele>114.0</ele><time>2026-03-28T16:58:32Z</time></trkpt><trkpt lat="36.883431218306576" lon="14.963050948166057"><ele>114.0</ele><time>2026-03-28T16:58:34Z</time></trkpt><trkpt lat="36.88360669691223" lon="14.963019738159302"><ele>114.0</ele><time>2026-03-28T16:58:36Z</time></trkpt><trkpt lat="36.88363204612487" lon="14.962940886668504"><ele>114.0</ele><time>2026-03-28T16:58:37Z</time></trkpt><trkpt lat="36.88336852581394" lon="14.962616263372013"><ele>114.0</ele><time>2026-03-28T16:58:38Z</time></trkpt><trkpt lat="36.88334622929032" lon="14.962513933155583"><ele>113.5</ele><time>2026-03-28T16:58:39Z</time></trkpt><trkpt lat="36.88332111721649" lon="14.962410711104079"><ele>113.0</ele><time>2026-03-28T16:58:40Z</time></trkpt><trkpt lat="36.88329818665073" lon="14.96231713495876"><ele>112.5</ele><time>2026-03-28T16:58:41Z</time></trkpt><trkpt lat="36.88327922677681" lon="14.962231017589481"><ele>112.0</ele><time>2026-03-28T16:58:42Z</time></trkpt><trkpt lat="36.88325784428407" lon="14.962131997745722"><ele>111.5</ele><time>2026-03-28T16:58:43Z</time></trkpt><trkpt lat="36.883238456308725" lon="14.962049855469676"><ele>111.0</ele><time>2026-03-28T16:58:44Z</time></trkpt><trkpt lat="36.88320618845003" lon="14.961938181582278"><ele>111.0</ele><time>2026-03-28T16:58:46Z</time></trkpt><trkpt lat="36.88316628406295" lon="14.961870935456716"><ele>111.0</ele><time>2026-03-28T16:58:48Z</time></trkpt><trkpt lat="36.88312174437757" lon="14.961766218482492"><ele>111.0</ele><time>2026-03-28T16:58:50Z</time></trkpt><trkpt lat="36.883103683625706" lon="14.961666801113182"><ele>111.0</ele><time>2026-03-28T16:58:52Z</time></trkpt><trkpt lat="36.883091238942626" lon="14.961571523375364"><ele>111.0</ele><time>2026-03-28T16:58:55Z</time></trkpt><trkpt lat="36.88304046522461" lon="14.961506817412081"><ele>111.0</ele><time>2026-03-28T16:58:57Z</time></trkpt><trkpt lat="36.88299667483501" lon="14.961374485441393"><ele>110.8</ele><time>2026-03-28T16:59:00Z</time></trkpt><trkpt lat="36.883007066267325" lon="14.96127910799724"><ele>110.6</ele><time>2026-03-28T16:59:01Z</time></trkpt><trkpt lat="36.883039872813356" lon="14.961164752356945"><ele>110.4</ele><time>2026-03-28T16:59:02Z</time></trkpt><trkpt lat="36.883064563627585" lon="14.961051702760034"><ele>110.2</ele><time>2026-03-28T16:59:02.999Z</time></trkpt><trkpt lat="36.88308179869396" lon="14.960928660118377"><ele>110.0</ele><time>2026-03-28T16:59:03.999Z</time></trkpt><trkpt lat="36.883105554497554" lon="14.960802270281423"><ele>109.75</ele><time>2026-03-28T16:59:04.999Z</time></trkpt><trkpt lat="36.883128571063224" lon="14.960663315684442"><ele>109.5</ele><time>2026-03-28T16:59:05.999Z</time></trkpt><trkpt lat="36.88314546093018" lon="14.96052096391969"><ele>109.25</ele><time>2026-03-28T16:59:06.999Z</time></trkpt><trkpt lat="36.883164119903036" lon="14.960380271225127"><ele>109.0</ele><time>2026-03-28T16:59:07.999Z</time></trkpt><trkpt lat="36.88317792158607" lon="14.960224356015623"><ele>109.0</ele><time>2026-03-28T16:59:08.999Z</time></trkpt><trkpt lat="36.883181114584815" lon="14.96006309540057"><ele>109.0</ele><time>2026-03-28T16:59:09.999Z</time></trkpt><trkpt lat="36.88318262362541" lon="14.959916683817987"><ele>109.0</ele><time>2026-03-28T16:59:10.999Z</time></trkpt><trkpt lat="36.88318829284717" lon="14.95976046716426"><ele>109.0</ele><time>2026-03-28T16:59:11.999Z</time></trkpt><trkpt lat="36.88318793956781" lon="14.959587562258205"><ele>108.6</ele><time>2026-03-28T16:59:12.999Z</time></trkpt><trkpt lat="36.88318373010586" lon="14.959435442446491"><ele>108.2</ele><time>2026-03-28T16:59:13.999Z</time></trkpt><trkpt lat="36.883183248018156" lon="14.959303095696125"><ele>107.79999999999998</ele><time>2026-03-28T16:59:14.999Z</time></trkpt><trkpt lat="36.883180092774744" lon="14.959181818616349"><ele>107.39999999999999</ele><time>2026-03-28T16:59:15.999Z</time></trkpt><trkpt lat="36.883177332246724" lon="14.959055029217595"><ele>107.0</ele><time>2026-03-28T16:59:16.999Z</time></trkpt><trkpt lat="36.88317645552148" lon="14.958910856492436"><ele>107.0</ele><time>2026-03-28T16:59:17.999Z</time></trkpt><trkpt lat="36.88317505343586" lon="14.958747403383004"><ele>107.0</ele><time>2026-03-28T16:59:18.999Z</time></trkpt><trkpt lat="36.88318077378271" lon="14.958542681417816"><ele>107.0</ele><time>2026-03-28T16:59:19.999Z</time></trkpt><trkpt lat="36.883197397646846" lon="14.958312019307868"><ele>107.0</ele><time>2026-03-28T16:59:20.999Z</time></trkpt><trkpt lat="36.88322443475135" lon="14.958073525945561"><ele>107.0</ele><time>2026-03-28T16:59:21.999Z</time></trkpt><trkpt lat="36.88325322467291" lon="14.957854377142104"><ele>107.0</ele><time>2026-03-28T16:59:22.999Z</time></trkpt><trkpt lat="36.88328498697621" lon="14.957648764572845"><ele>107.33333333333333</ele><time>2026-03-28T16:59:23.999Z</time></trkpt><trkpt lat="36.88331865791138" lon="14.957436509588872"><ele>107.66666666666666</ele><time>2026-03-28T16:59:24.999Z</time></trkpt><trkpt lat="36.883351567726535" lon="14.957248026096265"><ele>108.0</ele><time>2026-03-28T16:59:25.999Z</time></trkpt><trkpt lat="36.883382758463924" lon="14.957073244392166"><ele>108.0</ele><time>2026-03-28T16:59:26.999Z</time></trkpt><trkpt lat="36.88340923946187" lon="14.956952106711027"><ele>108.00000000000001</ele><time>2026-03-28T16:59:27.999Z</time></trkpt><trkpt lat="36.88342860551558" lon="14.956830959686688"><ele>108.00000000000001</ele><time>2026-03-28T16:59:28.999Z</time></trkpt><trkpt lat="36.883451740866626" lon="14.956706864586591"><ele>108.0</ele><time>2026-03-28T16:59:29.999Z</time></trkpt><trkpt lat="36.88347698780717" lon="14.956580734182452"><ele>108.0</ele><time>2026-03-28T16:59:30.999Z</time></trkpt><trkpt lat="36.88351411034858" lon="14.95644992623395"><ele>109.25</ele><time>2026-03-28T16:59:31.999Z</time></trkpt><trkpt lat="36.883556379362496" lon="14.95632231296152"><ele>110.5</ele><time>2026-03-28T16:59:32.999Z</time></trkpt><trkpt lat="36.88359887170212" lon="14.956201665925642"><ele>111.75</ele><time>2026-03-28T16:59:33.999Z</time></trkpt><trkpt lat="36.883654522746355" lon="14.956074154946874"><ele>113.0</ele><time>2026-03-28T16:59:34.999Z</time></trkpt><trkpt lat="36.88371168632053" lon="14.955941085471594"><ele>112.80000000000001</ele><time>2026-03-28T16:59:35.999Z</time></trkpt><trkpt lat="36.88376675489054" lon="14.955817680301507"><ele>112.60000000000001</ele><time>2026-03-28T16:59:37Z</time></trkpt><trkpt lat="36.88381807668257" lon="14.955696093688278"><ele>112.39999999999999</ele><time>2026-03-28T16:59:38Z</time></trkpt><trkpt lat="36.883863746489226" lon="14.955568530977484"><ele>112.19999999999999</ele><time>2026-03-28T16:59:39Z</time></trkpt><trkpt lat="36.883895619202605" lon="14.955442724170588"><ele>112.0</ele><time>2026-03-28T16:59:40Z</time></trkpt><trkpt lat="36.88391626905702" lon="14.955326218643812"><ele>112.00000000000001</ele><time>2026-03-28T16:59:41Z</time></trkpt><trkpt lat="36.883934576529796" lon="14.955222879009584"><ele>112.0</ele><time>2026-03-28T16:59:42Z</time></trkpt><trkpt lat="36.88394508789319" lon="14.95513657776678"><ele>112.0</ele><time>2026-03-28T16:59:43Z</time></trkpt><trkpt lat="36.88394934475242" lon="14.955051590928184"><ele>112.0</ele><time>2026-03-28T16:59:44Z</time></trkpt><trkpt lat="36.883956372458684" lon="14.954972912397805"><ele>112.00000000000001</ele><time>2026-03-28T16:59:45Z</time></trkpt><trkpt lat="36.88398296910097" lon="14.954837153857461"><ele>112.0</ele><time>2026-03-28T16:59:47Z</time></trkpt><trkpt lat="36.88399675348122" lon="14.954757560899912"><ele>111.42857142857143</ele><time>2026-03-28T16:59:48Z</time></trkpt><trkpt lat="36.8840132079555" lon="14.954666890339702"><ele>110.85714285714286</ele><time>2026-03-28T16:59:49Z</time></trkpt><trkpt lat="36.884032345566986" lon="14.954572029439229"><ele>110.28571428571428</ele><time>2026-03-28T16:59:50Z</time></trkpt><trkpt lat="36.884050439361495" lon="14.954481698427907"><ele>109.71428571428572</ele><time>2026-03-28T16:59:51Z</time></trkpt><trkpt lat="36.88406554825926" lon="14.954390899347013"><ele>109.14285714285714</ele><time>2026-03-28T16:59:52Z</time></trkpt><trkpt lat="36.884075725739585" lon="14.954304298389387"><ele>108.57142857142857</ele><time>2026-03-28T16:59:53Z</time></trkpt><trkpt lat="36.88408185954544" lon="14.954221241410103"><ele>108.0</ele><time>2026-03-28T16:59:54Z</time></trkpt><trkpt lat="36.88408813487114" lon="14.954139369906263"><ele>107.85714285714286</ele><time>2026-03-28T16:59:55Z</time></trkpt><trkpt lat="36.88409197840419" lon="14.954057681110747"><ele>107.71428571428571</ele><time>2026-03-28T16:59:56Z</time></trkpt><trkpt lat="36.88409614957246" lon="14.953975469386464"><ele>107.57142857142858</ele><time>2026-03-28T16:59:57Z</time></trkpt><trkpt lat="36.88409841981522" lon="14.953894168978588"><ele>107.42857142857143</ele><time>2026-03-28T16:59:58Z</time></trkpt><trkpt lat="36.88411107008309" lon="14.953811371118851"><ele>107.28571428571429</ele><time>2026-03-28T16:59:59Z</time></trkpt><trkpt lat="36.884111070083364" lon="14.953716549627927"><ele>107.14285714285715</ele><time>2026-03-28T17:00:00Z</time></trkpt><trkpt lat="36.8841348141467" lon="14.953641331530719"><ele>107.0</ele><time>2026-03-28T17:00:01Z</time></trkpt><trkpt lat="36.8841561900138" lon="14.953498385457982"><ele>106.0</ele><time>2026-03-28T17:00:03Z</time></trkpt><trkpt lat="36.88401516548299" lon="14.953357049379285"><ele>104.99999999999999</ele><time>2026-03-28T17:00:05Z</time></trkpt><trkpt lat="36.883991562957085" lon="14.953265128817769"><ele>104.0</ele><time>2026-03-28T17:00:07Z</time></trkpt><trkpt lat="36.88396274706663" lon="14.953175856224059"><ele>103.0</ele><time>2026-03-28T17:00:09Z</time></trkpt><trkpt lat="36.88393998691319" lon="14.953083733639374"><ele>102.0</ele><time>2026-03-28T17:00:11Z</time></trkpt><trkpt lat="36.883921355161085" lon="14.95297971736334"><ele>102.0</ele><time>2026-03-28T17:00:13Z</time></trkpt><trkpt lat="36.88388977694157" lon="14.95286716448691"><ele>102.0</ele><time>2026-03-28T17:00:15Z</time></trkpt><trkpt lat="36.883845585920554" lon="14.952782158775738"><ele>102.0</ele><time>2026-03-28T17:00:17Z</time></trkpt><trkpt lat="36.88379636849567" lon="14.95266408773477"><ele>102.0</ele><time>2026-03-28T17:00:19Z</time></trkpt><trkpt lat="36.88375915884803" lon="14.95254058765145"><ele>102.0</ele><time>2026-03-28T17:00:21Z</time></trkpt><trkpt lat="36.883717501864986" lon="14.95237324812324"><ele>102.0</ele><time>2026-03-28T17:00:23Z</time></trkpt><trkpt lat="36.883704914655276" lon="14.952289774662272"><ele>102.0</ele><time>2026-03-28T17:00:24Z</time></trkpt><trkpt lat="36.8836798533568" lon="14.952153252440972"><ele>102.0</ele><time>2026-03-28T17:00:26Z</time></trkpt><trkpt lat="36.88365039806852" lon="14.951992611975475"><ele>102.0</ele><time>2026-03-28T17:00:28Z</time></trkpt><trkpt lat="36.88364520070556" lon="14.951913658279652"><ele>102.0</ele><time>2026-03-28T17:00:29Z</time></trkpt><trkpt lat="36.883634030219625" lon="14.951766738843956"><ele>101.66666666666667</ele><time>2026-03-28T17:00:31Z</time></trkpt><trkpt lat="36.88362054398523" lon="14.951680978687945"><ele>101.33333333333334</ele><time>2026-03-28T17:00:32Z</time></trkpt><trkpt lat="36.883602297302055" lon="14.951580358126828"><ele>101.0</ele><time>2026-03-28T17:00:33Z</time></trkpt><trkpt lat="36.883588231194544" lon="14.951474859604762"><ele>100.66666666666667</ele><time>2026-03-28T17:00:34Z</time></trkpt><trkpt lat="36.88358209776039" lon="14.951391858806772"><ele>100.33333333333334</ele><time>2026-03-28T17:00:35Z</time></trkpt><trkpt lat="36.88357321979028" lon="14.951256582954828"><ele>100.0</ele><time>2026-03-28T17:00:37Z</time></trkpt><trkpt lat="36.88355660579277" lon="14.951133997210572"><ele>100.00000000000001</ele><time>2026-03-28T17:00:39Z</time></trkpt><trkpt lat="36.88355783570044" lon="14.95103699889615"><ele>100.0</ele><time>2026-03-28T17:00:41Z</time></trkpt><trkpt lat="36.88355895849644" lon="14.950941911839124"><ele>100.0</ele><time>2026-03-28T17:00:43Z</time></trkpt><trkpt lat="36.88355580113244" lon="14.950852150192942"><ele>100.0</ele><time>2026-03-28T17:00:45Z</time></trkpt><trkpt lat="36.883569105272386" lon="14.950759789948187"><ele>100.0</ele><time>2026-03-28T17:00:47Z</time></trkpt><trkpt lat="36.88355730897627" lon="14.950673594620783"><ele>100.00000000000001</ele><time>2026-03-28T17:00:50Z</time></trkpt><trkpt lat="36.8835508553104" lon="14.95059473925448"><ele>100.0</ele><time>2026-03-28T17:00:56Z</time></trkpt><trkpt lat="36.88349680439328" lon="14.95054370597174"><ele>99.57142857142858</ele><time>2026-03-28T17:01:01Z</time></trkpt><trkpt lat="36.883423109627984" lon="14.950561674763321"><ele>99.14285714285714</ele><time>2026-03-28T17:01:03Z</time></trkpt><trkpt lat="36.8833424457314" lon="14.950544100733138"><ele>98.71428571428572</ele><time>2026-03-28T17:01:06Z</time></trkpt><trkpt lat="36.88329193752183" lon="14.950487466819714"><ele>98.28571428571429</ele><time>2026-03-28T17:01:20.999Z</time></trkpt><trkpt lat="36.88328346711591" lon="14.950407286169362"><ele>97.85714285714286</ele><time>2026-03-28T17:01:29.999Z</time></trkpt><trkpt lat="36.883307862044504" lon="14.950308678685808"><ele>97.42857142857143</ele><time>2026-03-28T17:01:34.999Z</time></trkpt><trkpt lat="36.883377801102355" lon="14.950276273997018"><ele>97.0</ele><time>2026-03-28T17:01:38.999Z</time></trkpt><trkpt lat="36.88344149740838" lon="14.950292736725778"><ele>96.83333333333334</ele><time>2026-03-28T17:01:41.999Z</time></trkpt><trkpt lat="36.8835089930244" lon="14.950298280666267"><ele>96.66666666666667</ele><time>2026-03-28T17:01:47Z</time></trkpt><trkpt lat="36.883575944574304" lon="14.950294756465308"><ele>96.5</ele><time>2026-03-28T17:01:57Z</time></trkpt><trkpt lat="36.88362692053607" lon="14.950207504707311"><ele>96.33333333333334</ele><time>2026-03-28T17:02:01Z</time></trkpt><trkpt lat="36.88369611377966" lon="14.95015221849254"><ele>96.16666666666667</ele><time>2026-03-28T17:02:03Z</time></trkpt><trkpt lat="36.88374966477574" lon="14.950088803237282"><ele>96.0</ele><time>2026-03-28T17:02:04Z</time></trkpt><trkpt lat="36.883830973611474" lon="14.950017183866304"><ele>95.66666666666667</ele><time>2026-03-28T17:02:07Z</time></trkpt><trkpt lat="36.883811455229534" lon="14.949925202444708"><ele>95.33333333333333</ele><time>2026-03-28T17:02:11Z</time></trkpt><trkpt lat="36.8837023345174" lon="14.949949350167428"><ele>95.0</ele><time>2026-03-28T17:02:13Z</time></trkpt><trkpt lat="36.883633738989275" lon="14.949977910153905"><ele>94.66666666666666</ele><time>2026-03-28T17:02:14Z</time></trkpt><trkpt lat="36.8835621879085" lon="14.950000090453148"><ele>94.33333333333333</ele><time>2026-03-28T17:02:15Z</time></trkpt><trkpt lat="36.88345334483126" lon="14.950027209543432"><ele>94.0</ele><time>2026-03-28T17:02:17Z</time></trkpt><trkpt lat="36.88336483406964" lon="14.950037323396735"><ele>94.0</ele><time>2026-03-28T17:02:19Z</time></trkpt><trkpt lat="36.883266174506204" lon="14.95002831000575"><ele>94.0</ele><time>2026-03-28T17:02:21Z</time></trkpt><trkpt lat="36.88316454663347" lon="14.95002369319907"><ele>94.0</ele><time>2026-03-28T17:02:23Z</time></trkpt><trkpt lat="36.88310977686738" lon="14.949954153043203"><ele>94.0</ele><time>2026-03-28T17:02:25Z</time></trkpt><trkpt lat="36.88299925657582" lon="14.949943810546637"><ele>94.0</ele><time>2026-03-28T17:02:27Z</time></trkpt><trkpt lat="36.88288903113415" lon="14.949850221111342"><ele>94.0</ele><time>2026-03-28T17:02:30Z</time></trkpt><trkpt lat="36.88282526801872" lon="14.949816812687425"><ele>94.0</ele><time>2026-03-28T17:02:32Z</time></trkpt><trkpt lat="36.8827580973316" lon="14.94976826768186"><ele>94.0</ele><time>2026-03-28T17:02:34Z</time></trkpt><trkpt lat="36.88265945700767" lon="14.949748902894035"><ele>94.0</ele><time>2026-03-28T17:02:36Z</time></trkpt><trkpt lat="36.88257813992051" lon="14.949740744599346"><ele>94.0</ele><time>2026-03-28T17:02:38Z</time></trkpt><trkpt lat="36.88248379115783" lon="14.949728598352605"><ele>94.0</ele><time>2026-03-28T17:02:40Z</time></trkpt><trkpt lat="36.882420807647144" lon="14.949724979849169"><ele>93.83333333333333</ele><time>2026-03-28T17:02:42Z</time></trkpt><trkpt lat="36.88233016548979" lon="14.949721563995599"><ele>93.66666666666666</ele><time>2026-03-28T17:02:44Z</time></trkpt><trkpt lat="36.882219233970275" lon="14.949716118148684"><ele>93.5</ele><time>2026-03-28T17:02:46Z</time></trkpt><trkpt lat="36.88213321993596" lon="14.949708231521111"><ele>93.33333333333333</ele><time>2026-03-28T17:02:48Z</time></trkpt><trkpt lat="36.882068861430874" lon="14.94969130993322"><ele>93.16666666666667</ele><time>2026-03-28T17:02:50Z</time></trkpt><trkpt lat="36.88202537161767" lon="14.94962164636115"><ele>93.0</ele><time>2026-03-28T17:02:53Z</time></trkpt><trkpt lat="36.881996283830674" lon="14.949536630426852"><ele>93.0</ele><time>2026-03-28T17:02:55Z</time></trkpt><trkpt lat="36.881953798424185" lon="14.949473793973148"><ele>93.0</ele><time>2026-03-28T17:02:58Z</time></trkpt><trkpt lat="36.88187960766594" lon="14.949433032536227"><ele>93.0</ele><time>2026-03-28T17:03:00Z</time></trkpt><trkpt lat="36.88176101849075" lon="14.949491901211008"><ele>93.0</ele><time>2026-03-28T17:03:02Z</time></trkpt><trkpt lat="36.88167926529969" lon="14.94954268289216"><ele>93.0</ele><time>2026-03-28T17:03:03Z</time></trkpt><trkpt lat="36.88162329033416" lon="14.94958548560016"><ele>93.0</ele><time>2026-03-28T17:03:04Z</time></trkpt><trkpt lat="36.881533522750445" lon="14.949639757767734"><ele>93.0</ele><time>2026-03-28T17:03:06Z</time></trkpt><trkpt lat="36.881446660276666" lon="14.949644239414937"><ele>93.0</ele><time>2026-03-28T17:03:08Z</time></trkpt><trkpt lat="36.88136323919223" lon="14.949630964586028"><ele>93.0</ele><time>2026-03-28T17:03:10Z</time></trkpt><trkpt lat="36.88129626586863" lon="14.949655437013154"><ele>93.0</ele><time>2026-03-28T17:03:12Z</time></trkpt><trkpt lat="36.88121667788586" lon="14.949732118888782"><ele>93.0</ele><time>2026-03-28T17:03:14Z</time></trkpt><trkpt lat="36.88114258115329" lon="14.94979006434941"><ele>93.0</ele><time>2026-03-28T17:03:16Z</time></trkpt><trkpt lat="36.88104976898399" lon="14.9498270711921"><ele>93.0</ele><time>2026-03-28T17:03:18Z</time></trkpt><trkpt lat="36.880971869543636" lon="14.94986228855172"><ele>93.0</ele><time>2026-03-28T17:03:20Z</time></trkpt><trkpt lat="36.88089597450706" lon="14.94989382947233"><ele>93.0</ele><time>2026-03-28T17:03:21.999Z</time></trkpt><trkpt lat="36.88085331279625" lon="14.949971993908457"><ele>93.0</ele><time>2026-03-28T17:03:25.999Z</time></trkpt><trkpt lat="36.88082325826382" lon="14.950062985562248"><ele>93.0</ele><time>2026-03-28T17:03:28.999Z</time></trkpt><trkpt lat="36.880776232202535" lon="14.950131678897293"><ele>93.0</ele><time>2026-03-28T17:03:30.999Z</time></trkpt><trkpt lat="36.88072185272933" lon="14.950176503343819"><ele>92.83333333333333</ele><time>2026-03-28T17:03:32.999Z</time></trkpt><trkpt lat="36.880684844487945" lon="14.950271278801674"><ele>92.66666666666667</ele><time>2026-03-28T17:03:36.999Z</time></trkpt><trkpt lat="36.88060654295438" lon="14.95029792978084"><ele>92.5</ele><time>2026-03-28T17:03:40.999Z</time></trkpt><trkpt lat="36.88053633060832" lon="14.950317085719014"><ele>92.33333333333334</ele><time>2026-03-28T17:03:55Z</time></trkpt><trkpt lat="36.88045794384465" lon="14.950346350221906"><ele>92.16666666666667</ele><time>2026-03-28T17:03:58Z</time></trkpt><trkpt lat="36.88039665075639" lon="14.950375693988104"><ele>92.0</ele><time>2026-03-28T17:04:00Z</time></trkpt><trkpt lat="36.88032581972473" lon="14.950432910789718"><ele>92.0</ele><time>2026-03-28T17:04:03Z</time></trkpt><trkpt lat="36.88025287890981" lon="14.950491071672683"><ele>92.0</ele><time>2026-03-28T17:04:07Z</time></trkpt><trkpt lat="36.88020564321119" lon="14.95054392494562"><ele>92.0</ele><time>2026-03-28T17:04:11Z</time></trkpt><trkpt lat="36.88014241343288" lon="14.950615272218265"><ele>92.0</ele><time>2026-03-28T17:04:14Z</time></trkpt><trkpt lat="36.88007637681142" lon="14.950678305979613"><ele>92.0</ele><time>2026-03-28T17:04:17Z</time></trkpt><trkpt lat="36.880012137334575" lon="14.950725570173057"><ele>92.0</ele><time>2026-03-28T17:04:20Z</time></trkpt><trkpt lat="36.87996415986057" lon="14.950785583708535"><ele>92.33333333333334</ele><time>2026-03-28T17:04:24Z</time></trkpt><trkpt lat="36.879907223009766" lon="14.950907261785161"><ele>92.66666666666667</ele><time>2026-03-28T17:04:26Z</time></trkpt><trkpt lat="36.87987726980971" lon="14.950982116890131"><ele>93.0</ele><time>2026-03-28T17:04:28Z</time></trkpt><trkpt lat="36.87982756821049" lon="14.951067480524642"><ele>93.33333333333333</ele><time>2026-03-28T17:04:30Z</time></trkpt><trkpt lat="36.879765271585754" lon="14.95114813836329"><ele>93.66666666666666</ele><time>2026-03-28T17:04:32Z</time></trkpt><trkpt lat="36.87968399197961" lon="14.951181291386892"><ele>94.0</ele><time>2026-03-28T17:04:34Z</time></trkpt><trkpt lat="36.879614549410796" lon="14.951242724903775"><ele>94.0</ele><time>2026-03-28T17:04:36Z</time></trkpt><trkpt lat="36.87955528057214" lon="14.951296917173853"><ele>94.0</ele><time>2026-03-28T17:04:38Z</time></trkpt><trkpt lat="36.8795079974679" lon="14.951382006173512"><ele>94.0</ele><time>2026-03-28T17:04:40Z</time></trkpt><trkpt lat="36.87944625728495" lon="14.951553587948615"><ele>94.0</ele><time>2026-03-28T17:04:44Z</time></trkpt><trkpt lat="36.87940173883306" lon="14.95161153041129"><ele>94.0</ele><time>2026-03-28T17:04:46Z</time></trkpt><trkpt lat="36.879332368238785" lon="14.951701555823915"><ele>94.5</ele><time>2026-03-28T17:04:48Z</time></trkpt><trkpt lat="36.87925472732337" lon="14.951711827222544"><ele>95.0</ele><time>2026-03-28T17:04:51Z</time></trkpt><trkpt lat="36.87917099385213" lon="14.951660099293589"><ele>95.5</ele><time>2026-03-28T17:04:53Z</time></trkpt><trkpt lat="36.87912563603389" lon="14.951602100794965"><ele>96.0</ele><time>2026-03-28T17:04:54Z</time></trkpt><trkpt lat="36.87906503236011" lon="14.95152400455662"><ele>96.50000000000001</ele><time>2026-03-28T17:04:55Z</time></trkpt><trkpt lat="36.87897702612373" lon="14.951442538573735"><ele>97.0</ele><time>2026-03-28T17:04:56Z</time></trkpt><trkpt lat="36.87888680659652" lon="14.951367028802114"><ele>98.6</ele><time>2026-03-28T17:04:57Z</time></trkpt><trkpt lat="36.87879289702352" lon="14.951293402023426"><ele>100.19999999999999</ele><time>2026-03-28T17:04:58Z</time></trkpt><trkpt lat="36.878697286027226" lon="14.951227059284248"><ele>101.8</ele><time>2026-03-28T17:04:59Z</time></trkpt><trkpt lat="36.87860891551114" lon="14.951159916244519"><ele>103.4</ele><time>2026-03-28T17:05:00Z</time></trkpt><trkpt lat="36.87853220371266" lon="14.951101933283653"><ele>105.0</ele><time>2026-03-28T17:05:01Z</time></trkpt><trkpt lat="36.87845877810577" lon="14.951045355981957"><ele>106.0</ele><time>2026-03-28T17:05:02Z</time></trkpt><trkpt lat="36.878388049025624" lon="14.950984141708046"><ele>107.0</ele><time>2026-03-28T17:05:03Z</time></trkpt><trkpt lat="36.87832062175201" lon="14.950923726852544"><ele>108.0</ele><time>2026-03-28T17:05:04Z</time></trkpt><trkpt lat="36.878251267485446" lon="14.950867657498954"><ele>109.0</ele><time>2026-03-28T17:05:05Z</time></trkpt><trkpt lat="36.878182169979524" lon="14.950807904701563"><ele>110.0</ele><time>2026-03-28T17:05:06Z</time></trkpt><trkpt lat="36.87811305483358" lon="14.950758138316182"><ele>111.0</ele><time>2026-03-28T17:05:07Z</time></trkpt><trkpt lat="36.878046829883" lon="14.950703377859522"><ele>111.8</ele><time>2026-03-28T17:05:08Z</time></trkpt><trkpt lat="36.87797829442616" lon="14.95064416413762"><ele>112.6</ele><time>2026-03-28T17:05:09Z</time></trkpt><trkpt lat="36.8778999855699" lon="14.950576007535165"><ele>113.4</ele><time>2026-03-28T17:05:10Z</time></trkpt><trkpt lat="36.87781363747105" lon="14.950503994623151"><ele>114.2</ele><time>2026-03-28T17:05:11Z</time></trkpt><trkpt lat="36.877721720211824" lon="14.950427062943469"><ele>115.0</ele><time>2026-03-28T17:05:12Z</time></trkpt><trkpt lat="36.87762850007813" lon="14.950353602032456"><ele>116.4</ele><time>2026-03-28T17:05:13Z</time></trkpt><trkpt lat="36.87753913954278" lon="14.950283169100796"><ele>117.8</ele><time>2026-03-28T17:05:14Z</time></trkpt><trkpt lat="36.87745755411679" lon="14.950213473878232"><ele>119.19999999999999</ele><time>2026-03-28T17:05:15Z</time></trkpt><trkpt lat="36.87737662497567" lon="14.95015445079131"><ele>120.6</ele><time>2026-03-28T17:05:16Z</time></trkpt><trkpt lat="36.87728971590035" lon="14.950088504328022"><ele>122.0</ele><time>2026-03-28T17:05:17Z</time></trkpt><trkpt lat="36.87718511571434" lon="14.950004146558216"><ele>122.33333333333333</ele><time>2026-03-28T17:05:18Z</time></trkpt><trkpt lat="36.87706401881539" lon="14.949902262896071"><ele>122.66666666666666</ele><time>2026-03-28T17:05:18.999Z</time></trkpt><trkpt lat="36.87694521726499" lon="14.949798618968394"><ele>123.0</ele><time>2026-03-28T17:05:19.999Z</time></trkpt><trkpt lat="36.876811605201006" lon="14.949673815591444"><ele>123.75</ele><time>2026-03-28T17:05:20.999Z</time></trkpt><trkpt lat="36.87668434803771" lon="14.949558457185764"><ele>124.5</ele><time>2026-03-28T17:05:21.999Z</time></trkpt><trkpt lat="36.87657916606888" lon="14.949462838531705"><ele>125.25</ele><time>2026-03-28T17:05:22.999Z</time></trkpt><trkpt lat="36.87647848961052" lon="14.949372815127678"><ele>126.0</ele><time>2026-03-28T17:05:23.999Z</time></trkpt><trkpt lat="36.87637579646128" lon="14.949284488103482"><ele>126.5</ele><time>2026-03-28T17:05:24.999Z</time></trkpt><trkpt lat="36.876266649656536" lon="14.94918932837316"><ele>127.0</ele><time>2026-03-28T17:05:25.999Z</time></trkpt><trkpt lat="36.87615465248183" lon="14.949088296610263"><ele>127.5</ele><time>2026-03-28T17:05:26.999Z</time></trkpt><trkpt lat="36.87605535111621" lon="14.948991654243377"><ele>128.0</ele><time>2026-03-28T17:05:27.999Z</time></trkpt><trkpt lat="36.875962790857166" lon="14.94889985582546"><ele>128.16666666666666</ele><time>2026-03-28T17:05:28.999Z</time></trkpt><trkpt lat="36.875874140994654" lon="14.94882514071867"><ele>128.33333333333331</ele><time>2026-03-28T17:05:29.999Z</time></trkpt><trkpt lat="36.875790437918305" lon="14.948778689085586"><ele>128.5</ele><time>2026-03-28T17:05:30.999Z</time></trkpt><trkpt lat="36.875706533785355" lon="14.94875464716829"><ele>128.66666666666666</ele><time>2026-03-28T17:05:31.999Z</time></trkpt><trkpt lat="36.87563105087556" lon="14.94875870392212"><ele>128.83333333333334</ele><time>2026-03-28T17:05:32.999Z</time></trkpt><trkpt lat="36.87555051238971" lon="14.948790509735172"><ele>129.0</ele><time>2026-03-28T17:05:33.999Z</time></trkpt><trkpt lat="36.87546810222234" lon="14.948839478366235"><ele>129.0</ele><time>2026-03-28T17:05:34.999Z</time></trkpt><trkpt lat="36.87539523632622" lon="14.948889250106614"><ele>129.0</ele><time>2026-03-28T17:05:35.999Z</time></trkpt><trkpt lat="36.875278304925985" lon="14.94888395235104"><ele>129.0</ele><time>2026-03-28T17:05:37.999Z</time></trkpt><trkpt lat="36.87520308619257" lon="14.94883596893392"><ele>129.0</ele><time>2026-03-28T17:05:38.999Z</time></trkpt><trkpt lat="36.87510619518272" lon="14.948750160324401"><ele>129.0</ele><time>2026-03-28T17:05:39.999Z</time></trkpt><trkpt lat="36.87501570447564" lon="14.94869426937762"><ele>129.16666666666666</ele><time>2026-03-28T17:05:40.999Z</time></trkpt><trkpt lat="36.87494294775054" lon="14.948654988602428"><ele>129.33333333333334</ele><time>2026-03-28T17:05:41.999Z</time></trkpt><trkpt lat="36.87487819938288" lon="14.948625943447835"><ele>129.5</ele><time>2026-03-28T17:05:42.999Z</time></trkpt><trkpt lat="36.87481348279484" lon="14.948630034304085"><ele>129.66666666666669</ele><time>2026-03-28T17:05:43.999Z</time></trkpt><trkpt lat="36.87471312952315" lon="14.94866984243883"><ele>129.83333333333334</ele><time>2026-03-28T17:05:45.999Z</time></trkpt><trkpt lat="36.87464727608053" lon="14.948667982190004"><ele>130.0</ele><time>2026-03-28T17:05:48.999Z</time></trkpt><trkpt lat="36.87466779518932" lon="14.948543640103765"><ele>130.0</ele><time>2026-03-28T17:05:49.999Z</time></trkpt><trkpt lat="36.87469238574507" lon="14.948466676707739"><ele>130.0</ele><time>2026-03-28T17:05:50.999Z</time></trkpt><trkpt lat="36.874728843773134" lon="14.948394169599169"><ele>130.0</ele><time>2026-03-28T17:05:51.999Z</time></trkpt><trkpt lat="36.874767598677394" lon="14.948323912000063"><ele>130.0</ele><time>2026-03-28T17:05:52.999Z</time></trkpt><trkpt lat="36.87480334648302" lon="14.948210574630096"><ele>130.0</ele><time>2026-03-28T17:05:55Z</time></trkpt><trkpt lat="36.87480465272743" lon="14.948126913366986"><ele>130.0</ele><time>2026-03-28T17:05:56Z</time></trkpt><trkpt lat="36.87480515580468" lon="14.94802266093178"><ele>130.8</ele><time>2026-03-28T17:05:57Z</time></trkpt><trkpt lat="36.87480754974191" lon="14.947898046439986"><ele>131.6</ele><time>2026-03-28T17:05:58Z</time></trkpt><trkpt lat="36.87481436195692" lon="14.947770082355156"><ele>132.4</ele><time>2026-03-28T17:05:59Z</time></trkpt><trkpt lat="36.874820596493166" lon="14.947630777794744"><ele>133.2</ele><time>2026-03-28T17:06:00Z</time></trkpt><trkpt lat="36.87481892740526" lon="14.947486173424041"><ele>134.0</ele><time>2026-03-28T17:06:01Z</time></trkpt><trkpt lat="36.874807777166254" lon="14.947362442766861"><ele>134.6</ele><time>2026-03-28T17:06:02Z</time></trkpt><trkpt lat="36.874797736366524" lon="14.94724133121795"><ele>135.2</ele><time>2026-03-28T17:06:03Z</time></trkpt><trkpt lat="36.87478911076949" lon="14.947128669866828"><ele>135.79999999999998</ele><time>2026-03-28T17:06:04Z</time></trkpt><trkpt lat="36.87476332157359" lon="14.947027356160154"><ele>136.4</ele><time>2026-03-28T17:06:05Z</time></trkpt><trkpt lat="36.874713461855485" lon="14.946933057010876"><ele>137.0</ele><time>2026-03-28T17:06:06Z</time></trkpt><trkpt lat="36.87464361897926" lon="14.946832733711798"><ele>137.0</ele><time>2026-03-28T17:06:07Z</time></trkpt><trkpt lat="36.874562925619045" lon="14.946724810969894"><ele>137.0</ele><time>2026-03-28T17:06:08Z</time></trkpt><trkpt lat="36.87445791277798" lon="14.946619584149131"><ele>137.0</ele><time>2026-03-28T17:06:09Z</time></trkpt><trkpt lat="36.87433377706108" lon="14.946526974003218"><ele>137.0</ele><time>2026-03-28T17:06:10Z</time></trkpt><trkpt lat="36.874204424364365" lon="14.946422578436515"><ele>135.25</ele><time>2026-03-28T17:06:11Z</time></trkpt><trkpt lat="36.87407436242649" lon="14.94631230823244"><ele>133.5</ele><time>2026-03-28T17:06:12Z</time></trkpt><trkpt lat="36.87395779238086" lon="14.9462090720256"><ele>131.75</ele><time>2026-03-28T17:06:13Z</time></trkpt><trkpt lat="36.873839348489895" lon="14.946099887871496"><ele>130.0</ele><time>2026-03-28T17:06:14Z</time></trkpt><trkpt lat="36.87371963567158" lon="14.945981643169059"><ele>130.33333333333334</ele><time>2026-03-28T17:06:15Z</time></trkpt><trkpt lat="36.87358658500638" lon="14.94586774110031"><ele>130.66666666666666</ele><time>2026-03-28T17:06:16Z</time></trkpt><trkpt lat="36.873441567895576" lon="14.945754844209448"><ele>131.0</ele><time>2026-03-28T17:06:17Z</time></trkpt><trkpt lat="36.87330847555826" lon="14.945646862891946"><ele>131.0</ele><time>2026-03-28T17:06:18Z</time></trkpt><trkpt lat="36.873196519971714" lon="14.945556718654036"><ele>131.0</ele><time>2026-03-28T17:06:19Z</time></trkpt><trkpt lat="36.87309949520897" lon="14.945488597019958"><ele>131.0</ele><time>2026-03-28T17:06:20Z</time></trkpt><trkpt lat="36.87297601166384" lon="14.945436828500316"><ele>131.0</ele><time>2026-03-28T17:06:21Z</time></trkpt><trkpt lat="36.87283073073775" lon="14.94538556859422"><ele>131.0</ele><time>2026-03-28T17:06:22Z</time></trkpt><trkpt lat="36.872653875226895" lon="14.945326654181198"><ele>131.0</ele><time>2026-03-28T17:06:23Z</time></trkpt><trkpt lat="36.87248516493165" lon="14.945261953368503"><ele>131.0</ele><time>2026-03-28T17:06:24Z</time></trkpt><trkpt lat="36.87230177576546" lon="14.94519242300083"><ele>131.75</ele><time>2026-03-28T17:06:25Z</time></trkpt><trkpt lat="36.87215098537762" lon="14.945138126176367"><ele>132.5</ele><time>2026-03-28T17:06:26Z</time></trkpt><trkpt lat="36.872031725280436" lon="14.945100711835382"><ele>133.25</ele><time>2026-03-28T17:06:27Z</time></trkpt><trkpt lat="36.87193398323519" lon="14.945070322722524"><ele>134.0</ele><time>2026-03-28T17:06:28Z</time></trkpt><trkpt lat="36.87184382844138" lon="14.94504027316595"><ele>134.16666666666666</ele><time>2026-03-28T17:06:29Z</time></trkpt><trkpt lat="36.87177092859986" lon="14.945012920966027"><ele>134.33333333333331</ele><time>2026-03-28T17:06:30Z</time></trkpt><trkpt lat="36.871668271270764" lon="14.944979564843683"><ele>134.5</ele><time>2026-03-28T17:06:32Z</time></trkpt><trkpt lat="36.87160133369021" lon="14.945015378322465"><ele>134.66666666666666</ele><time>2026-03-28T17:06:35Z</time></trkpt><trkpt lat="36.87156037527839" lon="14.945091446451794"><ele>134.83333333333334</ele><time>2026-03-28T17:06:36Z</time></trkpt><trkpt lat="36.87153196580808" lon="14.945216921917455"><ele>135.0</ele><time>2026-03-28T17:06:37Z</time></trkpt><trkpt lat="36.87151995844566" lon="14.945373457846957"><ele>135.0</ele><time>2026-03-28T17:06:38Z</time></trkpt><trkpt lat="36.87150595304124" lon="14.94552997580091"><ele>135.0</ele><time>2026-03-28T17:06:39Z</time></trkpt><trkpt lat="36.871477153079816" lon="14.945679074212139"><ele>135.0</ele><time>2026-03-28T17:06:40Z</time></trkpt><trkpt lat="36.87144257809208" lon="14.945832280457559"><ele>135.0</ele><time>2026-03-28T17:06:41Z</time></trkpt><trkpt lat="36.871410427815" lon="14.945977424678508"><ele>134.2</ele><time>2026-03-28T17:06:42Z</time></trkpt><trkpt lat="36.8713847362621" lon="14.946117392749342"><ele>133.4</ele><time>2026-03-28T17:06:43Z</time></trkpt><trkpt lat="36.87134270092176" lon="14.946240066620126"><ele>132.6</ele><time>2026-03-28T17:06:44Z</time></trkpt><trkpt lat="36.871304473354876" lon="14.946352685068675"><ele>131.8</ele><time>2026-03-28T17:06:45Z</time></trkpt><trkpt lat="36.8712611196754" lon="14.946471702761865"><ele>131.0</ele><time>2026-03-28T17:06:46Z</time></trkpt><trkpt lat="36.87118802236489" lon="14.946561052212546"><ele>131.0</ele><time>2026-03-28T17:06:47Z</time></trkpt><trkpt lat="36.87110462402719" lon="14.94662704115574"><ele>131.0</ele><time>2026-03-28T17:06:48Z</time></trkpt><trkpt lat="36.87100829640973" lon="14.94667766402963"><ele>131.0</ele><time>2026-03-28T17:06:49Z</time></trkpt><trkpt lat="36.87090035748485" lon="14.94671176429836"><ele>131.0</ele><time>2026-03-28T17:06:50Z</time></trkpt><trkpt lat="36.87078470330832" lon="14.946702695330572"><ele>131.0</ele><time>2026-03-28T17:06:51Z</time></trkpt><trkpt lat="36.87068521607506" lon="14.946714938154578"><ele>130.4</ele><time>2026-03-28T17:06:52Z</time></trkpt><trkpt lat="36.870591330273896" lon="14.94674659124011"><ele>129.8</ele><time>2026-03-28T17:06:53Z</time></trkpt><trkpt lat="36.870491744780765" lon="14.946756808955222"><ele>129.20000000000002</ele><time>2026-03-28T17:06:54Z</time></trkpt><trkpt lat="36.87038837407588" lon="14.946759954641443"><ele>128.6</ele><time>2026-03-28T17:06:55Z</time></trkpt><trkpt lat="36.87029027095203" lon="14.946769205608378"><ele>128.0</ele><time>2026-03-28T17:06:56Z</time></trkpt><trkpt lat="36.8701958458613" lon="14.946775419250725"><ele>127.25</ele><time>2026-03-28T17:06:57Z</time></trkpt><trkpt lat="36.87009920986641" lon="14.94679061606827"><ele>126.5</ele><time>2026-03-28T17:06:58Z</time></trkpt><trkpt lat="36.86999188257103" lon="14.946804170401823"><ele>125.75</ele><time>2026-03-28T17:06:59Z</time></trkpt><trkpt lat="36.86985565938906" lon="14.946829056361441"><ele>125.0</ele><time>2026-03-28T17:07:00Z</time></trkpt><trkpt lat="36.86970002963462" lon="14.946845891804323"><ele>125.0</ele><time>2026-03-28T17:07:01Z</time></trkpt><trkpt lat="36.869538503666924" lon="14.946867723699553"><ele>125.0</ele><time>2026-03-28T17:07:02Z</time></trkpt><trkpt lat="36.869401245693545" lon="14.946885998407014"><ele>125.0</ele><time>2026-03-28T17:07:03Z</time></trkpt><trkpt lat="36.86927001023352" lon="14.94690245332626"><ele>125.0</ele><time>2026-03-28T17:07:04Z</time></trkpt><trkpt lat="36.869144597508516" lon="14.94691534347127"><ele>124.0</ele><time>2026-03-28T17:07:05Z</time></trkpt><trkpt lat="36.869008572758055" lon="14.946944931558305"><ele>123.0</ele><time>2026-03-28T17:07:06Z</time></trkpt><trkpt lat="36.86885890382019" lon="14.946971714957686"><ele>122.0</ele><time>2026-03-28T17:07:07Z</time></trkpt><trkpt lat="36.86870493358236" lon="14.946991684430515"><ele>121.0</ele><time>2026-03-28T17:07:08Z</time></trkpt><trkpt lat="36.868554694576545" lon="14.94700033482909"><ele>119.66666666666667</ele><time>2026-03-28T17:07:09Z</time></trkpt><trkpt lat="36.86838721839052" lon="14.947017789544082"><ele>118.33333333333334</ele><time>2026-03-28T17:07:10Z</time></trkpt><trkpt lat="36.86821852470689" lon="14.947044611809437"><ele>117.0</ele><time>2026-03-28T17:07:11Z</time></trkpt><trkpt lat="36.86805732175211" lon="14.947093498908375"><ele>117.0</ele><time>2026-03-28T17:07:12Z</time></trkpt><trkpt lat="36.86790670043118" lon="14.947148653675328"><ele>117.0</ele><time>2026-03-28T17:07:13Z</time></trkpt><trkpt lat="36.867764287119265" lon="14.947187816467913"><ele>117.0</ele><time>2026-03-28T17:07:14Z</time></trkpt><trkpt lat="36.867626022659536" lon="14.947214036828871"><ele>117.0</ele><time>2026-03-28T17:07:15Z</time></trkpt><trkpt lat="36.86749310327004" lon="14.947240766387331"><ele>114.25</ele><time>2026-03-28T17:07:16Z</time></trkpt><trkpt lat="36.867358889850685" lon="14.947255076387265"><ele>111.5</ele><time>2026-03-28T17:07:17Z</time></trkpt><trkpt lat="36.86721863423665" lon="14.947246667633445"><ele>108.75</ele><time>2026-03-28T17:07:18Z</time></trkpt><trkpt lat="36.86708582637717" lon="14.947204332910779"><ele>106.0</ele><time>2026-03-28T17:07:19Z</time></trkpt><trkpt lat="36.86696662119555" lon="14.947172217550992"><ele>106.0</ele><time>2026-03-28T17:07:20Z</time></trkpt><trkpt lat="36.866865008384586" lon="14.947158755997414"><ele>106.0</ele><time>2026-03-28T17:07:21Z</time></trkpt><trkpt lat="36.86676980042384" lon="14.947179449881538"><ele>106.0</ele><time>2026-03-28T17:07:22Z</time></trkpt><trkpt lat="36.866691867475566" lon="14.947229542445228"><ele>106.0</ele><time>2026-03-28T17:07:23Z</time></trkpt><trkpt lat="36.866617420272455" lon="14.947323861139552"><ele>106.0</ele><time>2026-03-28T17:07:24Z</time></trkpt><trkpt lat="36.86653061244963" lon="14.947464570234755"><ele>105.0</ele><time>2026-03-28T17:07:25Z</time></trkpt><trkpt lat="36.86644443618082" lon="14.947616091415426"><ele>104.0</ele><time>2026-03-28T17:07:26Z</time></trkpt><trkpt lat="36.86636664372031" lon="14.947752941767972"><ele>103.0</ele><time>2026-03-28T17:07:26.999Z</time></trkpt><trkpt lat="36.86630427766244" lon="14.947875645531939"><ele>102.0</ele><time>2026-03-28T17:07:27.999Z</time></trkpt><trkpt lat="36.866273264731866" lon="14.947997052182442"><ele>102.0</ele><time>2026-03-28T17:07:28.999Z</time></trkpt><trkpt lat="36.86626866520249" lon="14.948117297449645"><ele>102.0</ele><time>2026-03-28T17:07:29.999Z</time></trkpt><trkpt lat="36.86628708113577" lon="14.948225043942998"><ele>102.0</ele><time>2026-03-28T17:07:30.999Z</time></trkpt><trkpt lat="36.86633004825309" lon="14.94832232968839"><ele>102.0</ele><time>2026-03-28T17:07:31.999Z</time></trkpt><trkpt lat="36.866398109858146" lon="14.948435209042303"><ele>102.0</ele><time>2026-03-28T17:07:32.999Z</time></trkpt><trkpt lat="36.86648456674858" lon="14.948570674356139"><ele>102.39999999999999</ele><time>2026-03-28T17:07:33.999Z</time></trkpt><trkpt lat="36.86655099089641" lon="14.94870891091644"><ele>102.8</ele><time>2026-03-28T17:07:34.999Z</time></trkpt><trkpt lat="36.86658982196076" lon="14.948828545633436"><ele>103.2</ele><time>2026-03-28T17:07:35.999Z</time></trkpt><trkpt lat="36.86659415884852" lon="14.948940694591352"><ele>103.6</ele><time>2026-03-28T17:07:36.999Z</time></trkpt><trkpt lat="36.866566707458134" lon="14.94904673543397"><ele>104.0</ele><time>2026-03-28T17:07:37.999Z</time></trkpt><trkpt lat="36.86650112656076" lon="14.949143429231405"><ele>105.0</ele><time>2026-03-28T17:07:38.999Z</time></trkpt><trkpt lat="36.866395501568974" lon="14.94924846663508"><ele>106.0</ele><time>2026-03-28T17:07:39.999Z</time></trkpt><trkpt lat="36.8662675252783" lon="14.94937015791824"><ele>107.0</ele><time>2026-03-28T17:07:40.999Z</time></trkpt><trkpt lat="36.86612396720715" lon="14.949508542426301"><ele>107.0</ele><time>2026-03-28T17:07:41.999Z</time></trkpt><trkpt lat="36.86596534912123" lon="14.949660592160807"><ele>107.0</ele><time>2026-03-28T17:07:42.999Z</time></trkpt><trkpt lat="36.86579290416904" lon="14.949825556158821"><ele>107.0</ele><time>2026-03-28T17:07:43.999Z</time></trkpt><trkpt lat="36.865613908193325" lon="14.949998570089132"><ele>112.5</ele><time>2026-03-28T17:07:44.999Z</time></trkpt><trkpt lat="36.865418323114106" lon="14.950188582703229"><ele>118.0</ele><time>2026-03-28T17:07:45.999Z</time></trkpt><trkpt lat="36.86520882724116" lon="14.950385846142558"><ele>119.5</ele><time>2026-03-28T17:07:46.999Z</time></trkpt><trkpt lat="36.8650135320555" lon="14.95057725321398"><ele>121.0</ele><time>2026-03-28T17:07:47.999Z</time></trkpt><trkpt lat="36.864811488709" lon="14.950775616489624"><ele>120.5</ele><time>2026-03-28T17:07:48.999Z</time></trkpt><trkpt lat="36.864615443136145" lon="14.950973939605273"><ele>120.0</ele><time>2026-03-28T17:07:49.999Z</time></trkpt><trkpt lat="36.86440292021507" lon="14.951186688105"><ele>125.5</ele><time>2026-03-28T17:07:50.999Z</time></trkpt><trkpt lat="36.864188050888465" lon="14.951403493785179"><ele>131.0</ele><time>2026-03-28T17:07:51.999Z</time></trkpt><trkpt lat="36.863996247582556" lon="14.951599088520373"><ele>129.0</ele><time>2026-03-28T17:07:52.999Z</time></trkpt><trkpt lat="36.86380689615123" lon="14.951789769826762"><ele>127.0</ele><time>2026-03-28T17:07:53.999Z</time></trkpt><trkpt lat="36.86360915666713" lon="14.95194858064851"><ele>128.66666666666669</ele><time>2026-03-28T17:07:54.999Z</time></trkpt><trkpt lat="36.863442664206964" lon="14.952111074092555"><ele>130.33333333333334</ele><time>2026-03-28T17:07:55.999Z</time></trkpt><trkpt lat="36.86329139504026" lon="14.95225990141578"><ele>132.0</ele><time>2026-03-28T17:07:56.999Z</time></trkpt><trkpt lat="36.86315320438127" lon="14.952394928891062"><ele>132.0</ele><time>2026-03-28T17:07:57.999Z</time></trkpt><trkpt lat="36.863018721018086" lon="14.952516948063673"><ele>132.0</ele><time>2026-03-28T17:07:58.999Z</time></trkpt><trkpt lat="36.862880356417946" lon="14.952616546772676"><ele>132.0</ele><time>2026-03-28T17:07:59.999Z</time></trkpt><trkpt lat="36.8627220994596" lon="14.952701628840455"><ele>131.66666666666666</ele><time>2026-03-28T17:08:01Z</time></trkpt><trkpt lat="36.862539896026334" lon="14.952787237849181"><ele>131.33333333333331</ele><time>2026-03-28T17:08:02Z</time></trkpt><trkpt lat="36.862333816949054" lon="14.95288398473083"><ele>131.0</ele><time>2026-03-28T17:08:03Z</time></trkpt><trkpt lat="36.862127084241074" lon="14.953003804544798"><ele>131.0</ele><time>2026-03-28T17:08:04Z</time></trkpt><trkpt lat="36.861917712006736" lon="14.95310636578546"><ele>131.0</ele><time>2026-03-28T17:08:05Z</time></trkpt><trkpt lat="36.86169981497353" lon="14.953211531354961"><ele>131.5</ele><time>2026-03-28T17:08:06Z</time></trkpt><trkpt lat="36.86147721956031" lon="14.953318641130153"><ele>132.0</ele><time>2026-03-28T17:08:07Z</time></trkpt><trkpt lat="36.86125245637854" lon="14.953427863112985"><ele>132.0</ele><time>2026-03-28T17:08:08Z</time></trkpt><trkpt lat="36.86104506864352" lon="14.95352757250026"><ele>132.0</ele><time>2026-03-28T17:08:09Z</time></trkpt><trkpt lat="36.86084063327159" lon="14.953605911610987"><ele>132.0</ele><time>2026-03-28T17:08:10Z</time></trkpt><trkpt lat="36.860641509643145" lon="14.953702553957532"><ele>132.0</ele><time>2026-03-28T17:08:11Z</time></trkpt><trkpt lat="36.86044383576548" lon="14.953819613482883"><ele>132.0</ele><time>2026-03-28T17:08:12Z</time></trkpt><trkpt lat="36.86022901547763" lon="14.953918114564456"><ele>132.0</ele><time>2026-03-28T17:08:13Z</time></trkpt><trkpt lat="36.86000435521663" lon="14.954004238596058"><ele>132.0</ele><time>2026-03-28T17:08:14Z</time></trkpt><trkpt lat="36.85980452216209" lon="14.954098660026643"><ele>132.0</ele><time>2026-03-28T17:08:15Z</time></trkpt><trkpt lat="36.85960662801391" lon="14.95419300393955"><ele>132.0</ele><time>2026-03-28T17:08:16Z</time></trkpt><trkpt lat="36.859407996955134" lon="14.954287699195556"><ele>132.66666666666666</ele><time>2026-03-28T17:08:17Z</time></trkpt><trkpt lat="36.859208244134884" lon="14.954382929225645"><ele>133.33333333333331</ele><time>2026-03-28T17:08:18Z</time></trkpt><trkpt lat="36.85901189517157" lon="14.954496713263579"><ele>134.0</ele><time>2026-03-28T17:08:19Z</time></trkpt><trkpt lat="36.85880706494365" lon="14.954571294622886"><ele>134.0</ele><time>2026-03-28T17:08:20Z</time></trkpt><trkpt lat="36.858611457017105" lon="14.954665312473338"><ele>134.0</ele><time>2026-03-28T17:08:21Z</time></trkpt><trkpt lat="36.858429287384034" lon="14.954754305924672"><ele>134.0</ele><time>2026-03-28T17:08:22Z</time></trkpt><trkpt lat="36.858261344989245" lon="14.954836360255346"><ele>133.66666666666666</ele><time>2026-03-28T17:08:23Z</time></trkpt><trkpt lat="36.858097126947754" lon="14.954916604603246"><ele>133.33333333333334</ele><time>2026-03-28T17:08:24Z</time></trkpt><trkpt lat="36.85794172414386" lon="14.954988495927683"><ele>133.0</ele><time>2026-03-28T17:08:25Z</time></trkpt><trkpt lat="36.85780451684145" lon="14.955059480442918"><ele>133.0</ele><time>2026-03-28T17:08:26Z</time></trkpt><trkpt lat="36.85770275799656" lon="14.955139549809774"><ele>133.0</ele><time>2026-03-28T17:08:27Z</time></trkpt><trkpt lat="36.8576068482295" lon="14.955204959663014"><ele>133.0</ele><time>2026-03-28T17:08:28Z</time></trkpt><trkpt lat="36.85752087751067" lon="14.955286522804165"><ele>133.0</ele><time>2026-03-28T17:08:29Z</time></trkpt><trkpt lat="36.857430731804" lon="14.955396603931801"><ele>133.66666666666669</ele><time>2026-03-28T17:08:30Z</time></trkpt><trkpt lat="36.85731967824577" lon="14.95553940191147"><ele>134.33333333333334</ele><time>2026-03-28T17:08:31Z</time></trkpt><trkpt lat="36.85718940139052" lon="14.955709472356242"><ele>135.0</ele><time>2026-03-28T17:08:32Z</time></trkpt><trkpt lat="36.85704454306182" lon="14.955907756762619"><ele>134.0</ele><time>2026-03-28T17:08:33Z</time></trkpt><trkpt lat="36.856870732338834" lon="14.95611286172731"><ele>133.0</ele><time>2026-03-28T17:08:34Z</time></trkpt><trkpt lat="36.85670195085676" lon="14.956338889174415"><ele>133.0</ele><time>2026-03-28T17:08:35Z</time></trkpt><trkpt lat="36.85652834705321" lon="14.956570877875661"><ele>133.0</ele><time>2026-03-28T17:08:36Z</time></trkpt><trkpt lat="36.8563504429763" lon="14.95680861308362"><ele>132.0</ele><time>2026-03-28T17:08:37Z</time></trkpt><trkpt lat="36.85618615469525" lon="14.95702815333412"><ele>131.0</ele><time>2026-03-28T17:08:38Z</time></trkpt><trkpt lat="36.85603288596962" lon="14.957232968058689"><ele>131.33333333333331</ele><time>2026-03-28T17:08:39Z</time></trkpt><trkpt lat="36.855878704215144" lon="14.957439429505087"><ele>131.66666666666666</ele><time>2026-03-28T17:08:40Z</time></trkpt><trkpt lat="36.85572704382574" lon="14.957643003939959"><ele>132.0</ele><time>2026-03-28T17:08:41Z</time></trkpt><trkpt lat="36.85558362021915" lon="14.957835522075682"><ele>131.0</ele><time>2026-03-28T17:08:42Z</time></trkpt><trkpt lat="36.85543619956085" lon="14.958033405502771"><ele>130.0</ele><time>2026-03-28T17:08:43Z</time></trkpt><trkpt lat="36.855295902754904" lon="14.958221726552152"><ele>129.0</ele><time>2026-03-28T17:08:44Z</time></trkpt><trkpt lat="36.85516690314932" lon="14.95839368987702"><ele>129.33333333333334</ele><time>2026-03-28T17:08:45Z</time></trkpt><trkpt lat="36.85503894065381" lon="14.958556095919555"><ele>129.66666666666669</ele><time>2026-03-28T17:08:46Z</time></trkpt><trkpt lat="36.85491812562217" lon="14.958725966811901"><ele>130.0</ele><time>2026-03-28T17:08:47Z</time></trkpt><trkpt lat="36.8548176851589" lon="14.958931773642174"><ele>130.0</ele><time>2026-03-28T17:08:48Z</time></trkpt><trkpt lat="36.854711548426984" lon="14.959161098256292"><ele>130.0</ele><time>2026-03-28T17:08:49Z</time></trkpt><trkpt lat="36.85460402727771" lon="14.959424059729189"><ele>130.0</ele><time>2026-03-28T17:08:50Z</time></trkpt><trkpt lat="36.85449490489481" lon="14.959702127859643"><ele>128.0</ele><time>2026-03-28T17:08:51Z</time></trkpt><trkpt lat="36.854382366002916" lon="14.959981835905953"><ele>126.0</ele><time>2026-03-28T17:08:52Z</time></trkpt><trkpt lat="36.85426642783379" lon="14.960266348165394"><ele>125.0</ele><time>2026-03-28T17:08:53Z</time></trkpt><trkpt lat="36.85415717025297" lon="14.960536943196042"><ele>124.0</ele><time>2026-03-28T17:08:54Z</time></trkpt><trkpt lat="36.85406121906163" lon="14.960783450131785"><ele>122.66666666666667</ele><time>2026-03-28T17:08:55Z</time></trkpt><trkpt lat="36.853949145700525" lon="14.961007320012728"><ele>121.33333333333334</ele><time>2026-03-28T17:08:56Z</time></trkpt><trkpt lat="36.85386535646299" lon="14.961255469773896"><ele>120.0</ele><time>2026-03-28T17:08:57Z</time></trkpt><trkpt lat="36.85375714862434" lon="14.961506204631391"><ele>119.0</ele><time>2026-03-28T17:08:58Z</time></trkpt><trkpt lat="36.85364673399334" lon="14.96177028966746"><ele>118.0</ele><time>2026-03-28T17:08:59Z</time></trkpt><trkpt lat="36.85353508192963" lon="14.962045167693125"><ele>118.5</ele><time>2026-03-28T17:09:00Z</time></trkpt><trkpt lat="36.85342460489243" lon="14.962324338174698"><ele>119.0</ele><time>2026-03-28T17:09:01Z</time></trkpt><trkpt lat="36.853315264084195" lon="14.962597020387832"><ele>118.0</ele><time>2026-03-28T17:09:02Z</time></trkpt><trkpt lat="36.85321047049558" lon="14.962863275893232"><ele>117.0</ele><time>2026-03-28T17:09:03Z</time></trkpt><trkpt lat="36.85308147493932" lon="14.96312761931886"><ele>115.5</ele><time>2026-03-28T17:09:04Z</time></trkpt><trkpt lat="36.85298156954958" lon="14.963406899061898"><ele>114.0</ele><time>2026-03-28T17:09:05Z</time></trkpt><trkpt lat="36.85288024791776" lon="14.963656849869285"><ele>114.0</ele><time>2026-03-28T17:09:06Z</time></trkpt><trkpt lat="36.85278510037579" lon="14.963893131268671"><ele>114.0</ele><time>2026-03-28T17:09:07Z</time></trkpt><trkpt lat="36.85269423997577" lon="14.964120246430898"><ele>114.0</ele><time>2026-03-28T17:09:08Z</time></trkpt><trkpt lat="36.85259529836502" lon="14.964355120933742"><ele>113.0</ele><time>2026-03-28T17:09:09Z</time></trkpt><trkpt lat="36.85249611860163" lon="14.96460285817482"><ele>112.0</ele><time>2026-03-28T17:09:10Z</time></trkpt><trkpt lat="36.852376533205934" lon="14.964849499520808"><ele>111.0</ele><time>2026-03-28T17:09:11Z</time></trkpt><trkpt lat="36.85226983802954" lon="14.965109411534584"><ele>110.0</ele><time>2026-03-28T17:09:12Z</time></trkpt><trkpt lat="36.85215897579007" lon="14.965379474692599"><ele>110.0</ele><time>2026-03-28T17:09:13Z</time></trkpt><trkpt lat="36.85204540596449" lon="14.96565613352881"><ele>110.0</ele><time>2026-03-28T17:09:14Z</time></trkpt><trkpt lat="36.85192869783852" lon="14.96594043736566"><ele>110.0</ele><time>2026-03-28T17:09:15Z</time></trkpt><trkpt lat="36.851830290385315" lon="14.966228561208018"><ele>110.0</ele><time>2026-03-28T17:09:16Z</time></trkpt><trkpt lat="36.85171346407635" lon="14.96650630092969"><ele>108.0</ele><time>2026-03-28T17:09:17Z</time></trkpt><trkpt lat="36.85159709076147" lon="14.96678712669105"><ele>106.0</ele><time>2026-03-28T17:09:18Z</time></trkpt><trkpt lat="36.85148411261002" lon="14.967070088021"><ele>106.0</ele><time>2026-03-28T17:09:19Z</time></trkpt><trkpt lat="36.85135550097545" lon="14.967338294286389"><ele>106.0</ele><time>2026-03-28T17:09:20Z</time></trkpt><trkpt lat="36.85125621081259" lon="14.967622140624783"><ele>105.5</ele><time>2026-03-28T17:09:21Z</time></trkpt><trkpt lat="36.85114239945208" lon="14.96790086043047"><ele>105.0</ele><time>2026-03-28T17:09:22Z</time></trkpt><trkpt lat="36.85103426616219" lon="14.968171846047568"><ele>105.0</ele><time>2026-03-28T17:09:23Z</time></trkpt><trkpt lat="36.850940560290184" lon="14.968453834278716"><ele>105.0</ele><time>2026-03-28T17:09:24Z</time></trkpt><trkpt lat="36.850858268882156" lon="14.968747148485113"><ele>105.0</ele><time>2026-03-28T17:09:25Z</time></trkpt><trkpt lat="36.85078068285018" lon="14.969042759008607"><ele>105.0</ele><time>2026-03-28T17:09:26Z</time></trkpt><trkpt lat="36.8507062239323" lon="14.969346266747008"><ele>104.0</ele><time>2026-03-28T17:09:27Z</time></trkpt><trkpt lat="36.85062940541773" lon="14.969635072174663"><ele>103.0</ele><time>2026-03-28T17:09:28Z</time></trkpt><trkpt lat="36.85055004208646" lon="14.969920443186048"><ele>102.5</ele><time>2026-03-28T17:09:29Z</time></trkpt><trkpt lat="36.850468969118054" lon="14.970209774774482"><ele>102.0</ele><time>2026-03-28T17:09:30Z</time></trkpt><trkpt lat="36.85038739210367" lon="14.970509304141665"><ele>102.0</ele><time>2026-03-28T17:09:31Z</time></trkpt><trkpt lat="36.85031448508242" lon="14.970793927932773"><ele>102.0</ele><time>2026-03-28T17:09:32Z</time></trkpt><trkpt lat="36.85024543632429" lon="14.97106888313737"><ele>102.0</ele><time>2026-03-28T17:09:33Z</time></trkpt><trkpt lat="36.850170807914566" lon="14.971351772090404"><ele>102.0</ele><time>2026-03-28T17:09:34Z</time></trkpt><trkpt lat="36.85008863678092" lon="14.971637656574902"><ele>102.0</ele><time>2026-03-28T17:09:34.999Z</time></trkpt><trkpt lat="36.850005808706804" lon="14.971927567071"><ele>102.0</ele><time>2026-03-28T17:09:35.999Z</time></trkpt><trkpt lat="36.849923970009264" lon="14.972222203590704"><ele>102.0</ele><time>2026-03-28T17:09:36.999Z</time></trkpt><trkpt lat="36.84984060382171" lon="14.972521264786433"><ele>102.0</ele><time>2026-03-28T17:09:37.999Z</time></trkpt><trkpt lat="36.84976298298831" lon="14.9728217828981"><ele>100.5</ele><time>2026-03-28T17:09:38.999Z</time></trkpt><trkpt lat="36.84966609226759" lon="14.973115793674227"><ele>99.0</ele><time>2026-03-28T17:09:39.999Z</time></trkpt><trkpt lat="36.849584292164145" lon="14.973413567665425"><ele>98.5</ele><time>2026-03-28T17:09:40.999Z</time></trkpt><trkpt lat="36.84952774569187" lon="14.973702459520057"><ele>98.0</ele><time>2026-03-28T17:09:41.999Z</time></trkpt><trkpt lat="36.84944994513499" lon="14.973970953246148"><ele>97.5</ele><time>2026-03-28T17:09:42.999Z</time></trkpt><trkpt lat="36.84937218604842" lon="14.974248745248872"><ele>97.0</ele><time>2026-03-28T17:09:43.999Z</time></trkpt><trkpt lat="36.84929427882549" lon="14.974538360614151"><ele>96.5</ele><time>2026-03-28T17:09:44.999Z</time></trkpt><trkpt lat="36.849214012999134" lon="14.97482482104046"><ele>96.0</ele><time>2026-03-28T17:09:45.999Z</time></trkpt><trkpt lat="36.84913834400424" lon="14.975104847280544"><ele>95.5</ele><time>2026-03-28T17:09:46.999Z</time></trkpt><trkpt lat="36.849064390142075" lon="14.97538002500675"><ele>95.0</ele><time>2026-03-28T17:09:47.999Z</time></trkpt><trkpt lat="36.84898889541321" lon="14.975653112178618"><ele>95.0</ele><time>2026-03-28T17:09:48.999Z</time></trkpt><trkpt lat="36.848913257058825" lon="14.975927336771454"><ele>95.0</ele><time>2026-03-28T17:09:49.999Z</time></trkpt><trkpt lat="36.848843742263746" lon="14.976187166515466"><ele>95.0</ele><time>2026-03-28T17:09:50.999Z</time></trkpt><trkpt lat="36.84877340086766" lon="14.976445091082818"><ele>95.0</ele><time>2026-03-28T17:09:51.999Z</time></trkpt><trkpt lat="36.84870286799981" lon="14.976703294885032"><ele>95.0</ele><time>2026-03-28T17:09:52.999Z</time></trkpt><trkpt lat="36.848636572959194" lon="14.976955694981141"><ele>95.33333333333334</ele><time>2026-03-28T17:09:53.999Z</time></trkpt><trkpt lat="36.84857286371469" lon="14.977198078783792"><ele>95.66666666666667</ele><time>2026-03-28T17:09:54.999Z</time></trkpt><trkpt lat="36.84850850017905" lon="14.977436067563268"><ele>96.0</ele><time>2026-03-28T17:09:55.999Z</time></trkpt><trkpt lat="36.848449559909085" lon="14.977652487168054"><ele>95.5</ele><time>2026-03-28T17:09:56.999Z</time></trkpt><trkpt lat="36.84839418737005" lon="14.977852626628529"><ele>95.0</ele><time>2026-03-28T17:09:57.999Z</time></trkpt><trkpt lat="36.84834524451746" lon="14.978031177434028"><ele>94.5</ele><time>2026-03-28T17:09:58.999Z</time></trkpt><trkpt lat="36.84830278150928" lon="14.978176920951405"><ele>94.0</ele><time>2026-03-28T17:09:59.999Z</time></trkpt><trkpt lat="36.84827070854122" lon="14.978299890276936"><ele>93.6</ele><time>2026-03-28T17:10:00.999Z</time></trkpt><trkpt lat="36.84824538211035" lon="14.978399550049552"><ele>93.2</ele><time>2026-03-28T17:10:01.999Z</time></trkpt><trkpt lat="36.84818401442837" lon="14.978498511766187"><ele>92.8</ele><time>2026-03-28T17:10:03.999Z</time></trkpt><trkpt lat="36.84811746722659" lon="14.978499304102161"><ele>92.39999999999999</ele><time>2026-03-28T17:10:04.999Z</time></trkpt><trkpt lat="36.84801684358477" lon="14.978473864448906"><ele>92.0</ele><time>2026-03-28T17:10:05.999Z</time></trkpt><trkpt lat="36.84789611728563" lon="14.97843702182977"><ele>92.0</ele><time>2026-03-28T17:10:07Z</time></trkpt><trkpt lat="36.847773483552324" lon="14.978411760065713"><ele>92.0</ele><time>2026-03-28T17:10:08Z</time></trkpt><trkpt lat="36.84767249491533" lon="14.978381013057726"><ele>92.0</ele><time>2026-03-28T17:10:09Z</time></trkpt><trkpt lat="36.84757458884443" lon="14.978353995750746"><ele>92.0</ele><time>2026-03-28T17:10:10Z</time></trkpt><trkpt lat="36.847470286144706" lon="14.978323402414771"><ele>92.0</ele><time>2026-03-28T17:10:11Z</time></trkpt><trkpt lat="36.84734975517707" lon="14.978281006954235"><ele>90.75</ele><time>2026-03-28T17:10:12Z</time></trkpt><trkpt lat="36.84722916291449" lon="14.978269206208807"><ele>89.5</ele><time>2026-03-28T17:10:13Z</time></trkpt><trkpt lat="36.847111211594886" lon="14.978287565560901"><ele>88.25</ele><time>2026-03-28T17:10:14Z</time></trkpt><trkpt lat="36.84699419155675" lon="14.97831209122524"><ele>87.0</ele><time>2026-03-28T17:10:15Z</time></trkpt><trkpt lat="36.846870971788825" lon="14.978315684337836"><ele>84.75</ele><time>2026-03-28T17:10:16Z</time></trkpt><trkpt lat="36.84674467737439" lon="14.978322210132273"><ele>82.5</ele><time>2026-03-28T17:10:17Z</time></trkpt><trkpt lat="36.846614074462465" lon="14.978340046932473"><ele>80.25</ele><time>2026-03-28T17:10:18Z</time></trkpt><trkpt lat="36.84648226626291" lon="14.978355062048411"><ele>78.0</ele><time>2026-03-28T17:10:19Z</time></trkpt><trkpt lat="36.846349716102196" lon="14.978365844181296"><ele>78.0</ele><time>2026-03-28T17:10:20Z</time></trkpt><trkpt lat="36.84622936705753" lon="14.978377077843222"><ele>78.0</ele><time>2026-03-28T17:10:21Z</time></trkpt><trkpt lat="36.84612083098808" lon="14.978391492505992"><ele>78.0</ele><time>2026-03-28T17:10:22Z</time></trkpt><trkpt lat="36.84601340458539" lon="14.97842259741943"><ele>78.0</ele><time>2026-03-28T17:10:23Z</time></trkpt><trkpt lat="36.845901258525934" lon="14.978478607957967"><ele>77.0</ele><time>2026-03-28T17:10:24Z</time></trkpt><trkpt lat="36.845806661074754" lon="14.97852906994364"><ele>76.0</ele><time>2026-03-28T17:10:25Z</time></trkpt><trkpt lat="36.84572661398588" lon="14.97854703090626"><ele>75.0</ele><time>2026-03-28T17:10:26Z</time></trkpt><trkpt lat="36.845633708295516" lon="14.9785325703723"><ele>74.0</ele><time>2026-03-28T17:10:27Z</time></trkpt><trkpt lat="36.84550338211734" lon="14.978495532508378"><ele>73.0</ele><time>2026-03-28T17:10:28Z</time></trkpt><trkpt lat="36.845373517841345" lon="14.978471708253709"><ele>73.0</ele><time>2026-03-28T17:10:29Z</time></trkpt><trkpt lat="36.845241764801045" lon="14.978482347176696"><ele>73.0</ele><time>2026-03-28T17:10:30Z</time></trkpt><trkpt lat="36.84508467239058" lon="14.978521138621863"><ele>73.0</ele><time>2026-03-28T17:10:31Z</time></trkpt><trkpt lat="36.844933775199046" lon="14.978566594309696"><ele>73.0</ele><time>2026-03-28T17:10:32Z</time></trkpt><trkpt lat="36.84480388362685" lon="14.978599831264983"><ele>71.6</ele><time>2026-03-28T17:10:33Z</time></trkpt><trkpt lat="36.84469107136482" lon="14.978617156060603"><ele>70.19999999999999</ele><time>2026-03-28T17:10:34Z</time></trkpt><trkpt lat="36.844585794729284" lon="14.978626191768752"><ele>68.8</ele><time>2026-03-28T17:10:35Z</time></trkpt><trkpt lat="36.844485247847075" lon="14.978632803319337"><ele>67.39999999999999</ele><time>2026-03-28T17:10:36Z</time></trkpt><trkpt lat="36.84438587239424" lon="14.978644229761493"><ele>66.0</ele><time>2026-03-28T17:10:37Z</time></trkpt><trkpt lat="36.84430097127958" lon="14.978658229867381"><ele>65.75</ele><time>2026-03-28T17:10:38Z</time></trkpt><trkpt lat="36.84421025827881" lon="14.978680489498778"><ele>65.5</ele><time>2026-03-28T17:10:39Z</time></trkpt><trkpt lat="36.84409765131348" lon="14.978718696562309"><ele>65.25</ele><time>2026-03-28T17:10:40Z</time></trkpt><trkpt lat="36.843961432637826" lon="14.978771761381548"><ele>65.0</ele><time>2026-03-28T17:10:41Z</time></trkpt><trkpt lat="36.84381795169904" lon="14.978834621684696"><ele>65.0</ele><time>2026-03-28T17:10:42Z</time></trkpt><trkpt lat="36.843661368066584" lon="14.978910109488298"><ele>65.0</ele><time>2026-03-28T17:10:43Z</time></trkpt><trkpt lat="36.84349915092625" lon="14.978974113981062"><ele>65.0</ele><time>2026-03-28T17:10:44Z</time></trkpt><trkpt lat="36.84332703051404" lon="14.97903079326039"><ele>65.0</ele><time>2026-03-28T17:10:45Z</time></trkpt><trkpt lat="36.84316147591341" lon="14.979078579377642"><ele>65.0</ele><time>2026-03-28T17:10:46Z</time></trkpt><trkpt lat="36.842996378957174" lon="14.979112242689636"><ele>65.0</ele><time>2026-03-28T17:10:47Z</time></trkpt><trkpt lat="36.84284136011228" lon="14.9791165948195"><ele>65.0</ele><time>2026-03-28T17:10:48Z</time></trkpt><trkpt lat="36.84269001222999" lon="14.979100363694752"><ele>65.0</ele><time>2026-03-28T17:10:49Z</time></trkpt><trkpt lat="36.84253870836333" lon="14.979077658580298"><ele>65.0</ele><time>2026-03-28T17:10:50Z</time></trkpt><trkpt lat="36.842383781650085" lon="14.97905985137055"><ele>65.33333333333334</ele><time>2026-03-28T17:10:51Z</time></trkpt><trkpt lat="36.84221087441416" lon="14.979045832959647"><ele>65.66666666666667</ele><time>2026-03-28T17:10:52Z</time></trkpt><trkpt lat="36.84202128736676" lon="14.979033332135284"><ele>66.0</ele><time>2026-03-28T17:10:53Z</time></trkpt><trkpt lat="36.841847274073054" lon="14.979032144884515"><ele>66.33333333333333</ele><time>2026-03-28T17:10:54Z</time></trkpt><trkpt lat="36.8416916521389" lon="14.979050982921828"><ele>66.66666666666666</ele><time>2026-03-28T17:10:55Z</time></trkpt><trkpt lat="36.841542506961986" lon="14.979076335850117"><ele>67.0</ele><time>2026-03-28T17:10:56Z</time></trkpt><trkpt lat="36.84138155364532" lon="14.979118514933493"><ele>67.0</ele><time>2026-03-28T17:10:57Z</time></trkpt><trkpt lat="36.8412226173185" lon="14.979162420584558"><ele>67.0</ele><time>2026-03-28T17:10:58Z</time></trkpt><trkpt lat="36.84106941748576" lon="14.97921142537279"><ele>67.0</ele><time>2026-03-28T17:10:59Z</time></trkpt><trkpt lat="36.84090274260216" lon="14.979266662005733"><ele>64.66666666666666</ele><time>2026-03-28T17:11:00Z</time></trkpt><trkpt lat="36.8407442783488" lon="14.97932082025904"><ele>62.33333333333333</ele><time>2026-03-28T17:11:01Z</time></trkpt><trkpt lat="36.84058122417738" lon="14.979396166426723"><ele>60.0</ele><time>2026-03-28T17:11:02Z</time></trkpt><trkpt lat="36.840433248246775" lon="14.979494390123786"><ele>60.0</ele><time>2026-03-28T17:11:03Z</time></trkpt><trkpt lat="36.840305065228776" lon="14.979605089670088"><ele>60.0</ele><time>2026-03-28T17:11:04Z</time></trkpt><trkpt lat="36.84019457623351" lon="14.979718946686582"><ele>60.0</ele><time>2026-03-28T17:11:05Z</time></trkpt><trkpt lat="36.84009120826761" lon="14.979814692142519"><ele>60.0</ele><time>2026-03-28T17:11:06Z</time></trkpt><trkpt lat="36.83999991032875" lon="14.979880770201131"><ele>59.8</ele><time>2026-03-28T17:11:07Z</time></trkpt><trkpt lat="36.839934455009484" lon="14.97990772367128"><ele>59.6</ele><time>2026-03-28T17:11:08Z</time></trkpt><trkpt lat="36.839859480674164" lon="14.979937752093234"><ele>59.400000000000006</ele><time>2026-03-28T17:11:09Z</time></trkpt><trkpt lat="36.839780190366604" lon="14.979902745504528"><ele>59.2</ele><time>2026-03-28T17:11:10Z</time></trkpt><trkpt lat="36.83968946353438" lon="14.97986249079631"><ele>59.0</ele><time>2026-03-28T17:11:11Z</time></trkpt><trkpt lat="36.83956982948186" lon="14.979810172248715"><ele>59.0</ele><time>2026-03-28T17:11:12Z</time></trkpt><trkpt lat="36.83942556709437" lon="14.979767134652674"><ele>59.0</ele><time>2026-03-28T17:11:13Z</time></trkpt><trkpt lat="36.839263353620794" lon="14.97971462183549"><ele>59.0</ele><time>2026-03-28T17:11:14Z</time></trkpt><trkpt lat="36.839087100171035" lon="14.97965097279482"><ele>59.0</ele><time>2026-03-28T17:11:15Z</time></trkpt><trkpt lat="36.83888799654389" lon="14.979642747753072"><ele>59.0</ele><time>2026-03-28T17:11:16Z</time></trkpt><trkpt lat="36.83868330160425" lon="14.979609476801535"><ele>59.0</ele><time>2026-03-28T17:11:17Z</time></trkpt><trkpt lat="36.8384861207632" lon="14.979570791677771"><ele>59.0</ele><time>2026-03-28T17:11:18Z</time></trkpt><trkpt lat="36.83828402780774" lon="14.979526582700043"><ele>59.0</ele><time>2026-03-28T17:11:19Z</time></trkpt><trkpt lat="36.83810511217938" lon="14.979486032069085"><ele>59.0</ele><time>2026-03-28T17:11:20Z</time></trkpt><trkpt lat="36.83794350932494" lon="14.979441895945032"><ele>59.0</ele><time>2026-03-28T17:11:21Z</time></trkpt><trkpt lat="36.83778669485489" lon="14.979363164028793"><ele>59.0</ele><time>2026-03-28T17:11:22Z</time></trkpt><trkpt lat="36.83762736710652" lon="14.97928567015838"><ele>59.0</ele><time>2026-03-28T17:11:23Z</time></trkpt><trkpt lat="36.83747488813504" lon="14.979207735411123"><ele>61.0</ele><time>2026-03-28T17:11:24Z</time></trkpt><trkpt lat="36.83733617597561" lon="14.979157103513595"><ele>63.0</ele><time>2026-03-28T17:11:25Z</time></trkpt><trkpt lat="36.83720861385561" lon="14.979095182525535"><ele>65.0</ele><time>2026-03-28T17:11:26Z</time></trkpt><trkpt lat="36.83708796924221" lon="14.979017714541575"><ele>67.0</ele><time>2026-03-28T17:11:27Z</time></trkpt><trkpt lat="36.83697010391534" lon="14.978945354891314"><ele>67.0</ele><time>2026-03-28T17:11:28Z</time></trkpt><trkpt lat="36.83686819660224" lon="14.978857225354163"><ele>67.0</ele><time>2026-03-28T17:11:29Z</time></trkpt><trkpt lat="36.83677355447491" lon="14.978755540554939"><ele>67.0</ele><time>2026-03-28T17:11:30Z</time></trkpt><trkpt lat="36.83666548060064" lon="14.978640041758352"><ele>67.0</ele><time>2026-03-28T17:11:31Z</time></trkpt><trkpt lat="36.836568275239244" lon="14.97854427287513"><ele>66.8</ele><time>2026-03-28T17:11:32Z</time></trkpt><trkpt lat="36.836481100754895" lon="14.978484980276136"><ele>66.6</ele><time>2026-03-28T17:11:33Z</time></trkpt><trkpt lat="36.83641832758893" lon="14.978422053234713"><ele>66.39999999999999</ele><time>2026-03-28T17:11:34Z</time></trkpt><trkpt lat="36.83634979991211" lon="14.978323977210252"><ele>66.2</ele><time>2026-03-28T17:11:36Z</time></trkpt><trkpt lat="36.83625615002182" lon="14.978243175184792"><ele>66.0</ele><time>2026-03-28T17:11:38.999Z</time></trkpt><trkpt lat="36.83617946200303" lon="14.97818537156102"><ele>66.0</ele><time>2026-03-28T17:11:39.999Z</time></trkpt><trkpt lat="36.83607795857436" lon="14.978108863224255"><ele>66.0</ele><time>2026-03-28T17:11:40.999Z</time></trkpt><trkpt lat="36.835961376577615" lon="14.978020989521461"><ele>66.0</ele><time>2026-03-28T17:11:41.999Z</time></trkpt><trkpt lat="36.83584938560322" lon="14.97796268928542"><ele>66.0</ele><time>2026-03-28T17:11:42.999Z</time></trkpt><trkpt lat="36.83575862144572" lon="14.977891474935651"><ele>65.0</ele><time>2026-03-28T17:11:43.999Z</time></trkpt><trkpt lat="36.8356754040304" lon="14.977828278102669"><ele>63.99999999999999</ele><time>2026-03-28T17:11:44.999Z</time></trkpt><trkpt lat="36.83558136609053" lon="14.977789041986275"><ele>62.99999999999999</ele><time>2026-03-28T17:11:45.999Z</time></trkpt><trkpt lat="36.83546912623688" lon="14.977754529864074"><ele>62.0</ele><time>2026-03-28T17:11:46.999Z</time></trkpt><trkpt lat="36.8353826242925" lon="14.977711994504668"><ele>61.0</ele><time>2026-03-28T17:11:47.999Z</time></trkpt><trkpt lat="36.835301264355564" lon="14.977639204957908"><ele>61.0</ele><time>2026-03-28T17:11:48.999Z</time></trkpt><trkpt lat="36.835201356424726" lon="14.977541667417741"><ele>61.0</ele><time>2026-03-28T17:11:49.999Z</time></trkpt><trkpt lat="36.83511185167199" lon="14.977444644944178"><ele>61.0</ele><time>2026-03-28T17:11:50.999Z</time></trkpt><trkpt lat="36.835014134963636" lon="14.977350527419867"><ele>61.0</ele><time>2026-03-28T17:11:51.999Z</time></trkpt><trkpt lat="36.834923441111314" lon="14.977278783717074"><ele>62.25</ele><time>2026-03-28T17:11:52.999Z</time></trkpt><trkpt lat="36.83481697434614" lon="14.977218391593876"><ele>63.5</ele><time>2026-03-28T17:11:53.999Z</time></trkpt><trkpt lat="36.83468042442121" lon="14.9771563026729"><ele>64.75</ele><time>2026-03-28T17:11:54.999Z</time></trkpt><trkpt lat="36.83450106880341" lon="14.977091877347997"><ele>66.0</ele><time>2026-03-28T17:11:55.999Z</time></trkpt><trkpt lat="36.834358147454424" lon="14.97703737973414"><ele>66.5</ele><time>2026-03-28T17:11:56.999Z</time></trkpt><trkpt lat="36.83424702829877" lon="14.976987111036276"><ele>67.0</ele><time>2026-03-28T17:11:57.999Z</time></trkpt><trkpt lat="36.83413722891606" lon="14.976935878473716"><ele>67.5</ele><time>2026-03-28T17:11:58.999Z</time></trkpt><trkpt lat="36.83403287768849" lon="14.976883159871246"><ele>68.0</ele><time>2026-03-28T17:11:59.999Z</time></trkpt><trkpt lat="36.833940906853684" lon="14.976819316249658"><ele>68.0</ele><time>2026-03-28T17:12:00.999Z</time></trkpt><trkpt lat="36.833853188723765" lon="14.976742821249765"><ele>68.0</ele><time>2026-03-28T17:12:01.999Z</time></trkpt><trkpt lat="36.833755583483686" lon="14.976636132750748"><ele>68.0</ele><time>2026-03-28T17:12:02.999Z</time></trkpt><trkpt lat="36.83365266875035" lon="14.976506809977915"><ele>68.0</ele><time>2026-03-28T17:12:03.999Z</time></trkpt><trkpt lat="36.833550592809466" lon="14.976372849534574"><ele>68.6</ele><time>2026-03-28T17:12:04.999Z</time></trkpt><trkpt lat="36.83345525226702" lon="14.976234420920676"><ele>69.19999999999999</ele><time>2026-03-28T17:12:05.999Z</time></trkpt><trkpt lat="36.833380727194495" lon="14.976121175642433"><ele>69.8</ele><time>2026-03-28T17:12:06.999Z</time></trkpt><trkpt lat="36.83331537075961" lon="14.976029902516135"><ele>70.39999999999999</ele><time>2026-03-28T17:12:07.999Z</time></trkpt><trkpt lat="36.833255309411" lon="14.975953716960168"><ele>71.0</ele><time>2026-03-28T17:12:08.999Z</time></trkpt><trkpt lat="36.833207574163296" lon="14.975878892498704"><ele>71.5</ele><time>2026-03-28T17:12:09.999Z</time></trkpt><trkpt lat="36.833179778745404" lon="14.975796554937206"><ele>72.0</ele><time>2026-03-28T17:12:10.999Z</time></trkpt><trkpt lat="36.83316697504055" lon="14.975716581855238"><ele>72.5</ele><time>2026-03-28T17:12:11.999Z</time></trkpt><trkpt lat="36.83312511825982" lon="14.975583339756223"><ele>73.0</ele><time>2026-03-28T17:12:14Z</time></trkpt><trkpt lat="36.83306660287429" lon="14.975476116778413"><ele>73.5</ele><time>2026-03-28T17:12:16Z</time></trkpt><trkpt lat="36.833028237779025" lon="14.975410837687535"><ele>74.0</ele><time>2026-03-28T17:12:17Z</time></trkpt><trkpt lat="36.832979197724" lon="14.975337837126029"><ele>74.0</ele><time>2026-03-28T17:12:18Z</time></trkpt><trkpt lat="36.83293102068979" lon="14.975261762654704"><ele>74.0</ele><time>2026-03-28T17:12:19Z</time></trkpt><trkpt lat="36.83288297460782" lon="14.975187488947007"><ele>74.0</ele><time>2026-03-28T17:12:20Z</time></trkpt><trkpt lat="36.83283703782252" lon="14.975116844186807"><ele>74.0</ele><time>2026-03-28T17:12:21Z</time></trkpt><trkpt lat="36.83275005793192" lon="14.975012607667379"><ele>74.0</ele><time>2026-03-28T17:12:23Z</time></trkpt><trkpt lat="36.83269965699343" lon="14.974954491732896"><ele>74.0</ele><time>2026-03-28T17:12:24Z</time></trkpt><trkpt lat="36.832655485863" lon="14.974892819672057"><ele>73.5</ele><time>2026-03-28T17:12:25Z</time></trkpt><trkpt lat="36.83261183033486" lon="14.974831799081336"><ele>73.0</ele><time>2026-03-28T17:12:26Z</time></trkpt><trkpt lat="36.832563951220756" lon="14.97476457635053"><ele>72.5</ele><time>2026-03-28T17:12:27Z</time></trkpt><trkpt lat="36.832515709922454" lon="14.974704619697434"><ele>72.0</ele><time>2026-03-28T17:12:28Z</time></trkpt><trkpt lat="36.83246357024499" lon="14.974654365914702"><ele>71.5</ele><time>2026-03-28T17:12:29Z</time></trkpt><trkpt lat="36.83236314083781" lon="14.974591996433523"><ele>71.0</ele><time>2026-03-28T17:12:31Z</time></trkpt><trkpt lat="36.83227604964581" lon="14.974562675491228"><ele>71.0</ele><time>2026-03-28T17:12:33Z</time></trkpt><trkpt lat="36.83220677599819" lon="14.974556147704066"><ele>71.0</ele><time>2026-03-28T17:12:35Z</time></trkpt><trkpt lat="36.83213869595781" lon="14.974591917419321"><ele>71.0</ele><time>2026-03-28T17:12:38Z</time></trkpt><trkpt lat="36.83206906893629" lon="14.974557458273464"><ele>71.0</ele><time>2026-03-28T17:12:40Z</time></trkpt><trkpt lat="36.832017029029956" lon="14.974503315792921"><ele>71.0</ele><time>2026-03-28T17:12:41Z</time></trkpt><trkpt lat="36.83192727572788" lon="14.974402787836103"><ele>71.0</ele><time>2026-03-28T17:12:42Z</time></trkpt><trkpt lat="36.83184088287097" lon="14.974304421888718"><ele>71.0</ele><time>2026-03-28T17:12:43Z</time></trkpt><trkpt lat="36.83173105052612" lon="14.974217869723345"><ele>71.0</ele><time>2026-03-28T17:12:44Z</time></trkpt><trkpt lat="36.83160366428033" lon="14.974130839987902"><ele>71.0</ele><time>2026-03-28T17:12:45Z</time></trkpt><trkpt lat="36.831487670944" lon="14.97406021612971"><ele>71.0</ele><time>2026-03-28T17:12:46Z</time></trkpt><trkpt lat="36.831362393724824" lon="14.973981696142438"><ele>71.2</ele><time>2026-03-28T17:12:47Z</time></trkpt><trkpt lat="36.83124770138018" lon="14.973911774366224"><ele>71.39999999999999</ele><time>2026-03-28T17:12:48Z</time></trkpt><trkpt lat="36.831155846285895" lon="14.9738556677547"><ele>71.6</ele><time>2026-03-28T17:12:49Z</time></trkpt><trkpt lat="36.83106770922497" lon="14.973803770667983"><ele>71.8</ele><time>2026-03-28T17:12:50Z</time></trkpt><trkpt lat="36.83097410318164" lon="14.973748027735052"><ele>72.0</ele><time>2026-03-28T17:12:51Z</time></trkpt><trkpt lat="36.830869200174654" lon="14.9736816669505"><ele>72.0</ele><time>2026-03-28T17:12:52Z</time></trkpt><trkpt lat="36.830759688576755" lon="14.97361119042624"><ele>72.0</ele><time>2026-03-28T17:12:53Z</time></trkpt><trkpt lat="36.83066217997225" lon="14.973547320709057"><ele>72.0</ele><time>2026-03-28T17:12:54Z</time></trkpt><trkpt lat="36.83058055799518" lon="14.973493452798728"><ele>72.0</ele><time>2026-03-28T17:12:55Z</time></trkpt><trkpt lat="36.83050225258267" lon="14.973445450680432"><ele>72.0</ele><time>2026-03-28T17:12:56Z</time></trkpt><trkpt lat="36.83042616700351" lon="14.97339985471439"><ele>72.0</ele><time>2026-03-28T17:12:57Z</time></trkpt><trkpt lat="36.830350011165926" lon="14.973361442836524"><ele>72.0</ele><time>2026-03-28T17:12:58Z</time></trkpt><trkpt lat="36.83028623953049" lon="14.973335842345472"><ele>72.0</ele><time>2026-03-28T17:12:59Z</time></trkpt><trkpt lat="36.83018549803216" lon="14.97328434101726"><ele>72.0</ele><time>2026-03-28T17:13:01Z</time></trkpt><trkpt lat="36.83010207792826" lon="14.973241759123702"><ele>72.0</ele><time>2026-03-28T17:13:03Z</time></trkpt><trkpt lat="36.83004074477082" lon="14.973176626506461"><ele>72.0</ele><time>2026-03-28T17:13:06Z</time></trkpt><trkpt lat="36.82996708080759" lon="14.973147268609189"><ele>72.8</ele><time>2026-03-28T17:13:09Z</time></trkpt><trkpt lat="36.829892586705505" lon="14.973126821837612"><ele>73.6</ele><time>2026-03-28T17:13:12Z</time></trkpt><trkpt lat="36.82981518642581" lon="14.97312174659896"><ele>74.39999999999999</ele><time>2026-03-28T17:13:25Z</time></trkpt><trkpt lat="36.829753338241495" lon="14.97308925577318"><ele>75.2</ele><time>2026-03-28T17:13:26Z</time></trkpt><trkpt lat="36.8296808435259" lon="14.972999037139076"><ele>76.0</ele><time>2026-03-28T17:13:27Z</time></trkpt><trkpt lat="36.829594447068615" lon="14.972861836355154"><ele>76.0</ele><time>2026-03-28T17:13:28Z</time></trkpt><trkpt lat="36.82948852279937" lon="14.972694793330879"><ele>76.0</ele><time>2026-03-28T17:13:29Z</time></trkpt><trkpt lat="36.82936794953661" lon="14.972506419149592"><ele>76.0</ele><time>2026-03-28T17:13:30Z</time></trkpt><trkpt lat="36.82925672771985" lon="14.972325461917098"><ele>77.0</ele><time>2026-03-28T17:13:31Z</time></trkpt><trkpt lat="36.82917314667306" lon="14.972174366922658"><ele>78.0</ele><time>2026-03-28T17:13:32Z</time></trkpt><trkpt lat="36.82910351230315" lon="14.972029023072842"><ele>79.0</ele><time>2026-03-28T17:13:33Z</time></trkpt><trkpt lat="36.82902393416882" lon="14.971876884087873"><ele>80.0</ele><time>2026-03-28T17:13:34Z</time></trkpt><trkpt lat="36.828924458377095" lon="14.971705409787642"><ele>81.66666666666667</ele><time>2026-03-28T17:13:35Z</time></trkpt><trkpt lat="36.82882594014361" lon="14.971489783520877"><ele>83.33333333333333</ele><time>2026-03-28T17:13:36Z</time></trkpt><trkpt lat="36.82869573087273" lon="14.971240878385245"><ele>85.0</ele><time>2026-03-28T17:13:37Z</time></trkpt><trkpt lat="36.82855886653174" lon="14.970975680918844"><ele>86.5</ele><time>2026-03-28T17:13:38Z</time></trkpt><trkpt lat="36.82839949872537" lon="14.970709417302848"><ele>88.0</ele><time>2026-03-28T17:13:39Z</time></trkpt><trkpt lat="36.82826883474377" lon="14.970417612058185"><ele>88.0</ele><time>2026-03-28T17:13:40Z</time></trkpt><trkpt lat="36.828140489794755" lon="14.970150827733589"><ele>88.0</ele><time>2026-03-28T17:13:41Z</time></trkpt><trkpt lat="36.82800136954653" lon="14.969893116109356"><ele>89.5</ele><time>2026-03-28T17:13:42Z</time></trkpt><trkpt lat="36.82786384431704" lon="14.969630074920621"><ele>91.0</ele><time>2026-03-28T17:13:43Z</time></trkpt><trkpt lat="36.8277294034641" lon="14.96936404027799"><ele>91.0</ele><time>2026-03-28T17:13:43.999Z</time></trkpt><trkpt lat="36.82759220245668" lon="14.969108330976326"><ele>91.0</ele><time>2026-03-28T17:13:44.999Z</time></trkpt><trkpt lat="36.827454113481714" lon="14.968857419118438"><ele>91.0</ele><time>2026-03-28T17:13:45.999Z</time></trkpt><trkpt lat="36.827317821512565" lon="14.968603359095871"><ele>91.0</ele><time>2026-03-28T17:13:46.999Z</time></trkpt><trkpt lat="36.82718641925233" lon="14.968357073685741"><ele>93.5</ele><time>2026-03-28T17:13:47.999Z</time></trkpt><trkpt lat="36.827060037225166" lon="14.968115066670832"><ele>96.0</ele><time>2026-03-28T17:13:48.999Z</time></trkpt><trkpt lat="36.82693702914849" lon="14.967878663885987"><ele>96.0</ele><time>2026-03-28T17:13:49.999Z</time></trkpt><trkpt lat="36.82682687620375" lon="14.967671554553897"><ele>96.0</ele><time>2026-03-28T17:13:50.999Z</time></trkpt><trkpt lat="36.82672823287942" lon="14.967485757614568"><ele>96.0</ele><time>2026-03-28T17:13:51.999Z</time></trkpt><trkpt lat="36.82663710023817" lon="14.967311640830982"><ele>97.33333333333334</ele><time>2026-03-28T17:13:52.999Z</time></trkpt><trkpt lat="36.826540283475474" lon="14.967125347143222"><ele>98.66666666666667</ele><time>2026-03-28T17:13:53.999Z</time></trkpt><trkpt lat="36.826450881414196" lon="14.966957170551149"><ele>100.0</ele><time>2026-03-28T17:13:54.999Z</time></trkpt><trkpt lat="36.826371802623505" lon="14.966803369607183"><ele>100.25</ele><time>2026-03-28T17:13:55.999Z</time></trkpt><trkpt lat="36.826290240258096" lon="14.966640990980315"><ele>100.5</ele><time>2026-03-28T17:13:56.999Z</time></trkpt><trkpt lat="36.82621197273363" lon="14.966484967378054"><ele>100.75</ele><time>2026-03-28T17:13:57.999Z</time></trkpt><trkpt lat="36.82613714833209" lon="14.966347202422538"><ele>101.0</ele><time>2026-03-28T17:13:58.999Z</time></trkpt><trkpt lat="36.82606681568188" lon="14.96621611195264"><ele>101.0</ele><time>2026-03-28T17:13:59.999Z</time></trkpt><trkpt lat="36.826000398889285" lon="14.96609311715901"><ele>101.0</ele><time>2026-03-28T17:14:00.999Z</time></trkpt><trkpt lat="36.825932025522214" lon="14.965984942508637"><ele>101.0</ele><time>2026-03-28T17:14:01.999Z</time></trkpt><trkpt lat="36.825865189406684" lon="14.965873533540579"><ele>101.0</ele><time>2026-03-28T17:14:02.999Z</time></trkpt><trkpt lat="36.82581716135949" lon="14.965774476007022"><ele>101.0</ele><time>2026-03-28T17:14:03.999Z</time></trkpt><trkpt lat="36.8257859696694" lon="14.96569145758467"><ele>101.19999999999999</ele><time>2026-03-28T17:14:04.999Z</time></trkpt><trkpt lat="36.825740284301176" lon="14.965589173426018"><ele>101.39999999999999</ele><time>2026-03-28T17:14:05.999Z</time></trkpt><trkpt lat="36.8256749243845" lon="14.96547078005271"><ele>101.6</ele><time>2026-03-28T17:14:06.999Z</time></trkpt><trkpt lat="36.82560416830268" lon="14.965342597304867"><ele>101.8</ele><time>2026-03-28T17:14:07.999Z</time></trkpt><trkpt lat="36.82554738112219" lon="14.965231075306408"><ele>102.0</ele><time>2026-03-28T17:14:08.999Z</time></trkpt><trkpt lat="36.825489008248596" lon="14.965134181746741"><ele>102.33333333333334</ele><time>2026-03-28T17:14:09.999Z</time></trkpt><trkpt lat="36.825406851314455" lon="14.965006131601543"><ele>102.66666666666667</ele><time>2026-03-28T17:14:10.999Z</time></trkpt><trkpt lat="36.825311410287405" lon="14.96482738995881"><ele>103.0</ele><time>2026-03-28T17:14:11.999Z</time></trkpt><trkpt lat="36.82519523685354" lon="14.964594399690261"><ele>103.33333333333334</ele><time>2026-03-28T17:14:12.999Z</time></trkpt><trkpt lat="36.825072432651126" lon="14.964337421904752"><ele>103.66666666666666</ele><time>2026-03-28T17:14:13.999Z</time></trkpt><trkpt lat="36.82496571091036" lon="14.964124196622468"><ele>104.0</ele><time>2026-03-28T17:14:14.999Z</time></trkpt><trkpt lat="36.82487073137514" lon="14.963942409088265"><ele>104.0</ele><time>2026-03-28T17:14:15.999Z</time></trkpt><trkpt lat="36.8247824740709" lon="14.963775291222388"><ele>104.0</ele><time>2026-03-28T17:14:16.999Z</time></trkpt><trkpt lat="36.82470419240258" lon="14.963620138873477"><ele>104.0</ele><time>2026-03-28T17:14:17.999Z</time></trkpt><trkpt lat="36.82463649972888" lon="14.963479194158715"><ele>104.0</ele><time>2026-03-28T17:14:19Z</time></trkpt><trkpt lat="36.824589041938076" lon="14.963356535321294"><ele>104.80000000000001</ele><time>2026-03-28T17:14:20Z</time></trkpt><trkpt lat="36.824564065601606" lon="14.963240868447484"><ele>105.60000000000001</ele><time>2026-03-28T17:14:21Z</time></trkpt><trkpt lat="36.8245709599678" lon="14.963125759674888"><ele>106.4</ele><time>2026-03-28T17:14:22Z</time></trkpt><trkpt lat="36.82460255818736" lon="14.963010866086083"><ele>107.2</ele><time>2026-03-28T17:14:23Z</time></trkpt><trkpt lat="36.824669953195475" lon="14.962908275050642"><ele>108.0</ele><time>2026-03-28T17:14:24Z</time></trkpt><trkpt lat="36.824753536445144" lon="14.962813912792955"><ele>108.0</ele><time>2026-03-28T17:14:25Z</time></trkpt><trkpt lat="36.8248600113358" lon="14.962724364140414"><ele>108.00000000000001</ele><time>2026-03-28T17:14:26Z</time></trkpt><trkpt lat="36.82496392940599" lon="14.962628910958074"><ele>108.00000000000001</ele><time>2026-03-28T17:14:27Z</time></trkpt><trkpt lat="36.82504936746991" lon="14.96254378629818"><ele>108.0</ele><time>2026-03-28T17:14:28Z</time></trkpt><trkpt lat="36.825111935161004" lon="14.962481978349786"><ele>108.0</ele><time>2026-03-28T17:14:29Z</time></trkpt><trkpt lat="36.825163141503296" lon="14.962417621240327"><ele>109.2</ele><time>2026-03-28T17:14:30Z</time></trkpt><trkpt lat="36.82523670011162" lon="14.962356775942625"><ele>110.4</ele><time>2026-03-28T17:14:31Z</time></trkpt><trkpt lat="36.825325901372224" lon="14.96226834567362"><ele>111.60000000000001</ele><time>2026-03-28T17:14:32Z</time></trkpt><trkpt lat="36.82542093042752" lon="14.96217413792902"><ele>112.80000000000001</ele><time>2026-03-28T17:14:33Z</time></trkpt><trkpt lat="36.825516565521895" lon="14.962079329440996"><ele>114.0</ele><time>2026-03-28T17:14:34Z</time></trkpt><trkpt lat="36.82562387371882" lon="14.961972948774562"><ele>114.0</ele><time>2026-03-28T17:14:35Z</time></trkpt><trkpt lat="36.82571252766285" lon="14.961853437366251"><ele>114.0</ele><time>2026-03-28T17:14:36Z</time></trkpt><trkpt lat="36.82580308710128" lon="14.961780655409926"><ele>114.0</ele><time>2026-03-28T17:14:37Z</time></trkpt><trkpt lat="36.8258760920396" lon="14.961718613164628"><ele>114.0</ele><time>2026-03-28T17:14:38Z</time></trkpt><trkpt lat="36.8259464988736" lon="14.961637133956918"><ele>114.0</ele><time>2026-03-28T17:14:39Z</time></trkpt><trkpt lat="36.8260340463342" lon="14.961534328585094"><ele>116.0</ele><time>2026-03-28T17:14:40Z</time></trkpt><trkpt lat="36.826117399201124" lon="14.961465002152156"><ele>118.0</ele><time>2026-03-28T17:14:41Z</time></trkpt><trkpt lat="36.82618233216097" lon="14.961422074163641"><ele>120.0</ele><time>2026-03-28T17:14:42Z</time></trkpt><trkpt lat="36.8262509800994" lon="14.961338420119642"><ele>122.0</ele><time>2026-03-28T17:14:44Z</time></trkpt><trkpt lat="36.8263086298304" lon="14.9612595903501"><ele>124.0</ele><time>2026-03-28T17:14:45Z</time></trkpt><trkpt lat="36.82640091637836" lon="14.961161344875867"><ele>124.0</ele><time>2026-03-28T17:14:46Z</time></trkpt><trkpt lat="36.82651513426844" lon="14.961056259046227"><ele>124.0</ele><time>2026-03-28T17:14:47Z</time></trkpt><trkpt lat="36.82659162053285" lon="14.960966899058823"><ele>124.0</ele><time>2026-03-28T17:14:48Z</time></trkpt><trkpt lat="36.826628486436135" lon="14.960876324020562"><ele>124.0</ele><time>2026-03-28T17:14:49Z</time></trkpt><trkpt lat="36.82665810021153" lon="14.960796731136474"><ele>124.0</ele><time>2026-03-28T17:14:50Z</time></trkpt><trkpt lat="36.826682922046814" lon="14.960720551733713"><ele>125.0</ele><time>2026-03-28T17:14:51Z</time></trkpt><trkpt lat="36.82671332787028" lon="14.960636125939288"><ele>126.0</ele><time>2026-03-28T17:14:52Z</time></trkpt><trkpt lat="36.82675306280454" lon="14.96052445854044"><ele>127.0</ele><time>2026-03-28T17:14:53Z</time></trkpt><trkpt lat="36.82680794764365" lon="14.960392004458438"><ele>128.0</ele><time>2026-03-28T17:14:54Z</time></trkpt><trkpt lat="36.826864085532144" lon="14.96027361043898"><ele>129.0</ele><time>2026-03-28T17:14:55Z</time></trkpt><trkpt lat="36.826925162020586" lon="14.960120612907437"><ele>131.25</ele><time>2026-03-28T17:14:56Z</time></trkpt><trkpt lat="36.82700641389915" lon="14.959956808441092"><ele>133.5</ele><time>2026-03-28T17:14:57Z</time></trkpt><trkpt lat="36.827083013818495" lon="14.95978436754264"><ele>135.75</ele><time>2026-03-28T17:14:58Z</time></trkpt><trkpt lat="36.82713685369465" lon="14.959638299266196"><ele>138.0</ele><time>2026-03-28T17:14:59Z</time></trkpt><trkpt lat="36.827174770319814" lon="14.959528709523054"><ele>138.0</ele><time>2026-03-28T17:15:00Z</time></trkpt><trkpt lat="36.82721467242341" lon="14.959438969172245"><ele>138.0</ele><time>2026-03-28T17:15:01Z</time></trkpt><trkpt lat="36.8272626041125" lon="14.959316053746353"><ele>138.0</ele><time>2026-03-28T17:15:02Z</time></trkpt><trkpt lat="36.82731639136568" lon="14.95915740101985"><ele>138.0</ele><time>2026-03-28T17:15:03Z</time></trkpt><trkpt lat="36.827366646188636" lon="14.959006460717193"><ele>138.4</ele><time>2026-03-28T17:15:04Z</time></trkpt><trkpt lat="36.827412864840234" lon="14.958889269439434"><ele>138.8</ele><time>2026-03-28T17:15:05Z</time></trkpt><trkpt lat="36.82744336869982" lon="14.958795574491793"><ele>139.2</ele><time>2026-03-28T17:15:06Z</time></trkpt><trkpt lat="36.82747371938331" lon="14.958695432465372"><ele>139.6</ele><time>2026-03-28T17:15:07Z</time></trkpt><trkpt lat="36.82750202601432" lon="14.958582969579712"><ele>140.0</ele><time>2026-03-28T17:15:08Z</time></trkpt><trkpt lat="36.827546029118665" lon="14.958482295120922"><ele>140.0</ele><time>2026-03-28T17:15:09Z</time></trkpt><trkpt lat="36.82758560318676" lon="14.958369770299011"><ele>140.0</ele><time>2026-03-28T17:15:10Z</time></trkpt><trkpt lat="36.82762575925938" lon="14.958251668685472"><ele>140.0</ele><time>2026-03-28T17:15:11Z</time></trkpt><trkpt lat="36.82766571715318" lon="14.95814822988623"><ele>140.0</ele><time>2026-03-28T17:15:12Z</time></trkpt><trkpt lat="36.82769568921903" lon="14.958053829272313"><ele>140.0</ele><time>2026-03-28T17:15:13Z</time></trkpt><trkpt lat="36.82772017307747" lon="14.95797517524475"><ele>140.0</ele><time>2026-03-28T17:15:14Z</time></trkpt><trkpt lat="36.82777197364201" lon="14.957851832673843"><ele>140.8</ele><time>2026-03-28T17:15:16Z</time></trkpt><trkpt lat="36.82781609026912" lon="14.957738896463656"><ele>141.6</ele><time>2026-03-28T17:15:18Z</time></trkpt><trkpt lat="36.82785762385351" lon="14.957637584627797"><ele>142.4</ele><time>2026-03-28T17:15:20Z</time></trkpt><trkpt lat="36.82789272360467" lon="14.95753286473137"><ele>143.2</ele><time>2026-03-28T17:15:22Z</time></trkpt><trkpt lat="36.827920321840665" lon="14.95742679736881"><ele>144.0</ele><time>2026-03-28T17:15:24Z</time></trkpt><trkpt lat="36.82795460619389" lon="14.957331158221814"><ele>144.0</ele><time>2026-03-28T17:15:25Z</time></trkpt><trkpt lat="36.82798363671983" lon="14.957213522008002"><ele>144.0</ele><time>2026-03-28T17:15:26Z</time></trkpt><trkpt lat="36.82799824696492" lon="14.957091687780997"><ele>144.0</ele><time>2026-03-28T17:15:27Z</time></trkpt><trkpt lat="36.827993928035376" lon="14.957004736094996"><ele>144.0</ele><time>2026-03-28T17:15:28Z</time></trkpt><trkpt lat="36.82798502892251" lon="14.956869864526494"><ele>144.0</ele><time>2026-03-28T17:15:30Z</time></trkpt><trkpt lat="36.82796574031398" lon="14.956759874909588"><ele>144.2</ele><time>2026-03-28T17:15:32Z</time></trkpt><trkpt lat="36.82795630762218" lon="14.95667208575598"><ele>144.4</ele><time>2026-03-28T17:15:34Z</time></trkpt><trkpt lat="36.82794328475976" lon="14.956571277683846"><ele>144.6</ele><time>2026-03-28T17:15:36Z</time></trkpt><trkpt lat="36.827913685933915" lon="14.956414849041192"><ele>144.8</ele><time>2026-03-28T17:15:38Z</time></trkpt><trkpt lat="36.82789160438775" lon="14.95630271888568"><ele>145.0</ele><time>2026-03-28T17:15:39Z</time></trkpt><trkpt lat="36.82786190493067" lon="14.956168553761753"><ele>145.0</ele><time>2026-03-28T17:15:40Z</time></trkpt><trkpt lat="36.82783019273924" lon="14.95601386704753"><ele>145.0</ele><time>2026-03-28T17:15:41Z</time></trkpt><trkpt lat="36.82780688052063" lon="14.95585766611259"><ele>145.0</ele><time>2026-03-28T17:15:42Z</time></trkpt><trkpt lat="36.82778747548254" lon="14.955689185980347"><ele>145.0</ele><time>2026-03-28T17:15:43Z</time></trkpt><trkpt lat="36.827757384924546" lon="14.955500666400257"><ele>145.33333333333334</ele><time>2026-03-28T17:15:44Z</time></trkpt><trkpt lat="36.8277268185823" lon="14.955303631688144"><ele>145.66666666666666</ele><time>2026-03-28T17:15:45Z</time></trkpt><trkpt lat="36.82770551755119" lon="14.955097719382156"><ele>146.0</ele><time>2026-03-28T17:15:46Z</time></trkpt><trkpt lat="36.827682080936576" lon="14.954884899919705"><ele>146.0</ele><time>2026-03-28T17:15:47Z</time></trkpt><trkpt lat="36.82765437904838" lon="14.954699876504785"><ele>146.0</ele><time>2026-03-28T17:15:48Z</time></trkpt><trkpt lat="36.82762739374764" lon="14.954530471543551"><ele>146.0</ele><time>2026-03-28T17:15:48.999Z</time></trkpt><trkpt lat="36.827604780602854" lon="14.954381890584509"><ele>146.0</ele><time>2026-03-28T17:15:49.999Z</time></trkpt><trkpt lat="36.82758483458636" lon="14.954243110378"><ele>146.75</ele><time>2026-03-28T17:15:50.999Z</time></trkpt><trkpt lat="36.82756334722971" lon="14.95410380400754"><ele>147.5</ele><time>2026-03-28T17:15:51.999Z</time></trkpt><trkpt lat="36.82755291014032" lon="14.95395689368907"><ele>148.25</ele><time>2026-03-28T17:15:52.999Z</time></trkpt><trkpt lat="36.82755489026652" lon="14.953806119061685"><ele>149.0</ele><time>2026-03-28T17:15:53.999Z</time></trkpt><trkpt lat="36.82757625772622" lon="14.953666598760494"><ele>149.0</ele><time>2026-03-28T17:15:54.999Z</time></trkpt><trkpt lat="36.82761243097626" lon="14.953526714322585"><ele>149.0</ele><time>2026-03-28T17:15:55.999Z</time></trkpt><trkpt lat="36.82766526766433" lon="14.953383947020923"><ele>149.0</ele><time>2026-03-28T17:15:56.999Z</time></trkpt><trkpt lat="36.82772645526595" lon="14.95324453143173"><ele>149.0</ele><time>2026-03-28T17:15:57.999Z</time></trkpt><trkpt lat="36.82778732993698" lon="14.953118943199906"><ele>148.6</ele><time>2026-03-28T17:15:58.999Z</time></trkpt><trkpt lat="36.827840785304225" lon="14.95299792624154"><ele>148.2</ele><time>2026-03-28T17:15:59.999Z</time></trkpt><trkpt lat="36.82788842489745" lon="14.952880659862892"><ele>147.79999999999998</ele><time>2026-03-28T17:16:00.999Z</time></trkpt><trkpt lat="36.82793252067476" lon="14.952772028054126"><ele>147.4</ele><time>2026-03-28T17:16:01.999Z</time></trkpt><trkpt lat="36.82797528186866" lon="14.952680459485777"><ele>147.0</ele><time>2026-03-28T17:16:02.999Z</time></trkpt><trkpt lat="36.82801398439967" lon="14.952593687201531"><ele>147.33333333333334</ele><time>2026-03-28T17:16:03.999Z</time></trkpt><trkpt lat="36.82804996814058" lon="14.95251294054485"><ele>147.66666666666666</ele><time>2026-03-28T17:16:04.999Z</time></trkpt><trkpt lat="36.82808386671304" lon="14.952440697854065"><ele>148.0</ele><time>2026-03-28T17:16:05.999Z</time></trkpt><trkpt lat="36.82811499176353" lon="14.952369895046946"><ele>148.33333333333331</ele><time>2026-03-28T17:16:06.999Z</time></trkpt><trkpt lat="36.82817188919431" lon="14.95224804645879"><ele>148.66666666666666</ele><time>2026-03-28T17:16:08.999Z</time></trkpt><trkpt lat="36.8282180540728" lon="14.952126207154452"><ele>149.0</ele><time>2026-03-28T17:16:10.999Z</time></trkpt><trkpt lat="36.828241770696366" lon="14.952047073686265"><ele>149.0</ele><time>2026-03-28T17:16:11.999Z</time></trkpt><trkpt lat="36.82830380128749" lon="14.951933811664587"><ele>149.0</ele><time>2026-03-28T17:16:12.999Z</time></trkpt><trkpt lat="36.8283582869544" lon="14.951797943576244"><ele>149.0</ele><time>2026-03-28T17:16:13.999Z</time></trkpt><trkpt lat="36.82841916648823" lon="14.951652327946253"><ele>149.0</ele><time>2026-03-28T17:16:14.999Z</time></trkpt><trkpt lat="36.82849256686638" lon="14.951485297666235"><ele>148.0</ele><time>2026-03-28T17:16:15.999Z</time></trkpt><trkpt lat="36.828570830620926" lon="14.951310257642055"><ele>147.0</ele><time>2026-03-28T17:16:16.999Z</time></trkpt><trkpt lat="36.828649415707666" lon="14.951128733491307"><ele>146.0</ele><time>2026-03-28T17:16:17.999Z</time></trkpt><trkpt lat="36.82873078073926" lon="14.950940447885271"><ele>147.0</ele><time>2026-03-28T17:16:18.999Z</time></trkpt><trkpt lat="36.8288186007106" lon="14.950745741447472"><ele>148.0</ele><time>2026-03-28T17:16:19.999Z</time></trkpt><trkpt lat="36.82890970999488" lon="14.95054771426095"><ele>149.0</ele><time>2026-03-28T17:16:20.999Z</time></trkpt><trkpt lat="36.829000895101686" lon="14.950341551063282"><ele>149.0</ele><time>2026-03-28T17:16:21.999Z</time></trkpt><trkpt lat="36.82909108934077" lon="14.95014038631883"><ele>149.0</ele><time>2026-03-28T17:16:22.999Z</time></trkpt><trkpt lat="36.829181753765695" lon="14.949931284739126"><ele>149.0</ele><time>2026-03-28T17:16:23.999Z</time></trkpt><trkpt lat="36.82927497859849" lon="14.949719320626706"><ele>149.0</ele><time>2026-03-28T17:16:25Z</time></trkpt><trkpt lat="36.829368344768874" lon="14.949505044238215"><ele>149.0</ele><time>2026-03-28T17:16:26Z</time></trkpt><trkpt lat="36.829458381721786" lon="14.9492965980155"><ele>149.0</ele><time>2026-03-28T17:16:27Z</time></trkpt><trkpt lat="36.82954442168694" lon="14.949089736124938"><ele>149.0</ele><time>2026-03-28T17:16:28Z</time></trkpt><trkpt lat="36.829621228801095" lon="14.948901160124622"><ele>149.0</ele><time>2026-03-28T17:16:29Z</time></trkpt><trkpt lat="36.82969306014872" lon="14.94873262845769"><ele>149.0</ele><time>2026-03-28T17:16:30Z</time></trkpt><trkpt lat="36.82975952741256" lon="14.948571615733874"><ele>149.0</ele><time>2026-03-28T17:16:31Z</time></trkpt><trkpt lat="36.8298149409364" lon="14.948414727459745"><ele>149.0</ele><time>2026-03-28T17:16:32Z</time></trkpt><trkpt lat="36.82985741433257" lon="14.948247000253218"><ele>149.0</ele><time>2026-03-28T17:16:33Z</time></trkpt><trkpt lat="36.8298959011013" lon="14.948062766510677"><ele>149.0</ele><time>2026-03-28T17:16:34Z</time></trkpt><trkpt lat="36.82992106681186" lon="14.947869234726651"><ele>149.0</ele><time>2026-03-28T17:16:35Z</time></trkpt><trkpt lat="36.82994308059025" lon="14.947665769797572"><ele>149.0</ele><time>2026-03-28T17:16:36Z</time></trkpt><trkpt lat="36.82994681801369" lon="14.947456056784443"><ele>149.0</ele><time>2026-03-28T17:16:37Z</time></trkpt><trkpt lat="36.82992706803173" lon="14.947234056253764"><ele>149.33333333333331</ele><time>2026-03-28T17:16:38Z</time></trkpt><trkpt lat="36.82990017344462" lon="14.947006944360721"><ele>149.66666666666666</ele><time>2026-03-28T17:16:39Z</time></trkpt><trkpt lat="36.82987481477457" lon="14.946772665460843"><ele>150.0</ele><time>2026-03-28T17:16:40Z</time></trkpt><trkpt lat="36.82985271386224" lon="14.946536400250766"><ele>150.0</ele><time>2026-03-28T17:16:41Z</time></trkpt><trkpt lat="36.82983604647997" lon="14.946308131774016"><ele>150.0</ele><time>2026-03-28T17:16:42Z</time></trkpt><trkpt lat="36.82982540893993" lon="14.946108963720947"><ele>150.0</ele><time>2026-03-28T17:16:43Z</time></trkpt><trkpt lat="36.829815103322595" lon="14.945931850410688"><ele>150.0</ele><time>2026-03-28T17:16:44Z</time></trkpt><trkpt lat="36.82980401206299" lon="14.945768856822626"><ele>150.0</ele><time>2026-03-28T17:16:45Z</time></trkpt><trkpt lat="36.82979412829553" lon="14.945614946165561"><ele>150.0</ele><time>2026-03-28T17:16:46Z</time></trkpt><trkpt lat="36.82977364838049" lon="14.945468544589303"><ele>150.0</ele><time>2026-03-28T17:16:47Z</time></trkpt><trkpt lat="36.82973540776356" lon="14.945343907055193"><ele>150.0</ele><time>2026-03-28T17:16:48Z</time></trkpt><trkpt lat="36.8296760373523" lon="14.945236204583644"><ele>150.0</ele><time>2026-03-28T17:16:49Z</time></trkpt><trkpt lat="36.82959249168843" lon="14.945142591735241"><ele>150.0</ele><time>2026-03-28T17:16:50Z</time></trkpt><trkpt lat="36.82949160270733" lon="14.945066559333627"><ele>150.0</ele><time>2026-03-28T17:16:51Z</time></trkpt><trkpt lat="36.829381281943306" lon="14.944996353739132"><ele>151.4</ele><time>2026-03-28T17:16:52Z</time></trkpt><trkpt lat="36.8292921727298" lon="14.944916190814304"><ele>152.8</ele><time>2026-03-28T17:16:53Z</time></trkpt><trkpt lat="36.82923347360231" lon="14.944818979078832"><ele>154.2</ele><time>2026-03-28T17:16:54Z</time></trkpt><trkpt lat="36.82921265176865" lon="14.944710089757143"><ele>155.6</ele><time>2026-03-28T17:16:55Z</time></trkpt><trkpt lat="36.82922460216328" lon="14.94459003070497"><ele>157.0</ele><time>2026-03-28T17:16:56Z</time></trkpt><trkpt lat="36.8292642716187" lon="14.944461735147652"><ele>154.75</ele><time>2026-03-28T17:16:57Z</time></trkpt><trkpt lat="36.829325395563146" lon="14.944336518606894"><ele>152.5</ele><time>2026-03-28T17:16:58Z</time></trkpt><trkpt lat="36.82939870499277" lon="14.944210122871667"><ele>150.25</ele><time>2026-03-28T17:16:59Z</time></trkpt><trkpt lat="36.82946525834272" lon="14.944073821687597"><ele>148.0</ele><time>2026-03-28T17:17:00Z</time></trkpt><trkpt lat="36.82952924497976" lon="14.943930781409067"><ele>148.0</ele><time>2026-03-28T17:17:01Z</time></trkpt><trkpt lat="36.82959179459124" lon="14.943787728785606"><ele>148.0</ele><time>2026-03-28T17:17:02Z</time></trkpt><trkpt lat="36.82965488671717" lon="14.943646833463871"><ele>148.0</ele><time>2026-03-28T17:17:03Z</time></trkpt><trkpt lat="36.82972035701087" lon="14.943506830792797"><ele>148.0</ele><time>2026-03-28T17:17:04Z</time></trkpt><trkpt lat="36.82978414552599" lon="14.943362520436935"><ele>149.75</ele><time>2026-03-28T17:17:05Z</time></trkpt><trkpt lat="36.82984594750362" lon="14.94322123340267"><ele>151.5</ele><time>2026-03-28T17:17:06Z</time></trkpt><trkpt lat="36.82990991174009" lon="14.943082099343977"><ele>153.25</ele><time>2026-03-28T17:17:07Z</time></trkpt><trkpt lat="36.829970730165286" lon="14.94294350404498"><ele>155.0</ele><time>2026-03-28T17:17:08Z</time></trkpt><trkpt lat="36.830029204297325" lon="14.942802413344241"><ele>155.0</ele><time>2026-03-28T17:17:09Z</time></trkpt><trkpt lat="36.83008912845032" lon="14.94265986669119"><ele>155.0</ele><time>2026-03-28T17:17:10Z</time></trkpt><trkpt lat="36.830151287274404" lon="14.942520168785844"><ele>155.0</ele><time>2026-03-28T17:17:11Z</time></trkpt><trkpt lat="36.83021487934188" lon="14.942381217055374"><ele>155.0</ele><time>2026-03-28T17:17:12Z</time></trkpt><trkpt lat="36.83028130516498" lon="14.942242614142081"><ele>155.75</ele><time>2026-03-28T17:17:13Z</time></trkpt><trkpt lat="36.83034842056819" lon="14.94210193505917"><ele>156.5</ele><time>2026-03-28T17:17:14Z</time></trkpt><trkpt lat="36.830408806334184" lon="14.941962277791678"><ele>157.25</ele><time>2026-03-28T17:17:15Z</time></trkpt><trkpt lat="36.83044978914646" lon="14.94182540575313"><ele>158.0</ele><time>2026-03-28T17:17:16Z</time></trkpt><trkpt lat="36.83051770761553" lon="14.941730972244256"><ele>159.0</ele><time>2026-03-28T17:17:17Z</time></trkpt><trkpt lat="36.830561578028" lon="14.941619323502309"><ele>160.0</ele><time>2026-03-28T17:17:18Z</time></trkpt><trkpt lat="36.830647814926564" lon="14.941525484167805"><ele>161.0</ele><time>2026-03-28T17:17:19Z</time></trkpt><trkpt lat="36.830734956965614" lon="14.941428734033972"><ele>162.0</ele><time>2026-03-28T17:17:20Z</time></trkpt><trkpt lat="36.83082895272561" lon="14.941342218900964"><ele>163.0</ele><time>2026-03-28T17:17:21Z</time></trkpt><trkpt lat="36.83092796322596" lon="14.94126361993366"><ele>164.0</ele><time>2026-03-28T17:17:22Z</time></trkpt><trkpt lat="36.83102938455154" lon="14.941193758549234"><ele>165.0</ele><time>2026-03-28T17:17:23Z</time></trkpt><trkpt lat="36.831132283204454" lon="14.941120235589825"><ele>166.0</ele><time>2026-03-28T17:17:24Z</time></trkpt><trkpt lat="36.831232675652494" lon="14.941035962083605"><ele>167.0</ele><time>2026-03-28T17:17:25Z</time></trkpt><trkpt lat="36.83133424976915" lon="14.940954933154229"><ele>167.2</ele><time>2026-03-28T17:17:26Z</time></trkpt><trkpt lat="36.831435734670244" lon="14.940872642877519"><ele>167.39999999999998</ele><time>2026-03-28T17:17:27Z</time></trkpt><trkpt lat="36.83152530676194" lon="14.940797354408677"><ele>167.60000000000002</ele><time>2026-03-28T17:17:28Z</time></trkpt><trkpt lat="36.83160380810027" lon="14.940734784787118"><ele>167.8</ele><time>2026-03-28T17:17:29Z</time></trkpt><trkpt lat="36.83167838561811" lon="14.940693624730002"><ele>168.0</ele><time>2026-03-28T17:17:30Z</time></trkpt><trkpt lat="36.83175569761444" lon="14.940701208338634"><ele>168.2</ele><time>2026-03-28T17:17:31Z</time></trkpt><trkpt lat="36.83182678697046" lon="14.940751551378273"><ele>168.4</ele><time>2026-03-28T17:17:32Z</time></trkpt><trkpt lat="36.831884125872364" lon="14.940858795117233"><ele>168.6</ele><time>2026-03-28T17:17:33Z</time></trkpt><trkpt lat="36.831976702260135" lon="14.940937256224835"><ele>168.79999999999998</ele><time>2026-03-28T17:17:34Z</time></trkpt><trkpt lat="36.832073756387814" lon="14.941030470500351"><ele>169.0</ele><time>2026-03-28T17:17:35Z</time></trkpt><trkpt lat="36.83218858076723" lon="14.941112245805439"><ele>169.0</ele><time>2026-03-28T17:17:36Z</time></trkpt><trkpt lat="36.832315429740916" lon="14.941185379395664"><ele>169.0</ele><time>2026-03-28T17:17:37Z</time></trkpt><trkpt lat="36.832454600465226" lon="14.941260195113081"><ele>169.0</ele><time>2026-03-28T17:17:38Z</time></trkpt><trkpt lat="36.832605494825884" lon="14.941314847246895"><ele>169.0</ele><time>2026-03-28T17:17:39Z</time></trkpt><trkpt lat="36.832762070024906" lon="14.941349200278374"><ele>169.33333333333334</ele><time>2026-03-28T17:17:40Z</time></trkpt><trkpt lat="36.83291757982036" lon="14.941381554350095"><ele>169.66666666666666</ele><time>2026-03-28T17:17:41Z</time></trkpt><trkpt lat="36.83306742889399" lon="14.941423006184188"><ele>170.0</ele><time>2026-03-28T17:17:42Z</time></trkpt><trkpt lat="36.83320772047918" lon="14.941470905237468"><ele>170.0</ele><time>2026-03-28T17:17:43Z</time></trkpt><trkpt lat="36.8333297826632" lon="14.941540597423348"><ele>170.0</ele><time>2026-03-28T17:17:44Z</time></trkpt><trkpt lat="36.833455400671674" lon="14.941621677208248"><ele>170.0</ele><time>2026-03-28T17:17:45Z</time></trkpt><trkpt lat="36.833571376799924" lon="14.941726229511607"><ele>170.0</ele><time>2026-03-28T17:17:46Z</time></trkpt><trkpt lat="36.833680637565365" lon="14.941854792309435"><ele>169.66666666666666</ele><time>2026-03-28T17:17:47Z</time></trkpt><trkpt lat="36.83378583835892" lon="14.94200904014323"><ele>169.33333333333334</ele><time>2026-03-28T17:17:48Z</time></trkpt><trkpt lat="36.8338765792745" lon="14.942173639862233"><ele>169.0</ele><time>2026-03-28T17:17:49Z</time></trkpt><trkpt lat="36.83395979285345" lon="14.942340455461743"><ele>169.0</ele><time>2026-03-28T17:17:50Z</time></trkpt><trkpt lat="36.83403613706581" lon="14.942512042930254"><ele>169.0</ele><time>2026-03-28T17:17:51Z</time></trkpt><trkpt lat="36.8341135454414" lon="14.942682697285484"><ele>169.0</ele><time>2026-03-28T17:17:52Z</time></trkpt><trkpt lat="36.83419602096327" lon="14.942841545442224"><ele>168.0</ele><time>2026-03-28T17:17:53Z</time></trkpt><trkpt lat="36.8342894430878" lon="14.942986692973799"><ele>167.0</ele><time>2026-03-28T17:17:54Z</time></trkpt><trkpt lat="36.8343865366608" lon="14.943132214475675"><ele>166.0</ele><time>2026-03-28T17:17:55Z</time></trkpt><trkpt lat="36.834488514044565" lon="14.94327844544445"><ele>165.33333333333334</ele><time>2026-03-28T17:17:56Z</time></trkpt><trkpt lat="36.83459615855197" lon="14.943419752778702"><ele>164.66666666666666</ele><time>2026-03-28T17:17:57Z</time></trkpt><trkpt lat="36.83470390040713" lon="14.943556611410674"><ele>164.0</ele><time>2026-03-28T17:17:57.999Z</time></trkpt><trkpt lat="36.834811141575926" lon="14.943689683459265"><ele>164.0</ele><time>2026-03-28T17:17:58.999Z</time></trkpt><trkpt lat="36.83491655101129" lon="14.943829084046918"><ele>164.0</ele><time>2026-03-28T17:17:59.999Z</time></trkpt><trkpt lat="36.835032101843055" lon="14.94395699228294"><ele>164.0</ele><time>2026-03-28T17:18:00.999Z</time></trkpt><trkpt lat="36.835145271839025" lon="14.944072179445312"><ele>163.0</ele><time>2026-03-28T17:18:01.999Z</time></trkpt><trkpt lat="36.8352579645541" lon="14.944186194783317"><ele>162.0</ele><time>2026-03-28T17:18:02.999Z</time></trkpt><trkpt lat="36.835368555939226" lon="14.944299402824274"><ele>161.0</ele><time>2026-03-28T17:18:03.999Z</time></trkpt><trkpt lat="36.83546926334618" lon="14.944411993626057"><ele>160.0</ele><time>2026-03-28T17:18:04.999Z</time></trkpt><trkpt lat="36.835558602343255" lon="14.944532156576171"><ele>158.5</ele><time>2026-03-28T17:18:05.999Z</time></trkpt><trkpt lat="36.83564054185982" lon="14.944652733477826"><ele>157.0</ele><time>2026-03-28T17:18:06.999Z</time></trkpt><trkpt lat="36.83571804101652" lon="14.94477676363501"><ele>155.5</ele><time>2026-03-28T17:18:07.999Z</time></trkpt><trkpt lat="36.835787438578386" lon="14.944895921339445"><ele>154.0</ele><time>2026-03-28T17:18:08.999Z</time></trkpt><trkpt lat="36.83585321271821" lon="14.945015055055492"><ele>153.16666666666669</ele><time>2026-03-28T17:18:09.999Z</time></trkpt><trkpt lat="36.835910384161004" lon="14.945125020331455"><ele>152.33333333333334</ele><time>2026-03-28T17:18:10.999Z</time></trkpt><trkpt lat="36.83596653891405" lon="14.945211797825987"><ele>151.5</ele><time>2026-03-28T17:18:11.999Z</time></trkpt><trkpt lat="36.836012540841494" lon="14.945271969671563"><ele>150.66666666666666</ele><time>2026-03-28T17:18:12.999Z</time></trkpt><trkpt lat="36.83605870694405" lon="14.945347589766806"><ele>149.83333333333331</ele><time>2026-03-28T17:18:14.999Z</time></trkpt><trkpt lat="36.83598009526512" lon="14.94542907859646"><ele>149.0</ele><time>2026-03-28T17:18:15.999Z</time></trkpt><trkpt lat="36.83592253999403" lon="14.945554985023323"><ele>149.0</ele><time>2026-03-28T17:18:16.999Z</time></trkpt><trkpt lat="36.835861307104494" lon="14.94572706504127"><ele>149.0</ele><time>2026-03-28T17:18:17.999Z</time></trkpt><trkpt lat="36.835769017651394" lon="14.945909493943628"><ele>149.0</ele><time>2026-03-28T17:18:18.999Z</time></trkpt><trkpt lat="36.83571922607781" lon="14.946046637760048"><ele>149.0</ele><time>2026-03-28T17:18:19.999Z</time></trkpt><trkpt lat="36.83568860878899" lon="14.946154868130906"><ele>148.0</ele><time>2026-03-28T17:18:20.999Z</time></trkpt><trkpt lat="36.83567970093913" lon="14.946262697894609"><ele>148.0</ele><time>2026-03-28T17:18:21.999Z</time></trkpt><trkpt lat="36.83570000190995" lon="14.946361661849389"><ele>148.0</ele><time>2026-03-28T17:18:22.999Z</time></trkpt><trkpt lat="36.83573124219663" lon="14.946468270748362"><ele>148.0</ele><time>2026-03-28T17:18:23.999Z</time></trkpt><trkpt lat="36.835742400228405" lon="14.946579256727649"><ele>148.0</ele><time>2026-03-28T17:18:24.999Z</time></trkpt><trkpt lat="36.83576224752253" lon="14.94665588543057"><ele>148.0</ele><time>2026-03-28T17:18:25.999Z</time></trkpt></trkseg></trk></gpx>